<?xml version="1.0" encoding="UTF-8" standalone="no" ?>
<gpx xmlns="http://www.topografix.com/GPX/1/1" xmlns:xsi="http://www.w3.org/2001/XMLSchema-instance" xsi:schemaLocation="http://www.topografix.com/GPX/1/1 http://www.topografix.com/GPX/1/1/gpx.xsd" version="1.1" creator="VisuGPX - https://www.visugpx.com">
  <metadata>
    <name>Sortie à Buffère</name>
  </metadata>
  <trk>
    <name><![CDATA[Sortie à Buffère_1]]></name>
    <trkseg>
      <trkpt lat="44.91492" lon="6.62503">
        <ele>1342.1</ele>
        <time>2023-05-18T13:59:21+0200</time>
      </trkpt>
      <trkpt lat="44.91489" lon="6.62509">
        <ele>1342</ele>
        <time>2023-05-18T13:59:23+0200</time>
      </trkpt>
      <trkpt lat="44.91485" lon="6.62516">
        <ele>1342</ele>
        <time>2023-05-18T13:59:25+0200</time>
      </trkpt>
      <trkpt lat="44.91486" lon="6.62526">
        <ele>1342.8</ele>
        <time>2023-05-18T13:59:27+0200</time>
      </trkpt>
      <trkpt lat="44.91492" lon="6.62527">
        <ele>1343.8</ele>
        <time>2023-05-18T13:59:29+0200</time>
      </trkpt>
      <trkpt lat="44.91498" lon="6.62523">
        <ele>1344.4</ele>
        <time>2023-05-18T13:59:31+0200</time>
      </trkpt>
      <trkpt lat="44.91502" lon="6.62517">
        <ele>1344.6</ele>
        <time>2023-05-18T13:59:33+0200</time>
      </trkpt>
      <trkpt lat="44.91507" lon="6.62513">
        <ele>1344.9</ele>
        <time>2023-05-18T13:59:36+0200</time>
      </trkpt>
      <trkpt lat="44.91512" lon="6.62513">
        <ele>1345.6</ele>
        <time>2023-05-18T13:59:39+0200</time>
      </trkpt>
      <trkpt lat="44.91515" lon="6.62519">
        <ele>1346.5</ele>
        <time>2023-05-18T13:59:42+0200</time>
      </trkpt>
      <trkpt lat="44.91517" lon="6.62526">
        <ele>1347.4</ele>
        <time>2023-05-18T13:59:44+0200</time>
      </trkpt>
      <trkpt lat="44.91519" lon="6.62533">
        <ele>1347.9</ele>
        <time>2023-05-18T13:59:46+0200</time>
      </trkpt>
      <trkpt lat="44.9152" lon="6.6254">
        <ele>1348.3</ele>
        <time>2023-05-18T13:59:49+0200</time>
      </trkpt>
      <trkpt lat="44.91524" lon="6.62544">
        <ele>1349.1</ele>
        <time>2023-05-18T13:59:52+0200</time>
      </trkpt>
      <trkpt lat="44.9153" lon="6.62545">
        <ele>1350</ele>
        <time>2023-05-18T13:59:55+0200</time>
      </trkpt>
      <trkpt lat="44.91535" lon="6.62548">
        <ele>1350.9</ele>
        <time>2023-05-18T13:59:58+0200</time>
      </trkpt>
      <trkpt lat="44.9154" lon="6.62542">
        <ele>1351.5</ele>
        <time>2023-05-18T14:00:01+0200</time>
      </trkpt>
      <trkpt lat="44.91544" lon="6.62538">
        <ele>1351.9</ele>
        <time>2023-05-18T14:00:04+0200</time>
      </trkpt>
      <trkpt lat="44.91548" lon="6.62533">
        <ele>1352.2</ele>
        <time>2023-05-18T14:00:07+0200</time>
      </trkpt>
      <trkpt lat="44.91554" lon="6.62534">
        <ele>1353.2</ele>
        <time>2023-05-18T14:00:10+0200</time>
      </trkpt>
      <trkpt lat="44.91559" lon="6.62535">
        <ele>1354</ele>
        <time>2023-05-18T14:00:13+0200</time>
      </trkpt>
      <trkpt lat="44.91564" lon="6.62538">
        <ele>1355</ele>
        <time>2023-05-18T14:00:16+0200</time>
      </trkpt>
      <trkpt lat="44.9157" lon="6.6254">
        <ele>1356</ele>
        <time>2023-05-18T14:00:19+0200</time>
      </trkpt>
      <trkpt lat="44.91577" lon="6.6254">
        <ele>1356.9</ele>
        <time>2023-05-18T14:00:22+0200</time>
      </trkpt>
      <trkpt lat="44.91581" lon="6.62541">
        <ele>1357.6</ele>
        <time>2023-05-18T14:00:25+0200</time>
      </trkpt>
      <trkpt lat="44.91587" lon="6.62542">
        <ele>1358.5</ele>
        <time>2023-05-18T14:00:28+0200</time>
      </trkpt>
      <trkpt lat="44.91591" lon="6.62548">
        <ele>1359.5</ele>
        <time>2023-05-18T14:00:31+0200</time>
      </trkpt>
      <trkpt lat="44.91593" lon="6.62554">
        <ele>1360.3</ele>
        <time>2023-05-18T14:00:34+0200</time>
      </trkpt>
      <trkpt lat="44.91593" lon="6.62561">
        <ele>1360.6</ele>
        <time>2023-05-18T14:00:37+0200</time>
      </trkpt>
      <trkpt lat="44.91591" lon="6.62569">
        <ele>1360.7</ele>
        <time>2023-05-18T14:00:40+0200</time>
      </trkpt>
      <trkpt lat="44.91589" lon="6.62576">
        <ele>1360.7</ele>
        <time>2023-05-18T14:00:43+0200</time>
      </trkpt>
      <trkpt lat="44.91586" lon="6.62583">
        <ele>1360.5</ele>
        <time>2023-05-18T14:00:46+0200</time>
      </trkpt>
      <trkpt lat="44.91586" lon="6.6259">
        <ele>1360.6</ele>
        <time>2023-05-18T14:00:48+0200</time>
      </trkpt>
      <trkpt lat="44.91584" lon="6.62597">
        <ele>1360.5</ele>
        <time>2023-05-18T14:00:50+0200</time>
      </trkpt>
      <trkpt lat="44.91585" lon="6.62604">
        <ele>1361</ele>
        <time>2023-05-18T14:00:52+0200</time>
      </trkpt>
      <trkpt lat="44.91588" lon="6.62611">
        <ele>1361.9</ele>
        <time>2023-05-18T14:00:55+0200</time>
      </trkpt>
      <trkpt lat="44.91593" lon="6.62614">
        <ele>1362.9</ele>
        <time>2023-05-18T14:00:57+0200</time>
      </trkpt>
      <trkpt lat="44.91598" lon="6.62613">
        <ele>1363.7</ele>
        <time>2023-05-18T14:01:00+0200</time>
      </trkpt>
      <trkpt lat="44.91603" lon="6.6261">
        <ele>1364.4</ele>
        <time>2023-05-18T14:01:02+0200</time>
      </trkpt>
      <trkpt lat="44.91608" lon="6.62607">
        <ele>1365.4</ele>
        <time>2023-05-18T14:01:05+0200</time>
      </trkpt>
      <trkpt lat="44.91614" lon="6.62603">
        <ele>1366.2</ele>
        <time>2023-05-18T14:01:08+0200</time>
      </trkpt>
      <trkpt lat="44.91618" lon="6.62601">
        <ele>1367.1</ele>
        <time>2023-05-18T14:01:11+0200</time>
      </trkpt>
      <trkpt lat="44.91624" lon="6.62599">
        <ele>1368.2</ele>
        <time>2023-05-18T14:01:14+0200</time>
      </trkpt>
      <trkpt lat="44.9163" lon="6.62596">
        <ele>1369.1</ele>
        <time>2023-05-18T14:01:16+0200</time>
      </trkpt>
      <trkpt lat="44.91636" lon="6.62595">
        <ele>1370.2</ele>
        <time>2023-05-18T14:01:19+0200</time>
      </trkpt>
      <trkpt lat="44.91641" lon="6.62593">
        <ele>1371</ele>
        <time>2023-05-18T14:01:21+0200</time>
      </trkpt>
      <trkpt lat="44.91647" lon="6.62592">
        <ele>1372.2</ele>
        <time>2023-05-18T14:01:24+0200</time>
      </trkpt>
      <trkpt lat="44.91653" lon="6.62593">
        <ele>1373.2</ele>
        <time>2023-05-18T14:01:26+0200</time>
      </trkpt>
      <trkpt lat="44.91655" lon="6.62599">
        <ele>1374</ele>
        <time>2023-05-18T14:01:30+0200</time>
      </trkpt>
      <trkpt lat="44.91655" lon="6.62606">
        <ele>1374.4</ele>
        <time>2023-05-18T14:01:33+0200</time>
      </trkpt>
      <trkpt lat="44.91652" lon="6.62613">
        <ele>1374.5</ele>
        <time>2023-05-18T14:01:37+0200</time>
      </trkpt>
      <trkpt lat="44.91649" lon="6.62622">
        <ele>1374.5</ele>
        <time>2023-05-18T14:01:41+0200</time>
      </trkpt>
      <trkpt lat="44.91648" lon="6.62631">
        <ele>1375</ele>
        <time>2023-05-18T14:01:44+0200</time>
      </trkpt>
      <trkpt lat="44.91649" lon="6.62639">
        <ele>1375.9</ele>
        <time>2023-05-18T14:01:47+0200</time>
      </trkpt>
      <trkpt lat="44.91647" lon="6.62645">
        <ele>1376</ele>
        <time>2023-05-18T14:01:50+0200</time>
      </trkpt>
      <trkpt lat="44.91649" lon="6.62653">
        <ele>1377</ele>
        <time>2023-05-18T14:01:52+0200</time>
      </trkpt>
      <trkpt lat="44.91648" lon="6.62661">
        <ele>1377.5</ele>
        <time>2023-05-18T14:01:54+0200</time>
      </trkpt>
      <trkpt lat="44.9165" lon="6.62668">
        <ele>1378.5</ele>
        <time>2023-05-18T14:01:56+0200</time>
      </trkpt>
      <trkpt lat="44.91654" lon="6.62672">
        <ele>1379.9</ele>
        <time>2023-05-18T14:01:58+0200</time>
      </trkpt>
      <trkpt lat="44.91659" lon="6.6267">
        <ele>1380.7</ele>
        <time>2023-05-18T14:02:01+0200</time>
      </trkpt>
      <trkpt lat="44.91665" lon="6.62667">
        <ele>1381.6</ele>
        <time>2023-05-18T14:02:04+0200</time>
      </trkpt>
      <trkpt lat="44.91669" lon="6.62663">
        <ele>1382</ele>
        <time>2023-05-18T14:02:08+0200</time>
      </trkpt>
      <trkpt lat="44.91673" lon="6.62659">
        <ele>1382.6</ele>
        <time>2023-05-18T14:02:10+0200</time>
      </trkpt>
      <trkpt lat="44.91678" lon="6.62657">
        <ele>1383.7</ele>
        <time>2023-05-18T14:02:13+0200</time>
      </trkpt>
      <trkpt lat="44.91683" lon="6.62656">
        <ele>1384.5</ele>
        <time>2023-05-18T14:02:15+0200</time>
      </trkpt>
      <trkpt lat="44.91689" lon="6.6266">
        <ele>1386.1</ele>
        <time>2023-05-18T14:02:19+0200</time>
      </trkpt>
      <trkpt lat="44.91688" lon="6.62666">
        <ele>1386.5</ele>
        <time>2023-05-18T14:02:24+0200</time>
      </trkpt>
      <trkpt lat="44.91687" lon="6.62674">
        <ele>1387.2</ele>
        <time>2023-05-18T14:02:27+0200</time>
      </trkpt>
      <trkpt lat="44.91687" lon="6.6268">
        <ele>1387.8</ele>
        <time>2023-05-18T14:02:29+0200</time>
      </trkpt>
      <trkpt lat="44.91686" lon="6.6269">
        <ele>1388.7</ele>
        <time>2023-05-18T14:02:32+0200</time>
      </trkpt>
      <trkpt lat="44.91685" lon="6.62698">
        <ele>1389.4</ele>
        <time>2023-05-18T14:02:35+0200</time>
      </trkpt>
      <trkpt lat="44.91686" lon="6.62706">
        <ele>1390.9</ele>
        <time>2023-05-18T14:02:37+0200</time>
      </trkpt>
      <trkpt lat="44.91692" lon="6.6271">
        <ele>1392.6</ele>
        <time>2023-05-18T14:02:40+0200</time>
      </trkpt>
      <trkpt lat="44.91695" lon="6.62706">
        <ele>1392.9</ele>
        <time>2023-05-18T14:02:42+0200</time>
      </trkpt>
      <trkpt lat="44.917" lon="6.62702">
        <ele>1393.4</ele>
        <time>2023-05-18T14:02:46+0200</time>
      </trkpt>
      <trkpt lat="44.91705" lon="6.62696">
        <ele>1393.6</ele>
        <time>2023-05-18T14:02:50+0200</time>
      </trkpt>
      <trkpt lat="44.91709" lon="6.62692">
        <ele>1394</ele>
        <time>2023-05-18T14:02:53+0200</time>
      </trkpt>
      <trkpt lat="44.91714" lon="6.62689">
        <ele>1394.7</ele>
        <time>2023-05-18T14:02:55+0200</time>
      </trkpt>
      <trkpt lat="44.91718" lon="6.62687">
        <ele>1395.6</ele>
        <time>2023-05-18T14:02:57+0200</time>
      </trkpt>
      <trkpt lat="44.91724" lon="6.62689">
        <ele>1397</ele>
        <time>2023-05-18T14:03:00+0200</time>
      </trkpt>
      <trkpt lat="44.91726" lon="6.62696">
        <ele>1398</ele>
        <time>2023-05-18T14:03:02+0200</time>
      </trkpt>
      <trkpt lat="44.91725" lon="6.62705">
        <ele>1398.9</ele>
        <time>2023-05-18T14:03:07+0200</time>
      </trkpt>
      <trkpt lat="44.91728" lon="6.62712">
        <ele>1400.3</ele>
        <time>2023-05-18T14:03:10+0200</time>
      </trkpt>
      <trkpt lat="44.91728" lon="6.6272">
        <ele>1401</ele>
        <time>2023-05-18T14:03:13+0200</time>
      </trkpt>
      <trkpt lat="44.91727" lon="6.62726">
        <ele>1401.8</ele>
        <time>2023-05-18T14:03:16+0200</time>
      </trkpt>
      <trkpt lat="44.91725" lon="6.62734">
        <ele>1403.2</ele>
        <time>2023-05-18T14:03:19+0200</time>
      </trkpt>
      <trkpt lat="44.91721" lon="6.62738">
        <ele>1403.2</ele>
        <time>2023-05-18T14:03:22+0200</time>
      </trkpt>
      <trkpt lat="44.91717" lon="6.62742">
        <ele>1403.3</ele>
        <time>2023-05-18T14:03:24+0200</time>
      </trkpt>
      <trkpt lat="44.91715" lon="6.62751">
        <ele>1404.6</ele>
        <time>2023-05-18T14:03:27+0200</time>
      </trkpt>
      <trkpt lat="44.91715" lon="6.62758">
        <ele>1406.3</ele>
        <time>2023-05-18T14:03:29+0200</time>
      </trkpt>
      <trkpt lat="44.91723" lon="6.62762">
        <ele>1408.8</ele>
        <time>2023-05-18T14:03:33+0200</time>
      </trkpt>
      <trkpt lat="44.91729" lon="6.62764">
        <ele>1410</ele>
        <time>2023-05-18T14:03:38+0200</time>
      </trkpt>
      <trkpt lat="44.91734" lon="6.62764">
        <ele>1410.8</ele>
        <time>2023-05-18T14:03:40+0200</time>
      </trkpt>
      <trkpt lat="44.91739" lon="6.62767">
        <ele>1412.2</ele>
        <time>2023-05-18T14:03:43+0200</time>
      </trkpt>
      <trkpt lat="44.91745" lon="6.62766">
        <ele>1413</ele>
        <time>2023-05-18T14:03:46+0200</time>
      </trkpt>
      <trkpt lat="44.9175" lon="6.62759">
        <ele>1412.6</ele>
        <time>2023-05-18T14:03:51+0200</time>
      </trkpt>
      <trkpt lat="44.91755" lon="6.62754">
        <ele>1412.8</ele>
        <time>2023-05-18T14:03:54+0200</time>
      </trkpt>
      <trkpt lat="44.9176" lon="6.62749">
        <ele>1412.9</ele>
        <time>2023-05-18T14:03:56+0200</time>
      </trkpt>
      <trkpt lat="44.91766" lon="6.62748">
        <ele>1414.1</ele>
        <time>2023-05-18T14:03:59+0200</time>
      </trkpt>
      <trkpt lat="44.91769" lon="6.62751">
        <ele>1415.4</ele>
        <time>2023-05-18T14:04:03+0200</time>
      </trkpt>
      <trkpt lat="44.91768" lon="6.62759">
        <ele>1416.1</ele>
        <time>2023-05-18T14:04:07+0200</time>
      </trkpt>
      <trkpt lat="44.91767" lon="6.62766">
        <ele>1416.7</ele>
        <time>2023-05-18T14:04:09+0200</time>
      </trkpt>
      <trkpt lat="44.91765" lon="6.62772">
        <ele>1417.3</ele>
        <time>2023-05-18T14:04:13+0200</time>
      </trkpt>
      <trkpt lat="44.91762" lon="6.6278">
        <ele>1418.1</ele>
        <time>2023-05-18T14:04:16+0200</time>
      </trkpt>
      <trkpt lat="44.91762" lon="6.62788">
        <ele>1419.1</ele>
        <time>2023-05-18T14:04:19+0200</time>
      </trkpt>
      <trkpt lat="44.91757" lon="6.62793">
        <ele>1419.5</ele>
        <time>2023-05-18T14:04:21+0200</time>
      </trkpt>
      <trkpt lat="44.91753" lon="6.62798">
        <ele>1420</ele>
        <time>2023-05-18T14:04:23+0200</time>
      </trkpt>
      <trkpt lat="44.91748" lon="6.62801">
        <ele>1420</ele>
        <time>2023-05-18T14:04:25+0200</time>
      </trkpt>
      <trkpt lat="44.91744" lon="6.628">
        <ele>1419.7</ele>
        <time>2023-05-18T14:04:28+0200</time>
      </trkpt>
      <trkpt lat="44.9174" lon="6.62804">
        <ele>1420.2</ele>
        <time>2023-05-18T14:04:30+0200</time>
      </trkpt>
      <trkpt lat="44.91742" lon="6.62809">
        <ele>1421.9</ele>
        <time>2023-05-18T14:04:33+0200</time>
      </trkpt>
      <trkpt lat="44.91747" lon="6.62812">
        <ele>1422.9</ele>
        <time>2023-05-18T14:04:36+0200</time>
      </trkpt>
      <trkpt lat="44.91752" lon="6.62814">
        <ele>1423.6</ele>
        <time>2023-05-18T14:04:38+0200</time>
      </trkpt>
      <trkpt lat="44.91757" lon="6.62814">
        <ele>1423.7</ele>
        <time>2023-05-18T14:04:40+0200</time>
      </trkpt>
      <trkpt lat="44.91762" lon="6.62814">
        <ele>1424.1</ele>
        <time>2023-05-18T14:04:43+0200</time>
      </trkpt>
      <trkpt lat="44.91768" lon="6.62815">
        <ele>1424.6</ele>
        <time>2023-05-18T14:04:46+0200</time>
      </trkpt>
      <trkpt lat="44.91773" lon="6.62816">
        <ele>1425.1</ele>
        <time>2023-05-18T14:04:48+0200</time>
      </trkpt>
      <trkpt lat="44.91777" lon="6.62814">
        <ele>1424.9</ele>
        <time>2023-05-18T14:04:50+0200</time>
      </trkpt>
      <trkpt lat="44.91784" lon="6.62815">
        <ele>1426</ele>
        <time>2023-05-18T14:04:52+0200</time>
      </trkpt>
      <trkpt lat="44.91788" lon="6.62813">
        <ele>1426.2</ele>
        <time>2023-05-18T14:04:54+0200</time>
      </trkpt>
      <trkpt lat="44.91793" lon="6.62812">
        <ele>1426.7</ele>
        <time>2023-05-18T14:04:56+0200</time>
      </trkpt>
      <trkpt lat="44.91799" lon="6.62807">
        <ele>1427</ele>
        <time>2023-05-18T14:04:58+0200</time>
      </trkpt>
      <trkpt lat="44.91801" lon="6.62802">
        <ele>1427</ele>
        <time>2023-05-18T14:05:00+0200</time>
      </trkpt>
      <trkpt lat="44.91805" lon="6.62795">
        <ele>1427.2</ele>
        <time>2023-05-18T14:05:03+0200</time>
      </trkpt>
      <trkpt lat="44.91808" lon="6.62789">
        <ele>1427.8</ele>
        <time>2023-05-18T14:05:05+0200</time>
      </trkpt>
      <trkpt lat="44.9181" lon="6.62781">
        <ele>1428</ele>
        <time>2023-05-18T14:05:07+0200</time>
      </trkpt>
      <trkpt lat="44.91812" lon="6.62773">
        <ele>1428.6</ele>
        <time>2023-05-18T14:05:09+0200</time>
      </trkpt>
      <trkpt lat="44.91813" lon="6.62767">
        <ele>1429</ele>
        <time>2023-05-18T14:05:11+0200</time>
      </trkpt>
      <trkpt lat="44.91815" lon="6.62761">
        <ele>1429.5</ele>
        <time>2023-05-18T14:05:13+0200</time>
      </trkpt>
      <trkpt lat="44.91816" lon="6.62754">
        <ele>1430.2</ele>
        <time>2023-05-18T14:05:16+0200</time>
      </trkpt>
      <trkpt lat="44.91815" lon="6.62745">
        <ele>1429.7</ele>
        <time>2023-05-18T14:05:19+0200</time>
      </trkpt>
      <trkpt lat="44.91813" lon="6.62736">
        <ele>1428.5</ele>
        <time>2023-05-18T14:05:22+0200</time>
      </trkpt>
      <trkpt lat="44.91811" lon="6.62727">
        <ele>1427.4</ele>
        <time>2023-05-18T14:05:25+0200</time>
      </trkpt>
      <trkpt lat="44.9181" lon="6.6272">
        <ele>1426.8</ele>
        <time>2023-05-18T14:05:27+0200</time>
      </trkpt>
      <trkpt lat="44.91812" lon="6.62713">
        <ele>1427.4</ele>
        <time>2023-05-18T14:05:29+0200</time>
      </trkpt>
      <trkpt lat="44.91815" lon="6.62707">
        <ele>1428.3</ele>
        <time>2023-05-18T14:05:31+0200</time>
      </trkpt>
      <trkpt lat="44.9182" lon="6.62701">
        <ele>1429.9</ele>
        <time>2023-05-18T14:05:33+0200</time>
      </trkpt>
      <trkpt lat="44.91825" lon="6.62697">
        <ele>1432</ele>
        <time>2023-05-18T14:05:35+0200</time>
      </trkpt>
      <trkpt lat="44.91829" lon="6.6269">
        <ele>1432.9</ele>
        <time>2023-05-18T14:05:37+0200</time>
      </trkpt>
      <trkpt lat="44.91832" lon="6.62683">
        <ele>1433.6</ele>
        <time>2023-05-18T14:05:39+0200</time>
      </trkpt>
      <trkpt lat="44.91835" lon="6.62675">
        <ele>1434.2</ele>
        <time>2023-05-18T14:05:42+0200</time>
      </trkpt>
      <trkpt lat="44.91838" lon="6.62665">
        <ele>1434.7</ele>
        <time>2023-05-18T14:05:44+0200</time>
      </trkpt>
      <trkpt lat="44.91842" lon="6.62657">
        <ele>1435.9</ele>
        <time>2023-05-18T14:05:46+0200</time>
      </trkpt>
      <trkpt lat="44.91845" lon="6.62648">
        <ele>1436.5</ele>
        <time>2023-05-18T14:05:48+0200</time>
      </trkpt>
      <trkpt lat="44.91848" lon="6.62642">
        <ele>1437.1</ele>
        <time>2023-05-18T14:05:50+0200</time>
      </trkpt>
      <trkpt lat="44.91849" lon="6.6263">
        <ele>1436.7</ele>
        <time>2023-05-18T14:05:52+0200</time>
      </trkpt>
      <trkpt lat="44.91851" lon="6.62624">
        <ele>1436.9</ele>
        <time>2023-05-18T14:05:53+0200</time>
      </trkpt>
      <trkpt lat="44.91853" lon="6.62616">
        <ele>1437</ele>
        <time>2023-05-18T14:05:55+0200</time>
      </trkpt>
      <trkpt lat="44.91854" lon="6.62609">
        <ele>1436.9</ele>
        <time>2023-05-18T14:05:57+0200</time>
      </trkpt>
      <trkpt lat="44.91855" lon="6.62601">
        <ele>1437</ele>
        <time>2023-05-18T14:05:59+0200</time>
      </trkpt>
      <trkpt lat="44.91856" lon="6.62592">
        <ele>1436.8</ele>
        <time>2023-05-18T14:06:01+0200</time>
      </trkpt>
      <trkpt lat="44.91859" lon="6.62584">
        <ele>1437.4</ele>
        <time>2023-05-18T14:06:03+0200</time>
      </trkpt>
      <trkpt lat="44.91863" lon="6.62572">
        <ele>1437.4</ele>
        <time>2023-05-18T14:06:05+0200</time>
      </trkpt>
      <trkpt lat="44.91866" lon="6.62563">
        <ele>1437.2</ele>
        <time>2023-05-18T14:06:07+0200</time>
      </trkpt>
      <trkpt lat="44.91868" lon="6.62554">
        <ele>1436.7</ele>
        <time>2023-05-18T14:06:09+0200</time>
      </trkpt>
      <trkpt lat="44.91869" lon="6.62546">
        <ele>1435.8</ele>
        <time>2023-05-18T14:06:11+0200</time>
      </trkpt>
      <trkpt lat="44.9187" lon="6.62537">
        <ele>1434.7</ele>
        <time>2023-05-18T14:06:13+0200</time>
      </trkpt>
      <trkpt lat="44.91871" lon="6.6253">
        <ele>1433.8</ele>
        <time>2023-05-18T14:06:14+0200</time>
      </trkpt>
      <trkpt lat="44.91877" lon="6.6252">
        <ele>1433.6</ele>
        <time>2023-05-18T14:06:16+0200</time>
      </trkpt>
      <trkpt lat="44.91879" lon="6.62515">
        <ele>1432.9</ele>
        <time>2023-05-18T14:06:17+0200</time>
      </trkpt>
      <trkpt lat="44.91887" lon="6.62509">
        <ele>1433.4</ele>
        <time>2023-05-18T14:06:19+0200</time>
      </trkpt>
      <trkpt lat="44.91892" lon="6.62507">
        <ele>1434</ele>
        <time>2023-05-18T14:06:20+0200</time>
      </trkpt>
      <trkpt lat="44.91896" lon="6.62506">
        <ele>1434.5</ele>
        <time>2023-05-18T14:06:21+0200</time>
      </trkpt>
      <trkpt lat="44.91904" lon="6.62506">
        <ele>1435.7</ele>
        <time>2023-05-18T14:06:23+0200</time>
      </trkpt>
      <trkpt lat="44.9191" lon="6.62509">
        <ele>1437.3</ele>
        <time>2023-05-18T14:06:25+0200</time>
      </trkpt>
      <trkpt lat="44.91916" lon="6.6251">
        <ele>1438.7</ele>
        <time>2023-05-18T14:06:27+0200</time>
      </trkpt>
      <trkpt lat="44.91921" lon="6.62511">
        <ele>1440</ele>
        <time>2023-05-18T14:06:30+0200</time>
      </trkpt>
      <trkpt lat="44.91929" lon="6.62511">
        <ele>1441.5</ele>
        <time>2023-05-18T14:06:33+0200</time>
      </trkpt>
      <trkpt lat="44.91937" lon="6.6251">
        <ele>1443</ele>
        <time>2023-05-18T14:06:36+0200</time>
      </trkpt>
      <trkpt lat="44.91944" lon="6.62506">
        <ele>1442.9</ele>
        <time>2023-05-18T14:06:38+0200</time>
      </trkpt>
      <trkpt lat="44.91948" lon="6.625">
        <ele>1441.9</ele>
        <time>2023-05-18T14:06:40+0200</time>
      </trkpt>
      <trkpt lat="44.91953" lon="6.62499">
        <ele>1443.1</ele>
        <time>2023-05-18T14:06:41+0200</time>
      </trkpt>
      <trkpt lat="44.91958" lon="6.62492">
        <ele>1442.7</ele>
        <time>2023-05-18T14:06:43+0200</time>
      </trkpt>
      <trkpt lat="44.91965" lon="6.62482">
        <ele>1441.9</ele>
        <time>2023-05-18T14:06:45+0200</time>
      </trkpt>
      <trkpt lat="44.9197" lon="6.62477">
        <ele>1442</ele>
        <time>2023-05-18T14:06:47+0200</time>
      </trkpt>
      <trkpt lat="44.91975" lon="6.62469">
        <ele>1441.4</ele>
        <time>2023-05-18T14:06:49+0200</time>
      </trkpt>
      <trkpt lat="44.91979" lon="6.62466">
        <ele>1442.5</ele>
        <time>2023-05-18T14:06:50+0200</time>
      </trkpt>
      <trkpt lat="44.91982" lon="6.62458">
        <ele>1442.2</ele>
        <time>2023-05-18T14:06:52+0200</time>
      </trkpt>
      <trkpt lat="44.91989" lon="6.6245">
        <ele>1443.4</ele>
        <time>2023-05-18T14:06:55+0200</time>
      </trkpt>
      <trkpt lat="44.91992" lon="6.62445">
        <ele>1443.5</ele>
        <time>2023-05-18T14:06:56+0200</time>
      </trkpt>
      <trkpt lat="44.91998" lon="6.62437">
        <ele>1444.6</ele>
        <time>2023-05-18T14:06:58+0200</time>
      </trkpt>
      <trkpt lat="44.92003" lon="6.62427">
        <ele>1444.4</ele>
        <time>2023-05-18T14:07:00+0200</time>
      </trkpt>
      <trkpt lat="44.92004" lon="6.62418">
        <ele>1442.9</ele>
        <time>2023-05-18T14:07:01+0200</time>
      </trkpt>
      <trkpt lat="44.92006" lon="6.62411">
        <ele>1442.2</ele>
        <time>2023-05-18T14:07:02+0200</time>
      </trkpt>
      <trkpt lat="44.92006" lon="6.62403">
        <ele>1441</ele>
        <time>2023-05-18T14:07:03+0200</time>
      </trkpt>
      <trkpt lat="44.9201" lon="6.62389">
        <ele>1439.5</ele>
        <time>2023-05-18T14:07:05+0200</time>
      </trkpt>
      <trkpt lat="44.9201" lon="6.62382">
        <ele>1438.3</ele>
        <time>2023-05-18T14:07:06+0200</time>
      </trkpt>
      <trkpt lat="44.92012" lon="6.62375">
        <ele>1437.2</ele>
        <time>2023-05-18T14:07:07+0200</time>
      </trkpt>
      <trkpt lat="44.92015" lon="6.62367">
        <ele>1436.9</ele>
        <time>2023-05-18T14:07:08+0200</time>
      </trkpt>
      <trkpt lat="44.9202" lon="6.62361">
        <ele>1437</ele>
        <time>2023-05-18T14:07:09+0200</time>
      </trkpt>
      <trkpt lat="44.92026" lon="6.62356">
        <ele>1437.8</ele>
        <time>2023-05-18T14:07:10+0200</time>
      </trkpt>
      <trkpt lat="44.92031" lon="6.62351">
        <ele>1437.9</ele>
        <time>2023-05-18T14:07:11+0200</time>
      </trkpt>
      <trkpt lat="44.92034" lon="6.62344">
        <ele>1436.3</ele>
        <time>2023-05-18T14:07:12+0200</time>
      </trkpt>
      <trkpt lat="44.92038" lon="6.62339">
        <ele>1435.8</ele>
        <time>2023-05-18T14:07:13+0200</time>
      </trkpt>
      <trkpt lat="44.92048" lon="6.62337">
        <ele>1437.5</ele>
        <time>2023-05-18T14:07:15+0200</time>
      </trkpt>
      <trkpt lat="44.92055" lon="6.6234">
        <ele>1439.8</ele>
        <time>2023-05-18T14:07:17+0200</time>
      </trkpt>
      <trkpt lat="44.92061" lon="6.62344">
        <ele>1442.4</ele>
        <time>2023-05-18T14:07:19+0200</time>
      </trkpt>
      <trkpt lat="44.92066" lon="6.62342">
        <ele>1442.6</ele>
        <time>2023-05-18T14:07:21+0200</time>
      </trkpt>
      <trkpt lat="44.92072" lon="6.62343">
        <ele>1444.1</ele>
        <time>2023-05-18T14:07:23+0200</time>
      </trkpt>
      <trkpt lat="44.92078" lon="6.62344">
        <ele>1445.3</ele>
        <time>2023-05-18T14:07:25+0200</time>
      </trkpt>
      <trkpt lat="44.92083" lon="6.62341">
        <ele>1445.5</ele>
        <time>2023-05-18T14:07:27+0200</time>
      </trkpt>
      <trkpt lat="44.9209" lon="6.62338">
        <ele>1445.7</ele>
        <time>2023-05-18T14:07:29+0200</time>
      </trkpt>
      <trkpt lat="44.92095" lon="6.62333">
        <ele>1445.5</ele>
        <time>2023-05-18T14:07:31+0200</time>
      </trkpt>
      <trkpt lat="44.92098" lon="6.62328">
        <ele>1444.4</ele>
        <time>2023-05-18T14:07:32+0200</time>
      </trkpt>
      <trkpt lat="44.92103" lon="6.62326">
        <ele>1444.5</ele>
        <time>2023-05-18T14:07:33+0200</time>
      </trkpt>
      <trkpt lat="44.92113" lon="6.62319">
        <ele>1444.2</ele>
        <time>2023-05-18T14:07:35+0200</time>
      </trkpt>
      <trkpt lat="44.92117" lon="6.62314">
        <ele>1443.3</ele>
        <time>2023-05-18T14:07:36+0200</time>
      </trkpt>
      <trkpt lat="44.92122" lon="6.62308">
        <ele>1442.3</ele>
        <time>2023-05-18T14:07:37+0200</time>
      </trkpt>
      <trkpt lat="44.92127" lon="6.62304">
        <ele>1441.7</ele>
        <time>2023-05-18T14:07:38+0200</time>
      </trkpt>
      <trkpt lat="44.92132" lon="6.62299">
        <ele>1441.1</ele>
        <time>2023-05-18T14:07:39+0200</time>
      </trkpt>
      <trkpt lat="44.92137" lon="6.62293">
        <ele>1440.1</ele>
        <time>2023-05-18T14:07:40+0200</time>
      </trkpt>
      <trkpt lat="44.92143" lon="6.62287">
        <ele>1439.4</ele>
        <time>2023-05-18T14:07:41+0200</time>
      </trkpt>
      <trkpt lat="44.92148" lon="6.62283">
        <ele>1438.7</ele>
        <time>2023-05-18T14:07:42+0200</time>
      </trkpt>
      <trkpt lat="44.92154" lon="6.62276">
        <ele>1437.7</ele>
        <time>2023-05-18T14:07:43+0200</time>
      </trkpt>
      <trkpt lat="44.92161" lon="6.62272">
        <ele>1437.6</ele>
        <time>2023-05-18T14:07:44+0200</time>
      </trkpt>
      <trkpt lat="44.92169" lon="6.62268">
        <ele>1438</ele>
        <time>2023-05-18T14:07:45+0200</time>
      </trkpt>
      <trkpt lat="44.92176" lon="6.62264">
        <ele>1438.2</ele>
        <time>2023-05-18T14:07:47+0200</time>
      </trkpt>
      <trkpt lat="44.92184" lon="6.62257">
        <ele>1437.9</ele>
        <time>2023-05-18T14:07:48+0200</time>
      </trkpt>
      <trkpt lat="44.92191" lon="6.62253">
        <ele>1438.2</ele>
        <time>2023-05-18T14:07:49+0200</time>
      </trkpt>
      <trkpt lat="44.92197" lon="6.62245">
        <ele>1437</ele>
        <time>2023-05-18T14:07:50+0200</time>
      </trkpt>
      <trkpt lat="44.92203" lon="6.62237">
        <ele>1435.9</ele>
        <time>2023-05-18T14:07:51+0200</time>
      </trkpt>
      <trkpt lat="44.9221" lon="6.6223">
        <ele>1435.3</ele>
        <time>2023-05-18T14:07:52+0200</time>
      </trkpt>
      <trkpt lat="44.92216" lon="6.62225">
        <ele>1435.3</ele>
        <time>2023-05-18T14:07:53+0200</time>
      </trkpt>
      <trkpt lat="44.92224" lon="6.62218">
        <ele>1435.1</ele>
        <time>2023-05-18T14:07:54+0200</time>
      </trkpt>
      <trkpt lat="44.92232" lon="6.62215">
        <ele>1436.4</ele>
        <time>2023-05-18T14:07:55+0200</time>
      </trkpt>
      <trkpt lat="44.9224" lon="6.62214">
        <ele>1438.2</ele>
        <time>2023-05-18T14:07:56+0200</time>
      </trkpt>
      <trkpt lat="44.92248" lon="6.62208">
        <ele>1438.5</ele>
        <time>2023-05-18T14:07:57+0200</time>
      </trkpt>
      <trkpt lat="44.92255" lon="6.62203">
        <ele>1438.1</ele>
        <time>2023-05-18T14:07:58+0200</time>
      </trkpt>
      <trkpt lat="44.92261" lon="6.62194">
        <ele>1435.9</ele>
        <time>2023-05-18T14:07:59+0200</time>
      </trkpt>
      <trkpt lat="44.92267" lon="6.62187">
        <ele>1434.7</ele>
        <time>2023-05-18T14:08:00+0200</time>
      </trkpt>
      <trkpt lat="44.92275" lon="6.62182">
        <ele>1434.5</ele>
        <time>2023-05-18T14:08:01+0200</time>
      </trkpt>
      <trkpt lat="44.92282" lon="6.62176">
        <ele>1433.7</ele>
        <time>2023-05-18T14:08:02+0200</time>
      </trkpt>
      <trkpt lat="44.92286" lon="6.62167">
        <ele>1431.2</ele>
        <time>2023-05-18T14:08:03+0200</time>
      </trkpt>
      <trkpt lat="44.92291" lon="6.62156">
        <ele>1429</ele>
        <time>2023-05-18T14:08:04+0200</time>
      </trkpt>
      <trkpt lat="44.92299" lon="6.62149">
        <ele>1428.5</ele>
        <time>2023-05-18T14:08:05+0200</time>
      </trkpt>
      <trkpt lat="44.92307" lon="6.62144">
        <ele>1428.3</ele>
        <time>2023-05-18T14:08:06+0200</time>
      </trkpt>
      <trkpt lat="44.92315" lon="6.62141">
        <ele>1428.2</ele>
        <time>2023-05-18T14:08:07+0200</time>
      </trkpt>
      <trkpt lat="44.92324" lon="6.6214">
        <ele>1428.5</ele>
        <time>2023-05-18T14:08:08+0200</time>
      </trkpt>
      <trkpt lat="44.92331" lon="6.62138">
        <ele>1428.5</ele>
        <time>2023-05-18T14:08:09+0200</time>
      </trkpt>
      <trkpt lat="44.92338" lon="6.62138">
        <ele>1429.1</ele>
        <time>2023-05-18T14:08:10+0200</time>
      </trkpt>
      <trkpt lat="44.92346" lon="6.62136">
        <ele>1429.4</ele>
        <time>2023-05-18T14:08:11+0200</time>
      </trkpt>
      <trkpt lat="44.92354" lon="6.62135">
        <ele>1430</ele>
        <time>2023-05-18T14:08:12+0200</time>
      </trkpt>
      <trkpt lat="44.9236" lon="6.62132">
        <ele>1429.5</ele>
        <time>2023-05-18T14:08:13+0200</time>
      </trkpt>
      <trkpt lat="44.92366" lon="6.62128">
        <ele>1428.6</ele>
        <time>2023-05-18T14:08:14+0200</time>
      </trkpt>
      <trkpt lat="44.92374" lon="6.62124">
        <ele>1427.9</ele>
        <time>2023-05-18T14:08:15+0200</time>
      </trkpt>
      <trkpt lat="44.92378" lon="6.62117">
        <ele>1425.9</ele>
        <time>2023-05-18T14:08:16+0200</time>
      </trkpt>
      <trkpt lat="44.92381" lon="6.62104">
        <ele>1423.1</ele>
        <time>2023-05-18T14:08:18+0200</time>
      </trkpt>
      <trkpt lat="44.92385" lon="6.62098">
        <ele>1422.8</ele>
        <time>2023-05-18T14:08:21+0200</time>
      </trkpt>
      <trkpt lat="44.92386" lon="6.62091">
        <ele>1422.3</ele>
        <time>2023-05-18T14:08:24+0200</time>
      </trkpt>
      <trkpt lat="44.92386" lon="6.62083">
        <ele>1421.2</ele>
        <time>2023-05-18T14:08:26+0200</time>
      </trkpt>
      <trkpt lat="44.9239" lon="6.62079">
        <ele>1422.3</ele>
        <time>2023-05-18T14:08:28+0200</time>
      </trkpt>
      <trkpt lat="44.92393" lon="6.62074">
        <ele>1423.6</ele>
        <time>2023-05-18T14:08:30+0200</time>
      </trkpt>
      <trkpt lat="44.92397" lon="6.62069">
        <ele>1425.4</ele>
        <time>2023-05-18T14:08:33+0200</time>
      </trkpt>
      <trkpt lat="44.92402" lon="6.62062">
        <ele>1427.5</ele>
        <time>2023-05-18T14:08:36+0200</time>
      </trkpt>
      <trkpt lat="44.92404" lon="6.62055">
        <ele>1429.1</ele>
        <time>2023-05-18T14:08:40+0200</time>
      </trkpt>
      <trkpt lat="44.92406" lon="6.62046">
        <ele>1431.8</ele>
        <time>2023-05-18T14:08:44+0200</time>
      </trkpt>
      <trkpt lat="44.9241" lon="6.62043">
        <ele>1434.1</ele>
        <time>2023-05-18T14:08:48+0200</time>
      </trkpt>
      <trkpt lat="44.92411" lon="6.62036">
        <ele>1436</ele>
        <time>2023-05-18T14:08:50+0200</time>
      </trkpt>
      <trkpt lat="44.92412" lon="6.62028">
        <ele>1438.4</ele>
        <time>2023-05-18T14:08:52+0200</time>
      </trkpt>
      <trkpt lat="44.9241" lon="6.62021">
        <ele>1439.2</ele>
        <time>2023-05-18T14:08:55+0200</time>
      </trkpt>
      <trkpt lat="44.92405" lon="6.62014">
        <ele>1439.7</ele>
        <time>2023-05-18T14:08:57+0200</time>
      </trkpt>
      <trkpt lat="44.92402" lon="6.62007">
        <ele>1440.5</ele>
        <time>2023-05-18T14:08:59+0200</time>
      </trkpt>
      <trkpt lat="44.92396" lon="6.62001">
        <ele>1440.2</ele>
        <time>2023-05-18T14:09:01+0200</time>
      </trkpt>
      <trkpt lat="44.92391" lon="6.61998">
        <ele>1439</ele>
        <time>2023-05-18T14:09:03+0200</time>
      </trkpt>
      <trkpt lat="44.92386" lon="6.61995">
        <ele>1438.1</ele>
        <time>2023-05-18T14:09:04+0200</time>
      </trkpt>
      <trkpt lat="44.92381" lon="6.61991">
        <ele>1437.3</ele>
        <time>2023-05-18T14:09:05+0200</time>
      </trkpt>
      <trkpt lat="44.92378" lon="6.61986">
        <ele>1437.6</ele>
        <time>2023-05-18T14:09:06+0200</time>
      </trkpt>
      <trkpt lat="44.92374" lon="6.61982">
        <ele>1437.6</ele>
        <time>2023-05-18T14:09:07+0200</time>
      </trkpt>
      <trkpt lat="44.92368" lon="6.6198">
        <ele>1436</ele>
        <time>2023-05-18T14:09:08+0200</time>
      </trkpt>
      <trkpt lat="44.92362" lon="6.61976">
        <ele>1435.5</ele>
        <time>2023-05-18T14:09:09+0200</time>
      </trkpt>
      <trkpt lat="44.92359" lon="6.61968">
        <ele>1436.2</ele>
        <time>2023-05-18T14:09:11+0200</time>
      </trkpt>
      <trkpt lat="44.92352" lon="6.61961">
        <ele>1435.5</ele>
        <time>2023-05-18T14:09:13+0200</time>
      </trkpt>
      <trkpt lat="44.92347" lon="6.61959">
        <ele>1434.6</ele>
        <time>2023-05-18T14:09:14+0200</time>
      </trkpt>
      <trkpt lat="44.92344" lon="6.61955">
        <ele>1434.5</ele>
        <time>2023-05-18T14:09:15+0200</time>
      </trkpt>
      <trkpt lat="44.92338" lon="6.61949">
        <ele>1434.2</ele>
        <time>2023-05-18T14:09:16+0200</time>
      </trkpt>
      <trkpt lat="44.92331" lon="6.61944">
        <ele>1433.3</ele>
        <time>2023-05-18T14:09:18+0200</time>
      </trkpt>
      <trkpt lat="44.92327" lon="6.61936">
        <ele>1433.4</ele>
        <time>2023-05-18T14:09:20+0200</time>
      </trkpt>
      <trkpt lat="44.92321" lon="6.61933">
        <ele>1432.4</ele>
        <time>2023-05-18T14:09:22+0200</time>
      </trkpt>
      <trkpt lat="44.92317" lon="6.61928">
        <ele>1432.3</ele>
        <time>2023-05-18T14:09:24+0200</time>
      </trkpt>
      <trkpt lat="44.92314" lon="6.61922">
        <ele>1432.9</ele>
        <time>2023-05-18T14:09:26+0200</time>
      </trkpt>
      <trkpt lat="44.92308" lon="6.61916">
        <ele>1432.6</ele>
        <time>2023-05-18T14:09:28+0200</time>
      </trkpt>
      <trkpt lat="44.92301" lon="6.61909">
        <ele>1431.3</ele>
        <time>2023-05-18T14:09:30+0200</time>
      </trkpt>
      <trkpt lat="44.92304" lon="6.61899">
        <ele>1432.3</ele>
        <time>2023-05-18T14:09:32+0200</time>
      </trkpt>
      <trkpt lat="44.92309" lon="6.61891">
        <ele>1433.3</ele>
        <time>2023-05-18T14:09:34+0200</time>
      </trkpt>
      <trkpt lat="44.92312" lon="6.61886">
        <ele>1433.2</ele>
        <time>2023-05-18T14:09:34+0200</time>
      </trkpt>
      <trkpt lat="44.92315" lon="6.61879">
        <ele>1432.6</ele>
        <time>2023-05-18T14:09:35+0200</time>
      </trkpt>
      <trkpt lat="44.9232" lon="6.61873">
        <ele>1432.3</ele>
        <time>2023-05-18T14:09:36+0200</time>
      </trkpt>
      <trkpt lat="44.92326" lon="6.61867">
        <ele>1432.1</ele>
        <time>2023-05-18T14:09:37+0200</time>
      </trkpt>
      <trkpt lat="44.9233" lon="6.6186">
        <ele>1431.4</ele>
        <time>2023-05-18T14:09:38+0200</time>
      </trkpt>
      <trkpt lat="44.92338" lon="6.61856">
        <ele>1431.3</ele>
        <time>2023-05-18T14:09:39+0200</time>
      </trkpt>
      <trkpt lat="44.92345" lon="6.61852">
        <ele>1430.8</ele>
        <time>2023-05-18T14:09:40+0200</time>
      </trkpt>
      <trkpt lat="44.92351" lon="6.61846">
        <ele>1430</ele>
        <time>2023-05-18T14:09:41+0200</time>
      </trkpt>
      <trkpt lat="44.92358" lon="6.61841">
        <ele>1429.3</ele>
        <time>2023-05-18T14:09:42+0200</time>
      </trkpt>
      <trkpt lat="44.92365" lon="6.61836">
        <ele>1429</ele>
        <time>2023-05-18T14:09:43+0200</time>
      </trkpt>
      <trkpt lat="44.92372" lon="6.61833">
        <ele>1429.1</ele>
        <time>2023-05-18T14:09:44+0200</time>
      </trkpt>
      <trkpt lat="44.9238" lon="6.61831">
        <ele>1429.5</ele>
        <time>2023-05-18T14:09:45+0200</time>
      </trkpt>
      <trkpt lat="44.92388" lon="6.61828">
        <ele>1429.2</ele>
        <time>2023-05-18T14:09:46+0200</time>
      </trkpt>
      <trkpt lat="44.92393" lon="6.61824">
        <ele>1429</ele>
        <time>2023-05-18T14:09:47+0200</time>
      </trkpt>
      <trkpt lat="44.92398" lon="6.61824">
        <ele>1429.7</ele>
        <time>2023-05-18T14:09:48+0200</time>
      </trkpt>
      <trkpt lat="44.92404" lon="6.61817">
        <ele>1428.4</ele>
        <time>2023-05-18T14:09:49+0200</time>
      </trkpt>
      <trkpt lat="44.9241" lon="6.61813">
        <ele>1428.3</ele>
        <time>2023-05-18T14:09:50+0200</time>
      </trkpt>
      <trkpt lat="44.92415" lon="6.6181">
        <ele>1428.1</ele>
        <time>2023-05-18T14:09:51+0200</time>
      </trkpt>
      <trkpt lat="44.92421" lon="6.61807">
        <ele>1428.1</ele>
        <time>2023-05-18T14:09:53+0200</time>
      </trkpt>
      <trkpt lat="44.92426" lon="6.61804">
        <ele>1428.2</ele>
        <time>2023-05-18T14:09:54+0200</time>
      </trkpt>
      <trkpt lat="44.92431" lon="6.61799">
        <ele>1427.9</ele>
        <time>2023-05-18T14:09:55+0200</time>
      </trkpt>
      <trkpt lat="44.92437" lon="6.61796">
        <ele>1427.8</ele>
        <time>2023-05-18T14:09:56+0200</time>
      </trkpt>
      <trkpt lat="44.92442" lon="6.61792">
        <ele>1427.7</ele>
        <time>2023-05-18T14:09:57+0200</time>
      </trkpt>
      <trkpt lat="44.92448" lon="6.61788">
        <ele>1427.6</ele>
        <time>2023-05-18T14:09:58+0200</time>
      </trkpt>
      <trkpt lat="44.92453" lon="6.61785">
        <ele>1427.8</ele>
        <time>2023-05-18T14:09:59+0200</time>
      </trkpt>
      <trkpt lat="44.9246" lon="6.6178">
        <ele>1428.1</ele>
        <time>2023-05-18T14:10:00+0200</time>
      </trkpt>
      <trkpt lat="44.92467" lon="6.61773">
        <ele>1427.6</ele>
        <time>2023-05-18T14:10:01+0200</time>
      </trkpt>
      <trkpt lat="44.92474" lon="6.61768">
        <ele>1427.7</ele>
        <time>2023-05-18T14:10:02+0200</time>
      </trkpt>
      <trkpt lat="44.9248" lon="6.61763">
        <ele>1427.8</ele>
        <time>2023-05-18T14:10:03+0200</time>
      </trkpt>
      <trkpt lat="44.92483" lon="6.61757">
        <ele>1427.1</ele>
        <time>2023-05-18T14:10:04+0200</time>
      </trkpt>
      <trkpt lat="44.92483" lon="6.61747">
        <ele>1424.4</ele>
        <time>2023-05-18T14:10:05+0200</time>
      </trkpt>
      <trkpt lat="44.92482" lon="6.61738">
        <ele>1422.2</ele>
        <time>2023-05-18T14:10:06+0200</time>
      </trkpt>
      <trkpt lat="44.92484" lon="6.61727">
        <ele>1420.4</ele>
        <time>2023-05-18T14:10:07+0200</time>
      </trkpt>
      <trkpt lat="44.92479" lon="6.61711">
        <ele>1416.1</ele>
        <time>2023-05-18T14:10:09+0200</time>
      </trkpt>
      <trkpt lat="44.92479" lon="6.61698">
        <ele>1413.7</ele>
        <time>2023-05-18T14:10:10+0200</time>
      </trkpt>
      <trkpt lat="44.9248" lon="6.61685">
        <ele>1412.4</ele>
        <time>2023-05-18T14:10:11+0200</time>
      </trkpt>
      <trkpt lat="44.92484" lon="6.61673">
        <ele>1412.4</ele>
        <time>2023-05-18T14:10:12+0200</time>
      </trkpt>
      <trkpt lat="44.9249" lon="6.61661">
        <ele>1413.2</ele>
        <time>2023-05-18T14:10:13+0200</time>
      </trkpt>
      <trkpt lat="44.92492" lon="6.61649">
        <ele>1413.2</ele>
        <time>2023-05-18T14:10:14+0200</time>
      </trkpt>
      <trkpt lat="44.92493" lon="6.61638">
        <ele>1412.6</ele>
        <time>2023-05-18T14:10:15+0200</time>
      </trkpt>
      <trkpt lat="44.92494" lon="6.61627">
        <ele>1411.8</ele>
        <time>2023-05-18T14:10:16+0200</time>
      </trkpt>
      <trkpt lat="44.92493" lon="6.61617">
        <ele>1410.6</ele>
        <time>2023-05-18T14:10:17+0200</time>
      </trkpt>
      <trkpt lat="44.92494" lon="6.61606">
        <ele>1409.9</ele>
        <time>2023-05-18T14:10:18+0200</time>
      </trkpt>
      <trkpt lat="44.92495" lon="6.61595">
        <ele>1409.3</ele>
        <time>2023-05-18T14:10:19+0200</time>
      </trkpt>
      <trkpt lat="44.92496" lon="6.61585">
        <ele>1409.1</ele>
        <time>2023-05-18T14:10:20+0200</time>
      </trkpt>
      <trkpt lat="44.92501" lon="6.61579">
        <ele>1410</ele>
        <time>2023-05-18T14:10:21+0200</time>
      </trkpt>
      <trkpt lat="44.92507" lon="6.61572">
        <ele>1411.5</ele>
        <time>2023-05-18T14:10:22+0200</time>
      </trkpt>
      <trkpt lat="44.92509" lon="6.61564">
        <ele>1411.8</ele>
        <time>2023-05-18T14:10:24+0200</time>
      </trkpt>
      <trkpt lat="44.92508" lon="6.61558">
        <ele>1411.2</ele>
        <time>2023-05-18T14:10:25+0200</time>
      </trkpt>
      <trkpt lat="44.92506" lon="6.6155">
        <ele>1410.3</ele>
        <time>2023-05-18T14:10:26+0200</time>
      </trkpt>
      <trkpt lat="44.92505" lon="6.6154">
        <ele>1409.7</ele>
        <time>2023-05-18T14:10:27+0200</time>
      </trkpt>
      <trkpt lat="44.92504" lon="6.61528">
        <ele>1409.1</ele>
        <time>2023-05-18T14:10:28+0200</time>
      </trkpt>
      <trkpt lat="44.92504" lon="6.61519">
        <ele>1408.9</ele>
        <time>2023-05-18T14:10:29+0200</time>
      </trkpt>
      <trkpt lat="44.92503" lon="6.61507">
        <ele>1408.8</ele>
        <time>2023-05-18T14:10:30+0200</time>
      </trkpt>
      <trkpt lat="44.92501" lon="6.61497">
        <ele>1408.3</ele>
        <time>2023-05-18T14:10:31+0200</time>
      </trkpt>
      <trkpt lat="44.92502" lon="6.61484">
        <ele>1408.3</ele>
        <time>2023-05-18T14:10:32+0200</time>
      </trkpt>
      <trkpt lat="44.92497" lon="6.61475">
        <ele>1407.5</ele>
        <time>2023-05-18T14:10:33+0200</time>
      </trkpt>
      <trkpt lat="44.92494" lon="6.61466">
        <ele>1406.7</ele>
        <time>2023-05-18T14:10:34+0200</time>
      </trkpt>
      <trkpt lat="44.92496" lon="6.61455">
        <ele>1406.6</ele>
        <time>2023-05-18T14:10:35+0200</time>
      </trkpt>
      <trkpt lat="44.92499" lon="6.61446">
        <ele>1406.9</ele>
        <time>2023-05-18T14:10:36+0200</time>
      </trkpt>
      <trkpt lat="44.92506" lon="6.61439">
        <ele>1407</ele>
        <time>2023-05-18T14:10:37+0200</time>
      </trkpt>
      <trkpt lat="44.92512" lon="6.61433">
        <ele>1407</ele>
        <time>2023-05-18T14:10:38+0200</time>
      </trkpt>
      <trkpt lat="44.92517" lon="6.61426">
        <ele>1406.9</ele>
        <time>2023-05-18T14:10:39+0200</time>
      </trkpt>
      <trkpt lat="44.92522" lon="6.61419">
        <ele>1406.6</ele>
        <time>2023-05-18T14:10:40+0200</time>
      </trkpt>
      <trkpt lat="44.92526" lon="6.6141">
        <ele>1406.3</ele>
        <time>2023-05-18T14:10:41+0200</time>
      </trkpt>
      <trkpt lat="44.9253" lon="6.61402">
        <ele>1406.1</ele>
        <time>2023-05-18T14:10:42+0200</time>
      </trkpt>
      <trkpt lat="44.92534" lon="6.61393">
        <ele>1405.8</ele>
        <time>2023-05-18T14:10:43+0200</time>
      </trkpt>
      <trkpt lat="44.92536" lon="6.61383">
        <ele>1404.3</ele>
        <time>2023-05-18T14:10:44+0200</time>
      </trkpt>
      <trkpt lat="44.92542" lon="6.61374">
        <ele>1402.8</ele>
        <time>2023-05-18T14:10:45+0200</time>
      </trkpt>
      <trkpt lat="44.92545" lon="6.61363">
        <ele>1400.8</ele>
        <time>2023-05-18T14:10:46+0200</time>
      </trkpt>
      <trkpt lat="44.92551" lon="6.61354">
        <ele>1399.4</ele>
        <time>2023-05-18T14:10:47+0200</time>
      </trkpt>
      <trkpt lat="44.92553" lon="6.61342">
        <ele>1396.7</ele>
        <time>2023-05-18T14:10:48+0200</time>
      </trkpt>
      <trkpt lat="44.92563" lon="6.61336">
        <ele>1395.9</ele>
        <time>2023-05-18T14:10:49+0200</time>
      </trkpt>
      <trkpt lat="44.92569" lon="6.61333">
        <ele>1395.4</ele>
        <time>2023-05-18T14:10:50+0200</time>
      </trkpt>
      <trkpt lat="44.92575" lon="6.61332">
        <ele>1395.4</ele>
        <time>2023-05-18T14:10:51+0200</time>
      </trkpt>
      <trkpt lat="44.92581" lon="6.61334">
        <ele>1396</ele>
        <time>2023-05-18T14:10:52+0200</time>
      </trkpt>
      <trkpt lat="44.92592" lon="6.61325">
        <ele>1394.8</ele>
        <time>2023-05-18T14:10:53+0200</time>
      </trkpt>
      <trkpt lat="44.92598" lon="6.61329">
        <ele>1395.7</ele>
        <time>2023-05-18T14:10:54+0200</time>
      </trkpt>
      <trkpt lat="44.92605" lon="6.61332">
        <ele>1396.5</ele>
        <time>2023-05-18T14:10:55+0200</time>
      </trkpt>
      <trkpt lat="44.92613" lon="6.61333">
        <ele>1397.1</ele>
        <time>2023-05-18T14:10:56+0200</time>
      </trkpt>
      <trkpt lat="44.9262" lon="6.61327">
        <ele>1396.4</ele>
        <time>2023-05-18T14:10:57+0200</time>
      </trkpt>
      <trkpt lat="44.9263" lon="6.61323">
        <ele>1396.4</ele>
        <time>2023-05-18T14:10:58+0200</time>
      </trkpt>
      <trkpt lat="44.92638" lon="6.61314">
        <ele>1395.5</ele>
        <time>2023-05-18T14:10:59+0200</time>
      </trkpt>
      <trkpt lat="44.92644" lon="6.61306">
        <ele>1394.9</ele>
        <time>2023-05-18T14:11:00+0200</time>
      </trkpt>
      <trkpt lat="44.92649" lon="6.61298">
        <ele>1394.6</ele>
        <time>2023-05-18T14:11:01+0200</time>
      </trkpt>
      <trkpt lat="44.92655" lon="6.61289">
        <ele>1394.6</ele>
        <time>2023-05-18T14:11:02+0200</time>
      </trkpt>
      <trkpt lat="44.9266" lon="6.61283">
        <ele>1394.7</ele>
        <time>2023-05-18T14:11:03+0200</time>
      </trkpt>
      <trkpt lat="44.92664" lon="6.61277">
        <ele>1394.5</ele>
        <time>2023-05-18T14:11:04+0200</time>
      </trkpt>
      <trkpt lat="44.92671" lon="6.61268">
        <ele>1394.5</ele>
        <time>2023-05-18T14:11:06+0200</time>
      </trkpt>
      <trkpt lat="44.92673" lon="6.61262">
        <ele>1394.1</ele>
        <time>2023-05-18T14:11:07+0200</time>
      </trkpt>
      <trkpt lat="44.92676" lon="6.61257">
        <ele>1394.1</ele>
        <time>2023-05-18T14:11:08+0200</time>
      </trkpt>
      <trkpt lat="44.92684" lon="6.61249">
        <ele>1394.3</ele>
        <time>2023-05-18T14:11:10+0200</time>
      </trkpt>
      <trkpt lat="44.92691" lon="6.61243">
        <ele>1394.7</ele>
        <time>2023-05-18T14:11:12+0200</time>
      </trkpt>
      <trkpt lat="44.92698" lon="6.61241">
        <ele>1395.6</ele>
        <time>2023-05-18T14:11:14+0200</time>
      </trkpt>
      <trkpt lat="44.92705" lon="6.6124">
        <ele>1396.5</ele>
        <time>2023-05-18T14:11:16+0200</time>
      </trkpt>
      <trkpt lat="44.92712" lon="6.61237">
        <ele>1397.1</ele>
        <time>2023-05-18T14:11:18+0200</time>
      </trkpt>
      <trkpt lat="44.92719" lon="6.61233">
        <ele>1397.7</ele>
        <time>2023-05-18T14:11:20+0200</time>
      </trkpt>
      <trkpt lat="44.92726" lon="6.6123">
        <ele>1398.3</ele>
        <time>2023-05-18T14:11:22+0200</time>
      </trkpt>
      <trkpt lat="44.92732" lon="6.61226">
        <ele>1398.7</ele>
        <time>2023-05-18T14:11:24+0200</time>
      </trkpt>
      <trkpt lat="44.92737" lon="6.6122">
        <ele>1399</ele>
        <time>2023-05-18T14:11:26+0200</time>
      </trkpt>
      <trkpt lat="44.92743" lon="6.61217">
        <ele>1399.4</ele>
        <time>2023-05-18T14:11:28+0200</time>
      </trkpt>
      <trkpt lat="44.9275" lon="6.61209">
        <ele>1399.6</ele>
        <time>2023-05-18T14:11:30+0200</time>
      </trkpt>
      <trkpt lat="44.92753" lon="6.61204">
        <ele>1399.5</ele>
        <time>2023-05-18T14:11:31+0200</time>
      </trkpt>
      <trkpt lat="44.92758" lon="6.61202">
        <ele>1399.8</ele>
        <time>2023-05-18T14:11:32+0200</time>
      </trkpt>
      <trkpt lat="44.92762" lon="6.61197">
        <ele>1400</ele>
        <time>2023-05-18T14:11:33+0200</time>
      </trkpt>
      <trkpt lat="44.92767" lon="6.61192">
        <ele>1400.2</ele>
        <time>2023-05-18T14:11:35+0200</time>
      </trkpt>
      <trkpt lat="44.92773" lon="6.61191">
        <ele>1400.9</ele>
        <time>2023-05-18T14:11:37+0200</time>
      </trkpt>
      <trkpt lat="44.92778" lon="6.61195">
        <ele>1402.1</ele>
        <time>2023-05-18T14:11:38+0200</time>
      </trkpt>
      <trkpt lat="44.92783" lon="6.61202">
        <ele>1403.3</ele>
        <time>2023-05-18T14:11:40+0200</time>
      </trkpt>
      <trkpt lat="44.92785" lon="6.61208">
        <ele>1404.1</ele>
        <time>2023-05-18T14:11:42+0200</time>
      </trkpt>
      <trkpt lat="44.92788" lon="6.61216">
        <ele>1405.1</ele>
        <time>2023-05-18T14:11:44+0200</time>
      </trkpt>
      <trkpt lat="44.92793" lon="6.61221">
        <ele>1406.1</ele>
        <time>2023-05-18T14:11:46+0200</time>
      </trkpt>
      <trkpt lat="44.92798" lon="6.61222">
        <ele>1406.9</ele>
        <time>2023-05-18T14:11:48+0200</time>
      </trkpt>
      <trkpt lat="44.92804" lon="6.61223">
        <ele>1407.8</ele>
        <time>2023-05-18T14:11:50+0200</time>
      </trkpt>
      <trkpt lat="44.9281" lon="6.61223">
        <ele>1408.9</ele>
        <time>2023-05-18T14:11:53+0200</time>
      </trkpt>
      <trkpt lat="44.92814" lon="6.61225">
        <ele>1410</ele>
        <time>2023-05-18T14:12:05+0200</time>
      </trkpt>
      <trkpt lat="44.92816" lon="6.61219">
        <ele>1410.1</ele>
        <time>2023-05-18T14:12:39+0200</time>
      </trkpt>
      <trkpt lat="44.92821" lon="6.61212">
        <ele>1410.9</ele>
        <time>2023-05-18T14:12:41+0200</time>
      </trkpt>
      <trkpt lat="44.92823" lon="6.61207">
        <ele>1411.3</ele>
        <time>2023-05-18T14:12:42+0200</time>
      </trkpt>
      <trkpt lat="44.92824" lon="6.61198">
        <ele>1411.4</ele>
        <time>2023-05-18T14:12:44+0200</time>
      </trkpt>
      <trkpt lat="44.92828" lon="6.61193">
        <ele>1412.5</ele>
        <time>2023-05-18T14:12:46+0200</time>
      </trkpt>
      <trkpt lat="44.92831" lon="6.61185">
        <ele>1413.4</ele>
        <time>2023-05-18T14:12:48+0200</time>
      </trkpt>
      <trkpt lat="44.92834" lon="6.61178">
        <ele>1414.2</ele>
        <time>2023-05-18T14:12:50+0200</time>
      </trkpt>
      <trkpt lat="44.92835" lon="6.61171">
        <ele>1414.7</ele>
        <time>2023-05-18T14:12:52+0200</time>
      </trkpt>
      <trkpt lat="44.92838" lon="6.61162">
        <ele>1415.4</ele>
        <time>2023-05-18T14:12:56+0200</time>
      </trkpt>
      <trkpt lat="44.92839" lon="6.61154">
        <ele>1415.5</ele>
        <time>2023-05-18T14:12:59+0200</time>
      </trkpt>
      <trkpt lat="44.92841" lon="6.61148">
        <ele>1415.6</ele>
        <time>2023-05-18T14:13:01+0200</time>
      </trkpt>
      <trkpt lat="44.92844" lon="6.6114">
        <ele>1416.3</ele>
        <time>2023-05-18T14:13:04+0200</time>
      </trkpt>
      <trkpt lat="44.92846" lon="6.61134">
        <ele>1416.3</ele>
        <time>2023-05-18T14:13:06+0200</time>
      </trkpt>
      <trkpt lat="44.92849" lon="6.61128">
        <ele>1416.7</ele>
        <time>2023-05-18T14:13:08+0200</time>
      </trkpt>
      <trkpt lat="44.92851" lon="6.6112">
        <ele>1416.2</ele>
        <time>2023-05-18T14:13:11+0200</time>
      </trkpt>
      <trkpt lat="44.92855" lon="6.61115">
        <ele>1416.5</ele>
        <time>2023-05-18T14:13:13+0200</time>
      </trkpt>
      <trkpt lat="44.92858" lon="6.61109">
        <ele>1416.7</ele>
        <time>2023-05-18T14:13:16+0200</time>
      </trkpt>
      <trkpt lat="44.92861" lon="6.61105">
        <ele>1417.2</ele>
        <time>2023-05-18T14:13:18+0200</time>
      </trkpt>
      <trkpt lat="44.92865" lon="6.61099">
        <ele>1417.3</ele>
        <time>2023-05-18T14:13:20+0200</time>
      </trkpt>
      <trkpt lat="44.9287" lon="6.61094">
        <ele>1418.2</ele>
        <time>2023-05-18T14:13:23+0200</time>
      </trkpt>
      <trkpt lat="44.92876" lon="6.6109">
        <ele>1419.5</ele>
        <time>2023-05-18T14:13:26+0200</time>
      </trkpt>
      <trkpt lat="44.92881" lon="6.61088">
        <ele>1420.4</ele>
        <time>2023-05-18T14:13:28+0200</time>
      </trkpt>
      <trkpt lat="44.92886" lon="6.61087">
        <ele>1421.7</ele>
        <time>2023-05-18T14:13:30+0200</time>
      </trkpt>
      <trkpt lat="44.92892" lon="6.61083">
        <ele>1422.8</ele>
        <time>2023-05-18T14:13:33+0200</time>
      </trkpt>
      <trkpt lat="44.92898" lon="6.61081">
        <ele>1423.8</ele>
        <time>2023-05-18T14:13:35+0200</time>
      </trkpt>
      <trkpt lat="44.92903" lon="6.6108">
        <ele>1424.8</ele>
        <time>2023-05-18T14:13:37+0200</time>
      </trkpt>
      <trkpt lat="44.92908" lon="6.61078">
        <ele>1425.5</ele>
        <time>2023-05-18T14:13:39+0200</time>
      </trkpt>
      <trkpt lat="44.92914" lon="6.61077">
        <ele>1426.8</ele>
        <time>2023-05-18T14:13:42+0200</time>
      </trkpt>
      <trkpt lat="44.9292" lon="6.61074">
        <ele>1427.6</ele>
        <time>2023-05-18T14:13:44+0200</time>
      </trkpt>
      <trkpt lat="44.92927" lon="6.61069">
        <ele>1428.3</ele>
        <time>2023-05-18T14:13:47+0200</time>
      </trkpt>
      <trkpt lat="44.92932" lon="6.61064">
        <ele>1428</ele>
        <time>2023-05-18T14:13:49+0200</time>
      </trkpt>
      <trkpt lat="44.92937" lon="6.61058">
        <ele>1427.8</ele>
        <time>2023-05-18T14:13:51+0200</time>
      </trkpt>
      <trkpt lat="44.92944" lon="6.61052">
        <ele>1428.4</ele>
        <time>2023-05-18T14:13:53+0200</time>
      </trkpt>
      <trkpt lat="44.9295" lon="6.61048">
        <ele>1429.5</ele>
        <time>2023-05-18T14:13:55+0200</time>
      </trkpt>
      <trkpt lat="44.92957" lon="6.61043">
        <ele>1430.9</ele>
        <time>2023-05-18T14:13:56+0200</time>
      </trkpt>
      <trkpt lat="44.92963" lon="6.61038">
        <ele>1432</ele>
        <time>2023-05-18T14:13:58+0200</time>
      </trkpt>
      <trkpt lat="44.92965" lon="6.61026">
        <ele>1432</ele>
        <time>2023-05-18T14:14:01+0200</time>
      </trkpt>
      <trkpt lat="44.92964" lon="6.61019">
        <ele>1432.1</ele>
        <time>2023-05-18T14:14:03+0200</time>
      </trkpt>
      <trkpt lat="44.92961" lon="6.61012">
        <ele>1431.6</ele>
        <time>2023-05-18T14:14:06+0200</time>
      </trkpt>
      <trkpt lat="44.92961" lon="6.61005">
        <ele>1432.1</ele>
        <time>2023-05-18T14:14:08+0200</time>
      </trkpt>
      <trkpt lat="44.92958" lon="6.60997">
        <ele>1431.9</ele>
        <time>2023-05-18T14:14:10+0200</time>
      </trkpt>
      <trkpt lat="44.92956" lon="6.60986">
        <ele>1433</ele>
        <time>2023-05-18T14:14:13+0200</time>
      </trkpt>
      <trkpt lat="44.92955" lon="6.60979">
        <ele>1433.7</ele>
        <time>2023-05-18T14:14:15+0200</time>
      </trkpt>
      <trkpt lat="44.92954" lon="6.60973">
        <ele>1434.2</ele>
        <time>2023-05-18T14:14:16+0200</time>
      </trkpt>
      <trkpt lat="44.92953" lon="6.60966">
        <ele>1434.8</ele>
        <time>2023-05-18T14:14:18+0200</time>
      </trkpt>
      <trkpt lat="44.92954" lon="6.60958">
        <ele>1435.9</ele>
        <time>2023-05-18T14:14:20+0200</time>
      </trkpt>
      <trkpt lat="44.92955" lon="6.6095">
        <ele>1437.1</ele>
        <time>2023-05-18T14:14:22+0200</time>
      </trkpt>
      <trkpt lat="44.92956" lon="6.60944">
        <ele>1438.3</ele>
        <time>2023-05-18T14:14:24+0200</time>
      </trkpt>
      <trkpt lat="44.92957" lon="6.60937">
        <ele>1438.9</ele>
        <time>2023-05-18T14:14:26+0200</time>
      </trkpt>
      <trkpt lat="44.92959" lon="6.60927">
        <ele>1440</ele>
        <time>2023-05-18T14:14:28+0200</time>
      </trkpt>
      <trkpt lat="44.9296" lon="6.60918">
        <ele>1440.7</ele>
        <time>2023-05-18T14:14:30+0200</time>
      </trkpt>
      <trkpt lat="44.92962" lon="6.6091">
        <ele>1441.2</ele>
        <time>2023-05-18T14:14:32+0200</time>
      </trkpt>
      <trkpt lat="44.92963" lon="6.609">
        <ele>1441.7</ele>
        <time>2023-05-18T14:14:34+0200</time>
      </trkpt>
      <trkpt lat="44.92965" lon="6.60892">
        <ele>1442.5</ele>
        <time>2023-05-18T14:14:36+0200</time>
      </trkpt>
      <trkpt lat="44.92967" lon="6.60884">
        <ele>1443.2</ele>
        <time>2023-05-18T14:14:38+0200</time>
      </trkpt>
      <trkpt lat="44.92972" lon="6.60876">
        <ele>1444.7</ele>
        <time>2023-05-18T14:14:41+0200</time>
      </trkpt>
      <trkpt lat="44.92974" lon="6.60871">
        <ele>1445.5</ele>
        <time>2023-05-18T14:14:43+0200</time>
      </trkpt>
      <trkpt lat="44.92976" lon="6.60865">
        <ele>1445.9</ele>
        <time>2023-05-18T14:14:45+0200</time>
      </trkpt>
      <trkpt lat="44.92979" lon="6.60856">
        <ele>1446.7</ele>
        <time>2023-05-18T14:14:48+0200</time>
      </trkpt>
      <trkpt lat="44.92982" lon="6.60848">
        <ele>1447.1</ele>
        <time>2023-05-18T14:14:52+0200</time>
      </trkpt>
      <trkpt lat="44.92984" lon="6.60841">
        <ele>1447.6</ele>
        <time>2023-05-18T14:14:55+0200</time>
      </trkpt>
      <trkpt lat="44.92988" lon="6.60835">
        <ele>1448.6</ele>
        <time>2023-05-18T14:15:00+0200</time>
      </trkpt>
      <trkpt lat="44.92991" lon="6.60827">
        <ele>1448.9</ele>
        <time>2023-05-18T14:15:03+0200</time>
      </trkpt>
      <trkpt lat="44.92994" lon="6.60821">
        <ele>1449.7</ele>
        <time>2023-05-18T14:15:05+0200</time>
      </trkpt>
      <trkpt lat="44.92997" lon="6.60814">
        <ele>1450.3</ele>
        <time>2023-05-18T14:15:07+0200</time>
      </trkpt>
      <trkpt lat="44.92999" lon="6.60807">
        <ele>1450.5</ele>
        <time>2023-05-18T14:15:09+0200</time>
      </trkpt>
      <trkpt lat="44.93001" lon="6.60801">
        <ele>1450.8</ele>
        <time>2023-05-18T14:15:11+0200</time>
      </trkpt>
      <trkpt lat="44.93005" lon="6.60794">
        <ele>1450.9</ele>
        <time>2023-05-18T14:15:13+0200</time>
      </trkpt>
      <trkpt lat="44.93009" lon="6.60788">
        <ele>1451.3</ele>
        <time>2023-05-18T14:15:15+0200</time>
      </trkpt>
      <trkpt lat="44.93013" lon="6.6078">
        <ele>1451.5</ele>
        <time>2023-05-18T14:15:18+0200</time>
      </trkpt>
      <trkpt lat="44.93016" lon="6.60776">
        <ele>1451.9</ele>
        <time>2023-05-18T14:15:20+0200</time>
      </trkpt>
      <trkpt lat="44.93019" lon="6.60769">
        <ele>1452.1</ele>
        <time>2023-05-18T14:15:22+0200</time>
      </trkpt>
      <trkpt lat="44.93024" lon="6.60764">
        <ele>1452.8</ele>
        <time>2023-05-18T14:15:24+0200</time>
      </trkpt>
      <trkpt lat="44.93029" lon="6.60756">
        <ele>1453.6</ele>
        <time>2023-05-18T14:15:26+0200</time>
      </trkpt>
      <trkpt lat="44.93034" lon="6.60747">
        <ele>1453.6</ele>
        <time>2023-05-18T14:15:28+0200</time>
      </trkpt>
      <trkpt lat="44.93037" lon="6.60743">
        <ele>1453.7</ele>
        <time>2023-05-18T14:15:29+0200</time>
      </trkpt>
      <trkpt lat="44.93043" lon="6.60737">
        <ele>1454.2</ele>
        <time>2023-05-18T14:15:31+0200</time>
      </trkpt>
      <trkpt lat="44.93049" lon="6.60728">
        <ele>1454.8</ele>
        <time>2023-05-18T14:15:33+0200</time>
      </trkpt>
      <trkpt lat="44.93052" lon="6.60723">
        <ele>1455.3</ele>
        <time>2023-05-18T14:15:34+0200</time>
      </trkpt>
      <trkpt lat="44.93056" lon="6.60718">
        <ele>1455.6</ele>
        <time>2023-05-18T14:15:35+0200</time>
      </trkpt>
      <trkpt lat="44.93061" lon="6.60714">
        <ele>1455.5</ele>
        <time>2023-05-18T14:15:36+0200</time>
      </trkpt>
      <trkpt lat="44.93065" lon="6.60708">
        <ele>1455.3</ele>
        <time>2023-05-18T14:15:37+0200</time>
      </trkpt>
      <trkpt lat="44.93071" lon="6.60704">
        <ele>1455.5</ele>
        <time>2023-05-18T14:15:38+0200</time>
      </trkpt>
      <trkpt lat="44.93075" lon="6.607">
        <ele>1455.6</ele>
        <time>2023-05-18T14:15:39+0200</time>
      </trkpt>
      <trkpt lat="44.9308" lon="6.60694">
        <ele>1455.6</ele>
        <time>2023-05-18T14:15:40+0200</time>
      </trkpt>
      <trkpt lat="44.93085" lon="6.60689">
        <ele>1455.5</ele>
        <time>2023-05-18T14:15:41+0200</time>
      </trkpt>
      <trkpt lat="44.9309" lon="6.60684">
        <ele>1455.4</ele>
        <time>2023-05-18T14:15:42+0200</time>
      </trkpt>
      <trkpt lat="44.93095" lon="6.60678">
        <ele>1455.3</ele>
        <time>2023-05-18T14:15:43+0200</time>
      </trkpt>
      <trkpt lat="44.93099" lon="6.60672">
        <ele>1455.2</ele>
        <time>2023-05-18T14:15:44+0200</time>
      </trkpt>
      <trkpt lat="44.93104" lon="6.60667">
        <ele>1455.2</ele>
        <time>2023-05-18T14:15:45+0200</time>
      </trkpt>
      <trkpt lat="44.93108" lon="6.60661">
        <ele>1455</ele>
        <time>2023-05-18T14:15:46+0200</time>
      </trkpt>
      <trkpt lat="44.93112" lon="6.60653">
        <ele>1454.6</ele>
        <time>2023-05-18T14:15:47+0200</time>
      </trkpt>
      <trkpt lat="44.93116" lon="6.60647">
        <ele>1454.3</ele>
        <time>2023-05-18T14:15:48+0200</time>
      </trkpt>
      <trkpt lat="44.9312" lon="6.6064">
        <ele>1454</ele>
        <time>2023-05-18T14:15:49+0200</time>
      </trkpt>
      <trkpt lat="44.93124" lon="6.60632">
        <ele>1453.6</ele>
        <time>2023-05-18T14:15:50+0200</time>
      </trkpt>
      <trkpt lat="44.93128" lon="6.60625">
        <ele>1453.4</ele>
        <time>2023-05-18T14:15:51+0200</time>
      </trkpt>
      <trkpt lat="44.93133" lon="6.6062">
        <ele>1453.2</ele>
        <time>2023-05-18T14:15:52+0200</time>
      </trkpt>
      <trkpt lat="44.93139" lon="6.60614">
        <ele>1453.3</ele>
        <time>2023-05-18T14:15:53+0200</time>
      </trkpt>
      <trkpt lat="44.93144" lon="6.60608">
        <ele>1452.8</ele>
        <time>2023-05-18T14:15:54+0200</time>
      </trkpt>
      <trkpt lat="44.93151" lon="6.60602">
        <ele>1452.5</ele>
        <time>2023-05-18T14:15:55+0200</time>
      </trkpt>
      <trkpt lat="44.93157" lon="6.606">
        <ele>1452.8</ele>
        <time>2023-05-18T14:15:56+0200</time>
      </trkpt>
      <trkpt lat="44.93164" lon="6.60598">
        <ele>1453.3</ele>
        <time>2023-05-18T14:15:57+0200</time>
      </trkpt>
      <trkpt lat="44.93171" lon="6.60595">
        <ele>1453.7</ele>
        <time>2023-05-18T14:15:58+0200</time>
      </trkpt>
      <trkpt lat="44.93176" lon="6.60585">
        <ele>1453.1</ele>
        <time>2023-05-18T14:15:59+0200</time>
      </trkpt>
      <trkpt lat="44.93183" lon="6.6058">
        <ele>1453.3</ele>
        <time>2023-05-18T14:16:00+0200</time>
      </trkpt>
      <trkpt lat="44.93189" lon="6.60574">
        <ele>1453.1</ele>
        <time>2023-05-18T14:16:01+0200</time>
      </trkpt>
      <trkpt lat="44.93194" lon="6.60567">
        <ele>1452.7</ele>
        <time>2023-05-18T14:16:02+0200</time>
      </trkpt>
      <trkpt lat="44.932" lon="6.60561">
        <ele>1452.7</ele>
        <time>2023-05-18T14:16:03+0200</time>
      </trkpt>
      <trkpt lat="44.93206" lon="6.60556">
        <ele>1453.2</ele>
        <time>2023-05-18T14:16:04+0200</time>
      </trkpt>
      <trkpt lat="44.93209" lon="6.60549">
        <ele>1452.8</ele>
        <time>2023-05-18T14:16:05+0200</time>
      </trkpt>
      <trkpt lat="44.93214" lon="6.60541">
        <ele>1452.8</ele>
        <time>2023-05-18T14:16:06+0200</time>
      </trkpt>
      <trkpt lat="44.93218" lon="6.60534">
        <ele>1452.8</ele>
        <time>2023-05-18T14:16:07+0200</time>
      </trkpt>
      <trkpt lat="44.9322" lon="6.60526">
        <ele>1452.3</ele>
        <time>2023-05-18T14:16:07+0200</time>
      </trkpt>
      <trkpt lat="44.93222" lon="6.60517">
        <ele>1451.7</ele>
        <time>2023-05-18T14:16:08+0200</time>
      </trkpt>
      <trkpt lat="44.93226" lon="6.60507">
        <ele>1451.4</ele>
        <time>2023-05-18T14:16:09+0200</time>
      </trkpt>
      <trkpt lat="44.93228" lon="6.60497">
        <ele>1450.5</ele>
        <time>2023-05-18T14:16:11+0200</time>
      </trkpt>
      <trkpt lat="44.93231" lon="6.60489">
        <ele>1450.2</ele>
        <time>2023-05-18T14:16:12+0200</time>
      </trkpt>
      <trkpt lat="44.93237" lon="6.60483">
        <ele>1450.4</ele>
        <time>2023-05-18T14:16:13+0200</time>
      </trkpt>
      <trkpt lat="44.9324" lon="6.60475">
        <ele>1450.2</ele>
        <time>2023-05-18T14:16:14+0200</time>
      </trkpt>
      <trkpt lat="44.93243" lon="6.60466">
        <ele>1449.8</ele>
        <time>2023-05-18T14:16:15+0200</time>
      </trkpt>
      <trkpt lat="44.93247" lon="6.60457">
        <ele>1449.5</ele>
        <time>2023-05-18T14:16:16+0200</time>
      </trkpt>
      <trkpt lat="44.9325" lon="6.60448">
        <ele>1449.3</ele>
        <time>2023-05-18T14:16:17+0200</time>
      </trkpt>
      <trkpt lat="44.93255" lon="6.60439">
        <ele>1448.7</ele>
        <time>2023-05-18T14:16:18+0200</time>
      </trkpt>
      <trkpt lat="44.9326" lon="6.60431">
        <ele>1447.7</ele>
        <time>2023-05-18T14:16:19+0200</time>
      </trkpt>
      <trkpt lat="44.93265" lon="6.60423">
        <ele>1446.8</ele>
        <time>2023-05-18T14:16:20+0200</time>
      </trkpt>
      <trkpt lat="44.93271" lon="6.60415">
        <ele>1445.8</ele>
        <time>2023-05-18T14:16:21+0200</time>
      </trkpt>
      <trkpt lat="44.93277" lon="6.60407">
        <ele>1444.2</ele>
        <time>2023-05-18T14:16:22+0200</time>
      </trkpt>
      <trkpt lat="44.93236" lon="6.60381">
        <ele>1433.9</ele>
        <time>2023-05-18T14:16:23+0200</time>
      </trkpt>
      <trkpt lat="44.93294" lon="6.60398">
        <ele>1441.5</ele>
        <time>2023-05-18T14:16:24+0200</time>
      </trkpt>
      <trkpt lat="44.93304" lon="6.60397">
        <ele>1441.2</ele>
        <time>2023-05-18T14:16:25+0200</time>
      </trkpt>
      <trkpt lat="44.93314" lon="6.60399">
        <ele>1442.4</ele>
        <time>2023-05-18T14:16:26+0200</time>
      </trkpt>
      <trkpt lat="44.93322" lon="6.60403">
        <ele>1443.5</ele>
        <time>2023-05-18T14:16:27+0200</time>
      </trkpt>
      <trkpt lat="44.93331" lon="6.60406">
        <ele>1444.7</ele>
        <time>2023-05-18T14:16:28+0200</time>
      </trkpt>
      <trkpt lat="44.93338" lon="6.60407">
        <ele>1445.7</ele>
        <time>2023-05-18T14:16:29+0200</time>
      </trkpt>
      <trkpt lat="44.93343" lon="6.60405">
        <ele>1445.9</ele>
        <time>2023-05-18T14:16:30+0200</time>
      </trkpt>
      <trkpt lat="44.93343" lon="6.60394">
        <ele>1443.9</ele>
        <time>2023-05-18T14:16:32+0200</time>
      </trkpt>
      <trkpt lat="44.9334" lon="6.60387">
        <ele>1442.4</ele>
        <time>2023-05-18T14:16:33+0200</time>
      </trkpt>
      <trkpt lat="44.93336" lon="6.6038">
        <ele>1441.5</ele>
        <time>2023-05-18T14:16:34+0200</time>
      </trkpt>
      <trkpt lat="44.93334" lon="6.60371">
        <ele>1441</ele>
        <time>2023-05-18T14:16:35+0200</time>
      </trkpt>
      <trkpt lat="44.93329" lon="6.60364">
        <ele>1440.1</ele>
        <time>2023-05-18T14:16:36+0200</time>
      </trkpt>
      <trkpt lat="44.93324" lon="6.60354">
        <ele>1439</ele>
        <time>2023-05-18T14:16:37+0200</time>
      </trkpt>
      <trkpt lat="44.93319" lon="6.60344">
        <ele>1437.6</ele>
        <time>2023-05-18T14:16:38+0200</time>
      </trkpt>
      <trkpt lat="44.93317" lon="6.60334">
        <ele>1436.8</ele>
        <time>2023-05-18T14:16:39+0200</time>
      </trkpt>
      <trkpt lat="44.93318" lon="6.60322">
        <ele>1437</ele>
        <time>2023-05-18T14:16:40+0200</time>
      </trkpt>
      <trkpt lat="44.93321" lon="6.60311">
        <ele>1437.6</ele>
        <time>2023-05-18T14:16:41+0200</time>
      </trkpt>
      <trkpt lat="44.93323" lon="6.60302">
        <ele>1437.9</ele>
        <time>2023-05-18T14:16:42+0200</time>
      </trkpt>
      <trkpt lat="44.93322" lon="6.60291">
        <ele>1437.5</ele>
        <time>2023-05-18T14:16:43+0200</time>
      </trkpt>
      <trkpt lat="44.93322" lon="6.6028">
        <ele>1437.4</ele>
        <time>2023-05-18T14:16:44+0200</time>
      </trkpt>
      <trkpt lat="44.93324" lon="6.6027">
        <ele>1437</ele>
        <time>2023-05-18T14:16:45+0200</time>
      </trkpt>
      <trkpt lat="44.93326" lon="6.60259">
        <ele>1436</ele>
        <time>2023-05-18T14:16:46+0200</time>
      </trkpt>
      <trkpt lat="44.93329" lon="6.60248">
        <ele>1435.2</ele>
        <time>2023-05-18T14:16:47+0200</time>
      </trkpt>
      <trkpt lat="44.93332" lon="6.60238">
        <ele>1434.3</ele>
        <time>2023-05-18T14:16:48+0200</time>
      </trkpt>
      <trkpt lat="44.93335" lon="6.60227">
        <ele>1433.6</ele>
        <time>2023-05-18T14:16:49+0200</time>
      </trkpt>
      <trkpt lat="44.93339" lon="6.60218">
        <ele>1434.4</ele>
        <time>2023-05-18T14:16:50+0200</time>
      </trkpt>
      <trkpt lat="44.93345" lon="6.6021">
        <ele>1436</ele>
        <time>2023-05-18T14:16:51+0200</time>
      </trkpt>
      <trkpt lat="44.9335" lon="6.60205">
        <ele>1437</ele>
        <time>2023-05-18T14:16:52+0200</time>
      </trkpt>
      <trkpt lat="44.93352" lon="6.60198">
        <ele>1436.6</ele>
        <time>2023-05-18T14:16:53+0200</time>
      </trkpt>
      <trkpt lat="44.93353" lon="6.60189">
        <ele>1436.4</ele>
        <time>2023-05-18T14:16:54+0200</time>
      </trkpt>
      <trkpt lat="44.93351" lon="6.60178">
        <ele>1436.3</ele>
        <time>2023-05-18T14:16:55+0200</time>
      </trkpt>
      <trkpt lat="44.93349" lon="6.60172">
        <ele>1436.1</ele>
        <time>2023-05-18T14:16:56+0200</time>
      </trkpt>
      <trkpt lat="44.93341" lon="6.60166">
        <ele>1435</ele>
        <time>2023-05-18T14:16:58+0200</time>
      </trkpt>
      <trkpt lat="44.93337" lon="6.6016">
        <ele>1434.3</ele>
        <time>2023-05-18T14:16:59+0200</time>
      </trkpt>
      <trkpt lat="44.93336" lon="6.60152">
        <ele>1433.9</ele>
        <time>2023-05-18T14:17:00+0200</time>
      </trkpt>
      <trkpt lat="44.93335" lon="6.60143">
        <ele>1433.4</ele>
        <time>2023-05-18T14:17:01+0200</time>
      </trkpt>
      <trkpt lat="44.93331" lon="6.60133">
        <ele>1432.4</ele>
        <time>2023-05-18T14:17:02+0200</time>
      </trkpt>
      <trkpt lat="44.93329" lon="6.60121">
        <ele>1431.6</ele>
        <time>2023-05-18T14:17:03+0200</time>
      </trkpt>
      <trkpt lat="44.93324" lon="6.60111">
        <ele>1430.2</ele>
        <time>2023-05-18T14:17:04+0200</time>
      </trkpt>
      <trkpt lat="44.93318" lon="6.601">
        <ele>1429.3</ele>
        <time>2023-05-18T14:17:05+0200</time>
      </trkpt>
      <trkpt lat="44.93315" lon="6.60087">
        <ele>1428.6</ele>
        <time>2023-05-18T14:17:06+0200</time>
      </trkpt>
      <trkpt lat="44.93314" lon="6.60075">
        <ele>1428.7</ele>
        <time>2023-05-18T14:17:07+0200</time>
      </trkpt>
      <trkpt lat="44.93314" lon="6.60062">
        <ele>1429.1</ele>
        <time>2023-05-18T14:17:08+0200</time>
      </trkpt>
      <trkpt lat="44.93315" lon="6.60049">
        <ele>1429.6</ele>
        <time>2023-05-18T14:17:09+0200</time>
      </trkpt>
      <trkpt lat="44.93315" lon="6.60036">
        <ele>1430.1</ele>
        <time>2023-05-18T14:17:10+0200</time>
      </trkpt>
      <trkpt lat="44.93314" lon="6.60023">
        <ele>1430.7</ele>
        <time>2023-05-18T14:17:11+0200</time>
      </trkpt>
      <trkpt lat="44.93313" lon="6.6001">
        <ele>1431.8</ele>
        <time>2023-05-18T14:17:12+0200</time>
      </trkpt>
      <trkpt lat="44.93312" lon="6.60002">
        <ele>1432.5</ele>
        <time>2023-05-18T14:17:13+0200</time>
      </trkpt>
      <trkpt lat="44.93309" lon="6.59994">
        <ele>1433.4</ele>
        <time>2023-05-18T14:17:14+0200</time>
      </trkpt>
      <trkpt lat="44.93303" lon="6.5999">
        <ele>1433.5</ele>
        <time>2023-05-18T14:17:15+0200</time>
      </trkpt>
      <trkpt lat="44.93298" lon="6.59989">
        <ele>1433.2</ele>
        <time>2023-05-18T14:17:16+0200</time>
      </trkpt>
      <trkpt lat="44.93293" lon="6.59984">
        <ele>1433.8</ele>
        <time>2023-05-18T14:17:18+0200</time>
      </trkpt>
      <trkpt lat="44.93289" lon="6.59981">
        <ele>1434.1</ele>
        <time>2023-05-18T14:17:21+0200</time>
      </trkpt>
      <trkpt lat="44.93283" lon="6.59976">
        <ele>1434.7</ele>
        <time>2023-05-18T14:17:23+0200</time>
      </trkpt>
      <trkpt lat="44.93278" lon="6.59971">
        <ele>1435.3</ele>
        <time>2023-05-18T14:17:25+0200</time>
      </trkpt>
      <trkpt lat="44.93273" lon="6.59967">
        <ele>1435.4</ele>
        <time>2023-05-18T14:17:27+0200</time>
      </trkpt>
      <trkpt lat="44.93267" lon="6.59963">
        <ele>1435.6</ele>
        <time>2023-05-18T14:17:29+0200</time>
      </trkpt>
      <trkpt lat="44.93263" lon="6.59958">
        <ele>1435.9</ele>
        <time>2023-05-18T14:17:31+0200</time>
      </trkpt>
      <trkpt lat="44.93261" lon="6.59952">
        <ele>1436.8</ele>
        <time>2023-05-18T14:17:33+0200</time>
      </trkpt>
      <trkpt lat="44.9326" lon="6.59942">
        <ele>1438.2</ele>
        <time>2023-05-18T14:17:36+0200</time>
      </trkpt>
      <trkpt lat="44.9326" lon="6.59933">
        <ele>1438.7</ele>
        <time>2023-05-18T14:17:38+0200</time>
      </trkpt>
      <trkpt lat="44.93261" lon="6.59923">
        <ele>1439.2</ele>
        <time>2023-05-18T14:17:40+0200</time>
      </trkpt>
      <trkpt lat="44.93261" lon="6.59913">
        <ele>1439.7</ele>
        <time>2023-05-18T14:17:42+0200</time>
      </trkpt>
      <trkpt lat="44.93262" lon="6.59902">
        <ele>1440.1</ele>
        <time>2023-05-18T14:17:44+0200</time>
      </trkpt>
      <trkpt lat="44.93265" lon="6.59891">
        <ele>1440.5</ele>
        <time>2023-05-18T14:17:46+0200</time>
      </trkpt>
      <trkpt lat="44.93268" lon="6.59881">
        <ele>1440.9</ele>
        <time>2023-05-18T14:17:48+0200</time>
      </trkpt>
      <trkpt lat="44.93269" lon="6.59875">
        <ele>1441.1</ele>
        <time>2023-05-18T14:17:49+0200</time>
      </trkpt>
      <trkpt lat="44.93273" lon="6.59865">
        <ele>1441.4</ele>
        <time>2023-05-18T14:17:51+0200</time>
      </trkpt>
      <trkpt lat="44.93276" lon="6.59856">
        <ele>1441.8</ele>
        <time>2023-05-18T14:17:53+0200</time>
      </trkpt>
      <trkpt lat="44.9328" lon="6.59846">
        <ele>1442.3</ele>
        <time>2023-05-18T14:17:55+0200</time>
      </trkpt>
      <trkpt lat="44.93283" lon="6.59836">
        <ele>1442.6</ele>
        <time>2023-05-18T14:17:57+0200</time>
      </trkpt>
      <trkpt lat="44.93285" lon="6.5983">
        <ele>1442.6</ele>
        <time>2023-05-18T14:17:58+0200</time>
      </trkpt>
      <trkpt lat="44.93291" lon="6.5982">
        <ele>1442.9</ele>
        <time>2023-05-18T14:17:59+0200</time>
      </trkpt>
      <trkpt lat="44.93297" lon="6.59813">
        <ele>1443.4</ele>
        <time>2023-05-18T14:18:01+0200</time>
      </trkpt>
      <trkpt lat="44.93303" lon="6.59803">
        <ele>1443.6</ele>
        <time>2023-05-18T14:18:03+0200</time>
      </trkpt>
      <trkpt lat="44.93304" lon="6.59796">
        <ele>1443.5</ele>
        <time>2023-05-18T14:18:04+0200</time>
      </trkpt>
      <trkpt lat="44.93305" lon="6.59784">
        <ele>1443.2</ele>
        <time>2023-05-18T14:18:06+0200</time>
      </trkpt>
      <trkpt lat="44.93306" lon="6.59776">
        <ele>1442.9</ele>
        <time>2023-05-18T14:18:07+0200</time>
      </trkpt>
      <trkpt lat="44.93306" lon="6.59766">
        <ele>1442.2</ele>
        <time>2023-05-18T14:18:08+0200</time>
      </trkpt>
      <trkpt lat="44.93308" lon="6.59758">
        <ele>1441.9</ele>
        <time>2023-05-18T14:18:09+0200</time>
      </trkpt>
      <trkpt lat="44.93311" lon="6.5975">
        <ele>1441.8</ele>
        <time>2023-05-18T14:18:10+0200</time>
      </trkpt>
      <trkpt lat="44.93315" lon="6.59742">
        <ele>1441.7</ele>
        <time>2023-05-18T14:18:11+0200</time>
      </trkpt>
      <trkpt lat="44.93319" lon="6.59734">
        <ele>1441.8</ele>
        <time>2023-05-18T14:18:12+0200</time>
      </trkpt>
      <trkpt lat="44.93323" lon="6.59726">
        <ele>1441.8</ele>
        <time>2023-05-18T14:18:13+0200</time>
      </trkpt>
      <trkpt lat="44.93328" lon="6.59719">
        <ele>1441.8</ele>
        <time>2023-05-18T14:18:14+0200</time>
      </trkpt>
      <trkpt lat="44.93333" lon="6.59713">
        <ele>1442</ele>
        <time>2023-05-18T14:18:15+0200</time>
      </trkpt>
      <trkpt lat="44.93338" lon="6.59707">
        <ele>1442.2</ele>
        <time>2023-05-18T14:18:17+0200</time>
      </trkpt>
      <trkpt lat="44.93343" lon="6.59699">
        <ele>1442.2</ele>
        <time>2023-05-18T14:18:18+0200</time>
      </trkpt>
      <trkpt lat="44.93347" lon="6.59693">
        <ele>1442.1</ele>
        <time>2023-05-18T14:18:19+0200</time>
      </trkpt>
      <trkpt lat="44.93351" lon="6.59687">
        <ele>1442.1</ele>
        <time>2023-05-18T14:18:20+0200</time>
      </trkpt>
      <trkpt lat="44.93356" lon="6.59682">
        <ele>1442.2</ele>
        <time>2023-05-18T14:18:21+0200</time>
      </trkpt>
      <trkpt lat="44.93362" lon="6.59677">
        <ele>1442.5</ele>
        <time>2023-05-18T14:18:22+0200</time>
      </trkpt>
      <trkpt lat="44.93367" lon="6.59672">
        <ele>1443</ele>
        <time>2023-05-18T14:18:23+0200</time>
      </trkpt>
      <trkpt lat="44.93371" lon="6.59667">
        <ele>1443.1</ele>
        <time>2023-05-18T14:18:24+0200</time>
      </trkpt>
      <trkpt lat="44.93377" lon="6.5966">
        <ele>1443.2</ele>
        <time>2023-05-18T14:18:26+0200</time>
      </trkpt>
      <trkpt lat="44.93381" lon="6.59657">
        <ele>1443.4</ele>
        <time>2023-05-18T14:18:27+0200</time>
      </trkpt>
      <trkpt lat="44.93388" lon="6.59651">
        <ele>1443.4</ele>
        <time>2023-05-18T14:18:29+0200</time>
      </trkpt>
      <trkpt lat="44.93392" lon="6.59647">
        <ele>1443.2</ele>
        <time>2023-05-18T14:18:30+0200</time>
      </trkpt>
      <trkpt lat="44.93399" lon="6.5964">
        <ele>1443</ele>
        <time>2023-05-18T14:18:32+0200</time>
      </trkpt>
      <trkpt lat="44.93407" lon="6.59633">
        <ele>1442.9</ele>
        <time>2023-05-18T14:18:34+0200</time>
      </trkpt>
      <trkpt lat="44.93415" lon="6.59627">
        <ele>1443.1</ele>
        <time>2023-05-18T14:18:36+0200</time>
      </trkpt>
      <trkpt lat="44.93423" lon="6.59621">
        <ele>1443.4</ele>
        <time>2023-05-18T14:18:38+0200</time>
      </trkpt>
      <trkpt lat="44.93427" lon="6.59618">
        <ele>1443.4</ele>
        <time>2023-05-18T14:18:39+0200</time>
      </trkpt>
      <trkpt lat="44.93431" lon="6.59614">
        <ele>1443.3</ele>
        <time>2023-05-18T14:18:40+0200</time>
      </trkpt>
      <trkpt lat="44.93435" lon="6.59608">
        <ele>1442.6</ele>
        <time>2023-05-18T14:18:41+0200</time>
      </trkpt>
      <trkpt lat="44.9344" lon="6.59603">
        <ele>1442.2</ele>
        <time>2023-05-18T14:18:42+0200</time>
      </trkpt>
      <trkpt lat="44.93445" lon="6.596">
        <ele>1442.2</ele>
        <time>2023-05-18T14:18:43+0200</time>
      </trkpt>
      <trkpt lat="44.9345" lon="6.59595">
        <ele>1442</ele>
        <time>2023-05-18T14:18:44+0200</time>
      </trkpt>
      <trkpt lat="44.93454" lon="6.59592">
        <ele>1442</ele>
        <time>2023-05-18T14:18:45+0200</time>
      </trkpt>
      <trkpt lat="44.93462" lon="6.59587">
        <ele>1442</ele>
        <time>2023-05-18T14:18:47+0200</time>
      </trkpt>
      <trkpt lat="44.93466" lon="6.59585">
        <ele>1442.3</ele>
        <time>2023-05-18T14:18:48+0200</time>
      </trkpt>
      <trkpt lat="44.9347" lon="6.59581">
        <ele>1442.1</ele>
        <time>2023-05-18T14:18:49+0200</time>
      </trkpt>
      <trkpt lat="44.93475" lon="6.59577">
        <ele>1441.8</ele>
        <time>2023-05-18T14:18:50+0200</time>
      </trkpt>
      <trkpt lat="44.9348" lon="6.59573">
        <ele>1441.9</ele>
        <time>2023-05-18T14:18:51+0200</time>
      </trkpt>
      <trkpt lat="44.93486" lon="6.59567">
        <ele>1441.5</ele>
        <time>2023-05-18T14:18:52+0200</time>
      </trkpt>
      <trkpt lat="44.93491" lon="6.59561">
        <ele>1441.4</ele>
        <time>2023-05-18T14:18:53+0200</time>
      </trkpt>
      <trkpt lat="44.93497" lon="6.59557">
        <ele>1441.5</ele>
        <time>2023-05-18T14:18:54+0200</time>
      </trkpt>
      <trkpt lat="44.93502" lon="6.59551">
        <ele>1441.3</ele>
        <time>2023-05-18T14:18:55+0200</time>
      </trkpt>
      <trkpt lat="44.93508" lon="6.59547">
        <ele>1442</ele>
        <time>2023-05-18T14:18:56+0200</time>
      </trkpt>
      <trkpt lat="44.93515" lon="6.59544">
        <ele>1443.6</ele>
        <time>2023-05-18T14:18:57+0200</time>
      </trkpt>
      <trkpt lat="44.93521" lon="6.5954">
        <ele>1444.2</ele>
        <time>2023-05-18T14:18:58+0200</time>
      </trkpt>
      <trkpt lat="44.93527" lon="6.59535">
        <ele>1444.7</ele>
        <time>2023-05-18T14:18:59+0200</time>
      </trkpt>
      <trkpt lat="44.93533" lon="6.59529">
        <ele>1444.6</ele>
        <time>2023-05-18T14:19:00+0200</time>
      </trkpt>
      <trkpt lat="44.93537" lon="6.59521">
        <ele>1444.1</ele>
        <time>2023-05-18T14:19:01+0200</time>
      </trkpt>
      <trkpt lat="44.93542" lon="6.59517">
        <ele>1444.2</ele>
        <time>2023-05-18T14:19:02+0200</time>
      </trkpt>
      <trkpt lat="44.93548" lon="6.5951">
        <ele>1443.5</ele>
        <time>2023-05-18T14:19:03+0200</time>
      </trkpt>
      <trkpt lat="44.93552" lon="6.59505">
        <ele>1442.8</ele>
        <time>2023-05-18T14:19:04+0200</time>
      </trkpt>
      <trkpt lat="44.93558" lon="6.59496">
        <ele>1441</ele>
        <time>2023-05-18T14:19:05+0200</time>
      </trkpt>
      <trkpt lat="44.93565" lon="6.59489">
        <ele>1439.4</ele>
        <time>2023-05-18T14:19:06+0200</time>
      </trkpt>
      <trkpt lat="44.93572" lon="6.59485">
        <ele>1438.9</ele>
        <time>2023-05-18T14:19:07+0200</time>
      </trkpt>
      <trkpt lat="44.9358" lon="6.59485">
        <ele>1439.3</ele>
        <time>2023-05-18T14:19:08+0200</time>
      </trkpt>
      <trkpt lat="44.93588" lon="6.59484">
        <ele>1439.5</ele>
        <time>2023-05-18T14:19:09+0200</time>
      </trkpt>
      <trkpt lat="44.93596" lon="6.59482">
        <ele>1439.4</ele>
        <time>2023-05-18T14:19:10+0200</time>
      </trkpt>
      <trkpt lat="44.93604" lon="6.59479">
        <ele>1439.1</ele>
        <time>2023-05-18T14:19:11+0200</time>
      </trkpt>
      <trkpt lat="44.9361" lon="6.59474">
        <ele>1438.3</ele>
        <time>2023-05-18T14:19:12+0200</time>
      </trkpt>
      <trkpt lat="44.93616" lon="6.59469">
        <ele>1438</ele>
        <time>2023-05-18T14:19:13+0200</time>
      </trkpt>
      <trkpt lat="44.93621" lon="6.59464">
        <ele>1437.9</ele>
        <time>2023-05-18T14:19:14+0200</time>
      </trkpt>
      <trkpt lat="44.93625" lon="6.59456">
        <ele>1437.4</ele>
        <time>2023-05-18T14:19:15+0200</time>
      </trkpt>
      <trkpt lat="44.93628" lon="6.59448">
        <ele>1436.8</ele>
        <time>2023-05-18T14:19:16+0200</time>
      </trkpt>
      <trkpt lat="44.93629" lon="6.59442">
        <ele>1436.3</ele>
        <time>2023-05-18T14:19:17+0200</time>
      </trkpt>
      <trkpt lat="44.93634" lon="6.59447">
        <ele>1437.6</ele>
        <time>2023-05-18T14:19:18+0200</time>
      </trkpt>
      <trkpt lat="44.93638" lon="6.59442">
        <ele>1437.4</ele>
        <time>2023-05-18T14:19:23+0200</time>
      </trkpt>
      <trkpt lat="44.93643" lon="6.59437">
        <ele>1437.4</ele>
        <time>2023-05-18T14:19:25+0200</time>
      </trkpt>
      <trkpt lat="44.93651" lon="6.59445">
        <ele>1439.9</ele>
        <time>2023-05-18T14:19:30+0200</time>
      </trkpt>
      <trkpt lat="44.93656" lon="6.59446">
        <ele>1440.6</ele>
        <time>2023-05-18T14:19:32+0200</time>
      </trkpt>
      <trkpt lat="44.93663" lon="6.59442">
        <ele>1441.3</ele>
        <time>2023-05-18T14:19:34+0200</time>
      </trkpt>
      <trkpt lat="44.93671" lon="6.59438">
        <ele>1442</ele>
        <time>2023-05-18T14:19:36+0200</time>
      </trkpt>
      <trkpt lat="44.93679" lon="6.59444">
        <ele>1444</ele>
        <time>2023-05-18T14:19:37+0200</time>
      </trkpt>
      <trkpt lat="44.93684" lon="6.59441">
        <ele>1444.8</ele>
        <time>2023-05-18T14:19:39+0200</time>
      </trkpt>
      <trkpt lat="44.93691" lon="6.59439">
        <ele>1445.7</ele>
        <time>2023-05-18T14:19:41+0200</time>
      </trkpt>
      <trkpt lat="44.93694" lon="6.59432">
        <ele>1445.6</ele>
        <time>2023-05-18T14:19:44+0200</time>
      </trkpt>
      <trkpt lat="44.93696" lon="6.59425">
        <ele>1445.1</ele>
        <time>2023-05-18T14:19:45+0200</time>
      </trkpt>
      <trkpt lat="44.937" lon="6.5942">
        <ele>1445.4</ele>
        <time>2023-05-18T14:19:47+0200</time>
      </trkpt>
      <trkpt lat="44.93706" lon="6.59411">
        <ele>1445.3</ele>
        <time>2023-05-18T14:19:49+0200</time>
      </trkpt>
      <trkpt lat="44.93709" lon="6.59402">
        <ele>1444.8</ele>
        <time>2023-05-18T14:19:51+0200</time>
      </trkpt>
      <trkpt lat="44.93713" lon="6.59395">
        <ele>1444.8</ele>
        <time>2023-05-18T14:19:54+0200</time>
      </trkpt>
      <trkpt lat="44.9372" lon="6.59394">
        <ele>1446.2</ele>
        <time>2023-05-18T14:19:56+0200</time>
      </trkpt>
      <trkpt lat="44.93727" lon="6.59392">
        <ele>1447.5</ele>
        <time>2023-05-18T14:19:58+0200</time>
      </trkpt>
      <trkpt lat="44.93734" lon="6.59387">
        <ele>1448.5</ele>
        <time>2023-05-18T14:20:01+0200</time>
      </trkpt>
      <trkpt lat="44.93739" lon="6.59382">
        <ele>1449</ele>
        <time>2023-05-18T14:20:03+0200</time>
      </trkpt>
      <trkpt lat="44.93744" lon="6.59375">
        <ele>1449.1</ele>
        <time>2023-05-18T14:20:05+0200</time>
      </trkpt>
      <trkpt lat="44.93749" lon="6.59368">
        <ele>1449</ele>
        <time>2023-05-18T14:20:06+0200</time>
      </trkpt>
      <trkpt lat="44.93754" lon="6.59359">
        <ele>1449.4</ele>
        <time>2023-05-18T14:20:09+0200</time>
      </trkpt>
      <trkpt lat="44.93757" lon="6.59355">
        <ele>1450.1</ele>
        <time>2023-05-18T14:20:10+0200</time>
      </trkpt>
      <trkpt lat="44.93761" lon="6.59348">
        <ele>1450.8</ele>
        <time>2023-05-18T14:20:12+0200</time>
      </trkpt>
      <trkpt lat="44.93766" lon="6.59338">
        <ele>1451.6</ele>
        <time>2023-05-18T14:20:14+0200</time>
      </trkpt>
      <trkpt lat="44.93771" lon="6.59333">
        <ele>1452.7</ele>
        <time>2023-05-18T14:20:16+0200</time>
      </trkpt>
      <trkpt lat="44.93775" lon="6.59326">
        <ele>1453.6</ele>
        <time>2023-05-18T14:20:18+0200</time>
      </trkpt>
      <trkpt lat="44.93778" lon="6.5932">
        <ele>1454.1</ele>
        <time>2023-05-18T14:20:20+0200</time>
      </trkpt>
      <trkpt lat="44.93782" lon="6.59313">
        <ele>1454.8</ele>
        <time>2023-05-18T14:20:23+0200</time>
      </trkpt>
      <trkpt lat="44.93787" lon="6.59306">
        <ele>1456</ele>
        <time>2023-05-18T14:20:26+0200</time>
      </trkpt>
      <trkpt lat="44.93789" lon="6.593">
        <ele>1456.1</ele>
        <time>2023-05-18T14:20:28+0200</time>
      </trkpt>
      <trkpt lat="44.93792" lon="6.59295">
        <ele>1456.7</ele>
        <time>2023-05-18T14:20:30+0200</time>
      </trkpt>
      <trkpt lat="44.93796" lon="6.59289">
        <ele>1457.3</ele>
        <time>2023-05-18T14:20:32+0200</time>
      </trkpt>
      <trkpt lat="44.93799" lon="6.59283">
        <ele>1457.9</ele>
        <time>2023-05-18T14:20:34+0200</time>
      </trkpt>
      <trkpt lat="44.93802" lon="6.59277">
        <ele>1458.5</ele>
        <time>2023-05-18T14:20:36+0200</time>
      </trkpt>
      <trkpt lat="44.93806" lon="6.59272">
        <ele>1459.1</ele>
        <time>2023-05-18T14:20:38+0200</time>
      </trkpt>
      <trkpt lat="44.93808" lon="6.59265">
        <ele>1458.8</ele>
        <time>2023-05-18T14:20:40+0200</time>
      </trkpt>
      <trkpt lat="44.93812" lon="6.59258">
        <ele>1459.1</ele>
        <time>2023-05-18T14:20:42+0200</time>
      </trkpt>
      <trkpt lat="44.93818" lon="6.59254">
        <ele>1461.3</ele>
        <time>2023-05-18T14:20:45+0200</time>
      </trkpt>
      <trkpt lat="44.93822" lon="6.5925">
        <ele>1461.9</ele>
        <time>2023-05-18T14:20:47+0200</time>
      </trkpt>
      <trkpt lat="44.93826" lon="6.59245">
        <ele>1462.9</ele>
        <time>2023-05-18T14:20:49+0200</time>
      </trkpt>
      <trkpt lat="44.93829" lon="6.59239">
        <ele>1463.5</ele>
        <time>2023-05-18T14:20:51+0200</time>
      </trkpt>
      <trkpt lat="44.93833" lon="6.59232">
        <ele>1464</ele>
        <time>2023-05-18T14:20:54+0200</time>
      </trkpt>
      <trkpt lat="44.93835" lon="6.59226">
        <ele>1464.2</ele>
        <time>2023-05-18T14:20:56+0200</time>
      </trkpt>
      <trkpt lat="44.93839" lon="6.59219">
        <ele>1464.7</ele>
        <time>2023-05-18T14:20:58+0200</time>
      </trkpt>
      <trkpt lat="44.9384" lon="6.59212">
        <ele>1464</ele>
        <time>2023-05-18T14:21:01+0200</time>
      </trkpt>
      <trkpt lat="44.93843" lon="6.59205">
        <ele>1464.2</ele>
        <time>2023-05-18T14:21:03+0200</time>
      </trkpt>
      <trkpt lat="44.93847" lon="6.59197">
        <ele>1464.6</ele>
        <time>2023-05-18T14:21:05+0200</time>
      </trkpt>
      <trkpt lat="44.9385" lon="6.59191">
        <ele>1465.4</ele>
        <time>2023-05-18T14:21:07+0200</time>
      </trkpt>
      <trkpt lat="44.93852" lon="6.59185">
        <ele>1465.6</ele>
        <time>2023-05-18T14:21:09+0200</time>
      </trkpt>
      <trkpt lat="44.93856" lon="6.59175">
        <ele>1466.3</ele>
        <time>2023-05-18T14:21:12+0200</time>
      </trkpt>
      <trkpt lat="44.9386" lon="6.59169">
        <ele>1466.7</ele>
        <time>2023-05-18T14:21:14+0200</time>
      </trkpt>
      <trkpt lat="44.93862" lon="6.59164">
        <ele>1467.4</ele>
        <time>2023-05-18T14:21:16+0200</time>
      </trkpt>
      <trkpt lat="44.93865" lon="6.59156">
        <ele>1467.9</ele>
        <time>2023-05-18T14:21:19+0200</time>
      </trkpt>
      <trkpt lat="44.93867" lon="6.59148">
        <ele>1468.4</ele>
        <time>2023-05-18T14:21:21+0200</time>
      </trkpt>
      <trkpt lat="44.93869" lon="6.59141">
        <ele>1468.6</ele>
        <time>2023-05-18T14:21:23+0200</time>
      </trkpt>
      <trkpt lat="44.93871" lon="6.59135">
        <ele>1469</ele>
        <time>2023-05-18T14:21:25+0200</time>
      </trkpt>
      <trkpt lat="44.93874" lon="6.59127">
        <ele>1469.3</ele>
        <time>2023-05-18T14:21:28+0200</time>
      </trkpt>
      <trkpt lat="44.93879" lon="6.5912">
        <ele>1470.2</ele>
        <time>2023-05-18T14:21:31+0200</time>
      </trkpt>
      <trkpt lat="44.93885" lon="6.59111">
        <ele>1471</ele>
        <time>2023-05-18T14:21:34+0200</time>
      </trkpt>
      <trkpt lat="44.9389" lon="6.59105">
        <ele>1472.2</ele>
        <time>2023-05-18T14:21:37+0200</time>
      </trkpt>
      <trkpt lat="44.93895" lon="6.59101">
        <ele>1473.5</ele>
        <time>2023-05-18T14:21:40+0200</time>
      </trkpt>
      <trkpt lat="44.939" lon="6.59098">
        <ele>1474.5</ele>
        <time>2023-05-18T14:21:42+0200</time>
      </trkpt>
      <trkpt lat="44.93904" lon="6.59095">
        <ele>1475.4</ele>
        <time>2023-05-18T14:21:44+0200</time>
      </trkpt>
      <trkpt lat="44.9391" lon="6.59091">
        <ele>1476.5</ele>
        <time>2023-05-18T14:21:47+0200</time>
      </trkpt>
      <trkpt lat="44.93915" lon="6.59088">
        <ele>1477.2</ele>
        <time>2023-05-18T14:21:49+0200</time>
      </trkpt>
      <trkpt lat="44.93919" lon="6.59084">
        <ele>1477.9</ele>
        <time>2023-05-18T14:21:51+0200</time>
      </trkpt>
      <trkpt lat="44.93924" lon="6.59081">
        <ele>1479.6</ele>
        <time>2023-05-18T14:21:54+0200</time>
      </trkpt>
      <trkpt lat="44.9393" lon="6.59076">
        <ele>1481.3</ele>
        <time>2023-05-18T14:21:57+0200</time>
      </trkpt>
      <trkpt lat="44.93935" lon="6.59072">
        <ele>1482.2</ele>
        <time>2023-05-18T14:21:59+0200</time>
      </trkpt>
      <trkpt lat="44.93938" lon="6.59066">
        <ele>1482.8</ele>
        <time>2023-05-18T14:22:01+0200</time>
      </trkpt>
      <trkpt lat="44.93941" lon="6.5906">
        <ele>1482.8</ele>
        <time>2023-05-18T14:22:03+0200</time>
      </trkpt>
      <trkpt lat="44.93944" lon="6.59053">
        <ele>1482.8</ele>
        <time>2023-05-18T14:22:05+0200</time>
      </trkpt>
      <trkpt lat="44.93947" lon="6.59046">
        <ele>1483.9</ele>
        <time>2023-05-18T14:22:07+0200</time>
      </trkpt>
      <trkpt lat="44.93949" lon="6.59038">
        <ele>1484.4</ele>
        <time>2023-05-18T14:22:09+0200</time>
      </trkpt>
      <trkpt lat="44.93951" lon="6.5903">
        <ele>1484.7</ele>
        <time>2023-05-18T14:22:12+0200</time>
      </trkpt>
      <trkpt lat="44.93952" lon="6.59023">
        <ele>1485</ele>
        <time>2023-05-18T14:22:14+0200</time>
      </trkpt>
      <trkpt lat="44.93954" lon="6.59016">
        <ele>1485.2</ele>
        <time>2023-05-18T14:22:16+0200</time>
      </trkpt>
      <trkpt lat="44.93956" lon="6.59008">
        <ele>1485.6</ele>
        <time>2023-05-18T14:22:19+0200</time>
      </trkpt>
      <trkpt lat="44.93959" lon="6.58999">
        <ele>1486</ele>
        <time>2023-05-18T14:22:22+0200</time>
      </trkpt>
      <trkpt lat="44.93962" lon="6.58991">
        <ele>1486.4</ele>
        <time>2023-05-18T14:22:25+0200</time>
      </trkpt>
      <trkpt lat="44.93968" lon="6.58986">
        <ele>1487.6</ele>
        <time>2023-05-18T14:22:29+0200</time>
      </trkpt>
      <trkpt lat="44.93973" lon="6.58983">
        <ele>1488.5</ele>
        <time>2023-05-18T14:22:32+0200</time>
      </trkpt>
      <trkpt lat="44.93979" lon="6.5898">
        <ele>1490.4</ele>
        <time>2023-05-18T14:22:35+0200</time>
      </trkpt>
      <trkpt lat="44.93984" lon="6.58976">
        <ele>1492</ele>
        <time>2023-05-18T14:22:38+0200</time>
      </trkpt>
      <trkpt lat="44.93987" lon="6.58971">
        <ele>1492.7</ele>
        <time>2023-05-18T14:22:40+0200</time>
      </trkpt>
      <trkpt lat="44.93991" lon="6.58965">
        <ele>1493.4</ele>
        <time>2023-05-18T14:22:43+0200</time>
      </trkpt>
      <trkpt lat="44.93993" lon="6.58959">
        <ele>1493.5</ele>
        <time>2023-05-18T14:22:45+0200</time>
      </trkpt>
      <trkpt lat="44.93997" lon="6.58954">
        <ele>1494.2</ele>
        <time>2023-05-18T14:22:47+0200</time>
      </trkpt>
      <trkpt lat="44.94" lon="6.58949">
        <ele>1494.4</ele>
        <time>2023-05-18T14:22:49+0200</time>
      </trkpt>
      <trkpt lat="44.94002" lon="6.58942">
        <ele>1494.7</ele>
        <time>2023-05-18T14:22:51+0200</time>
      </trkpt>
      <trkpt lat="44.94005" lon="6.58934">
        <ele>1494.9</ele>
        <time>2023-05-18T14:22:54+0200</time>
      </trkpt>
      <trkpt lat="44.94006" lon="6.58927">
        <ele>1494.8</ele>
        <time>2023-05-18T14:22:56+0200</time>
      </trkpt>
      <trkpt lat="44.94009" lon="6.58918">
        <ele>1495.1</ele>
        <time>2023-05-18T14:22:59+0200</time>
      </trkpt>
      <trkpt lat="44.94011" lon="6.58912">
        <ele>1495.1</ele>
        <time>2023-05-18T14:23:01+0200</time>
      </trkpt>
      <trkpt lat="44.94014" lon="6.58906">
        <ele>1495.7</ele>
        <time>2023-05-18T14:23:03+0200</time>
      </trkpt>
      <trkpt lat="44.94016" lon="6.58899">
        <ele>1496</ele>
        <time>2023-05-18T14:23:06+0200</time>
      </trkpt>
      <trkpt lat="44.9402" lon="6.58893">
        <ele>1496.9</ele>
        <time>2023-05-18T14:23:08+0200</time>
      </trkpt>
      <trkpt lat="44.94024" lon="6.58889">
        <ele>1498</ele>
        <time>2023-05-18T14:23:10+0200</time>
      </trkpt>
      <trkpt lat="44.94029" lon="6.58891">
        <ele>1500.6</ele>
        <time>2023-05-18T14:23:13+0200</time>
      </trkpt>
      <trkpt lat="44.94031" lon="6.58898">
        <ele>1502.4</ele>
        <time>2023-05-18T14:23:16+0200</time>
      </trkpt>
      <trkpt lat="44.94028" lon="6.58906">
        <ele>1502</ele>
        <time>2023-05-18T14:23:19+0200</time>
      </trkpt>
      <trkpt lat="44.94026" lon="6.58912">
        <ele>1501.8</ele>
        <time>2023-05-18T14:23:21+0200</time>
      </trkpt>
      <trkpt lat="44.94022" lon="6.58918">
        <ele>1500.7</ele>
        <time>2023-05-18T14:23:24+0200</time>
      </trkpt>
      <trkpt lat="44.9402" lon="6.58927">
        <ele>1500.9</ele>
        <time>2023-05-18T14:23:27+0200</time>
      </trkpt>
      <trkpt lat="44.94016" lon="6.58936">
        <ele>1500.5</ele>
        <time>2023-05-18T14:23:30+0200</time>
      </trkpt>
      <trkpt lat="44.94015" lon="6.58943">
        <ele>1500.8</ele>
        <time>2023-05-18T14:23:32+0200</time>
      </trkpt>
      <trkpt lat="44.94013" lon="6.58952">
        <ele>1501.1</ele>
        <time>2023-05-18T14:23:35+0200</time>
      </trkpt>
      <trkpt lat="44.94011" lon="6.58959">
        <ele>1501.1</ele>
        <time>2023-05-18T14:23:38+0200</time>
      </trkpt>
      <trkpt lat="44.94009" lon="6.58966">
        <ele>1501.3</ele>
        <time>2023-05-18T14:23:40+0200</time>
      </trkpt>
      <trkpt lat="44.94007" lon="6.58972">
        <ele>1501</ele>
        <time>2023-05-18T14:23:42+0200</time>
      </trkpt>
      <trkpt lat="44.94004" lon="6.58977">
        <ele>1500.8</ele>
        <time>2023-05-18T14:23:44+0200</time>
      </trkpt>
      <trkpt lat="44.94003" lon="6.58986">
        <ele>1501.5</ele>
        <time>2023-05-18T14:23:46+0200</time>
      </trkpt>
      <trkpt lat="44.94001" lon="6.58995">
        <ele>1501.7</ele>
        <time>2023-05-18T14:23:49+0200</time>
      </trkpt>
      <trkpt lat="44.94" lon="6.59002">
        <ele>1502.5</ele>
        <time>2023-05-18T14:23:51+0200</time>
      </trkpt>
      <trkpt lat="44.94" lon="6.59013">
        <ele>1504.1</ele>
        <time>2023-05-18T14:23:54+0200</time>
      </trkpt>
      <trkpt lat="44.93999" lon="6.5902">
        <ele>1504.9</ele>
        <time>2023-05-18T14:23:56+0200</time>
      </trkpt>
      <trkpt lat="44.93998" lon="6.59027">
        <ele>1505.7</ele>
        <time>2023-05-18T14:23:58+0200</time>
      </trkpt>
      <trkpt lat="44.93998" lon="6.59034">
        <ele>1507.5</ele>
        <time>2023-05-18T14:24:00+0200</time>
      </trkpt>
      <trkpt lat="44.93997" lon="6.59041">
        <ele>1508.5</ele>
        <time>2023-05-18T14:24:02+0200</time>
      </trkpt>
      <trkpt lat="44.93997" lon="6.59048">
        <ele>1509.9</ele>
        <time>2023-05-18T14:24:04+0200</time>
      </trkpt>
      <trkpt lat="44.93996" lon="6.59056">
        <ele>1510.8</ele>
        <time>2023-05-18T14:24:06+0200</time>
      </trkpt>
      <trkpt lat="44.93995" lon="6.59063">
        <ele>1511.1</ele>
        <time>2023-05-18T14:24:08+0200</time>
      </trkpt>
      <trkpt lat="44.93994" lon="6.5907">
        <ele>1511.6</ele>
        <time>2023-05-18T14:24:10+0200</time>
      </trkpt>
      <trkpt lat="44.93992" lon="6.59078">
        <ele>1512</ele>
        <time>2023-05-18T14:24:12+0200</time>
      </trkpt>
      <trkpt lat="44.93992" lon="6.59084">
        <ele>1512.9</ele>
        <time>2023-05-18T14:24:14+0200</time>
      </trkpt>
      <trkpt lat="44.93991" lon="6.59092">
        <ele>1513.6</ele>
        <time>2023-05-18T14:24:15+0200</time>
      </trkpt>
      <trkpt lat="44.93992" lon="6.59099">
        <ele>1514.9</ele>
        <time>2023-05-18T14:24:17+0200</time>
      </trkpt>
      <trkpt lat="44.93992" lon="6.59106">
        <ele>1515.9</ele>
        <time>2023-05-18T14:24:19+0200</time>
      </trkpt>
      <trkpt lat="44.93992" lon="6.59114">
        <ele>1517</ele>
        <time>2023-05-18T14:24:21+0200</time>
      </trkpt>
      <trkpt lat="44.9399" lon="6.59121">
        <ele>1517</ele>
        <time>2023-05-18T14:24:23+0200</time>
      </trkpt>
      <trkpt lat="44.93989" lon="6.59128">
        <ele>1517.2</ele>
        <time>2023-05-18T14:24:25+0200</time>
      </trkpt>
      <trkpt lat="44.93989" lon="6.59136">
        <ele>1517.8</ele>
        <time>2023-05-18T14:24:27+0200</time>
      </trkpt>
      <trkpt lat="44.93988" lon="6.59143">
        <ele>1518.6</ele>
        <time>2023-05-18T14:24:29+0200</time>
      </trkpt>
      <trkpt lat="44.93988" lon="6.59152">
        <ele>1520</ele>
        <time>2023-05-18T14:24:31+0200</time>
      </trkpt>
      <trkpt lat="44.93986" lon="6.59159">
        <ele>1520.5</ele>
        <time>2023-05-18T14:24:33+0200</time>
      </trkpt>
      <trkpt lat="44.93985" lon="6.59166">
        <ele>1521</ele>
        <time>2023-05-18T14:24:36+0200</time>
      </trkpt>
      <trkpt lat="44.93983" lon="6.59173">
        <ele>1520.8</ele>
        <time>2023-05-18T14:24:38+0200</time>
      </trkpt>
      <trkpt lat="44.9398" lon="6.5918">
        <ele>1520.6</ele>
        <time>2023-05-18T14:24:40+0200</time>
      </trkpt>
      <trkpt lat="44.93977" lon="6.5919">
        <ele>1520.7</ele>
        <time>2023-05-18T14:24:43+0200</time>
      </trkpt>
      <trkpt lat="44.93974" lon="6.59197">
        <ele>1520.7</ele>
        <time>2023-05-18T14:24:45+0200</time>
      </trkpt>
      <trkpt lat="44.9397" lon="6.59202">
        <ele>1519.7</ele>
        <time>2023-05-18T14:24:47+0200</time>
      </trkpt>
      <trkpt lat="44.93966" lon="6.5921">
        <ele>1519.5</ele>
        <time>2023-05-18T14:24:50+0200</time>
      </trkpt>
      <trkpt lat="44.93963" lon="6.59217">
        <ele>1519.5</ele>
        <time>2023-05-18T14:24:52+0200</time>
      </trkpt>
      <trkpt lat="44.93959" lon="6.59224">
        <ele>1519</ele>
        <time>2023-05-18T14:24:54+0200</time>
      </trkpt>
      <trkpt lat="44.93955" lon="6.59229">
        <ele>1518.6</ele>
        <time>2023-05-18T14:24:56+0200</time>
      </trkpt>
      <trkpt lat="44.93954" lon="6.59236">
        <ele>1519.5</ele>
        <time>2023-05-18T14:24:58+0200</time>
      </trkpt>
      <trkpt lat="44.93953" lon="6.59243">
        <ele>1520.4</ele>
        <time>2023-05-18T14:25:00+0200</time>
      </trkpt>
      <trkpt lat="44.93951" lon="6.59249">
        <ele>1521</ele>
        <time>2023-05-18T14:25:02+0200</time>
      </trkpt>
      <trkpt lat="44.93951" lon="6.59257">
        <ele>1522.6</ele>
        <time>2023-05-18T14:25:04+0200</time>
      </trkpt>
      <trkpt lat="44.93948" lon="6.59263">
        <ele>1522.6</ele>
        <time>2023-05-18T14:25:06+0200</time>
      </trkpt>
      <trkpt lat="44.93946" lon="6.59271">
        <ele>1523.4</ele>
        <time>2023-05-18T14:25:08+0200</time>
      </trkpt>
      <trkpt lat="44.93945" lon="6.59278">
        <ele>1524.4</ele>
        <time>2023-05-18T14:25:10+0200</time>
      </trkpt>
      <trkpt lat="44.93943" lon="6.59284">
        <ele>1524.7</ele>
        <time>2023-05-18T14:25:12+0200</time>
      </trkpt>
      <trkpt lat="44.93942" lon="6.59291">
        <ele>1525.6</ele>
        <time>2023-05-18T14:25:15+0200</time>
      </trkpt>
      <trkpt lat="44.93941" lon="6.59298">
        <ele>1526.4</ele>
        <time>2023-05-18T14:25:17+0200</time>
      </trkpt>
      <trkpt lat="44.93939" lon="6.59305">
        <ele>1527.3</ele>
        <time>2023-05-18T14:25:19+0200</time>
      </trkpt>
      <trkpt lat="44.93937" lon="6.59313">
        <ele>1527.9</ele>
        <time>2023-05-18T14:25:21+0200</time>
      </trkpt>
      <trkpt lat="44.93934" lon="6.59321">
        <ele>1527.5</ele>
        <time>2023-05-18T14:25:24+0200</time>
      </trkpt>
      <trkpt lat="44.93931" lon="6.59331">
        <ele>1527.9</ele>
        <time>2023-05-18T14:25:26+0200</time>
      </trkpt>
      <trkpt lat="44.93931" lon="6.59338">
        <ele>1528.7</ele>
        <time>2023-05-18T14:25:28+0200</time>
      </trkpt>
      <trkpt lat="44.93929" lon="6.59344">
        <ele>1528.4</ele>
        <time>2023-05-18T14:25:30+0200</time>
      </trkpt>
      <trkpt lat="44.93928" lon="6.59352">
        <ele>1528.8</ele>
        <time>2023-05-18T14:25:32+0200</time>
      </trkpt>
      <trkpt lat="44.93926" lon="6.5936">
        <ele>1529.1</ele>
        <time>2023-05-18T14:25:34+0200</time>
      </trkpt>
      <trkpt lat="44.93925" lon="6.59369">
        <ele>1529.4</ele>
        <time>2023-05-18T14:25:36+0200</time>
      </trkpt>
      <trkpt lat="44.93923" lon="6.59377">
        <ele>1529.7</ele>
        <time>2023-05-18T14:25:38+0200</time>
      </trkpt>
      <trkpt lat="44.93921" lon="6.59386">
        <ele>1529.7</ele>
        <time>2023-05-18T14:25:40+0200</time>
      </trkpt>
      <trkpt lat="44.93921" lon="6.59394">
        <ele>1530.4</ele>
        <time>2023-05-18T14:25:42+0200</time>
      </trkpt>
      <trkpt lat="44.93921" lon="6.59402">
        <ele>1530.7</ele>
        <time>2023-05-18T14:25:44+0200</time>
      </trkpt>
      <trkpt lat="44.93919" lon="6.59408">
        <ele>1530.5</ele>
        <time>2023-05-18T14:25:46+0200</time>
      </trkpt>
      <trkpt lat="44.93919" lon="6.59416">
        <ele>1530.9</ele>
        <time>2023-05-18T14:25:48+0200</time>
      </trkpt>
      <trkpt lat="44.9392" lon="6.59423">
        <ele>1531.3</ele>
        <time>2023-05-18T14:25:50+0200</time>
      </trkpt>
      <trkpt lat="44.93921" lon="6.59431">
        <ele>1531.9</ele>
        <time>2023-05-18T14:25:52+0200</time>
      </trkpt>
      <trkpt lat="44.93923" lon="6.5944">
        <ele>1532.7</ele>
        <time>2023-05-18T14:25:54+0200</time>
      </trkpt>
      <trkpt lat="44.93926" lon="6.59446">
        <ele>1534.2</ele>
        <time>2023-05-18T14:25:56+0200</time>
      </trkpt>
      <trkpt lat="44.9393" lon="6.59454">
        <ele>1535.5</ele>
        <time>2023-05-18T14:25:59+0200</time>
      </trkpt>
      <trkpt lat="44.93933" lon="6.5946">
        <ele>1536.8</ele>
        <time>2023-05-18T14:26:01+0200</time>
      </trkpt>
      <trkpt lat="44.93936" lon="6.59467">
        <ele>1537.6</ele>
        <time>2023-05-18T14:26:03+0200</time>
      </trkpt>
      <trkpt lat="44.93938" lon="6.59474">
        <ele>1538.3</ele>
        <time>2023-05-18T14:26:05+0200</time>
      </trkpt>
      <trkpt lat="44.93938" lon="6.59481">
        <ele>1537.9</ele>
        <time>2023-05-18T14:26:07+0200</time>
      </trkpt>
      <trkpt lat="44.93938" lon="6.5949">
        <ele>1537.4</ele>
        <time>2023-05-18T14:26:09+0200</time>
      </trkpt>
      <trkpt lat="44.93939" lon="6.59496">
        <ele>1537.1</ele>
        <time>2023-05-18T14:26:11+0200</time>
      </trkpt>
      <trkpt lat="44.9394" lon="6.59506">
        <ele>1536.6</ele>
        <time>2023-05-18T14:26:14+0200</time>
      </trkpt>
      <trkpt lat="44.93941" lon="6.59513">
        <ele>1536.6</ele>
        <time>2023-05-18T14:26:16+0200</time>
      </trkpt>
      <trkpt lat="44.93942" lon="6.5952">
        <ele>1536.6</ele>
        <time>2023-05-18T14:26:18+0200</time>
      </trkpt>
      <trkpt lat="44.93945" lon="6.59528">
        <ele>1537</ele>
        <time>2023-05-18T14:26:20+0200</time>
      </trkpt>
      <trkpt lat="44.93946" lon="6.59535">
        <ele>1536.9</ele>
        <time>2023-05-18T14:26:22+0200</time>
      </trkpt>
      <trkpt lat="44.93949" lon="6.59541">
        <ele>1538.3</ele>
        <time>2023-05-18T14:26:24+0200</time>
      </trkpt>
      <trkpt lat="44.93952" lon="6.59548">
        <ele>1539.2</ele>
        <time>2023-05-18T14:26:26+0200</time>
      </trkpt>
      <trkpt lat="44.93955" lon="6.59554">
        <ele>1540</ele>
        <time>2023-05-18T14:26:28+0200</time>
      </trkpt>
      <trkpt lat="44.93957" lon="6.5956">
        <ele>1540.5</ele>
        <time>2023-05-18T14:26:30+0200</time>
      </trkpt>
      <trkpt lat="44.93961" lon="6.59566">
        <ele>1541.9</ele>
        <time>2023-05-18T14:26:32+0200</time>
      </trkpt>
      <trkpt lat="44.93964" lon="6.59572">
        <ele>1543.4</ele>
        <time>2023-05-18T14:26:34+0200</time>
      </trkpt>
      <trkpt lat="44.93967" lon="6.59582">
        <ele>1544</ele>
        <time>2023-05-18T14:26:36+0200</time>
      </trkpt>
      <trkpt lat="44.9397" lon="6.59589">
        <ele>1545.3</ele>
        <time>2023-05-18T14:26:38+0200</time>
      </trkpt>
      <trkpt lat="44.93972" lon="6.59595">
        <ele>1546.2</ele>
        <time>2023-05-18T14:26:41+0200</time>
      </trkpt>
      <trkpt lat="44.93974" lon="6.59601">
        <ele>1546.7</ele>
        <time>2023-05-18T14:26:43+0200</time>
      </trkpt>
      <trkpt lat="44.93974" lon="6.5961">
        <ele>1545.8</ele>
        <time>2023-05-18T14:26:45+0200</time>
      </trkpt>
      <trkpt lat="44.93974" lon="6.59617">
        <ele>1545.8</ele>
        <time>2023-05-18T14:26:47+0200</time>
      </trkpt>
      <trkpt lat="44.93973" lon="6.59624">
        <ele>1545.3</ele>
        <time>2023-05-18T14:26:49+0200</time>
      </trkpt>
      <trkpt lat="44.93972" lon="6.59634">
        <ele>1545</ele>
        <time>2023-05-18T14:26:51+0200</time>
      </trkpt>
      <trkpt lat="44.9397" lon="6.59642">
        <ele>1543.7</ele>
        <time>2023-05-18T14:26:54+0200</time>
      </trkpt>
      <trkpt lat="44.93969" lon="6.59648">
        <ele>1543.7</ele>
        <time>2023-05-18T14:26:56+0200</time>
      </trkpt>
      <trkpt lat="44.93969" lon="6.59656">
        <ele>1544.5</ele>
        <time>2023-05-18T14:26:58+0200</time>
      </trkpt>
      <trkpt lat="44.93967" lon="6.59665">
        <ele>1544</ele>
        <time>2023-05-18T14:27:00+0200</time>
      </trkpt>
      <trkpt lat="44.93965" lon="6.59674">
        <ele>1544</ele>
        <time>2023-05-18T14:27:02+0200</time>
      </trkpt>
      <trkpt lat="44.93966" lon="6.59683">
        <ele>1545.4</ele>
        <time>2023-05-18T14:27:04+0200</time>
      </trkpt>
      <trkpt lat="44.93969" lon="6.59689">
        <ele>1547.9</ele>
        <time>2023-05-18T14:27:06+0200</time>
      </trkpt>
      <trkpt lat="44.93974" lon="6.59691">
        <ele>1550.8</ele>
        <time>2023-05-18T14:27:09+0200</time>
      </trkpt>
      <trkpt lat="44.9398" lon="6.59688">
        <ele>1553.5</ele>
        <time>2023-05-18T14:27:11+0200</time>
      </trkpt>
      <trkpt lat="44.93984" lon="6.59682">
        <ele>1554.8</ele>
        <time>2023-05-18T14:27:13+0200</time>
      </trkpt>
      <trkpt lat="44.93986" lon="6.59675">
        <ele>1555.4</ele>
        <time>2023-05-18T14:27:16+0200</time>
      </trkpt>
      <trkpt lat="44.93987" lon="6.59668">
        <ele>1555.4</ele>
        <time>2023-05-18T14:27:18+0200</time>
      </trkpt>
      <trkpt lat="44.9399" lon="6.59661">
        <ele>1556.3</ele>
        <time>2023-05-18T14:27:20+0200</time>
      </trkpt>
      <trkpt lat="44.93989" lon="6.59655">
        <ele>1555.6</ele>
        <time>2023-05-18T14:27:22+0200</time>
      </trkpt>
      <trkpt lat="44.93992" lon="6.59646">
        <ele>1556.5</ele>
        <time>2023-05-18T14:27:25+0200</time>
      </trkpt>
      <trkpt lat="44.93994" lon="6.5964">
        <ele>1557.4</ele>
        <time>2023-05-18T14:27:27+0200</time>
      </trkpt>
      <trkpt lat="44.93995" lon="6.59632">
        <ele>1557.7</ele>
        <time>2023-05-18T14:27:30+0200</time>
      </trkpt>
      <trkpt lat="44.93996" lon="6.59624">
        <ele>1558.4</ele>
        <time>2023-05-18T14:27:32+0200</time>
      </trkpt>
      <trkpt lat="44.93997" lon="6.59618">
        <ele>1558.6</ele>
        <time>2023-05-18T14:27:34+0200</time>
      </trkpt>
      <trkpt lat="44.93998" lon="6.59611">
        <ele>1558.9</ele>
        <time>2023-05-18T14:27:36+0200</time>
      </trkpt>
      <trkpt lat="44.94" lon="6.59604">
        <ele>1560.1</ele>
        <time>2023-05-18T14:27:39+0200</time>
      </trkpt>
      <trkpt lat="44.93999" lon="6.59598">
        <ele>1559.8</ele>
        <time>2023-05-18T14:27:41+0200</time>
      </trkpt>
      <trkpt lat="44.93998" lon="6.5959">
        <ele>1560</ele>
        <time>2023-05-18T14:27:44+0200</time>
      </trkpt>
      <trkpt lat="44.94" lon="6.59582">
        <ele>1561</ele>
        <time>2023-05-18T14:27:46+0200</time>
      </trkpt>
      <trkpt lat="44.94001" lon="6.59575">
        <ele>1561.5</ele>
        <time>2023-05-18T14:27:48+0200</time>
      </trkpt>
      <trkpt lat="44.94002" lon="6.59567">
        <ele>1562.1</ele>
        <time>2023-05-18T14:27:50+0200</time>
      </trkpt>
      <trkpt lat="44.94004" lon="6.59559">
        <ele>1563</ele>
        <time>2023-05-18T14:27:53+0200</time>
      </trkpt>
      <trkpt lat="44.94003" lon="6.59551">
        <ele>1563</ele>
        <time>2023-05-18T14:27:55+0200</time>
      </trkpt>
      <trkpt lat="44.94005" lon="6.59543">
        <ele>1564.1</ele>
        <time>2023-05-18T14:27:58+0200</time>
      </trkpt>
      <trkpt lat="44.94004" lon="6.59536">
        <ele>1564.4</ele>
        <time>2023-05-18T14:28:00+0200</time>
      </trkpt>
      <trkpt lat="44.94005" lon="6.5953">
        <ele>1565</ele>
        <time>2023-05-18T14:28:02+0200</time>
      </trkpt>
      <trkpt lat="44.94005" lon="6.5952">
        <ele>1565.4</ele>
        <time>2023-05-18T14:28:05+0200</time>
      </trkpt>
      <trkpt lat="44.94006" lon="6.59512">
        <ele>1566.4</ele>
        <time>2023-05-18T14:28:07+0200</time>
      </trkpt>
      <trkpt lat="44.94007" lon="6.59505">
        <ele>1567.1</ele>
        <time>2023-05-18T14:28:09+0200</time>
      </trkpt>
      <trkpt lat="44.94005" lon="6.59498">
        <ele>1566.6</ele>
        <time>2023-05-18T14:28:12+0200</time>
      </trkpt>
      <trkpt lat="44.94008" lon="6.5949">
        <ele>1568.1</ele>
        <time>2023-05-18T14:28:14+0200</time>
      </trkpt>
      <trkpt lat="44.9401" lon="6.59483">
        <ele>1569.3</ele>
        <time>2023-05-18T14:28:16+0200</time>
      </trkpt>
      <trkpt lat="44.9401" lon="6.59475">
        <ele>1569.7</ele>
        <time>2023-05-18T14:28:19+0200</time>
      </trkpt>
      <trkpt lat="44.94012" lon="6.59467">
        <ele>1571</ele>
        <time>2023-05-18T14:28:21+0200</time>
      </trkpt>
      <trkpt lat="44.94012" lon="6.5946">
        <ele>1571.6</ele>
        <time>2023-05-18T14:28:23+0200</time>
      </trkpt>
      <trkpt lat="44.94014" lon="6.59451">
        <ele>1572.8</ele>
        <time>2023-05-18T14:28:26+0200</time>
      </trkpt>
      <trkpt lat="44.94016" lon="6.59443">
        <ele>1573.9</ele>
        <time>2023-05-18T14:28:28+0200</time>
      </trkpt>
      <trkpt lat="44.94015" lon="6.59436">
        <ele>1573.7</ele>
        <time>2023-05-18T14:28:30+0200</time>
      </trkpt>
      <trkpt lat="44.94015" lon="6.59428">
        <ele>1573.9</ele>
        <time>2023-05-18T14:28:32+0200</time>
      </trkpt>
      <trkpt lat="44.94016" lon="6.59422">
        <ele>1574.3</ele>
        <time>2023-05-18T14:28:34+0200</time>
      </trkpt>
      <trkpt lat="44.94017" lon="6.59412">
        <ele>1575.2</ele>
        <time>2023-05-18T14:28:37+0200</time>
      </trkpt>
      <trkpt lat="44.94019" lon="6.59406">
        <ele>1575.8</ele>
        <time>2023-05-18T14:28:39+0200</time>
      </trkpt>
      <trkpt lat="44.94022" lon="6.59399">
        <ele>1576.7</ele>
        <time>2023-05-18T14:28:41+0200</time>
      </trkpt>
      <trkpt lat="44.94024" lon="6.59392">
        <ele>1577.4</ele>
        <time>2023-05-18T14:28:43+0200</time>
      </trkpt>
      <trkpt lat="44.94026" lon="6.59385">
        <ele>1577.9</ele>
        <time>2023-05-18T14:28:45+0200</time>
      </trkpt>
      <trkpt lat="44.94028" lon="6.59377">
        <ele>1578.1</ele>
        <time>2023-05-18T14:28:49+0200</time>
      </trkpt>
      <trkpt lat="44.9403" lon="6.59371">
        <ele>1578.7</ele>
        <time>2023-05-18T14:28:51+0200</time>
      </trkpt>
      <trkpt lat="44.94032" lon="6.59363">
        <ele>1579.2</ele>
        <time>2023-05-18T14:28:54+0200</time>
      </trkpt>
      <trkpt lat="44.94034" lon="6.59354">
        <ele>1579.5</ele>
        <time>2023-05-18T14:28:57+0200</time>
      </trkpt>
      <trkpt lat="44.94038" lon="6.59347">
        <ele>1580.3</ele>
        <time>2023-05-18T14:29:00+0200</time>
      </trkpt>
      <trkpt lat="44.9404" lon="6.5934">
        <ele>1580.6</ele>
        <time>2023-05-18T14:29:03+0200</time>
      </trkpt>
      <trkpt lat="44.94042" lon="6.59334">
        <ele>1580.8</ele>
        <time>2023-05-18T14:29:05+0200</time>
      </trkpt>
      <trkpt lat="44.94046" lon="6.59326">
        <ele>1581.4</ele>
        <time>2023-05-18T14:29:08+0200</time>
      </trkpt>
      <trkpt lat="44.94049" lon="6.5932">
        <ele>1582.3</ele>
        <time>2023-05-18T14:29:10+0200</time>
      </trkpt>
      <trkpt lat="44.94054" lon="6.59313">
        <ele>1583.8</ele>
        <time>2023-05-18T14:29:13+0200</time>
      </trkpt>
      <trkpt lat="44.94057" lon="6.59308">
        <ele>1584.9</ele>
        <time>2023-05-18T14:29:15+0200</time>
      </trkpt>
      <trkpt lat="44.94061" lon="6.59303">
        <ele>1586.4</ele>
        <time>2023-05-18T14:29:18+0200</time>
      </trkpt>
      <trkpt lat="44.94065" lon="6.59297">
        <ele>1587.1</ele>
        <time>2023-05-18T14:29:21+0200</time>
      </trkpt>
      <trkpt lat="44.94068" lon="6.59291">
        <ele>1587.8</ele>
        <time>2023-05-18T14:29:23+0200</time>
      </trkpt>
      <trkpt lat="44.94071" lon="6.59286">
        <ele>1588.8</ele>
        <time>2023-05-18T14:29:25+0200</time>
      </trkpt>
      <trkpt lat="44.94074" lon="6.5928">
        <ele>1589.6</ele>
        <time>2023-05-18T14:29:27+0200</time>
      </trkpt>
      <trkpt lat="44.94077" lon="6.59275">
        <ele>1590.1</ele>
        <time>2023-05-18T14:29:29+0200</time>
      </trkpt>
      <trkpt lat="44.94079" lon="6.59269">
        <ele>1590.4</ele>
        <time>2023-05-18T14:29:31+0200</time>
      </trkpt>
      <trkpt lat="44.94082" lon="6.59263">
        <ele>1591.1</ele>
        <time>2023-05-18T14:29:33+0200</time>
      </trkpt>
      <trkpt lat="44.94084" lon="6.59258">
        <ele>1591.3</ele>
        <time>2023-05-18T14:29:35+0200</time>
      </trkpt>
      <trkpt lat="44.94087" lon="6.5925">
        <ele>1591.7</ele>
        <time>2023-05-18T14:29:38+0200</time>
      </trkpt>
      <trkpt lat="44.9409" lon="6.59242">
        <ele>1592.6</ele>
        <time>2023-05-18T14:29:41+0200</time>
      </trkpt>
      <trkpt lat="44.94093" lon="6.59233">
        <ele>1592.9</ele>
        <time>2023-05-18T14:29:44+0200</time>
      </trkpt>
      <trkpt lat="44.94094" lon="6.59227">
        <ele>1593.1</ele>
        <time>2023-05-18T14:29:46+0200</time>
      </trkpt>
      <trkpt lat="44.94097" lon="6.5922">
        <ele>1593.5</ele>
        <time>2023-05-18T14:29:49+0200</time>
      </trkpt>
      <trkpt lat="44.94099" lon="6.59212">
        <ele>1593.7</ele>
        <time>2023-05-18T14:29:52+0200</time>
      </trkpt>
      <trkpt lat="44.94102" lon="6.59204">
        <ele>1594.6</ele>
        <time>2023-05-18T14:29:55+0200</time>
      </trkpt>
      <trkpt lat="44.94105" lon="6.59198">
        <ele>1595.3</ele>
        <time>2023-05-18T14:29:58+0200</time>
      </trkpt>
      <trkpt lat="44.94107" lon="6.59193">
        <ele>1595.9</ele>
        <time>2023-05-18T14:30:00+0200</time>
      </trkpt>
      <trkpt lat="44.9411" lon="6.59186">
        <ele>1596.6</ele>
        <time>2023-05-18T14:30:02+0200</time>
      </trkpt>
      <trkpt lat="44.94114" lon="6.59178">
        <ele>1597.5</ele>
        <time>2023-05-18T14:30:05+0200</time>
      </trkpt>
      <trkpt lat="44.94116" lon="6.59172">
        <ele>1598</ele>
        <time>2023-05-18T14:30:07+0200</time>
      </trkpt>
      <trkpt lat="44.94119" lon="6.59167">
        <ele>1598.9</ele>
        <time>2023-05-18T14:30:09+0200</time>
      </trkpt>
      <trkpt lat="44.94122" lon="6.5916">
        <ele>1599.8</ele>
        <time>2023-05-18T14:30:12+0200</time>
      </trkpt>
      <trkpt lat="44.94125" lon="6.59154">
        <ele>1600.1</ele>
        <time>2023-05-18T14:30:15+0200</time>
      </trkpt>
      <trkpt lat="44.94127" lon="6.59148">
        <ele>1600.1</ele>
        <time>2023-05-18T14:30:17+0200</time>
      </trkpt>
      <trkpt lat="44.9413" lon="6.59142">
        <ele>1600.7</ele>
        <time>2023-05-18T14:30:19+0200</time>
      </trkpt>
      <trkpt lat="44.94132" lon="6.59134">
        <ele>1600.7</ele>
        <time>2023-05-18T14:30:22+0200</time>
      </trkpt>
      <trkpt lat="44.94134" lon="6.59126">
        <ele>1600.8</ele>
        <time>2023-05-18T14:30:24+0200</time>
      </trkpt>
      <trkpt lat="44.94138" lon="6.59119">
        <ele>1601.6</ele>
        <time>2023-05-18T14:30:26+0200</time>
      </trkpt>
      <trkpt lat="44.94141" lon="6.59111">
        <ele>1601.8</ele>
        <time>2023-05-18T14:30:29+0200</time>
      </trkpt>
      <trkpt lat="44.94143" lon="6.59104">
        <ele>1602</ele>
        <time>2023-05-18T14:30:31+0200</time>
      </trkpt>
      <trkpt lat="44.94147" lon="6.59097">
        <ele>1603.1</ele>
        <time>2023-05-18T14:30:33+0200</time>
      </trkpt>
      <trkpt lat="44.94149" lon="6.5909">
        <ele>1603.2</ele>
        <time>2023-05-18T14:30:35+0200</time>
      </trkpt>
      <trkpt lat="44.94152" lon="6.59083">
        <ele>1604.1</ele>
        <time>2023-05-18T14:30:37+0200</time>
      </trkpt>
      <trkpt lat="44.94155" lon="6.59073">
        <ele>1603.8</ele>
        <time>2023-05-18T14:30:40+0200</time>
      </trkpt>
      <trkpt lat="44.94158" lon="6.59067">
        <ele>1604.2</ele>
        <time>2023-05-18T14:30:42+0200</time>
      </trkpt>
      <trkpt lat="44.9416" lon="6.59061">
        <ele>1604.6</ele>
        <time>2023-05-18T14:30:44+0200</time>
      </trkpt>
      <trkpt lat="44.94163" lon="6.59055">
        <ele>1605.1</ele>
        <time>2023-05-18T14:30:47+0200</time>
      </trkpt>
      <trkpt lat="44.94166" lon="6.59047">
        <ele>1605.6</ele>
        <time>2023-05-18T14:30:50+0200</time>
      </trkpt>
      <trkpt lat="44.94168" lon="6.5904">
        <ele>1605.6</ele>
        <time>2023-05-18T14:30:53+0200</time>
      </trkpt>
      <trkpt lat="44.94171" lon="6.59031">
        <ele>1606.2</ele>
        <time>2023-05-18T14:30:56+0200</time>
      </trkpt>
      <trkpt lat="44.94174" lon="6.59024">
        <ele>1606.8</ele>
        <time>2023-05-18T14:30:59+0200</time>
      </trkpt>
      <trkpt lat="44.94177" lon="6.59019">
        <ele>1607.9</ele>
        <time>2023-05-18T14:31:01+0200</time>
      </trkpt>
      <trkpt lat="44.94181" lon="6.59014">
        <ele>1609.8</ele>
        <time>2023-05-18T14:31:04+0200</time>
      </trkpt>
      <trkpt lat="44.94185" lon="6.59009">
        <ele>1611.4</ele>
        <time>2023-05-18T14:31:06+0200</time>
      </trkpt>
      <trkpt lat="44.94191" lon="6.59004">
        <ele>1614.2</ele>
        <time>2023-05-18T14:31:09+0200</time>
      </trkpt>
      <trkpt lat="44.94196" lon="6.58998">
        <ele>1616.2</ele>
        <time>2023-05-18T14:31:12+0200</time>
      </trkpt>
      <trkpt lat="44.94201" lon="6.58994">
        <ele>1617.8</ele>
        <time>2023-05-18T14:31:15+0200</time>
      </trkpt>
      <trkpt lat="44.94205" lon="6.58987">
        <ele>1618.5</ele>
        <time>2023-05-18T14:31:18+0200</time>
      </trkpt>
      <trkpt lat="44.94209" lon="6.58982">
        <ele>1619.3</ele>
        <time>2023-05-18T14:31:20+0200</time>
      </trkpt>
      <trkpt lat="44.94212" lon="6.58976">
        <ele>1619.6</ele>
        <time>2023-05-18T14:31:22+0200</time>
      </trkpt>
      <trkpt lat="44.94213" lon="6.58969">
        <ele>1619.4</ele>
        <time>2023-05-18T14:31:24+0200</time>
      </trkpt>
      <trkpt lat="44.94216" lon="6.58961">
        <ele>1619.3</ele>
        <time>2023-05-18T14:31:27+0200</time>
      </trkpt>
      <trkpt lat="44.9422" lon="6.58953">
        <ele>1619.9</ele>
        <time>2023-05-18T14:31:30+0200</time>
      </trkpt>
      <trkpt lat="44.94224" lon="6.58947">
        <ele>1621.2</ele>
        <time>2023-05-18T14:31:33+0200</time>
      </trkpt>
      <trkpt lat="44.94229" lon="6.58943">
        <ele>1622.3</ele>
        <time>2023-05-18T14:31:35+0200</time>
      </trkpt>
      <trkpt lat="44.94233" lon="6.58937">
        <ele>1622.4</ele>
        <time>2023-05-18T14:31:37+0200</time>
      </trkpt>
      <trkpt lat="44.94237" lon="6.58932">
        <ele>1622.7</ele>
        <time>2023-05-18T14:31:39+0200</time>
      </trkpt>
      <trkpt lat="44.94243" lon="6.58928">
        <ele>1624</ele>
        <time>2023-05-18T14:31:42+0200</time>
      </trkpt>
      <trkpt lat="44.94249" lon="6.58922">
        <ele>1624.9</ele>
        <time>2023-05-18T14:31:45+0200</time>
      </trkpt>
      <trkpt lat="44.94253" lon="6.58918">
        <ele>1625.7</ele>
        <time>2023-05-18T14:31:48+0200</time>
      </trkpt>
      <trkpt lat="44.94255" lon="6.58909">
        <ele>1625.7</ele>
        <time>2023-05-18T14:31:51+0200</time>
      </trkpt>
      <trkpt lat="44.94259" lon="6.58904">
        <ele>1626.9</ele>
        <time>2023-05-18T14:31:53+0200</time>
      </trkpt>
      <trkpt lat="44.94263" lon="6.58897">
        <ele>1627.7</ele>
        <time>2023-05-18T14:31:55+0200</time>
      </trkpt>
      <trkpt lat="44.94264" lon="6.58889">
        <ele>1627</ele>
        <time>2023-05-18T14:31:58+0200</time>
      </trkpt>
      <trkpt lat="44.94266" lon="6.58881">
        <ele>1627.4</ele>
        <time>2023-05-18T14:32:00+0200</time>
      </trkpt>
      <trkpt lat="44.94267" lon="6.58874">
        <ele>1627.5</ele>
        <time>2023-05-18T14:32:02+0200</time>
      </trkpt>
      <trkpt lat="44.94268" lon="6.58865">
        <ele>1627.3</ele>
        <time>2023-05-18T14:32:05+0200</time>
      </trkpt>
      <trkpt lat="44.94268" lon="6.58858">
        <ele>1626.9</ele>
        <time>2023-05-18T14:32:07+0200</time>
      </trkpt>
      <trkpt lat="44.94267" lon="6.5885">
        <ele>1626.2</ele>
        <time>2023-05-18T14:32:09+0200</time>
      </trkpt>
      <trkpt lat="44.94266" lon="6.58842">
        <ele>1625.8</ele>
        <time>2023-05-18T14:32:11+0200</time>
      </trkpt>
      <trkpt lat="44.94266" lon="6.58834">
        <ele>1625.2</ele>
        <time>2023-05-18T14:32:13+0200</time>
      </trkpt>
      <trkpt lat="44.94267" lon="6.58828">
        <ele>1625</ele>
        <time>2023-05-18T14:32:15+0200</time>
      </trkpt>
      <trkpt lat="44.9427" lon="6.58821">
        <ele>1625.2</ele>
        <time>2023-05-18T14:32:17+0200</time>
      </trkpt>
      <trkpt lat="44.94273" lon="6.58815">
        <ele>1625.6</ele>
        <time>2023-05-18T14:32:19+0200</time>
      </trkpt>
      <trkpt lat="44.94278" lon="6.5881">
        <ele>1626.5</ele>
        <time>2023-05-18T14:32:21+0200</time>
      </trkpt>
      <trkpt lat="44.94281" lon="6.58806">
        <ele>1627.3</ele>
        <time>2023-05-18T14:32:23+0200</time>
      </trkpt>
      <trkpt lat="44.94286" lon="6.58801">
        <ele>1627.9</ele>
        <time>2023-05-18T14:32:25+0200</time>
      </trkpt>
      <trkpt lat="44.9429" lon="6.58795">
        <ele>1628.5</ele>
        <time>2023-05-18T14:32:27+0200</time>
      </trkpt>
      <trkpt lat="44.94294" lon="6.58791">
        <ele>1629.3</ele>
        <time>2023-05-18T14:32:29+0200</time>
      </trkpt>
      <trkpt lat="44.94298" lon="6.58787">
        <ele>1629.9</ele>
        <time>2023-05-18T14:32:31+0200</time>
      </trkpt>
      <trkpt lat="44.94302" lon="6.58783">
        <ele>1630.6</ele>
        <time>2023-05-18T14:32:33+0200</time>
      </trkpt>
      <trkpt lat="44.94306" lon="6.58778">
        <ele>1631</ele>
        <time>2023-05-18T14:32:35+0200</time>
      </trkpt>
      <trkpt lat="44.9431" lon="6.58773">
        <ele>1631.6</ele>
        <time>2023-05-18T14:32:38+0200</time>
      </trkpt>
      <trkpt lat="44.94317" lon="6.58769">
        <ele>1633.2</ele>
        <time>2023-05-18T14:32:41+0200</time>
      </trkpt>
      <trkpt lat="44.94323" lon="6.58766">
        <ele>1634.6</ele>
        <time>2023-05-18T14:32:44+0200</time>
      </trkpt>
      <trkpt lat="44.94327" lon="6.58762">
        <ele>1635.4</ele>
        <time>2023-05-18T14:32:46+0200</time>
      </trkpt>
      <trkpt lat="44.94332" lon="6.58762">
        <ele>1637.1</ele>
        <time>2023-05-18T14:32:48+0200</time>
      </trkpt>
      <trkpt lat="44.94337" lon="6.58757">
        <ele>1637.6</ele>
        <time>2023-05-18T14:32:50+0200</time>
      </trkpt>
      <trkpt lat="44.94341" lon="6.58754">
        <ele>1638</ele>
        <time>2023-05-18T14:32:52+0200</time>
      </trkpt>
      <trkpt lat="44.94346" lon="6.58751">
        <ele>1638.7</ele>
        <time>2023-05-18T14:32:54+0200</time>
      </trkpt>
      <trkpt lat="44.94351" lon="6.58748">
        <ele>1639.5</ele>
        <time>2023-05-18T14:32:56+0200</time>
      </trkpt>
      <trkpt lat="44.94355" lon="6.58745">
        <ele>1640.1</ele>
        <time>2023-05-18T14:32:57+0200</time>
      </trkpt>
      <trkpt lat="44.94359" lon="6.58741">
        <ele>1640.5</ele>
        <time>2023-05-18T14:33:00+0200</time>
      </trkpt>
      <trkpt lat="44.94363" lon="6.58737">
        <ele>1640.7</ele>
        <time>2023-05-18T14:33:02+0200</time>
      </trkpt>
      <trkpt lat="44.9437" lon="6.58732">
        <ele>1641.7</ele>
        <time>2023-05-18T14:33:04+0200</time>
      </trkpt>
      <trkpt lat="44.94374" lon="6.58728">
        <ele>1642</ele>
        <time>2023-05-18T14:33:06+0200</time>
      </trkpt>
      <trkpt lat="44.94378" lon="6.58723">
        <ele>1642</ele>
        <time>2023-05-18T14:33:08+0200</time>
      </trkpt>
      <trkpt lat="44.94382" lon="6.58721">
        <ele>1642.8</ele>
        <time>2023-05-18T14:33:10+0200</time>
      </trkpt>
      <trkpt lat="44.94387" lon="6.58715">
        <ele>1643.3</ele>
        <time>2023-05-18T14:33:13+0200</time>
      </trkpt>
      <trkpt lat="44.94393" lon="6.58712">
        <ele>1644.3</ele>
        <time>2023-05-18T14:33:16+0200</time>
      </trkpt>
      <trkpt lat="44.94397" lon="6.58705">
        <ele>1644.1</ele>
        <time>2023-05-18T14:33:19+0200</time>
      </trkpt>
      <trkpt lat="44.944" lon="6.58698">
        <ele>1643.9</ele>
        <time>2023-05-18T14:33:22+0200</time>
      </trkpt>
      <trkpt lat="44.94405" lon="6.58691">
        <ele>1644.1</ele>
        <time>2023-05-18T14:33:25+0200</time>
      </trkpt>
      <trkpt lat="44.9441" lon="6.58687">
        <ele>1644.9</ele>
        <time>2023-05-18T14:33:28+0200</time>
      </trkpt>
      <trkpt lat="44.94415" lon="6.58685">
        <ele>1646.3</ele>
        <time>2023-05-18T14:33:30+0200</time>
      </trkpt>
      <trkpt lat="44.94421" lon="6.58687">
        <ele>1648.2</ele>
        <time>2023-05-18T14:33:33+0200</time>
      </trkpt>
      <trkpt lat="44.94423" lon="6.58694">
        <ele>1649.7</ele>
        <time>2023-05-18T14:33:39+0200</time>
      </trkpt>
      <trkpt lat="44.94421" lon="6.58701">
        <ele>1650.3</ele>
        <time>2023-05-18T14:33:42+0200</time>
      </trkpt>
      <trkpt lat="44.94415" lon="6.58707">
        <ele>1649.8</ele>
        <time>2023-05-18T14:33:46+0200</time>
      </trkpt>
      <trkpt lat="44.9441" lon="6.58713">
        <ele>1649.5</ele>
        <time>2023-05-18T14:33:48+0200</time>
      </trkpt>
      <trkpt lat="44.94407" lon="6.58721">
        <ele>1650.1</ele>
        <time>2023-05-18T14:33:51+0200</time>
      </trkpt>
      <trkpt lat="44.94404" lon="6.58728">
        <ele>1650.4</ele>
        <time>2023-05-18T14:33:53+0200</time>
      </trkpt>
      <trkpt lat="44.944" lon="6.58733">
        <ele>1650.4</ele>
        <time>2023-05-18T14:33:56+0200</time>
      </trkpt>
      <trkpt lat="44.94397" lon="6.58739">
        <ele>1650.6</ele>
        <time>2023-05-18T14:33:58+0200</time>
      </trkpt>
      <trkpt lat="44.94393" lon="6.58746">
        <ele>1651.3</ele>
        <time>2023-05-18T14:34:00+0200</time>
      </trkpt>
      <trkpt lat="44.94389" lon="6.58753">
        <ele>1651.6</ele>
        <time>2023-05-18T14:34:02+0200</time>
      </trkpt>
      <trkpt lat="44.94386" lon="6.58758">
        <ele>1651.8</ele>
        <time>2023-05-18T14:34:04+0200</time>
      </trkpt>
      <trkpt lat="44.94382" lon="6.58765">
        <ele>1652.2</ele>
        <time>2023-05-18T14:34:07+0200</time>
      </trkpt>
      <trkpt lat="44.94377" lon="6.58771">
        <ele>1652.2</ele>
        <time>2023-05-18T14:34:09+0200</time>
      </trkpt>
      <trkpt lat="44.94372" lon="6.58778">
        <ele>1652.2</ele>
        <time>2023-05-18T14:34:11+0200</time>
      </trkpt>
      <trkpt lat="44.94369" lon="6.58784">
        <ele>1652.5</ele>
        <time>2023-05-18T14:34:13+0200</time>
      </trkpt>
      <trkpt lat="44.94365" lon="6.58789">
        <ele>1652.3</ele>
        <time>2023-05-18T14:34:15+0200</time>
      </trkpt>
      <trkpt lat="44.94362" lon="6.58795">
        <ele>1652.8</ele>
        <time>2023-05-18T14:34:17+0200</time>
      </trkpt>
      <trkpt lat="44.94359" lon="6.58804">
        <ele>1653.8</ele>
        <time>2023-05-18T14:34:19+0200</time>
      </trkpt>
      <trkpt lat="44.94358" lon="6.58811">
        <ele>1654.8</ele>
        <time>2023-05-18T14:34:21+0200</time>
      </trkpt>
      <trkpt lat="44.94356" lon="6.58819">
        <ele>1655.9</ele>
        <time>2023-05-18T14:34:23+0200</time>
      </trkpt>
      <trkpt lat="44.94357" lon="6.58827">
        <ele>1657.3</ele>
        <time>2023-05-18T14:34:25+0200</time>
      </trkpt>
      <trkpt lat="44.94357" lon="6.58835">
        <ele>1658.8</ele>
        <time>2023-05-18T14:34:27+0200</time>
      </trkpt>
      <trkpt lat="44.94357" lon="6.58842">
        <ele>1659.6</ele>
        <time>2023-05-18T14:34:29+0200</time>
      </trkpt>
      <trkpt lat="44.94357" lon="6.58851">
        <ele>1660.3</ele>
        <time>2023-05-18T14:34:31+0200</time>
      </trkpt>
      <trkpt lat="44.94355" lon="6.58858">
        <ele>1660.6</ele>
        <time>2023-05-18T14:34:33+0200</time>
      </trkpt>
      <trkpt lat="44.94354" lon="6.58867">
        <ele>1661.1</ele>
        <time>2023-05-18T14:34:35+0200</time>
      </trkpt>
      <trkpt lat="44.94352" lon="6.58873">
        <ele>1661.4</ele>
        <time>2023-05-18T14:34:37+0200</time>
      </trkpt>
      <trkpt lat="44.94349" lon="6.58876">
        <ele>1660.5</ele>
        <time>2023-05-18T14:34:39+0200</time>
      </trkpt>
      <trkpt lat="44.94346" lon="6.58885">
        <ele>1660.6</ele>
        <time>2023-05-18T14:34:42+0200</time>
      </trkpt>
      <trkpt lat="44.94343" lon="6.5889">
        <ele>1660</ele>
        <time>2023-05-18T14:34:44+0200</time>
      </trkpt>
      <trkpt lat="44.9434" lon="6.58898">
        <ele>1660.3</ele>
        <time>2023-05-18T14:34:46+0200</time>
      </trkpt>
      <trkpt lat="44.94336" lon="6.58904">
        <ele>1660.3</ele>
        <time>2023-05-18T14:34:48+0200</time>
      </trkpt>
      <trkpt lat="44.94334" lon="6.58912">
        <ele>1661.1</ele>
        <time>2023-05-18T14:34:50+0200</time>
      </trkpt>
      <trkpt lat="44.94331" lon="6.5892">
        <ele>1661.8</ele>
        <time>2023-05-18T14:34:51+0200</time>
      </trkpt>
      <trkpt lat="44.94329" lon="6.58927">
        <ele>1662.6</ele>
        <time>2023-05-18T14:34:53+0200</time>
      </trkpt>
      <trkpt lat="44.94325" lon="6.58935">
        <ele>1663.1</ele>
        <time>2023-05-18T14:34:56+0200</time>
      </trkpt>
      <trkpt lat="44.94322" lon="6.58943">
        <ele>1664</ele>
        <time>2023-05-18T14:34:58+0200</time>
      </trkpt>
      <trkpt lat="44.94321" lon="6.58949">
        <ele>1665</ele>
        <time>2023-05-18T14:35:00+0200</time>
      </trkpt>
      <trkpt lat="44.94319" lon="6.58955">
        <ele>1665.5</ele>
        <time>2023-05-18T14:35:02+0200</time>
      </trkpt>
      <trkpt lat="44.94316" lon="6.58962">
        <ele>1666.3</ele>
        <time>2023-05-18T14:35:05+0200</time>
      </trkpt>
      <trkpt lat="44.94313" lon="6.58969">
        <ele>1666.8</ele>
        <time>2023-05-18T14:35:07+0200</time>
      </trkpt>
      <trkpt lat="44.94311" lon="6.58979">
        <ele>1667.8</ele>
        <time>2023-05-18T14:35:09+0200</time>
      </trkpt>
      <trkpt lat="44.94305" lon="6.58986">
        <ele>1667.4</ele>
        <time>2023-05-18T14:35:12+0200</time>
      </trkpt>
      <trkpt lat="44.94302" lon="6.58992">
        <ele>1666.9</ele>
        <time>2023-05-18T14:35:14+0200</time>
      </trkpt>
      <trkpt lat="44.94298" lon="6.58996">
        <ele>1666</ele>
        <time>2023-05-18T14:35:16+0200</time>
      </trkpt>
      <trkpt lat="44.94295" lon="6.59004">
        <ele>1666.3</ele>
        <time>2023-05-18T14:35:18+0200</time>
      </trkpt>
      <trkpt lat="44.94293" lon="6.59013">
        <ele>1666.9</ele>
        <time>2023-05-18T14:35:20+0200</time>
      </trkpt>
      <trkpt lat="44.94292" lon="6.59023">
        <ele>1668.2</ele>
        <time>2023-05-18T14:35:22+0200</time>
      </trkpt>
      <trkpt lat="44.94292" lon="6.59032">
        <ele>1669.4</ele>
        <time>2023-05-18T14:35:24+0200</time>
      </trkpt>
      <trkpt lat="44.94293" lon="6.5904">
        <ele>1670.7</ele>
        <time>2023-05-18T14:35:26+0200</time>
      </trkpt>
      <trkpt lat="44.94292" lon="6.59051">
        <ele>1671.8</ele>
        <time>2023-05-18T14:35:29+0200</time>
      </trkpt>
      <trkpt lat="44.94293" lon="6.59059">
        <ele>1672.7</ele>
        <time>2023-05-18T14:35:31+0200</time>
      </trkpt>
      <trkpt lat="44.94293" lon="6.59068">
        <ele>1673.1</ele>
        <time>2023-05-18T14:35:33+0200</time>
      </trkpt>
      <trkpt lat="44.94294" lon="6.59077">
        <ele>1673.7</ele>
        <time>2023-05-18T14:35:36+0200</time>
      </trkpt>
      <trkpt lat="44.94294" lon="6.59085">
        <ele>1674.1</ele>
        <time>2023-05-18T14:35:38+0200</time>
      </trkpt>
      <trkpt lat="44.94295" lon="6.59094">
        <ele>1674.1</ele>
        <time>2023-05-18T14:35:41+0200</time>
      </trkpt>
      <trkpt lat="44.94296" lon="6.59101">
        <ele>1674.5</ele>
        <time>2023-05-18T14:35:43+0200</time>
      </trkpt>
      <trkpt lat="44.94297" lon="6.59108">
        <ele>1674.6</ele>
        <time>2023-05-18T14:35:46+0200</time>
      </trkpt>
      <trkpt lat="44.943" lon="6.59118">
        <ele>1676.1</ele>
        <time>2023-05-18T14:35:49+0200</time>
      </trkpt>
      <trkpt lat="44.94302" lon="6.59126">
        <ele>1677.2</ele>
        <time>2023-05-18T14:35:52+0200</time>
      </trkpt>
      <trkpt lat="44.94302" lon="6.59133">
        <ele>1677.2</ele>
        <time>2023-05-18T14:35:54+0200</time>
      </trkpt>
      <trkpt lat="44.94305" lon="6.59139">
        <ele>1678.6</ele>
        <time>2023-05-18T14:35:56+0200</time>
      </trkpt>
      <trkpt lat="44.94306" lon="6.59147">
        <ele>1679.4</ele>
        <time>2023-05-18T14:35:58+0200</time>
      </trkpt>
      <trkpt lat="44.94307" lon="6.59154">
        <ele>1680</ele>
        <time>2023-05-18T14:36:00+0200</time>
      </trkpt>
      <trkpt lat="44.94307" lon="6.59161">
        <ele>1680.4</ele>
        <time>2023-05-18T14:36:02+0200</time>
      </trkpt>
      <trkpt lat="44.94307" lon="6.59168">
        <ele>1680.8</ele>
        <time>2023-05-18T14:36:04+0200</time>
      </trkpt>
      <trkpt lat="44.94308" lon="6.59176">
        <ele>1681.4</ele>
        <time>2023-05-18T14:36:06+0200</time>
      </trkpt>
      <trkpt lat="44.94307" lon="6.59182">
        <ele>1681.5</ele>
        <time>2023-05-18T14:36:08+0200</time>
      </trkpt>
      <trkpt lat="44.94307" lon="6.59189">
        <ele>1682</ele>
        <time>2023-05-18T14:36:10+0200</time>
      </trkpt>
      <trkpt lat="44.94306" lon="6.59196">
        <ele>1682.3</ele>
        <time>2023-05-18T14:36:12+0200</time>
      </trkpt>
      <trkpt lat="44.94306" lon="6.59203">
        <ele>1682.9</ele>
        <time>2023-05-18T14:36:14+0200</time>
      </trkpt>
      <trkpt lat="44.94308" lon="6.59212">
        <ele>1684.2</ele>
        <time>2023-05-18T14:36:16+0200</time>
      </trkpt>
      <trkpt lat="44.94309" lon="6.59218">
        <ele>1685.1</ele>
        <time>2023-05-18T14:36:18+0200</time>
      </trkpt>
      <trkpt lat="44.94308" lon="6.59227">
        <ele>1685.2</ele>
        <time>2023-05-18T14:36:21+0200</time>
      </trkpt>
      <trkpt lat="44.94308" lon="6.59234">
        <ele>1685.4</ele>
        <time>2023-05-18T14:36:24+0200</time>
      </trkpt>
      <trkpt lat="44.94308" lon="6.59244">
        <ele>1685.9</ele>
        <time>2023-05-18T14:36:27+0200</time>
      </trkpt>
      <trkpt lat="44.94308" lon="6.59252">
        <ele>1686.3</ele>
        <time>2023-05-18T14:36:29+0200</time>
      </trkpt>
      <trkpt lat="44.94306" lon="6.59261">
        <ele>1686</ele>
        <time>2023-05-18T14:36:32+0200</time>
      </trkpt>
      <trkpt lat="44.94306" lon="6.59268">
        <ele>1686.6</ele>
        <time>2023-05-18T14:36:34+0200</time>
      </trkpt>
      <trkpt lat="44.94305" lon="6.59275">
        <ele>1686.4</ele>
        <time>2023-05-18T14:36:36+0200</time>
      </trkpt>
      <trkpt lat="44.94303" lon="6.59282">
        <ele>1686.1</ele>
        <time>2023-05-18T14:36:38+0200</time>
      </trkpt>
      <trkpt lat="44.94302" lon="6.59291">
        <ele>1686.2</ele>
        <time>2023-05-18T14:36:41+0200</time>
      </trkpt>
      <trkpt lat="44.94301" lon="6.59301">
        <ele>1686.7</ele>
        <time>2023-05-18T14:36:44+0200</time>
      </trkpt>
      <trkpt lat="44.94301" lon="6.59312">
        <ele>1687.2</ele>
        <time>2023-05-18T14:36:47+0200</time>
      </trkpt>
      <trkpt lat="44.94302" lon="6.59321">
        <ele>1688.1</ele>
        <time>2023-05-18T14:36:49+0200</time>
      </trkpt>
      <trkpt lat="44.94301" lon="6.59328">
        <ele>1688.5</ele>
        <time>2023-05-18T14:36:51+0200</time>
      </trkpt>
      <trkpt lat="44.94302" lon="6.59336">
        <ele>1689.1</ele>
        <time>2023-05-18T14:36:53+0200</time>
      </trkpt>
      <trkpt lat="44.94303" lon="6.59343">
        <ele>1689.8</ele>
        <time>2023-05-18T14:36:55+0200</time>
      </trkpt>
      <trkpt lat="44.94303" lon="6.59352">
        <ele>1690.4</ele>
        <time>2023-05-18T14:36:58+0200</time>
      </trkpt>
      <trkpt lat="44.94305" lon="6.5936">
        <ele>1691.7</ele>
        <time>2023-05-18T14:37:00+0200</time>
      </trkpt>
      <trkpt lat="44.94306" lon="6.59368">
        <ele>1692.3</ele>
        <time>2023-05-18T14:37:02+0200</time>
      </trkpt>
      <trkpt lat="44.94308" lon="6.59374">
        <ele>1693.2</ele>
        <time>2023-05-18T14:37:04+0200</time>
      </trkpt>
      <trkpt lat="44.94309" lon="6.59381">
        <ele>1693.5</ele>
        <time>2023-05-18T14:37:06+0200</time>
      </trkpt>
      <trkpt lat="44.9431" lon="6.59389">
        <ele>1694.1</ele>
        <time>2023-05-18T14:37:09+0200</time>
      </trkpt>
      <trkpt lat="44.94311" lon="6.59397">
        <ele>1694.6</ele>
        <time>2023-05-18T14:37:13+0200</time>
      </trkpt>
      <trkpt lat="44.94313" lon="6.59406">
        <ele>1695.7</ele>
        <time>2023-05-18T14:37:16+0200</time>
      </trkpt>
      <trkpt lat="44.94314" lon="6.59415">
        <ele>1696.3</ele>
        <time>2023-05-18T14:37:19+0200</time>
      </trkpt>
      <trkpt lat="44.94315" lon="6.59425">
        <ele>1697</ele>
        <time>2023-05-18T14:37:22+0200</time>
      </trkpt>
      <trkpt lat="44.94315" lon="6.59434">
        <ele>1697.1</ele>
        <time>2023-05-18T14:37:25+0200</time>
      </trkpt>
      <trkpt lat="44.94315" lon="6.59443">
        <ele>1697.1</ele>
        <time>2023-05-18T14:37:28+0200</time>
      </trkpt>
      <trkpt lat="44.94314" lon="6.59452">
        <ele>1697</ele>
        <time>2023-05-18T14:37:31+0200</time>
      </trkpt>
      <trkpt lat="44.94314" lon="6.5946">
        <ele>1697</ele>
        <time>2023-05-18T14:37:34+0200</time>
      </trkpt>
      <trkpt lat="44.94314" lon="6.59467">
        <ele>1697.3</ele>
        <time>2023-05-18T14:37:36+0200</time>
      </trkpt>
      <trkpt lat="44.94316" lon="6.59473">
        <ele>1698.5</ele>
        <time>2023-05-18T14:37:38+0200</time>
      </trkpt>
      <trkpt lat="44.94317" lon="6.59482">
        <ele>1699.7</ele>
        <time>2023-05-18T14:37:41+0200</time>
      </trkpt>
      <trkpt lat="44.94318" lon="6.5949">
        <ele>1700.5</ele>
        <time>2023-05-18T14:37:44+0200</time>
      </trkpt>
      <trkpt lat="44.9432" lon="6.59497">
        <ele>1701.8</ele>
        <time>2023-05-18T14:37:48+0200</time>
      </trkpt>
      <trkpt lat="44.94323" lon="6.59504">
        <ele>1703.6</ele>
        <time>2023-05-18T14:37:51+0200</time>
      </trkpt>
      <trkpt lat="44.94326" lon="6.5951">
        <ele>1705.2</ele>
        <time>2023-05-18T14:37:53+0200</time>
      </trkpt>
      <trkpt lat="44.94328" lon="6.59518">
        <ele>1706.4</ele>
        <time>2023-05-18T14:37:56+0200</time>
      </trkpt>
      <trkpt lat="44.94328" lon="6.59524">
        <ele>1706.9</ele>
        <time>2023-05-18T14:37:58+0200</time>
      </trkpt>
      <trkpt lat="44.94329" lon="6.59531">
        <ele>1707.6</ele>
        <time>2023-05-18T14:38:01+0200</time>
      </trkpt>
      <trkpt lat="44.9433" lon="6.59538">
        <ele>1708.2</ele>
        <time>2023-05-18T14:38:03+0200</time>
      </trkpt>
      <trkpt lat="44.94329" lon="6.59547">
        <ele>1708.8</ele>
        <time>2023-05-18T14:38:07+0200</time>
      </trkpt>
      <trkpt lat="44.9433" lon="6.59554">
        <ele>1709.4</ele>
        <time>2023-05-18T14:38:09+0200</time>
      </trkpt>
      <trkpt lat="44.9433" lon="6.59562">
        <ele>1709.9</ele>
        <time>2023-05-18T14:38:12+0200</time>
      </trkpt>
      <trkpt lat="44.94328" lon="6.59569">
        <ele>1709.4</ele>
        <time>2023-05-18T14:38:14+0200</time>
      </trkpt>
      <trkpt lat="44.94329" lon="6.59577">
        <ele>1710.3</ele>
        <time>2023-05-18T14:38:17+0200</time>
      </trkpt>
      <trkpt lat="44.9433" lon="6.59584">
        <ele>1710.8</ele>
        <time>2023-05-18T14:38:19+0200</time>
      </trkpt>
      <trkpt lat="44.94331" lon="6.59591">
        <ele>1711.4</ele>
        <time>2023-05-18T14:38:21+0200</time>
      </trkpt>
      <trkpt lat="44.94335" lon="6.59599">
        <ele>1712.9</ele>
        <time>2023-05-18T14:38:24+0200</time>
      </trkpt>
      <trkpt lat="44.94336" lon="6.59609">
        <ele>1713.7</ele>
        <time>2023-05-18T14:38:27+0200</time>
      </trkpt>
      <trkpt lat="44.94339" lon="6.59616">
        <ele>1714.5</ele>
        <time>2023-05-18T14:38:29+0200</time>
      </trkpt>
      <trkpt lat="44.94342" lon="6.59622">
        <ele>1715</ele>
        <time>2023-05-18T14:38:31+0200</time>
      </trkpt>
      <trkpt lat="44.94344" lon="6.59631">
        <ele>1715.4</ele>
        <time>2023-05-18T14:38:34+0200</time>
      </trkpt>
      <trkpt lat="44.94347" lon="6.59639">
        <ele>1715.8</ele>
        <time>2023-05-18T14:38:36+0200</time>
      </trkpt>
      <trkpt lat="44.94349" lon="6.59647">
        <ele>1715.6</ele>
        <time>2023-05-18T14:38:39+0200</time>
      </trkpt>
      <trkpt lat="44.94352" lon="6.59653">
        <ele>1715.9</ele>
        <time>2023-05-18T14:38:41+0200</time>
      </trkpt>
      <trkpt lat="44.94355" lon="6.59659">
        <ele>1716.2</ele>
        <time>2023-05-18T14:38:43+0200</time>
      </trkpt>
      <trkpt lat="44.9436" lon="6.59662">
        <ele>1717.4</ele>
        <time>2023-05-18T14:38:45+0200</time>
      </trkpt>
      <trkpt lat="44.94367" lon="6.59662">
        <ele>1718.8</ele>
        <time>2023-05-18T14:38:49+0200</time>
      </trkpt>
      <trkpt lat="44.9437" lon="6.59657">
        <ele>1720.3</ele>
        <time>2023-05-18T14:38:52+0200</time>
      </trkpt>
      <trkpt lat="44.94371" lon="6.59648">
        <ele>1721.4</ele>
        <time>2023-05-18T14:38:55+0200</time>
      </trkpt>
      <trkpt lat="44.94368" lon="6.59639">
        <ele>1721.7</ele>
        <time>2023-05-18T14:38:58+0200</time>
      </trkpt>
      <trkpt lat="44.94367" lon="6.59631">
        <ele>1721.9</ele>
        <time>2023-05-18T14:39:00+0200</time>
      </trkpt>
      <trkpt lat="44.94367" lon="6.59624">
        <ele>1722.1</ele>
        <time>2023-05-18T14:39:02+0200</time>
      </trkpt>
      <trkpt lat="44.94367" lon="6.59616">
        <ele>1722.2</ele>
        <time>2023-05-18T14:39:04+0200</time>
      </trkpt>
      <trkpt lat="44.94367" lon="6.59605">
        <ele>1722.4</ele>
        <time>2023-05-18T14:39:06+0200</time>
      </trkpt>
      <trkpt lat="44.94369" lon="6.59597">
        <ele>1723.1</ele>
        <time>2023-05-18T14:39:08+0200</time>
      </trkpt>
      <trkpt lat="44.94368" lon="6.59587">
        <ele>1722.9</ele>
        <time>2023-05-18T14:39:11+0200</time>
      </trkpt>
      <trkpt lat="44.94369" lon="6.5958">
        <ele>1723.3</ele>
        <time>2023-05-18T14:39:13+0200</time>
      </trkpt>
      <trkpt lat="44.94371" lon="6.59572">
        <ele>1723.5</ele>
        <time>2023-05-18T14:39:15+0200</time>
      </trkpt>
      <trkpt lat="44.94375" lon="6.59568">
        <ele>1724.3</ele>
        <time>2023-05-18T14:39:18+0200</time>
      </trkpt>
      <trkpt lat="44.94378" lon="6.59562">
        <ele>1725.2</ele>
        <time>2023-05-18T14:39:20+0200</time>
      </trkpt>
      <trkpt lat="44.94382" lon="6.59558">
        <ele>1726.1</ele>
        <time>2023-05-18T14:39:22+0200</time>
      </trkpt>
      <trkpt lat="44.94388" lon="6.59552">
        <ele>1727.6</ele>
        <time>2023-05-18T14:39:25+0200</time>
      </trkpt>
      <trkpt lat="44.94391" lon="6.59548">
        <ele>1728.7</ele>
        <time>2023-05-18T14:39:27+0200</time>
      </trkpt>
      <trkpt lat="44.94396" lon="6.59541">
        <ele>1730.1</ele>
        <time>2023-05-18T14:39:30+0200</time>
      </trkpt>
      <trkpt lat="44.944" lon="6.59536">
        <ele>1731.2</ele>
        <time>2023-05-18T14:39:32+0200</time>
      </trkpt>
      <trkpt lat="44.94403" lon="6.59531">
        <ele>1732.2</ele>
        <time>2023-05-18T14:39:34+0200</time>
      </trkpt>
      <trkpt lat="44.94408" lon="6.59524">
        <ele>1733.3</ele>
        <time>2023-05-18T14:39:36+0200</time>
      </trkpt>
      <trkpt lat="44.9441" lon="6.59518">
        <ele>1733.7</ele>
        <time>2023-05-18T14:39:38+0200</time>
      </trkpt>
      <trkpt lat="44.94414" lon="6.59514">
        <ele>1734.6</ele>
        <time>2023-05-18T14:39:40+0200</time>
      </trkpt>
      <trkpt lat="44.94415" lon="6.59507">
        <ele>1734.8</ele>
        <time>2023-05-18T14:39:42+0200</time>
      </trkpt>
      <trkpt lat="44.94418" lon="6.59502">
        <ele>1735.5</ele>
        <time>2023-05-18T14:39:44+0200</time>
      </trkpt>
      <trkpt lat="44.9442" lon="6.59492">
        <ele>1735.9</ele>
        <time>2023-05-18T14:39:47+0200</time>
      </trkpt>
      <trkpt lat="44.94422" lon="6.59483">
        <ele>1736.3</ele>
        <time>2023-05-18T14:39:50+0200</time>
      </trkpt>
      <trkpt lat="44.94423" lon="6.59475">
        <ele>1736.4</ele>
        <time>2023-05-18T14:39:53+0200</time>
      </trkpt>
      <trkpt lat="44.94423" lon="6.59466">
        <ele>1737.1</ele>
        <time>2023-05-18T14:39:56+0200</time>
      </trkpt>
      <trkpt lat="44.94424" lon="6.59458">
        <ele>1737.9</ele>
        <time>2023-05-18T14:39:59+0200</time>
      </trkpt>
      <trkpt lat="44.94424" lon="6.59451">
        <ele>1738.7</ele>
        <time>2023-05-18T14:40:01+0200</time>
      </trkpt>
      <trkpt lat="44.94425" lon="6.59444">
        <ele>1739.6</ele>
        <time>2023-05-18T14:40:03+0200</time>
      </trkpt>
      <trkpt lat="44.94425" lon="6.59434">
        <ele>1740.5</ele>
        <time>2023-05-18T14:40:06+0200</time>
      </trkpt>
      <trkpt lat="44.94425" lon="6.59425">
        <ele>1741.9</ele>
        <time>2023-05-18T14:40:09+0200</time>
      </trkpt>
      <trkpt lat="44.94425" lon="6.59417">
        <ele>1742.6</ele>
        <time>2023-05-18T14:40:11+0200</time>
      </trkpt>
      <trkpt lat="44.94426" lon="6.59408">
        <ele>1743.5</ele>
        <time>2023-05-18T14:40:14+0200</time>
      </trkpt>
      <trkpt lat="44.94426" lon="6.59398">
        <ele>1743.7</ele>
        <time>2023-05-18T14:40:17+0200</time>
      </trkpt>
      <trkpt lat="44.94428" lon="6.59388">
        <ele>1744.8</ele>
        <time>2023-05-18T14:40:20+0200</time>
      </trkpt>
      <trkpt lat="44.94427" lon="6.59382">
        <ele>1744.5</ele>
        <time>2023-05-18T14:40:22+0200</time>
      </trkpt>
      <trkpt lat="44.94427" lon="6.59375">
        <ele>1744.7</ele>
        <time>2023-05-18T14:40:24+0200</time>
      </trkpt>
      <trkpt lat="44.94428" lon="6.59368">
        <ele>1745.3</ele>
        <time>2023-05-18T14:40:26+0200</time>
      </trkpt>
      <trkpt lat="44.94428" lon="6.59361">
        <ele>1745.4</ele>
        <time>2023-05-18T14:40:28+0200</time>
      </trkpt>
      <trkpt lat="44.94429" lon="6.59351">
        <ele>1745.4</ele>
        <time>2023-05-18T14:40:31+0200</time>
      </trkpt>
      <trkpt lat="44.9443" lon="6.59341">
        <ele>1745.6</ele>
        <time>2023-05-18T14:40:34+0200</time>
      </trkpt>
      <trkpt lat="44.94432" lon="6.59335">
        <ele>1746.1</ele>
        <time>2023-05-18T14:40:36+0200</time>
      </trkpt>
      <trkpt lat="44.94434" lon="6.59329">
        <ele>1746.7</ele>
        <time>2023-05-18T14:40:38+0200</time>
      </trkpt>
      <trkpt lat="44.94437" lon="6.59323">
        <ele>1747.7</ele>
        <time>2023-05-18T14:40:41+0200</time>
      </trkpt>
      <trkpt lat="44.94441" lon="6.59315">
        <ele>1748.8</ele>
        <time>2023-05-18T14:40:44+0200</time>
      </trkpt>
      <trkpt lat="44.94444" lon="6.59309">
        <ele>1749.8</ele>
        <time>2023-05-18T14:40:46+0200</time>
      </trkpt>
      <trkpt lat="44.94447" lon="6.59304">
        <ele>1750.8</ele>
        <time>2023-05-18T14:40:48+0200</time>
      </trkpt>
      <trkpt lat="44.94452" lon="6.59297">
        <ele>1751.9</ele>
        <time>2023-05-18T14:40:51+0200</time>
      </trkpt>
      <trkpt lat="44.94455" lon="6.59291">
        <ele>1752.8</ele>
        <time>2023-05-18T14:40:54+0200</time>
      </trkpt>
      <trkpt lat="44.94458" lon="6.59286">
        <ele>1753.6</ele>
        <time>2023-05-18T14:40:56+0200</time>
      </trkpt>
      <trkpt lat="44.94462" lon="6.59281">
        <ele>1754.5</ele>
        <time>2023-05-18T14:40:58+0200</time>
      </trkpt>
      <trkpt lat="44.94465" lon="6.59276">
        <ele>1755.2</ele>
        <time>2023-05-18T14:41:00+0200</time>
      </trkpt>
      <trkpt lat="44.94468" lon="6.59271">
        <ele>1756</ele>
        <time>2023-05-18T14:41:02+0200</time>
      </trkpt>
      <trkpt lat="44.94473" lon="6.59264">
        <ele>1757.2</ele>
        <time>2023-05-18T14:41:05+0200</time>
      </trkpt>
      <trkpt lat="44.94478" lon="6.59257">
        <ele>1758.2</ele>
        <time>2023-05-18T14:41:08+0200</time>
      </trkpt>
      <trkpt lat="44.9448" lon="6.59251">
        <ele>1758.5</ele>
        <time>2023-05-18T14:41:10+0200</time>
      </trkpt>
      <trkpt lat="44.94484" lon="6.59245">
        <ele>1759.5</ele>
        <time>2023-05-18T14:41:13+0200</time>
      </trkpt>
      <trkpt lat="44.94486" lon="6.59238">
        <ele>1760</ele>
        <time>2023-05-18T14:41:16+0200</time>
      </trkpt>
      <trkpt lat="44.94488" lon="6.59231">
        <ele>1760</ele>
        <time>2023-05-18T14:41:18+0200</time>
      </trkpt>
      <trkpt lat="44.94488" lon="6.59225">
        <ele>1759.9</ele>
        <time>2023-05-18T14:41:20+0200</time>
      </trkpt>
      <trkpt lat="44.94489" lon="6.59218">
        <ele>1760.1</ele>
        <time>2023-05-18T14:41:22+0200</time>
      </trkpt>
      <trkpt lat="44.9449" lon="6.5921">
        <ele>1760.2</ele>
        <time>2023-05-18T14:41:25+0200</time>
      </trkpt>
      <trkpt lat="44.9449" lon="6.59201">
        <ele>1760</ele>
        <time>2023-05-18T14:41:28+0200</time>
      </trkpt>
      <trkpt lat="44.9449" lon="6.59191">
        <ele>1760</ele>
        <time>2023-05-18T14:41:31+0200</time>
      </trkpt>
      <trkpt lat="44.94492" lon="6.59182">
        <ele>1760.4</ele>
        <time>2023-05-18T14:41:34+0200</time>
      </trkpt>
      <trkpt lat="44.94493" lon="6.59175">
        <ele>1760.3</ele>
        <time>2023-05-18T14:41:37+0200</time>
      </trkpt>
      <trkpt lat="44.94495" lon="6.59168">
        <ele>1761</ele>
        <time>2023-05-18T14:41:39+0200</time>
      </trkpt>
      <trkpt lat="44.94498" lon="6.59161">
        <ele>1762</ele>
        <time>2023-05-18T14:41:42+0200</time>
      </trkpt>
      <trkpt lat="44.945" lon="6.59154">
        <ele>1763.1</ele>
        <time>2023-05-18T14:41:44+0200</time>
      </trkpt>
      <trkpt lat="44.94503" lon="6.59146">
        <ele>1764</ele>
        <time>2023-05-18T14:41:47+0200</time>
      </trkpt>
      <trkpt lat="44.94505" lon="6.5914">
        <ele>1764.6</ele>
        <time>2023-05-18T14:41:49+0200</time>
      </trkpt>
      <trkpt lat="44.94508" lon="6.59132">
        <ele>1764.8</ele>
        <time>2023-05-18T14:41:52+0200</time>
      </trkpt>
      <trkpt lat="44.94511" lon="6.59126">
        <ele>1765.1</ele>
        <time>2023-05-18T14:41:55+0200</time>
      </trkpt>
      <trkpt lat="44.94515" lon="6.59121">
        <ele>1765.6</ele>
        <time>2023-05-18T14:41:58+0200</time>
      </trkpt>
      <trkpt lat="44.9452" lon="6.59116">
        <ele>1766.1</ele>
        <time>2023-05-18T14:42:01+0200</time>
      </trkpt>
      <trkpt lat="44.94524" lon="6.59114">
        <ele>1766.8</ele>
        <time>2023-05-18T14:42:03+0200</time>
      </trkpt>
      <trkpt lat="44.9453" lon="6.59113">
        <ele>1767.3</ele>
        <time>2023-05-18T14:42:06+0200</time>
      </trkpt>
      <trkpt lat="44.94536" lon="6.59114">
        <ele>1767.4</ele>
        <time>2023-05-18T14:42:09+0200</time>
      </trkpt>
      <trkpt lat="44.94542" lon="6.59115">
        <ele>1767.8</ele>
        <time>2023-05-18T14:42:12+0200</time>
      </trkpt>
      <trkpt lat="44.94547" lon="6.59121">
        <ele>1768.9</ele>
        <time>2023-05-18T14:42:15+0200</time>
      </trkpt>
      <trkpt lat="44.94549" lon="6.59128">
        <ele>1770.3</ele>
        <time>2023-05-18T14:42:18+0200</time>
      </trkpt>
      <trkpt lat="44.94549" lon="6.59135">
        <ele>1771.8</ele>
        <time>2023-05-18T14:42:21+0200</time>
      </trkpt>
      <trkpt lat="44.94546" lon="6.59141">
        <ele>1772.5</ele>
        <time>2023-05-18T14:42:23+0200</time>
      </trkpt>
      <trkpt lat="44.94542" lon="6.59148">
        <ele>1772.9</ele>
        <time>2023-05-18T14:42:26+0200</time>
      </trkpt>
      <trkpt lat="44.94539" lon="6.59154">
        <ele>1772.9</ele>
        <time>2023-05-18T14:42:28+0200</time>
      </trkpt>
      <trkpt lat="44.94536" lon="6.59158">
        <ele>1772.9</ele>
        <time>2023-05-18T14:42:30+0200</time>
      </trkpt>
      <trkpt lat="44.94534" lon="6.59168">
        <ele>1773</ele>
        <time>2023-05-18T14:42:33+0200</time>
      </trkpt>
      <trkpt lat="44.94532" lon="6.59177">
        <ele>1772.9</ele>
        <time>2023-05-18T14:42:36+0200</time>
      </trkpt>
      <trkpt lat="44.94534" lon="6.59187">
        <ele>1773.5</ele>
        <time>2023-05-18T14:42:39+0200</time>
      </trkpt>
      <trkpt lat="44.94535" lon="6.59193">
        <ele>1773.8</ele>
        <time>2023-05-18T14:42:41+0200</time>
      </trkpt>
      <trkpt lat="44.94538" lon="6.59201">
        <ele>1774.7</ele>
        <time>2023-05-18T14:42:44+0200</time>
      </trkpt>
      <trkpt lat="44.94542" lon="6.59207">
        <ele>1775.7</ele>
        <time>2023-05-18T14:42:47+0200</time>
      </trkpt>
      <trkpt lat="44.94545" lon="6.59212">
        <ele>1776.7</ele>
        <time>2023-05-18T14:42:49+0200</time>
      </trkpt>
      <trkpt lat="44.94547" lon="6.59217">
        <ele>1777.5</ele>
        <time>2023-05-18T14:42:51+0200</time>
      </trkpt>
      <trkpt lat="44.9455" lon="6.59224">
        <ele>1778.6</ele>
        <time>2023-05-18T14:42:54+0200</time>
      </trkpt>
      <trkpt lat="44.94553" lon="6.5923">
        <ele>1779.7</ele>
        <time>2023-05-18T14:42:56+0200</time>
      </trkpt>
      <trkpt lat="44.94554" lon="6.59237">
        <ele>1780.6</ele>
        <time>2023-05-18T14:42:58+0200</time>
      </trkpt>
      <trkpt lat="44.94554" lon="6.59243">
        <ele>1781.1</ele>
        <time>2023-05-18T14:43:00+0200</time>
      </trkpt>
      <trkpt lat="44.94556" lon="6.5925">
        <ele>1782.1</ele>
        <time>2023-05-18T14:43:02+0200</time>
      </trkpt>
      <trkpt lat="44.94555" lon="6.59259">
        <ele>1783.2</ele>
        <time>2023-05-18T14:43:05+0200</time>
      </trkpt>
      <trkpt lat="44.94555" lon="6.59266">
        <ele>1784.2</ele>
        <time>2023-05-18T14:43:07+0200</time>
      </trkpt>
      <trkpt lat="44.94554" lon="6.59272">
        <ele>1784.5</ele>
        <time>2023-05-18T14:43:10+0200</time>
      </trkpt>
      <trkpt lat="44.94553" lon="6.59279">
        <ele>1785.1</ele>
        <time>2023-05-18T14:43:12+0200</time>
      </trkpt>
      <trkpt lat="44.94551" lon="6.59288">
        <ele>1785.6</ele>
        <time>2023-05-18T14:43:15+0200</time>
      </trkpt>
      <trkpt lat="44.9455" lon="6.59294">
        <ele>1785.8</ele>
        <time>2023-05-18T14:43:17+0200</time>
      </trkpt>
      <trkpt lat="44.94549" lon="6.59301">
        <ele>1786</ele>
        <time>2023-05-18T14:43:20+0200</time>
      </trkpt>
      <trkpt lat="44.94547" lon="6.59311">
        <ele>1786.3</ele>
        <time>2023-05-18T14:43:23+0200</time>
      </trkpt>
      <trkpt lat="44.94547" lon="6.59321">
        <ele>1786.6</ele>
        <time>2023-05-18T14:43:25+0200</time>
      </trkpt>
      <trkpt lat="44.94547" lon="6.59327">
        <ele>1786.8</ele>
        <time>2023-05-18T14:43:27+0200</time>
      </trkpt>
      <trkpt lat="44.94548" lon="6.59337">
        <ele>1787.5</ele>
        <time>2023-05-18T14:43:31+0200</time>
      </trkpt>
      <trkpt lat="44.94548" lon="6.59345">
        <ele>1787.9</ele>
        <time>2023-05-18T14:43:33+0200</time>
      </trkpt>
      <trkpt lat="44.94549" lon="6.59354">
        <ele>1788.6</ele>
        <time>2023-05-18T14:43:36+0200</time>
      </trkpt>
      <trkpt lat="44.94551" lon="6.5936">
        <ele>1789.4</ele>
        <time>2023-05-18T14:43:38+0200</time>
      </trkpt>
      <trkpt lat="44.94552" lon="6.59367">
        <ele>1789.6</ele>
        <time>2023-05-18T14:43:40+0200</time>
      </trkpt>
      <trkpt lat="44.94553" lon="6.59374">
        <ele>1790.2</ele>
        <time>2023-05-18T14:43:42+0200</time>
      </trkpt>
      <trkpt lat="44.94556" lon="6.59379">
        <ele>1791.1</ele>
        <time>2023-05-18T14:43:45+0200</time>
      </trkpt>
      <trkpt lat="44.94558" lon="6.59387">
        <ele>1791.8</ele>
        <time>2023-05-18T14:43:48+0200</time>
      </trkpt>
      <trkpt lat="44.94561" lon="6.59395">
        <ele>1793.1</ele>
        <time>2023-05-18T14:43:51+0200</time>
      </trkpt>
      <trkpt lat="44.94564" lon="6.59404">
        <ele>1794</ele>
        <time>2023-05-18T14:43:53+0200</time>
      </trkpt>
      <trkpt lat="44.94565" lon="6.59411">
        <ele>1794.3</ele>
        <time>2023-05-18T14:43:55+0200</time>
      </trkpt>
      <trkpt lat="44.94567" lon="6.59418">
        <ele>1794.9</ele>
        <time>2023-05-18T14:43:57+0200</time>
      </trkpt>
      <trkpt lat="44.94568" lon="6.59424">
        <ele>1795.3</ele>
        <time>2023-05-18T14:43:59+0200</time>
      </trkpt>
      <trkpt lat="44.94569" lon="6.59432">
        <ele>1795.7</ele>
        <time>2023-05-18T14:44:01+0200</time>
      </trkpt>
      <trkpt lat="44.94571" lon="6.59439">
        <ele>1796.1</ele>
        <time>2023-05-18T14:44:03+0200</time>
      </trkpt>
      <trkpt lat="44.94572" lon="6.59446">
        <ele>1796.6</ele>
        <time>2023-05-18T14:44:05+0200</time>
      </trkpt>
      <trkpt lat="44.94575" lon="6.59456">
        <ele>1797.9</ele>
        <time>2023-05-18T14:44:08+0200</time>
      </trkpt>
      <trkpt lat="44.94576" lon="6.59463">
        <ele>1798.4</ele>
        <time>2023-05-18T14:44:10+0200</time>
      </trkpt>
      <trkpt lat="44.94576" lon="6.59472">
        <ele>1798.8</ele>
        <time>2023-05-18T14:44:13+0200</time>
      </trkpt>
      <trkpt lat="44.94575" lon="6.59478">
        <ele>1798.7</ele>
        <time>2023-05-18T14:44:15+0200</time>
      </trkpt>
      <trkpt lat="44.94574" lon="6.59487">
        <ele>1798.5</ele>
        <time>2023-05-18T14:44:18+0200</time>
      </trkpt>
      <trkpt lat="44.94573" lon="6.59494">
        <ele>1797.9</ele>
        <time>2023-05-18T14:44:20+0200</time>
      </trkpt>
      <trkpt lat="44.94571" lon="6.59501">
        <ele>1797.2</ele>
        <time>2023-05-18T14:44:22+0200</time>
      </trkpt>
      <trkpt lat="44.94571" lon="6.59509">
        <ele>1797.4</ele>
        <time>2023-05-18T14:44:24+0200</time>
      </trkpt>
      <trkpt lat="44.94572" lon="6.59519">
        <ele>1798.4</ele>
        <time>2023-05-18T14:44:26+0200</time>
      </trkpt>
      <trkpt lat="44.94573" lon="6.59526">
        <ele>1799.1</ele>
        <time>2023-05-18T14:44:28+0200</time>
      </trkpt>
      <trkpt lat="44.94575" lon="6.59534">
        <ele>1800.1</ele>
        <time>2023-05-18T14:44:30+0200</time>
      </trkpt>
      <trkpt lat="44.94575" lon="6.59544">
        <ele>1800.6</ele>
        <time>2023-05-18T14:44:33+0200</time>
      </trkpt>
      <trkpt lat="44.94576" lon="6.5955">
        <ele>1801.1</ele>
        <time>2023-05-18T14:44:35+0200</time>
      </trkpt>
      <trkpt lat="44.94578" lon="6.59557">
        <ele>1802.3</ele>
        <time>2023-05-18T14:44:37+0200</time>
      </trkpt>
      <trkpt lat="44.9458" lon="6.59564">
        <ele>1803.5</ele>
        <time>2023-05-18T14:44:39+0200</time>
      </trkpt>
      <trkpt lat="44.94583" lon="6.59571">
        <ele>1805.1</ele>
        <time>2023-05-18T14:44:41+0200</time>
      </trkpt>
      <trkpt lat="44.94583" lon="6.59577">
        <ele>1805.5</ele>
        <time>2023-05-18T14:44:43+0200</time>
      </trkpt>
      <trkpt lat="44.94584" lon="6.59586">
        <ele>1806.6</ele>
        <time>2023-05-18T14:44:46+0200</time>
      </trkpt>
      <trkpt lat="44.94585" lon="6.59596">
        <ele>1807.6</ele>
        <time>2023-05-18T14:44:49+0200</time>
      </trkpt>
      <trkpt lat="44.94586" lon="6.59604">
        <ele>1808.1</ele>
        <time>2023-05-18T14:44:51+0200</time>
      </trkpt>
      <trkpt lat="44.94586" lon="6.59612">
        <ele>1808.9</ele>
        <time>2023-05-18T14:44:54+0200</time>
      </trkpt>
      <trkpt lat="44.94587" lon="6.5962">
        <ele>1809.5</ele>
        <time>2023-05-18T14:44:56+0200</time>
      </trkpt>
      <trkpt lat="44.94587" lon="6.59626">
        <ele>1810.1</ele>
        <time>2023-05-18T14:44:58+0200</time>
      </trkpt>
      <trkpt lat="44.94588" lon="6.59635">
        <ele>1811.1</ele>
        <time>2023-05-18T14:45:01+0200</time>
      </trkpt>
      <trkpt lat="44.94588" lon="6.59644">
        <ele>1811.6</ele>
        <time>2023-05-18T14:45:04+0200</time>
      </trkpt>
      <trkpt lat="44.94587" lon="6.59654">
        <ele>1811.6</ele>
        <time>2023-05-18T14:45:07+0200</time>
      </trkpt>
      <trkpt lat="44.94589" lon="6.59661">
        <ele>1813.1</ele>
        <time>2023-05-18T14:45:09+0200</time>
      </trkpt>
      <trkpt lat="44.94588" lon="6.59668">
        <ele>1812.9</ele>
        <time>2023-05-18T14:45:11+0200</time>
      </trkpt>
      <trkpt lat="44.94588" lon="6.59677">
        <ele>1812.7</ele>
        <time>2023-05-18T14:45:14+0200</time>
      </trkpt>
      <trkpt lat="44.94588" lon="6.59684">
        <ele>1812.7</ele>
        <time>2023-05-18T14:45:16+0200</time>
      </trkpt>
      <trkpt lat="44.94587" lon="6.59693">
        <ele>1812.3</ele>
        <time>2023-05-18T14:45:19+0200</time>
      </trkpt>
      <trkpt lat="44.94587" lon="6.597">
        <ele>1812.1</ele>
        <time>2023-05-18T14:45:21+0200</time>
      </trkpt>
      <trkpt lat="44.94589" lon="6.59707">
        <ele>1812.6</ele>
        <time>2023-05-18T14:45:23+0200</time>
      </trkpt>
      <trkpt lat="44.94589" lon="6.59716">
        <ele>1812.6</ele>
        <time>2023-05-18T14:45:25+0200</time>
      </trkpt>
      <trkpt lat="44.94591" lon="6.59723">
        <ele>1812.8</ele>
        <time>2023-05-18T14:45:27+0200</time>
      </trkpt>
      <trkpt lat="44.94593" lon="6.59729">
        <ele>1813.1</ele>
        <time>2023-05-18T14:45:28+0200</time>
      </trkpt>
      <trkpt lat="44.94595" lon="6.59734">
        <ele>1813.5</ele>
        <time>2023-05-18T14:45:30+0200</time>
      </trkpt>
      <trkpt lat="44.94599" lon="6.59742">
        <ele>1814.2</ele>
        <time>2023-05-18T14:45:33+0200</time>
      </trkpt>
      <trkpt lat="44.94602" lon="6.5975">
        <ele>1814.9</ele>
        <time>2023-05-18T14:45:37+0200</time>
      </trkpt>
      <trkpt lat="44.94604" lon="6.59755">
        <ele>1814.9</ele>
        <time>2023-05-18T14:45:39+0200</time>
      </trkpt>
      <trkpt lat="44.94608" lon="6.59762">
        <ele>1815.3</ele>
        <time>2023-05-18T14:45:42+0200</time>
      </trkpt>
      <trkpt lat="44.94611" lon="6.59766">
        <ele>1815.9</ele>
        <time>2023-05-18T14:45:44+0200</time>
      </trkpt>
      <trkpt lat="44.94614" lon="6.59773">
        <ele>1815.9</ele>
        <time>2023-05-18T14:45:46+0200</time>
      </trkpt>
      <trkpt lat="44.94619" lon="6.59779">
        <ele>1816.5</ele>
        <time>2023-05-18T14:45:49+0200</time>
      </trkpt>
      <trkpt lat="44.94622" lon="6.59784">
        <ele>1816.7</ele>
        <time>2023-05-18T14:45:51+0200</time>
      </trkpt>
      <trkpt lat="44.94626" lon="6.5979">
        <ele>1816.9</ele>
        <time>2023-05-18T14:45:54+0200</time>
      </trkpt>
      <trkpt lat="44.94631" lon="6.59795">
        <ele>1817.4</ele>
        <time>2023-05-18T14:45:57+0200</time>
      </trkpt>
      <trkpt lat="44.94635" lon="6.59801">
        <ele>1817.6</ele>
        <time>2023-05-18T14:46:00+0200</time>
      </trkpt>
      <trkpt lat="44.94641" lon="6.59807">
        <ele>1818.4</ele>
        <time>2023-05-18T14:46:03+0200</time>
      </trkpt>
      <trkpt lat="44.94646" lon="6.59812">
        <ele>1819.5</ele>
        <time>2023-05-18T14:46:06+0200</time>
      </trkpt>
      <trkpt lat="44.94651" lon="6.59814">
        <ele>1820.8</ele>
        <time>2023-05-18T14:46:08+0200</time>
      </trkpt>
      <trkpt lat="44.94656" lon="6.59813">
        <ele>1822.5</ele>
        <time>2023-05-18T14:46:10+0200</time>
      </trkpt>
      <trkpt lat="44.94662" lon="6.59811">
        <ele>1824.8</ele>
        <time>2023-05-18T14:46:13+0200</time>
      </trkpt>
      <trkpt lat="44.94664" lon="6.59806">
        <ele>1826.2</ele>
        <time>2023-05-18T14:46:16+0200</time>
      </trkpt>
      <trkpt lat="44.94666" lon="6.59798">
        <ele>1828.2</ele>
        <time>2023-05-18T14:46:18+0200</time>
      </trkpt>
      <trkpt lat="44.94664" lon="6.59791">
        <ele>1828.7</ele>
        <time>2023-05-18T14:46:20+0200</time>
      </trkpt>
      <trkpt lat="44.9466" lon="6.59786">
        <ele>1828.5</ele>
        <time>2023-05-18T14:46:22+0200</time>
      </trkpt>
      <trkpt lat="44.94656" lon="6.5978">
        <ele>1828.4</ele>
        <time>2023-05-18T14:46:24+0200</time>
      </trkpt>
      <trkpt lat="44.94652" lon="6.59776">
        <ele>1828.2</ele>
        <time>2023-05-18T14:46:26+0200</time>
      </trkpt>
      <trkpt lat="44.94648" lon="6.59771">
        <ele>1828.4</ele>
        <time>2023-05-18T14:46:28+0200</time>
      </trkpt>
      <trkpt lat="44.94644" lon="6.59765">
        <ele>1828.7</ele>
        <time>2023-05-18T14:46:31+0200</time>
      </trkpt>
      <trkpt lat="44.9464" lon="6.5976">
        <ele>1828.8</ele>
        <time>2023-05-18T14:46:33+0200</time>
      </trkpt>
      <trkpt lat="44.94635" lon="6.59755">
        <ele>1827.9</ele>
        <time>2023-05-18T14:46:36+0200</time>
      </trkpt>
      <trkpt lat="44.94632" lon="6.5975">
        <ele>1827.9</ele>
        <time>2023-05-18T14:46:38+0200</time>
      </trkpt>
      <trkpt lat="44.94628" lon="6.59746">
        <ele>1827.4</ele>
        <time>2023-05-18T14:46:40+0200</time>
      </trkpt>
      <trkpt lat="44.94626" lon="6.59738">
        <ele>1827.8</ele>
        <time>2023-05-18T14:46:43+0200</time>
      </trkpt>
      <trkpt lat="44.94623" lon="6.59732">
        <ele>1827.8</ele>
        <time>2023-05-18T14:46:45+0200</time>
      </trkpt>
      <trkpt lat="44.94622" lon="6.59726">
        <ele>1828.6</ele>
        <time>2023-05-18T14:46:47+0200</time>
      </trkpt>
      <trkpt lat="44.94622" lon="6.59716">
        <ele>1829.9</ele>
        <time>2023-05-18T14:46:50+0200</time>
      </trkpt>
      <trkpt lat="44.94625" lon="6.5971">
        <ele>1831.6</ele>
        <time>2023-05-18T14:46:52+0200</time>
      </trkpt>
      <trkpt lat="44.94626" lon="6.59703">
        <ele>1833.1</ele>
        <time>2023-05-18T14:46:54+0200</time>
      </trkpt>
      <trkpt lat="44.94629" lon="6.59697">
        <ele>1835.1</ele>
        <time>2023-05-18T14:46:57+0200</time>
      </trkpt>
      <trkpt lat="44.94632" lon="6.59689">
        <ele>1836.6</ele>
        <time>2023-05-18T14:47:00+0200</time>
      </trkpt>
      <trkpt lat="44.94634" lon="6.59683">
        <ele>1837.7</ele>
        <time>2023-05-18T14:47:03+0200</time>
      </trkpt>
      <trkpt lat="44.94636" lon="6.59676">
        <ele>1838.8</ele>
        <time>2023-05-18T14:47:06+0200</time>
      </trkpt>
      <trkpt lat="44.94641" lon="6.5967">
        <ele>1840.7</ele>
        <time>2023-05-18T14:47:09+0200</time>
      </trkpt>
      <trkpt lat="44.94644" lon="6.59662">
        <ele>1841.4</ele>
        <time>2023-05-18T14:47:12+0200</time>
      </trkpt>
      <trkpt lat="44.94647" lon="6.59656">
        <ele>1842.1</ele>
        <time>2023-05-18T14:47:15+0200</time>
      </trkpt>
      <trkpt lat="44.94649" lon="6.59651">
        <ele>1842.8</ele>
        <time>2023-05-18T14:47:17+0200</time>
      </trkpt>
      <trkpt lat="44.94652" lon="6.59643">
        <ele>1843.6</ele>
        <time>2023-05-18T14:47:20+0200</time>
      </trkpt>
      <trkpt lat="44.94655" lon="6.59637">
        <ele>1844.2</ele>
        <time>2023-05-18T14:47:23+0200</time>
      </trkpt>
      <trkpt lat="44.94658" lon="6.5963">
        <ele>1844.7</ele>
        <time>2023-05-18T14:47:27+0200</time>
      </trkpt>
      <trkpt lat="44.94661" lon="6.59623">
        <ele>1845.1</ele>
        <time>2023-05-18T14:47:30+0200</time>
      </trkpt>
      <trkpt lat="44.94664" lon="6.59616">
        <ele>1845.7</ele>
        <time>2023-05-18T14:47:33+0200</time>
      </trkpt>
      <trkpt lat="44.9467" lon="6.59617">
        <ele>1847.6</ele>
        <time>2023-05-18T14:48:27+0200</time>
      </trkpt>
      <trkpt lat="44.94666" lon="6.5962">
        <ele>1846.5</ele>
        <time>2023-05-18T14:49:20+0200</time>
      </trkpt>
      <trkpt lat="44.94666" lon="6.59612">
        <ele>1845.9</ele>
        <time>2023-05-18T14:50:20+0200</time>
      </trkpt>
      <trkpt lat="44.94665" lon="6.59605">
        <ele>1845.3</ele>
        <time>2023-05-18T14:50:36+0200</time>
      </trkpt>
      <trkpt lat="44.9467" lon="6.596">
        <ele>1846.6</ele>
        <time>2023-05-18T14:50:39+0200</time>
      </trkpt>
      <trkpt lat="44.94672" lon="6.59595">
        <ele>1847.2</ele>
        <time>2023-05-18T14:50:41+0200</time>
      </trkpt>
      <trkpt lat="44.94674" lon="6.59588">
        <ele>1847.8</ele>
        <time>2023-05-18T14:50:43+0200</time>
      </trkpt>
      <trkpt lat="44.94676" lon="6.59579">
        <ele>1848.1</ele>
        <time>2023-05-18T14:50:46+0200</time>
      </trkpt>
      <trkpt lat="44.94677" lon="6.59572">
        <ele>1848.3</ele>
        <time>2023-05-18T14:50:48+0200</time>
      </trkpt>
      <trkpt lat="44.94677" lon="6.59565">
        <ele>1848.4</ele>
        <time>2023-05-18T14:50:50+0200</time>
      </trkpt>
      <trkpt lat="44.94677" lon="6.59557">
        <ele>1848.3</ele>
        <time>2023-05-18T14:50:52+0200</time>
      </trkpt>
      <trkpt lat="44.94677" lon="6.59548">
        <ele>1847.9</ele>
        <time>2023-05-18T14:50:55+0200</time>
      </trkpt>
      <trkpt lat="44.94676" lon="6.59541">
        <ele>1847.9</ele>
        <time>2023-05-18T14:50:57+0200</time>
      </trkpt>
      <trkpt lat="44.94678" lon="6.59532">
        <ele>1848.4</ele>
        <time>2023-05-18T14:51:00+0200</time>
      </trkpt>
      <trkpt lat="44.9468" lon="6.59523">
        <ele>1849.3</ele>
        <time>2023-05-18T14:51:03+0200</time>
      </trkpt>
      <trkpt lat="44.94683" lon="6.59516">
        <ele>1850.2</ele>
        <time>2023-05-18T14:51:05+0200</time>
      </trkpt>
      <trkpt lat="44.94686" lon="6.59508">
        <ele>1851.2</ele>
        <time>2023-05-18T14:51:08+0200</time>
      </trkpt>
      <trkpt lat="44.94689" lon="6.59502">
        <ele>1852.1</ele>
        <time>2023-05-18T14:51:10+0200</time>
      </trkpt>
      <trkpt lat="44.94692" lon="6.59495">
        <ele>1852.6</ele>
        <time>2023-05-18T14:51:13+0200</time>
      </trkpt>
      <trkpt lat="44.94696" lon="6.59487">
        <ele>1853.2</ele>
        <time>2023-05-18T14:51:16+0200</time>
      </trkpt>
      <trkpt lat="44.947" lon="6.5948">
        <ele>1853.6</ele>
        <time>2023-05-18T14:51:18+0200</time>
      </trkpt>
      <trkpt lat="44.94705" lon="6.59476">
        <ele>1854.8</ele>
        <time>2023-05-18T14:51:19+0200</time>
      </trkpt>
      <trkpt lat="44.9471" lon="6.5947">
        <ele>1855.8</ele>
        <time>2023-05-18T14:51:22+0200</time>
      </trkpt>
      <trkpt lat="44.94713" lon="6.59466">
        <ele>1856.2</ele>
        <time>2023-05-18T14:51:24+0200</time>
      </trkpt>
      <trkpt lat="44.94717" lon="6.59461">
        <ele>1857.1</ele>
        <time>2023-05-18T14:51:26+0200</time>
      </trkpt>
      <trkpt lat="44.94721" lon="6.59454">
        <ele>1857.7</ele>
        <time>2023-05-18T14:51:29+0200</time>
      </trkpt>
      <trkpt lat="44.94726" lon="6.59449">
        <ele>1858.9</ele>
        <time>2023-05-18T14:51:31+0200</time>
      </trkpt>
      <trkpt lat="44.9473" lon="6.59444">
        <ele>1859.7</ele>
        <time>2023-05-18T14:51:33+0200</time>
      </trkpt>
      <trkpt lat="44.94734" lon="6.59438">
        <ele>1860.4</ele>
        <time>2023-05-18T14:51:35+0200</time>
      </trkpt>
      <trkpt lat="44.94738" lon="6.59433">
        <ele>1861.2</ele>
        <time>2023-05-18T14:51:37+0200</time>
      </trkpt>
      <trkpt lat="44.94741" lon="6.59428">
        <ele>1861.9</ele>
        <time>2023-05-18T14:51:39+0200</time>
      </trkpt>
      <trkpt lat="44.94746" lon="6.59421">
        <ele>1862.9</ele>
        <time>2023-05-18T14:51:42+0200</time>
      </trkpt>
      <trkpt lat="44.94751" lon="6.59414">
        <ele>1863.8</ele>
        <time>2023-05-18T14:51:45+0200</time>
      </trkpt>
      <trkpt lat="44.94755" lon="6.5941">
        <ele>1864.7</ele>
        <time>2023-05-18T14:51:47+0200</time>
      </trkpt>
      <trkpt lat="44.9476" lon="6.59403">
        <ele>1865.3</ele>
        <time>2023-05-18T14:51:50+0200</time>
      </trkpt>
      <trkpt lat="44.94765" lon="6.59397">
        <ele>1866.3</ele>
        <time>2023-05-18T14:51:54+0200</time>
      </trkpt>
      <trkpt lat="44.94768" lon="6.59393">
        <ele>1867</ele>
        <time>2023-05-18T14:51:56+0200</time>
      </trkpt>
      <trkpt lat="44.94772" lon="6.59389">
        <ele>1867.8</ele>
        <time>2023-05-18T14:51:58+0200</time>
      </trkpt>
      <trkpt lat="44.94775" lon="6.59385">
        <ele>1868.2</ele>
        <time>2023-05-18T14:52:00+0200</time>
      </trkpt>
      <trkpt lat="44.9478" lon="6.59379">
        <ele>1869</ele>
        <time>2023-05-18T14:52:03+0200</time>
      </trkpt>
      <trkpt lat="44.94784" lon="6.59374">
        <ele>1869.7</ele>
        <time>2023-05-18T14:52:05+0200</time>
      </trkpt>
      <trkpt lat="44.94789" lon="6.5937">
        <ele>1870.3</ele>
        <time>2023-05-18T14:52:08+0200</time>
      </trkpt>
      <trkpt lat="44.94794" lon="6.59365">
        <ele>1871.1</ele>
        <time>2023-05-18T14:52:11+0200</time>
      </trkpt>
      <trkpt lat="44.94798" lon="6.59361">
        <ele>1871.7</ele>
        <time>2023-05-18T14:52:13+0200</time>
      </trkpt>
      <trkpt lat="44.94802" lon="6.59357">
        <ele>1872.2</ele>
        <time>2023-05-18T14:52:15+0200</time>
      </trkpt>
      <trkpt lat="44.94806" lon="6.59353">
        <ele>1872.8</ele>
        <time>2023-05-18T14:52:17+0200</time>
      </trkpt>
      <trkpt lat="44.94812" lon="6.59351">
        <ele>1874.3</ele>
        <time>2023-05-18T14:52:20+0200</time>
      </trkpt>
      <trkpt lat="44.94817" lon="6.59347">
        <ele>1875.2</ele>
        <time>2023-05-18T14:52:23+0200</time>
      </trkpt>
      <trkpt lat="44.94821" lon="6.59345">
        <ele>1876.1</ele>
        <time>2023-05-18T14:52:25+0200</time>
      </trkpt>
      <trkpt lat="44.94826" lon="6.59344">
        <ele>1877.6</ele>
        <time>2023-05-18T14:52:28+0200</time>
      </trkpt>
      <trkpt lat="44.94831" lon="6.59338">
        <ele>1877.7</ele>
        <time>2023-05-18T14:52:31+0200</time>
      </trkpt>
      <trkpt lat="44.94834" lon="6.59334">
        <ele>1877.6</ele>
        <time>2023-05-18T14:52:33+0200</time>
      </trkpt>
      <trkpt lat="44.94838" lon="6.59331">
        <ele>1878.5</ele>
        <time>2023-05-18T14:52:35+0200</time>
      </trkpt>
      <trkpt lat="44.94842" lon="6.59327">
        <ele>1879.4</ele>
        <time>2023-05-18T14:52:37+0200</time>
      </trkpt>
      <trkpt lat="44.94846" lon="6.59322">
        <ele>1879.8</ele>
        <time>2023-05-18T14:52:39+0200</time>
      </trkpt>
      <trkpt lat="44.94851" lon="6.59318">
        <ele>1880.7</ele>
        <time>2023-05-18T14:52:42+0200</time>
      </trkpt>
      <trkpt lat="44.94855" lon="6.59313">
        <ele>1880.7</ele>
        <time>2023-05-18T14:52:44+0200</time>
      </trkpt>
      <trkpt lat="44.94859" lon="6.59309">
        <ele>1881</ele>
        <time>2023-05-18T14:52:46+0200</time>
      </trkpt>
      <trkpt lat="44.94864" lon="6.59303">
        <ele>1881.7</ele>
        <time>2023-05-18T14:52:49+0200</time>
      </trkpt>
      <trkpt lat="44.94868" lon="6.59297">
        <ele>1882.4</ele>
        <time>2023-05-18T14:52:52+0200</time>
      </trkpt>
      <trkpt lat="44.94871" lon="6.59291">
        <ele>1882.5</ele>
        <time>2023-05-18T14:52:54+0200</time>
      </trkpt>
      <trkpt lat="44.94875" lon="6.59286">
        <ele>1882.8</ele>
        <time>2023-05-18T14:52:56+0200</time>
      </trkpt>
      <trkpt lat="44.94878" lon="6.59281">
        <ele>1883.2</ele>
        <time>2023-05-18T14:52:58+0200</time>
      </trkpt>
      <trkpt lat="44.94882" lon="6.59275">
        <ele>1883.3</ele>
        <time>2023-05-18T14:53:01+0200</time>
      </trkpt>
      <trkpt lat="44.94885" lon="6.59271">
        <ele>1883.7</ele>
        <time>2023-05-18T14:53:03+0200</time>
      </trkpt>
      <trkpt lat="44.94888" lon="6.59266">
        <ele>1883.9</ele>
        <time>2023-05-18T14:53:05+0200</time>
      </trkpt>
      <trkpt lat="44.94892" lon="6.59263">
        <ele>1884.5</ele>
        <time>2023-05-18T14:53:07+0200</time>
      </trkpt>
      <trkpt lat="44.94896" lon="6.59256">
        <ele>1884</ele>
        <time>2023-05-18T14:53:10+0200</time>
      </trkpt>
      <trkpt lat="44.949" lon="6.59252">
        <ele>1884.6</ele>
        <time>2023-05-18T14:53:12+0200</time>
      </trkpt>
      <trkpt lat="44.94905" lon="6.59248">
        <ele>1885.3</ele>
        <time>2023-05-18T14:53:15+0200</time>
      </trkpt>
      <trkpt lat="44.94909" lon="6.59245">
        <ele>1886.1</ele>
        <time>2023-05-18T14:53:17+0200</time>
      </trkpt>
      <trkpt lat="44.94916" lon="6.59243">
        <ele>1887.7</ele>
        <time>2023-05-18T14:53:20+0200</time>
      </trkpt>
      <trkpt lat="44.94921" lon="6.59242">
        <ele>1889.3</ele>
        <time>2023-05-18T14:53:23+0200</time>
      </trkpt>
      <trkpt lat="44.94926" lon="6.5924">
        <ele>1890.3</ele>
        <time>2023-05-18T14:53:25+0200</time>
      </trkpt>
      <trkpt lat="44.94932" lon="6.59238">
        <ele>1891.8</ele>
        <time>2023-05-18T14:53:29+0200</time>
      </trkpt>
      <trkpt lat="44.94937" lon="6.59236">
        <ele>1892.9</ele>
        <time>2023-05-18T14:53:31+0200</time>
      </trkpt>
      <trkpt lat="44.94943" lon="6.59234">
        <ele>1894.3</ele>
        <time>2023-05-18T14:53:34+0200</time>
      </trkpt>
      <trkpt lat="44.94948" lon="6.59231">
        <ele>1895.1</ele>
        <time>2023-05-18T14:53:36+0200</time>
      </trkpt>
      <trkpt lat="44.94952" lon="6.59228">
        <ele>1896.1</ele>
        <time>2023-05-18T14:53:38+0200</time>
      </trkpt>
      <trkpt lat="44.94957" lon="6.59227">
        <ele>1897.4</ele>
        <time>2023-05-18T14:53:40+0200</time>
      </trkpt>
      <trkpt lat="44.94962" lon="6.59222">
        <ele>1897.9</ele>
        <time>2023-05-18T14:53:43+0200</time>
      </trkpt>
      <trkpt lat="44.94967" lon="6.59219">
        <ele>1899</ele>
        <time>2023-05-18T14:53:46+0200</time>
      </trkpt>
      <trkpt lat="44.94971" lon="6.59211">
        <ele>1898.2</ele>
        <time>2023-05-18T14:53:48+0200</time>
      </trkpt>
      <trkpt lat="44.94976" lon="6.59206">
        <ele>1898</ele>
        <time>2023-05-18T14:53:50+0200</time>
      </trkpt>
      <trkpt lat="44.94981" lon="6.59204">
        <ele>1899.9</ele>
        <time>2023-05-18T14:53:52+0200</time>
      </trkpt>
      <trkpt lat="44.94984" lon="6.59198">
        <ele>1898.9</ele>
        <time>2023-05-18T14:53:54+0200</time>
      </trkpt>
      <trkpt lat="44.94988" lon="6.59193">
        <ele>1899.3</ele>
        <time>2023-05-18T14:53:57+0200</time>
      </trkpt>
      <trkpt lat="44.94993" lon="6.59188">
        <ele>1900.2</ele>
        <time>2023-05-18T14:54:00+0200</time>
      </trkpt>
      <trkpt lat="44.94996" lon="6.59184">
        <ele>1900.6</ele>
        <time>2023-05-18T14:54:02+0200</time>
      </trkpt>
      <trkpt lat="44.95" lon="6.59179">
        <ele>1901</ele>
        <time>2023-05-18T14:54:04+0200</time>
      </trkpt>
      <trkpt lat="44.95005" lon="6.59174">
        <ele>1902</ele>
        <time>2023-05-18T14:54:07+0200</time>
      </trkpt>
      <trkpt lat="44.95009" lon="6.59168">
        <ele>1902.5</ele>
        <time>2023-05-18T14:54:10+0200</time>
      </trkpt>
      <trkpt lat="44.95014" lon="6.59165">
        <ele>1904.2</ele>
        <time>2023-05-18T14:54:13+0200</time>
      </trkpt>
      <trkpt lat="44.95017" lon="6.5916">
        <ele>1904.5</ele>
        <time>2023-05-18T14:54:15+0200</time>
      </trkpt>
      <trkpt lat="44.9502" lon="6.59155">
        <ele>1904.5</ele>
        <time>2023-05-18T14:54:17+0200</time>
      </trkpt>
      <trkpt lat="44.95024" lon="6.59146">
        <ele>1904.2</ele>
        <time>2023-05-18T14:54:20+0200</time>
      </trkpt>
      <trkpt lat="44.95029" lon="6.59141">
        <ele>1905</ele>
        <time>2023-05-18T14:54:23+0200</time>
      </trkpt>
      <trkpt lat="44.95032" lon="6.59135">
        <ele>1904.9</ele>
        <time>2023-05-18T14:54:26+0200</time>
      </trkpt>
      <trkpt lat="44.95037" lon="6.5913">
        <ele>1905.5</ele>
        <time>2023-05-18T14:54:29+0200</time>
      </trkpt>
      <trkpt lat="44.9504" lon="6.59124">
        <ele>1905.5</ele>
        <time>2023-05-18T14:54:32+0200</time>
      </trkpt>
      <trkpt lat="44.95044" lon="6.59118">
        <ele>1905.8</ele>
        <time>2023-05-18T14:54:35+0200</time>
      </trkpt>
      <trkpt lat="44.95048" lon="6.59113">
        <ele>1906.1</ele>
        <time>2023-05-18T14:54:38+0200</time>
      </trkpt>
      <trkpt lat="44.9505" lon="6.59107">
        <ele>1905.5</ele>
        <time>2023-05-18T14:54:40+0200</time>
      </trkpt>
      <trkpt lat="44.95055" lon="6.59104">
        <ele>1906.7</ele>
        <time>2023-05-18T14:54:43+0200</time>
      </trkpt>
      <trkpt lat="44.95059" lon="6.591">
        <ele>1907.1</ele>
        <time>2023-05-18T14:54:45+0200</time>
      </trkpt>
      <trkpt lat="44.95065" lon="6.59097">
        <ele>1908.2</ele>
        <time>2023-05-18T14:54:48+0200</time>
      </trkpt>
      <trkpt lat="44.9507" lon="6.5909">
        <ele>1908.2</ele>
        <time>2023-05-18T14:54:51+0200</time>
      </trkpt>
      <trkpt lat="44.95075" lon="6.59087">
        <ele>1908.9</ele>
        <time>2023-05-18T14:54:54+0200</time>
      </trkpt>
      <trkpt lat="44.9508" lon="6.59082">
        <ele>1909.3</ele>
        <time>2023-05-18T14:54:57+0200</time>
      </trkpt>
      <trkpt lat="44.95082" lon="6.59075">
        <ele>1908.8</ele>
        <time>2023-05-18T14:54:59+0200</time>
      </trkpt>
      <trkpt lat="44.95085" lon="6.59069">
        <ele>1908.4</ele>
        <time>2023-05-18T14:55:01+0200</time>
      </trkpt>
      <trkpt lat="44.95088" lon="6.5906">
        <ele>1907.4</ele>
        <time>2023-05-18T14:55:04+0200</time>
      </trkpt>
      <trkpt lat="44.95092" lon="6.59056">
        <ele>1907.5</ele>
        <time>2023-05-18T14:55:06+0200</time>
      </trkpt>
      <trkpt lat="44.95096" lon="6.59052">
        <ele>1908.1</ele>
        <time>2023-05-18T14:55:08+0200</time>
      </trkpt>
      <trkpt lat="44.951" lon="6.59052">
        <ele>1909.4</ele>
        <time>2023-05-18T14:55:10+0200</time>
      </trkpt>
      <trkpt lat="44.95105" lon="6.59054">
        <ele>1911.2</ele>
        <time>2023-05-18T14:55:13+0200</time>
      </trkpt>
      <trkpt lat="44.95111" lon="6.59056">
        <ele>1913</ele>
        <time>2023-05-18T14:55:16+0200</time>
      </trkpt>
      <trkpt lat="44.95116" lon="6.59056">
        <ele>1914.2</ele>
        <time>2023-05-18T14:55:18+0200</time>
      </trkpt>
      <trkpt lat="44.95121" lon="6.59056">
        <ele>1915.2</ele>
        <time>2023-05-18T14:55:20+0200</time>
      </trkpt>
      <trkpt lat="44.95126" lon="6.59053">
        <ele>1916</ele>
        <time>2023-05-18T14:55:22+0200</time>
      </trkpt>
      <trkpt lat="44.95131" lon="6.59052">
        <ele>1916.8</ele>
        <time>2023-05-18T14:55:24+0200</time>
      </trkpt>
      <trkpt lat="44.95136" lon="6.59048">
        <ele>1917.4</ele>
        <time>2023-05-18T14:55:26+0200</time>
      </trkpt>
      <trkpt lat="44.9514" lon="6.59043">
        <ele>1917.8</ele>
        <time>2023-05-18T14:55:28+0200</time>
      </trkpt>
      <trkpt lat="44.95145" lon="6.59039">
        <ele>1918.1</ele>
        <time>2023-05-18T14:55:30+0200</time>
      </trkpt>
      <trkpt lat="44.9515" lon="6.59037">
        <ele>1918.4</ele>
        <time>2023-05-18T14:55:32+0200</time>
      </trkpt>
      <trkpt lat="44.95155" lon="6.59034">
        <ele>1918.7</ele>
        <time>2023-05-18T14:55:34+0200</time>
      </trkpt>
      <trkpt lat="44.9516" lon="6.59033">
        <ele>1919</ele>
        <time>2023-05-18T14:55:36+0200</time>
      </trkpt>
      <trkpt lat="44.95165" lon="6.59033">
        <ele>1919.6</ele>
        <time>2023-05-18T14:55:38+0200</time>
      </trkpt>
      <trkpt lat="44.95171" lon="6.59034">
        <ele>1920.5</ele>
        <time>2023-05-18T14:55:41+0200</time>
      </trkpt>
      <trkpt lat="44.95178" lon="6.59034">
        <ele>1921</ele>
        <time>2023-05-18T14:55:43+0200</time>
      </trkpt>
      <trkpt lat="44.95183" lon="6.59034">
        <ele>1921.5</ele>
        <time>2023-05-18T14:55:46+0200</time>
      </trkpt>
      <trkpt lat="44.95188" lon="6.59034">
        <ele>1921.7</ele>
        <time>2023-05-18T14:55:48+0200</time>
      </trkpt>
      <trkpt lat="44.95193" lon="6.59035">
        <ele>1922.4</ele>
        <time>2023-05-18T14:55:50+0200</time>
      </trkpt>
      <trkpt lat="44.95198" lon="6.59038">
        <ele>1923.1</ele>
        <time>2023-05-18T14:55:53+0200</time>
      </trkpt>
      <trkpt lat="44.95204" lon="6.59042">
        <ele>1923.7</ele>
        <time>2023-05-18T14:55:56+0200</time>
      </trkpt>
      <trkpt lat="44.95208" lon="6.59047">
        <ele>1924.6</ele>
        <time>2023-05-18T14:55:58+0200</time>
      </trkpt>
      <trkpt lat="44.95212" lon="6.5905">
        <ele>1925.1</ele>
        <time>2023-05-18T14:56:00+0200</time>
      </trkpt>
      <trkpt lat="44.95217" lon="6.59054">
        <ele>1925.8</ele>
        <time>2023-05-18T14:56:03+0200</time>
      </trkpt>
      <trkpt lat="44.95222" lon="6.59059">
        <ele>1926.4</ele>
        <time>2023-05-18T14:56:06+0200</time>
      </trkpt>
      <trkpt lat="44.95227" lon="6.59065">
        <ele>1926.9</ele>
        <time>2023-05-18T14:56:09+0200</time>
      </trkpt>
      <trkpt lat="44.95231" lon="6.59068">
        <ele>1927</ele>
        <time>2023-05-18T14:56:11+0200</time>
      </trkpt>
      <trkpt lat="44.95235" lon="6.59073">
        <ele>1927.4</ele>
        <time>2023-05-18T14:56:13+0200</time>
      </trkpt>
      <trkpt lat="44.95239" lon="6.5908">
        <ele>1928.2</ele>
        <time>2023-05-18T14:56:16+0200</time>
      </trkpt>
      <trkpt lat="44.95241" lon="6.59086">
        <ele>1929</ele>
        <time>2023-05-18T14:56:19+0200</time>
      </trkpt>
      <trkpt lat="44.95243" lon="6.59094">
        <ele>1929.8</ele>
        <time>2023-05-18T14:56:22+0200</time>
      </trkpt>
      <trkpt lat="44.95244" lon="6.59102">
        <ele>1930.5</ele>
        <time>2023-05-18T14:56:25+0200</time>
      </trkpt>
      <trkpt lat="44.95246" lon="6.5911">
        <ele>1931.3</ele>
        <time>2023-05-18T14:56:28+0200</time>
      </trkpt>
      <trkpt lat="44.95247" lon="6.59117">
        <ele>1932</ele>
        <time>2023-05-18T14:56:31+0200</time>
      </trkpt>
      <trkpt lat="44.95248" lon="6.59125">
        <ele>1932.8</ele>
        <time>2023-05-18T14:56:34+0200</time>
      </trkpt>
      <trkpt lat="44.95249" lon="6.59134">
        <ele>1933.6</ele>
        <time>2023-05-18T14:56:37+0200</time>
      </trkpt>
      <trkpt lat="44.9525" lon="6.59141">
        <ele>1934.3</ele>
        <time>2023-05-18T14:56:40+0200</time>
      </trkpt>
      <trkpt lat="44.95253" lon="6.59149">
        <ele>1935.2</ele>
        <time>2023-05-18T14:56:43+0200</time>
      </trkpt>
      <trkpt lat="44.95254" lon="6.59157">
        <ele>1936.2</ele>
        <time>2023-05-18T14:56:46+0200</time>
      </trkpt>
      <trkpt lat="44.95256" lon="6.59164">
        <ele>1937.1</ele>
        <time>2023-05-18T14:56:49+0200</time>
      </trkpt>
      <trkpt lat="44.95257" lon="6.59171">
        <ele>1937.7</ele>
        <time>2023-05-18T14:56:51+0200</time>
      </trkpt>
      <trkpt lat="44.95258" lon="6.59178">
        <ele>1938.5</ele>
        <time>2023-05-18T14:56:54+0200</time>
      </trkpt>
      <trkpt lat="44.9526" lon="6.59185">
        <ele>1939.1</ele>
        <time>2023-05-18T14:56:56+0200</time>
      </trkpt>
      <trkpt lat="44.95262" lon="6.59192">
        <ele>1939.8</ele>
        <time>2023-05-18T14:56:59+0200</time>
      </trkpt>
      <trkpt lat="44.95267" lon="6.59199">
        <ele>1940.4</ele>
        <time>2023-05-18T14:57:02+0200</time>
      </trkpt>
      <trkpt lat="44.95271" lon="6.59203">
        <ele>1940.6</ele>
        <time>2023-05-18T14:57:04+0200</time>
      </trkpt>
      <trkpt lat="44.95277" lon="6.59207">
        <ele>1940.9</ele>
        <time>2023-05-18T14:57:07+0200</time>
      </trkpt>
      <trkpt lat="44.95281" lon="6.59208">
        <ele>1941.6</ele>
        <time>2023-05-18T14:57:09+0200</time>
      </trkpt>
      <trkpt lat="44.95287" lon="6.59212">
        <ele>1943.1</ele>
        <time>2023-05-18T14:57:12+0200</time>
      </trkpt>
      <trkpt lat="44.95292" lon="6.59211">
        <ele>1943.7</ele>
        <time>2023-05-18T14:57:14+0200</time>
      </trkpt>
      <trkpt lat="44.95299" lon="6.5921">
        <ele>1944.7</ele>
        <time>2023-05-18T14:57:17+0200</time>
      </trkpt>
      <trkpt lat="44.95305" lon="6.59207">
        <ele>1945.1</ele>
        <time>2023-05-18T14:57:20+0200</time>
      </trkpt>
      <trkpt lat="44.95309" lon="6.59205">
        <ele>1945.7</ele>
        <time>2023-05-18T14:57:22+0200</time>
      </trkpt>
      <trkpt lat="44.95314" lon="6.59202">
        <ele>1946.5</ele>
        <time>2023-05-18T14:57:25+0200</time>
      </trkpt>
      <trkpt lat="44.9532" lon="6.59199">
        <ele>1947.4</ele>
        <time>2023-05-18T14:57:28+0200</time>
      </trkpt>
      <trkpt lat="44.95325" lon="6.59193">
        <ele>1947.6</ele>
        <time>2023-05-18T14:57:32+0200</time>
      </trkpt>
      <trkpt lat="44.95331" lon="6.59189">
        <ele>1948.4</ele>
        <time>2023-05-18T14:57:35+0200</time>
      </trkpt>
      <trkpt lat="44.95336" lon="6.59186">
        <ele>1949.3</ele>
        <time>2023-05-18T14:57:38+0200</time>
      </trkpt>
      <trkpt lat="44.9534" lon="6.59183">
        <ele>1949.8</ele>
        <time>2023-05-18T14:57:40+0200</time>
      </trkpt>
      <trkpt lat="44.95344" lon="6.5918">
        <ele>1950.1</ele>
        <time>2023-05-18T14:57:42+0200</time>
      </trkpt>
      <trkpt lat="44.9535" lon="6.59176">
        <ele>1951</ele>
        <time>2023-05-18T14:57:45+0200</time>
      </trkpt>
      <trkpt lat="44.95357" lon="6.59173">
        <ele>1952</ele>
        <time>2023-05-18T14:57:48+0200</time>
      </trkpt>
      <trkpt lat="44.95361" lon="6.59169">
        <ele>1952.4</ele>
        <time>2023-05-18T14:57:50+0200</time>
      </trkpt>
      <trkpt lat="44.95366" lon="6.59166">
        <ele>1953.3</ele>
        <time>2023-05-18T14:57:53+0200</time>
      </trkpt>
      <trkpt lat="44.95372" lon="6.59162">
        <ele>1954</ele>
        <time>2023-05-18T14:57:56+0200</time>
      </trkpt>
      <trkpt lat="44.95377" lon="6.59157">
        <ele>1954.7</ele>
        <time>2023-05-18T14:57:59+0200</time>
      </trkpt>
      <trkpt lat="44.95382" lon="6.59155">
        <ele>1955.5</ele>
        <time>2023-05-18T14:58:02+0200</time>
      </trkpt>
      <trkpt lat="44.95387" lon="6.59152">
        <ele>1956.3</ele>
        <time>2023-05-18T14:58:05+0200</time>
      </trkpt>
      <trkpt lat="44.95393" lon="6.59151">
        <ele>1957.3</ele>
        <time>2023-05-18T14:58:08+0200</time>
      </trkpt>
      <trkpt lat="44.95398" lon="6.59147">
        <ele>1957.3</ele>
        <time>2023-05-18T14:58:11+0200</time>
      </trkpt>
      <trkpt lat="44.95403" lon="6.59146">
        <ele>1958.2</ele>
        <time>2023-05-18T14:58:14+0200</time>
      </trkpt>
      <trkpt lat="44.95408" lon="6.59145">
        <ele>1958.7</ele>
        <time>2023-05-18T14:58:16+0200</time>
      </trkpt>
      <trkpt lat="44.95414" lon="6.59144">
        <ele>1959.5</ele>
        <time>2023-05-18T14:58:19+0200</time>
      </trkpt>
      <trkpt lat="44.9542" lon="6.59142">
        <ele>1960.3</ele>
        <time>2023-05-18T14:58:22+0200</time>
      </trkpt>
      <trkpt lat="44.95426" lon="6.5914">
        <ele>1961.4</ele>
        <time>2023-05-18T14:58:25+0200</time>
      </trkpt>
      <trkpt lat="44.9543" lon="6.59137">
        <ele>1962</ele>
        <time>2023-05-18T14:58:27+0200</time>
      </trkpt>
      <trkpt lat="44.95433" lon="6.59133">
        <ele>1962.2</ele>
        <time>2023-05-18T14:58:29+0200</time>
      </trkpt>
      <trkpt lat="44.9544" lon="6.59129">
        <ele>1963.3</ele>
        <time>2023-05-18T14:58:32+0200</time>
      </trkpt>
      <trkpt lat="44.95444" lon="6.59126">
        <ele>1963.9</ele>
        <time>2023-05-18T14:58:35+0200</time>
      </trkpt>
      <trkpt lat="44.9545" lon="6.5912">
        <ele>1964.2</ele>
        <time>2023-05-18T14:58:38+0200</time>
      </trkpt>
      <trkpt lat="44.95454" lon="6.59118">
        <ele>1964.8</ele>
        <time>2023-05-18T14:58:41+0200</time>
      </trkpt>
      <trkpt lat="44.95459" lon="6.59115">
        <ele>1965.4</ele>
        <time>2023-05-18T14:58:44+0200</time>
      </trkpt>
      <trkpt lat="44.95466" lon="6.59114">
        <ele>1966.3</ele>
        <time>2023-05-18T14:58:47+0200</time>
      </trkpt>
      <trkpt lat="44.95472" lon="6.59114">
        <ele>1967.4</ele>
        <time>2023-05-18T14:58:51+0200</time>
      </trkpt>
      <trkpt lat="44.95477" lon="6.59115">
        <ele>1968.5</ele>
        <time>2023-05-18T14:58:54+0200</time>
      </trkpt>
      <trkpt lat="44.95482" lon="6.59115">
        <ele>1969.1</ele>
        <time>2023-05-18T14:58:57+0200</time>
      </trkpt>
      <trkpt lat="44.95487" lon="6.59116">
        <ele>1970.2</ele>
        <time>2023-05-18T14:59:00+0200</time>
      </trkpt>
      <trkpt lat="44.95492" lon="6.59116">
        <ele>1970.8</ele>
        <time>2023-05-18T14:59:03+0200</time>
      </trkpt>
      <trkpt lat="44.95498" lon="6.59116">
        <ele>1971.7</ele>
        <time>2023-05-18T14:59:07+0200</time>
      </trkpt>
      <trkpt lat="44.95503" lon="6.59114">
        <ele>1972.4</ele>
        <time>2023-05-18T14:59:10+0200</time>
      </trkpt>
      <trkpt lat="44.95509" lon="6.59113">
        <ele>1973.3</ele>
        <time>2023-05-18T14:59:13+0200</time>
      </trkpt>
      <trkpt lat="44.95514" lon="6.59112">
        <ele>1974.3</ele>
        <time>2023-05-18T14:59:16+0200</time>
      </trkpt>
      <trkpt lat="44.9552" lon="6.59109">
        <ele>1974.8</ele>
        <time>2023-05-18T14:59:19+0200</time>
      </trkpt>
      <trkpt lat="44.95526" lon="6.59103">
        <ele>1975.1</ele>
        <time>2023-05-18T14:59:22+0200</time>
      </trkpt>
      <trkpt lat="44.95531" lon="6.59102">
        <ele>1975.9</ele>
        <time>2023-05-18T14:59:25+0200</time>
      </trkpt>
      <trkpt lat="44.95535" lon="6.59099">
        <ele>1976.2</ele>
        <time>2023-05-18T14:59:27+0200</time>
      </trkpt>
      <trkpt lat="44.95541" lon="6.59097">
        <ele>1977.1</ele>
        <time>2023-05-18T14:59:30+0200</time>
      </trkpt>
      <trkpt lat="44.95547" lon="6.59093">
        <ele>1977.5</ele>
        <time>2023-05-18T14:59:33+0200</time>
      </trkpt>
      <trkpt lat="44.95551" lon="6.5909">
        <ele>1978.1</ele>
        <time>2023-05-18T14:59:36+0200</time>
      </trkpt>
      <trkpt lat="44.95555" lon="6.59086">
        <ele>1978.2</ele>
        <time>2023-05-18T14:59:38+0200</time>
      </trkpt>
      <trkpt lat="44.95561" lon="6.59082">
        <ele>1979.4</ele>
        <time>2023-05-18T14:59:41+0200</time>
      </trkpt>
      <trkpt lat="44.95566" lon="6.59079">
        <ele>1980.5</ele>
        <time>2023-05-18T14:59:44+0200</time>
      </trkpt>
      <trkpt lat="44.95572" lon="6.59074">
        <ele>1981.7</ele>
        <time>2023-05-18T14:59:47+0200</time>
      </trkpt>
      <trkpt lat="44.95576" lon="6.59071">
        <ele>1982.5</ele>
        <time>2023-05-18T14:59:50+0200</time>
      </trkpt>
      <trkpt lat="44.95579" lon="6.59065">
        <ele>1982.8</ele>
        <time>2023-05-18T14:59:52+0200</time>
      </trkpt>
      <trkpt lat="44.95584" lon="6.5906">
        <ele>1983.6</ele>
        <time>2023-05-18T14:59:55+0200</time>
      </trkpt>
      <trkpt lat="44.95589" lon="6.59054">
        <ele>1984.7</ele>
        <time>2023-05-18T14:59:57+0200</time>
      </trkpt>
      <trkpt lat="44.95593" lon="6.59049">
        <ele>1985.4</ele>
        <time>2023-05-18T15:00:01+0200</time>
      </trkpt>
      <trkpt lat="44.95596" lon="6.59044">
        <ele>1985.8</ele>
        <time>2023-05-18T15:00:04+0200</time>
      </trkpt>
      <trkpt lat="44.956" lon="6.59039">
        <ele>1986.4</ele>
        <time>2023-05-18T15:00:07+0200</time>
      </trkpt>
      <trkpt lat="44.95605" lon="6.59034">
        <ele>1987.1</ele>
        <time>2023-05-18T15:00:10+0200</time>
      </trkpt>
      <trkpt lat="44.95608" lon="6.59027">
        <ele>1987</ele>
        <time>2023-05-18T15:00:13+0200</time>
      </trkpt>
      <trkpt lat="44.95611" lon="6.59022">
        <ele>1987.4</ele>
        <time>2023-05-18T15:00:16+0200</time>
      </trkpt>
      <trkpt lat="44.95615" lon="6.59016">
        <ele>1988.7</ele>
        <time>2023-05-18T15:00:19+0200</time>
      </trkpt>
      <trkpt lat="44.95619" lon="6.5901">
        <ele>1989.8</ele>
        <time>2023-05-18T15:00:22+0200</time>
      </trkpt>
      <trkpt lat="44.95621" lon="6.59004">
        <ele>1990.2</ele>
        <time>2023-05-18T15:00:24+0200</time>
      </trkpt>
      <trkpt lat="44.95624" lon="6.58998">
        <ele>1991</ele>
        <time>2023-05-18T15:00:26+0200</time>
      </trkpt>
      <trkpt lat="44.95626" lon="6.58992">
        <ele>1991.9</ele>
        <time>2023-05-18T15:00:29+0200</time>
      </trkpt>
      <trkpt lat="44.95628" lon="6.58983">
        <ele>1992.6</ele>
        <time>2023-05-18T15:00:32+0200</time>
      </trkpt>
      <trkpt lat="44.95629" lon="6.58975">
        <ele>1993</ele>
        <time>2023-05-18T15:00:35+0200</time>
      </trkpt>
      <trkpt lat="44.95631" lon="6.58966">
        <ele>1993.8</ele>
        <time>2023-05-18T15:00:38+0200</time>
      </trkpt>
      <trkpt lat="44.95632" lon="6.58957">
        <ele>1994.3</ele>
        <time>2023-05-18T15:00:41+0200</time>
      </trkpt>
      <trkpt lat="44.95634" lon="6.58951">
        <ele>1995.2</ele>
        <time>2023-05-18T15:00:43+0200</time>
      </trkpt>
      <trkpt lat="44.95637" lon="6.58941">
        <ele>1996.2</ele>
        <time>2023-05-18T15:00:46+0200</time>
      </trkpt>
      <trkpt lat="44.95638" lon="6.58933">
        <ele>1996.7</ele>
        <time>2023-05-18T15:00:49+0200</time>
      </trkpt>
      <trkpt lat="44.95639" lon="6.58926">
        <ele>1997.2</ele>
        <time>2023-05-18T15:00:51+0200</time>
      </trkpt>
      <trkpt lat="44.95641" lon="6.58917">
        <ele>1997.7</ele>
        <time>2023-05-18T15:00:54+0200</time>
      </trkpt>
      <trkpt lat="44.9564" lon="6.58909">
        <ele>1997.6</ele>
        <time>2023-05-18T15:00:57+0200</time>
      </trkpt>
      <trkpt lat="44.95642" lon="6.58901">
        <ele>1998.1</ele>
        <time>2023-05-18T15:01:00+0200</time>
      </trkpt>
      <trkpt lat="44.95645" lon="6.58894">
        <ele>1999.6</ele>
        <time>2023-05-18T15:01:03+0200</time>
      </trkpt>
      <trkpt lat="44.95647" lon="6.58887">
        <ele>1999.9</ele>
        <time>2023-05-18T15:01:06+0200</time>
      </trkpt>
      <trkpt lat="44.95649" lon="6.5888">
        <ele>2000.4</ele>
        <time>2023-05-18T15:01:09+0200</time>
      </trkpt>
      <trkpt lat="44.95652" lon="6.58874">
        <ele>2001.1</ele>
        <time>2023-05-18T15:01:12+0200</time>
      </trkpt>
      <trkpt lat="44.95655" lon="6.58866">
        <ele>2001.6</ele>
        <time>2023-05-18T15:01:14+0200</time>
      </trkpt>
      <trkpt lat="44.95658" lon="6.58858">
        <ele>2002.3</ele>
        <time>2023-05-18T15:01:18+0200</time>
      </trkpt>
      <trkpt lat="44.95662" lon="6.5885">
        <ele>2003.7</ele>
        <time>2023-05-18T15:01:21+0200</time>
      </trkpt>
      <trkpt lat="44.95665" lon="6.58844">
        <ele>2004.8</ele>
        <time>2023-05-18T15:01:24+0200</time>
      </trkpt>
      <trkpt lat="44.95668" lon="6.58837">
        <ele>2005.6</ele>
        <time>2023-05-18T15:01:26+0200</time>
      </trkpt>
      <trkpt lat="44.95672" lon="6.58831">
        <ele>2006.4</ele>
        <time>2023-05-18T15:01:29+0200</time>
      </trkpt>
      <trkpt lat="44.95674" lon="6.58824">
        <ele>2006.4</ele>
        <time>2023-05-18T15:01:32+0200</time>
      </trkpt>
      <trkpt lat="44.95678" lon="6.58819">
        <ele>2006.9</ele>
        <time>2023-05-18T15:01:34+0200</time>
      </trkpt>
      <trkpt lat="44.95682" lon="6.58813">
        <ele>2007.4</ele>
        <time>2023-05-18T15:01:37+0200</time>
      </trkpt>
      <trkpt lat="44.95686" lon="6.58809">
        <ele>2007.8</ele>
        <time>2023-05-18T15:01:40+0200</time>
      </trkpt>
      <trkpt lat="44.9569" lon="6.58804">
        <ele>2008.7</ele>
        <time>2023-05-18T15:01:43+0200</time>
      </trkpt>
      <trkpt lat="44.95695" lon="6.588">
        <ele>2009.6</ele>
        <time>2023-05-18T15:01:46+0200</time>
      </trkpt>
      <trkpt lat="44.95699" lon="6.58796">
        <ele>2010.2</ele>
        <time>2023-05-18T15:01:49+0200</time>
      </trkpt>
      <trkpt lat="44.95705" lon="6.58793">
        <ele>2011.3</ele>
        <time>2023-05-18T15:01:52+0200</time>
      </trkpt>
      <trkpt lat="44.9571" lon="6.58789">
        <ele>2012</ele>
        <time>2023-05-18T15:01:55+0200</time>
      </trkpt>
      <trkpt lat="44.95715" lon="6.58787">
        <ele>2013.2</ele>
        <time>2023-05-18T15:01:58+0200</time>
      </trkpt>
      <trkpt lat="44.95719" lon="6.58781">
        <ele>2013.6</ele>
        <time>2023-05-18T15:02:01+0200</time>
      </trkpt>
      <trkpt lat="44.95723" lon="6.58776">
        <ele>2014.1</ele>
        <time>2023-05-18T15:02:04+0200</time>
      </trkpt>
      <trkpt lat="44.95726" lon="6.58771">
        <ele>2014.5</ele>
        <time>2023-05-18T15:02:07+0200</time>
      </trkpt>
      <trkpt lat="44.95728" lon="6.58765">
        <ele>2014.6</ele>
        <time>2023-05-18T15:02:10+0200</time>
      </trkpt>
      <trkpt lat="44.95732" lon="6.58759">
        <ele>2015.1</ele>
        <time>2023-05-18T15:02:13+0200</time>
      </trkpt>
      <trkpt lat="44.95737" lon="6.58754">
        <ele>2016</ele>
        <time>2023-05-18T15:02:16+0200</time>
      </trkpt>
      <trkpt lat="44.95742" lon="6.58751">
        <ele>2017</ele>
        <time>2023-05-18T15:02:19+0200</time>
      </trkpt>
      <trkpt lat="44.95748" lon="6.58749">
        <ele>2018.2</ele>
        <time>2023-05-18T15:02:22+0200</time>
      </trkpt>
      <trkpt lat="44.95753" lon="6.58748">
        <ele>2019.1</ele>
        <time>2023-05-18T15:02:25+0200</time>
      </trkpt>
      <trkpt lat="44.95758" lon="6.58749">
        <ele>2019.8</ele>
        <time>2023-05-18T15:02:28+0200</time>
      </trkpt>
      <trkpt lat="44.95763" lon="6.58749">
        <ele>2020.3</ele>
        <time>2023-05-18T15:02:31+0200</time>
      </trkpt>
      <trkpt lat="44.95769" lon="6.5875">
        <ele>2021</ele>
        <time>2023-05-18T15:02:34+0200</time>
      </trkpt>
      <trkpt lat="44.95774" lon="6.58751">
        <ele>2021.7</ele>
        <time>2023-05-18T15:02:37+0200</time>
      </trkpt>
      <trkpt lat="44.95779" lon="6.58751">
        <ele>2022.3</ele>
        <time>2023-05-18T15:02:39+0200</time>
      </trkpt>
      <trkpt lat="44.95784" lon="6.58753">
        <ele>2023.1</ele>
        <time>2023-05-18T15:02:42+0200</time>
      </trkpt>
      <trkpt lat="44.9579" lon="6.58754">
        <ele>2023.8</ele>
        <time>2023-05-18T15:02:45+0200</time>
      </trkpt>
      <trkpt lat="44.95795" lon="6.58754">
        <ele>2024.4</ele>
        <time>2023-05-18T15:02:48+0200</time>
      </trkpt>
      <trkpt lat="44.95801" lon="6.58754">
        <ele>2025</ele>
        <time>2023-05-18T15:02:51+0200</time>
      </trkpt>
      <trkpt lat="44.95805" lon="6.58755">
        <ele>2025.6</ele>
        <time>2023-05-18T15:02:54+0200</time>
      </trkpt>
      <trkpt lat="44.95811" lon="6.58753">
        <ele>2026.5</ele>
        <time>2023-05-18T15:02:57+0200</time>
      </trkpt>
      <trkpt lat="44.95817" lon="6.58753">
        <ele>2027.5</ele>
        <time>2023-05-18T15:03:00+0200</time>
      </trkpt>
      <trkpt lat="44.95823" lon="6.58751">
        <ele>2028.2</ele>
        <time>2023-05-18T15:03:03+0200</time>
      </trkpt>
      <trkpt lat="44.95829" lon="6.5875">
        <ele>2029.1</ele>
        <time>2023-05-18T15:03:06+0200</time>
      </trkpt>
      <trkpt lat="44.95834" lon="6.5875">
        <ele>2030</ele>
        <time>2023-05-18T15:03:09+0200</time>
      </trkpt>
      <trkpt lat="44.95839" lon="6.58749">
        <ele>2030.1</ele>
        <time>2023-05-18T15:03:12+0200</time>
      </trkpt>
      <trkpt lat="44.95844" lon="6.58753">
        <ele>2030.6</ele>
        <time>2023-05-18T15:03:15+0200</time>
      </trkpt>
      <trkpt lat="44.95848" lon="6.58755">
        <ele>2031.1</ele>
        <time>2023-05-18T15:03:18+0200</time>
      </trkpt>
      <trkpt lat="44.95853" lon="6.58761">
        <ele>2031.8</ele>
        <time>2023-05-18T15:03:21+0200</time>
      </trkpt>
      <trkpt lat="44.95857" lon="6.58766">
        <ele>2032.5</ele>
        <time>2023-05-18T15:03:24+0200</time>
      </trkpt>
      <trkpt lat="44.95861" lon="6.58772">
        <ele>2033.3</ele>
        <time>2023-05-18T15:03:27+0200</time>
      </trkpt>
      <trkpt lat="44.95864" lon="6.58777">
        <ele>2033.9</ele>
        <time>2023-05-18T15:03:30+0200</time>
      </trkpt>
      <trkpt lat="44.95867" lon="6.58783">
        <ele>2034.5</ele>
        <time>2023-05-18T15:03:32+0200</time>
      </trkpt>
      <trkpt lat="44.9587" lon="6.5879">
        <ele>2035.4</ele>
        <time>2023-05-18T15:03:35+0200</time>
      </trkpt>
      <trkpt lat="44.95874" lon="6.58797">
        <ele>2036.1</ele>
        <time>2023-05-18T15:03:38+0200</time>
      </trkpt>
      <trkpt lat="44.95878" lon="6.58803">
        <ele>2036.8</ele>
        <time>2023-05-18T15:03:41+0200</time>
      </trkpt>
      <trkpt lat="44.95882" lon="6.58811">
        <ele>2037.5</ele>
        <time>2023-05-18T15:03:44+0200</time>
      </trkpt>
      <trkpt lat="44.95887" lon="6.58817">
        <ele>2038.2</ele>
        <time>2023-05-18T15:03:47+0200</time>
      </trkpt>
      <trkpt lat="44.95889" lon="6.58823">
        <ele>2038.8</ele>
        <time>2023-05-18T15:03:49+0200</time>
      </trkpt>
      <trkpt lat="44.95893" lon="6.5883">
        <ele>2039.6</ele>
        <time>2023-05-18T15:03:52+0200</time>
      </trkpt>
      <trkpt lat="44.95896" lon="6.58834">
        <ele>2040.1</ele>
        <time>2023-05-18T15:03:54+0200</time>
      </trkpt>
      <trkpt lat="44.959" lon="6.5884">
        <ele>2040.9</ele>
        <time>2023-05-18T15:03:57+0200</time>
      </trkpt>
      <trkpt lat="44.95906" lon="6.58843">
        <ele>2041.3</ele>
        <time>2023-05-18T15:04:00+0200</time>
      </trkpt>
      <trkpt lat="44.9591" lon="6.58848">
        <ele>2042</ele>
        <time>2023-05-18T15:04:02+0200</time>
      </trkpt>
      <trkpt lat="44.95915" lon="6.58853">
        <ele>2042.8</ele>
        <time>2023-05-18T15:04:05+0200</time>
      </trkpt>
      <trkpt lat="44.95919" lon="6.58857">
        <ele>2043.5</ele>
        <time>2023-05-18T15:04:07+0200</time>
      </trkpt>
      <trkpt lat="44.95926" lon="6.58859">
        <ele>2044.4</ele>
        <time>2023-05-18T15:04:10+0200</time>
      </trkpt>
      <trkpt lat="44.95932" lon="6.58861">
        <ele>2045</ele>
        <time>2023-05-18T15:04:13+0200</time>
      </trkpt>
      <trkpt lat="44.95938" lon="6.58862">
        <ele>2045.6</ele>
        <time>2023-05-18T15:04:16+0200</time>
      </trkpt>
      <trkpt lat="44.95944" lon="6.58863">
        <ele>2046.3</ele>
        <time>2023-05-18T15:04:19+0200</time>
      </trkpt>
      <trkpt lat="44.9595" lon="6.58866">
        <ele>2047.1</ele>
        <time>2023-05-18T15:04:22+0200</time>
      </trkpt>
      <trkpt lat="44.95956" lon="6.58866">
        <ele>2047.4</ele>
        <time>2023-05-18T15:04:25+0200</time>
      </trkpt>
      <trkpt lat="44.95961" lon="6.58867">
        <ele>2048</ele>
        <time>2023-05-18T15:04:28+0200</time>
      </trkpt>
      <trkpt lat="44.95967" lon="6.58868">
        <ele>2048.6</ele>
        <time>2023-05-18T15:05:39+0200</time>
      </trkpt>
      <trkpt lat="44.95973" lon="6.58869">
        <ele>2049.4</ele>
        <time>2023-05-18T15:05:42+0200</time>
      </trkpt>
      <trkpt lat="44.95979" lon="6.5887">
        <ele>2050.7</ele>
        <time>2023-05-18T15:05:44+0200</time>
      </trkpt>
      <trkpt lat="44.95985" lon="6.58871">
        <ele>2052.4</ele>
        <time>2023-05-18T15:05:47+0200</time>
      </trkpt>
      <trkpt lat="44.9599" lon="6.58868">
        <ele>2053.1</ele>
        <time>2023-05-18T15:05:49+0200</time>
      </trkpt>
      <trkpt lat="44.95996" lon="6.58864">
        <ele>2053.6</ele>
        <time>2023-05-18T15:05:52+0200</time>
      </trkpt>
      <trkpt lat="44.95998" lon="6.58857">
        <ele>2053.1</ele>
        <time>2023-05-18T15:05:54+0200</time>
      </trkpt>
      <trkpt lat="44.96002" lon="6.58852">
        <ele>2053.4</ele>
        <time>2023-05-18T15:05:56+0200</time>
      </trkpt>
      <trkpt lat="44.96004" lon="6.58846">
        <ele>2053.2</ele>
        <time>2023-05-18T15:05:58+0200</time>
      </trkpt>
      <trkpt lat="44.96009" lon="6.58838">
        <ele>2053.8</ele>
        <time>2023-05-18T15:06:01+0200</time>
      </trkpt>
      <trkpt lat="44.96013" lon="6.58832">
        <ele>2054.4</ele>
        <time>2023-05-18T15:06:04+0200</time>
      </trkpt>
      <trkpt lat="44.96016" lon="6.58825">
        <ele>2054.6</ele>
        <time>2023-05-18T15:06:06+0200</time>
      </trkpt>
      <trkpt lat="44.9602" lon="6.58817">
        <ele>2055.2</ele>
        <time>2023-05-18T15:06:09+0200</time>
      </trkpt>
      <trkpt lat="44.96025" lon="6.58811">
        <ele>2056.3</ele>
        <time>2023-05-18T15:06:12+0200</time>
      </trkpt>
      <trkpt lat="44.96028" lon="6.58806">
        <ele>2057</ele>
        <time>2023-05-18T15:06:14+0200</time>
      </trkpt>
      <trkpt lat="44.9603" lon="6.588">
        <ele>2057.2</ele>
        <time>2023-05-18T15:06:16+0200</time>
      </trkpt>
      <trkpt lat="44.96035" lon="6.58793">
        <ele>2057.9</ele>
        <time>2023-05-18T15:06:19+0200</time>
      </trkpt>
      <trkpt lat="44.96038" lon="6.58789">
        <ele>2058.6</ele>
        <time>2023-05-18T15:06:21+0200</time>
      </trkpt>
      <trkpt lat="44.96041" lon="6.5878">
        <ele>2059.3</ele>
        <time>2023-05-18T15:06:24+0200</time>
      </trkpt>
      <trkpt lat="44.96043" lon="6.58771">
        <ele>2060.4</ele>
        <time>2023-05-18T15:06:27+0200</time>
      </trkpt>
      <trkpt lat="44.96044" lon="6.58763">
        <ele>2061.1</ele>
        <time>2023-05-18T15:06:29+0200</time>
      </trkpt>
      <trkpt lat="44.96045" lon="6.58756">
        <ele>2062</ele>
        <time>2023-05-18T15:06:31+0200</time>
      </trkpt>
      <trkpt lat="44.96046" lon="6.58746">
        <ele>2063.1</ele>
        <time>2023-05-18T15:06:33+0200</time>
      </trkpt>
      <trkpt lat="44.96047" lon="6.5874">
        <ele>2064.2</ele>
        <time>2023-05-18T15:06:36+0200</time>
      </trkpt>
      <trkpt lat="44.96047" lon="6.58733">
        <ele>2064.9</ele>
        <time>2023-05-18T15:06:38+0200</time>
      </trkpt>
      <trkpt lat="44.96046" lon="6.58726">
        <ele>2064.9</ele>
        <time>2023-05-18T15:06:40+0200</time>
      </trkpt>
      <trkpt lat="44.96047" lon="6.58719">
        <ele>2065.7</ele>
        <time>2023-05-18T15:06:42+0200</time>
      </trkpt>
      <trkpt lat="44.96046" lon="6.58713">
        <ele>2066.4</ele>
        <time>2023-05-18T15:06:44+0200</time>
      </trkpt>
      <trkpt lat="44.96044" lon="6.58707">
        <ele>2066.2</ele>
        <time>2023-05-18T15:06:46+0200</time>
      </trkpt>
      <trkpt lat="44.96042" lon="6.58701">
        <ele>2066.1</ele>
        <time>2023-05-18T15:06:48+0200</time>
      </trkpt>
      <trkpt lat="44.96039" lon="6.58692">
        <ele>2066.2</ele>
        <time>2023-05-18T15:06:51+0200</time>
      </trkpt>
      <trkpt lat="44.96041" lon="6.58684">
        <ele>2066.3</ele>
        <time>2023-05-18T15:06:54+0200</time>
      </trkpt>
      <trkpt lat="44.96044" lon="6.58678">
        <ele>2067</ele>
        <time>2023-05-18T15:06:58+0200</time>
      </trkpt>
      <trkpt lat="44.9605" lon="6.58677">
        <ele>2068.4</ele>
        <time>2023-05-18T15:07:01+0200</time>
      </trkpt>
      <trkpt lat="44.96055" lon="6.58674">
        <ele>2069.3</ele>
        <time>2023-05-18T15:07:03+0200</time>
      </trkpt>
      <trkpt lat="44.9606" lon="6.5867">
        <ele>2070.7</ele>
        <time>2023-05-18T15:07:05+0200</time>
      </trkpt>
      <trkpt lat="44.96061" lon="6.58661">
        <ele>2071.6</ele>
        <time>2023-05-18T15:07:08+0200</time>
      </trkpt>
      <trkpt lat="44.96063" lon="6.58654">
        <ele>2072.6</ele>
        <time>2023-05-18T15:07:10+0200</time>
      </trkpt>
      <trkpt lat="44.96063" lon="6.58647">
        <ele>2073.2</ele>
        <time>2023-05-18T15:07:12+0200</time>
      </trkpt>
      <trkpt lat="44.96063" lon="6.58641">
        <ele>2073.7</ele>
        <time>2023-05-18T15:07:14+0200</time>
      </trkpt>
      <trkpt lat="44.96061" lon="6.58632">
        <ele>2073.4</ele>
        <time>2023-05-18T15:07:17+0200</time>
      </trkpt>
      <trkpt lat="44.9606" lon="6.58624">
        <ele>2073.4</ele>
        <time>2023-05-18T15:07:19+0200</time>
      </trkpt>
      <trkpt lat="44.9606" lon="6.58617">
        <ele>2073.4</ele>
        <time>2023-05-18T15:07:22+0200</time>
      </trkpt>
      <trkpt lat="44.96063" lon="6.58611">
        <ele>2073.7</ele>
        <time>2023-05-18T15:07:25+0200</time>
      </trkpt>
      <trkpt lat="44.96066" lon="6.58605">
        <ele>2073.3</ele>
        <time>2023-05-18T15:07:28+0200</time>
      </trkpt>
      <trkpt lat="44.96072" lon="6.58604">
        <ele>2073.8</ele>
        <time>2023-05-18T15:07:31+0200</time>
      </trkpt>
      <trkpt lat="44.96079" lon="6.58605">
        <ele>2074.7</ele>
        <time>2023-05-18T15:07:34+0200</time>
      </trkpt>
      <trkpt lat="44.96084" lon="6.58609">
        <ele>2075.7</ele>
        <time>2023-05-18T15:07:37+0200</time>
      </trkpt>
      <trkpt lat="44.96087" lon="6.58614">
        <ele>2076.7</ele>
        <time>2023-05-18T15:07:40+0200</time>
      </trkpt>
      <trkpt lat="44.96092" lon="6.58618">
        <ele>2077.7</ele>
        <time>2023-05-18T15:07:43+0200</time>
      </trkpt>
      <trkpt lat="44.96096" lon="6.58623">
        <ele>2078.6</ele>
        <time>2023-05-18T15:07:46+0200</time>
      </trkpt>
      <trkpt lat="44.96098" lon="6.5863">
        <ele>2079.6</ele>
        <time>2023-05-18T15:07:49+0200</time>
      </trkpt>
      <trkpt lat="44.96099" lon="6.58638">
        <ele>2080.6</ele>
        <time>2023-05-18T15:07:52+0200</time>
      </trkpt>
      <trkpt lat="44.96101" lon="6.58645">
        <ele>2081.4</ele>
        <time>2023-05-18T15:07:55+0200</time>
      </trkpt>
      <trkpt lat="44.96099" lon="6.58654">
        <ele>2082</ele>
        <time>2023-05-18T15:07:58+0200</time>
      </trkpt>
      <trkpt lat="44.961" lon="6.58663">
        <ele>2082.8</ele>
        <time>2023-05-18T15:08:01+0200</time>
      </trkpt>
      <trkpt lat="44.96099" lon="6.58671">
        <ele>2083.3</ele>
        <time>2023-05-18T15:08:05+0200</time>
      </trkpt>
      <trkpt lat="44.96097" lon="6.58679">
        <ele>2083.5</ele>
        <time>2023-05-18T15:08:08+0200</time>
      </trkpt>
      <trkpt lat="44.96097" lon="6.58687">
        <ele>2084.2</ele>
        <time>2023-05-18T15:08:11+0200</time>
      </trkpt>
      <trkpt lat="44.96097" lon="6.58696">
        <ele>2084.9</ele>
        <time>2023-05-18T15:08:14+0200</time>
      </trkpt>
      <trkpt lat="44.96097" lon="6.58703">
        <ele>2085</ele>
        <time>2023-05-18T15:08:17+0200</time>
      </trkpt>
      <trkpt lat="44.96097" lon="6.5871">
        <ele>2085.3</ele>
        <time>2023-05-18T15:08:19+0200</time>
      </trkpt>
      <trkpt lat="44.96099" lon="6.58717">
        <ele>2086</ele>
        <time>2023-05-18T15:08:21+0200</time>
      </trkpt>
      <trkpt lat="44.96102" lon="6.58723">
        <ele>2087.1</ele>
        <time>2023-05-18T15:08:24+0200</time>
      </trkpt>
      <trkpt lat="44.96106" lon="6.58729">
        <ele>2088.1</ele>
        <time>2023-05-18T15:08:27+0200</time>
      </trkpt>
      <trkpt lat="44.9611" lon="6.58736">
        <ele>2089.1</ele>
        <time>2023-05-18T15:08:29+0200</time>
      </trkpt>
      <trkpt lat="44.96113" lon="6.58744">
        <ele>2089.6</ele>
        <time>2023-05-18T15:08:32+0200</time>
      </trkpt>
      <trkpt lat="44.96114" lon="6.5875">
        <ele>2089.6</ele>
        <time>2023-05-18T15:08:35+0200</time>
      </trkpt>
      <trkpt lat="44.96115" lon="6.58759">
        <ele>2089.8</ele>
        <time>2023-05-18T15:08:38+0200</time>
      </trkpt>
      <trkpt lat="44.96116" lon="6.58766">
        <ele>2090.1</ele>
        <time>2023-05-18T15:08:42+0200</time>
      </trkpt>
      <trkpt lat="44.96119" lon="6.58774">
        <ele>2090.8</ele>
        <time>2023-05-18T15:08:45+0200</time>
      </trkpt>
      <trkpt lat="44.96121" lon="6.58779">
        <ele>2091.3</ele>
        <time>2023-05-18T15:08:47+0200</time>
      </trkpt>
      <trkpt lat="44.96126" lon="6.58785">
        <ele>2092.6</ele>
        <time>2023-05-18T15:08:50+0200</time>
      </trkpt>
      <trkpt lat="44.9613" lon="6.58785">
        <ele>2094.1</ele>
        <time>2023-05-18T15:08:53+0200</time>
      </trkpt>
      <trkpt lat="44.96135" lon="6.58784">
        <ele>2095.5</ele>
        <time>2023-05-18T15:08:55+0200</time>
      </trkpt>
      <trkpt lat="44.96139" lon="6.5878">
        <ele>2096.1</ele>
        <time>2023-05-18T15:08:57+0200</time>
      </trkpt>
      <trkpt lat="44.96143" lon="6.58774">
        <ele>2097.1</ele>
        <time>2023-05-18T15:08:59+0200</time>
      </trkpt>
      <trkpt lat="44.96145" lon="6.58768">
        <ele>2097.6</ele>
        <time>2023-05-18T15:09:01+0200</time>
      </trkpt>
      <trkpt lat="44.96146" lon="6.5876">
        <ele>2097.5</ele>
        <time>2023-05-18T15:09:03+0200</time>
      </trkpt>
      <trkpt lat="44.96148" lon="6.58755">
        <ele>2097.7</ele>
        <time>2023-05-18T15:09:05+0200</time>
      </trkpt>
      <trkpt lat="44.96148" lon="6.58745">
        <ele>2097.6</ele>
        <time>2023-05-18T15:09:07+0200</time>
      </trkpt>
      <trkpt lat="44.96148" lon="6.58736">
        <ele>2098.2</ele>
        <time>2023-05-18T15:09:09+0200</time>
      </trkpt>
      <trkpt lat="44.96147" lon="6.58727">
        <ele>2098.7</ele>
        <time>2023-05-18T15:09:11+0200</time>
      </trkpt>
      <trkpt lat="44.96145" lon="6.58719">
        <ele>2098.5</ele>
        <time>2023-05-18T15:09:13+0200</time>
      </trkpt>
      <trkpt lat="44.96144" lon="6.58713">
        <ele>2098.6</ele>
        <time>2023-05-18T15:09:15+0200</time>
      </trkpt>
      <trkpt lat="44.96144" lon="6.58705">
        <ele>2098.9</ele>
        <time>2023-05-18T15:09:17+0200</time>
      </trkpt>
      <trkpt lat="44.96145" lon="6.58696">
        <ele>2099.5</ele>
        <time>2023-05-18T15:09:20+0200</time>
      </trkpt>
      <trkpt lat="44.96149" lon="6.5869">
        <ele>2099.9</ele>
        <time>2023-05-18T15:09:23+0200</time>
      </trkpt>
      <trkpt lat="44.96153" lon="6.58685">
        <ele>2100.2</ele>
        <time>2023-05-18T15:09:26+0200</time>
      </trkpt>
      <trkpt lat="44.96158" lon="6.58683">
        <ele>2101</ele>
        <time>2023-05-18T15:09:28+0200</time>
      </trkpt>
      <trkpt lat="44.96163" lon="6.5868">
        <ele>2101.9</ele>
        <time>2023-05-18T15:09:30+0200</time>
      </trkpt>
      <trkpt lat="44.96168" lon="6.58681">
        <ele>2103.4</ele>
        <time>2023-05-18T15:09:32+0200</time>
      </trkpt>
      <trkpt lat="44.96174" lon="6.5868">
        <ele>2105.3</ele>
        <time>2023-05-18T15:09:35+0200</time>
      </trkpt>
      <trkpt lat="44.9618" lon="6.58677">
        <ele>2106.7</ele>
        <time>2023-05-18T15:09:38+0200</time>
      </trkpt>
      <trkpt lat="44.96185" lon="6.58673">
        <ele>2107.9</ele>
        <time>2023-05-18T15:09:41+0200</time>
      </trkpt>
      <trkpt lat="44.96189" lon="6.58669">
        <ele>2108.6</ele>
        <time>2023-05-18T15:09:43+0200</time>
      </trkpt>
      <trkpt lat="44.96192" lon="6.58663">
        <ele>2108.7</ele>
        <time>2023-05-18T15:09:45+0200</time>
      </trkpt>
      <trkpt lat="44.96197" lon="6.58657">
        <ele>2109.1</ele>
        <time>2023-05-18T15:09:48+0200</time>
      </trkpt>
      <trkpt lat="44.962" lon="6.58652">
        <ele>2109.2</ele>
        <time>2023-05-18T15:09:50+0200</time>
      </trkpt>
      <trkpt lat="44.96204" lon="6.58649">
        <ele>2109.8</ele>
        <time>2023-05-18T15:09:52+0200</time>
      </trkpt>
      <trkpt lat="44.9621" lon="6.58645">
        <ele>2110.7</ele>
        <time>2023-05-18T15:09:55+0200</time>
      </trkpt>
      <trkpt lat="44.96215" lon="6.58641">
        <ele>2111.2</ele>
        <time>2023-05-18T15:09:58+0200</time>
      </trkpt>
      <trkpt lat="44.96221" lon="6.5864">
        <ele>2112.8</ele>
        <time>2023-05-18T15:10:01+0200</time>
      </trkpt>
      <trkpt lat="44.96226" lon="6.58636">
        <ele>2113.7</ele>
        <time>2023-05-18T15:10:04+0200</time>
      </trkpt>
      <trkpt lat="44.96231" lon="6.58633">
        <ele>2114.2</ele>
        <time>2023-05-18T15:10:06+0200</time>
      </trkpt>
      <trkpt lat="44.96237" lon="6.58629">
        <ele>2114.7</ele>
        <time>2023-05-18T15:10:09+0200</time>
      </trkpt>
      <trkpt lat="44.96241" lon="6.58625">
        <ele>2114.9</ele>
        <time>2023-05-18T15:10:11+0200</time>
      </trkpt>
      <trkpt lat="44.96247" lon="6.58621">
        <ele>2115.3</ele>
        <time>2023-05-18T15:10:13+0200</time>
      </trkpt>
      <trkpt lat="44.96251" lon="6.58618">
        <ele>2116</ele>
        <time>2023-05-18T15:10:15+0200</time>
      </trkpt>
      <trkpt lat="44.96256" lon="6.58615">
        <ele>2116.4</ele>
        <time>2023-05-18T15:10:17+0200</time>
      </trkpt>
      <trkpt lat="44.96261" lon="6.58612">
        <ele>2116.8</ele>
        <time>2023-05-18T15:10:19+0200</time>
      </trkpt>
      <trkpt lat="44.96266" lon="6.58609">
        <ele>2117.1</ele>
        <time>2023-05-18T15:10:21+0200</time>
      </trkpt>
      <trkpt lat="44.96272" lon="6.58604">
        <ele>2117.5</ele>
        <time>2023-05-18T15:10:24+0200</time>
      </trkpt>
      <trkpt lat="44.96277" lon="6.58601">
        <ele>2118.1</ele>
        <time>2023-05-18T15:10:26+0200</time>
      </trkpt>
      <trkpt lat="44.96282" lon="6.58597">
        <ele>2117.6</ele>
        <time>2023-05-18T15:10:28+0200</time>
      </trkpt>
      <trkpt lat="44.96287" lon="6.58596">
        <ele>2117.9</ele>
        <time>2023-05-18T15:10:30+0200</time>
      </trkpt>
      <trkpt lat="44.96292" lon="6.58592">
        <ele>2117.6</ele>
        <time>2023-05-18T15:10:32+0200</time>
      </trkpt>
      <trkpt lat="44.96297" lon="6.58592">
        <ele>2118.2</ele>
        <time>2023-05-18T15:10:34+0200</time>
      </trkpt>
      <trkpt lat="44.96302" lon="6.58591">
        <ele>2119</ele>
        <time>2023-05-18T15:10:36+0200</time>
      </trkpt>
      <trkpt lat="44.96308" lon="6.58591">
        <ele>2119.9</ele>
        <time>2023-05-18T15:10:38+0200</time>
      </trkpt>
      <trkpt lat="44.96314" lon="6.58588">
        <ele>2120.6</ele>
        <time>2023-05-18T15:10:40+0200</time>
      </trkpt>
      <trkpt lat="44.96319" lon="6.58587">
        <ele>2121.8</ele>
        <time>2023-05-18T15:10:42+0200</time>
      </trkpt>
      <trkpt lat="44.96324" lon="6.58585">
        <ele>2122.3</ele>
        <time>2023-05-18T15:10:44+0200</time>
      </trkpt>
      <trkpt lat="44.9633" lon="6.58584">
        <ele>2123.2</ele>
        <time>2023-05-18T15:10:48+0200</time>
      </trkpt>
      <trkpt lat="44.96336" lon="6.5858">
        <ele>2123.3</ele>
        <time>2023-05-18T15:10:51+0200</time>
      </trkpt>
      <trkpt lat="44.96342" lon="6.58578">
        <ele>2123.7</ele>
        <time>2023-05-18T15:10:54+0200</time>
      </trkpt>
      <trkpt lat="44.96347" lon="6.58576">
        <ele>2124.2</ele>
        <time>2023-05-18T15:10:57+0200</time>
      </trkpt>
      <trkpt lat="44.96352" lon="6.58578">
        <ele>2125.7</ele>
        <time>2023-05-18T15:11:00+0200</time>
      </trkpt>
      <trkpt lat="44.96356" lon="6.58575">
        <ele>2125.5</ele>
        <time>2023-05-18T15:11:02+0200</time>
      </trkpt>
      <trkpt lat="44.96363" lon="6.58573">
        <ele>2126.1</ele>
        <time>2023-05-18T15:11:05+0200</time>
      </trkpt>
      <trkpt lat="44.96369" lon="6.5857">
        <ele>2126.7</ele>
        <time>2023-05-18T15:11:08+0200</time>
      </trkpt>
      <trkpt lat="44.96374" lon="6.58568">
        <ele>2126.9</ele>
        <time>2023-05-18T15:11:11+0200</time>
      </trkpt>
      <trkpt lat="44.9638" lon="6.58567">
        <ele>2127.7</ele>
        <time>2023-05-18T15:11:14+0200</time>
      </trkpt>
      <trkpt lat="44.96386" lon="6.58566">
        <ele>2128.5</ele>
        <time>2023-05-18T15:11:17+0200</time>
      </trkpt>
      <trkpt lat="44.96392" lon="6.58566">
        <ele>2129.2</ele>
        <time>2023-05-18T15:11:20+0200</time>
      </trkpt>
      <trkpt lat="44.96397" lon="6.58565">
        <ele>2129.7</ele>
        <time>2023-05-18T15:11:23+0200</time>
      </trkpt>
      <trkpt lat="44.96402" lon="6.58565">
        <ele>2130.1</ele>
        <time>2023-05-18T15:11:26+0200</time>
      </trkpt>
      <trkpt lat="44.96407" lon="6.58566">
        <ele>2131.1</ele>
        <time>2023-05-18T15:11:29+0200</time>
      </trkpt>
      <trkpt lat="44.96413" lon="6.58566">
        <ele>2131.5</ele>
        <time>2023-05-18T15:11:32+0200</time>
      </trkpt>
      <trkpt lat="44.96418" lon="6.58565">
        <ele>2131.8</ele>
        <time>2023-05-18T15:11:34+0200</time>
      </trkpt>
      <trkpt lat="44.96423" lon="6.58563">
        <ele>2132.4</ele>
        <time>2023-05-18T15:11:37+0200</time>
      </trkpt>
      <trkpt lat="44.96429" lon="6.58563">
        <ele>2133.5</ele>
        <time>2023-05-18T15:11:40+0200</time>
      </trkpt>
      <trkpt lat="44.96433" lon="6.58562">
        <ele>2133.8</ele>
        <time>2023-05-18T15:11:42+0200</time>
      </trkpt>
      <trkpt lat="44.96438" lon="6.58561">
        <ele>2134.7</ele>
        <time>2023-05-18T15:11:45+0200</time>
      </trkpt>
      <trkpt lat="44.96443" lon="6.58559">
        <ele>2135</ele>
        <time>2023-05-18T15:11:48+0200</time>
      </trkpt>
      <trkpt lat="44.96449" lon="6.58557">
        <ele>2135</ele>
        <time>2023-05-18T15:11:51+0200</time>
      </trkpt>
      <trkpt lat="44.96454" lon="6.58556">
        <ele>2135.1</ele>
        <time>2023-05-18T15:11:54+0200</time>
      </trkpt>
      <trkpt lat="44.96464" lon="6.58552">
        <ele>2135.3</ele>
        <time>2023-05-18T15:11:57+0200</time>
      </trkpt>
      <trkpt lat="44.96469" lon="6.58554">
        <ele>2136.2</ele>
        <time>2023-05-18T15:12:02+0200</time>
      </trkpt>
      <trkpt lat="44.96476" lon="6.58554">
        <ele>2136.9</ele>
        <time>2023-05-18T15:12:05+0200</time>
      </trkpt>
      <trkpt lat="44.9648" lon="6.58554">
        <ele>2137.4</ele>
        <time>2023-05-18T15:12:08+0200</time>
      </trkpt>
      <trkpt lat="44.96486" lon="6.58554">
        <ele>2138.2</ele>
        <time>2023-05-18T15:12:11+0200</time>
      </trkpt>
      <trkpt lat="44.96492" lon="6.58555">
        <ele>2139</ele>
        <time>2023-05-18T15:12:14+0200</time>
      </trkpt>
      <trkpt lat="44.96496" lon="6.58555">
        <ele>2139.5</ele>
        <time>2023-05-18T15:12:17+0200</time>
      </trkpt>
      <trkpt lat="44.96502" lon="6.58556">
        <ele>2140.3</ele>
        <time>2023-05-18T15:12:20+0200</time>
      </trkpt>
      <trkpt lat="44.96507" lon="6.58556">
        <ele>2141.5</ele>
        <time>2023-05-18T15:12:23+0200</time>
      </trkpt>
      <trkpt lat="44.96512" lon="6.58556">
        <ele>2142.3</ele>
        <time>2023-05-18T15:12:25+0200</time>
      </trkpt>
      <trkpt lat="44.96518" lon="6.58555">
        <ele>2143.2</ele>
        <time>2023-05-18T15:12:28+0200</time>
      </trkpt>
      <trkpt lat="44.96524" lon="6.58553">
        <ele>2143.8</ele>
        <time>2023-05-18T15:12:31+0200</time>
      </trkpt>
      <trkpt lat="44.96529" lon="6.58551">
        <ele>2144.1</ele>
        <time>2023-05-18T15:12:34+0200</time>
      </trkpt>
      <trkpt lat="44.96534" lon="6.58549">
        <ele>2144.1</ele>
        <time>2023-05-18T15:12:37+0200</time>
      </trkpt>
      <trkpt lat="44.96539" lon="6.58547">
        <ele>2144</ele>
        <time>2023-05-18T15:12:40+0200</time>
      </trkpt>
      <trkpt lat="44.96545" lon="6.58545">
        <ele>2143.9</ele>
        <time>2023-05-18T15:12:42+0200</time>
      </trkpt>
      <trkpt lat="44.96551" lon="6.58547">
        <ele>2144.7</ele>
        <time>2023-05-18T15:12:46+0200</time>
      </trkpt>
      <trkpt lat="44.96556" lon="6.58547">
        <ele>2145.1</ele>
        <time>2023-05-18T15:12:49+0200</time>
      </trkpt>
      <trkpt lat="44.96561" lon="6.58549">
        <ele>2146</ele>
        <time>2023-05-18T15:12:53+0200</time>
      </trkpt>
      <trkpt lat="44.96567" lon="6.58549">
        <ele>2146.7</ele>
        <time>2023-05-18T15:12:56+0200</time>
      </trkpt>
      <trkpt lat="44.96572" lon="6.5855">
        <ele>2147.6</ele>
        <time>2023-05-18T15:12:59+0200</time>
      </trkpt>
      <trkpt lat="44.96577" lon="6.58551">
        <ele>2148.4</ele>
        <time>2023-05-18T15:13:02+0200</time>
      </trkpt>
      <trkpt lat="44.96583" lon="6.58553">
        <ele>2149.3</ele>
        <time>2023-05-18T15:13:05+0200</time>
      </trkpt>
      <trkpt lat="44.96588" lon="6.58554">
        <ele>2150.2</ele>
        <time>2023-05-18T15:13:08+0200</time>
      </trkpt>
      <trkpt lat="44.96594" lon="6.58554">
        <ele>2151</ele>
        <time>2023-05-18T15:13:11+0200</time>
      </trkpt>
      <trkpt lat="44.96599" lon="6.58553">
        <ele>2151.7</ele>
        <time>2023-05-18T15:13:13+0200</time>
      </trkpt>
      <trkpt lat="44.96604" lon="6.58552">
        <ele>2152.1</ele>
        <time>2023-05-18T15:13:16+0200</time>
      </trkpt>
      <trkpt lat="44.96609" lon="6.5855">
        <ele>2152.4</ele>
        <time>2023-05-18T15:13:19+0200</time>
      </trkpt>
      <trkpt lat="44.96615" lon="6.58549">
        <ele>2152.9</ele>
        <time>2023-05-18T15:13:22+0200</time>
      </trkpt>
      <trkpt lat="44.9662" lon="6.58548">
        <ele>2153.5</ele>
        <time>2023-05-18T15:13:25+0200</time>
      </trkpt>
      <trkpt lat="44.96626" lon="6.58549">
        <ele>2154.9</ele>
        <time>2023-05-18T15:13:28+0200</time>
      </trkpt>
      <trkpt lat="44.96632" lon="6.58549">
        <ele>2155.8</ele>
        <time>2023-05-18T15:13:31+0200</time>
      </trkpt>
      <trkpt lat="44.96637" lon="6.58549">
        <ele>2156.7</ele>
        <time>2023-05-18T15:13:34+0200</time>
      </trkpt>
      <trkpt lat="44.96643" lon="6.58548">
        <ele>2157.6</ele>
        <time>2023-05-18T15:13:37+0200</time>
      </trkpt>
      <trkpt lat="44.96649" lon="6.58548">
        <ele>2158.5</ele>
        <time>2023-05-18T15:13:40+0200</time>
      </trkpt>
      <trkpt lat="44.96654" lon="6.58547">
        <ele>2159.3</ele>
        <time>2023-05-18T15:13:43+0200</time>
      </trkpt>
      <trkpt lat="44.96659" lon="6.58544">
        <ele>2159.7</ele>
        <time>2023-05-18T15:13:46+0200</time>
      </trkpt>
      <trkpt lat="44.96664" lon="6.58543">
        <ele>2160.4</ele>
        <time>2023-05-18T15:13:49+0200</time>
      </trkpt>
      <trkpt lat="44.96669" lon="6.5854">
        <ele>2160.5</ele>
        <time>2023-05-18T15:13:52+0200</time>
      </trkpt>
      <trkpt lat="44.96675" lon="6.58537">
        <ele>2160.9</ele>
        <time>2023-05-18T15:13:55+0200</time>
      </trkpt>
      <trkpt lat="44.9668" lon="6.58535">
        <ele>2161.6</ele>
        <time>2023-05-18T15:13:58+0200</time>
      </trkpt>
      <trkpt lat="44.96685" lon="6.58532">
        <ele>2162</ele>
        <time>2023-05-18T15:14:01+0200</time>
      </trkpt>
      <trkpt lat="44.96691" lon="6.58529">
        <ele>2162.5</ele>
        <time>2023-05-18T15:14:04+0200</time>
      </trkpt>
      <trkpt lat="44.96697" lon="6.58527">
        <ele>2163.1</ele>
        <time>2023-05-18T15:14:07+0200</time>
      </trkpt>
      <trkpt lat="44.96701" lon="6.58526">
        <ele>2163.5</ele>
        <time>2023-05-18T15:14:10+0200</time>
      </trkpt>
      <trkpt lat="44.96706" lon="6.58525">
        <ele>2164.1</ele>
        <time>2023-05-18T15:14:13+0200</time>
      </trkpt>
      <trkpt lat="44.96712" lon="6.58525">
        <ele>2164.9</ele>
        <time>2023-05-18T15:14:16+0200</time>
      </trkpt>
      <trkpt lat="44.96717" lon="6.58526">
        <ele>2165.8</ele>
        <time>2023-05-18T15:14:19+0200</time>
      </trkpt>
      <trkpt lat="44.96724" lon="6.58528">
        <ele>2167.2</ele>
        <time>2023-05-18T15:14:23+0200</time>
      </trkpt>
      <trkpt lat="44.96729" lon="6.58527">
        <ele>2167.9</ele>
        <time>2023-05-18T15:14:26+0200</time>
      </trkpt>
      <trkpt lat="44.96735" lon="6.58528">
        <ele>2168.8</ele>
        <time>2023-05-18T15:14:29+0200</time>
      </trkpt>
      <trkpt lat="44.96739" lon="6.58525">
        <ele>2169</ele>
        <time>2023-05-18T15:14:32+0200</time>
      </trkpt>
      <trkpt lat="44.96745" lon="6.58523">
        <ele>2169.3</ele>
        <time>2023-05-18T15:14:35+0200</time>
      </trkpt>
      <trkpt lat="44.9675" lon="6.58522">
        <ele>2169.8</ele>
        <time>2023-05-18T15:14:38+0200</time>
      </trkpt>
      <trkpt lat="44.96755" lon="6.58518">
        <ele>2170</ele>
        <time>2023-05-18T15:14:40+0200</time>
      </trkpt>
      <trkpt lat="44.96759" lon="6.58512">
        <ele>2169.7</ele>
        <time>2023-05-18T15:14:43+0200</time>
      </trkpt>
      <trkpt lat="44.96763" lon="6.58508">
        <ele>2169.6</ele>
        <time>2023-05-18T15:14:45+0200</time>
      </trkpt>
      <trkpt lat="44.96767" lon="6.58502">
        <ele>2169.4</ele>
        <time>2023-05-18T15:14:48+0200</time>
      </trkpt>
      <trkpt lat="44.96772" lon="6.58498">
        <ele>2169.8</ele>
        <time>2023-05-18T15:14:51+0200</time>
      </trkpt>
      <trkpt lat="44.96776" lon="6.58498">
        <ele>2170.6</ele>
        <time>2023-05-18T15:14:54+0200</time>
      </trkpt>
      <trkpt lat="44.96781" lon="6.58493">
        <ele>2171</ele>
        <time>2023-05-18T15:14:57+0200</time>
      </trkpt>
      <trkpt lat="44.96785" lon="6.58489">
        <ele>2171.4</ele>
        <time>2023-05-18T15:15:01+0200</time>
      </trkpt>
      <trkpt lat="44.96784" lon="6.58482">
        <ele>2170.7</ele>
        <time>2023-05-18T15:15:19+0200</time>
      </trkpt>
      <trkpt lat="44.96789" lon="6.58482">
        <ele>2171.6</ele>
        <time>2023-05-18T15:16:11+0200</time>
      </trkpt>
      <trkpt lat="44.96794" lon="6.58479">
        <ele>2172.2</ele>
        <time>2023-05-18T15:16:13+0200</time>
      </trkpt>
      <trkpt lat="44.968" lon="6.58477">
        <ele>2172.7</ele>
        <time>2023-05-18T15:16:15+0200</time>
      </trkpt>
      <trkpt lat="44.96807" lon="6.58474">
        <ele>2173.5</ele>
        <time>2023-05-18T15:16:17+0200</time>
      </trkpt>
      <trkpt lat="44.96814" lon="6.58468">
        <ele>2174</ele>
        <time>2023-05-18T15:16:19+0200</time>
      </trkpt>
      <trkpt lat="44.96821" lon="6.58464">
        <ele>2174.6</ele>
        <time>2023-05-18T15:16:21+0200</time>
      </trkpt>
      <trkpt lat="44.96827" lon="6.58459">
        <ele>2174.7</ele>
        <time>2023-05-18T15:16:23+0200</time>
      </trkpt>
      <trkpt lat="44.96831" lon="6.5845">
        <ele>2173</ele>
        <time>2023-05-18T15:16:25+0200</time>
      </trkpt>
      <trkpt lat="44.96833" lon="6.58441">
        <ele>2171.8</ele>
        <time>2023-05-18T15:16:27+0200</time>
      </trkpt>
      <trkpt lat="44.96835" lon="6.58434">
        <ele>2171.9</ele>
        <time>2023-05-18T15:16:28+0200</time>
      </trkpt>
      <trkpt lat="44.96836" lon="6.58426">
        <ele>2171.8</ele>
        <time>2023-05-18T15:16:29+0200</time>
      </trkpt>
      <trkpt lat="44.96835" lon="6.5842">
        <ele>2171.3</ele>
        <time>2023-05-18T15:16:30+0200</time>
      </trkpt>
      <trkpt lat="44.96833" lon="6.58412">
        <ele>2171.2</ele>
        <time>2023-05-18T15:16:31+0200</time>
      </trkpt>
      <trkpt lat="44.96832" lon="6.58405">
        <ele>2171.3</ele>
        <time>2023-05-18T15:16:32+0200</time>
      </trkpt>
      <trkpt lat="44.96829" lon="6.58398">
        <ele>2171</ele>
        <time>2023-05-18T15:16:33+0200</time>
      </trkpt>
      <trkpt lat="44.96824" lon="6.58391">
        <ele>2170.6</ele>
        <time>2023-05-18T15:16:34+0200</time>
      </trkpt>
      <trkpt lat="44.96818" lon="6.58386">
        <ele>2169.8</ele>
        <time>2023-05-18T15:16:35+0200</time>
      </trkpt>
      <trkpt lat="44.9681" lon="6.58381">
        <ele>2168.9</ele>
        <time>2023-05-18T15:16:36+0200</time>
      </trkpt>
      <trkpt lat="44.96803" lon="6.58376">
        <ele>2168.3</ele>
        <time>2023-05-18T15:16:37+0200</time>
      </trkpt>
      <trkpt lat="44.96795" lon="6.58371">
        <ele>2167.8</ele>
        <time>2023-05-18T15:16:38+0200</time>
      </trkpt>
      <trkpt lat="44.96789" lon="6.58364">
        <ele>2167.6</ele>
        <time>2023-05-18T15:16:39+0200</time>
      </trkpt>
      <trkpt lat="44.9678" lon="6.58361">
        <ele>2167.2</ele>
        <time>2023-05-18T15:16:40+0200</time>
      </trkpt>
      <trkpt lat="44.96771" lon="6.58357">
        <ele>2166.9</ele>
        <time>2023-05-18T15:16:41+0200</time>
      </trkpt>
      <trkpt lat="44.96761" lon="6.58358">
        <ele>2165.7</ele>
        <time>2023-05-18T15:16:42+0200</time>
      </trkpt>
      <trkpt lat="44.96752" lon="6.58361">
        <ele>2164.2</ele>
        <time>2023-05-18T15:16:43+0200</time>
      </trkpt>
      <trkpt lat="44.96743" lon="6.5836">
        <ele>2163.7</ele>
        <time>2023-05-18T15:16:44+0200</time>
      </trkpt>
      <trkpt lat="44.96734" lon="6.58358">
        <ele>2163.4</ele>
        <time>2023-05-18T15:16:44+0200</time>
      </trkpt>
      <trkpt lat="44.96726" lon="6.58353">
        <ele>2163.7</ele>
        <time>2023-05-18T15:16:45+0200</time>
      </trkpt>
      <trkpt lat="44.96718" lon="6.58346">
        <ele>2164.3</ele>
        <time>2023-05-18T15:16:46+0200</time>
      </trkpt>
      <trkpt lat="44.96709" lon="6.58342">
        <ele>2164.3</ele>
        <time>2023-05-18T15:16:47+0200</time>
      </trkpt>
      <trkpt lat="44.96702" lon="6.58339">
        <ele>2164</ele>
        <time>2023-05-18T15:16:48+0200</time>
      </trkpt>
      <trkpt lat="44.96696" lon="6.58334">
        <ele>2164</ele>
        <time>2023-05-18T15:16:49+0200</time>
      </trkpt>
      <trkpt lat="44.96689" lon="6.5833">
        <ele>2163.8</ele>
        <time>2023-05-18T15:16:50+0200</time>
      </trkpt>
      <trkpt lat="44.9668" lon="6.58328">
        <ele>2163.2</ele>
        <time>2023-05-18T15:16:51+0200</time>
      </trkpt>
      <trkpt lat="44.96677" lon="6.58323">
        <ele>2163.4</ele>
        <time>2023-05-18T15:16:52+0200</time>
      </trkpt>
      <trkpt lat="44.96672" lon="6.58318">
        <ele>2163.4</ele>
        <time>2023-05-18T15:16:53+0200</time>
      </trkpt>
      <trkpt lat="44.96667" lon="6.58312">
        <ele>2163.3</ele>
        <time>2023-05-18T15:16:54+0200</time>
      </trkpt>
      <trkpt lat="44.96661" lon="6.5831">
        <ele>2162.9</ele>
        <time>2023-05-18T15:16:55+0200</time>
      </trkpt>
      <trkpt lat="44.96656" lon="6.58304">
        <ele>2162.9</ele>
        <time>2023-05-18T15:16:56+0200</time>
      </trkpt>
      <trkpt lat="44.96651" lon="6.58297">
        <ele>2162.7</ele>
        <time>2023-05-18T15:16:57+0200</time>
      </trkpt>
      <trkpt lat="44.96644" lon="6.58292">
        <ele>2162.2</ele>
        <time>2023-05-18T15:16:58+0200</time>
      </trkpt>
      <trkpt lat="44.96637" lon="6.58286">
        <ele>2161.5</ele>
        <time>2023-05-18T15:16:59+0200</time>
      </trkpt>
      <trkpt lat="44.96633" lon="6.58279">
        <ele>2161.3</ele>
        <time>2023-05-18T15:17:00+0200</time>
      </trkpt>
      <trkpt lat="44.96625" lon="6.58272">
        <ele>2161.7</ele>
        <time>2023-05-18T15:17:01+0200</time>
      </trkpt>
      <trkpt lat="44.9662" lon="6.58265">
        <ele>2162.5</ele>
        <time>2023-05-18T15:17:02+0200</time>
      </trkpt>
      <trkpt lat="44.96614" lon="6.5826">
        <ele>2162.7</ele>
        <time>2023-05-18T15:17:03+0200</time>
      </trkpt>
      <trkpt lat="44.96608" lon="6.58254">
        <ele>2162.8</ele>
        <time>2023-05-18T15:17:05+0200</time>
      </trkpt>
      <trkpt lat="44.96603" lon="6.58251">
        <ele>2162.7</ele>
        <time>2023-05-18T15:17:06+0200</time>
      </trkpt>
      <trkpt lat="44.96598" lon="6.58245">
        <ele>2163.8</ele>
        <time>2023-05-18T15:17:07+0200</time>
      </trkpt>
      <trkpt lat="44.96588" lon="6.58241">
        <ele>2163.8</ele>
        <time>2023-05-18T15:17:09+0200</time>
      </trkpt>
      <trkpt lat="44.96584" lon="6.58238">
        <ele>2164</ele>
        <time>2023-05-18T15:17:10+0200</time>
      </trkpt>
      <trkpt lat="44.9658" lon="6.58236">
        <ele>2164.2</ele>
        <time>2023-05-18T15:17:11+0200</time>
      </trkpt>
      <trkpt lat="44.96575" lon="6.58233">
        <ele>2164.6</ele>
        <time>2023-05-18T15:17:12+0200</time>
      </trkpt>
      <trkpt lat="44.96568" lon="6.58227">
        <ele>2165.3</ele>
        <time>2023-05-18T15:17:14+0200</time>
      </trkpt>
      <trkpt lat="44.96562" lon="6.58224">
        <ele>2165.5</ele>
        <time>2023-05-18T15:17:16+0200</time>
      </trkpt>
      <trkpt lat="44.96556" lon="6.58219">
        <ele>2166.2</ele>
        <time>2023-05-18T15:17:18+0200</time>
      </trkpt>
      <trkpt lat="44.96551" lon="6.58216">
        <ele>2166.4</ele>
        <time>2023-05-18T15:17:20+0200</time>
      </trkpt>
      <trkpt lat="44.96545" lon="6.5821">
        <ele>2167.7</ele>
        <time>2023-05-18T15:17:22+0200</time>
      </trkpt>
      <trkpt lat="44.9654" lon="6.58207">
        <ele>2167.6</ele>
        <time>2023-05-18T15:17:24+0200</time>
      </trkpt>
      <trkpt lat="44.96536" lon="6.58201">
        <ele>2168.7</ele>
        <time>2023-05-18T15:17:26+0200</time>
      </trkpt>
      <trkpt lat="44.96531" lon="6.58197">
        <ele>2169</ele>
        <time>2023-05-18T15:17:28+0200</time>
      </trkpt>
      <trkpt lat="44.96526" lon="6.58191">
        <ele>2169.8</ele>
        <time>2023-05-18T15:17:30+0200</time>
      </trkpt>
      <trkpt lat="44.96523" lon="6.58186">
        <ele>2170.6</ele>
        <time>2023-05-18T15:17:32+0200</time>
      </trkpt>
      <trkpt lat="44.96519" lon="6.58181">
        <ele>2171.3</ele>
        <time>2023-05-18T15:17:34+0200</time>
      </trkpt>
      <trkpt lat="44.96516" lon="6.58175">
        <ele>2172.9</ele>
        <time>2023-05-18T15:17:36+0200</time>
      </trkpt>
      <trkpt lat="44.96513" lon="6.58169">
        <ele>2173.9</ele>
        <time>2023-05-18T15:17:38+0200</time>
      </trkpt>
      <trkpt lat="44.96508" lon="6.58163">
        <ele>2174.7</ele>
        <time>2023-05-18T15:17:40+0200</time>
      </trkpt>
      <trkpt lat="44.96503" lon="6.58159">
        <ele>2175.1</ele>
        <time>2023-05-18T15:17:42+0200</time>
      </trkpt>
      <trkpt lat="44.96498" lon="6.58156">
        <ele>2175.6</ele>
        <time>2023-05-18T15:17:44+0200</time>
      </trkpt>
      <trkpt lat="44.96494" lon="6.58152">
        <ele>2176.8</ele>
        <time>2023-05-18T15:17:46+0200</time>
      </trkpt>
      <trkpt lat="44.96488" lon="6.58149">
        <ele>2176.9</ele>
        <time>2023-05-18T15:17:48+0200</time>
      </trkpt>
      <trkpt lat="44.96483" lon="6.58146">
        <ele>2176.8</ele>
        <time>2023-05-18T15:17:50+0200</time>
      </trkpt>
      <trkpt lat="44.96477" lon="6.58142">
        <ele>2177.1</ele>
        <time>2023-05-18T15:17:52+0200</time>
      </trkpt>
      <trkpt lat="44.9647" lon="6.58138">
        <ele>2176.8</ele>
        <time>2023-05-18T15:17:55+0200</time>
      </trkpt>
      <trkpt lat="44.96465" lon="6.58135">
        <ele>2177.3</ele>
        <time>2023-05-18T15:17:58+0200</time>
      </trkpt>
      <trkpt lat="44.9646" lon="6.58133">
        <ele>2177</ele>
        <time>2023-05-18T15:18:00+0200</time>
      </trkpt>
      <trkpt lat="44.96454" lon="6.58129">
        <ele>2177.6</ele>
        <time>2023-05-18T15:18:03+0200</time>
      </trkpt>
      <trkpt lat="44.96451" lon="6.58123">
        <ele>2178.8</ele>
        <time>2023-05-18T15:18:05+0200</time>
      </trkpt>
      <trkpt lat="44.96447" lon="6.58119">
        <ele>2179.3</ele>
        <time>2023-05-18T15:18:07+0200</time>
      </trkpt>
      <trkpt lat="44.96443" lon="6.58115">
        <ele>2179.3</ele>
        <time>2023-05-18T15:18:09+0200</time>
      </trkpt>
      <trkpt lat="44.96439" lon="6.5811">
        <ele>2180.5</ele>
        <time>2023-05-18T15:18:12+0200</time>
      </trkpt>
      <trkpt lat="44.96436" lon="6.58106">
        <ele>2181.1</ele>
        <time>2023-05-18T15:18:14+0200</time>
      </trkpt>
      <trkpt lat="44.96431" lon="6.58101">
        <ele>2181.7</ele>
        <time>2023-05-18T15:18:16+0200</time>
      </trkpt>
      <trkpt lat="44.96426" lon="6.58097">
        <ele>2181.7</ele>
        <time>2023-05-18T15:18:19+0200</time>
      </trkpt>
      <trkpt lat="44.96421" lon="6.58092">
        <ele>2181.9</ele>
        <time>2023-05-18T15:18:22+0200</time>
      </trkpt>
      <trkpt lat="44.96416" lon="6.58087">
        <ele>2181.8</ele>
        <time>2023-05-18T15:18:25+0200</time>
      </trkpt>
      <trkpt lat="44.9641" lon="6.58085">
        <ele>2181.1</ele>
        <time>2023-05-18T15:18:27+0200</time>
      </trkpt>
      <trkpt lat="44.96406" lon="6.58079">
        <ele>2180.8</ele>
        <time>2023-05-18T15:18:29+0200</time>
      </trkpt>
      <trkpt lat="44.96403" lon="6.58071">
        <ele>2181.3</ele>
        <time>2023-05-18T15:18:31+0200</time>
      </trkpt>
      <trkpt lat="44.96401" lon="6.58063">
        <ele>2181.4</ele>
        <time>2023-05-18T15:18:33+0200</time>
      </trkpt>
      <trkpt lat="44.96399" lon="6.58055">
        <ele>2181.8</ele>
        <time>2023-05-18T15:18:35+0200</time>
      </trkpt>
      <trkpt lat="44.964" lon="6.58046">
        <ele>2182.2</ele>
        <time>2023-05-18T15:18:37+0200</time>
      </trkpt>
      <trkpt lat="44.96401" lon="6.58039">
        <ele>2182.8</ele>
        <time>2023-05-18T15:18:39+0200</time>
      </trkpt>
      <trkpt lat="44.96404" lon="6.58033">
        <ele>2183.6</ele>
        <time>2023-05-18T15:18:41+0200</time>
      </trkpt>
      <trkpt lat="44.96406" lon="6.58026">
        <ele>2184.6</ele>
        <time>2023-05-18T15:18:43+0200</time>
      </trkpt>
      <trkpt lat="44.96408" lon="6.58018">
        <ele>2184.9</ele>
        <time>2023-05-18T15:18:44+0200</time>
      </trkpt>
      <trkpt lat="44.96411" lon="6.58012">
        <ele>2185.4</ele>
        <time>2023-05-18T15:18:46+0200</time>
      </trkpt>
      <trkpt lat="44.96412" lon="6.58004">
        <ele>2185.7</ele>
        <time>2023-05-18T15:18:48+0200</time>
      </trkpt>
      <trkpt lat="44.96415" lon="6.57996">
        <ele>2186.6</ele>
        <time>2023-05-18T15:18:51+0200</time>
      </trkpt>
      <trkpt lat="44.96417" lon="6.57987">
        <ele>2187.2</ele>
        <time>2023-05-18T15:18:54+0200</time>
      </trkpt>
      <trkpt lat="44.96418" lon="6.57979">
        <ele>2187.4</ele>
        <time>2023-05-18T15:18:57+0200</time>
      </trkpt>
      <trkpt lat="44.9642" lon="6.57973">
        <ele>2188.5</ele>
        <time>2023-05-18T15:18:59+0200</time>
      </trkpt>
      <trkpt lat="44.96422" lon="6.57965">
        <ele>2189.4</ele>
        <time>2023-05-18T15:19:02+0200</time>
      </trkpt>
      <trkpt lat="44.96422" lon="6.57956">
        <ele>2189.3</ele>
        <time>2023-05-18T15:19:05+0200</time>
      </trkpt>
      <trkpt lat="44.96422" lon="6.57946">
        <ele>2189.4</ele>
        <time>2023-05-18T15:19:08+0200</time>
      </trkpt>
      <trkpt lat="44.96422" lon="6.5794">
        <ele>2189.9</ele>
        <time>2023-05-18T15:19:11+0200</time>
      </trkpt>
      <trkpt lat="44.96421" lon="6.57933">
        <ele>2190.4</ele>
        <time>2023-05-18T15:19:13+0200</time>
      </trkpt>
      <trkpt lat="44.9642" lon="6.57927">
        <ele>2190.8</ele>
        <time>2023-05-18T15:19:15+0200</time>
      </trkpt>
      <trkpt lat="44.96419" lon="6.57918">
        <ele>2191.7</ele>
        <time>2023-05-18T15:19:18+0200</time>
      </trkpt>
      <trkpt lat="44.96417" lon="6.57912">
        <ele>2191.8</ele>
        <time>2023-05-18T15:19:20+0200</time>
      </trkpt>
      <trkpt lat="44.96415" lon="6.57906">
        <ele>2192.5</ele>
        <time>2023-05-18T15:19:22+0200</time>
      </trkpt>
      <trkpt lat="44.96412" lon="6.57901">
        <ele>2192.8</ele>
        <time>2023-05-18T15:19:24+0200</time>
      </trkpt>
      <trkpt lat="44.9641" lon="6.57893">
        <ele>2193.7</ele>
        <time>2023-05-18T15:19:27+0200</time>
      </trkpt>
      <trkpt lat="44.96406" lon="6.57889">
        <ele>2193.6</ele>
        <time>2023-05-18T15:19:29+0200</time>
      </trkpt>
      <trkpt lat="44.96403" lon="6.57883">
        <ele>2194.2</ele>
        <time>2023-05-18T15:19:31+0200</time>
      </trkpt>
      <trkpt lat="44.96399" lon="6.57879">
        <ele>2194</ele>
        <time>2023-05-18T15:19:33+0200</time>
      </trkpt>
      <trkpt lat="44.96395" lon="6.57874">
        <ele>2194.4</ele>
        <time>2023-05-18T15:19:35+0200</time>
      </trkpt>
      <trkpt lat="44.96391" lon="6.57868">
        <ele>2194.9</ele>
        <time>2023-05-18T15:19:38+0200</time>
      </trkpt>
      <trkpt lat="44.96385" lon="6.57863">
        <ele>2195</ele>
        <time>2023-05-18T15:19:41+0200</time>
      </trkpt>
      <trkpt lat="44.9638" lon="6.57858">
        <ele>2195.1</ele>
        <time>2023-05-18T15:19:43+0200</time>
      </trkpt>
      <trkpt lat="44.96378" lon="6.5785">
        <ele>2195.8</ele>
        <time>2023-05-18T15:19:46+0200</time>
      </trkpt>
      <trkpt lat="44.96373" lon="6.57844">
        <ele>2195.8</ele>
        <time>2023-05-18T15:19:49+0200</time>
      </trkpt>
      <trkpt lat="44.96368" lon="6.57838">
        <ele>2195.6</ele>
        <time>2023-05-18T15:19:51+0200</time>
      </trkpt>
      <trkpt lat="44.96366" lon="6.57829">
        <ele>2196.6</ele>
        <time>2023-05-18T15:19:54+0200</time>
      </trkpt>
      <trkpt lat="44.96362" lon="6.57824">
        <ele>2196.9</ele>
        <time>2023-05-18T15:19:56+0200</time>
      </trkpt>
      <trkpt lat="44.9636" lon="6.57818">
        <ele>2197.8</ele>
        <time>2023-05-18T15:19:58+0200</time>
      </trkpt>
      <trkpt lat="44.96359" lon="6.57809">
        <ele>2199.3</ele>
        <time>2023-05-18T15:20:01+0200</time>
      </trkpt>
      <trkpt lat="44.96357" lon="6.57802">
        <ele>2200.5</ele>
        <time>2023-05-18T15:20:04+0200</time>
      </trkpt>
      <trkpt lat="44.96353" lon="6.57798">
        <ele>2200.9</ele>
        <time>2023-05-18T15:20:06+0200</time>
      </trkpt>
      <trkpt lat="44.96349" lon="6.57792">
        <ele>2201.5</ele>
        <time>2023-05-18T15:20:09+0200</time>
      </trkpt>
      <trkpt lat="44.96345" lon="6.57787">
        <ele>2202</ele>
        <time>2023-05-18T15:20:12+0200</time>
      </trkpt>
      <trkpt lat="44.96341" lon="6.57782">
        <ele>2202.3</ele>
        <time>2023-05-18T15:20:14+0200</time>
      </trkpt>
      <trkpt lat="44.96338" lon="6.57776">
        <ele>2202.8</ele>
        <time>2023-05-18T15:20:17+0200</time>
      </trkpt>
      <trkpt lat="44.96334" lon="6.57772">
        <ele>2203</ele>
        <time>2023-05-18T15:20:19+0200</time>
      </trkpt>
      <trkpt lat="44.9633" lon="6.57765">
        <ele>2203.9</ele>
        <time>2023-05-18T15:20:22+0200</time>
      </trkpt>
      <trkpt lat="44.96326" lon="6.57758">
        <ele>2204.6</ele>
        <time>2023-05-18T15:20:25+0200</time>
      </trkpt>
      <trkpt lat="44.96323" lon="6.57751">
        <ele>2205.2</ele>
        <time>2023-05-18T15:20:28+0200</time>
      </trkpt>
      <trkpt lat="44.9632" lon="6.57742">
        <ele>2205.8</ele>
        <time>2023-05-18T15:20:31+0200</time>
      </trkpt>
      <trkpt lat="44.96318" lon="6.57735">
        <ele>2206</ele>
        <time>2023-05-18T15:20:32+0200</time>
      </trkpt>
      <trkpt lat="44.96317" lon="6.57729">
        <ele>2206.4</ele>
        <time>2023-05-18T15:20:34+0200</time>
      </trkpt>
      <trkpt lat="44.96317" lon="6.57722">
        <ele>2206.9</ele>
        <time>2023-05-18T15:20:36+0200</time>
      </trkpt>
      <trkpt lat="44.96318" lon="6.57713">
        <ele>2207.7</ele>
        <time>2023-05-18T15:20:39+0200</time>
      </trkpt>
      <trkpt lat="44.96318" lon="6.57704">
        <ele>2208.3</ele>
        <time>2023-05-18T15:20:41+0200</time>
      </trkpt>
      <trkpt lat="44.96316" lon="6.57697">
        <ele>2208</ele>
        <time>2023-05-18T15:20:43+0200</time>
      </trkpt>
      <trkpt lat="44.96315" lon="6.57688">
        <ele>2208.5</ele>
        <time>2023-05-18T15:20:46+0200</time>
      </trkpt>
      <trkpt lat="44.96312" lon="6.57679">
        <ele>2208.8</ele>
        <time>2023-05-18T15:20:49+0200</time>
      </trkpt>
      <trkpt lat="44.96309" lon="6.57674">
        <ele>2208.3</ele>
        <time>2023-05-18T15:20:51+0200</time>
      </trkpt>
      <trkpt lat="44.96306" lon="6.57666">
        <ele>2208.3</ele>
        <time>2023-05-18T15:20:54+0200</time>
      </trkpt>
      <trkpt lat="44.96307" lon="6.57658">
        <ele>2210.2</ele>
        <time>2023-05-18T15:20:56+0200</time>
      </trkpt>
      <trkpt lat="44.96306" lon="6.57651">
        <ele>2210.4</ele>
        <time>2023-05-18T15:20:58+0200</time>
      </trkpt>
      <trkpt lat="44.96305" lon="6.57645">
        <ele>2210.9</ele>
        <time>2023-05-18T15:21:00+0200</time>
      </trkpt>
      <trkpt lat="44.96303" lon="6.57636">
        <ele>2211.3</ele>
        <time>2023-05-18T15:21:03+0200</time>
      </trkpt>
      <trkpt lat="44.96303" lon="6.57627">
        <ele>2212.3</ele>
        <time>2023-05-18T15:21:06+0200</time>
      </trkpt>
      <trkpt lat="44.96302" lon="6.57618">
        <ele>2212.8</ele>
        <time>2023-05-18T15:21:09+0200</time>
      </trkpt>
      <trkpt lat="44.96299" lon="6.5761">
        <ele>2213.1</ele>
        <time>2023-05-18T15:21:12+0200</time>
      </trkpt>
      <trkpt lat="44.96297" lon="6.57603">
        <ele>2213.9</ele>
        <time>2023-05-18T15:21:14+0200</time>
      </trkpt>
      <trkpt lat="44.96295" lon="6.57596">
        <ele>2214.7</ele>
        <time>2023-05-18T15:21:18+0200</time>
      </trkpt>
      <trkpt lat="44.96292" lon="6.57591">
        <ele>2215</ele>
        <time>2023-05-18T15:21:20+0200</time>
      </trkpt>
      <trkpt lat="44.96288" lon="6.57587">
        <ele>2214.8</ele>
        <time>2023-05-18T15:21:22+0200</time>
      </trkpt>
      <trkpt lat="44.96285" lon="6.57579">
        <ele>2215.3</ele>
        <time>2023-05-18T15:21:25+0200</time>
      </trkpt>
      <trkpt lat="44.96283" lon="6.57573">
        <ele>2215.8</ele>
        <time>2023-05-18T15:21:27+0200</time>
      </trkpt>
      <trkpt lat="44.9628" lon="6.57568">
        <ele>2215.4</ele>
        <time>2023-05-18T15:21:29+0200</time>
      </trkpt>
      <trkpt lat="44.96276" lon="6.57563">
        <ele>2214.9</ele>
        <time>2023-05-18T15:21:31+0200</time>
      </trkpt>
      <trkpt lat="44.96273" lon="6.57556">
        <ele>2214.4</ele>
        <time>2023-05-18T15:21:34+0200</time>
      </trkpt>
      <trkpt lat="44.96274" lon="6.57549">
        <ele>2213.7</ele>
        <time>2023-05-18T15:21:37+0200</time>
      </trkpt>
      <trkpt lat="44.96277" lon="6.57544">
        <ele>2214.5</ele>
        <time>2023-05-18T15:21:39+0200</time>
      </trkpt>
      <trkpt lat="44.96281" lon="6.57539">
        <ele>2215.3</ele>
        <time>2023-05-18T15:21:41+0200</time>
      </trkpt>
      <trkpt lat="44.96285" lon="6.57536">
        <ele>2216.6</ele>
        <time>2023-05-18T15:21:43+0200</time>
      </trkpt>
      <trkpt lat="44.9629" lon="6.57532">
        <ele>2217.8</ele>
        <time>2023-05-18T15:21:46+0200</time>
      </trkpt>
      <trkpt lat="44.96293" lon="6.57527">
        <ele>2218.5</ele>
        <time>2023-05-18T15:21:48+0200</time>
      </trkpt>
      <trkpt lat="44.96297" lon="6.57521">
        <ele>2218.6</ele>
        <time>2023-05-18T15:21:51+0200</time>
      </trkpt>
      <trkpt lat="44.96301" lon="6.57516">
        <ele>2219.3</ele>
        <time>2023-05-18T15:21:54+0200</time>
      </trkpt>
      <trkpt lat="44.96306" lon="6.5751">
        <ele>2220.3</ele>
        <time>2023-05-18T15:21:57+0200</time>
      </trkpt>
      <trkpt lat="44.96311" lon="6.57504">
        <ele>2220.6</ele>
        <time>2023-05-18T15:22:00+0200</time>
      </trkpt>
      <trkpt lat="44.96315" lon="6.57499">
        <ele>2221</ele>
        <time>2023-05-18T15:22:03+0200</time>
      </trkpt>
      <trkpt lat="44.9632" lon="6.57492">
        <ele>2221.2</ele>
        <time>2023-05-18T15:22:06+0200</time>
      </trkpt>
      <trkpt lat="44.96324" lon="6.57489">
        <ele>2222.1</ele>
        <time>2023-05-18T15:22:08+0200</time>
      </trkpt>
      <trkpt lat="44.96328" lon="6.57484">
        <ele>2222.9</ele>
        <time>2023-05-18T15:22:11+0200</time>
      </trkpt>
      <trkpt lat="44.96333" lon="6.57477">
        <ele>2223.6</ele>
        <time>2023-05-18T15:22:14+0200</time>
      </trkpt>
      <trkpt lat="44.96337" lon="6.57473">
        <ele>2224.4</ele>
        <time>2023-05-18T15:22:17+0200</time>
      </trkpt>
      <trkpt lat="44.9634" lon="6.57467">
        <ele>2224</ele>
        <time>2023-05-18T15:22:19+0200</time>
      </trkpt>
      <trkpt lat="44.96345" lon="6.57462">
        <ele>2224.5</ele>
        <time>2023-05-18T15:22:22+0200</time>
      </trkpt>
      <trkpt lat="44.96351" lon="6.57456">
        <ele>2225.1</ele>
        <time>2023-05-18T15:22:25+0200</time>
      </trkpt>
      <trkpt lat="44.96355" lon="6.57453">
        <ele>2225.8</ele>
        <time>2023-05-18T15:22:27+0200</time>
      </trkpt>
      <trkpt lat="44.96359" lon="6.57449">
        <ele>2226.2</ele>
        <time>2023-05-18T15:22:29+0200</time>
      </trkpt>
      <trkpt lat="44.96364" lon="6.57444">
        <ele>2226.8</ele>
        <time>2023-05-18T15:22:32+0200</time>
      </trkpt>
      <trkpt lat="44.96367" lon="6.5744">
        <ele>2226.9</ele>
        <time>2023-05-18T15:22:34+0200</time>
      </trkpt>
      <trkpt lat="44.96371" lon="6.57436">
        <ele>2227</ele>
        <time>2023-05-18T15:22:36+0200</time>
      </trkpt>
      <trkpt lat="44.96376" lon="6.57431">
        <ele>2227.5</ele>
        <time>2023-05-18T15:22:39+0200</time>
      </trkpt>
      <trkpt lat="44.96379" lon="6.57427">
        <ele>2227.5</ele>
        <time>2023-05-18T15:22:41+0200</time>
      </trkpt>
      <trkpt lat="44.96384" lon="6.57421">
        <ele>2227.9</ele>
        <time>2023-05-18T15:22:43+0200</time>
      </trkpt>
      <trkpt lat="44.96387" lon="6.57417">
        <ele>2228.3</ele>
        <time>2023-05-18T15:22:45+0200</time>
      </trkpt>
      <trkpt lat="44.96393" lon="6.57414">
        <ele>2229.1</ele>
        <time>2023-05-18T15:22:47+0200</time>
      </trkpt>
      <trkpt lat="44.96397" lon="6.5741">
        <ele>2229.1</ele>
        <time>2023-05-18T15:22:49+0200</time>
      </trkpt>
      <trkpt lat="44.96404" lon="6.57407">
        <ele>2230.3</ele>
        <time>2023-05-18T15:22:51+0200</time>
      </trkpt>
      <trkpt lat="44.96409" lon="6.57404">
        <ele>2230.9</ele>
        <time>2023-05-18T15:22:53+0200</time>
      </trkpt>
      <trkpt lat="44.96415" lon="6.574">
        <ele>2231.3</ele>
        <time>2023-05-18T15:22:55+0200</time>
      </trkpt>
      <trkpt lat="44.9642" lon="6.57397">
        <ele>2231.5</ele>
        <time>2023-05-18T15:22:57+0200</time>
      </trkpt>
      <trkpt lat="44.96426" lon="6.57393">
        <ele>2231.2</ele>
        <time>2023-05-18T15:22:59+0200</time>
      </trkpt>
      <trkpt lat="44.96432" lon="6.57389">
        <ele>2230.7</ele>
        <time>2023-05-18T15:23:01+0200</time>
      </trkpt>
      <trkpt lat="44.96438" lon="6.57387">
        <ele>2231.2</ele>
        <time>2023-05-18T15:23:03+0200</time>
      </trkpt>
      <trkpt lat="44.96444" lon="6.57382">
        <ele>2231.1</ele>
        <time>2023-05-18T15:23:05+0200</time>
      </trkpt>
      <trkpt lat="44.9645" lon="6.57378">
        <ele>2230.7</ele>
        <time>2023-05-18T15:23:07+0200</time>
      </trkpt>
      <trkpt lat="44.96457" lon="6.57375">
        <ele>2230.4</ele>
        <time>2023-05-18T15:23:09+0200</time>
      </trkpt>
      <trkpt lat="44.96464" lon="6.57375">
        <ele>2230.7</ele>
        <time>2023-05-18T15:23:11+0200</time>
      </trkpt>
      <trkpt lat="44.96471" lon="6.57375">
        <ele>2231.5</ele>
        <time>2023-05-18T15:23:13+0200</time>
      </trkpt>
      <trkpt lat="44.96478" lon="6.57377">
        <ele>2232.3</ele>
        <time>2023-05-18T15:23:15+0200</time>
      </trkpt>
      <trkpt lat="44.96485" lon="6.57381">
        <ele>2233.7</ele>
        <time>2023-05-18T15:23:17+0200</time>
      </trkpt>
      <trkpt lat="44.9649" lon="6.57381">
        <ele>2234</ele>
        <time>2023-05-18T15:23:19+0200</time>
      </trkpt>
      <trkpt lat="44.96496" lon="6.57381">
        <ele>2234.1</ele>
        <time>2023-05-18T15:23:21+0200</time>
      </trkpt>
      <trkpt lat="44.96503" lon="6.57382">
        <ele>2234.8</ele>
        <time>2023-05-18T15:23:24+0200</time>
      </trkpt>
      <trkpt lat="44.96509" lon="6.57382">
        <ele>2235.3</ele>
        <time>2023-05-18T15:23:26+0200</time>
      </trkpt>
      <trkpt lat="44.96515" lon="6.57381">
        <ele>2235.3</ele>
        <time>2023-05-18T15:23:28+0200</time>
      </trkpt>
      <trkpt lat="44.96521" lon="6.57381">
        <ele>2235.7</ele>
        <time>2023-05-18T15:23:30+0200</time>
      </trkpt>
      <trkpt lat="44.96527" lon="6.57378">
        <ele>2235.1</ele>
        <time>2023-05-18T15:23:32+0200</time>
      </trkpt>
      <trkpt lat="44.96533" lon="6.57379">
        <ele>2236</ele>
        <time>2023-05-18T15:23:34+0200</time>
      </trkpt>
      <trkpt lat="44.9654" lon="6.57377">
        <ele>2236.4</ele>
        <time>2023-05-18T15:23:36+0200</time>
      </trkpt>
      <trkpt lat="44.96547" lon="6.57377">
        <ele>2237.3</ele>
        <time>2023-05-18T15:23:38+0200</time>
      </trkpt>
      <trkpt lat="44.96554" lon="6.57378">
        <ele>2238.5</ele>
        <time>2023-05-18T15:23:40+0200</time>
      </trkpt>
      <trkpt lat="44.9656" lon="6.57376">
        <ele>2238.8</ele>
        <time>2023-05-18T15:23:42+0200</time>
      </trkpt>
      <trkpt lat="44.96568" lon="6.57372">
        <ele>2239</ele>
        <time>2023-05-18T15:23:44+0200</time>
      </trkpt>
      <trkpt lat="44.96575" lon="6.57368">
        <ele>2239</ele>
        <time>2023-05-18T15:23:46+0200</time>
      </trkpt>
      <trkpt lat="44.96581" lon="6.57366">
        <ele>2239.1</ele>
        <time>2023-05-18T15:23:48+0200</time>
      </trkpt>
      <trkpt lat="44.96586" lon="6.57364">
        <ele>2239.3</ele>
        <time>2023-05-18T15:23:49+0200</time>
      </trkpt>
      <trkpt lat="44.96592" lon="6.57356">
        <ele>2239</ele>
        <time>2023-05-18T15:23:51+0200</time>
      </trkpt>
      <trkpt lat="44.96595" lon="6.57352">
        <ele>2238.9</ele>
        <time>2023-05-18T15:23:52+0200</time>
      </trkpt>
      <trkpt lat="44.96601" lon="6.57342">
        <ele>2238.2</ele>
        <time>2023-05-18T15:23:54+0200</time>
      </trkpt>
      <trkpt lat="44.96606" lon="6.57334">
        <ele>2237</ele>
        <time>2023-05-18T15:23:56+0200</time>
      </trkpt>
      <trkpt lat="44.9661" lon="6.57328">
        <ele>2236.9</ele>
        <time>2023-05-18T15:23:57+0200</time>
      </trkpt>
      <trkpt lat="44.96616" lon="6.5732">
        <ele>2236.8</ele>
        <time>2023-05-18T15:23:59+0200</time>
      </trkpt>
      <trkpt lat="44.96619" lon="6.57313">
        <ele>2235.9</ele>
        <time>2023-05-18T15:24:00+0200</time>
      </trkpt>
      <trkpt lat="44.96624" lon="6.57308">
        <ele>2236.4</ele>
        <time>2023-05-18T15:24:01+0200</time>
      </trkpt>
      <trkpt lat="44.96631" lon="6.57303">
        <ele>2237.9</ele>
        <time>2023-05-18T15:24:02+0200</time>
      </trkpt>
      <trkpt lat="44.9663" lon="6.57294">
        <ele>2235</ele>
        <time>2023-05-18T15:24:03+0200</time>
      </trkpt>
      <trkpt lat="44.96633" lon="6.57288">
        <ele>2234.7</ele>
        <time>2023-05-18T15:24:04+0200</time>
      </trkpt>
      <trkpt lat="44.96635" lon="6.57282">
        <ele>2233.8</ele>
        <time>2023-05-18T15:24:05+0200</time>
      </trkpt>
      <trkpt lat="44.96638" lon="6.57275">
        <ele>2233.3</ele>
        <time>2023-05-18T15:24:06+0200</time>
      </trkpt>
      <trkpt lat="44.96641" lon="6.57267">
        <ele>2233.4</ele>
        <time>2023-05-18T15:24:07+0200</time>
      </trkpt>
      <trkpt lat="44.96643" lon="6.57259">
        <ele>2233.1</ele>
        <time>2023-05-18T15:24:08+0200</time>
      </trkpt>
      <trkpt lat="44.96645" lon="6.57251">
        <ele>2232.9</ele>
        <time>2023-05-18T15:24:09+0200</time>
      </trkpt>
      <trkpt lat="44.96648" lon="6.57242">
        <ele>2232.9</ele>
        <time>2023-05-18T15:24:10+0200</time>
      </trkpt>
      <trkpt lat="44.96652" lon="6.57235">
        <ele>2233.1</ele>
        <time>2023-05-18T15:24:11+0200</time>
      </trkpt>
      <trkpt lat="44.96657" lon="6.57226">
        <ele>2233.6</ele>
        <time>2023-05-18T15:24:12+0200</time>
      </trkpt>
      <trkpt lat="44.96661" lon="6.5722">
        <ele>2234.2</ele>
        <time>2023-05-18T15:24:13+0200</time>
      </trkpt>
      <trkpt lat="44.96669" lon="6.57212">
        <ele>2234.9</ele>
        <time>2023-05-18T15:24:15+0200</time>
      </trkpt>
      <trkpt lat="44.96675" lon="6.57203">
        <ele>2234.9</ele>
        <time>2023-05-18T15:24:17+0200</time>
      </trkpt>
      <trkpt lat="44.96679" lon="6.57197">
        <ele>2234.8</ele>
        <time>2023-05-18T15:24:18+0200</time>
      </trkpt>
      <trkpt lat="44.96686" lon="6.57188">
        <ele>2235.1</ele>
        <time>2023-05-18T15:24:20+0200</time>
      </trkpt>
      <trkpt lat="44.96692" lon="6.57179">
        <ele>2235.5</ele>
        <time>2023-05-18T15:24:22+0200</time>
      </trkpt>
      <trkpt lat="44.96697" lon="6.57171">
        <ele>2236</ele>
        <time>2023-05-18T15:24:24+0200</time>
      </trkpt>
      <trkpt lat="44.96702" lon="6.57162">
        <ele>2236.8</ele>
        <time>2023-05-18T15:24:26+0200</time>
      </trkpt>
      <trkpt lat="44.96705" lon="6.57157">
        <ele>2237.2</ele>
        <time>2023-05-18T15:24:28+0200</time>
      </trkpt>
      <trkpt lat="44.96712" lon="6.57154">
        <ele>2240.1</ele>
        <time>2023-05-18T15:24:30+0200</time>
      </trkpt>
      <trkpt lat="44.96715" lon="6.57148">
        <ele>2240.2</ele>
        <time>2023-05-18T15:24:32+0200</time>
      </trkpt>
      <trkpt lat="44.96717" lon="6.57142">
        <ele>2240.4</ele>
        <time>2023-05-18T15:24:34+0200</time>
      </trkpt>
      <trkpt lat="44.9672" lon="6.57135">
        <ele>2240.5</ele>
        <time>2023-05-18T15:24:36+0200</time>
      </trkpt>
      <trkpt lat="44.96724" lon="6.57128">
        <ele>2241.2</ele>
        <time>2023-05-18T15:24:38+0200</time>
      </trkpt>
      <trkpt lat="44.96727" lon="6.57121">
        <ele>2241.9</ele>
        <time>2023-05-18T15:24:40+0200</time>
      </trkpt>
      <trkpt lat="44.96728" lon="6.57114">
        <ele>2241.7</ele>
        <time>2023-05-18T15:24:42+0200</time>
      </trkpt>
      <trkpt lat="44.96729" lon="6.57107">
        <ele>2241.8</ele>
        <time>2023-05-18T15:24:44+0200</time>
      </trkpt>
      <trkpt lat="44.96731" lon="6.57098">
        <ele>2242.8</ele>
        <time>2023-05-18T15:24:47+0200</time>
      </trkpt>
      <trkpt lat="44.96732" lon="6.57091">
        <ele>2242.8</ele>
        <time>2023-05-18T15:24:48+0200</time>
      </trkpt>
      <trkpt lat="44.96734" lon="6.57082">
        <ele>2243.4</ele>
        <time>2023-05-18T15:24:51+0200</time>
      </trkpt>
      <trkpt lat="44.96737" lon="6.57075">
        <ele>2244.6</ele>
        <time>2023-05-18T15:24:53+0200</time>
      </trkpt>
      <trkpt lat="44.96738" lon="6.57069">
        <ele>2244.3</ele>
        <time>2023-05-18T15:24:55+0200</time>
      </trkpt>
      <trkpt lat="44.9674" lon="6.57063">
        <ele>2244.9</ele>
        <time>2023-05-18T15:24:57+0200</time>
      </trkpt>
      <trkpt lat="44.96745" lon="6.57055">
        <ele>2246.3</ele>
        <time>2023-05-18T15:25:00+0200</time>
      </trkpt>
      <trkpt lat="44.96746" lon="6.57049">
        <ele>2246.3</ele>
        <time>2023-05-18T15:25:02+0200</time>
      </trkpt>
      <trkpt lat="44.96749" lon="6.57043">
        <ele>2247</ele>
        <time>2023-05-18T15:25:04+0200</time>
      </trkpt>
      <trkpt lat="44.96751" lon="6.57035">
        <ele>2247.4</ele>
        <time>2023-05-18T15:25:07+0200</time>
      </trkpt>
      <trkpt lat="44.96753" lon="6.57027">
        <ele>2247.9</ele>
        <time>2023-05-18T15:25:10+0200</time>
      </trkpt>
      <trkpt lat="44.96757" lon="6.5702">
        <ele>2249.6</ele>
        <time>2023-05-18T15:25:12+0200</time>
      </trkpt>
      <trkpt lat="44.96758" lon="6.57014">
        <ele>2249.6</ele>
        <time>2023-05-18T15:25:14+0200</time>
      </trkpt>
      <trkpt lat="44.96762" lon="6.57005">
        <ele>2250.6</ele>
        <time>2023-05-18T15:25:17+0200</time>
      </trkpt>
      <trkpt lat="44.96765" lon="6.56997">
        <ele>2251.6</ele>
        <time>2023-05-18T15:25:20+0200</time>
      </trkpt>
      <trkpt lat="44.96766" lon="6.56988">
        <ele>2251.3</ele>
        <time>2023-05-18T15:25:23+0200</time>
      </trkpt>
      <trkpt lat="44.96769" lon="6.56983">
        <ele>2252.2</ele>
        <time>2023-05-18T15:25:25+0200</time>
      </trkpt>
      <trkpt lat="44.9677" lon="6.56976">
        <ele>2251.5</ele>
        <time>2023-05-18T15:25:27+0200</time>
      </trkpt>
      <trkpt lat="44.96772" lon="6.56971">
        <ele>2251.8</ele>
        <time>2023-05-18T15:25:30+0200</time>
      </trkpt>
      <trkpt lat="44.96774" lon="6.56962">
        <ele>2251.9</ele>
        <time>2023-05-18T15:25:33+0200</time>
      </trkpt>
      <trkpt lat="44.96775" lon="6.56953">
        <ele>2251.6</ele>
        <time>2023-05-18T15:25:36+0200</time>
      </trkpt>
      <trkpt lat="44.96776" lon="6.56947">
        <ele>2251.4</ele>
        <time>2023-05-18T15:25:38+0200</time>
      </trkpt>
      <trkpt lat="44.96778" lon="6.5694">
        <ele>2252</ele>
        <time>2023-05-18T15:25:40+0200</time>
      </trkpt>
      <trkpt lat="44.9678" lon="6.56935">
        <ele>2252.4</ele>
        <time>2023-05-18T15:25:42+0200</time>
      </trkpt>
      <trkpt lat="44.9678" lon="6.56926">
        <ele>2251.7</ele>
        <time>2023-05-18T15:25:45+0200</time>
      </trkpt>
      <trkpt lat="44.96781" lon="6.5692">
        <ele>2251.5</ele>
        <time>2023-05-18T15:25:47+0200</time>
      </trkpt>
      <trkpt lat="44.96785" lon="6.56913">
        <ele>2252.5</ele>
        <time>2023-05-18T15:25:50+0200</time>
      </trkpt>
      <trkpt lat="44.96789" lon="6.56906">
        <ele>2253.2</ele>
        <time>2023-05-18T15:25:53+0200</time>
      </trkpt>
      <trkpt lat="44.96792" lon="6.569">
        <ele>2253.7</ele>
        <time>2023-05-18T15:25:55+0200</time>
      </trkpt>
      <trkpt lat="44.96793" lon="6.56893">
        <ele>2253.6</ele>
        <time>2023-05-18T15:25:57+0200</time>
      </trkpt>
      <trkpt lat="44.96796" lon="6.56888">
        <ele>2254.1</ele>
        <time>2023-05-18T15:25:59+0200</time>
      </trkpt>
      <trkpt lat="44.96801" lon="6.56881">
        <ele>2254.5</ele>
        <time>2023-05-18T15:26:02+0200</time>
      </trkpt>
      <trkpt lat="44.96804" lon="6.56874">
        <ele>2254.2</ele>
        <time>2023-05-18T15:26:04+0200</time>
      </trkpt>
      <trkpt lat="44.96808" lon="6.56869">
        <ele>2254.6</ele>
        <time>2023-05-18T15:26:06+0200</time>
      </trkpt>
      <trkpt lat="44.9681" lon="6.56861">
        <ele>2253.5</ele>
        <time>2023-05-18T15:26:08+0200</time>
      </trkpt>
      <trkpt lat="44.96815" lon="6.56858">
        <ele>2254.7</ele>
        <time>2023-05-18T15:26:10+0200</time>
      </trkpt>
      <trkpt lat="44.96821" lon="6.56854">
        <ele>2255.6</ele>
        <time>2023-05-18T15:26:13+0200</time>
      </trkpt>
      <trkpt lat="44.96825" lon="6.56851">
        <ele>2256.1</ele>
        <time>2023-05-18T15:26:15+0200</time>
      </trkpt>
      <trkpt lat="44.96829" lon="6.56846">
        <ele>2256.3</ele>
        <time>2023-05-18T15:26:19+0200</time>
      </trkpt>
      <trkpt lat="44.96836" lon="6.56844">
        <ele>2257.9</ele>
        <time>2023-05-18T15:26:23+0200</time>
      </trkpt>
      <trkpt lat="44.9684" lon="6.56844">
        <ele>2259.6</ele>
        <time>2023-05-18T15:26:25+0200</time>
      </trkpt>
      <trkpt lat="44.96845" lon="6.56841">
        <ele>2260.7</ele>
        <time>2023-05-18T15:26:28+0200</time>
      </trkpt>
      <trkpt lat="44.96849" lon="6.56836">
        <ele>2260.8</ele>
        <time>2023-05-18T15:26:31+0200</time>
      </trkpt>
      <trkpt lat="44.96853" lon="6.56828">
        <ele>2260.8</ele>
        <time>2023-05-18T15:26:34+0200</time>
      </trkpt>
      <trkpt lat="44.96858" lon="6.56822">
        <ele>2261.8</ele>
        <time>2023-05-18T15:26:37+0200</time>
      </trkpt>
      <trkpt lat="44.96861" lon="6.56815">
        <ele>2261.4</ele>
        <time>2023-05-18T15:26:40+0200</time>
      </trkpt>
      <trkpt lat="44.96862" lon="6.56808">
        <ele>2260.9</ele>
        <time>2023-05-18T15:26:43+0200</time>
      </trkpt>
      <trkpt lat="44.96865" lon="6.56801">
        <ele>2261.1</ele>
        <time>2023-05-18T15:26:46+0200</time>
      </trkpt>
      <trkpt lat="44.9687" lon="6.56796">
        <ele>2262.3</ele>
        <time>2023-05-18T15:26:49+0200</time>
      </trkpt>
      <trkpt lat="44.96874" lon="6.5679">
        <ele>2263.4</ele>
        <time>2023-05-18T15:26:52+0200</time>
      </trkpt>
      <trkpt lat="44.96879" lon="6.56785">
        <ele>2264.3</ele>
        <time>2023-05-18T15:26:55+0200</time>
      </trkpt>
      <trkpt lat="44.96883" lon="6.5678">
        <ele>2264.9</ele>
        <time>2023-05-18T15:26:57+0200</time>
      </trkpt>
      <trkpt lat="44.96888" lon="6.56777">
        <ele>2266.3</ele>
        <time>2023-05-18T15:27:00+0200</time>
      </trkpt>
      <trkpt lat="44.96892" lon="6.5677">
        <ele>2266.9</ele>
        <time>2023-05-18T15:27:03+0200</time>
      </trkpt>
      <trkpt lat="44.96897" lon="6.56765">
        <ele>2267.5</ele>
        <time>2023-05-18T15:27:06+0200</time>
      </trkpt>
      <trkpt lat="44.969" lon="6.56759">
        <ele>2267.4</ele>
        <time>2023-05-18T15:27:08+0200</time>
      </trkpt>
      <trkpt lat="44.96902" lon="6.56752">
        <ele>2266.7</ele>
        <time>2023-05-18T15:27:11+0200</time>
      </trkpt>
      <trkpt lat="44.96906" lon="6.56747">
        <ele>2267.1</ele>
        <time>2023-05-18T15:27:13+0200</time>
      </trkpt>
      <trkpt lat="44.9691" lon="6.5674">
        <ele>2267.2</ele>
        <time>2023-05-18T15:27:16+0200</time>
      </trkpt>
      <trkpt lat="44.96914" lon="6.56734">
        <ele>2267.7</ele>
        <time>2023-05-18T15:27:19+0200</time>
      </trkpt>
      <trkpt lat="44.96918" lon="6.56729">
        <ele>2268.1</ele>
        <time>2023-05-18T15:27:21+0200</time>
      </trkpt>
      <trkpt lat="44.96924" lon="6.56725">
        <ele>2269.6</ele>
        <time>2023-05-18T15:27:24+0200</time>
      </trkpt>
      <trkpt lat="44.9693" lon="6.56719">
        <ele>2270.4</ele>
        <time>2023-05-18T15:27:27+0200</time>
      </trkpt>
      <trkpt lat="44.96934" lon="6.56715">
        <ele>2271.1</ele>
        <time>2023-05-18T15:27:30+0200</time>
      </trkpt>
      <trkpt lat="44.96938" lon="6.5671">
        <ele>2271.2</ele>
        <time>2023-05-18T15:27:33+0200</time>
      </trkpt>
      <trkpt lat="44.96943" lon="6.56706">
        <ele>2271.7</ele>
        <time>2023-05-18T15:27:37+0200</time>
      </trkpt>
      <trkpt lat="44.96947" lon="6.567">
        <ele>2271.5</ele>
        <time>2023-05-18T15:27:40+0200</time>
      </trkpt>
      <trkpt lat="44.96951" lon="6.56696">
        <ele>2271.9</ele>
        <time>2023-05-18T15:27:43+0200</time>
      </trkpt>
      <trkpt lat="44.96956" lon="6.56692">
        <ele>2272.3</ele>
        <time>2023-05-18T15:27:46+0200</time>
      </trkpt>
      <trkpt lat="44.9696" lon="6.56688">
        <ele>2272.6</ele>
        <time>2023-05-18T15:27:48+0200</time>
      </trkpt>
      <trkpt lat="44.96965" lon="6.56683">
        <ele>2273</ele>
        <time>2023-05-18T15:27:51+0200</time>
      </trkpt>
      <trkpt lat="44.96971" lon="6.56678">
        <ele>2273.1</ele>
        <time>2023-05-18T15:27:54+0200</time>
      </trkpt>
      <trkpt lat="44.96975" lon="6.56675">
        <ele>2273.1</ele>
        <time>2023-05-18T15:27:56+0200</time>
      </trkpt>
      <trkpt lat="44.96981" lon="6.56671">
        <ele>2272.9</ele>
        <time>2023-05-18T15:27:59+0200</time>
      </trkpt>
      <trkpt lat="44.96986" lon="6.56669">
        <ele>2273.4</ele>
        <time>2023-05-18T15:28:01+0200</time>
      </trkpt>
      <trkpt lat="44.96993" lon="6.56666">
        <ele>2273.4</ele>
        <time>2023-05-18T15:28:04+0200</time>
      </trkpt>
      <trkpt lat="44.96998" lon="6.56665">
        <ele>2273.8</ele>
        <time>2023-05-18T15:28:06+0200</time>
      </trkpt>
      <trkpt lat="44.97004" lon="6.56665">
        <ele>2275.1</ele>
        <time>2023-05-18T15:28:09+0200</time>
      </trkpt>
      <trkpt lat="44.9701" lon="6.56663">
        <ele>2275.5</ele>
        <time>2023-05-18T15:28:12+0200</time>
      </trkpt>
      <trkpt lat="44.97016" lon="6.56663">
        <ele>2276.7</ele>
        <time>2023-05-18T15:28:15+0200</time>
      </trkpt>
      <trkpt lat="44.97021" lon="6.56662">
        <ele>2277</ele>
        <time>2023-05-18T15:28:18+0200</time>
      </trkpt>
      <trkpt lat="44.97025" lon="6.56659">
        <ele>2276.8</ele>
        <time>2023-05-18T15:28:20+0200</time>
      </trkpt>
      <trkpt lat="44.9703" lon="6.56657">
        <ele>2277.3</ele>
        <time>2023-05-18T15:28:23+0200</time>
      </trkpt>
      <trkpt lat="44.97036" lon="6.56655">
        <ele>2277.9</ele>
        <time>2023-05-18T15:28:26+0200</time>
      </trkpt>
      <trkpt lat="44.97042" lon="6.56653">
        <ele>2279</ele>
        <time>2023-05-18T15:28:29+0200</time>
      </trkpt>
      <trkpt lat="44.97048" lon="6.56651">
        <ele>2279.8</ele>
        <time>2023-05-18T15:28:32+0200</time>
      </trkpt>
      <trkpt lat="44.97054" lon="6.56649">
        <ele>2280.4</ele>
        <time>2023-05-18T15:28:35+0200</time>
      </trkpt>
      <trkpt lat="44.97059" lon="6.56648">
        <ele>2281.4</ele>
        <time>2023-05-18T15:28:38+0200</time>
      </trkpt>
      <trkpt lat="44.97065" lon="6.56645">
        <ele>2281.8</ele>
        <time>2023-05-18T15:28:41+0200</time>
      </trkpt>
      <trkpt lat="44.9707" lon="6.56641">
        <ele>2281.8</ele>
        <time>2023-05-18T15:28:44+0200</time>
      </trkpt>
      <trkpt lat="44.97076" lon="6.56641">
        <ele>2283.3</ele>
        <time>2023-05-18T15:28:47+0200</time>
      </trkpt>
      <trkpt lat="44.97082" lon="6.56639">
        <ele>2283.5</ele>
        <time>2023-05-18T15:28:50+0200</time>
      </trkpt>
      <trkpt lat="44.97087" lon="6.56636">
        <ele>2284.2</ele>
        <time>2023-05-18T15:28:52+0200</time>
      </trkpt>
      <trkpt lat="44.97093" lon="6.56633">
        <ele>2285.1</ele>
        <time>2023-05-18T15:28:55+0200</time>
      </trkpt>
      <trkpt lat="44.97098" lon="6.56631">
        <ele>2285.9</ele>
        <time>2023-05-18T15:28:58+0200</time>
      </trkpt>
      <trkpt lat="44.97103" lon="6.56628">
        <ele>2286.1</ele>
        <time>2023-05-18T15:29:01+0200</time>
      </trkpt>
      <trkpt lat="44.97108" lon="6.56624">
        <ele>2285.9</ele>
        <time>2023-05-18T15:29:04+0200</time>
      </trkpt>
      <trkpt lat="44.97113" lon="6.56622">
        <ele>2286.3</ele>
        <time>2023-05-18T15:29:07+0200</time>
      </trkpt>
      <trkpt lat="44.97118" lon="6.56619">
        <ele>2285</ele>
        <time>2023-05-18T15:29:10+0200</time>
      </trkpt>
      <trkpt lat="44.97124" lon="6.56617">
        <ele>2284.6</ele>
        <time>2023-05-18T15:29:13+0200</time>
      </trkpt>
      <trkpt lat="44.97129" lon="6.56616">
        <ele>2284.6</ele>
        <time>2023-05-18T15:29:16+0200</time>
      </trkpt>
      <trkpt lat="44.97134" lon="6.56618">
        <ele>2285.7</ele>
        <time>2023-05-18T15:29:19+0200</time>
      </trkpt>
      <trkpt lat="44.97139" lon="6.56622">
        <ele>2287.8</ele>
        <time>2023-05-18T15:29:22+0200</time>
      </trkpt>
      <trkpt lat="44.97144" lon="6.56626">
        <ele>2288.9</ele>
        <time>2023-05-18T15:29:27+0200</time>
      </trkpt>
      <trkpt lat="44.97149" lon="6.56632">
        <ele>2290.2</ele>
        <time>2023-05-18T15:29:30+0200</time>
      </trkpt>
      <trkpt lat="44.97153" lon="6.56636">
        <ele>2291.1</ele>
        <time>2023-05-18T15:29:32+0200</time>
      </trkpt>
      <trkpt lat="44.97157" lon="6.5664">
        <ele>2291.8</ele>
        <time>2023-05-18T15:29:34+0200</time>
      </trkpt>
      <trkpt lat="44.97162" lon="6.56644">
        <ele>2291.5</ele>
        <time>2023-05-18T15:29:37+0200</time>
      </trkpt>
      <trkpt lat="44.97167" lon="6.56647">
        <ele>2291.4</ele>
        <time>2023-05-18T15:29:41+0200</time>
      </trkpt>
      <trkpt lat="44.97172" lon="6.5665">
        <ele>2292.9</ele>
        <time>2023-05-18T15:29:44+0200</time>
      </trkpt>
      <trkpt lat="44.97178" lon="6.56649">
        <ele>2293.1</ele>
        <time>2023-05-18T15:29:47+0200</time>
      </trkpt>
      <trkpt lat="44.97183" lon="6.56648">
        <ele>2293.5</ele>
        <time>2023-05-18T15:29:50+0200</time>
      </trkpt>
      <trkpt lat="44.97186" lon="6.56643">
        <ele>2292.8</ele>
        <time>2023-05-18T15:30:06+0200</time>
      </trkpt>
      <trkpt lat="44.97193" lon="6.56639">
        <ele>2292.9</ele>
        <time>2023-05-18T15:30:09+0200</time>
      </trkpt>
      <trkpt lat="44.97196" lon="6.56631">
        <ele>2291.7</ele>
        <time>2023-05-18T15:30:12+0200</time>
      </trkpt>
      <trkpt lat="44.972" lon="6.56626">
        <ele>2292</ele>
        <time>2023-05-18T15:30:14+0200</time>
      </trkpt>
      <trkpt lat="44.97204" lon="6.56621">
        <ele>2292.5</ele>
        <time>2023-05-18T15:30:16+0200</time>
      </trkpt>
      <trkpt lat="44.97209" lon="6.56617">
        <ele>2293.5</ele>
        <time>2023-05-18T15:30:18+0200</time>
      </trkpt>
      <trkpt lat="44.97215" lon="6.56613">
        <ele>2295.2</ele>
        <time>2023-05-18T15:30:20+0200</time>
      </trkpt>
      <trkpt lat="44.9722" lon="6.56606">
        <ele>2295.6</ele>
        <time>2023-05-18T15:30:23+0200</time>
      </trkpt>
      <trkpt lat="44.97226" lon="6.56602">
        <ele>2297</ele>
        <time>2023-05-18T15:30:25+0200</time>
      </trkpt>
      <trkpt lat="44.97231" lon="6.56599">
        <ele>2298.3</ele>
        <time>2023-05-18T15:30:28+0200</time>
      </trkpt>
      <trkpt lat="44.97235" lon="6.56595">
        <ele>2299</ele>
        <time>2023-05-18T15:30:30+0200</time>
      </trkpt>
      <trkpt lat="44.97238" lon="6.56589">
        <ele>2299</ele>
        <time>2023-05-18T15:30:32+0200</time>
      </trkpt>
      <trkpt lat="44.97242" lon="6.56585">
        <ele>2299.9</ele>
        <time>2023-05-18T15:30:34+0200</time>
      </trkpt>
      <trkpt lat="44.97246" lon="6.56578">
        <ele>2299.7</ele>
        <time>2023-05-18T15:30:36+0200</time>
      </trkpt>
      <trkpt lat="44.97249" lon="6.56572">
        <ele>2299.7</ele>
        <time>2023-05-18T15:30:38+0200</time>
      </trkpt>
      <trkpt lat="44.97255" lon="6.56565">
        <ele>2300.4</ele>
        <time>2023-05-18T15:30:40+0200</time>
      </trkpt>
      <trkpt lat="44.97258" lon="6.56559">
        <ele>2300.5</ele>
        <time>2023-05-18T15:30:42+0200</time>
      </trkpt>
      <trkpt lat="44.97261" lon="6.56552">
        <ele>2300.4</ele>
        <time>2023-05-18T15:30:44+0200</time>
      </trkpt>
      <trkpt lat="44.97265" lon="6.56547">
        <ele>2301.3</ele>
        <time>2023-05-18T15:30:46+0200</time>
      </trkpt>
      <trkpt lat="44.97271" lon="6.56541">
        <ele>2302.7</ele>
        <time>2023-05-18T15:30:48+0200</time>
      </trkpt>
      <trkpt lat="44.97273" lon="6.56535">
        <ele>2302.8</ele>
        <time>2023-05-18T15:30:50+0200</time>
      </trkpt>
      <trkpt lat="44.97276" lon="6.5653">
        <ele>2303.6</ele>
        <time>2023-05-18T15:30:52+0200</time>
      </trkpt>
      <trkpt lat="44.9728" lon="6.56522">
        <ele>2303.5</ele>
        <time>2023-05-18T15:30:55+0200</time>
      </trkpt>
      <trkpt lat="44.97282" lon="6.56515">
        <ele>2302.6</ele>
        <time>2023-05-18T15:30:57+0200</time>
      </trkpt>
      <trkpt lat="44.97285" lon="6.5651">
        <ele>2302.8</ele>
        <time>2023-05-18T15:30:59+0200</time>
      </trkpt>
      <trkpt lat="44.97287" lon="6.56504">
        <ele>2302.2</ele>
        <time>2023-05-18T15:31:02+0200</time>
      </trkpt>
      <trkpt lat="44.97291" lon="6.56498">
        <ele>2303.2</ele>
        <time>2023-05-18T15:31:03+0200</time>
      </trkpt>
      <trkpt lat="44.97297" lon="6.56495">
        <ele>2305.2</ele>
        <time>2023-05-18T15:31:06+0200</time>
      </trkpt>
      <trkpt lat="44.97302" lon="6.56488">
        <ele>2305.2</ele>
        <time>2023-05-18T15:31:09+0200</time>
      </trkpt>
      <trkpt lat="44.97308" lon="6.56482">
        <ele>2305.8</ele>
        <time>2023-05-18T15:31:12+0200</time>
      </trkpt>
      <trkpt lat="44.97312" lon="6.56478">
        <ele>2305.4</ele>
        <time>2023-05-18T15:31:15+0200</time>
      </trkpt>
      <trkpt lat="44.97318" lon="6.56474">
        <ele>2305.7</ele>
        <time>2023-05-18T15:31:18+0200</time>
      </trkpt>
      <trkpt lat="44.97323" lon="6.5647">
        <ele>2305.6</ele>
        <time>2023-05-18T15:31:21+0200</time>
      </trkpt>
      <trkpt lat="44.97327" lon="6.56467">
        <ele>2306</ele>
        <time>2023-05-18T15:31:24+0200</time>
      </trkpt>
      <trkpt lat="44.97333" lon="6.56465">
        <ele>2307.1</ele>
        <time>2023-05-18T15:31:27+0200</time>
      </trkpt>
      <trkpt lat="44.97338" lon="6.56464">
        <ele>2307.7</ele>
        <time>2023-05-18T15:31:29+0200</time>
      </trkpt>
      <trkpt lat="44.97342" lon="6.56463">
        <ele>2308.5</ele>
        <time>2023-05-18T15:31:31+0200</time>
      </trkpt>
      <trkpt lat="44.97349" lon="6.56461">
        <ele>2309.4</ele>
        <time>2023-05-18T15:31:34+0200</time>
      </trkpt>
      <trkpt lat="44.97354" lon="6.56456">
        <ele>2309.1</ele>
        <time>2023-05-18T15:31:36+0200</time>
      </trkpt>
      <trkpt lat="44.97359" lon="6.56449">
        <ele>2308.6</ele>
        <time>2023-05-18T15:31:39+0200</time>
      </trkpt>
      <trkpt lat="44.97363" lon="6.56444">
        <ele>2308.7</ele>
        <time>2023-05-18T15:31:41+0200</time>
      </trkpt>
      <trkpt lat="44.97366" lon="6.56437">
        <ele>2308.5</ele>
        <time>2023-05-18T15:31:44+0200</time>
      </trkpt>
      <trkpt lat="44.9737" lon="6.56433">
        <ele>2309.1</ele>
        <time>2023-05-18T15:31:47+0200</time>
      </trkpt>
      <trkpt lat="44.97375" lon="6.56429">
        <ele>2309.9</ele>
        <time>2023-05-18T15:31:50+0200</time>
      </trkpt>
      <trkpt lat="44.9738" lon="6.56422">
        <ele>2309.7</ele>
        <time>2023-05-18T15:31:53+0200</time>
      </trkpt>
      <trkpt lat="44.97383" lon="6.56417">
        <ele>2309.4</ele>
        <time>2023-05-18T15:31:55+0200</time>
      </trkpt>
      <trkpt lat="44.97388" lon="6.56416">
        <ele>2310.6</ele>
        <time>2023-05-18T15:31:57+0200</time>
      </trkpt>
      <trkpt lat="44.97394" lon="6.5641">
        <ele>2311.7</ele>
        <time>2023-05-18T15:32:00+0200</time>
      </trkpt>
      <trkpt lat="44.97399" lon="6.56406">
        <ele>2313</ele>
        <time>2023-05-18T15:32:03+0200</time>
      </trkpt>
      <trkpt lat="44.97403" lon="6.56399">
        <ele>2313.2</ele>
        <time>2023-05-18T15:32:06+0200</time>
      </trkpt>
      <trkpt lat="44.97406" lon="6.56394">
        <ele>2313.6</ele>
        <time>2023-05-18T15:32:08+0200</time>
      </trkpt>
      <trkpt lat="44.97408" lon="6.56388">
        <ele>2313.1</ele>
        <time>2023-05-18T15:32:11+0200</time>
      </trkpt>
      <trkpt lat="44.97411" lon="6.56384">
        <ele>2313.5</ele>
        <time>2023-05-18T15:32:13+0200</time>
      </trkpt>
      <trkpt lat="44.97414" lon="6.56378">
        <ele>2313.7</ele>
        <time>2023-05-18T15:32:15+0200</time>
      </trkpt>
      <trkpt lat="44.97417" lon="6.56369">
        <ele>2313</ele>
        <time>2023-05-18T15:32:18+0200</time>
      </trkpt>
      <trkpt lat="44.97421" lon="6.56366">
        <ele>2314.5</ele>
        <time>2023-05-18T15:32:20+0200</time>
      </trkpt>
      <trkpt lat="44.97426" lon="6.5636">
        <ele>2315.9</ele>
        <time>2023-05-18T15:32:23+0200</time>
      </trkpt>
      <trkpt lat="44.97429" lon="6.56354">
        <ele>2316.6</ele>
        <time>2023-05-18T15:32:26+0200</time>
      </trkpt>
      <trkpt lat="44.97434" lon="6.56347">
        <ele>2317.5</ele>
        <time>2023-05-18T15:32:29+0200</time>
      </trkpt>
      <trkpt lat="44.97438" lon="6.56339">
        <ele>2317.8</ele>
        <time>2023-05-18T15:32:32+0200</time>
      </trkpt>
      <trkpt lat="44.97439" lon="6.5633">
        <ele>2316.8</ele>
        <time>2023-05-18T15:32:35+0200</time>
      </trkpt>
      <trkpt lat="44.97442" lon="6.56322">
        <ele>2317.3</ele>
        <time>2023-05-18T15:32:38+0200</time>
      </trkpt>
      <trkpt lat="44.97445" lon="6.56314">
        <ele>2317.5</ele>
        <time>2023-05-18T15:32:41+0200</time>
      </trkpt>
      <trkpt lat="44.97448" lon="6.56307">
        <ele>2317.9</ele>
        <time>2023-05-18T15:32:44+0200</time>
      </trkpt>
      <trkpt lat="44.97451" lon="6.56299">
        <ele>2318.6</ele>
        <time>2023-05-18T15:32:47+0200</time>
      </trkpt>
      <trkpt lat="44.97453" lon="6.56294">
        <ele>2319.2</ele>
        <time>2023-05-18T15:32:49+0200</time>
      </trkpt>
      <trkpt lat="44.97455" lon="6.56288">
        <ele>2319.4</ele>
        <time>2023-05-18T15:32:51+0200</time>
      </trkpt>
      <trkpt lat="44.97459" lon="6.56282">
        <ele>2320.5</ele>
        <time>2023-05-18T15:32:54+0200</time>
      </trkpt>
      <trkpt lat="44.97462" lon="6.56276">
        <ele>2320.9</ele>
        <time>2023-05-18T15:32:56+0200</time>
      </trkpt>
      <trkpt lat="44.97466" lon="6.56269">
        <ele>2321.2</ele>
        <time>2023-05-18T15:32:58+0200</time>
      </trkpt>
      <trkpt lat="44.97469" lon="6.5626">
        <ele>2320.7</ele>
        <time>2023-05-18T15:33:01+0200</time>
      </trkpt>
      <trkpt lat="44.97472" lon="6.56253">
        <ele>2320.3</ele>
        <time>2023-05-18T15:33:03+0200</time>
      </trkpt>
      <trkpt lat="44.97475" lon="6.56248">
        <ele>2320.7</ele>
        <time>2023-05-18T15:33:05+0200</time>
      </trkpt>
      <trkpt lat="44.9748" lon="6.56244">
        <ele>2321.6</ele>
        <time>2023-05-18T15:33:06+0200</time>
      </trkpt>
      <trkpt lat="44.97486" lon="6.56242">
        <ele>2322.9</ele>
        <time>2023-05-18T15:33:08+0200</time>
      </trkpt>
      <trkpt lat="44.97489" lon="6.56237">
        <ele>2323</ele>
        <time>2023-05-18T15:33:10+0200</time>
      </trkpt>
      <trkpt lat="44.97494" lon="6.56233">
        <ele>2323.5</ele>
        <time>2023-05-18T15:33:12+0200</time>
      </trkpt>
      <trkpt lat="44.97499" lon="6.5623">
        <ele>2324.2</ele>
        <time>2023-05-18T15:33:14+0200</time>
      </trkpt>
      <trkpt lat="44.97504" lon="6.56227">
        <ele>2324.6</ele>
        <time>2023-05-18T15:33:16+0200</time>
      </trkpt>
      <trkpt lat="44.97508" lon="6.56223">
        <ele>2324.5</ele>
        <time>2023-05-18T15:33:18+0200</time>
      </trkpt>
      <trkpt lat="44.97512" lon="6.56219">
        <ele>2324.4</ele>
        <time>2023-05-18T15:33:20+0200</time>
      </trkpt>
      <trkpt lat="44.97516" lon="6.56216">
        <ele>2324.2</ele>
        <time>2023-05-18T15:33:22+0200</time>
      </trkpt>
      <trkpt lat="44.97521" lon="6.56214">
        <ele>2325</ele>
        <time>2023-05-18T15:33:24+0200</time>
      </trkpt>
      <trkpt lat="44.97527" lon="6.56211">
        <ele>2325.6</ele>
        <time>2023-05-18T15:33:27+0200</time>
      </trkpt>
      <trkpt lat="44.97532" lon="6.56208">
        <ele>2325.5</ele>
        <time>2023-05-18T15:33:29+0200</time>
      </trkpt>
      <trkpt lat="44.97538" lon="6.56206">
        <ele>2325.5</ele>
        <time>2023-05-18T15:33:32+0200</time>
      </trkpt>
      <trkpt lat="44.97544" lon="6.56204">
        <ele>2325.7</ele>
        <time>2023-05-18T15:33:34+0200</time>
      </trkpt>
      <trkpt lat="44.97549" lon="6.56204">
        <ele>2326.3</ele>
        <time>2023-05-18T15:33:36+0200</time>
      </trkpt>
      <trkpt lat="44.97556" lon="6.56203">
        <ele>2327.1</ele>
        <time>2023-05-18T15:33:39+0200</time>
      </trkpt>
      <trkpt lat="44.97561" lon="6.56204">
        <ele>2328.9</ele>
        <time>2023-05-18T15:33:41+0200</time>
      </trkpt>
      <trkpt lat="44.97566" lon="6.56203">
        <ele>2330.4</ele>
        <time>2023-05-18T15:33:43+0200</time>
      </trkpt>
      <trkpt lat="44.9757" lon="6.56198">
        <ele>2330.4</ele>
        <time>2023-05-18T15:33:45+0200</time>
      </trkpt>
      <trkpt lat="44.97573" lon="6.56192">
        <ele>2330</ele>
        <time>2023-05-18T15:33:47+0200</time>
      </trkpt>
      <trkpt lat="44.97575" lon="6.56184">
        <ele>2329.5</ele>
        <time>2023-05-18T15:33:49+0200</time>
      </trkpt>
      <trkpt lat="44.97577" lon="6.56178">
        <ele>2329</ele>
        <time>2023-05-18T15:33:51+0200</time>
      </trkpt>
      <trkpt lat="44.9758" lon="6.56171">
        <ele>2329.2</ele>
        <time>2023-05-18T15:33:55+0200</time>
      </trkpt>
      <trkpt lat="44.97582" lon="6.56165">
        <ele>2329.2</ele>
        <time>2023-05-18T15:33:57+0200</time>
      </trkpt>
      <trkpt lat="44.97586" lon="6.5616">
        <ele>2330.1</ele>
        <time>2023-05-18T15:34:00+0200</time>
      </trkpt>
      <trkpt lat="44.9759" lon="6.56155">
        <ele>2331</ele>
        <time>2023-05-18T15:34:03+0200</time>
      </trkpt>
      <trkpt lat="44.97594" lon="6.56152">
        <ele>2332.4</ele>
        <time>2023-05-18T15:34:05+0200</time>
      </trkpt>
      <trkpt lat="44.97595" lon="6.56145">
        <ele>2331.1</ele>
        <time>2023-05-18T15:34:07+0200</time>
      </trkpt>
      <trkpt lat="44.97597" lon="6.56139">
        <ele>2330.7</ele>
        <time>2023-05-18T15:34:09+0200</time>
      </trkpt>
      <trkpt lat="44.97602" lon="6.56134">
        <ele>2331.8</ele>
        <time>2023-05-18T15:34:12+0200</time>
      </trkpt>
      <trkpt lat="44.97605" lon="6.56127">
        <ele>2332.4</ele>
        <time>2023-05-18T15:34:15+0200</time>
      </trkpt>
      <trkpt lat="44.97607" lon="6.56119">
        <ele>2332.6</ele>
        <time>2023-05-18T15:34:18+0200</time>
      </trkpt>
      <trkpt lat="44.97608" lon="6.56111">
        <ele>2332.1</ele>
        <time>2023-05-18T15:34:21+0200</time>
      </trkpt>
      <trkpt lat="44.97611" lon="6.56104">
        <ele>2332.6</ele>
        <time>2023-05-18T15:34:24+0200</time>
      </trkpt>
      <trkpt lat="44.97616" lon="6.56099">
        <ele>2333.8</ele>
        <time>2023-05-18T15:34:27+0200</time>
      </trkpt>
      <trkpt lat="44.97621" lon="6.56096">
        <ele>2335.1</ele>
        <time>2023-05-18T15:34:30+0200</time>
      </trkpt>
      <trkpt lat="44.97625" lon="6.56088">
        <ele>2335.6</ele>
        <time>2023-05-18T15:34:33+0200</time>
      </trkpt>
      <trkpt lat="44.97629" lon="6.56082">
        <ele>2335.9</ele>
        <time>2023-05-18T15:34:36+0200</time>
      </trkpt>
      <trkpt lat="44.97634" lon="6.56077">
        <ele>2336.6</ele>
        <time>2023-05-18T15:34:40+0200</time>
      </trkpt>
      <trkpt lat="44.97639" lon="6.56072">
        <ele>2337</ele>
        <time>2023-05-18T15:34:43+0200</time>
      </trkpt>
      <trkpt lat="44.97643" lon="6.56066">
        <ele>2337.5</ele>
        <time>2023-05-18T15:34:46+0200</time>
      </trkpt>
      <trkpt lat="44.97647" lon="6.56059">
        <ele>2337.3</ele>
        <time>2023-05-18T15:34:49+0200</time>
      </trkpt>
      <trkpt lat="44.97651" lon="6.56055">
        <ele>2338</ele>
        <time>2023-05-18T15:34:52+0200</time>
      </trkpt>
      <trkpt lat="44.97655" lon="6.56049">
        <ele>2337.9</ele>
        <time>2023-05-18T15:34:55+0200</time>
      </trkpt>
      <trkpt lat="44.9766" lon="6.56045">
        <ele>2338.4</ele>
        <time>2023-05-18T15:34:58+0200</time>
      </trkpt>
      <trkpt lat="44.97665" lon="6.56039">
        <ele>2338.4</ele>
        <time>2023-05-18T15:35:01+0200</time>
      </trkpt>
      <trkpt lat="44.9767" lon="6.56036">
        <ele>2338.4</ele>
        <time>2023-05-18T15:35:04+0200</time>
      </trkpt>
      <trkpt lat="44.97675" lon="6.56035">
        <ele>2338.4</ele>
        <time>2023-05-18T15:35:07+0200</time>
      </trkpt>
      <trkpt lat="44.9768" lon="6.56035">
        <ele>2338.9</ele>
        <time>2023-05-18T15:35:10+0200</time>
      </trkpt>
      <trkpt lat="44.97687" lon="6.56036">
        <ele>2339.5</ele>
        <time>2023-05-18T15:35:13+0200</time>
      </trkpt>
      <trkpt lat="44.97692" lon="6.56038">
        <ele>2340.7</ele>
        <time>2023-05-18T15:35:16+0200</time>
      </trkpt>
      <trkpt lat="44.97698" lon="6.56041">
        <ele>2341.6</ele>
        <time>2023-05-18T15:35:18+0200</time>
      </trkpt>
      <trkpt lat="44.97704" lon="6.56041">
        <ele>2341</ele>
        <time>2023-05-18T15:35:21+0200</time>
      </trkpt>
      <trkpt lat="44.97708" lon="6.56044">
        <ele>2341.9</ele>
        <time>2023-05-18T15:35:24+0200</time>
      </trkpt>
      <trkpt lat="44.97712" lon="6.5605">
        <ele>2343.7</ele>
        <time>2023-05-18T15:35:27+0200</time>
      </trkpt>
      <trkpt lat="44.97716" lon="6.56053">
        <ele>2344.7</ele>
        <time>2023-05-18T15:35:30+0200</time>
      </trkpt>
      <trkpt lat="44.97721" lon="6.56057">
        <ele>2345.9</ele>
        <time>2023-05-18T15:35:33+0200</time>
      </trkpt>
      <trkpt lat="44.97725" lon="6.56061">
        <ele>2347.1</ele>
        <time>2023-05-18T15:35:36+0200</time>
      </trkpt>
      <trkpt lat="44.9773" lon="6.56063">
        <ele>2347.5</ele>
        <time>2023-05-18T15:35:39+0200</time>
      </trkpt>
      <trkpt lat="44.97735" lon="6.56068">
        <ele>2348.9</ele>
        <time>2023-05-18T15:35:42+0200</time>
      </trkpt>
      <trkpt lat="44.9774" lon="6.56072">
        <ele>2349.8</ele>
        <time>2023-05-18T15:35:45+0200</time>
      </trkpt>
      <trkpt lat="44.97745" lon="6.56076">
        <ele>2351.3</ele>
        <time>2023-05-18T15:35:48+0200</time>
      </trkpt>
      <trkpt lat="44.9775" lon="6.5608">
        <ele>2352.4</ele>
        <time>2023-05-18T15:35:51+0200</time>
      </trkpt>
      <trkpt lat="44.97756" lon="6.56082">
        <ele>2351.6</ele>
        <time>2023-05-18T15:35:54+0200</time>
      </trkpt>
      <trkpt lat="44.97761" lon="6.56086">
        <ele>2352.3</ele>
        <time>2023-05-18T15:35:57+0200</time>
      </trkpt>
      <trkpt lat="44.97765" lon="6.56091">
        <ele>2353</ele>
        <time>2023-05-18T15:36:01+0200</time>
      </trkpt>
      <trkpt lat="44.9777" lon="6.56094">
        <ele>2353.3</ele>
        <time>2023-05-18T15:36:04+0200</time>
      </trkpt>
      <trkpt lat="44.97776" lon="6.56096">
        <ele>2352</ele>
        <time>2023-05-18T15:36:07+0200</time>
      </trkpt>
      <trkpt lat="44.97781" lon="6.56099">
        <ele>2352.4</ele>
        <time>2023-05-18T15:36:10+0200</time>
      </trkpt>
      <trkpt lat="44.97785" lon="6.56102">
        <ele>2353.4</ele>
        <time>2023-05-18T15:36:13+0200</time>
      </trkpt>
      <trkpt lat="44.97791" lon="6.56103">
        <ele>2353.3</ele>
        <time>2023-05-18T15:36:16+0200</time>
      </trkpt>
      <trkpt lat="44.97796" lon="6.56105">
        <ele>2353.5</ele>
        <time>2023-05-18T15:36:19+0200</time>
      </trkpt>
      <trkpt lat="44.97802" lon="6.56108">
        <ele>2354.1</ele>
        <time>2023-05-18T15:36:22+0200</time>
      </trkpt>
      <trkpt lat="44.97806" lon="6.5611">
        <ele>2354.5</ele>
        <time>2023-05-18T15:36:25+0200</time>
      </trkpt>
      <trkpt lat="44.97811" lon="6.5611">
        <ele>2355.4</ele>
        <time>2023-05-18T15:36:27+0200</time>
      </trkpt>
      <trkpt lat="44.97816" lon="6.56108">
        <ele>2355.2</ele>
        <time>2023-05-18T15:36:30+0200</time>
      </trkpt>
      <trkpt lat="44.97821" lon="6.56109">
        <ele>2356.1</ele>
        <time>2023-05-18T15:36:33+0200</time>
      </trkpt>
      <trkpt lat="44.97828" lon="6.56108">
        <ele>2357</ele>
        <time>2023-05-18T15:36:37+0200</time>
      </trkpt>
      <trkpt lat="44.97835" lon="6.56107">
        <ele>2357.4</ele>
        <time>2023-05-18T15:36:40+0200</time>
      </trkpt>
      <trkpt lat="44.9784" lon="6.5611">
        <ele>2359.1</ele>
        <time>2023-05-18T15:36:43+0200</time>
      </trkpt>
      <trkpt lat="44.97846" lon="6.5611">
        <ele>2359.9</ele>
        <time>2023-05-18T15:36:46+0200</time>
      </trkpt>
      <trkpt lat="44.97851" lon="6.56109">
        <ele>2359.8</ele>
        <time>2023-05-18T15:36:48+0200</time>
      </trkpt>
      <trkpt lat="44.97857" lon="6.56107">
        <ele>2359.7</ele>
        <time>2023-05-18T15:36:52+0200</time>
      </trkpt>
      <trkpt lat="44.97861" lon="6.56106">
        <ele>2359.6</ele>
        <time>2023-05-18T15:36:55+0200</time>
      </trkpt>
      <trkpt lat="44.97866" lon="6.56107">
        <ele>2361</ele>
        <time>2023-05-18T15:36:58+0200</time>
      </trkpt>
      <trkpt lat="44.97872" lon="6.56106">
        <ele>2361.8</ele>
        <time>2023-05-18T15:37:01+0200</time>
      </trkpt>
      <trkpt lat="44.97876" lon="6.56105">
        <ele>2362</ele>
        <time>2023-05-18T15:37:04+0200</time>
      </trkpt>
      <trkpt lat="44.97882" lon="6.56105">
        <ele>2363.5</ele>
        <time>2023-05-18T15:37:08+0200</time>
      </trkpt>
      <trkpt lat="44.97887" lon="6.56105">
        <ele>2364.2</ele>
        <time>2023-05-18T15:37:11+0200</time>
      </trkpt>
      <trkpt lat="44.97892" lon="6.56103">
        <ele>2364.5</ele>
        <time>2023-05-18T15:37:15+0200</time>
      </trkpt>
      <trkpt lat="44.97897" lon="6.56102">
        <ele>2365</ele>
        <time>2023-05-18T15:37:17+0200</time>
      </trkpt>
      <trkpt lat="44.97903" lon="6.561">
        <ele>2365.1</ele>
        <time>2023-05-18T15:37:20+0200</time>
      </trkpt>
      <trkpt lat="44.97909" lon="6.561">
        <ele>2366.1</ele>
        <time>2023-05-18T15:37:24+0200</time>
      </trkpt>
      <trkpt lat="44.97914" lon="6.56098">
        <ele>2366.3</ele>
        <time>2023-05-18T15:37:27+0200</time>
      </trkpt>
      <trkpt lat="44.97919" lon="6.56096">
        <ele>2366.5</ele>
        <time>2023-05-18T15:37:30+0200</time>
      </trkpt>
      <trkpt lat="44.97924" lon="6.56094">
        <ele>2366.7</ele>
        <time>2023-05-18T15:37:33+0200</time>
      </trkpt>
      <trkpt lat="44.97928" lon="6.56094">
        <ele>2367.6</ele>
        <time>2023-05-18T15:37:35+0200</time>
      </trkpt>
      <trkpt lat="44.97933" lon="6.56092">
        <ele>2368</ele>
        <time>2023-05-18T15:37:38+0200</time>
      </trkpt>
      <trkpt lat="44.97938" lon="6.5609">
        <ele>2368</ele>
        <time>2023-05-18T15:37:41+0200</time>
      </trkpt>
      <trkpt lat="44.97944" lon="6.56088">
        <ele>2368.5</ele>
        <time>2023-05-18T15:37:44+0200</time>
      </trkpt>
      <trkpt lat="44.97949" lon="6.56086">
        <ele>2369</ele>
        <time>2023-05-18T15:37:47+0200</time>
      </trkpt>
      <trkpt lat="44.97954" lon="6.56084">
        <ele>2369.6</ele>
        <time>2023-05-18T15:37:50+0200</time>
      </trkpt>
      <trkpt lat="44.97959" lon="6.56082">
        <ele>2370.1</ele>
        <time>2023-05-18T15:37:53+0200</time>
      </trkpt>
      <trkpt lat="44.97964" lon="6.56077">
        <ele>2369.8</ele>
        <time>2023-05-18T15:37:56+0200</time>
      </trkpt>
      <trkpt lat="44.9797" lon="6.56073">
        <ele>2370</ele>
        <time>2023-05-18T15:37:59+0200</time>
      </trkpt>
      <trkpt lat="44.97974" lon="6.56071">
        <ele>2370.7</ele>
        <time>2023-05-18T15:38:01+0200</time>
      </trkpt>
      <trkpt lat="44.97979" lon="6.56066">
        <ele>2370.8</ele>
        <time>2023-05-18T15:38:05+0200</time>
      </trkpt>
      <trkpt lat="44.97982" lon="6.5606">
        <ele>2369.5</ele>
        <time>2023-05-18T15:38:08+0200</time>
      </trkpt>
      <trkpt lat="44.97986" lon="6.56055">
        <ele>2369.4</ele>
        <time>2023-05-18T15:38:10+0200</time>
      </trkpt>
      <trkpt lat="44.9799" lon="6.56049">
        <ele>2369.2</ele>
        <time>2023-05-18T15:38:13+0200</time>
      </trkpt>
      <trkpt lat="44.97995" lon="6.56044">
        <ele>2369.5</ele>
        <time>2023-05-18T15:38:16+0200</time>
      </trkpt>
      <trkpt lat="44.97999" lon="6.56044">
        <ele>2371.4</ele>
        <time>2023-05-18T15:38:19+0200</time>
      </trkpt>
      <trkpt lat="44.98005" lon="6.56041">
        <ele>2371.5</ele>
        <time>2023-05-18T15:38:22+0200</time>
      </trkpt>
      <trkpt lat="44.98009" lon="6.56043">
        <ele>2373.1</ele>
        <time>2023-05-18T15:38:25+0200</time>
      </trkpt>
      <trkpt lat="44.98015" lon="6.56041">
        <ele>2373.8</ele>
        <time>2023-05-18T15:38:28+0200</time>
      </trkpt>
      <trkpt lat="44.98021" lon="6.5604">
        <ele>2374.7</ele>
        <time>2023-05-18T15:38:31+0200</time>
      </trkpt>
      <trkpt lat="44.98025" lon="6.56038">
        <ele>2374.8</ele>
        <time>2023-05-18T15:38:33+0200</time>
      </trkpt>
      <trkpt lat="44.98031" lon="6.56035">
        <ele>2375.2</ele>
        <time>2023-05-18T15:38:36+0200</time>
      </trkpt>
      <trkpt lat="44.98036" lon="6.56032">
        <ele>2375.4</ele>
        <time>2023-05-18T15:38:38+0200</time>
      </trkpt>
      <trkpt lat="44.98042" lon="6.56028">
        <ele>2375.7</ele>
        <time>2023-05-18T15:38:41+0200</time>
      </trkpt>
      <trkpt lat="44.98046" lon="6.56025">
        <ele>2375.8</ele>
        <time>2023-05-18T15:38:44+0200</time>
      </trkpt>
      <trkpt lat="44.98051" lon="6.56021">
        <ele>2376</ele>
        <time>2023-05-18T15:38:47+0200</time>
      </trkpt>
      <trkpt lat="44.98055" lon="6.56015">
        <ele>2375.4</ele>
        <time>2023-05-18T15:38:50+0200</time>
      </trkpt>
      <trkpt lat="44.98059" lon="6.5601">
        <ele>2375.9</ele>
        <time>2023-05-18T15:38:53+0200</time>
      </trkpt>
      <trkpt lat="44.98064" lon="6.56006">
        <ele>2376.6</ele>
        <time>2023-05-18T15:38:56+0200</time>
      </trkpt>
      <trkpt lat="44.98067" lon="6.56001">
        <ele>2376.7</ele>
        <time>2023-05-18T15:38:59+0200</time>
      </trkpt>
      <trkpt lat="44.98072" lon="6.55996">
        <ele>2377.2</ele>
        <time>2023-05-18T15:39:02+0200</time>
      </trkpt>
      <trkpt lat="44.98076" lon="6.55993">
        <ele>2378</ele>
        <time>2023-05-18T15:39:04+0200</time>
      </trkpt>
      <trkpt lat="44.98081" lon="6.5599">
        <ele>2379.1</ele>
        <time>2023-05-18T15:39:07+0200</time>
      </trkpt>
      <trkpt lat="44.98085" lon="6.55987">
        <ele>2379.8</ele>
        <time>2023-05-18T15:39:10+0200</time>
      </trkpt>
      <trkpt lat="44.9809" lon="6.55983">
        <ele>2380.4</ele>
        <time>2023-05-18T15:39:13+0200</time>
      </trkpt>
      <trkpt lat="44.98095" lon="6.5598">
        <ele>2381.3</ele>
        <time>2023-05-18T15:39:16+0200</time>
      </trkpt>
      <trkpt lat="44.98099" lon="6.55976">
        <ele>2381.8</ele>
        <time>2023-05-18T15:39:19+0200</time>
      </trkpt>
      <trkpt lat="44.98105" lon="6.55972">
        <ele>2382.5</ele>
        <time>2023-05-18T15:39:22+0200</time>
      </trkpt>
      <trkpt lat="44.98109" lon="6.55969">
        <ele>2383</ele>
        <time>2023-05-18T15:39:24+0200</time>
      </trkpt>
      <trkpt lat="44.98113" lon="6.55965">
        <ele>2383</ele>
        <time>2023-05-18T15:39:28+0200</time>
      </trkpt>
      <trkpt lat="44.98118" lon="6.55962">
        <ele>2383.1</ele>
        <time>2023-05-18T15:39:31+0200</time>
      </trkpt>
      <trkpt lat="44.98122" lon="6.55959">
        <ele>2383</ele>
        <time>2023-05-18T15:39:34+0200</time>
      </trkpt>
      <trkpt lat="44.98128" lon="6.55956">
        <ele>2383.4</ele>
        <time>2023-05-18T15:39:37+0200</time>
      </trkpt>
      <trkpt lat="44.98133" lon="6.55952">
        <ele>2383.2</ele>
        <time>2023-05-18T15:39:41+0200</time>
      </trkpt>
      <trkpt lat="44.98138" lon="6.55947">
        <ele>2382.8</ele>
        <time>2023-05-18T15:39:44+0200</time>
      </trkpt>
      <trkpt lat="44.98144" lon="6.55946">
        <ele>2383.5</ele>
        <time>2023-05-18T15:39:48+0200</time>
      </trkpt>
      <trkpt lat="44.98149" lon="6.55945">
        <ele>2384.3</ele>
        <time>2023-05-18T15:39:52+0200</time>
      </trkpt>
      <trkpt lat="44.98153" lon="6.55943">
        <ele>2384.6</ele>
        <time>2023-05-18T15:39:55+0200</time>
      </trkpt>
      <trkpt lat="44.98159" lon="6.55941">
        <ele>2385.3</ele>
        <time>2023-05-18T15:39:59+0200</time>
      </trkpt>
      <trkpt lat="44.98164" lon="6.55939">
        <ele>2385.7</ele>
        <time>2023-05-18T15:40:02+0200</time>
      </trkpt>
      <trkpt lat="44.98168" lon="6.55937">
        <ele>2386</ele>
        <time>2023-05-18T15:40:05+0200</time>
      </trkpt>
      <trkpt lat="44.98175" lon="6.55935">
        <ele>2387.2</ele>
        <time>2023-05-18T15:40:08+0200</time>
      </trkpt>
      <trkpt lat="44.98181" lon="6.55934">
        <ele>2388.3</ele>
        <time>2023-05-18T15:40:13+0200</time>
      </trkpt>
      <trkpt lat="44.98186" lon="6.5593">
        <ele>2388.2</ele>
        <time>2023-05-18T15:40:16+0200</time>
      </trkpt>
      <trkpt lat="44.98192" lon="6.55928">
        <ele>2389</ele>
        <time>2023-05-18T15:40:19+0200</time>
      </trkpt>
      <trkpt lat="44.98197" lon="6.55927">
        <ele>2389.8</ele>
        <time>2023-05-18T15:40:22+0200</time>
      </trkpt>
      <trkpt lat="44.98203" lon="6.55926">
        <ele>2390.7</ele>
        <time>2023-05-18T15:40:25+0200</time>
      </trkpt>
      <trkpt lat="44.98207" lon="6.55924">
        <ele>2391.1</ele>
        <time>2023-05-18T15:40:28+0200</time>
      </trkpt>
      <trkpt lat="44.98212" lon="6.55921">
        <ele>2391</ele>
        <time>2023-05-18T15:40:31+0200</time>
      </trkpt>
      <trkpt lat="44.98217" lon="6.55917">
        <ele>2390.8</ele>
        <time>2023-05-18T15:40:34+0200</time>
      </trkpt>
      <trkpt lat="44.98222" lon="6.55916">
        <ele>2391.7</ele>
        <time>2023-05-18T15:40:37+0200</time>
      </trkpt>
      <trkpt lat="44.98227" lon="6.55915">
        <ele>2392.4</ele>
        <time>2023-05-18T15:40:41+0200</time>
      </trkpt>
      <trkpt lat="44.98231" lon="6.55912">
        <ele>2392.6</ele>
        <time>2023-05-18T15:40:44+0200</time>
      </trkpt>
      <trkpt lat="44.98236" lon="6.5591">
        <ele>2393</ele>
        <time>2023-05-18T15:40:47+0200</time>
      </trkpt>
      <trkpt lat="44.98242" lon="6.55909">
        <ele>2394.1</ele>
        <time>2023-05-18T15:40:51+0200</time>
      </trkpt>
      <trkpt lat="44.98248" lon="6.55905">
        <ele>2394.3</ele>
        <time>2023-05-18T15:40:55+0200</time>
      </trkpt>
      <trkpt lat="44.98253" lon="6.55903">
        <ele>2394.8</ele>
        <time>2023-05-18T15:40:59+0200</time>
      </trkpt>
      <trkpt lat="44.98259" lon="6.55902">
        <ele>2395.5</ele>
        <time>2023-05-18T15:41:03+0200</time>
      </trkpt>
      <trkpt lat="44.98265" lon="6.55901">
        <ele>2396.1</ele>
        <time>2023-05-18T15:41:07+0200</time>
      </trkpt>
      <trkpt lat="44.9827" lon="6.55901">
        <ele>2397.3</ele>
        <time>2023-05-18T15:41:10+0200</time>
      </trkpt>
      <trkpt lat="44.98275" lon="6.559">
        <ele>2397.9</ele>
        <time>2023-05-18T15:41:13+0200</time>
      </trkpt>
      <trkpt lat="44.9828" lon="6.55899">
        <ele>2398.2</ele>
        <time>2023-05-18T15:41:16+0200</time>
      </trkpt>
      <trkpt lat="44.98285" lon="6.55897">
        <ele>2397.8</ele>
        <time>2023-05-18T15:41:19+0200</time>
      </trkpt>
      <trkpt lat="44.9829" lon="6.55898">
        <ele>2398.4</ele>
        <time>2023-05-18T15:41:23+0200</time>
      </trkpt>
      <trkpt lat="44.98295" lon="6.55898">
        <ele>2399</ele>
        <time>2023-05-18T15:41:27+0200</time>
      </trkpt>
      <trkpt lat="44.983" lon="6.55897">
        <ele>2399.2</ele>
        <time>2023-05-18T15:41:30+0200</time>
      </trkpt>
      <trkpt lat="44.98306" lon="6.55898">
        <ele>2400.1</ele>
        <time>2023-05-18T15:41:32+0200</time>
      </trkpt>
      <trkpt lat="44.98311" lon="6.55898">
        <ele>2400</ele>
        <time>2023-05-18T15:41:36+0200</time>
      </trkpt>
      <trkpt lat="44.98318" lon="6.559">
        <ele>2401</ele>
        <time>2023-05-18T15:41:39+0200</time>
      </trkpt>
      <trkpt lat="44.98323" lon="6.55901">
        <ele>2401.4</ele>
        <time>2023-05-18T15:41:41+0200</time>
      </trkpt>
      <trkpt lat="44.98327" lon="6.55902">
        <ele>2401.8</ele>
        <time>2023-05-18T15:41:46+0200</time>
      </trkpt>
      <trkpt lat="44.98333" lon="6.55903">
        <ele>2402.7</ele>
        <time>2023-05-18T15:41:49+0200</time>
      </trkpt>
      <trkpt lat="44.98336" lon="6.559">
        <ele>2400.9</ele>
        <time>2023-05-18T15:42:11+0200</time>
      </trkpt>
      <trkpt lat="44.98339" lon="6.55906">
        <ele>2404</ele>
        <time>2023-05-18T15:42:33+0200</time>
      </trkpt>
      <trkpt lat="44.98345" lon="6.55908">
        <ele>2405</ele>
        <time>2023-05-18T15:42:36+0200</time>
      </trkpt>
      <trkpt lat="44.9835" lon="6.55908">
        <ele>2404.9</ele>
        <time>2023-05-18T15:42:38+0200</time>
      </trkpt>
      <trkpt lat="44.98357" lon="6.5591">
        <ele>2405.4</ele>
        <time>2023-05-18T15:42:41+0200</time>
      </trkpt>
      <trkpt lat="44.98364" lon="6.55911">
        <ele>2405.8</ele>
        <time>2023-05-18T15:42:44+0200</time>
      </trkpt>
      <trkpt lat="44.9837" lon="6.55911">
        <ele>2405.9</ele>
        <time>2023-05-18T15:42:47+0200</time>
      </trkpt>
      <trkpt lat="44.98374" lon="6.55911">
        <ele>2405.6</ele>
        <time>2023-05-18T15:42:49+0200</time>
      </trkpt>
      <trkpt lat="44.98379" lon="6.55912">
        <ele>2405.8</ele>
        <time>2023-05-18T15:42:51+0200</time>
      </trkpt>
      <trkpt lat="44.98384" lon="6.5591">
        <ele>2404.7</ele>
        <time>2023-05-18T15:42:53+0200</time>
      </trkpt>
      <trkpt lat="44.9839" lon="6.55912">
        <ele>2404.9</ele>
        <time>2023-05-18T15:42:56+0200</time>
      </trkpt>
      <trkpt lat="44.98395" lon="6.55914">
        <ele>2405.6</ele>
        <time>2023-05-18T15:42:58+0200</time>
      </trkpt>
      <trkpt lat="44.98402" lon="6.55916">
        <ele>2406</ele>
        <time>2023-05-18T15:43:01+0200</time>
      </trkpt>
      <trkpt lat="44.98406" lon="6.55918">
        <ele>2406.5</ele>
        <time>2023-05-18T15:43:04+0200</time>
      </trkpt>
      <trkpt lat="44.9841" lon="6.55914">
        <ele>2404.5</ele>
        <time>2023-05-18T15:43:06+0200</time>
      </trkpt>
      <trkpt lat="44.98414" lon="6.55907">
        <ele>2402</ele>
        <time>2023-05-18T15:43:09+0200</time>
      </trkpt>
      <trkpt lat="44.98414" lon="6.559">
        <ele>2399.6</ele>
        <time>2023-05-18T15:43:12+0200</time>
      </trkpt>
      <trkpt lat="44.9841" lon="6.5589">
        <ele>2396.4</ele>
        <time>2023-05-18T15:43:14+0200</time>
      </trkpt>
      <trkpt lat="44.98407" lon="6.55882">
        <ele>2393.9</ele>
        <time>2023-05-18T15:43:16+0200</time>
      </trkpt>
      <trkpt lat="44.98409" lon="6.55877">
        <ele>2392.4</ele>
        <time>2023-05-18T15:43:19+0200</time>
      </trkpt>
      <trkpt lat="44.98413" lon="6.55873">
        <ele>2391.2</ele>
        <time>2023-05-18T15:43:26+0200</time>
      </trkpt>
      <trkpt lat="44.98416" lon="6.55866">
        <ele>2389.3</ele>
        <time>2023-05-18T15:43:29+0200</time>
      </trkpt>
      <trkpt lat="44.98417" lon="6.55858">
        <ele>2387</ele>
        <time>2023-05-18T15:43:32+0200</time>
      </trkpt>
      <trkpt lat="44.98417" lon="6.5585">
        <ele>2384.4</ele>
        <time>2023-05-18T15:43:34+0200</time>
      </trkpt>
      <trkpt lat="44.98417" lon="6.55844">
        <ele>2382.4</ele>
        <time>2023-05-18T15:43:54+0200</time>
      </trkpt>
      <trkpt lat="44.98418" lon="6.55837">
        <ele>2380.3</ele>
        <time>2023-05-18T15:43:56+0200</time>
      </trkpt>
      <trkpt lat="44.98417" lon="6.5583">
        <ele>2379</ele>
        <time>2023-05-18T15:44:06+0200</time>
      </trkpt>
      <trkpt lat="44.98414" lon="6.55824">
        <ele>2378.8</ele>
        <time>2023-05-18T15:44:11+0200</time>
      </trkpt>
      <trkpt lat="44.98408" lon="6.55821">
        <ele>2378.3</ele>
        <time>2023-05-18T15:44:14+0200</time>
      </trkpt>
      <trkpt lat="44.98402" lon="6.55819">
        <ele>2377.7</ele>
        <time>2023-05-18T15:44:16+0200</time>
      </trkpt>
      <trkpt lat="44.98396" lon="6.55814">
        <ele>2376.7</ele>
        <time>2023-05-18T15:44:18+0200</time>
      </trkpt>
      <trkpt lat="44.98389" lon="6.55806">
        <ele>2375</ele>
        <time>2023-05-18T15:44:20+0200</time>
      </trkpt>
      <trkpt lat="44.98384" lon="6.55803">
        <ele>2374.6</ele>
        <time>2023-05-18T15:44:21+0200</time>
      </trkpt>
      <trkpt lat="44.9838" lon="6.55799">
        <ele>2374</ele>
        <time>2023-05-18T15:44:23+0200</time>
      </trkpt>
      <trkpt lat="44.98374" lon="6.55791">
        <ele>2373.1</ele>
        <time>2023-05-18T15:44:25+0200</time>
      </trkpt>
      <trkpt lat="44.98371" lon="6.55781">
        <ele>2372.3</ele>
        <time>2023-05-18T15:44:27+0200</time>
      </trkpt>
      <trkpt lat="44.98371" lon="6.55773">
        <ele>2371.6</ele>
        <time>2023-05-18T15:44:28+0200</time>
      </trkpt>
      <trkpt lat="44.98372" lon="6.55765">
        <ele>2370.9</ele>
        <time>2023-05-18T15:44:32+0200</time>
      </trkpt>
      <trkpt lat="44.98373" lon="6.55757">
        <ele>2370.1</ele>
        <time>2023-05-18T15:44:35+0200</time>
      </trkpt>
      <trkpt lat="44.98376" lon="6.55748">
        <ele>2369.1</ele>
        <time>2023-05-18T15:44:37+0200</time>
      </trkpt>
      <trkpt lat="44.9838" lon="6.55744">
        <ele>2368.9</ele>
        <time>2023-05-18T15:44:39+0200</time>
      </trkpt>
      <trkpt lat="44.98374" lon="6.5574">
        <ele>2367.5</ele>
        <time>2023-05-18T15:45:03+0200</time>
      </trkpt>
      <trkpt lat="44.98371" lon="6.55735">
        <ele>2365.9</ele>
        <time>2023-05-18T15:45:06+0200</time>
      </trkpt>
      <trkpt lat="44.98366" lon="6.55731">
        <ele>2364.4</ele>
        <time>2023-05-18T15:45:10+0200</time>
      </trkpt>
      <trkpt lat="44.98361" lon="6.55727">
        <ele>2362.9</ele>
        <time>2023-05-18T15:45:15+0200</time>
      </trkpt>
      <trkpt lat="44.98357" lon="6.55722">
        <ele>2361.3</ele>
        <time>2023-05-18T15:45:18+0200</time>
      </trkpt>
      <trkpt lat="44.98354" lon="6.55717">
        <ele>2360.1</ele>
        <time>2023-05-18T15:45:21+0200</time>
      </trkpt>
      <trkpt lat="44.98351" lon="6.55712">
        <ele>2358.6</ele>
        <time>2023-05-18T15:45:25+0200</time>
      </trkpt>
      <trkpt lat="44.98346" lon="6.55707">
        <ele>2356.8</ele>
        <time>2023-05-18T15:45:27+0200</time>
      </trkpt>
      <trkpt lat="44.98341" lon="6.55704">
        <ele>2354.7</ele>
        <time>2023-05-18T15:45:31+0200</time>
      </trkpt>
      <trkpt lat="44.98335" lon="6.557">
        <ele>2352.1</ele>
        <time>2023-05-18T15:45:41+0200</time>
      </trkpt>
      <trkpt lat="44.98329" lon="6.55699">
        <ele>2349.3</ele>
        <time>2023-05-18T15:46:00+0200</time>
      </trkpt>
      <trkpt lat="44.98324" lon="6.55698">
        <ele>2347.4</ele>
        <time>2023-05-18T15:46:03+0200</time>
      </trkpt>
      <trkpt lat="44.98319" lon="6.557">
        <ele>2345.9</ele>
        <time>2023-05-18T15:46:10+0200</time>
      </trkpt>
      <trkpt lat="44.98314" lon="6.557">
        <ele>2343.9</ele>
        <time>2023-05-18T15:46:14+0200</time>
      </trkpt>
      <trkpt lat="44.98309" lon="6.55699">
        <ele>2341.7</ele>
        <time>2023-05-18T15:46:18+0200</time>
      </trkpt>
      <trkpt lat="44.98304" lon="6.55701">
        <ele>2340.3</ele>
        <time>2023-05-18T15:46:22+0200</time>
      </trkpt>
      <trkpt lat="44.98298" lon="6.55702">
        <ele>2338.8</ele>
        <time>2023-05-18T15:46:27+0200</time>
      </trkpt>
      <trkpt lat="44.98293" lon="6.55702">
        <ele>2337.5</ele>
        <time>2023-05-18T15:46:38+0200</time>
      </trkpt>
      <trkpt lat="44.98294" lon="6.55708">
        <ele>2339.3</ele>
        <time>2023-05-18T15:46:43+0200</time>
      </trkpt>
      <trkpt lat="44.98289" lon="6.55711">
        <ele>2338.6</ele>
        <time>2023-05-18T15:47:00+0200</time>
      </trkpt>
      <trkpt lat="44.98285" lon="6.55709">
        <ele>2336.8</ele>
        <time>2023-05-18T15:47:02+0200</time>
      </trkpt>
      <trkpt lat="44.98276" lon="6.55706">
        <ele>2333.4</ele>
        <time>2023-05-18T15:47:04+0200</time>
      </trkpt>
      <trkpt lat="44.98271" lon="6.55701">
        <ele>2330.8</ele>
        <time>2023-05-18T15:47:05+0200</time>
      </trkpt>
      <trkpt lat="44.98267" lon="6.55698">
        <ele>2328.9</ele>
        <time>2023-05-18T15:47:06+0200</time>
      </trkpt>
      <trkpt lat="44.98261" lon="6.55697">
        <ele>2327.3</ele>
        <time>2023-05-18T15:47:07+0200</time>
      </trkpt>
      <trkpt lat="44.98256" lon="6.55698">
        <ele>2326.3</ele>
        <time>2023-05-18T15:47:08+0200</time>
      </trkpt>
      <trkpt lat="44.98251" lon="6.55698">
        <ele>2325</ele>
        <time>2023-05-18T15:47:09+0200</time>
      </trkpt>
      <trkpt lat="44.98241" lon="6.55695">
        <ele>2322.8</ele>
        <time>2023-05-18T15:47:11+0200</time>
      </trkpt>
      <trkpt lat="44.98234" lon="6.55695">
        <ele>2321.8</ele>
        <time>2023-05-18T15:47:12+0200</time>
      </trkpt>
      <trkpt lat="44.9823" lon="6.55684">
        <ele>2318.7</ele>
        <time>2023-05-18T15:47:13+0200</time>
      </trkpt>
      <trkpt lat="44.98223" lon="6.5568">
        <ele>2316.6</ele>
        <time>2023-05-18T15:47:14+0200</time>
      </trkpt>
      <trkpt lat="44.98216" lon="6.55677">
        <ele>2314.7</ele>
        <time>2023-05-18T15:47:15+0200</time>
      </trkpt>
      <trkpt lat="44.98212" lon="6.55676">
        <ele>2313.6</ele>
        <time>2023-05-18T15:47:16+0200</time>
      </trkpt>
      <trkpt lat="44.98206" lon="6.55677">
        <ele>2313</ele>
        <time>2023-05-18T15:47:17+0200</time>
      </trkpt>
      <trkpt lat="44.98201" lon="6.55674">
        <ele>2311.7</ele>
        <time>2023-05-18T15:47:18+0200</time>
      </trkpt>
      <trkpt lat="44.98196" lon="6.55672">
        <ele>2310.3</ele>
        <time>2023-05-18T15:47:19+0200</time>
      </trkpt>
      <trkpt lat="44.9819" lon="6.5567">
        <ele>2309.1</ele>
        <time>2023-05-18T15:47:20+0200</time>
      </trkpt>
      <trkpt lat="44.98185" lon="6.55665">
        <ele>2307.8</ele>
        <time>2023-05-18T15:47:21+0200</time>
      </trkpt>
      <trkpt lat="44.98183" lon="6.55657">
        <ele>2306.6</ele>
        <time>2023-05-18T15:47:22+0200</time>
      </trkpt>
      <trkpt lat="44.98179" lon="6.55648">
        <ele>2305.4</ele>
        <time>2023-05-18T15:47:23+0200</time>
      </trkpt>
      <trkpt lat="44.98175" lon="6.55637">
        <ele>2304.1</ele>
        <time>2023-05-18T15:47:24+0200</time>
      </trkpt>
      <trkpt lat="44.98171" lon="6.55629">
        <ele>2303.2</ele>
        <time>2023-05-18T15:47:25+0200</time>
      </trkpt>
      <trkpt lat="44.98164" lon="6.55624">
        <ele>2301.9</ele>
        <time>2023-05-18T15:47:27+0200</time>
      </trkpt>
      <trkpt lat="44.9816" lon="6.55618">
        <ele>2300.4</ele>
        <time>2023-05-18T15:47:28+0200</time>
      </trkpt>
      <trkpt lat="44.98155" lon="6.55614">
        <ele>2299.1</ele>
        <time>2023-05-18T15:47:29+0200</time>
      </trkpt>
      <trkpt lat="44.9815" lon="6.55613">
        <ele>2298.1</ele>
        <time>2023-05-18T15:47:30+0200</time>
      </trkpt>
      <trkpt lat="44.98141" lon="6.55613">
        <ele>2296.5</ele>
        <time>2023-05-18T15:47:32+0200</time>
      </trkpt>
      <trkpt lat="44.98137" lon="6.55611">
        <ele>2295.2</ele>
        <time>2023-05-18T15:47:33+0200</time>
      </trkpt>
      <trkpt lat="44.98132" lon="6.5561">
        <ele>2293.6</ele>
        <time>2023-05-18T15:47:34+0200</time>
      </trkpt>
      <trkpt lat="44.98129" lon="6.55605">
        <ele>2292.6</ele>
        <time>2023-05-18T15:47:35+0200</time>
      </trkpt>
      <trkpt lat="44.98123" lon="6.55597">
        <ele>2291</ele>
        <time>2023-05-18T15:47:36+0200</time>
      </trkpt>
      <trkpt lat="44.98119" lon="6.55586">
        <ele>2290.2</ele>
        <time>2023-05-18T15:47:37+0200</time>
      </trkpt>
      <trkpt lat="44.98113" lon="6.55577">
        <ele>2288.6</ele>
        <time>2023-05-18T15:47:38+0200</time>
      </trkpt>
      <trkpt lat="44.98108" lon="6.5557">
        <ele>2287</ele>
        <time>2023-05-18T15:47:39+0200</time>
      </trkpt>
      <trkpt lat="44.98105" lon="6.55563">
        <ele>2285.7</ele>
        <time>2023-05-18T15:47:40+0200</time>
      </trkpt>
      <trkpt lat="44.98104" lon="6.55554">
        <ele>2284.8</ele>
        <time>2023-05-18T15:47:40+0200</time>
      </trkpt>
      <trkpt lat="44.98104" lon="6.55543">
        <ele>2283.6</ele>
        <time>2023-05-18T15:47:41+0200</time>
      </trkpt>
      <trkpt lat="44.98106" lon="6.55531">
        <ele>2283.1</ele>
        <time>2023-05-18T15:47:42+0200</time>
      </trkpt>
      <trkpt lat="44.98106" lon="6.55518">
        <ele>2281.5</ele>
        <time>2023-05-18T15:47:43+0200</time>
      </trkpt>
      <trkpt lat="44.98105" lon="6.55505">
        <ele>2279.6</ele>
        <time>2023-05-18T15:47:44+0200</time>
      </trkpt>
      <trkpt lat="44.98105" lon="6.55492">
        <ele>2278.3</ele>
        <time>2023-05-18T15:47:45+0200</time>
      </trkpt>
      <trkpt lat="44.98105" lon="6.5548">
        <ele>2277.1</ele>
        <time>2023-05-18T15:47:46+0200</time>
      </trkpt>
      <trkpt lat="44.98104" lon="6.55468">
        <ele>2275.7</ele>
        <time>2023-05-18T15:47:47+0200</time>
      </trkpt>
      <trkpt lat="44.98099" lon="6.55459">
        <ele>2273.8</ele>
        <time>2023-05-18T15:47:48+0200</time>
      </trkpt>
      <trkpt lat="44.98095" lon="6.55451">
        <ele>2271.6</ele>
        <time>2023-05-18T15:47:49+0200</time>
      </trkpt>
      <trkpt lat="44.98091" lon="6.55439">
        <ele>2270.1</ele>
        <time>2023-05-18T15:47:50+0200</time>
      </trkpt>
      <trkpt lat="44.98084" lon="6.55429">
        <ele>2267.3</ele>
        <time>2023-05-18T15:47:51+0200</time>
      </trkpt>
      <trkpt lat="44.98079" lon="6.55418">
        <ele>2265.8</ele>
        <time>2023-05-18T15:47:52+0200</time>
      </trkpt>
      <trkpt lat="44.98075" lon="6.55409">
        <ele>2264.3</ele>
        <time>2023-05-18T15:47:53+0200</time>
      </trkpt>
      <trkpt lat="44.98072" lon="6.55399">
        <ele>2263</ele>
        <time>2023-05-18T15:47:54+0200</time>
      </trkpt>
      <trkpt lat="44.98068" lon="6.55387">
        <ele>2261.2</ele>
        <time>2023-05-18T15:47:55+0200</time>
      </trkpt>
      <trkpt lat="44.98071" lon="6.55374">
        <ele>2260.4</ele>
        <time>2023-05-18T15:47:56+0200</time>
      </trkpt>
      <trkpt lat="44.98075" lon="6.55364">
        <ele>2260.8</ele>
        <time>2023-05-18T15:47:57+0200</time>
      </trkpt>
      <trkpt lat="44.98076" lon="6.55353">
        <ele>2259.4</ele>
        <time>2023-05-18T15:47:58+0200</time>
      </trkpt>
      <trkpt lat="44.98078" lon="6.55341">
        <ele>2258.4</ele>
        <time>2023-05-18T15:47:59+0200</time>
      </trkpt>
      <trkpt lat="44.98076" lon="6.55327">
        <ele>2255.7</ele>
        <time>2023-05-18T15:48:00+0200</time>
      </trkpt>
      <trkpt lat="44.98076" lon="6.55311">
        <ele>2254</ele>
        <time>2023-05-18T15:48:01+0200</time>
      </trkpt>
      <trkpt lat="44.98077" lon="6.55297">
        <ele>2253.1</ele>
        <time>2023-05-18T15:48:02+0200</time>
      </trkpt>
      <trkpt lat="44.98078" lon="6.55287">
        <ele>2253.1</ele>
        <time>2023-05-18T15:48:03+0200</time>
      </trkpt>
      <trkpt lat="44.98072" lon="6.55276">
        <ele>2249.3</ele>
        <time>2023-05-18T15:48:04+0200</time>
      </trkpt>
      <trkpt lat="44.98068" lon="6.55261">
        <ele>2246.4</ele>
        <time>2023-05-18T15:48:05+0200</time>
      </trkpt>
      <trkpt lat="44.98063" lon="6.55248">
        <ele>2243.8</ele>
        <time>2023-05-18T15:48:06+0200</time>
      </trkpt>
      <trkpt lat="44.9806" lon="6.55234">
        <ele>2241.1</ele>
        <time>2023-05-18T15:48:07+0200</time>
      </trkpt>
      <trkpt lat="44.98062" lon="6.55218">
        <ele>2241</ele>
        <time>2023-05-18T15:48:08+0200</time>
      </trkpt>
      <trkpt lat="44.98061" lon="6.55205">
        <ele>2239.9</ele>
        <time>2023-05-18T15:48:09+0200</time>
      </trkpt>
      <trkpt lat="44.9806" lon="6.55192">
        <ele>2239.4</ele>
        <time>2023-05-18T15:48:10+0200</time>
      </trkpt>
      <trkpt lat="44.98056" lon="6.5518">
        <ele>2237.1</ele>
        <time>2023-05-18T15:48:11+0200</time>
      </trkpt>
      <trkpt lat="44.98054" lon="6.55165">
        <ele>2236.1</ele>
        <time>2023-05-18T15:48:12+0200</time>
      </trkpt>
      <trkpt lat="44.98048" lon="6.5515">
        <ele>2233.8</ele>
        <time>2023-05-18T15:48:13+0200</time>
      </trkpt>
      <trkpt lat="44.98043" lon="6.55135">
        <ele>2231.8</ele>
        <time>2023-05-18T15:48:14+0200</time>
      </trkpt>
      <trkpt lat="44.98037" lon="6.55118">
        <ele>2230.6</ele>
        <time>2023-05-18T15:48:15+0200</time>
      </trkpt>
      <trkpt lat="44.98031" lon="6.55104">
        <ele>2228.3</ele>
        <time>2023-05-18T15:48:16+0200</time>
      </trkpt>
      <trkpt lat="44.98026" lon="6.55093">
        <ele>2226.3</ele>
        <time>2023-05-18T15:48:17+0200</time>
      </trkpt>
      <trkpt lat="44.98024" lon="6.55085">
        <ele>2225.1</ele>
        <time>2023-05-18T15:48:18+0200</time>
      </trkpt>
      <trkpt lat="44.98021" lon="6.55077">
        <ele>2222.8</ele>
        <time>2023-05-18T15:48:19+0200</time>
      </trkpt>
      <trkpt lat="44.98025" lon="6.55065">
        <ele>2223.1</ele>
        <time>2023-05-18T15:48:20+0200</time>
      </trkpt>
      <trkpt lat="44.98029" lon="6.55054">
        <ele>2223.3</ele>
        <time>2023-05-18T15:48:21+0200</time>
      </trkpt>
      <trkpt lat="44.98034" lon="6.55042">
        <ele>2223.7</ele>
        <time>2023-05-18T15:48:22+0200</time>
      </trkpt>
      <trkpt lat="44.9804" lon="6.5503">
        <ele>2224.6</ele>
        <time>2023-05-18T15:48:23+0200</time>
      </trkpt>
      <trkpt lat="44.98041" lon="6.55015">
        <ele>2222.8</ele>
        <time>2023-05-18T15:48:24+0200</time>
      </trkpt>
      <trkpt lat="44.98042" lon="6.55001">
        <ele>2221.4</ele>
        <time>2023-05-18T15:48:25+0200</time>
      </trkpt>
      <trkpt lat="44.98044" lon="6.54987">
        <ele>2220</ele>
        <time>2023-05-18T15:48:26+0200</time>
      </trkpt>
      <trkpt lat="44.98047" lon="6.54974">
        <ele>2219</ele>
        <time>2023-05-18T15:48:27+0200</time>
      </trkpt>
      <trkpt lat="44.9805" lon="6.5496">
        <ele>2218.2</ele>
        <time>2023-05-18T15:48:28+0200</time>
      </trkpt>
      <trkpt lat="44.98053" lon="6.54946">
        <ele>2217</ele>
        <time>2023-05-18T15:48:29+0200</time>
      </trkpt>
      <trkpt lat="44.98056" lon="6.54933">
        <ele>2217.5</ele>
        <time>2023-05-18T15:48:30+0200</time>
      </trkpt>
      <trkpt lat="44.98058" lon="6.54922">
        <ele>2217.2</ele>
        <time>2023-05-18T15:48:31+0200</time>
      </trkpt>
      <trkpt lat="44.98056" lon="6.54914">
        <ele>2216.2</ele>
        <time>2023-05-18T15:48:32+0200</time>
      </trkpt>
      <trkpt lat="44.98053" lon="6.54909">
        <ele>2215.5</ele>
        <time>2023-05-18T15:48:33+0200</time>
      </trkpt>
      <trkpt lat="44.9805" lon="6.54901">
        <ele>2215.3</ele>
        <time>2023-05-18T15:48:35+0200</time>
      </trkpt>
      <trkpt lat="44.98046" lon="6.54896">
        <ele>2214.3</ele>
        <time>2023-05-18T15:48:36+0200</time>
      </trkpt>
      <trkpt lat="44.98043" lon="6.54889">
        <ele>2213.8</ele>
        <time>2023-05-18T15:48:37+0200</time>
      </trkpt>
      <trkpt lat="44.98039" lon="6.54882">
        <ele>2213</ele>
        <time>2023-05-18T15:48:38+0200</time>
      </trkpt>
      <trkpt lat="44.98036" lon="6.54874">
        <ele>2212.5</ele>
        <time>2023-05-18T15:48:39+0200</time>
      </trkpt>
      <trkpt lat="44.98035" lon="6.54866">
        <ele>2212.5</ele>
        <time>2023-05-18T15:48:40+0200</time>
      </trkpt>
      <trkpt lat="44.98033" lon="6.54858">
        <ele>2212.5</ele>
        <time>2023-05-18T15:48:41+0200</time>
      </trkpt>
      <trkpt lat="44.98031" lon="6.54849">
        <ele>2212.4</ele>
        <time>2023-05-18T15:48:42+0200</time>
      </trkpt>
      <trkpt lat="44.9803" lon="6.5484">
        <ele>2212.3</ele>
        <time>2023-05-18T15:48:43+0200</time>
      </trkpt>
      <trkpt lat="44.98028" lon="6.54831">
        <ele>2212.1</ele>
        <time>2023-05-18T15:48:44+0200</time>
      </trkpt>
      <trkpt lat="44.98029" lon="6.54821">
        <ele>2212.6</ele>
        <time>2023-05-18T15:48:45+0200</time>
      </trkpt>
      <trkpt lat="44.98026" lon="6.54814">
        <ele>2212.1</ele>
        <time>2023-05-18T15:48:46+0200</time>
      </trkpt>
      <trkpt lat="44.98024" lon="6.54806">
        <ele>2211.5</ele>
        <time>2023-05-18T15:48:47+0200</time>
      </trkpt>
      <trkpt lat="44.98024" lon="6.54797">
        <ele>2210.2</ele>
        <time>2023-05-18T15:48:48+0200</time>
      </trkpt>
      <trkpt lat="44.98025" lon="6.54788">
        <ele>2209.4</ele>
        <time>2023-05-18T15:48:49+0200</time>
      </trkpt>
      <trkpt lat="44.98028" lon="6.54779">
        <ele>2209.3</ele>
        <time>2023-05-18T15:48:50+0200</time>
      </trkpt>
      <trkpt lat="44.98032" lon="6.5477">
        <ele>2208.5</ele>
        <time>2023-05-18T15:48:51+0200</time>
      </trkpt>
      <trkpt lat="44.98036" lon="6.54763">
        <ele>2208.1</ele>
        <time>2023-05-18T15:48:52+0200</time>
      </trkpt>
      <trkpt lat="44.9804" lon="6.54756">
        <ele>2207.9</ele>
        <time>2023-05-18T15:48:53+0200</time>
      </trkpt>
      <trkpt lat="44.98043" lon="6.54751">
        <ele>2207.6</ele>
        <time>2023-05-18T15:48:54+0200</time>
      </trkpt>
      <trkpt lat="44.98046" lon="6.54746">
        <ele>2207.3</ele>
        <time>2023-05-18T15:48:55+0200</time>
      </trkpt>
      <trkpt lat="44.98051" lon="6.5474">
        <ele>2207.2</ele>
        <time>2023-05-18T15:48:56+0200</time>
      </trkpt>
      <trkpt lat="44.98055" lon="6.54734">
        <ele>2206.7</ele>
        <time>2023-05-18T15:48:57+0200</time>
      </trkpt>
      <trkpt lat="44.98059" lon="6.54729">
        <ele>2206.2</ele>
        <time>2023-05-18T15:48:58+0200</time>
      </trkpt>
      <trkpt lat="44.98067" lon="6.54724">
        <ele>2207.3</ele>
        <time>2023-05-18T15:49:00+0200</time>
      </trkpt>
      <trkpt lat="44.98063" lon="6.54726">
        <ele>2206.5</ele>
        <time>2023-05-18T15:49:10+0200</time>
      </trkpt>
      <trkpt lat="44.98066" lon="6.5472">
        <ele>2205.4</ele>
        <time>2023-05-18T15:50:48+0200</time>
      </trkpt>
      <trkpt lat="44.9807" lon="6.54714">
        <ele>2205.2</ele>
        <time>2023-05-18T15:50:50+0200</time>
      </trkpt>
      <trkpt lat="44.98075" lon="6.54704">
        <ele>2204</ele>
        <time>2023-05-18T15:50:52+0200</time>
      </trkpt>
      <trkpt lat="44.98079" lon="6.54699">
        <ele>2203.5</ele>
        <time>2023-05-18T15:50:53+0200</time>
      </trkpt>
      <trkpt lat="44.98082" lon="6.54692">
        <ele>2202.8</ele>
        <time>2023-05-18T15:50:54+0200</time>
      </trkpt>
      <trkpt lat="44.98086" lon="6.54686">
        <ele>2202.3</ele>
        <time>2023-05-18T15:50:55+0200</time>
      </trkpt>
      <trkpt lat="44.98091" lon="6.54679">
        <ele>2201.5</ele>
        <time>2023-05-18T15:50:56+0200</time>
      </trkpt>
      <trkpt lat="44.98095" lon="6.54672">
        <ele>2200.8</ele>
        <time>2023-05-18T15:50:57+0200</time>
      </trkpt>
      <trkpt lat="44.981" lon="6.54665">
        <ele>2200.3</ele>
        <time>2023-05-18T15:50:58+0200</time>
      </trkpt>
      <trkpt lat="44.98105" lon="6.54658">
        <ele>2199.5</ele>
        <time>2023-05-18T15:50:59+0200</time>
      </trkpt>
      <trkpt lat="44.98111" lon="6.54651">
        <ele>2199</ele>
        <time>2023-05-18T15:51:00+0200</time>
      </trkpt>
      <trkpt lat="44.98116" lon="6.54643">
        <ele>2197.8</ele>
        <time>2023-05-18T15:51:01+0200</time>
      </trkpt>
      <trkpt lat="44.98122" lon="6.54637">
        <ele>2197.2</ele>
        <time>2023-05-18T15:51:02+0200</time>
      </trkpt>
      <trkpt lat="44.98128" lon="6.5463">
        <ele>2196.8</ele>
        <time>2023-05-18T15:51:03+0200</time>
      </trkpt>
      <trkpt lat="44.98135" lon="6.54623">
        <ele>2196.6</ele>
        <time>2023-05-18T15:51:04+0200</time>
      </trkpt>
      <trkpt lat="44.98141" lon="6.54616">
        <ele>2196.7</ele>
        <time>2023-05-18T15:51:05+0200</time>
      </trkpt>
      <trkpt lat="44.98148" lon="6.54607">
        <ele>2197.9</ele>
        <time>2023-05-18T15:51:06+0200</time>
      </trkpt>
      <trkpt lat="44.98151" lon="6.54598">
        <ele>2197.1</ele>
        <time>2023-05-18T15:51:07+0200</time>
      </trkpt>
      <trkpt lat="44.98156" lon="6.54589">
        <ele>2197.5</ele>
        <time>2023-05-18T15:51:08+0200</time>
      </trkpt>
      <trkpt lat="44.98158" lon="6.5458">
        <ele>2196.6</ele>
        <time>2023-05-18T15:51:09+0200</time>
      </trkpt>
      <trkpt lat="44.98161" lon="6.54571">
        <ele>2196</ele>
        <time>2023-05-18T15:51:10+0200</time>
      </trkpt>
      <trkpt lat="44.98163" lon="6.54562">
        <ele>2194.7</ele>
        <time>2023-05-18T15:51:11+0200</time>
      </trkpt>
      <trkpt lat="44.98166" lon="6.54552">
        <ele>2193.7</ele>
        <time>2023-05-18T15:51:12+0200</time>
      </trkpt>
      <trkpt lat="44.9817" lon="6.54542">
        <ele>2192.9</ele>
        <time>2023-05-18T15:51:13+0200</time>
      </trkpt>
      <trkpt lat="44.98173" lon="6.54532">
        <ele>2191.8</ele>
        <time>2023-05-18T15:51:14+0200</time>
      </trkpt>
      <trkpt lat="44.98178" lon="6.54522">
        <ele>2192</ele>
        <time>2023-05-18T15:51:15+0200</time>
      </trkpt>
      <trkpt lat="44.9818" lon="6.54511">
        <ele>2190.6</ele>
        <time>2023-05-18T15:51:16+0200</time>
      </trkpt>
      <trkpt lat="44.98185" lon="6.54501">
        <ele>2190.3</ele>
        <time>2023-05-18T15:51:17+0200</time>
      </trkpt>
      <trkpt lat="44.98189" lon="6.54491">
        <ele>2189.8</ele>
        <time>2023-05-18T15:51:18+0200</time>
      </trkpt>
      <trkpt lat="44.98193" lon="6.5448">
        <ele>2189.4</ele>
        <time>2023-05-18T15:51:19+0200</time>
      </trkpt>
      <trkpt lat="44.98198" lon="6.54469">
        <ele>2189.1</ele>
        <time>2023-05-18T15:51:20+0200</time>
      </trkpt>
      <trkpt lat="44.98204" lon="6.54459">
        <ele>2189.3</ele>
        <time>2023-05-18T15:51:21+0200</time>
      </trkpt>
      <trkpt lat="44.98209" lon="6.54448">
        <ele>2189.3</ele>
        <time>2023-05-18T15:51:22+0200</time>
      </trkpt>
      <trkpt lat="44.98214" lon="6.54438">
        <ele>2189.2</ele>
        <time>2023-05-18T15:51:23+0200</time>
      </trkpt>
      <trkpt lat="44.98217" lon="6.54426">
        <ele>2188.8</ele>
        <time>2023-05-18T15:51:24+0200</time>
      </trkpt>
      <trkpt lat="44.98219" lon="6.54413">
        <ele>2187.4</ele>
        <time>2023-05-18T15:51:25+0200</time>
      </trkpt>
      <trkpt lat="44.9822" lon="6.54405">
        <ele>2186.6</ele>
        <time>2023-05-18T15:51:26+0200</time>
      </trkpt>
      <trkpt lat="44.98223" lon="6.54391">
        <ele>2186.1</ele>
        <time>2023-05-18T15:51:27+0200</time>
      </trkpt>
      <trkpt lat="44.98227" lon="6.54382">
        <ele>2187.4</ele>
        <time>2023-05-18T15:51:28+0200</time>
      </trkpt>
      <trkpt lat="44.98229" lon="6.54371">
        <ele>2186.8</ele>
        <time>2023-05-18T15:51:29+0200</time>
      </trkpt>
      <trkpt lat="44.98232" lon="6.54362">
        <ele>2187.2</ele>
        <time>2023-05-18T15:51:30+0200</time>
      </trkpt>
      <trkpt lat="44.98235" lon="6.54353">
        <ele>2187.4</ele>
        <time>2023-05-18T15:51:31+0200</time>
      </trkpt>
      <trkpt lat="44.98237" lon="6.54346">
        <ele>2187.8</ele>
        <time>2023-05-18T15:51:32+0200</time>
      </trkpt>
      <trkpt lat="44.9824" lon="6.54337">
        <ele>2187.5</ele>
        <time>2023-05-18T15:51:34+0200</time>
      </trkpt>
      <trkpt lat="44.98243" lon="6.54327">
        <ele>2187.5</ele>
        <time>2023-05-18T15:51:36+0200</time>
      </trkpt>
      <trkpt lat="44.98245" lon="6.54319">
        <ele>2187.8</ele>
        <time>2023-05-18T15:51:37+0200</time>
      </trkpt>
      <trkpt lat="44.98248" lon="6.54312">
        <ele>2188.3</ele>
        <time>2023-05-18T15:51:38+0200</time>
      </trkpt>
      <trkpt lat="44.98251" lon="6.54305">
        <ele>2188.2</ele>
        <time>2023-05-18T15:51:39+0200</time>
      </trkpt>
      <trkpt lat="44.98254" lon="6.54297">
        <ele>2187.6</ele>
        <time>2023-05-18T15:51:40+0200</time>
      </trkpt>
      <trkpt lat="44.98256" lon="6.54291">
        <ele>2187.2</ele>
        <time>2023-05-18T15:51:41+0200</time>
      </trkpt>
      <trkpt lat="44.98261" lon="6.54285">
        <ele>2187.4</ele>
        <time>2023-05-18T15:51:42+0200</time>
      </trkpt>
      <trkpt lat="44.98267" lon="6.54278">
        <ele>2187.4</ele>
        <time>2023-05-18T15:51:44+0200</time>
      </trkpt>
      <trkpt lat="44.98271" lon="6.54273">
        <ele>2187.4</ele>
        <time>2023-05-18T15:51:45+0200</time>
      </trkpt>
      <trkpt lat="44.98276" lon="6.54266">
        <ele>2187.4</ele>
        <time>2023-05-18T15:51:47+0200</time>
      </trkpt>
      <trkpt lat="44.98281" lon="6.54256">
        <ele>2186.7</ele>
        <time>2023-05-18T15:51:49+0200</time>
      </trkpt>
      <trkpt lat="44.98284" lon="6.5425">
        <ele>2186.2</ele>
        <time>2023-05-18T15:51:50+0200</time>
      </trkpt>
      <trkpt lat="44.98286" lon="6.54244">
        <ele>2185.9</ele>
        <time>2023-05-18T15:51:51+0200</time>
      </trkpt>
      <trkpt lat="44.98289" lon="6.54237">
        <ele>2185.4</ele>
        <time>2023-05-18T15:51:52+0200</time>
      </trkpt>
      <trkpt lat="44.98292" lon="6.54232">
        <ele>2185.1</ele>
        <time>2023-05-18T15:51:53+0200</time>
      </trkpt>
      <trkpt lat="44.98295" lon="6.54225">
        <ele>2184.4</ele>
        <time>2023-05-18T15:51:54+0200</time>
      </trkpt>
      <trkpt lat="44.98299" lon="6.5422">
        <ele>2183.7</ele>
        <time>2023-05-18T15:51:55+0200</time>
      </trkpt>
      <trkpt lat="44.98303" lon="6.54214">
        <ele>2183.1</ele>
        <time>2023-05-18T15:51:55+0200</time>
      </trkpt>
      <trkpt lat="44.98309" lon="6.54209">
        <ele>2182.8</ele>
        <time>2023-05-18T15:51:56+0200</time>
      </trkpt>
      <trkpt lat="44.98314" lon="6.54201">
        <ele>2181.5</ele>
        <time>2023-05-18T15:51:57+0200</time>
      </trkpt>
      <trkpt lat="44.9832" lon="6.54195">
        <ele>2180.8</ele>
        <time>2023-05-18T15:51:58+0200</time>
      </trkpt>
      <trkpt lat="44.98327" lon="6.54189">
        <ele>2180.2</ele>
        <time>2023-05-18T15:51:59+0200</time>
      </trkpt>
      <trkpt lat="44.98333" lon="6.54182">
        <ele>2179.4</ele>
        <time>2023-05-18T15:52:00+0200</time>
      </trkpt>
      <trkpt lat="44.9834" lon="6.54176">
        <ele>2178.7</ele>
        <time>2023-05-18T15:52:01+0200</time>
      </trkpt>
      <trkpt lat="44.98346" lon="6.54169">
        <ele>2177.9</ele>
        <time>2023-05-18T15:52:02+0200</time>
      </trkpt>
      <trkpt lat="44.98354" lon="6.54162">
        <ele>2176.9</ele>
        <time>2023-05-18T15:52:03+0200</time>
      </trkpt>
      <trkpt lat="44.98361" lon="6.54156">
        <ele>2175.9</ele>
        <time>2023-05-18T15:52:04+0200</time>
      </trkpt>
      <trkpt lat="44.98369" lon="6.54152">
        <ele>2175.5</ele>
        <time>2023-05-18T15:52:05+0200</time>
      </trkpt>
      <trkpt lat="44.98377" lon="6.54147">
        <ele>2174.7</ele>
        <time>2023-05-18T15:52:06+0200</time>
      </trkpt>
      <trkpt lat="44.98386" lon="6.54143">
        <ele>2173.9</ele>
        <time>2023-05-18T15:52:07+0200</time>
      </trkpt>
      <trkpt lat="44.98394" lon="6.54138">
        <ele>2173.8</ele>
        <time>2023-05-18T15:52:08+0200</time>
      </trkpt>
      <trkpt lat="44.98401" lon="6.54133">
        <ele>2174.1</ele>
        <time>2023-05-18T15:52:09+0200</time>
      </trkpt>
      <trkpt lat="44.98406" lon="6.54125">
        <ele>2173.4</ele>
        <time>2023-05-18T15:52:10+0200</time>
      </trkpt>
      <trkpt lat="44.98407" lon="6.54112">
        <ele>2171.1</ele>
        <time>2023-05-18T15:52:11+0200</time>
      </trkpt>
      <trkpt lat="44.9841" lon="6.541">
        <ele>2169.9</ele>
        <time>2023-05-18T15:52:12+0200</time>
      </trkpt>
      <trkpt lat="44.98412" lon="6.54086">
        <ele>2168.2</ele>
        <time>2023-05-18T15:52:13+0200</time>
      </trkpt>
      <trkpt lat="44.98411" lon="6.54072">
        <ele>2166.3</ele>
        <time>2023-05-18T15:52:14+0200</time>
      </trkpt>
      <trkpt lat="44.98411" lon="6.54058">
        <ele>2165.1</ele>
        <time>2023-05-18T15:52:15+0200</time>
      </trkpt>
      <trkpt lat="44.98412" lon="6.54043">
        <ele>2164.6</ele>
        <time>2023-05-18T15:52:16+0200</time>
      </trkpt>
      <trkpt lat="44.9841" lon="6.54029">
        <ele>2163.1</ele>
        <time>2023-05-18T15:52:17+0200</time>
      </trkpt>
      <trkpt lat="44.98406" lon="6.54014">
        <ele>2161.1</ele>
        <time>2023-05-18T15:52:18+0200</time>
      </trkpt>
      <trkpt lat="44.98404" lon="6.53998">
        <ele>2160</ele>
        <time>2023-05-18T15:52:19+0200</time>
      </trkpt>
      <trkpt lat="44.98399" lon="6.53985">
        <ele>2158.4</ele>
        <time>2023-05-18T15:52:20+0200</time>
      </trkpt>
      <trkpt lat="44.98394" lon="6.53971">
        <ele>2157.2</ele>
        <time>2023-05-18T15:52:21+0200</time>
      </trkpt>
      <trkpt lat="44.98389" lon="6.53957">
        <ele>2156.2</ele>
        <time>2023-05-18T15:52:22+0200</time>
      </trkpt>
      <trkpt lat="44.98386" lon="6.53943">
        <ele>2155.9</ele>
        <time>2023-05-18T15:52:23+0200</time>
      </trkpt>
      <trkpt lat="44.98382" lon="6.53928">
        <ele>2156.3</ele>
        <time>2023-05-18T15:52:24+0200</time>
      </trkpt>
      <trkpt lat="44.98376" lon="6.53915">
        <ele>2155.3</ele>
        <time>2023-05-18T15:52:25+0200</time>
      </trkpt>
      <trkpt lat="44.9837" lon="6.53903">
        <ele>2153.4</ele>
        <time>2023-05-18T15:52:26+0200</time>
      </trkpt>
      <trkpt lat="44.98367" lon="6.53887">
        <ele>2153.1</ele>
        <time>2023-05-18T15:52:27+0200</time>
      </trkpt>
      <trkpt lat="44.98365" lon="6.53873">
        <ele>2152.4</ele>
        <time>2023-05-18T15:52:28+0200</time>
      </trkpt>
      <trkpt lat="44.98363" lon="6.53859">
        <ele>2151.7</ele>
        <time>2023-05-18T15:52:29+0200</time>
      </trkpt>
      <trkpt lat="44.98361" lon="6.53845">
        <ele>2151</ele>
        <time>2023-05-18T15:52:30+0200</time>
      </trkpt>
      <trkpt lat="44.98359" lon="6.53831">
        <ele>2150.1</ele>
        <time>2023-05-18T15:52:31+0200</time>
      </trkpt>
      <trkpt lat="44.98356" lon="6.53818">
        <ele>2148.3</ele>
        <time>2023-05-18T15:52:32+0200</time>
      </trkpt>
      <trkpt lat="44.98356" lon="6.53807">
        <ele>2148.8</ele>
        <time>2023-05-18T15:52:33+0200</time>
      </trkpt>
      <trkpt lat="44.98353" lon="6.53791">
        <ele>2147.9</ele>
        <time>2023-05-18T15:52:34+0200</time>
      </trkpt>
      <trkpt lat="44.98352" lon="6.53778">
        <ele>2147.6</ele>
        <time>2023-05-18T15:52:35+0200</time>
      </trkpt>
      <trkpt lat="44.98345" lon="6.53767">
        <ele>2144.3</ele>
        <time>2023-05-18T15:52:36+0200</time>
      </trkpt>
      <trkpt lat="44.98342" lon="6.53755">
        <ele>2142.8</ele>
        <time>2023-05-18T15:52:37+0200</time>
      </trkpt>
      <trkpt lat="44.98341" lon="6.53741">
        <ele>2143</ele>
        <time>2023-05-18T15:52:38+0200</time>
      </trkpt>
      <trkpt lat="44.98336" lon="6.5373">
        <ele>2141.9</ele>
        <time>2023-05-18T15:52:39+0200</time>
      </trkpt>
      <trkpt lat="44.98334" lon="6.53718">
        <ele>2141</ele>
        <time>2023-05-18T15:52:40+0200</time>
      </trkpt>
      <trkpt lat="44.98329" lon="6.53706">
        <ele>2138.3</ele>
        <time>2023-05-18T15:52:41+0200</time>
      </trkpt>
      <trkpt lat="44.98327" lon="6.53692">
        <ele>2137.3</ele>
        <time>2023-05-18T15:52:42+0200</time>
      </trkpt>
      <trkpt lat="44.98325" lon="6.53677">
        <ele>2135.4</ele>
        <time>2023-05-18T15:52:43+0200</time>
      </trkpt>
      <trkpt lat="44.98324" lon="6.5366">
        <ele>2134.7</ele>
        <time>2023-05-18T15:52:44+0200</time>
      </trkpt>
      <trkpt lat="44.98323" lon="6.53644">
        <ele>2133.7</ele>
        <time>2023-05-18T15:52:45+0200</time>
      </trkpt>
      <trkpt lat="44.98322" lon="6.53628">
        <ele>2131.6</ele>
        <time>2023-05-18T15:52:47+0200</time>
      </trkpt>
      <trkpt lat="44.98321" lon="6.53616">
        <ele>2129.8</ele>
        <time>2023-05-18T15:52:48+0200</time>
      </trkpt>
      <trkpt lat="44.98321" lon="6.53603">
        <ele>2128</ele>
        <time>2023-05-18T15:52:49+0200</time>
      </trkpt>
      <trkpt lat="44.98323" lon="6.53588">
        <ele>2126.3</ele>
        <time>2023-05-18T15:52:50+0200</time>
      </trkpt>
      <trkpt lat="44.98323" lon="6.53572">
        <ele>2124.1</ele>
        <time>2023-05-18T15:52:51+0200</time>
      </trkpt>
      <trkpt lat="44.98322" lon="6.53556">
        <ele>2121.4</ele>
        <time>2023-05-18T15:52:52+0200</time>
      </trkpt>
      <trkpt lat="44.98322" lon="6.53539">
        <ele>2119.3</ele>
        <time>2023-05-18T15:52:53+0200</time>
      </trkpt>
      <trkpt lat="44.98324" lon="6.53524">
        <ele>2117.9</ele>
        <time>2023-05-18T15:52:54+0200</time>
      </trkpt>
      <trkpt lat="44.98325" lon="6.53512">
        <ele>2115.7</ele>
        <time>2023-05-18T15:52:55+0200</time>
      </trkpt>
      <trkpt lat="44.98326" lon="6.535">
        <ele>2114.4</ele>
        <time>2023-05-18T15:52:56+0200</time>
      </trkpt>
      <trkpt lat="44.98331" lon="6.53488">
        <ele>2115.6</ele>
        <time>2023-05-18T15:52:57+0200</time>
      </trkpt>
      <trkpt lat="44.98331" lon="6.53474">
        <ele>2114.1</ele>
        <time>2023-05-18T15:52:58+0200</time>
      </trkpt>
      <trkpt lat="44.9833" lon="6.5346">
        <ele>2111.2</ele>
        <time>2023-05-18T15:52:59+0200</time>
      </trkpt>
      <trkpt lat="44.98333" lon="6.53446">
        <ele>2110.7</ele>
        <time>2023-05-18T15:53:00+0200</time>
      </trkpt>
      <trkpt lat="44.98334" lon="6.53431">
        <ele>2108.6</ele>
        <time>2023-05-18T15:53:01+0200</time>
      </trkpt>
      <trkpt lat="44.98335" lon="6.53417">
        <ele>2105.9</ele>
        <time>2023-05-18T15:53:02+0200</time>
      </trkpt>
      <trkpt lat="44.9834" lon="6.53402">
        <ele>2105.6</ele>
        <time>2023-05-18T15:53:03+0200</time>
      </trkpt>
      <trkpt lat="44.98341" lon="6.53385">
        <ele>2103.2</ele>
        <time>2023-05-18T15:53:04+0200</time>
      </trkpt>
      <trkpt lat="44.98343" lon="6.53369">
        <ele>2102.5</ele>
        <time>2023-05-18T15:53:05+0200</time>
      </trkpt>
      <trkpt lat="44.98343" lon="6.5335">
        <ele>2100.3</ele>
        <time>2023-05-18T15:53:06+0200</time>
      </trkpt>
      <trkpt lat="44.98344" lon="6.53333">
        <ele>2098.9</ele>
        <time>2023-05-18T15:53:07+0200</time>
      </trkpt>
      <trkpt lat="44.98344" lon="6.53318">
        <ele>2097.1</ele>
        <time>2023-05-18T15:53:08+0200</time>
      </trkpt>
      <trkpt lat="44.98344" lon="6.53304">
        <ele>2095.5</ele>
        <time>2023-05-18T15:53:09+0200</time>
      </trkpt>
      <trkpt lat="44.98346" lon="6.53289">
        <ele>2094</ele>
        <time>2023-05-18T15:53:10+0200</time>
      </trkpt>
      <trkpt lat="44.98348" lon="6.53272">
        <ele>2093</ele>
        <time>2023-05-18T15:53:11+0200</time>
      </trkpt>
      <trkpt lat="44.9835" lon="6.53257">
        <ele>2091.2</ele>
        <time>2023-05-18T15:53:12+0200</time>
      </trkpt>
      <trkpt lat="44.98352" lon="6.53241">
        <ele>2089.8</ele>
        <time>2023-05-18T15:53:13+0200</time>
      </trkpt>
      <trkpt lat="44.98352" lon="6.53224">
        <ele>2087.5</ele>
        <time>2023-05-18T15:53:14+0200</time>
      </trkpt>
      <trkpt lat="44.98355" lon="6.53206">
        <ele>2085.9</ele>
        <time>2023-05-18T15:53:15+0200</time>
      </trkpt>
      <trkpt lat="44.98356" lon="6.53191">
        <ele>2084</ele>
        <time>2023-05-18T15:53:16+0200</time>
      </trkpt>
      <trkpt lat="44.98358" lon="6.53177">
        <ele>2082.6</ele>
        <time>2023-05-18T15:53:17+0200</time>
      </trkpt>
      <trkpt lat="44.98361" lon="6.53167">
        <ele>2082.2</ele>
        <time>2023-05-18T15:53:18+0200</time>
      </trkpt>
      <trkpt lat="44.98366" lon="6.53155">
        <ele>2082.1</ele>
        <time>2023-05-18T15:53:19+0200</time>
      </trkpt>
      <trkpt lat="44.98369" lon="6.53142">
        <ele>2080.5</ele>
        <time>2023-05-18T15:53:20+0200</time>
      </trkpt>
      <trkpt lat="44.98375" lon="6.53131">
        <ele>2081</ele>
        <time>2023-05-18T15:53:21+0200</time>
      </trkpt>
      <trkpt lat="44.9838" lon="6.53119">
        <ele>2079.8</ele>
        <time>2023-05-18T15:53:22+0200</time>
      </trkpt>
      <trkpt lat="44.98385" lon="6.53109">
        <ele>2079.2</ele>
        <time>2023-05-18T15:53:23+0200</time>
      </trkpt>
      <trkpt lat="44.98391" lon="6.531">
        <ele>2078.9</ele>
        <time>2023-05-18T15:53:24+0200</time>
      </trkpt>
      <trkpt lat="44.98397" lon="6.53092">
        <ele>2079.2</ele>
        <time>2023-05-18T15:53:25+0200</time>
      </trkpt>
      <trkpt lat="44.98404" lon="6.53084">
        <ele>2079.5</ele>
        <time>2023-05-18T15:53:26+0200</time>
      </trkpt>
      <trkpt lat="44.9841" lon="6.53075">
        <ele>2078.9</ele>
        <time>2023-05-18T15:53:27+0200</time>
      </trkpt>
      <trkpt lat="44.98418" lon="6.53072">
        <ele>2080.2</ele>
        <time>2023-05-18T15:53:28+0200</time>
      </trkpt>
      <trkpt lat="44.98425" lon="6.53067">
        <ele>2080.6</ele>
        <time>2023-05-18T15:53:29+0200</time>
      </trkpt>
      <trkpt lat="44.9843" lon="6.53061">
        <ele>2080</ele>
        <time>2023-05-18T15:53:30+0200</time>
      </trkpt>
      <trkpt lat="44.98435" lon="6.53059">
        <ele>2080.4</ele>
        <time>2023-05-18T15:53:31+0200</time>
      </trkpt>
      <trkpt lat="44.98442" lon="6.53058">
        <ele>2082.4</ele>
        <time>2023-05-18T15:53:33+0200</time>
      </trkpt>
      <trkpt lat="44.98449" lon="6.53055">
        <ele>2082.6</ele>
        <time>2023-05-18T15:53:35+0200</time>
      </trkpt>
      <trkpt lat="44.98454" lon="6.53055">
        <ele>2083.3</ele>
        <time>2023-05-18T15:53:37+0200</time>
      </trkpt>
      <trkpt lat="44.9846" lon="6.53054">
        <ele>2083.7</ele>
        <time>2023-05-18T15:53:39+0200</time>
      </trkpt>
      <trkpt lat="44.98465" lon="6.53054">
        <ele>2084.5</ele>
        <time>2023-05-18T15:53:41+0200</time>
      </trkpt>
      <trkpt lat="44.9847" lon="6.53053">
        <ele>2085</ele>
        <time>2023-05-18T15:53:43+0200</time>
      </trkpt>
      <trkpt lat="44.98476" lon="6.53053">
        <ele>2085.5</ele>
        <time>2023-05-18T15:53:45+0200</time>
      </trkpt>
      <trkpt lat="44.98483" lon="6.53053">
        <ele>2085.9</ele>
        <time>2023-05-18T15:53:48+0200</time>
      </trkpt>
      <trkpt lat="44.98488" lon="6.53053">
        <ele>2085.9</ele>
        <time>2023-05-18T15:53:50+0200</time>
      </trkpt>
      <trkpt lat="44.98494" lon="6.53053">
        <ele>2086.3</ele>
        <time>2023-05-18T15:53:53+0200</time>
      </trkpt>
      <trkpt lat="44.985" lon="6.53056">
        <ele>2087</ele>
        <time>2023-05-18T15:53:57+0200</time>
      </trkpt>
      <trkpt lat="44.98505" lon="6.53058">
        <ele>2087.5</ele>
        <time>2023-05-18T15:54:00+0200</time>
      </trkpt>
      <trkpt lat="44.9851" lon="6.5306">
        <ele>2087.9</ele>
        <time>2023-05-18T15:54:02+0200</time>
      </trkpt>
      <trkpt lat="44.98516" lon="6.53063">
        <ele>2088.6</ele>
        <time>2023-05-18T15:54:05+0200</time>
      </trkpt>
      <trkpt lat="44.98521" lon="6.53066">
        <ele>2089.2</ele>
        <time>2023-05-18T15:54:08+0200</time>
      </trkpt>
      <trkpt lat="44.98526" lon="6.5307">
        <ele>2089.7</ele>
        <time>2023-05-18T15:54:11+0200</time>
      </trkpt>
      <trkpt lat="44.98531" lon="6.53072">
        <ele>2089.9</ele>
        <time>2023-05-18T15:54:14+0200</time>
      </trkpt>
      <trkpt lat="44.98536" lon="6.53076">
        <ele>2090.5</ele>
        <time>2023-05-18T15:54:17+0200</time>
      </trkpt>
      <trkpt lat="44.98542" lon="6.53078">
        <ele>2090.3</ele>
        <time>2023-05-18T15:54:21+0200</time>
      </trkpt>
      <trkpt lat="44.98546" lon="6.53083">
        <ele>2091</ele>
        <time>2023-05-18T15:54:24+0200</time>
      </trkpt>
      <trkpt lat="44.9855" lon="6.53087">
        <ele>2091.8</ele>
        <time>2023-05-18T15:54:26+0200</time>
      </trkpt>
      <trkpt lat="44.98554" lon="6.53091">
        <ele>2092.3</ele>
        <time>2023-05-18T15:54:28+0200</time>
      </trkpt>
      <trkpt lat="44.98558" lon="6.53095">
        <ele>2093.6</ele>
        <time>2023-05-18T15:54:30+0200</time>
      </trkpt>
      <trkpt lat="44.98563" lon="6.53098">
        <ele>2094.5</ele>
        <time>2023-05-18T15:54:32+0200</time>
      </trkpt>
      <trkpt lat="44.98568" lon="6.53102">
        <ele>2095.9</ele>
        <time>2023-05-18T15:54:36+0200</time>
      </trkpt>
      <trkpt lat="44.98572" lon="6.53104">
        <ele>2096.6</ele>
        <time>2023-05-18T15:54:39+0200</time>
      </trkpt>
      <trkpt lat="44.98578" lon="6.53103">
        <ele>2096.8</ele>
        <time>2023-05-18T15:54:42+0200</time>
      </trkpt>
      <trkpt lat="44.98583" lon="6.53106">
        <ele>2097.7</ele>
        <time>2023-05-18T15:54:46+0200</time>
      </trkpt>
      <trkpt lat="44.98589" lon="6.53105">
        <ele>2098.4</ele>
        <time>2023-05-18T15:54:49+0200</time>
      </trkpt>
      <trkpt lat="44.98594" lon="6.53106">
        <ele>2099.2</ele>
        <time>2023-05-18T15:54:53+0200</time>
      </trkpt>
      <trkpt lat="44.98599" lon="6.53107">
        <ele>2100.2</ele>
        <time>2023-05-18T15:54:57+0200</time>
      </trkpt>
      <trkpt lat="44.98604" lon="6.53105">
        <ele>2100.5</ele>
        <time>2023-05-18T15:54:59+0200</time>
      </trkpt>
      <trkpt lat="44.98609" lon="6.53105">
        <ele>2101.2</ele>
        <time>2023-05-18T15:55:02+0200</time>
      </trkpt>
      <trkpt lat="44.98614" lon="6.53105">
        <ele>2101.8</ele>
        <time>2023-05-18T15:55:04+0200</time>
      </trkpt>
      <trkpt lat="44.98619" lon="6.53104">
        <ele>2102.2</ele>
        <time>2023-05-18T15:55:06+0200</time>
      </trkpt>
      <trkpt lat="44.98624" lon="6.53103">
        <ele>2102.8</ele>
        <time>2023-05-18T15:55:09+0200</time>
      </trkpt>
      <trkpt lat="44.9863" lon="6.53102">
        <ele>2103.4</ele>
        <time>2023-05-18T15:55:12+0200</time>
      </trkpt>
      <trkpt lat="44.98635" lon="6.531">
        <ele>2103.6</ele>
        <time>2023-05-18T15:55:15+0200</time>
      </trkpt>
      <trkpt lat="44.9864" lon="6.531">
        <ele>2104.4</ele>
        <time>2023-05-18T15:55:18+0200</time>
      </trkpt>
      <trkpt lat="44.98646" lon="6.531">
        <ele>2105.2</ele>
        <time>2023-05-18T15:55:21+0200</time>
      </trkpt>
      <trkpt lat="44.9865" lon="6.531">
        <ele>2106</ele>
        <time>2023-05-18T15:55:25+0200</time>
      </trkpt>
      <trkpt lat="44.98655" lon="6.53098">
        <ele>2106.3</ele>
        <time>2023-05-18T15:55:28+0200</time>
      </trkpt>
      <trkpt lat="44.98659" lon="6.53096">
        <ele>2106.4</ele>
        <time>2023-05-18T15:55:31+0200</time>
      </trkpt>
      <trkpt lat="44.98664" lon="6.53099">
        <ele>2108</ele>
        <time>2023-05-18T15:55:35+0200</time>
      </trkpt>
      <trkpt lat="44.9867" lon="6.53097">
        <ele>2108.4</ele>
        <time>2023-05-18T15:55:38+0200</time>
      </trkpt>
      <trkpt lat="44.98675" lon="6.53097">
        <ele>2109.1</ele>
        <time>2023-05-18T15:55:41+0200</time>
      </trkpt>
      <trkpt lat="44.9868" lon="6.53096">
        <ele>2109.9</ele>
        <time>2023-05-18T15:55:44+0200</time>
      </trkpt>
      <trkpt lat="44.98685" lon="6.53096">
        <ele>2110.6</ele>
        <time>2023-05-18T15:55:48+0200</time>
      </trkpt>
      <trkpt lat="44.98689" lon="6.53095">
        <ele>2111.1</ele>
        <time>2023-05-18T15:55:51+0200</time>
      </trkpt>
      <trkpt lat="44.98695" lon="6.53094">
        <ele>2111.9</ele>
        <time>2023-05-18T15:55:55+0200</time>
      </trkpt>
      <trkpt lat="44.98701" lon="6.53094">
        <ele>2113</ele>
        <time>2023-05-18T15:55:58+0200</time>
      </trkpt>
      <trkpt lat="44.98706" lon="6.53094">
        <ele>2113.8</ele>
        <time>2023-05-18T15:56:02+0200</time>
      </trkpt>
      <trkpt lat="44.98711" lon="6.53093">
        <ele>2114.2</ele>
        <time>2023-05-18T15:56:06+0200</time>
      </trkpt>
      <trkpt lat="44.98715" lon="6.53091">
        <ele>2114.5</ele>
        <time>2023-05-18T15:56:09+0200</time>
      </trkpt>
      <trkpt lat="44.98721" lon="6.53089">
        <ele>2115.1</ele>
        <time>2023-05-18T15:56:14+0200</time>
      </trkpt>
      <trkpt lat="44.98725" lon="6.53088">
        <ele>2115.6</ele>
        <time>2023-05-18T15:56:16+0200</time>
      </trkpt>
      <trkpt lat="44.9873" lon="6.53086">
        <ele>2116</ele>
        <time>2023-05-18T15:56:19+0200</time>
      </trkpt>
      <trkpt lat="44.98736" lon="6.53087">
        <ele>2117.3</ele>
        <time>2023-05-18T15:56:22+0200</time>
      </trkpt>
      <trkpt lat="44.98741" lon="6.53088">
        <ele>2118.3</ele>
        <time>2023-05-18T15:56:26+0200</time>
      </trkpt>
      <trkpt lat="44.98746" lon="6.53089">
        <ele>2119.4</ele>
        <time>2023-05-18T15:56:31+0200</time>
      </trkpt>
      <trkpt lat="44.98751" lon="6.5309">
        <ele>2120.5</ele>
        <time>2023-05-18T15:56:35+0200</time>
      </trkpt>
      <trkpt lat="44.98757" lon="6.53087">
        <ele>2121.1</ele>
        <time>2023-05-18T15:56:39+0200</time>
      </trkpt>
      <trkpt lat="44.98762" lon="6.53085">
        <ele>2121.3</ele>
        <time>2023-05-18T15:56:43+0200</time>
      </trkpt>
      <trkpt lat="44.98767" lon="6.53082">
        <ele>2121.8</ele>
        <time>2023-05-18T15:56:46+0200</time>
      </trkpt>
      <trkpt lat="44.98772" lon="6.5308">
        <ele>2122.2</ele>
        <time>2023-05-18T15:56:50+0200</time>
      </trkpt>
      <trkpt lat="44.98777" lon="6.53077">
        <ele>2122.8</ele>
        <time>2023-05-18T15:56:55+0200</time>
      </trkpt>
      <trkpt lat="44.98783" lon="6.53077">
        <ele>2123.3</ele>
        <time>2023-05-18T15:57:00+0200</time>
      </trkpt>
      <trkpt lat="44.98788" lon="6.53077">
        <ele>2124</ele>
        <time>2023-05-18T15:57:03+0200</time>
      </trkpt>
      <trkpt lat="44.98794" lon="6.53077">
        <ele>2124.5</ele>
        <time>2023-05-18T15:57:06+0200</time>
      </trkpt>
      <trkpt lat="44.988" lon="6.53077">
        <ele>2125.1</ele>
        <time>2023-05-18T15:57:09+0200</time>
      </trkpt>
      <trkpt lat="44.98806" lon="6.53076">
        <ele>2125.5</ele>
        <time>2023-05-18T15:57:12+0200</time>
      </trkpt>
      <trkpt lat="44.98811" lon="6.53076">
        <ele>2126.1</ele>
        <time>2023-05-18T15:57:14+0200</time>
      </trkpt>
      <trkpt lat="44.98816" lon="6.53075">
        <ele>2126.7</ele>
        <time>2023-05-18T15:57:16+0200</time>
      </trkpt>
      <trkpt lat="44.98821" lon="6.53074">
        <ele>2127.3</ele>
        <time>2023-05-18T15:57:19+0200</time>
      </trkpt>
      <trkpt lat="44.98826" lon="6.53074">
        <ele>2128</ele>
        <time>2023-05-18T15:57:21+0200</time>
      </trkpt>
      <trkpt lat="44.98832" lon="6.53074">
        <ele>2128.8</ele>
        <time>2023-05-18T15:57:24+0200</time>
      </trkpt>
      <trkpt lat="44.98837" lon="6.53072">
        <ele>2129.2</ele>
        <time>2023-05-18T15:57:27+0200</time>
      </trkpt>
      <trkpt lat="44.98841" lon="6.53069">
        <ele>2129.2</ele>
        <time>2023-05-18T15:57:29+0200</time>
      </trkpt>
      <trkpt lat="44.98845" lon="6.53066">
        <ele>2129.1</ele>
        <time>2023-05-18T15:57:32+0200</time>
      </trkpt>
      <trkpt lat="44.98849" lon="6.5306">
        <ele>2128.8</ele>
        <time>2023-05-18T15:57:35+0200</time>
      </trkpt>
      <trkpt lat="44.98854" lon="6.53056">
        <ele>2128.8</ele>
        <time>2023-05-18T15:57:37+0200</time>
      </trkpt>
      <trkpt lat="44.98858" lon="6.53051">
        <ele>2129.2</ele>
        <time>2023-05-18T15:57:40+0200</time>
      </trkpt>
      <trkpt lat="44.98863" lon="6.53045">
        <ele>2129.6</ele>
        <time>2023-05-18T15:57:43+0200</time>
      </trkpt>
      <trkpt lat="44.98866" lon="6.53041">
        <ele>2129.9</ele>
        <time>2023-05-18T15:57:45+0200</time>
      </trkpt>
      <trkpt lat="44.98869" lon="6.53034">
        <ele>2129.9</ele>
        <time>2023-05-18T15:57:47+0200</time>
      </trkpt>
      <trkpt lat="44.98872" lon="6.53029">
        <ele>2130.1</ele>
        <time>2023-05-18T15:57:49+0200</time>
      </trkpt>
      <trkpt lat="44.98876" lon="6.53023">
        <ele>2130.4</ele>
        <time>2023-05-18T15:57:51+0200</time>
      </trkpt>
      <trkpt lat="44.98879" lon="6.53019">
        <ele>2130.6</ele>
        <time>2023-05-18T15:57:53+0200</time>
      </trkpt>
      <trkpt lat="44.98884" lon="6.53013">
        <ele>2131</ele>
        <time>2023-05-18T15:57:55+0200</time>
      </trkpt>
      <trkpt lat="44.98888" lon="6.53005">
        <ele>2131.2</ele>
        <time>2023-05-18T15:57:58+0200</time>
      </trkpt>
      <trkpt lat="44.98891" lon="6.53">
        <ele>2131.4</ele>
        <time>2023-05-18T15:58:00+0200</time>
      </trkpt>
      <trkpt lat="44.98895" lon="6.52992">
        <ele>2131.4</ele>
        <time>2023-05-18T15:58:03+0200</time>
      </trkpt>
      <trkpt lat="44.98899" lon="6.52988">
        <ele>2131.7</ele>
        <time>2023-05-18T15:58:05+0200</time>
      </trkpt>
      <trkpt lat="44.98904" lon="6.52982">
        <ele>2131.9</ele>
        <time>2023-05-18T15:58:07+0200</time>
      </trkpt>
      <trkpt lat="44.98909" lon="6.52975">
        <ele>2132.1</ele>
        <time>2023-05-18T15:58:10+0200</time>
      </trkpt>
      <trkpt lat="44.98911" lon="6.5297">
        <ele>2132</ele>
        <time>2023-05-18T15:58:12+0200</time>
      </trkpt>
      <trkpt lat="44.98915" lon="6.52964">
        <ele>2132.1</ele>
        <time>2023-05-18T15:58:15+0200</time>
      </trkpt>
      <trkpt lat="44.98917" lon="6.52957">
        <ele>2131.9</ele>
        <time>2023-05-18T15:58:16+0200</time>
      </trkpt>
      <trkpt lat="44.9892" lon="6.52951">
        <ele>2132</ele>
        <time>2023-05-18T15:58:18+0200</time>
      </trkpt>
      <trkpt lat="44.98924" lon="6.52945">
        <ele>2132.1</ele>
        <time>2023-05-18T15:58:21+0200</time>
      </trkpt>
      <trkpt lat="44.98925" lon="6.52932">
        <ele>2131</ele>
        <time>2023-05-18T15:58:24+0200</time>
      </trkpt>
      <trkpt lat="44.98922" lon="6.52926">
        <ele>2129.9</ele>
        <time>2023-05-18T15:58:25+0200</time>
      </trkpt>
      <trkpt lat="44.98921" lon="6.52919">
        <ele>2128.9</ele>
        <time>2023-05-18T15:58:26+0200</time>
      </trkpt>
      <trkpt lat="44.98917" lon="6.52913">
        <ele>2128</ele>
        <time>2023-05-18T15:58:27+0200</time>
      </trkpt>
      <trkpt lat="44.98913" lon="6.52906">
        <ele>2127</ele>
        <time>2023-05-18T15:58:29+0200</time>
      </trkpt>
      <trkpt lat="44.98909" lon="6.52901">
        <ele>2126.2</ele>
        <time>2023-05-18T15:58:31+0200</time>
      </trkpt>
      <trkpt lat="44.98903" lon="6.52895">
        <ele>2124.9</ele>
        <time>2023-05-18T15:58:33+0200</time>
      </trkpt>
      <trkpt lat="44.98899" lon="6.5289">
        <ele>2123.9</ele>
        <time>2023-05-18T15:58:37+0200</time>
      </trkpt>
      <trkpt lat="44.98896" lon="6.52881">
        <ele>2123.6</ele>
        <time>2023-05-18T15:58:40+0200</time>
      </trkpt>
      <trkpt lat="44.98893" lon="6.52876">
        <ele>2123.1</ele>
        <time>2023-05-18T15:58:43+0200</time>
      </trkpt>
      <trkpt lat="44.9889" lon="6.5287">
        <ele>2122.9</ele>
        <time>2023-05-18T15:58:45+0200</time>
      </trkpt>
      <trkpt lat="44.98884" lon="6.52867">
        <ele>2122</ele>
        <time>2023-05-18T15:58:49+0200</time>
      </trkpt>
      <trkpt lat="44.9888" lon="6.52865">
        <ele>2121.2</ele>
        <time>2023-05-18T15:58:52+0200</time>
      </trkpt>
      <trkpt lat="44.9888" lon="6.52871">
        <ele>2121.2</ele>
        <time>2023-05-18T15:59:00+0200</time>
      </trkpt>
      <trkpt lat="44.98876" lon="6.52875">
        <ele>2120.4</ele>
        <time>2023-05-18T15:59:15+0200</time>
      </trkpt>
      <trkpt lat="44.98868" lon="6.52874">
        <ele>2119</ele>
        <time>2023-05-18T15:59:17+0200</time>
      </trkpt>
      <trkpt lat="44.98859" lon="6.52867">
        <ele>2117.6</ele>
        <time>2023-05-18T15:59:19+0200</time>
      </trkpt>
      <trkpt lat="44.9885" lon="6.52866">
        <ele>2116.3</ele>
        <time>2023-05-18T15:59:21+0200</time>
      </trkpt>
      <trkpt lat="44.98845" lon="6.52864">
        <ele>2115.6</ele>
        <time>2023-05-18T15:59:22+0200</time>
      </trkpt>
      <trkpt lat="44.98839" lon="6.52863">
        <ele>2114.8</ele>
        <time>2023-05-18T15:59:23+0200</time>
      </trkpt>
      <trkpt lat="44.98834" lon="6.52861">
        <ele>2114</ele>
        <time>2023-05-18T15:59:24+0200</time>
      </trkpt>
      <trkpt lat="44.9883" lon="6.52855">
        <ele>2113.7</ele>
        <time>2023-05-18T15:59:25+0200</time>
      </trkpt>
      <trkpt lat="44.98823" lon="6.52854">
        <ele>2112.7</ele>
        <time>2023-05-18T15:59:26+0200</time>
      </trkpt>
      <trkpt lat="44.98818" lon="6.52848">
        <ele>2112</ele>
        <time>2023-05-18T15:59:27+0200</time>
      </trkpt>
      <trkpt lat="44.98814" lon="6.52838">
        <ele>2111.5</ele>
        <time>2023-05-18T15:59:28+0200</time>
      </trkpt>
      <trkpt lat="44.98808" lon="6.52832">
        <ele>2110.5</ele>
        <time>2023-05-18T15:59:29+0200</time>
      </trkpt>
      <trkpt lat="44.98802" lon="6.52826">
        <ele>2109.9</ele>
        <time>2023-05-18T15:59:30+0200</time>
      </trkpt>
      <trkpt lat="44.98796" lon="6.5282">
        <ele>2109.4</ele>
        <time>2023-05-18T15:59:31+0200</time>
      </trkpt>
      <trkpt lat="44.9879" lon="6.52814">
        <ele>2109.1</ele>
        <time>2023-05-18T15:59:32+0200</time>
      </trkpt>
      <trkpt lat="44.98785" lon="6.52808">
        <ele>2108.7</ele>
        <time>2023-05-18T15:59:33+0200</time>
      </trkpt>
      <trkpt lat="44.9878" lon="6.52801">
        <ele>2108.6</ele>
        <time>2023-05-18T15:59:34+0200</time>
      </trkpt>
      <trkpt lat="44.98776" lon="6.52794">
        <ele>2108.5</ele>
        <time>2023-05-18T15:59:35+0200</time>
      </trkpt>
      <trkpt lat="44.98771" lon="6.52787">
        <ele>2108.2</ele>
        <time>2023-05-18T15:59:36+0200</time>
      </trkpt>
      <trkpt lat="44.98766" lon="6.5278">
        <ele>2107.8</ele>
        <time>2023-05-18T15:59:37+0200</time>
      </trkpt>
      <trkpt lat="44.98763" lon="6.52776">
        <ele>2107.4</ele>
        <time>2023-05-18T15:59:38+0200</time>
      </trkpt>
      <trkpt lat="44.98758" lon="6.52772">
        <ele>2106.6</ele>
        <time>2023-05-18T15:59:39+0200</time>
      </trkpt>
      <trkpt lat="44.98754" lon="6.52765">
        <ele>2106.3</ele>
        <time>2023-05-18T15:59:40+0200</time>
      </trkpt>
      <trkpt lat="44.98752" lon="6.52758">
        <ele>2106</ele>
        <time>2023-05-18T15:59:41+0200</time>
      </trkpt>
      <trkpt lat="44.98748" lon="6.52753">
        <ele>2105.5</ele>
        <time>2023-05-18T15:59:42+0200</time>
      </trkpt>
      <trkpt lat="44.98744" lon="6.52746">
        <ele>2105.1</ele>
        <time>2023-05-18T15:59:43+0200</time>
      </trkpt>
      <trkpt lat="44.9874" lon="6.5274">
        <ele>2104.6</ele>
        <time>2023-05-18T15:59:44+0200</time>
      </trkpt>
      <trkpt lat="44.98737" lon="6.52733">
        <ele>2104.2</ele>
        <time>2023-05-18T15:59:45+0200</time>
      </trkpt>
      <trkpt lat="44.98733" lon="6.52725">
        <ele>2103.8</ele>
        <time>2023-05-18T15:59:46+0200</time>
      </trkpt>
      <trkpt lat="44.98729" lon="6.52718">
        <ele>2103.7</ele>
        <time>2023-05-18T15:59:47+0200</time>
      </trkpt>
      <trkpt lat="44.98726" lon="6.5271">
        <ele>2103.9</ele>
        <time>2023-05-18T15:59:48+0200</time>
      </trkpt>
      <trkpt lat="44.98724" lon="6.52702">
        <ele>2104.5</ele>
        <time>2023-05-18T15:59:49+0200</time>
      </trkpt>
      <trkpt lat="44.98721" lon="6.52696">
        <ele>2104.7</ele>
        <time>2023-05-18T15:59:50+0200</time>
      </trkpt>
      <trkpt lat="44.98717" lon="6.5269">
        <ele>2105</ele>
        <time>2023-05-18T15:59:51+0200</time>
      </trkpt>
      <trkpt lat="44.98712" lon="6.52689">
        <ele>2104.3</ele>
        <time>2023-05-18T15:59:52+0200</time>
      </trkpt>
      <trkpt lat="44.98707" lon="6.52687">
        <ele>2103.8</ele>
        <time>2023-05-18T15:59:53+0200</time>
      </trkpt>
      <trkpt lat="44.98702" lon="6.52684">
        <ele>2103.2</ele>
        <time>2023-05-18T15:59:54+0200</time>
      </trkpt>
      <trkpt lat="44.98695" lon="6.52683">
        <ele>2102.2</ele>
        <time>2023-05-18T15:59:55+0200</time>
      </trkpt>
      <trkpt lat="44.98689" lon="6.52681">
        <ele>2101</ele>
        <time>2023-05-18T15:59:56+0200</time>
      </trkpt>
      <trkpt lat="44.98683" lon="6.52676">
        <ele>2100.4</ele>
        <time>2023-05-18T15:59:57+0200</time>
      </trkpt>
      <trkpt lat="44.98679" lon="6.52669">
        <ele>2100.3</ele>
        <time>2023-05-18T15:59:58+0200</time>
      </trkpt>
      <trkpt lat="44.98675" lon="6.52662">
        <ele>2100.5</ele>
        <time>2023-05-18T15:59:59+0200</time>
      </trkpt>
      <trkpt lat="44.98671" lon="6.52655">
        <ele>2100.6</ele>
        <time>2023-05-18T16:00:00+0200</time>
      </trkpt>
      <trkpt lat="44.98667" lon="6.52647">
        <ele>2100.7</ele>
        <time>2023-05-18T16:00:01+0200</time>
      </trkpt>
      <trkpt lat="44.98662" lon="6.52639">
        <ele>2100</ele>
        <time>2023-05-18T16:00:02+0200</time>
      </trkpt>
      <trkpt lat="44.98655" lon="6.52633">
        <ele>2098.6</ele>
        <time>2023-05-18T16:00:03+0200</time>
      </trkpt>
      <trkpt lat="44.98652" lon="6.52623">
        <ele>2098.9</ele>
        <time>2023-05-18T16:00:04+0200</time>
      </trkpt>
      <trkpt lat="44.98648" lon="6.52615">
        <ele>2098.5</ele>
        <time>2023-05-18T16:00:05+0200</time>
      </trkpt>
      <trkpt lat="44.98644" lon="6.52606">
        <ele>2098.3</ele>
        <time>2023-05-18T16:00:06+0200</time>
      </trkpt>
      <trkpt lat="44.98638" lon="6.52599">
        <ele>2097.3</ele>
        <time>2023-05-18T16:00:07+0200</time>
      </trkpt>
      <trkpt lat="44.98636" lon="6.52589">
        <ele>2097.6</ele>
        <time>2023-05-18T16:00:08+0200</time>
      </trkpt>
      <trkpt lat="44.98631" lon="6.52582">
        <ele>2095.9</ele>
        <time>2023-05-18T16:00:09+0200</time>
      </trkpt>
      <trkpt lat="44.98627" lon="6.52573">
        <ele>2094.7</ele>
        <time>2023-05-18T16:00:10+0200</time>
      </trkpt>
      <trkpt lat="44.98623" lon="6.52565">
        <ele>2093.4</ele>
        <time>2023-05-18T16:00:11+0200</time>
      </trkpt>
      <trkpt lat="44.9862" lon="6.52558">
        <ele>2092.7</ele>
        <time>2023-05-18T16:00:12+0200</time>
      </trkpt>
      <trkpt lat="44.98621" lon="6.52548">
        <ele>2094.3</ele>
        <time>2023-05-18T16:00:13+0200</time>
      </trkpt>
      <trkpt lat="44.98618" lon="6.5254">
        <ele>2092.8</ele>
        <time>2023-05-18T16:00:14+0200</time>
      </trkpt>
      <trkpt lat="44.98616" lon="6.5253">
        <ele>2091.8</ele>
        <time>2023-05-18T16:00:15+0200</time>
      </trkpt>
      <trkpt lat="44.98615" lon="6.52518">
        <ele>2091.2</ele>
        <time>2023-05-18T16:00:16+0200</time>
      </trkpt>
      <trkpt lat="44.98614" lon="6.52507">
        <ele>2090.6</ele>
        <time>2023-05-18T16:00:17+0200</time>
      </trkpt>
      <trkpt lat="44.98613" lon="6.52495">
        <ele>2089.9</ele>
        <time>2023-05-18T16:00:18+0200</time>
      </trkpt>
      <trkpt lat="44.98615" lon="6.52485">
        <ele>2089.4</ele>
        <time>2023-05-18T16:00:19+0200</time>
      </trkpt>
      <trkpt lat="44.98617" lon="6.52475">
        <ele>2089.3</ele>
        <time>2023-05-18T16:00:20+0200</time>
      </trkpt>
      <trkpt lat="44.9862" lon="6.52467">
        <ele>2088.7</ele>
        <time>2023-05-18T16:00:21+0200</time>
      </trkpt>
      <trkpt lat="44.98624" lon="6.52459">
        <ele>2087.9</ele>
        <time>2023-05-18T16:00:22+0200</time>
      </trkpt>
      <trkpt lat="44.98629" lon="6.5245">
        <ele>2087</ele>
        <time>2023-05-18T16:00:23+0200</time>
      </trkpt>
      <trkpt lat="44.98633" lon="6.52438">
        <ele>2085.5</ele>
        <time>2023-05-18T16:00:24+0200</time>
      </trkpt>
      <trkpt lat="44.98639" lon="6.52427">
        <ele>2085.2</ele>
        <time>2023-05-18T16:00:25+0200</time>
      </trkpt>
      <trkpt lat="44.98641" lon="6.52414">
        <ele>2083.9</ele>
        <time>2023-05-18T16:00:26+0200</time>
      </trkpt>
      <trkpt lat="44.98643" lon="6.52402">
        <ele>2084.2</ele>
        <time>2023-05-18T16:00:27+0200</time>
      </trkpt>
      <trkpt lat="44.98639" lon="6.52389">
        <ele>2081.9</ele>
        <time>2023-05-18T16:00:28+0200</time>
      </trkpt>
      <trkpt lat="44.98633" lon="6.52379">
        <ele>2081.3</ele>
        <time>2023-05-18T16:00:29+0200</time>
      </trkpt>
      <trkpt lat="44.98631" lon="6.52366">
        <ele>2081.7</ele>
        <time>2023-05-18T16:00:30+0200</time>
      </trkpt>
      <trkpt lat="44.98626" lon="6.52356">
        <ele>2081.1</ele>
        <time>2023-05-18T16:00:31+0200</time>
      </trkpt>
      <trkpt lat="44.98626" lon="6.52346">
        <ele>2081.3</ele>
        <time>2023-05-18T16:00:32+0200</time>
      </trkpt>
      <trkpt lat="44.98623" lon="6.52337">
        <ele>2080.6</ele>
        <time>2023-05-18T16:00:33+0200</time>
      </trkpt>
      <trkpt lat="44.9862" lon="6.52328">
        <ele>2079.7</ele>
        <time>2023-05-18T16:00:33+0200</time>
      </trkpt>
      <trkpt lat="44.98617" lon="6.52321">
        <ele>2078.3</ele>
        <time>2023-05-18T16:00:34+0200</time>
      </trkpt>
      <trkpt lat="44.98612" lon="6.5231">
        <ele>2076.3</ele>
        <time>2023-05-18T16:00:35+0200</time>
      </trkpt>
      <trkpt lat="44.98607" lon="6.52297">
        <ele>2075.2</ele>
        <time>2023-05-18T16:00:36+0200</time>
      </trkpt>
      <trkpt lat="44.98604" lon="6.52288">
        <ele>2074.6</ele>
        <time>2023-05-18T16:00:37+0200</time>
      </trkpt>
      <trkpt lat="44.98602" lon="6.52278">
        <ele>2074.4</ele>
        <time>2023-05-18T16:00:38+0200</time>
      </trkpt>
      <trkpt lat="44.986" lon="6.5227">
        <ele>2073.3</ele>
        <time>2023-05-18T16:00:39+0200</time>
      </trkpt>
      <trkpt lat="44.98597" lon="6.52261">
        <ele>2072</ele>
        <time>2023-05-18T16:00:40+0200</time>
      </trkpt>
      <trkpt lat="44.98594" lon="6.52252">
        <ele>2070.6</ele>
        <time>2023-05-18T16:00:41+0200</time>
      </trkpt>
      <trkpt lat="44.98592" lon="6.52239">
        <ele>2068.6</ele>
        <time>2023-05-18T16:00:42+0200</time>
      </trkpt>
      <trkpt lat="44.98588" lon="6.52226">
        <ele>2066.2</ele>
        <time>2023-05-18T16:00:43+0200</time>
      </trkpt>
      <trkpt lat="44.98584" lon="6.52215">
        <ele>2063.7</ele>
        <time>2023-05-18T16:00:44+0200</time>
      </trkpt>
      <trkpt lat="44.98579" lon="6.52204">
        <ele>2061.1</ele>
        <time>2023-05-18T16:00:45+0200</time>
      </trkpt>
      <trkpt lat="44.98574" lon="6.52191">
        <ele>2058.7</ele>
        <time>2023-05-18T16:00:46+0200</time>
      </trkpt>
      <trkpt lat="44.98568" lon="6.52175">
        <ele>2057</ele>
        <time>2023-05-18T16:00:47+0200</time>
      </trkpt>
      <trkpt lat="44.98564" lon="6.52162">
        <ele>2056</ele>
        <time>2023-05-18T16:00:48+0200</time>
      </trkpt>
      <trkpt lat="44.98563" lon="6.5215">
        <ele>2055.3</ele>
        <time>2023-05-18T16:00:49+0200</time>
      </trkpt>
      <trkpt lat="44.98561" lon="6.52141">
        <ele>2054.3</ele>
        <time>2023-05-18T16:00:50+0200</time>
      </trkpt>
      <trkpt lat="44.98557" lon="6.52131">
        <ele>2052.9</ele>
        <time>2023-05-18T16:00:51+0200</time>
      </trkpt>
      <trkpt lat="44.98553" lon="6.52119">
        <ele>2050.9</ele>
        <time>2023-05-18T16:00:52+0200</time>
      </trkpt>
      <trkpt lat="44.98548" lon="6.52108">
        <ele>2049</ele>
        <time>2023-05-18T16:00:53+0200</time>
      </trkpt>
      <trkpt lat="44.98546" lon="6.52097">
        <ele>2048.1</ele>
        <time>2023-05-18T16:00:54+0200</time>
      </trkpt>
      <trkpt lat="44.98542" lon="6.52088">
        <ele>2046.6</ele>
        <time>2023-05-18T16:00:55+0200</time>
      </trkpt>
      <trkpt lat="44.9854" lon="6.5208">
        <ele>2045.2</ele>
        <time>2023-05-18T16:00:56+0200</time>
      </trkpt>
      <trkpt lat="44.98538" lon="6.52072">
        <ele>2043.1</ele>
        <time>2023-05-18T16:00:57+0200</time>
      </trkpt>
      <trkpt lat="44.98539" lon="6.52062">
        <ele>2042.2</ele>
        <time>2023-05-18T16:00:58+0200</time>
      </trkpt>
      <trkpt lat="44.9854" lon="6.52049">
        <ele>2040.4</ele>
        <time>2023-05-18T16:00:59+0200</time>
      </trkpt>
      <trkpt lat="44.98541" lon="6.52035">
        <ele>2037.6</ele>
        <time>2023-05-18T16:01:00+0200</time>
      </trkpt>
      <trkpt lat="44.98541" lon="6.52024">
        <ele>2035.4</ele>
        <time>2023-05-18T16:01:01+0200</time>
      </trkpt>
      <trkpt lat="44.98539" lon="6.52011">
        <ele>2032.4</ele>
        <time>2023-05-18T16:01:02+0200</time>
      </trkpt>
      <trkpt lat="44.98537" lon="6.51995">
        <ele>2029.7</ele>
        <time>2023-05-18T16:01:03+0200</time>
      </trkpt>
      <trkpt lat="44.98537" lon="6.51981">
        <ele>2028.1</ele>
        <time>2023-05-18T16:01:04+0200</time>
      </trkpt>
      <trkpt lat="44.98536" lon="6.5197">
        <ele>2026.4</ele>
        <time>2023-05-18T16:01:05+0200</time>
      </trkpt>
      <trkpt lat="44.98537" lon="6.5196">
        <ele>2024.8</ele>
        <time>2023-05-18T16:01:06+0200</time>
      </trkpt>
      <trkpt lat="44.98539" lon="6.51946">
        <ele>2023.6</ele>
        <time>2023-05-18T16:01:07+0200</time>
      </trkpt>
      <trkpt lat="44.98542" lon="6.51932">
        <ele>2021.6</ele>
        <time>2023-05-18T16:01:08+0200</time>
      </trkpt>
      <trkpt lat="44.98542" lon="6.51922">
        <ele>2019.2</ele>
        <time>2023-05-18T16:01:09+0200</time>
      </trkpt>
      <trkpt lat="44.98544" lon="6.51912">
        <ele>2018</ele>
        <time>2023-05-18T16:01:11+0200</time>
      </trkpt>
      <trkpt lat="44.98545" lon="6.51899">
        <ele>2015.9</ele>
        <time>2023-05-18T16:01:12+0200</time>
      </trkpt>
      <trkpt lat="44.98547" lon="6.51884">
        <ele>2013.8</ele>
        <time>2023-05-18T16:01:13+0200</time>
      </trkpt>
      <trkpt lat="44.98549" lon="6.51869">
        <ele>2011.1</ele>
        <time>2023-05-18T16:01:14+0200</time>
      </trkpt>
      <trkpt lat="44.98552" lon="6.51852">
        <ele>2008.8</ele>
        <time>2023-05-18T16:01:15+0200</time>
      </trkpt>
      <trkpt lat="44.98555" lon="6.51835">
        <ele>2006.7</ele>
        <time>2023-05-18T16:01:16+0200</time>
      </trkpt>
      <trkpt lat="44.98558" lon="6.5182">
        <ele>2004.8</ele>
        <time>2023-05-18T16:01:17+0200</time>
      </trkpt>
      <trkpt lat="44.9856" lon="6.51808">
        <ele>2002.6</ele>
        <time>2023-05-18T16:01:18+0200</time>
      </trkpt>
      <trkpt lat="44.98564" lon="6.51795">
        <ele>2000.2</ele>
        <time>2023-05-18T16:01:19+0200</time>
      </trkpt>
      <trkpt lat="44.98568" lon="6.51781">
        <ele>1997.9</ele>
        <time>2023-05-18T16:01:20+0200</time>
      </trkpt>
      <trkpt lat="44.98571" lon="6.51768">
        <ele>1995.4</ele>
        <time>2023-05-18T16:01:21+0200</time>
      </trkpt>
      <trkpt lat="44.98576" lon="6.51752">
        <ele>1992.8</ele>
        <time>2023-05-18T16:01:22+0200</time>
      </trkpt>
      <trkpt lat="44.9858" lon="6.51734">
        <ele>1989.9</ele>
        <time>2023-05-18T16:01:23+0200</time>
      </trkpt>
      <trkpt lat="44.98584" lon="6.51718">
        <ele>1987.3</ele>
        <time>2023-05-18T16:01:24+0200</time>
      </trkpt>
      <trkpt lat="44.98587" lon="6.51705">
        <ele>1986</ele>
        <time>2023-05-18T16:01:25+0200</time>
      </trkpt>
      <trkpt lat="44.98589" lon="6.5169">
        <ele>1983.5</ele>
        <time>2023-05-18T16:01:26+0200</time>
      </trkpt>
      <trkpt lat="44.9859" lon="6.51676">
        <ele>1981.7</ele>
        <time>2023-05-18T16:01:27+0200</time>
      </trkpt>
      <trkpt lat="44.98591" lon="6.51665">
        <ele>1980.5</ele>
        <time>2023-05-18T16:01:28+0200</time>
      </trkpt>
      <trkpt lat="44.98587" lon="6.51656">
        <ele>1977.8</ele>
        <time>2023-05-18T16:01:29+0200</time>
      </trkpt>
      <trkpt lat="44.98587" lon="6.51647">
        <ele>1976.4</ele>
        <time>2023-05-18T16:01:30+0200</time>
      </trkpt>
      <trkpt lat="44.98584" lon="6.51637">
        <ele>1974</ele>
        <time>2023-05-18T16:01:31+0200</time>
      </trkpt>
      <trkpt lat="44.98581" lon="6.51626">
        <ele>1972.5</ele>
        <time>2023-05-18T16:01:32+0200</time>
      </trkpt>
      <trkpt lat="44.98581" lon="6.51615">
        <ele>1971.5</ele>
        <time>2023-05-18T16:01:33+0200</time>
      </trkpt>
      <trkpt lat="44.98579" lon="6.51605">
        <ele>1970.2</ele>
        <time>2023-05-18T16:01:34+0200</time>
      </trkpt>
      <trkpt lat="44.98579" lon="6.51592">
        <ele>1968.8</ele>
        <time>2023-05-18T16:01:35+0200</time>
      </trkpt>
      <trkpt lat="44.98578" lon="6.5158">
        <ele>1967.6</ele>
        <time>2023-05-18T16:01:36+0200</time>
      </trkpt>
      <trkpt lat="44.98574" lon="6.51568">
        <ele>1966.2</ele>
        <time>2023-05-18T16:01:37+0200</time>
      </trkpt>
      <trkpt lat="44.98572" lon="6.51557">
        <ele>1965.1</ele>
        <time>2023-05-18T16:01:38+0200</time>
      </trkpt>
      <trkpt lat="44.98568" lon="6.51547">
        <ele>1963.6</ele>
        <time>2023-05-18T16:01:39+0200</time>
      </trkpt>
      <trkpt lat="44.98566" lon="6.51538">
        <ele>1962.5</ele>
        <time>2023-05-18T16:01:40+0200</time>
      </trkpt>
      <trkpt lat="44.98565" lon="6.51531">
        <ele>1962</ele>
        <time>2023-05-18T16:01:41+0200</time>
      </trkpt>
      <trkpt lat="44.98566" lon="6.51522">
        <ele>1960.9</ele>
        <time>2023-05-18T16:01:44+0200</time>
      </trkpt>
      <trkpt lat="44.98567" lon="6.5151">
        <ele>1959.2</ele>
        <time>2023-05-18T16:01:46+0200</time>
      </trkpt>
      <trkpt lat="44.98567" lon="6.51504">
        <ele>1958.3</ele>
        <time>2023-05-18T16:01:47+0200</time>
      </trkpt>
      <trkpt lat="44.98567" lon="6.5149">
        <ele>1954.7</ele>
        <time>2023-05-18T16:01:49+0200</time>
      </trkpt>
      <trkpt lat="44.98568" lon="6.51483">
        <ele>1953.2</ele>
        <time>2023-05-18T16:01:50+0200</time>
      </trkpt>
      <trkpt lat="44.98568" lon="6.51474">
        <ele>1950.6</ele>
        <time>2023-05-18T16:01:52+0200</time>
      </trkpt>
      <trkpt lat="44.9857" lon="6.51466">
        <ele>1949.2</ele>
        <time>2023-05-18T16:01:54+0200</time>
      </trkpt>
      <trkpt lat="44.98572" lon="6.51458">
        <ele>1947.9</ele>
        <time>2023-05-18T16:01:57+0200</time>
      </trkpt>
      <trkpt lat="44.98575" lon="6.51447">
        <ele>1945.6</ele>
        <time>2023-05-18T16:01:59+0200</time>
      </trkpt>
      <trkpt lat="44.98577" lon="6.51439">
        <ele>1943.5</ele>
        <time>2023-05-18T16:02:00+0200</time>
      </trkpt>
      <trkpt lat="44.9858" lon="6.5143">
        <ele>1941.4</ele>
        <time>2023-05-18T16:02:02+0200</time>
      </trkpt>
      <trkpt lat="44.98584" lon="6.5142">
        <ele>1939.5</ele>
        <time>2023-05-18T16:02:04+0200</time>
      </trkpt>
      <trkpt lat="44.98585" lon="6.51412">
        <ele>1937.4</ele>
        <time>2023-05-18T16:02:06+0200</time>
      </trkpt>
      <trkpt lat="44.98587" lon="6.51406">
        <ele>1936.8</ele>
        <time>2023-05-18T16:02:07+0200</time>
      </trkpt>
      <trkpt lat="44.98587" lon="6.51398">
        <ele>1935.1</ele>
        <time>2023-05-18T16:02:09+0200</time>
      </trkpt>
      <trkpt lat="44.98592" lon="6.51389">
        <ele>1934.8</ele>
        <time>2023-05-18T16:02:11+0200</time>
      </trkpt>
      <trkpt lat="44.98593" lon="6.51381">
        <ele>1933.5</ele>
        <time>2023-05-18T16:02:12+0200</time>
      </trkpt>
      <trkpt lat="44.98594" lon="6.51371">
        <ele>1931.3</ele>
        <time>2023-05-18T16:02:13+0200</time>
      </trkpt>
      <trkpt lat="44.98595" lon="6.5136">
        <ele>1929.1</ele>
        <time>2023-05-18T16:02:14+0200</time>
      </trkpt>
      <trkpt lat="44.98595" lon="6.51349">
        <ele>1927.2</ele>
        <time>2023-05-18T16:02:15+0200</time>
      </trkpt>
      <trkpt lat="44.98595" lon="6.51337">
        <ele>1925.2</ele>
        <time>2023-05-18T16:02:16+0200</time>
      </trkpt>
      <trkpt lat="44.98598" lon="6.51325">
        <ele>1923.8</ele>
        <time>2023-05-18T16:02:17+0200</time>
      </trkpt>
      <trkpt lat="44.986" lon="6.51313">
        <ele>1922.3</ele>
        <time>2023-05-18T16:02:18+0200</time>
      </trkpt>
      <trkpt lat="44.98602" lon="6.51305">
        <ele>1921.3</ele>
        <time>2023-05-18T16:02:19+0200</time>
      </trkpt>
      <trkpt lat="44.98601" lon="6.51296">
        <ele>1919.5</ele>
        <time>2023-05-18T16:02:20+0200</time>
      </trkpt>
      <trkpt lat="44.98602" lon="6.51283">
        <ele>1917.3</ele>
        <time>2023-05-18T16:02:21+0200</time>
      </trkpt>
      <trkpt lat="44.98601" lon="6.51269">
        <ele>1915.1</ele>
        <time>2023-05-18T16:02:22+0200</time>
      </trkpt>
      <trkpt lat="44.98602" lon="6.51255">
        <ele>1913.1</ele>
        <time>2023-05-18T16:02:23+0200</time>
      </trkpt>
      <trkpt lat="44.98602" lon="6.51244">
        <ele>1911.4</ele>
        <time>2023-05-18T16:02:24+0200</time>
      </trkpt>
      <trkpt lat="44.98602" lon="6.51234">
        <ele>1909.8</ele>
        <time>2023-05-18T16:02:25+0200</time>
      </trkpt>
      <trkpt lat="44.98604" lon="6.51223">
        <ele>1908.1</ele>
        <time>2023-05-18T16:02:26+0200</time>
      </trkpt>
      <trkpt lat="44.98604" lon="6.51212">
        <ele>1906.5</ele>
        <time>2023-05-18T16:02:27+0200</time>
      </trkpt>
      <trkpt lat="44.98605" lon="6.51203">
        <ele>1905.2</ele>
        <time>2023-05-18T16:02:28+0200</time>
      </trkpt>
      <trkpt lat="44.98605" lon="6.51195">
        <ele>1904.1</ele>
        <time>2023-05-18T16:02:29+0200</time>
      </trkpt>
      <trkpt lat="44.98605" lon="6.51188">
        <ele>1903</ele>
        <time>2023-05-18T16:02:30+0200</time>
      </trkpt>
      <trkpt lat="44.98605" lon="6.51179">
        <ele>1901.3</ele>
        <time>2023-05-18T16:02:32+0200</time>
      </trkpt>
      <trkpt lat="44.98606" lon="6.51169">
        <ele>1899.6</ele>
        <time>2023-05-18T16:02:34+0200</time>
      </trkpt>
      <trkpt lat="44.98605" lon="6.51162">
        <ele>1898.2</ele>
        <time>2023-05-18T16:02:35+0200</time>
      </trkpt>
      <trkpt lat="44.98606" lon="6.5115">
        <ele>1895.4</ele>
        <time>2023-05-18T16:02:36+0200</time>
      </trkpt>
      <trkpt lat="44.98606" lon="6.51142">
        <ele>1893.7</ele>
        <time>2023-05-18T16:02:38+0200</time>
      </trkpt>
      <trkpt lat="44.98612" lon="6.5114">
        <ele>1892.8</ele>
        <time>2023-05-18T16:02:40+0200</time>
      </trkpt>
      <trkpt lat="44.98619" lon="6.51146">
        <ele>1891.3</ele>
        <time>2023-05-18T16:02:42+0200</time>
      </trkpt>
      <trkpt lat="44.98621" lon="6.51151">
        <ele>1891.8</ele>
        <time>2023-05-18T16:02:43+0200</time>
      </trkpt>
      <trkpt lat="44.98624" lon="6.51163">
        <ele>1894.6</ele>
        <time>2023-05-18T16:02:45+0200</time>
      </trkpt>
      <trkpt lat="44.98627" lon="6.51168">
        <ele>1895.5</ele>
        <time>2023-05-18T16:02:46+0200</time>
      </trkpt>
      <trkpt lat="44.98632" lon="6.51171">
        <ele>1894.9</ele>
        <time>2023-05-18T16:02:47+0200</time>
      </trkpt>
      <trkpt lat="44.98638" lon="6.51175">
        <ele>1895.1</ele>
        <time>2023-05-18T16:02:48+0200</time>
      </trkpt>
      <trkpt lat="44.98645" lon="6.51177">
        <ele>1895</ele>
        <time>2023-05-18T16:02:49+0200</time>
      </trkpt>
      <trkpt lat="44.98651" lon="6.5118">
        <ele>1895.2</ele>
        <time>2023-05-18T16:02:50+0200</time>
      </trkpt>
      <trkpt lat="44.98659" lon="6.51178">
        <ele>1893.5</ele>
        <time>2023-05-18T16:02:51+0200</time>
      </trkpt>
      <trkpt lat="44.98666" lon="6.51172">
        <ele>1890.1</ele>
        <time>2023-05-18T16:02:52+0200</time>
      </trkpt>
      <trkpt lat="44.98674" lon="6.51165">
        <ele>1886.4</ele>
        <time>2023-05-18T16:02:53+0200</time>
      </trkpt>
      <trkpt lat="44.98678" lon="6.51161">
        <ele>1884.4</ele>
        <time>2023-05-18T16:02:54+0200</time>
      </trkpt>
      <trkpt lat="44.98683" lon="6.51153">
        <ele>1880.4</ele>
        <time>2023-05-18T16:02:55+0200</time>
      </trkpt>
      <trkpt lat="44.98683" lon="6.51145">
        <ele>1877.1</ele>
        <time>2023-05-18T16:02:56+0200</time>
      </trkpt>
      <trkpt lat="44.9869" lon="6.51137">
        <ele>1873.5</ele>
        <time>2023-05-18T16:02:58+0200</time>
      </trkpt>
      <trkpt lat="44.98698" lon="6.51138">
        <ele>1873.8</ele>
        <time>2023-05-18T16:02:59+0200</time>
      </trkpt>
      <trkpt lat="44.98706" lon="6.51139">
        <ele>1874.1</ele>
        <time>2023-05-18T16:03:00+0200</time>
      </trkpt>
      <trkpt lat="44.98714" lon="6.51133">
        <ele>1872.1</ele>
        <time>2023-05-18T16:03:01+0200</time>
      </trkpt>
      <trkpt lat="44.98721" lon="6.51127">
        <ele>1870.1</ele>
        <time>2023-05-18T16:03:02+0200</time>
      </trkpt>
      <trkpt lat="44.98728" lon="6.51122">
        <ele>1868.9</ele>
        <time>2023-05-18T16:03:03+0200</time>
      </trkpt>
      <trkpt lat="44.98734" lon="6.5112">
        <ele>1869</ele>
        <time>2023-05-18T16:03:04+0200</time>
      </trkpt>
      <trkpt lat="44.98738" lon="6.51111">
        <ele>1866.5</ele>
        <time>2023-05-18T16:03:06+0200</time>
      </trkpt>
      <trkpt lat="44.9874" lon="6.51103">
        <ele>1864.3</ele>
        <time>2023-05-18T16:03:07+0200</time>
      </trkpt>
      <trkpt lat="44.98747" lon="6.51101">
        <ele>1864.5</ele>
        <time>2023-05-18T16:03:08+0200</time>
      </trkpt>
      <trkpt lat="44.98751" lon="6.51097">
        <ele>1863.5</ele>
        <time>2023-05-18T16:03:09+0200</time>
      </trkpt>
      <trkpt lat="44.98756" lon="6.51094">
        <ele>1862.9</ele>
        <time>2023-05-18T16:03:10+0200</time>
      </trkpt>
      <trkpt lat="44.98762" lon="6.51092">
        <ele>1863.1</ele>
        <time>2023-05-18T16:03:11+0200</time>
      </trkpt>
      <trkpt lat="44.98768" lon="6.51087">
        <ele>1862.3</ele>
        <time>2023-05-18T16:03:12+0200</time>
      </trkpt>
      <trkpt lat="44.98772" lon="6.51083">
        <ele>1861.4</ele>
        <time>2023-05-18T16:03:13+0200</time>
      </trkpt>
      <trkpt lat="44.98777" lon="6.51082">
        <ele>1861.4</ele>
        <time>2023-05-18T16:03:14+0200</time>
      </trkpt>
      <trkpt lat="44.98782" lon="6.51081">
        <ele>1862</ele>
        <time>2023-05-18T16:03:15+0200</time>
      </trkpt>
      <trkpt lat="44.98789" lon="6.51079">
        <ele>1862.1</ele>
        <time>2023-05-18T16:03:17+0200</time>
      </trkpt>
      <trkpt lat="44.98794" lon="6.51075">
        <ele>1861.4</ele>
        <time>2023-05-18T16:03:18+0200</time>
      </trkpt>
      <trkpt lat="44.98798" lon="6.51071">
        <ele>1860.5</ele>
        <time>2023-05-18T16:03:19+0200</time>
      </trkpt>
      <trkpt lat="44.98797" lon="6.51061">
        <ele>1856.9</ele>
        <time>2023-05-18T16:03:21+0200</time>
      </trkpt>
      <trkpt lat="44.98798" lon="6.51068">
        <ele>1859.4</ele>
        <time>2023-05-18T16:03:24+0200</time>
      </trkpt>
      <trkpt lat="44.98801" lon="6.51061">
        <ele>1857.2</ele>
        <time>2023-05-18T16:03:30+0200</time>
      </trkpt>
      <trkpt lat="44.98805" lon="6.51052">
        <ele>1854.6</ele>
        <time>2023-05-18T16:03:32+0200</time>
      </trkpt>
      <trkpt lat="44.98813" lon="6.51051">
        <ele>1855.8</ele>
        <time>2023-05-18T16:03:34+0200</time>
      </trkpt>
      <trkpt lat="44.98818" lon="6.51047">
        <ele>1855.2</ele>
        <time>2023-05-18T16:03:35+0200</time>
      </trkpt>
      <trkpt lat="44.98825" lon="6.51046">
        <ele>1856</ele>
        <time>2023-05-18T16:03:37+0200</time>
      </trkpt>
      <trkpt lat="44.98831" lon="6.51043">
        <ele>1855.7</ele>
        <time>2023-05-18T16:03:38+0200</time>
      </trkpt>
      <trkpt lat="44.98838" lon="6.5104">
        <ele>1855.7</ele>
        <time>2023-05-18T16:03:39+0200</time>
      </trkpt>
      <trkpt lat="44.98844" lon="6.51035">
        <ele>1855.3</ele>
        <time>2023-05-18T16:03:40+0200</time>
      </trkpt>
      <trkpt lat="44.98849" lon="6.5102">
        <ele>1850.1</ele>
        <time>2023-05-18T16:03:41+0200</time>
      </trkpt>
      <trkpt lat="44.98851" lon="6.51009">
        <ele>1845.6</ele>
        <time>2023-05-18T16:03:42+0200</time>
      </trkpt>
      <trkpt lat="44.98854" lon="6.51003">
        <ele>1843.1</ele>
        <time>2023-05-18T16:03:43+0200</time>
      </trkpt>
      <trkpt lat="44.98857" lon="6.50994">
        <ele>1839.9</ele>
        <time>2023-05-18T16:03:45+0200</time>
      </trkpt>
      <trkpt lat="44.98858" lon="6.50988">
        <ele>1837.3</ele>
        <time>2023-05-18T16:03:47+0200</time>
      </trkpt>
      <trkpt lat="44.98864" lon="6.5099">
        <ele>1839.5</ele>
        <time>2023-05-18T16:03:48+0200</time>
      </trkpt>
      <trkpt lat="44.98858" lon="6.50991">
        <ele>1838.9</ele>
        <time>2023-05-18T16:03:51+0200</time>
      </trkpt>
      <trkpt lat="44.9885" lon="6.51">
        <ele>1841.4</ele>
        <time>2023-05-18T16:03:53+0200</time>
      </trkpt>
      <trkpt lat="44.98843" lon="6.51005">
        <ele>1842.2</ele>
        <time>2023-05-18T16:03:54+0200</time>
      </trkpt>
      <trkpt lat="44.98837" lon="6.51004">
        <ele>1840.9</ele>
        <time>2023-05-18T16:03:55+0200</time>
      </trkpt>
      <trkpt lat="44.98835" lon="6.50992">
        <ele>1835.9</ele>
        <time>2023-05-18T16:03:56+0200</time>
      </trkpt>
      <trkpt lat="44.98831" lon="6.50988">
        <ele>1834.2</ele>
        <time>2023-05-18T16:03:57+0200</time>
      </trkpt>
      <trkpt lat="44.98824" lon="6.50988">
        <ele>1833.7</ele>
        <time>2023-05-18T16:03:58+0200</time>
      </trkpt>
      <trkpt lat="44.98816" lon="6.5099">
        <ele>1834</ele>
        <time>2023-05-18T16:03:59+0200</time>
      </trkpt>
      <trkpt lat="44.98809" lon="6.50992">
        <ele>1834.5</ele>
        <time>2023-05-18T16:04:01+0200</time>
      </trkpt>
      <trkpt lat="44.988" lon="6.50995">
        <ele>1835</ele>
        <time>2023-05-18T16:04:04+0200</time>
      </trkpt>
      <trkpt lat="44.98795" lon="6.50997">
        <ele>1835.2</ele>
        <time>2023-05-18T16:04:05+0200</time>
      </trkpt>
      <trkpt lat="44.98789" lon="6.50999">
        <ele>1835.5</ele>
        <time>2023-05-18T16:04:06+0200</time>
      </trkpt>
      <trkpt lat="44.98784" lon="6.51005">
        <ele>1837.1</ele>
        <time>2023-05-18T16:04:09+0200</time>
      </trkpt>
      <trkpt lat="44.98778" lon="6.50999">
        <ele>1834.8</ele>
        <time>2023-05-18T16:04:11+0200</time>
      </trkpt>
      <trkpt lat="44.98772" lon="6.51">
        <ele>1834</ele>
        <time>2023-05-18T16:04:13+0200</time>
      </trkpt>
      <trkpt lat="44.98767" lon="6.50998">
        <ele>1832.9</ele>
        <time>2023-05-18T16:04:14+0200</time>
      </trkpt>
      <trkpt lat="44.98763" lon="6.50997">
        <ele>1831.8</ele>
        <time>2023-05-18T16:04:15+0200</time>
      </trkpt>
      <trkpt lat="44.98767" lon="6.5099">
        <ele>1829.9</ele>
        <time>2023-05-18T16:04:17+0200</time>
      </trkpt>
      <trkpt lat="44.98775" lon="6.50987">
        <ele>1829.9</ele>
        <time>2023-05-18T16:04:19+0200</time>
      </trkpt>
      <trkpt lat="44.98781" lon="6.50984">
        <ele>1829.6</ele>
        <time>2023-05-18T16:04:21+0200</time>
      </trkpt>
      <trkpt lat="44.98784" lon="6.50977">
        <ele>1827</ele>
        <time>2023-05-18T16:04:25+0200</time>
      </trkpt>
      <trkpt lat="44.98788" lon="6.50972">
        <ele>1825.8</ele>
        <time>2023-05-18T16:04:30+0200</time>
      </trkpt>
      <trkpt lat="44.98791" lon="6.50967">
        <ele>1824</ele>
        <time>2023-05-18T16:04:32+0200</time>
      </trkpt>
      <trkpt lat="44.98795" lon="6.50962">
        <ele>1822.6</ele>
        <time>2023-05-18T16:04:33+0200</time>
      </trkpt>
      <trkpt lat="44.98798" lon="6.50954">
        <ele>1819.7</ele>
        <time>2023-05-18T16:04:34+0200</time>
      </trkpt>
      <trkpt lat="44.98803" lon="6.50948">
        <ele>1817.5</ele>
        <time>2023-05-18T16:04:35+0200</time>
      </trkpt>
      <trkpt lat="44.98795" lon="6.50951">
        <ele>1818.2</ele>
        <time>2023-05-18T16:04:39+0200</time>
      </trkpt>
      <trkpt lat="44.98791" lon="6.50953">
        <ele>1819.1</ele>
        <time>2023-05-18T16:04:40+0200</time>
      </trkpt>
      <trkpt lat="44.98785" lon="6.50956">
        <ele>1819.8</ele>
        <time>2023-05-18T16:04:42+0200</time>
      </trkpt>
      <trkpt lat="44.98788" lon="6.50946">
        <ele>1816.5</ele>
        <time>2023-05-18T16:04:45+0200</time>
      </trkpt>
      <trkpt lat="44.98792" lon="6.50942">
        <ele>1815</ele>
        <time>2023-05-18T16:04:46+0200</time>
      </trkpt>
      <trkpt lat="44.98797" lon="6.50934">
        <ele>1812.1</ele>
        <time>2023-05-18T16:04:47+0200</time>
      </trkpt>
      <trkpt lat="44.98798" lon="6.50927">
        <ele>1809.8</ele>
        <time>2023-05-18T16:04:48+0200</time>
      </trkpt>
      <trkpt lat="44.98793" lon="6.50926">
        <ele>1809.5</ele>
        <time>2023-05-18T16:04:50+0200</time>
      </trkpt>
      <trkpt lat="44.98787" lon="6.50924">
        <ele>1808.7</ele>
        <time>2023-05-18T16:04:51+0200</time>
      </trkpt>
      <trkpt lat="44.98781" lon="6.50921">
        <ele>1807.6</ele>
        <time>2023-05-18T16:04:52+0200</time>
      </trkpt>
      <trkpt lat="44.98775" lon="6.50919">
        <ele>1806.8</ele>
        <time>2023-05-18T16:04:53+0200</time>
      </trkpt>
      <trkpt lat="44.9877" lon="6.50915">
        <ele>1805</ele>
        <time>2023-05-18T16:04:54+0200</time>
      </trkpt>
      <trkpt lat="44.98764" lon="6.50913">
        <ele>1804.2</ele>
        <time>2023-05-18T16:04:55+0200</time>
      </trkpt>
      <trkpt lat="44.98759" lon="6.50914">
        <ele>1804.4</ele>
        <time>2023-05-18T16:04:56+0200</time>
      </trkpt>
      <trkpt lat="44.98751" lon="6.50916">
        <ele>1804.9</ele>
        <time>2023-05-18T16:04:59+0200</time>
      </trkpt>
      <trkpt lat="44.9874" lon="6.50914">
        <ele>1802.6</ele>
        <time>2023-05-18T16:05:01+0200</time>
      </trkpt>
      <trkpt lat="44.98731" lon="6.50908">
        <ele>1799.2</ele>
        <time>2023-05-18T16:05:02+0200</time>
      </trkpt>
      <trkpt lat="44.98722" lon="6.50907">
        <ele>1797.2</ele>
        <time>2023-05-18T16:05:03+0200</time>
      </trkpt>
      <trkpt lat="44.98712" lon="6.50905">
        <ele>1794.5</ele>
        <time>2023-05-18T16:05:04+0200</time>
      </trkpt>
      <trkpt lat="44.98706" lon="6.50907">
        <ele>1793.7</ele>
        <time>2023-05-18T16:05:05+0200</time>
      </trkpt>
      <trkpt lat="44.98702" lon="6.5091">
        <ele>1794</ele>
        <time>2023-05-18T16:05:06+0200</time>
      </trkpt>
      <trkpt lat="44.98698" lon="6.50915">
        <ele>1795.2</ele>
        <time>2023-05-18T16:05:07+0200</time>
      </trkpt>
      <trkpt lat="44.98694" lon="6.50918">
        <ele>1795.3</ele>
        <time>2023-05-18T16:05:08+0200</time>
      </trkpt>
      <trkpt lat="44.98687" lon="6.50921">
        <ele>1794.1</ele>
        <time>2023-05-18T16:05:09+0200</time>
      </trkpt>
      <trkpt lat="44.98681" lon="6.50925">
        <ele>1793.9</ele>
        <time>2023-05-18T16:05:10+0200</time>
      </trkpt>
      <trkpt lat="44.98675" lon="6.50931">
        <ele>1794.3</ele>
        <time>2023-05-18T16:05:11+0200</time>
      </trkpt>
      <trkpt lat="44.98677" lon="6.5092">
        <ele>1791.2</ele>
        <time>2023-05-18T16:05:14+0200</time>
      </trkpt>
      <trkpt lat="44.98682" lon="6.50915">
        <ele>1790.7</ele>
        <time>2023-05-18T16:05:15+0200</time>
      </trkpt>
      <trkpt lat="44.98686" lon="6.50911">
        <ele>1790.3</ele>
        <time>2023-05-18T16:05:16+0200</time>
      </trkpt>
      <trkpt lat="44.98689" lon="6.50905">
        <ele>1788.7</ele>
        <time>2023-05-18T16:05:17+0200</time>
      </trkpt>
      <trkpt lat="44.98697" lon="6.50895">
        <ele>1786.9</ele>
        <time>2023-05-18T16:05:19+0200</time>
      </trkpt>
      <trkpt lat="44.98701" lon="6.50887">
        <ele>1785</ele>
        <time>2023-05-18T16:05:20+0200</time>
      </trkpt>
      <trkpt lat="44.98705" lon="6.50876">
        <ele>1781.4</ele>
        <time>2023-05-18T16:05:21+0200</time>
      </trkpt>
      <trkpt lat="44.98711" lon="6.50868">
        <ele>1779.5</ele>
        <time>2023-05-18T16:05:23+0200</time>
      </trkpt>
      <trkpt lat="44.98718" lon="6.50859">
        <ele>1777.2</ele>
        <time>2023-05-18T16:05:24+0200</time>
      </trkpt>
      <trkpt lat="44.98723" lon="6.50851">
        <ele>1774.7</ele>
        <time>2023-05-18T16:05:25+0200</time>
      </trkpt>
      <trkpt lat="44.98727" lon="6.50844">
        <ele>1772.6</ele>
        <time>2023-05-18T16:05:27+0200</time>
      </trkpt>
      <trkpt lat="44.9873" lon="6.50838">
        <ele>1770.7</ele>
        <time>2023-05-18T16:05:29+0200</time>
      </trkpt>
      <trkpt lat="44.98723" lon="6.50846">
        <ele>1772.5</ele>
        <time>2023-05-18T16:05:32+0200</time>
      </trkpt>
      <trkpt lat="44.98717" lon="6.50852">
        <ele>1773.8</ele>
        <time>2023-05-18T16:05:34+0200</time>
      </trkpt>
      <trkpt lat="44.98711" lon="6.50858">
        <ele>1775.2</ele>
        <time>2023-05-18T16:05:35+0200</time>
      </trkpt>
      <trkpt lat="44.98704" lon="6.50862">
        <ele>1775.5</ele>
        <time>2023-05-18T16:05:36+0200</time>
      </trkpt>
      <trkpt lat="44.98697" lon="6.50865">
        <ele>1775.2</ele>
        <time>2023-05-18T16:05:37+0200</time>
      </trkpt>
      <trkpt lat="44.9869" lon="6.50867">
        <ele>1774.1</ele>
        <time>2023-05-18T16:05:38+0200</time>
      </trkpt>
      <trkpt lat="44.9868" lon="6.50874">
        <ele>1774.2</ele>
        <time>2023-05-18T16:05:39+0200</time>
      </trkpt>
      <trkpt lat="44.9867" lon="6.50877">
        <ele>1773.3</ele>
        <time>2023-05-18T16:05:40+0200</time>
      </trkpt>
      <trkpt lat="44.98665" lon="6.50876">
        <ele>1771.4</ele>
        <time>2023-05-18T16:05:42+0200</time>
      </trkpt>
      <trkpt lat="44.98667" lon="6.5087">
        <ele>1769.6</ele>
        <time>2023-05-18T16:05:43+0200</time>
      </trkpt>
      <trkpt lat="44.98673" lon="6.50866">
        <ele>1769.4</ele>
        <time>2023-05-18T16:05:44+0200</time>
      </trkpt>
      <trkpt lat="44.98677" lon="6.5086">
        <ele>1768.3</ele>
        <time>2023-05-18T16:05:45+0200</time>
      </trkpt>
      <trkpt lat="44.98684" lon="6.5085">
        <ele>1765.8</ele>
        <time>2023-05-18T16:05:46+0200</time>
      </trkpt>
      <trkpt lat="44.98689" lon="6.50842">
        <ele>1763.6</ele>
        <time>2023-05-18T16:05:47+0200</time>
      </trkpt>
      <trkpt lat="44.98694" lon="6.50833">
        <ele>1760.5</ele>
        <time>2023-05-18T16:05:48+0200</time>
      </trkpt>
      <trkpt lat="44.98696" lon="6.50826">
        <ele>1758.4</ele>
        <time>2023-05-18T16:05:49+0200</time>
      </trkpt>
      <trkpt lat="44.98696" lon="6.50815">
        <ele>1754</ele>
        <time>2023-05-18T16:05:52+0200</time>
      </trkpt>
      <trkpt lat="44.98691" lon="6.50813">
        <ele>1752.1</ele>
        <time>2023-05-18T16:05:55+0200</time>
      </trkpt>
      <trkpt lat="44.98688" lon="6.50819">
        <ele>1754.1</ele>
        <time>2023-05-18T16:05:56+0200</time>
      </trkpt>
      <trkpt lat="44.98683" lon="6.50827">
        <ele>1755.9</ele>
        <time>2023-05-18T16:05:58+0200</time>
      </trkpt>
      <trkpt lat="44.98676" lon="6.50828">
        <ele>1755</ele>
        <time>2023-05-18T16:06:02+0200</time>
      </trkpt>
      <trkpt lat="44.98666" lon="6.5083">
        <ele>1753.6</ele>
        <time>2023-05-18T16:06:04+0200</time>
      </trkpt>
      <trkpt lat="44.98658" lon="6.5083">
        <ele>1751.7</ele>
        <time>2023-05-18T16:06:05+0200</time>
      </trkpt>
      <trkpt lat="44.9865" lon="6.50827">
        <ele>1748.5</ele>
        <time>2023-05-18T16:06:06+0200</time>
      </trkpt>
      <trkpt lat="44.98644" lon="6.50823">
        <ele>1745.5</ele>
        <time>2023-05-18T16:06:07+0200</time>
      </trkpt>
      <trkpt lat="44.98642" lon="6.50813">
        <ele>1741.5</ele>
        <time>2023-05-18T16:06:09+0200</time>
      </trkpt>
      <trkpt lat="44.98643" lon="6.50804">
        <ele>1738.7</ele>
        <time>2023-05-18T16:06:10+0200</time>
      </trkpt>
      <trkpt lat="44.98644" lon="6.50797">
        <ele>1736.2</ele>
        <time>2023-05-18T16:06:11+0200</time>
      </trkpt>
      <trkpt lat="44.98643" lon="6.50789">
        <ele>1732.9</ele>
        <time>2023-05-18T16:06:13+0200</time>
      </trkpt>
      <trkpt lat="44.98635" lon="6.50791">
        <ele>1731.5</ele>
        <time>2023-05-18T16:06:16+0200</time>
      </trkpt>
      <trkpt lat="44.98633" lon="6.50798">
        <ele>1733.5</ele>
        <time>2023-05-18T16:06:18+0200</time>
      </trkpt>
      <trkpt lat="44.98632" lon="6.50806">
        <ele>1735.8</ele>
        <time>2023-05-18T16:06:19+0200</time>
      </trkpt>
      <trkpt lat="44.98624" lon="6.50813">
        <ele>1735.7</ele>
        <time>2023-05-18T16:06:20+0200</time>
      </trkpt>
      <trkpt lat="44.98618" lon="6.50818">
        <ele>1735.4</ele>
        <time>2023-05-18T16:06:21+0200</time>
      </trkpt>
      <trkpt lat="44.98611" lon="6.50823">
        <ele>1734.7</ele>
        <time>2023-05-18T16:06:22+0200</time>
      </trkpt>
      <trkpt lat="44.98606" lon="6.50826">
        <ele>1733.7</ele>
        <time>2023-05-18T16:06:23+0200</time>
      </trkpt>
      <trkpt lat="44.98598" lon="6.50829">
        <ele>1731.8</ele>
        <time>2023-05-18T16:06:24+0200</time>
      </trkpt>
      <trkpt lat="44.98593" lon="6.50837">
        <ele>1732.9</ele>
        <time>2023-05-18T16:06:25+0200</time>
      </trkpt>
      <trkpt lat="44.98589" lon="6.50842">
        <ele>1733.2</ele>
        <time>2023-05-18T16:06:26+0200</time>
      </trkpt>
      <trkpt lat="44.98584" lon="6.50844">
        <ele>1732.1</ele>
        <time>2023-05-18T16:06:27+0200</time>
      </trkpt>
      <trkpt lat="44.98582" lon="6.50837">
        <ele>1728.9</ele>
        <time>2023-05-18T16:06:29+0200</time>
      </trkpt>
      <trkpt lat="44.98585" lon="6.50827">
        <ele>1726.7</ele>
        <time>2023-05-18T16:06:30+0200</time>
      </trkpt>
      <trkpt lat="44.98586" lon="6.50819">
        <ele>1724.8</ele>
        <time>2023-05-18T16:06:31+0200</time>
      </trkpt>
      <trkpt lat="44.98587" lon="6.5081">
        <ele>1722.5</ele>
        <time>2023-05-18T16:06:32+0200</time>
      </trkpt>
      <trkpt lat="44.98589" lon="6.50803">
        <ele>1720.9</ele>
        <time>2023-05-18T16:06:33+0200</time>
      </trkpt>
      <trkpt lat="44.98593" lon="6.50791">
        <ele>1719.2</ele>
        <time>2023-05-18T16:06:35+0200</time>
      </trkpt>
      <trkpt lat="44.98597" lon="6.50784">
        <ele>1718.4</ele>
        <time>2023-05-18T16:06:36+0200</time>
      </trkpt>
      <trkpt lat="44.986" lon="6.50776">
        <ele>1717.4</ele>
        <time>2023-05-18T16:06:37+0200</time>
      </trkpt>
      <trkpt lat="44.98597" lon="6.50771">
        <ele>1714.8</ele>
        <time>2023-05-18T16:06:42+0200</time>
      </trkpt>
      <trkpt lat="44.9859" lon="6.50769">
        <ele>1712.1</ele>
        <time>2023-05-18T16:06:43+0200</time>
      </trkpt>
      <trkpt lat="44.98584" lon="6.5077">
        <ele>1710.9</ele>
        <time>2023-05-18T16:06:44+0200</time>
      </trkpt>
      <trkpt lat="44.98578" lon="6.50775">
        <ele>1710.9</ele>
        <time>2023-05-18T16:06:45+0200</time>
      </trkpt>
      <trkpt lat="44.98571" lon="6.50777">
        <ele>1709.3</ele>
        <time>2023-05-18T16:06:46+0200</time>
      </trkpt>
      <trkpt lat="44.98565" lon="6.50781">
        <ele>1708.6</ele>
        <time>2023-05-18T16:06:46+0200</time>
      </trkpt>
      <trkpt lat="44.9856" lon="6.50788">
        <ele>1709.1</ele>
        <time>2023-05-18T16:06:47+0200</time>
      </trkpt>
      <trkpt lat="44.98557" lon="6.50794">
        <ele>1710.2</ele>
        <time>2023-05-18T16:06:48+0200</time>
      </trkpt>
      <trkpt lat="44.98552" lon="6.50786">
        <ele>1706.9</ele>
        <time>2023-05-18T16:06:50+0200</time>
      </trkpt>
      <trkpt lat="44.98554" lon="6.50769">
        <ele>1702.7</ele>
        <time>2023-05-18T16:06:52+0200</time>
      </trkpt>
      <trkpt lat="44.98556" lon="6.50758">
        <ele>1700.1</ele>
        <time>2023-05-18T16:06:53+0200</time>
      </trkpt>
      <trkpt lat="44.98558" lon="6.50744">
        <ele>1696.9</ele>
        <time>2023-05-18T16:06:54+0200</time>
      </trkpt>
      <trkpt lat="44.98561" lon="6.5073">
        <ele>1693.7</ele>
        <time>2023-05-18T16:06:55+0200</time>
      </trkpt>
      <trkpt lat="44.98564" lon="6.50719">
        <ele>1691.1</ele>
        <time>2023-05-18T16:06:56+0200</time>
      </trkpt>
      <trkpt lat="44.98568" lon="6.5071">
        <ele>1689.6</ele>
        <time>2023-05-18T16:06:57+0200</time>
      </trkpt>
      <trkpt lat="44.98565" lon="6.50705">
        <ele>1687.2</ele>
        <time>2023-05-18T16:07:00+0200</time>
      </trkpt>
      <trkpt lat="44.9856" lon="6.50705">
        <ele>1686.1</ele>
        <time>2023-05-18T16:07:01+0200</time>
      </trkpt>
      <trkpt lat="44.98553" lon="6.50702">
        <ele>1683.7</ele>
        <time>2023-05-18T16:07:02+0200</time>
      </trkpt>
      <trkpt lat="44.98549" lon="6.50705">
        <ele>1683.3</ele>
        <time>2023-05-18T16:07:03+0200</time>
      </trkpt>
      <trkpt lat="44.98542" lon="6.50708">
        <ele>1682.8</ele>
        <time>2023-05-18T16:07:04+0200</time>
      </trkpt>
      <trkpt lat="44.98538" lon="6.50714">
        <ele>1683.5</ele>
        <time>2023-05-18T16:07:05+0200</time>
      </trkpt>
      <trkpt lat="44.98532" lon="6.50718">
        <ele>1683.6</ele>
        <time>2023-05-18T16:07:06+0200</time>
      </trkpt>
      <trkpt lat="44.98531" lon="6.50709">
        <ele>1680.5</ele>
        <time>2023-05-18T16:07:08+0200</time>
      </trkpt>
      <trkpt lat="44.98531" lon="6.50702">
        <ele>1678.1</ele>
        <time>2023-05-18T16:07:09+0200</time>
      </trkpt>
      <trkpt lat="44.98531" lon="6.50694">
        <ele>1675.9</ele>
        <time>2023-05-18T16:07:10+0200</time>
      </trkpt>
      <trkpt lat="44.98535" lon="6.50685">
        <ele>1674.1</ele>
        <time>2023-05-18T16:07:11+0200</time>
      </trkpt>
      <trkpt lat="44.9854" lon="6.50679">
        <ele>1673.4</ele>
        <time>2023-05-18T16:07:12+0200</time>
      </trkpt>
      <trkpt lat="44.98533" lon="6.50686">
        <ele>1673.6</ele>
        <time>2023-05-18T16:07:16+0200</time>
      </trkpt>
      <trkpt lat="44.98527" lon="6.50689">
        <ele>1673.2</ele>
        <time>2023-05-18T16:07:17+0200</time>
      </trkpt>
      <trkpt lat="44.98522" lon="6.50685">
        <ele>1671.2</ele>
        <time>2023-05-18T16:07:24+0200</time>
      </trkpt>
      <trkpt lat="44.98516" lon="6.50686">
        <ele>1670.6</ele>
        <time>2023-05-18T16:07:26+0200</time>
      </trkpt>
      <trkpt lat="44.98513" lon="6.50678">
        <ele>1667.6</ele>
        <time>2023-05-18T16:07:29+0200</time>
      </trkpt>
      <trkpt lat="44.98516" lon="6.50671">
        <ele>1665.7</ele>
        <time>2023-05-18T16:07:30+0200</time>
      </trkpt>
      <trkpt lat="44.98511" lon="6.50673">
        <ele>1665.4</ele>
        <time>2023-05-18T16:07:33+0200</time>
      </trkpt>
      <trkpt lat="44.98505" lon="6.50674">
        <ele>1664.6</ele>
        <time>2023-05-18T16:07:36+0200</time>
      </trkpt>
      <trkpt lat="44.98503" lon="6.50668">
        <ele>1661.9</ele>
        <time>2023-05-18T16:07:37+0200</time>
      </trkpt>
      <trkpt lat="44.98505" lon="6.50661">
        <ele>1660.1</ele>
        <time>2023-05-18T16:07:38+0200</time>
      </trkpt>
      <trkpt lat="44.98499" lon="6.50664">
        <ele>1660</ele>
        <time>2023-05-18T16:07:42+0200</time>
      </trkpt>
      <trkpt lat="44.98498" lon="6.50653">
        <ele>1655.9</ele>
        <time>2023-05-18T16:07:44+0200</time>
      </trkpt>
      <trkpt lat="44.98493" lon="6.50657">
        <ele>1656.8</ele>
        <time>2023-05-18T16:07:49+0200</time>
      </trkpt>
      <trkpt lat="44.98491" lon="6.50648">
        <ele>1653.4</ele>
        <time>2023-05-18T16:07:51+0200</time>
      </trkpt>
      <trkpt lat="44.98486" lon="6.5065">
        <ele>1653.6</ele>
        <time>2023-05-18T16:07:54+0200</time>
      </trkpt>
      <trkpt lat="44.9848" lon="6.5065">
        <ele>1653.3</ele>
        <time>2023-05-18T16:07:55+0200</time>
      </trkpt>
      <trkpt lat="44.98475" lon="6.5065">
        <ele>1652.5</ele>
        <time>2023-05-18T16:07:56+0200</time>
      </trkpt>
      <trkpt lat="44.9847" lon="6.50654">
        <ele>1653.9</ele>
        <time>2023-05-18T16:07:57+0200</time>
      </trkpt>
      <trkpt lat="44.98468" lon="6.50662">
        <ele>1656.6</ele>
        <time>2023-05-18T16:07:58+0200</time>
      </trkpt>
      <trkpt lat="44.98465" lon="6.50666">
        <ele>1658.2</ele>
        <time>2023-05-18T16:07:59+0200</time>
      </trkpt>
      <trkpt lat="44.98462" lon="6.5067">
        <ele>1660</ele>
        <time>2023-05-18T16:08:00+0200</time>
      </trkpt>
      <trkpt lat="44.98458" lon="6.50663">
        <ele>1656.4</ele>
        <time>2023-05-18T16:08:02+0200</time>
      </trkpt>
      <trkpt lat="44.98451" lon="6.50662">
        <ele>1655.3</ele>
        <time>2023-05-18T16:08:03+0200</time>
      </trkpt>
      <trkpt lat="44.98445" lon="6.50661">
        <ele>1654.6</ele>
        <time>2023-05-18T16:08:04+0200</time>
      </trkpt>
      <trkpt lat="44.98438" lon="6.50657">
        <ele>1652.1</ele>
        <time>2023-05-18T16:08:06+0200</time>
      </trkpt>
      <trkpt lat="44.98438" lon="6.50649">
        <ele>1648.3</ele>
        <time>2023-05-18T16:08:09+0200</time>
      </trkpt>
      <trkpt lat="44.98442" lon="6.50642">
        <ele>1646</ele>
        <time>2023-05-18T16:08:10+0200</time>
      </trkpt>
      <trkpt lat="44.98447" lon="6.50635">
        <ele>1644</ele>
        <time>2023-05-18T16:08:11+0200</time>
      </trkpt>
      <trkpt lat="44.98451" lon="6.50627">
        <ele>1641.9</ele>
        <time>2023-05-18T16:08:12+0200</time>
      </trkpt>
      <trkpt lat="44.98452" lon="6.50615">
        <ele>1637.8</ele>
        <time>2023-05-18T16:08:14+0200</time>
      </trkpt>
      <trkpt lat="44.98448" lon="6.5061">
        <ele>1636</ele>
        <time>2023-05-18T16:08:15+0200</time>
      </trkpt>
      <trkpt lat="44.98442" lon="6.50608">
        <ele>1635.1</ele>
        <time>2023-05-18T16:08:18+0200</time>
      </trkpt>
      <trkpt lat="44.98437" lon="6.50605">
        <ele>1634.1</ele>
        <time>2023-05-18T16:08:20+0200</time>
      </trkpt>
      <trkpt lat="44.98433" lon="6.50601">
        <ele>1633</ele>
        <time>2023-05-18T16:08:21+0200</time>
      </trkpt>
      <trkpt lat="44.98428" lon="6.50597">
        <ele>1632.1</ele>
        <time>2023-05-18T16:08:22+0200</time>
      </trkpt>
      <trkpt lat="44.98422" lon="6.50596">
        <ele>1631.7</ele>
        <time>2023-05-18T16:08:23+0200</time>
      </trkpt>
      <trkpt lat="44.98418" lon="6.50592">
        <ele>1631</ele>
        <time>2023-05-18T16:08:24+0200</time>
      </trkpt>
      <trkpt lat="44.98415" lon="6.50583">
        <ele>1629.8</ele>
        <time>2023-05-18T16:08:25+0200</time>
      </trkpt>
      <trkpt lat="44.98414" lon="6.50573">
        <ele>1627.8</ele>
        <time>2023-05-18T16:08:26+0200</time>
      </trkpt>
      <trkpt lat="44.98411" lon="6.50564">
        <ele>1626</ele>
        <time>2023-05-18T16:08:28+0200</time>
      </trkpt>
      <trkpt lat="44.98408" lon="6.5056">
        <ele>1625</ele>
        <time>2023-05-18T16:08:29+0200</time>
      </trkpt>
      <trkpt lat="44.98405" lon="6.50554">
        <ele>1623.9</ele>
        <time>2023-05-18T16:08:30+0200</time>
      </trkpt>
      <trkpt lat="44.98401" lon="6.50551">
        <ele>1623.1</ele>
        <time>2023-05-18T16:08:31+0200</time>
      </trkpt>
      <trkpt lat="44.98395" lon="6.50551">
        <ele>1622.6</ele>
        <time>2023-05-18T16:08:32+0200</time>
      </trkpt>
      <trkpt lat="44.9839" lon="6.5055">
        <ele>1622.2</ele>
        <time>2023-05-18T16:08:33+0200</time>
      </trkpt>
      <trkpt lat="44.98382" lon="6.50553">
        <ele>1620.9</ele>
        <time>2023-05-18T16:08:35+0200</time>
      </trkpt>
      <trkpt lat="44.98374" lon="6.50556">
        <ele>1619.3</ele>
        <time>2023-05-18T16:08:37+0200</time>
      </trkpt>
      <trkpt lat="44.98369" lon="6.50553">
        <ele>1617.7</ele>
        <time>2023-05-18T16:08:38+0200</time>
      </trkpt>
      <trkpt lat="44.98364" lon="6.5055">
        <ele>1616.2</ele>
        <time>2023-05-18T16:08:39+0200</time>
      </trkpt>
      <trkpt lat="44.98362" lon="6.50544">
        <ele>1615.3</ele>
        <time>2023-05-18T16:08:40+0200</time>
      </trkpt>
      <trkpt lat="44.98356" lon="6.50545">
        <ele>1614.1</ele>
        <time>2023-05-18T16:08:45+0200</time>
      </trkpt>
      <trkpt lat="44.98354" lon="6.50533">
        <ele>1612.7</ele>
        <time>2023-05-18T16:08:47+0200</time>
      </trkpt>
      <trkpt lat="44.98352" lon="6.50524">
        <ele>1611.6</ele>
        <time>2023-05-18T16:08:48+0200</time>
      </trkpt>
      <trkpt lat="44.98349" lon="6.50518">
        <ele>1610.1</ele>
        <time>2023-05-18T16:08:49+0200</time>
      </trkpt>
      <trkpt lat="44.9834" lon="6.50514">
        <ele>1607.7</ele>
        <time>2023-05-18T16:08:51+0200</time>
      </trkpt>
      <trkpt lat="44.98334" lon="6.50493">
        <ele>1604.4</ele>
        <time>2023-05-18T16:08:53+0200</time>
      </trkpt>
      <trkpt lat="44.98323" lon="6.50497">
        <ele>1602.9</ele>
        <time>2023-05-18T16:08:53+0200</time>
      </trkpt>
      <trkpt lat="44.98317" lon="6.505">
        <ele>1602.1</ele>
        <time>2023-05-18T16:08:54+0200</time>
      </trkpt>
      <trkpt lat="44.98307" lon="6.50506">
        <ele>1600.4</ele>
        <time>2023-05-18T16:08:56+0200</time>
      </trkpt>
      <trkpt lat="44.98301" lon="6.5051">
        <ele>1599</ele>
        <time>2023-05-18T16:08:57+0200</time>
      </trkpt>
      <trkpt lat="44.98295" lon="6.50513">
        <ele>1597.5</ele>
        <time>2023-05-18T16:08:58+0200</time>
      </trkpt>
      <trkpt lat="44.98287" lon="6.50517">
        <ele>1595.7</ele>
        <time>2023-05-18T16:09:00+0200</time>
      </trkpt>
      <trkpt lat="44.9828" lon="6.50517">
        <ele>1593.9</ele>
        <time>2023-05-18T16:09:02+0200</time>
      </trkpt>
      <trkpt lat="44.98272" lon="6.50515">
        <ele>1591.9</ele>
        <time>2023-05-18T16:09:04+0200</time>
      </trkpt>
      <trkpt lat="44.98265" lon="6.50515">
        <ele>1590.6</ele>
        <time>2023-05-18T16:09:05+0200</time>
      </trkpt>
      <trkpt lat="44.98256" lon="6.50521">
        <ele>1589.3</ele>
        <time>2023-05-18T16:09:06+0200</time>
      </trkpt>
      <trkpt lat="44.98251" lon="6.50527">
        <ele>1589.1</ele>
        <time>2023-05-18T16:09:07+0200</time>
      </trkpt>
      <trkpt lat="44.98246" lon="6.5053">
        <ele>1587.8</ele>
        <time>2023-05-18T16:09:08+0200</time>
      </trkpt>
      <trkpt lat="44.9824" lon="6.50534">
        <ele>1586.3</ele>
        <time>2023-05-18T16:09:10+0200</time>
      </trkpt>
      <trkpt lat="44.98234" lon="6.50536">
        <ele>1584.9</ele>
        <time>2023-05-18T16:09:12+0200</time>
      </trkpt>
      <trkpt lat="44.98227" lon="6.50534">
        <ele>1583.2</ele>
        <time>2023-05-18T16:09:14+0200</time>
      </trkpt>
      <trkpt lat="44.98219" lon="6.50533">
        <ele>1581</ele>
        <time>2023-05-18T16:09:15+0200</time>
      </trkpt>
      <trkpt lat="44.98212" lon="6.50533">
        <ele>1579.1</ele>
        <time>2023-05-18T16:09:16+0200</time>
      </trkpt>
      <trkpt lat="44.98204" lon="6.50532">
        <ele>1576.8</ele>
        <time>2023-05-18T16:09:17+0200</time>
      </trkpt>
      <trkpt lat="44.98197" lon="6.50533">
        <ele>1574.8</ele>
        <time>2023-05-18T16:09:18+0200</time>
      </trkpt>
      <trkpt lat="44.98191" lon="6.50535">
        <ele>1573.5</ele>
        <time>2023-05-18T16:09:19+0200</time>
      </trkpt>
      <trkpt lat="44.98191" lon="6.50548">
        <ele>1573.9</ele>
        <time>2023-05-18T16:09:20+0200</time>
      </trkpt>
      <trkpt lat="44.98187" lon="6.50552">
        <ele>1573.1</ele>
        <time>2023-05-18T16:09:23+0200</time>
      </trkpt>
      <trkpt lat="44.98185" lon="6.50559">
        <ele>1572.7</ele>
        <time>2023-05-18T16:09:25+0200</time>
      </trkpt>
      <trkpt lat="44.98179" lon="6.50559">
        <ele>1571.2</ele>
        <time>2023-05-18T16:09:31+0200</time>
      </trkpt>
      <trkpt lat="44.98173" lon="6.50565">
        <ele>1569.9</ele>
        <time>2023-05-18T16:09:33+0200</time>
      </trkpt>
      <trkpt lat="44.98165" lon="6.50568">
        <ele>1568</ele>
        <time>2023-05-18T16:09:36+0200</time>
      </trkpt>
      <trkpt lat="44.9816" lon="6.50564">
        <ele>1566.6</ele>
        <time>2023-05-18T16:09:37+0200</time>
      </trkpt>
      <trkpt lat="44.98154" lon="6.5056">
        <ele>1565.2</ele>
        <time>2023-05-18T16:09:38+0200</time>
      </trkpt>
      <trkpt lat="44.98147" lon="6.50557">
        <ele>1563.7</ele>
        <time>2023-05-18T16:09:39+0200</time>
      </trkpt>
      <trkpt lat="44.98139" lon="6.5055">
        <ele>1561.8</ele>
        <time>2023-05-18T16:09:40+0200</time>
      </trkpt>
      <trkpt lat="44.9813" lon="6.50554">
        <ele>1559.7</ele>
        <time>2023-05-18T16:09:41+0200</time>
      </trkpt>
      <trkpt lat="44.9812" lon="6.5056">
        <ele>1557.3</ele>
        <time>2023-05-18T16:09:42+0200</time>
      </trkpt>
      <trkpt lat="44.9811" lon="6.5056">
        <ele>1554.8</ele>
        <time>2023-05-18T16:09:43+0200</time>
      </trkpt>
      <trkpt lat="44.98099" lon="6.50562">
        <ele>1552.9</ele>
        <time>2023-05-18T16:09:44+0200</time>
      </trkpt>
      <trkpt lat="44.98091" lon="6.50567">
        <ele>1551.3</ele>
        <time>2023-05-18T16:09:45+0200</time>
      </trkpt>
      <trkpt lat="44.98083" lon="6.50575">
        <ele>1549.9</ele>
        <time>2023-05-18T16:09:46+0200</time>
      </trkpt>
      <trkpt lat="44.98076" lon="6.5058">
        <ele>1548.4</ele>
        <time>2023-05-18T16:09:47+0200</time>
      </trkpt>
      <trkpt lat="44.98068" lon="6.50587">
        <ele>1546.6</ele>
        <time>2023-05-18T16:09:48+0200</time>
      </trkpt>
      <trkpt lat="44.98058" lon="6.50588">
        <ele>1544.4</ele>
        <time>2023-05-18T16:09:49+0200</time>
      </trkpt>
      <trkpt lat="44.98049" lon="6.50601">
        <ele>1542.6</ele>
        <time>2023-05-18T16:09:50+0200</time>
      </trkpt>
      <trkpt lat="44.9804" lon="6.50612">
        <ele>1540.7</ele>
        <time>2023-05-18T16:09:51+0200</time>
      </trkpt>
      <trkpt lat="44.98032" lon="6.50621">
        <ele>1538.8</ele>
        <time>2023-05-18T16:09:52+0200</time>
      </trkpt>
      <trkpt lat="44.98023" lon="6.5063">
        <ele>1537</ele>
        <time>2023-05-18T16:09:53+0200</time>
      </trkpt>
      <trkpt lat="44.98015" lon="6.50638">
        <ele>1535.2</ele>
        <time>2023-05-18T16:09:54+0200</time>
      </trkpt>
      <trkpt lat="44.98007" lon="6.50643">
        <ele>1533.4</ele>
        <time>2023-05-18T16:09:55+0200</time>
      </trkpt>
      <trkpt lat="44.97998" lon="6.50647">
        <ele>1531.2</ele>
        <time>2023-05-18T16:09:56+0200</time>
      </trkpt>
      <trkpt lat="44.97988" lon="6.50649">
        <ele>1529.4</ele>
        <time>2023-05-18T16:09:57+0200</time>
      </trkpt>
      <trkpt lat="44.97977" lon="6.50651">
        <ele>1527</ele>
        <time>2023-05-18T16:09:58+0200</time>
      </trkpt>
      <trkpt lat="44.97964" lon="6.50653">
        <ele>1524.4</ele>
        <time>2023-05-18T16:09:59+0200</time>
      </trkpt>
      <trkpt lat="44.97952" lon="6.50655">
        <ele>1521.8</ele>
        <time>2023-05-18T16:10:00+0200</time>
      </trkpt>
      <trkpt lat="44.97939" lon="6.50658">
        <ele>1519.5</ele>
        <time>2023-05-18T16:10:01+0200</time>
      </trkpt>
      <trkpt lat="44.97925" lon="6.50661">
        <ele>1517.3</ele>
        <time>2023-05-18T16:10:02+0200</time>
      </trkpt>
      <trkpt lat="44.97912" lon="6.50665">
        <ele>1515.4</ele>
        <time>2023-05-18T16:10:03+0200</time>
      </trkpt>
      <trkpt lat="44.97901" lon="6.50668">
        <ele>1513.7</ele>
        <time>2023-05-18T16:10:04+0200</time>
      </trkpt>
      <trkpt lat="44.97889" lon="6.50673">
        <ele>1511.8</ele>
        <time>2023-05-18T16:10:05+0200</time>
      </trkpt>
      <trkpt lat="44.97878" lon="6.50679">
        <ele>1510</ele>
        <time>2023-05-18T16:10:06+0200</time>
      </trkpt>
      <trkpt lat="44.97867" lon="6.5069">
        <ele>1508</ele>
        <time>2023-05-18T16:10:07+0200</time>
      </trkpt>
      <trkpt lat="44.97857" lon="6.50698">
        <ele>1506.5</ele>
        <time>2023-05-18T16:10:08+0200</time>
      </trkpt>
      <trkpt lat="44.97843" lon="6.50706">
        <ele>1504.4</ele>
        <time>2023-05-18T16:10:09+0200</time>
      </trkpt>
      <trkpt lat="44.9783" lon="6.50714">
        <ele>1502.6</ele>
        <time>2023-05-18T16:10:10+0200</time>
      </trkpt>
      <trkpt lat="44.97816" lon="6.50722">
        <ele>1501.2</ele>
        <time>2023-05-18T16:10:11+0200</time>
      </trkpt>
      <trkpt lat="44.97805" lon="6.50727">
        <ele>1499.7</ele>
        <time>2023-05-18T16:10:12+0200</time>
      </trkpt>
      <trkpt lat="44.97793" lon="6.5073">
        <ele>1498.4</ele>
        <time>2023-05-18T16:10:13+0200</time>
      </trkpt>
      <trkpt lat="44.97782" lon="6.50732">
        <ele>1497.1</ele>
        <time>2023-05-18T16:10:14+0200</time>
      </trkpt>
      <trkpt lat="44.97771" lon="6.50735">
        <ele>1496.1</ele>
        <time>2023-05-18T16:10:15+0200</time>
      </trkpt>
      <trkpt lat="44.97765" lon="6.50736">
        <ele>1495.6</ele>
        <time>2023-05-18T16:10:16+0200</time>
      </trkpt>
      <trkpt lat="44.97769" lon="6.50739">
        <ele>1495.8</ele>
        <time>2023-05-18T16:11:00+0200</time>
      </trkpt>
      <trkpt lat="44.97763" lon="6.50737">
        <ele>1495.4</ele>
        <time>2023-05-18T16:11:19+0200</time>
      </trkpt>
      <trkpt lat="44.97757" lon="6.50738">
        <ele>1494.9</ele>
        <time>2023-05-18T16:11:53+0200</time>
      </trkpt>
      <trkpt lat="44.97753" lon="6.50745">
        <ele>1494.4</ele>
        <time>2023-05-18T16:11:55+0200</time>
      </trkpt>
      <trkpt lat="44.97753" lon="6.50752">
        <ele>1494.2</ele>
        <time>2023-05-18T16:11:57+0200</time>
      </trkpt>
      <trkpt lat="44.97757" lon="6.50757">
        <ele>1494.3</ele>
        <time>2023-05-18T16:12:00+0200</time>
      </trkpt>
      <trkpt lat="44.97758" lon="6.50764">
        <ele>1494.3</ele>
        <time>2023-05-18T16:12:07+0200</time>
      </trkpt>
      <trkpt lat="44.9776" lon="6.5077">
        <ele>1494.2</ele>
        <time>2023-05-18T16:12:09+0200</time>
      </trkpt>
      <trkpt lat="44.97758" lon="6.50778">
        <ele>1493.9</ele>
        <time>2023-05-18T16:12:12+0200</time>
      </trkpt>
      <trkpt lat="44.97754" lon="6.50787">
        <ele>1493.1</ele>
        <time>2023-05-18T16:12:15+0200</time>
      </trkpt>
      <trkpt lat="44.97751" lon="6.50792">
        <ele>1492.6</ele>
        <time>2023-05-18T16:12:16+0200</time>
      </trkpt>
      <trkpt lat="44.97746" lon="6.50795">
        <ele>1492.2</ele>
        <time>2023-05-18T16:12:18+0200</time>
      </trkpt>
      <trkpt lat="44.97743" lon="6.508">
        <ele>1491.9</ele>
        <time>2023-05-18T16:12:19+0200</time>
      </trkpt>
      <trkpt lat="44.97739" lon="6.50804">
        <ele>1491.7</ele>
        <time>2023-05-18T16:12:20+0200</time>
      </trkpt>
      <trkpt lat="44.97732" lon="6.50809">
        <ele>1491.1</ele>
        <time>2023-05-18T16:12:22+0200</time>
      </trkpt>
      <trkpt lat="44.97728" lon="6.50814">
        <ele>1490.7</ele>
        <time>2023-05-18T16:12:23+0200</time>
      </trkpt>
      <trkpt lat="44.97726" lon="6.5082">
        <ele>1490.2</ele>
        <time>2023-05-18T16:12:24+0200</time>
      </trkpt>
      <trkpt lat="44.9772" lon="6.50826">
        <ele>1489.5</ele>
        <time>2023-05-18T16:12:25+0200</time>
      </trkpt>
      <trkpt lat="44.97717" lon="6.50835">
        <ele>1488.9</ele>
        <time>2023-05-18T16:12:26+0200</time>
      </trkpt>
      <trkpt lat="44.97714" lon="6.50843">
        <ele>1488.5</ele>
        <time>2023-05-18T16:12:27+0200</time>
      </trkpt>
      <trkpt lat="44.97712" lon="6.50852">
        <ele>1488.1</ele>
        <time>2023-05-18T16:12:28+0200</time>
      </trkpt>
      <trkpt lat="44.97707" lon="6.50859">
        <ele>1487.6</ele>
        <time>2023-05-18T16:12:30+0200</time>
      </trkpt>
      <trkpt lat="44.97703" lon="6.50862">
        <ele>1487.3</ele>
        <time>2023-05-18T16:12:32+0200</time>
      </trkpt>
      <trkpt lat="44.97701" lon="6.50854">
        <ele>1487.7</ele>
        <time>2023-05-18T16:12:33+0200</time>
      </trkpt>
      <trkpt lat="44.97696" lon="6.50859">
        <ele>1487.2</ele>
        <time>2023-05-18T16:12:39+0200</time>
      </trkpt>
      <trkpt lat="44.97692" lon="6.50868">
        <ele>1486.7</ele>
        <time>2023-05-18T16:12:40+0200</time>
      </trkpt>
      <trkpt lat="44.97688" lon="6.50878">
        <ele>1486.4</ele>
        <time>2023-05-18T16:12:41+0200</time>
      </trkpt>
      <trkpt lat="44.97685" lon="6.50884">
        <ele>1486.2</ele>
        <time>2023-05-18T16:12:42+0200</time>
      </trkpt>
      <trkpt lat="44.9768" lon="6.50891">
        <ele>1486</ele>
        <time>2023-05-18T16:12:43+0200</time>
      </trkpt>
      <trkpt lat="44.97676" lon="6.50899">
        <ele>1485.8</ele>
        <time>2023-05-18T16:12:44+0200</time>
      </trkpt>
      <trkpt lat="44.97673" lon="6.50905">
        <ele>1485.5</ele>
        <time>2023-05-18T16:12:45+0200</time>
      </trkpt>
      <trkpt lat="44.97668" lon="6.50911">
        <ele>1485.3</ele>
        <time>2023-05-18T16:12:46+0200</time>
      </trkpt>
      <trkpt lat="44.97665" lon="6.50917">
        <ele>1485</ele>
        <time>2023-05-18T16:12:47+0200</time>
      </trkpt>
      <trkpt lat="44.97661" lon="6.50925">
        <ele>1484.9</ele>
        <time>2023-05-18T16:12:48+0200</time>
      </trkpt>
      <trkpt lat="44.97658" lon="6.50933">
        <ele>1484.8</ele>
        <time>2023-05-18T16:12:49+0200</time>
      </trkpt>
      <trkpt lat="44.97654" lon="6.5094">
        <ele>1484.6</ele>
        <time>2023-05-18T16:12:50+0200</time>
      </trkpt>
      <trkpt lat="44.97649" lon="6.50945">
        <ele>1484.3</ele>
        <time>2023-05-18T16:12:51+0200</time>
      </trkpt>
      <trkpt lat="44.97642" lon="6.50946">
        <ele>1484.1</ele>
        <time>2023-05-18T16:12:52+0200</time>
      </trkpt>
      <trkpt lat="44.97638" lon="6.50951">
        <ele>1484</ele>
        <time>2023-05-18T16:12:53+0200</time>
      </trkpt>
      <trkpt lat="44.97634" lon="6.50957">
        <ele>1483.9</ele>
        <time>2023-05-18T16:12:54+0200</time>
      </trkpt>
      <trkpt lat="44.97631" lon="6.50962">
        <ele>1483.8</ele>
        <time>2023-05-18T16:12:55+0200</time>
      </trkpt>
      <trkpt lat="44.97626" lon="6.50962">
        <ele>1483.7</ele>
        <time>2023-05-18T16:12:56+0200</time>
      </trkpt>
      <trkpt lat="44.97621" lon="6.5096">
        <ele>1483.6</ele>
        <time>2023-05-18T16:12:57+0200</time>
      </trkpt>
      <trkpt lat="44.97614" lon="6.50955">
        <ele>1483.7</ele>
        <time>2023-05-18T16:12:58+0200</time>
      </trkpt>
      <trkpt lat="44.97607" lon="6.50956">
        <ele>1483.5</ele>
        <time>2023-05-18T16:12:59+0200</time>
      </trkpt>
      <trkpt lat="44.97605" lon="6.5095">
        <ele>1483.6</ele>
        <time>2023-05-18T16:13:00+0200</time>
      </trkpt>
      <trkpt lat="44.976" lon="6.50943">
        <ele>1483.6</ele>
        <time>2023-05-18T16:13:02+0200</time>
      </trkpt>
      <trkpt lat="44.97599" lon="6.50931">
        <ele>1484</ele>
        <time>2023-05-18T16:13:03+0200</time>
      </trkpt>
      <trkpt lat="44.97597" lon="6.50921">
        <ele>1484.4</ele>
        <time>2023-05-18T16:13:04+0200</time>
      </trkpt>
      <trkpt lat="44.97595" lon="6.50911">
        <ele>1484.4</ele>
        <time>2023-05-18T16:13:05+0200</time>
      </trkpt>
      <trkpt lat="44.97594" lon="6.50903">
        <ele>1484.4</ele>
        <time>2023-05-18T16:13:06+0200</time>
      </trkpt>
      <trkpt lat="44.97593" lon="6.50895">
        <ele>1484.4</ele>
        <time>2023-05-18T16:13:07+0200</time>
      </trkpt>
      <trkpt lat="44.97593" lon="6.50886">
        <ele>1484.4</ele>
        <time>2023-05-18T16:13:08+0200</time>
      </trkpt>
      <trkpt lat="44.97592" lon="6.50873">
        <ele>1484.9</ele>
        <time>2023-05-18T16:13:10+0200</time>
      </trkpt>
      <trkpt lat="44.97592" lon="6.50866">
        <ele>1485.1</ele>
        <time>2023-05-18T16:13:11+0200</time>
      </trkpt>
      <trkpt lat="44.97595" lon="6.50856">
        <ele>1485.6</ele>
        <time>2023-05-18T16:13:13+0200</time>
      </trkpt>
      <trkpt lat="44.97597" lon="6.50849">
        <ele>1485.9</ele>
        <time>2023-05-18T16:13:14+0200</time>
      </trkpt>
      <trkpt lat="44.97599" lon="6.50838">
        <ele>1486.4</ele>
        <time>2023-05-18T16:13:15+0200</time>
      </trkpt>
      <trkpt lat="44.976" lon="6.50828">
        <ele>1486.7</ele>
        <time>2023-05-18T16:13:16+0200</time>
      </trkpt>
      <trkpt lat="44.97603" lon="6.50821">
        <ele>1487</ele>
        <time>2023-05-18T16:13:17+0200</time>
      </trkpt>
      <trkpt lat="44.97605" lon="6.50816">
        <ele>1487.3</ele>
        <time>2023-05-18T16:13:18+0200</time>
      </trkpt>
      <trkpt lat="44.97606" lon="6.50809">
        <ele>1487.6</ele>
        <time>2023-05-18T16:13:19+0200</time>
      </trkpt>
      <trkpt lat="44.97608" lon="6.50803">
        <ele>1487.8</ele>
        <time>2023-05-18T16:13:20+0200</time>
      </trkpt>
      <trkpt lat="44.97611" lon="6.50797">
        <ele>1488</ele>
        <time>2023-05-18T16:13:21+0200</time>
      </trkpt>
      <trkpt lat="44.97606" lon="6.50788">
        <ele>1487.7</ele>
        <time>2023-05-18T16:13:22+0200</time>
      </trkpt>
      <trkpt lat="44.97601" lon="6.50781">
        <ele>1487.6</ele>
        <time>2023-05-18T16:13:24+0200</time>
      </trkpt>
      <trkpt lat="44.97599" lon="6.50774">
        <ele>1487.6</ele>
        <time>2023-05-18T16:13:26+0200</time>
      </trkpt>
      <trkpt lat="44.97593" lon="6.50771">
        <ele>1487.4</ele>
        <time>2023-05-18T16:13:27+0200</time>
      </trkpt>
      <trkpt lat="44.97588" lon="6.50769">
        <ele>1487.2</ele>
        <time>2023-05-18T16:13:28+0200</time>
      </trkpt>
      <trkpt lat="44.97584" lon="6.50765">
        <ele>1487</ele>
        <time>2023-05-18T16:13:29+0200</time>
      </trkpt>
      <trkpt lat="44.97579" lon="6.50766">
        <ele>1486.7</ele>
        <time>2023-05-18T16:13:30+0200</time>
      </trkpt>
      <trkpt lat="44.97578" lon="6.50757">
        <ele>1486.6</ele>
        <time>2023-05-18T16:13:31+0200</time>
      </trkpt>
      <trkpt lat="44.97581" lon="6.50746">
        <ele>1486.8</ele>
        <time>2023-05-18T16:13:33+0200</time>
      </trkpt>
      <trkpt lat="44.97582" lon="6.50737">
        <ele>1486.9</ele>
        <time>2023-05-18T16:13:35+0200</time>
      </trkpt>
      <trkpt lat="44.97585" lon="6.50728">
        <ele>1487.1</ele>
        <time>2023-05-18T16:13:37+0200</time>
      </trkpt>
      <trkpt lat="44.97587" lon="6.5072">
        <ele>1487.2</ele>
        <time>2023-05-18T16:13:39+0200</time>
      </trkpt>
      <trkpt lat="44.9759" lon="6.50715">
        <ele>1487.2</ele>
        <time>2023-05-18T16:13:41+0200</time>
      </trkpt>
      <trkpt lat="44.9759" lon="6.50721">
        <ele>1487.4</ele>
        <time>2023-05-18T16:13:50+0200</time>
      </trkpt>
      <trkpt lat="44.97594" lon="6.50719">
        <ele>1487.7</ele>
        <time>2023-05-18T16:14:04+0200</time>
      </trkpt>
      <trkpt lat="44.97599" lon="6.50718">
        <ele>1488</ele>
        <time>2023-05-18T16:14:09+0200</time>
      </trkpt>
      <trkpt lat="44.97594" lon="6.50722">
        <ele>1487.8</ele>
        <time>2023-05-18T16:14:20+0200</time>
      </trkpt>
      <trkpt lat="44.97593" lon="6.50728">
        <ele>1487.7</ele>
        <time>2023-05-18T16:14:33+0200</time>
      </trkpt>
      <trkpt lat="44.97595" lon="6.50722">
        <ele>1487.9</ele>
        <time>2023-05-18T16:14:56+0200</time>
      </trkpt>
      <trkpt lat="44.97597" lon="6.50729">
        <ele>1488</ele>
        <time>2023-05-18T16:15:30+0200</time>
      </trkpt>
      <trkpt lat="44.97594" lon="6.50723">
        <ele>1487.8</ele>
        <time>2023-05-18T16:15:55+0200</time>
      </trkpt>
      <trkpt lat="44.97596" lon="6.50718">
        <ele>1487.8</ele>
        <time>2023-05-18T16:18:27+0200</time>
      </trkpt>
      <trkpt lat="44.97592" lon="6.50721">
        <ele>1487.6</ele>
        <time>2023-05-18T16:18:40+0200</time>
      </trkpt>
      <trkpt lat="44.97595" lon="6.50716">
        <ele>1487.6</ele>
        <time>2023-05-18T16:20:20+0200</time>
      </trkpt>
      <trkpt lat="44.97591" lon="6.50719">
        <ele>1487.4</ele>
        <time>2023-05-18T16:20:48+0200</time>
      </trkpt>
      <trkpt lat="44.97595" lon="6.50719">
        <ele>1487.7</ele>
        <time>2023-05-18T16:21:06+0200</time>
      </trkpt>
      <trkpt lat="44.976" lon="6.50716">
        <ele>1487.9</ele>
        <time>2023-05-18T16:25:48+0200</time>
      </trkpt>
      <trkpt lat="44.97595" lon="6.50721">
        <ele>1487.8</ele>
        <time>2023-05-18T16:26:47+0200</time>
      </trkpt>
      <trkpt lat="44.9759" lon="6.50727">
        <ele>1487.5</ele>
        <time>2023-05-18T16:26:49+0200</time>
      </trkpt>
      <trkpt lat="44.97587" lon="6.50736">
        <ele>1487.3</ele>
        <time>2023-05-18T16:26:51+0200</time>
      </trkpt>
      <trkpt lat="44.97585" lon="6.50745">
        <ele>1487.1</ele>
        <time>2023-05-18T16:26:53+0200</time>
      </trkpt>
      <trkpt lat="44.97582" lon="6.50753">
        <ele>1486.9</ele>
        <time>2023-05-18T16:26:55+0200</time>
      </trkpt>
      <trkpt lat="44.97578" lon="6.50757">
        <ele>1486.6</ele>
        <time>2023-05-18T16:26:57+0200</time>
      </trkpt>
      <trkpt lat="44.97572" lon="6.50756">
        <ele>1486.2</ele>
        <time>2023-05-18T16:26:58+0200</time>
      </trkpt>
      <trkpt lat="44.97567" lon="6.50758">
        <ele>1485.8</ele>
        <time>2023-05-18T16:26:59+0200</time>
      </trkpt>
      <trkpt lat="44.97562" lon="6.50759">
        <ele>1485.4</ele>
        <time>2023-05-18T16:27:01+0200</time>
      </trkpt>
      <trkpt lat="44.97553" lon="6.50761">
        <ele>1484.8</ele>
        <time>2023-05-18T16:27:02+0200</time>
      </trkpt>
      <trkpt lat="44.97543" lon="6.5076">
        <ele>1484.1</ele>
        <time>2023-05-18T16:27:03+0200</time>
      </trkpt>
      <trkpt lat="44.97536" lon="6.5076">
        <ele>1483.6</ele>
        <time>2023-05-18T16:27:04+0200</time>
      </trkpt>
      <trkpt lat="44.97528" lon="6.50762">
        <ele>1483</ele>
        <time>2023-05-18T16:27:05+0200</time>
      </trkpt>
      <trkpt lat="44.97518" lon="6.50766">
        <ele>1482</ele>
        <time>2023-05-18T16:27:06+0200</time>
      </trkpt>
      <trkpt lat="44.97512" lon="6.50775">
        <ele>1481.3</ele>
        <time>2023-05-18T16:27:07+0200</time>
      </trkpt>
      <trkpt lat="44.97506" lon="6.50781">
        <ele>1480.7</ele>
        <time>2023-05-18T16:27:08+0200</time>
      </trkpt>
      <trkpt lat="44.97498" lon="6.50787">
        <ele>1480.1</ele>
        <time>2023-05-18T16:27:09+0200</time>
      </trkpt>
      <trkpt lat="44.97492" lon="6.50792">
        <ele>1479.4</ele>
        <time>2023-05-18T16:27:10+0200</time>
      </trkpt>
      <trkpt lat="44.97486" lon="6.50798">
        <ele>1478.8</ele>
        <time>2023-05-18T16:27:11+0200</time>
      </trkpt>
      <trkpt lat="44.97482" lon="6.50807">
        <ele>1478.5</ele>
        <time>2023-05-18T16:27:12+0200</time>
      </trkpt>
      <trkpt lat="44.97475" lon="6.50812">
        <ele>1477.6</ele>
        <time>2023-05-18T16:27:13+0200</time>
      </trkpt>
      <trkpt lat="44.97471" lon="6.50816">
        <ele>1477.2</ele>
        <time>2023-05-18T16:27:14+0200</time>
      </trkpt>
      <trkpt lat="44.97469" lon="6.5081">
        <ele>1476.7</ele>
        <time>2023-05-18T16:27:15+0200</time>
      </trkpt>
      <trkpt lat="44.97462" lon="6.50803">
        <ele>1475.9</ele>
        <time>2023-05-18T16:27:16+0200</time>
      </trkpt>
      <trkpt lat="44.97457" lon="6.50799">
        <ele>1475.3</ele>
        <time>2023-05-18T16:27:17+0200</time>
      </trkpt>
      <trkpt lat="44.97446" lon="6.50796">
        <ele>1473.8</ele>
        <time>2023-05-18T16:27:19+0200</time>
      </trkpt>
      <trkpt lat="44.97437" lon="6.50793">
        <ele>1472.5</ele>
        <time>2023-05-18T16:27:20+0200</time>
      </trkpt>
      <trkpt lat="44.97431" lon="6.50797">
        <ele>1471.7</ele>
        <time>2023-05-18T16:27:21+0200</time>
      </trkpt>
      <trkpt lat="44.97421" lon="6.50802">
        <ele>1470.5</ele>
        <time>2023-05-18T16:27:22+0200</time>
      </trkpt>
      <trkpt lat="44.97413" lon="6.50808">
        <ele>1469.7</ele>
        <time>2023-05-18T16:27:23+0200</time>
      </trkpt>
      <trkpt lat="44.97405" lon="6.50814">
        <ele>1469.1</ele>
        <time>2023-05-18T16:27:24+0200</time>
      </trkpt>
      <trkpt lat="44.97399" lon="6.50822">
        <ele>1468.7</ele>
        <time>2023-05-18T16:27:25+0200</time>
      </trkpt>
      <trkpt lat="44.97382" lon="6.50807">
        <ele>1466.5</ele>
        <time>2023-05-18T16:27:27+0200</time>
      </trkpt>
      <trkpt lat="44.97375" lon="6.508">
        <ele>1465.9</ele>
        <time>2023-05-18T16:27:28+0200</time>
      </trkpt>
      <trkpt lat="44.97368" lon="6.50795">
        <ele>1465.2</ele>
        <time>2023-05-18T16:27:29+0200</time>
      </trkpt>
      <trkpt lat="44.9736" lon="6.50787">
        <ele>1464.3</ele>
        <time>2023-05-18T16:27:30+0200</time>
      </trkpt>
      <trkpt lat="44.97353" lon="6.50781">
        <ele>1463.8</ele>
        <time>2023-05-18T16:27:31+0200</time>
      </trkpt>
      <trkpt lat="44.97346" lon="6.50776">
        <ele>1463.5</ele>
        <time>2023-05-18T16:27:32+0200</time>
      </trkpt>
      <trkpt lat="44.9734" lon="6.5077">
        <ele>1463.4</ele>
        <time>2023-05-18T16:27:33+0200</time>
      </trkpt>
      <trkpt lat="44.97333" lon="6.50767">
        <ele>1463.4</ele>
        <time>2023-05-18T16:27:34+0200</time>
      </trkpt>
      <trkpt lat="44.97329" lon="6.50763">
        <ele>1463.8</ele>
        <time>2023-05-18T16:27:35+0200</time>
      </trkpt>
      <trkpt lat="44.9732" lon="6.50783">
        <ele>1463.8</ele>
        <time>2023-05-18T16:27:36+0200</time>
      </trkpt>
      <trkpt lat="44.97316" lon="6.50792">
        <ele>1463.7</ele>
        <time>2023-05-18T16:27:37+0200</time>
      </trkpt>
      <trkpt lat="44.9731" lon="6.50801">
        <ele>1463.8</ele>
        <time>2023-05-18T16:27:38+0200</time>
      </trkpt>
      <trkpt lat="44.97303" lon="6.50806">
        <ele>1464</ele>
        <time>2023-05-18T16:27:39+0200</time>
      </trkpt>
      <trkpt lat="44.97296" lon="6.50808">
        <ele>1463.9</ele>
        <time>2023-05-18T16:27:40+0200</time>
      </trkpt>
      <trkpt lat="44.97289" lon="6.50811">
        <ele>1463.7</ele>
        <time>2023-05-18T16:27:41+0200</time>
      </trkpt>
      <trkpt lat="44.97282" lon="6.50814">
        <ele>1463.7</ele>
        <time>2023-05-18T16:27:42+0200</time>
      </trkpt>
      <trkpt lat="44.97276" lon="6.50819">
        <ele>1463.5</ele>
        <time>2023-05-18T16:27:43+0200</time>
      </trkpt>
      <trkpt lat="44.97269" lon="6.50822">
        <ele>1463.4</ele>
        <time>2023-05-18T16:27:44+0200</time>
      </trkpt>
      <trkpt lat="44.97263" lon="6.50827">
        <ele>1463.2</ele>
        <time>2023-05-18T16:27:45+0200</time>
      </trkpt>
      <trkpt lat="44.97257" lon="6.50831">
        <ele>1463.1</ele>
        <time>2023-05-18T16:27:46+0200</time>
      </trkpt>
      <trkpt lat="44.97252" lon="6.50838">
        <ele>1463</ele>
        <time>2023-05-18T16:27:47+0200</time>
      </trkpt>
      <trkpt lat="44.97246" lon="6.50842">
        <ele>1463.1</ele>
        <time>2023-05-18T16:27:48+0200</time>
      </trkpt>
      <trkpt lat="44.9724" lon="6.50848">
        <ele>1463.2</ele>
        <time>2023-05-18T16:27:49+0200</time>
      </trkpt>
      <trkpt lat="44.97235" lon="6.50855">
        <ele>1463.1</ele>
        <time>2023-05-18T16:27:50+0200</time>
      </trkpt>
      <trkpt lat="44.9723" lon="6.50861">
        <ele>1463</ele>
        <time>2023-05-18T16:27:51+0200</time>
      </trkpt>
      <trkpt lat="44.97224" lon="6.50867">
        <ele>1463</ele>
        <time>2023-05-18T16:27:52+0200</time>
      </trkpt>
      <trkpt lat="44.9722" lon="6.50873">
        <ele>1463.1</ele>
        <time>2023-05-18T16:27:53+0200</time>
      </trkpt>
      <trkpt lat="44.97216" lon="6.5088">
        <ele>1463.2</ele>
        <time>2023-05-18T16:27:54+0200</time>
      </trkpt>
      <trkpt lat="44.97212" lon="6.50887">
        <ele>1463.4</ele>
        <time>2023-05-18T16:27:55+0200</time>
      </trkpt>
      <trkpt lat="44.97208" lon="6.50892">
        <ele>1463.5</ele>
        <time>2023-05-18T16:27:56+0200</time>
      </trkpt>
      <trkpt lat="44.97203" lon="6.50898">
        <ele>1463.7</ele>
        <time>2023-05-18T16:27:57+0200</time>
      </trkpt>
      <trkpt lat="44.97199" lon="6.50903">
        <ele>1463.9</ele>
        <time>2023-05-18T16:27:58+0200</time>
      </trkpt>
      <trkpt lat="44.97194" lon="6.50909">
        <ele>1464</ele>
        <time>2023-05-18T16:27:58+0200</time>
      </trkpt>
      <trkpt lat="44.9719" lon="6.50915">
        <ele>1464.3</ele>
        <time>2023-05-18T16:27:59+0200</time>
      </trkpt>
      <trkpt lat="44.97186" lon="6.50922">
        <ele>1464.5</ele>
        <time>2023-05-18T16:28:00+0200</time>
      </trkpt>
      <trkpt lat="44.97183" lon="6.50928">
        <ele>1464.7</ele>
        <time>2023-05-18T16:28:01+0200</time>
      </trkpt>
      <trkpt lat="44.97179" lon="6.50935">
        <ele>1464.8</ele>
        <time>2023-05-18T16:28:02+0200</time>
      </trkpt>
      <trkpt lat="44.97175" lon="6.50943">
        <ele>1464.8</ele>
        <time>2023-05-18T16:28:03+0200</time>
      </trkpt>
      <trkpt lat="44.9717" lon="6.5095">
        <ele>1464.5</ele>
        <time>2023-05-18T16:28:04+0200</time>
      </trkpt>
      <trkpt lat="44.97166" lon="6.50959">
        <ele>1464</ele>
        <time>2023-05-18T16:28:05+0200</time>
      </trkpt>
      <trkpt lat="44.97161" lon="6.50966">
        <ele>1463.4</ele>
        <time>2023-05-18T16:28:06+0200</time>
      </trkpt>
      <trkpt lat="44.97157" lon="6.50975">
        <ele>1462.8</ele>
        <time>2023-05-18T16:28:07+0200</time>
      </trkpt>
      <trkpt lat="44.97155" lon="6.50986">
        <ele>1462.2</ele>
        <time>2023-05-18T16:28:08+0200</time>
      </trkpt>
      <trkpt lat="44.9715" lon="6.50995">
        <ele>1461.9</ele>
        <time>2023-05-18T16:28:09+0200</time>
      </trkpt>
      <trkpt lat="44.97147" lon="6.51004">
        <ele>1461.7</ele>
        <time>2023-05-18T16:28:10+0200</time>
      </trkpt>
      <trkpt lat="44.97143" lon="6.51013">
        <ele>1461.8</ele>
        <time>2023-05-18T16:28:11+0200</time>
      </trkpt>
      <trkpt lat="44.9714" lon="6.51023">
        <ele>1462</ele>
        <time>2023-05-18T16:28:12+0200</time>
      </trkpt>
      <trkpt lat="44.97136" lon="6.51032">
        <ele>1461.8</ele>
        <time>2023-05-18T16:28:13+0200</time>
      </trkpt>
      <trkpt lat="44.97133" lon="6.51042">
        <ele>1461.4</ele>
        <time>2023-05-18T16:28:14+0200</time>
      </trkpt>
      <trkpt lat="44.97129" lon="6.51053">
        <ele>1461.2</ele>
        <time>2023-05-18T16:28:15+0200</time>
      </trkpt>
      <trkpt lat="44.97125" lon="6.51062">
        <ele>1461.4</ele>
        <time>2023-05-18T16:28:16+0200</time>
      </trkpt>
      <trkpt lat="44.97122" lon="6.51072">
        <ele>1461.4</ele>
        <time>2023-05-18T16:28:17+0200</time>
      </trkpt>
      <trkpt lat="44.9712" lon="6.51081">
        <ele>1461.4</ele>
        <time>2023-05-18T16:28:18+0200</time>
      </trkpt>
      <trkpt lat="44.97118" lon="6.51091">
        <ele>1461.5</ele>
        <time>2023-05-18T16:28:19+0200</time>
      </trkpt>
      <trkpt lat="44.97116" lon="6.51102">
        <ele>1461.6</ele>
        <time>2023-05-18T16:28:20+0200</time>
      </trkpt>
      <trkpt lat="44.97115" lon="6.51111">
        <ele>1461.7</ele>
        <time>2023-05-18T16:28:21+0200</time>
      </trkpt>
      <trkpt lat="44.97113" lon="6.51121">
        <ele>1461.5</ele>
        <time>2023-05-18T16:28:22+0200</time>
      </trkpt>
      <trkpt lat="44.97112" lon="6.51131">
        <ele>1461.3</ele>
        <time>2023-05-18T16:28:23+0200</time>
      </trkpt>
      <trkpt lat="44.97109" lon="6.51139">
        <ele>1461.2</ele>
        <time>2023-05-18T16:28:24+0200</time>
      </trkpt>
      <trkpt lat="44.97106" lon="6.51149">
        <ele>1461.4</ele>
        <time>2023-05-18T16:28:25+0200</time>
      </trkpt>
      <trkpt lat="44.97104" lon="6.51158">
        <ele>1461.6</ele>
        <time>2023-05-18T16:28:26+0200</time>
      </trkpt>
      <trkpt lat="44.97101" lon="6.51167">
        <ele>1461.7</ele>
        <time>2023-05-18T16:28:27+0200</time>
      </trkpt>
      <trkpt lat="44.97099" lon="6.51175">
        <ele>1461.9</ele>
        <time>2023-05-18T16:28:29+0200</time>
      </trkpt>
      <trkpt lat="44.97096" lon="6.51184">
        <ele>1462.1</ele>
        <time>2023-05-18T16:28:30+0200</time>
      </trkpt>
      <trkpt lat="44.97094" lon="6.51193">
        <ele>1462.2</ele>
        <time>2023-05-18T16:28:31+0200</time>
      </trkpt>
      <trkpt lat="44.97093" lon="6.51203">
        <ele>1462</ele>
        <time>2023-05-18T16:28:32+0200</time>
      </trkpt>
      <trkpt lat="44.97091" lon="6.51211">
        <ele>1461.8</ele>
        <time>2023-05-18T16:28:33+0200</time>
      </trkpt>
      <trkpt lat="44.9709" lon="6.5122">
        <ele>1461.6</ele>
        <time>2023-05-18T16:28:34+0200</time>
      </trkpt>
      <trkpt lat="44.97087" lon="6.51229">
        <ele>1461.7</ele>
        <time>2023-05-18T16:28:35+0200</time>
      </trkpt>
      <trkpt lat="44.97086" lon="6.51237">
        <ele>1461.8</ele>
        <time>2023-05-18T16:28:36+0200</time>
      </trkpt>
      <trkpt lat="44.97083" lon="6.51248">
        <ele>1462</ele>
        <time>2023-05-18T16:28:37+0200</time>
      </trkpt>
      <trkpt lat="44.97082" lon="6.51256">
        <ele>1461.9</ele>
        <time>2023-05-18T16:28:38+0200</time>
      </trkpt>
      <trkpt lat="44.9708" lon="6.51264">
        <ele>1461.8</ele>
        <time>2023-05-18T16:28:39+0200</time>
      </trkpt>
      <trkpt lat="44.97077" lon="6.51271">
        <ele>1461.8</ele>
        <time>2023-05-18T16:28:40+0200</time>
      </trkpt>
      <trkpt lat="44.97073" lon="6.51279">
        <ele>1462.1</ele>
        <time>2023-05-18T16:28:41+0200</time>
      </trkpt>
      <trkpt lat="44.97069" lon="6.51284">
        <ele>1462.2</ele>
        <time>2023-05-18T16:28:42+0200</time>
      </trkpt>
      <trkpt lat="44.97065" lon="6.5129">
        <ele>1462.5</ele>
        <time>2023-05-18T16:28:43+0200</time>
      </trkpt>
      <trkpt lat="44.9706" lon="6.51295">
        <ele>1462.8</ele>
        <time>2023-05-18T16:28:44+0200</time>
      </trkpt>
      <trkpt lat="44.97056" lon="6.513">
        <ele>1463.2</ele>
        <time>2023-05-18T16:28:45+0200</time>
      </trkpt>
      <trkpt lat="44.97052" lon="6.51306">
        <ele>1463.3</ele>
        <time>2023-05-18T16:28:46+0200</time>
      </trkpt>
      <trkpt lat="44.97047" lon="6.5131">
        <ele>1463.2</ele>
        <time>2023-05-18T16:28:47+0200</time>
      </trkpt>
      <trkpt lat="44.97043" lon="6.51316">
        <ele>1463.2</ele>
        <time>2023-05-18T16:28:48+0200</time>
      </trkpt>
      <trkpt lat="44.97038" lon="6.51321">
        <ele>1463.3</ele>
        <time>2023-05-18T16:28:49+0200</time>
      </trkpt>
      <trkpt lat="44.97033" lon="6.51325">
        <ele>1463.6</ele>
        <time>2023-05-18T16:28:50+0200</time>
      </trkpt>
      <trkpt lat="44.97029" lon="6.51329">
        <ele>1464.1</ele>
        <time>2023-05-18T16:28:51+0200</time>
      </trkpt>
      <trkpt lat="44.97025" lon="6.51334">
        <ele>1464.2</ele>
        <time>2023-05-18T16:28:52+0200</time>
      </trkpt>
      <trkpt lat="44.97021" lon="6.51341">
        <ele>1464.1</ele>
        <time>2023-05-18T16:28:53+0200</time>
      </trkpt>
      <trkpt lat="44.97017" lon="6.51348">
        <ele>1464.1</ele>
        <time>2023-05-18T16:28:54+0200</time>
      </trkpt>
      <trkpt lat="44.97014" lon="6.51354">
        <ele>1464.2</ele>
        <time>2023-05-18T16:28:55+0200</time>
      </trkpt>
      <trkpt lat="44.9701" lon="6.51361">
        <ele>1464.5</ele>
        <time>2023-05-18T16:28:56+0200</time>
      </trkpt>
      <trkpt lat="44.97007" lon="6.51367">
        <ele>1464.6</ele>
        <time>2023-05-18T16:28:57+0200</time>
      </trkpt>
      <trkpt lat="44.97004" lon="6.51374">
        <ele>1464.5</ele>
        <time>2023-05-18T16:28:58+0200</time>
      </trkpt>
      <trkpt lat="44.97" lon="6.5138">
        <ele>1464.6</ele>
        <time>2023-05-18T16:28:59+0200</time>
      </trkpt>
      <trkpt lat="44.96997" lon="6.51386">
        <ele>1464.4</ele>
        <time>2023-05-18T16:29:00+0200</time>
      </trkpt>
      <trkpt lat="44.96995" lon="6.51392">
        <ele>1464.2</ele>
        <time>2023-05-18T16:29:01+0200</time>
      </trkpt>
      <trkpt lat="44.96992" lon="6.51398">
        <ele>1463.9</ele>
        <time>2023-05-18T16:29:02+0200</time>
      </trkpt>
      <trkpt lat="44.96988" lon="6.51406">
        <ele>1463.7</ele>
        <time>2023-05-18T16:29:03+0200</time>
      </trkpt>
      <trkpt lat="44.96984" lon="6.51412">
        <ele>1463.5</ele>
        <time>2023-05-18T16:29:04+0200</time>
      </trkpt>
      <trkpt lat="44.96982" lon="6.51419">
        <ele>1463.2</ele>
        <time>2023-05-18T16:29:05+0200</time>
      </trkpt>
      <trkpt lat="44.96978" lon="6.51426">
        <ele>1463.2</ele>
        <time>2023-05-18T16:29:06+0200</time>
      </trkpt>
      <trkpt lat="44.96975" lon="6.51433">
        <ele>1463.2</ele>
        <time>2023-05-18T16:29:07+0200</time>
      </trkpt>
      <trkpt lat="44.96972" lon="6.51439">
        <ele>1463.2</ele>
        <time>2023-05-18T16:29:08+0200</time>
      </trkpt>
      <trkpt lat="44.96969" lon="6.51446">
        <ele>1463.2</ele>
        <time>2023-05-18T16:29:09+0200</time>
      </trkpt>
      <trkpt lat="44.96965" lon="6.51454">
        <ele>1463.2</ele>
        <time>2023-05-18T16:29:10+0200</time>
      </trkpt>
      <trkpt lat="44.96961" lon="6.51459">
        <ele>1463.3</ele>
        <time>2023-05-18T16:29:11+0200</time>
      </trkpt>
      <trkpt lat="44.96957" lon="6.51465">
        <ele>1463.4</ele>
        <time>2023-05-18T16:29:12+0200</time>
      </trkpt>
      <trkpt lat="44.96952" lon="6.51472">
        <ele>1463.4</ele>
        <time>2023-05-18T16:29:13+0200</time>
      </trkpt>
      <trkpt lat="44.96949" lon="6.51479">
        <ele>1463.4</ele>
        <time>2023-05-18T16:29:14+0200</time>
      </trkpt>
      <trkpt lat="44.96944" lon="6.51486">
        <ele>1463.5</ele>
        <time>2023-05-18T16:29:15+0200</time>
      </trkpt>
      <trkpt lat="44.9694" lon="6.51494">
        <ele>1463.4</ele>
        <time>2023-05-18T16:29:16+0200</time>
      </trkpt>
      <trkpt lat="44.96937" lon="6.51503">
        <ele>1463.1</ele>
        <time>2023-05-18T16:29:17+0200</time>
      </trkpt>
      <trkpt lat="44.96933" lon="6.5151">
        <ele>1463</ele>
        <time>2023-05-18T16:29:18+0200</time>
      </trkpt>
      <trkpt lat="44.9693" lon="6.51518">
        <ele>1462.9</ele>
        <time>2023-05-18T16:29:19+0200</time>
      </trkpt>
      <trkpt lat="44.96926" lon="6.51526">
        <ele>1463</ele>
        <time>2023-05-18T16:29:20+0200</time>
      </trkpt>
      <trkpt lat="44.96923" lon="6.51534">
        <ele>1463.1</ele>
        <time>2023-05-18T16:29:21+0200</time>
      </trkpt>
      <trkpt lat="44.9692" lon="6.51542">
        <ele>1463.1</ele>
        <time>2023-05-18T16:29:22+0200</time>
      </trkpt>
      <trkpt lat="44.96917" lon="6.51551">
        <ele>1463.2</ele>
        <time>2023-05-18T16:29:23+0200</time>
      </trkpt>
      <trkpt lat="44.96914" lon="6.51559">
        <ele>1463</ele>
        <time>2023-05-18T16:29:24+0200</time>
      </trkpt>
      <trkpt lat="44.9691" lon="6.51567">
        <ele>1462.7</ele>
        <time>2023-05-18T16:29:25+0200</time>
      </trkpt>
      <trkpt lat="44.96907" lon="6.51576">
        <ele>1462.3</ele>
        <time>2023-05-18T16:29:26+0200</time>
      </trkpt>
      <trkpt lat="44.96903" lon="6.51585">
        <ele>1461.8</ele>
        <time>2023-05-18T16:29:27+0200</time>
      </trkpt>
      <trkpt lat="44.96898" lon="6.51592">
        <ele>1461.7</ele>
        <time>2023-05-18T16:29:28+0200</time>
      </trkpt>
      <trkpt lat="44.96893" lon="6.51599">
        <ele>1461.5</ele>
        <time>2023-05-18T16:29:29+0200</time>
      </trkpt>
      <trkpt lat="44.96888" lon="6.51607">
        <ele>1461.3</ele>
        <time>2023-05-18T16:29:30+0200</time>
      </trkpt>
      <trkpt lat="44.96883" lon="6.51614">
        <ele>1461.1</ele>
        <time>2023-05-18T16:29:31+0200</time>
      </trkpt>
      <trkpt lat="44.96878" lon="6.51621">
        <ele>1460.9</ele>
        <time>2023-05-18T16:29:32+0200</time>
      </trkpt>
      <trkpt lat="44.96873" lon="6.51629">
        <ele>1460.7</ele>
        <time>2023-05-18T16:29:33+0200</time>
      </trkpt>
      <trkpt lat="44.96867" lon="6.51636">
        <ele>1460.6</ele>
        <time>2023-05-18T16:29:34+0200</time>
      </trkpt>
      <trkpt lat="44.96862" lon="6.51644">
        <ele>1460.4</ele>
        <time>2023-05-18T16:29:35+0200</time>
      </trkpt>
      <trkpt lat="44.96857" lon="6.51652">
        <ele>1459.8</ele>
        <time>2023-05-18T16:29:36+0200</time>
      </trkpt>
      <trkpt lat="44.96852" lon="6.5166">
        <ele>1459.3</ele>
        <time>2023-05-18T16:29:37+0200</time>
      </trkpt>
      <trkpt lat="44.96847" lon="6.51669">
        <ele>1458.9</ele>
        <time>2023-05-18T16:29:38+0200</time>
      </trkpt>
      <trkpt lat="44.96842" lon="6.51678">
        <ele>1458.7</ele>
        <time>2023-05-18T16:29:39+0200</time>
      </trkpt>
      <trkpt lat="44.96837" lon="6.51688">
        <ele>1458.7</ele>
        <time>2023-05-18T16:29:40+0200</time>
      </trkpt>
      <trkpt lat="44.96832" lon="6.51697">
        <ele>1458.8</ele>
        <time>2023-05-18T16:29:41+0200</time>
      </trkpt>
      <trkpt lat="44.96828" lon="6.51706">
        <ele>1458.5</ele>
        <time>2023-05-18T16:29:42+0200</time>
      </trkpt>
      <trkpt lat="44.96823" lon="6.51715">
        <ele>1458.2</ele>
        <time>2023-05-18T16:29:43+0200</time>
      </trkpt>
      <trkpt lat="44.96818" lon="6.51725">
        <ele>1457.9</ele>
        <time>2023-05-18T16:29:44+0200</time>
      </trkpt>
      <trkpt lat="44.96813" lon="6.51735">
        <ele>1457.8</ele>
        <time>2023-05-18T16:29:45+0200</time>
      </trkpt>
      <trkpt lat="44.96809" lon="6.51745">
        <ele>1457.8</ele>
        <time>2023-05-18T16:29:46+0200</time>
      </trkpt>
      <trkpt lat="44.96804" lon="6.51756">
        <ele>1457.9</ele>
        <time>2023-05-18T16:29:47+0200</time>
      </trkpt>
      <trkpt lat="44.968" lon="6.51765">
        <ele>1457.7</ele>
        <time>2023-05-18T16:29:48+0200</time>
      </trkpt>
      <trkpt lat="44.96797" lon="6.51774">
        <ele>1457.4</ele>
        <time>2023-05-18T16:29:49+0200</time>
      </trkpt>
      <trkpt lat="44.96793" lon="6.51785">
        <ele>1457.7</ele>
        <time>2023-05-18T16:29:50+0200</time>
      </trkpt>
      <trkpt lat="44.9679" lon="6.51794">
        <ele>1458.1</ele>
        <time>2023-05-18T16:29:51+0200</time>
      </trkpt>
      <trkpt lat="44.96787" lon="6.51802">
        <ele>1458.6</ele>
        <time>2023-05-18T16:29:52+0200</time>
      </trkpt>
      <trkpt lat="44.96784" lon="6.5181">
        <ele>1458.8</ele>
        <time>2023-05-18T16:29:53+0200</time>
      </trkpt>
      <trkpt lat="44.9678" lon="6.51819">
        <ele>1458.9</ele>
        <time>2023-05-18T16:29:54+0200</time>
      </trkpt>
      <trkpt lat="44.96777" lon="6.51826">
        <ele>1459</ele>
        <time>2023-05-18T16:29:55+0200</time>
      </trkpt>
      <trkpt lat="44.96775" lon="6.51835">
        <ele>1459.2</ele>
        <time>2023-05-18T16:29:56+0200</time>
      </trkpt>
      <trkpt lat="44.96773" lon="6.51843">
        <ele>1459.3</ele>
        <time>2023-05-18T16:29:57+0200</time>
      </trkpt>
      <trkpt lat="44.96771" lon="6.51851">
        <ele>1459.5</ele>
        <time>2023-05-18T16:29:58+0200</time>
      </trkpt>
      <trkpt lat="44.96769" lon="6.51858">
        <ele>1459.6</ele>
        <time>2023-05-18T16:29:59+0200</time>
      </trkpt>
      <trkpt lat="44.96768" lon="6.51866">
        <ele>1459.7</ele>
        <time>2023-05-18T16:30:00+0200</time>
      </trkpt>
      <trkpt lat="44.96766" lon="6.51874">
        <ele>1459.8</ele>
        <time>2023-05-18T16:30:01+0200</time>
      </trkpt>
      <trkpt lat="44.96765" lon="6.51882">
        <ele>1459.9</ele>
        <time>2023-05-18T16:30:02+0200</time>
      </trkpt>
      <trkpt lat="44.96764" lon="6.5189">
        <ele>1460</ele>
        <time>2023-05-18T16:30:03+0200</time>
      </trkpt>
      <trkpt lat="44.96762" lon="6.51899">
        <ele>1460.3</ele>
        <time>2023-05-18T16:30:04+0200</time>
      </trkpt>
      <trkpt lat="44.96761" lon="6.51907">
        <ele>1460.6</ele>
        <time>2023-05-18T16:30:05+0200</time>
      </trkpt>
      <trkpt lat="44.9676" lon="6.51915">
        <ele>1460.9</ele>
        <time>2023-05-18T16:30:06+0200</time>
      </trkpt>
      <trkpt lat="44.96758" lon="6.51922">
        <ele>1461.1</ele>
        <time>2023-05-18T16:30:07+0200</time>
      </trkpt>
      <trkpt lat="44.96758" lon="6.51931">
        <ele>1461.2</ele>
        <time>2023-05-18T16:30:08+0200</time>
      </trkpt>
      <trkpt lat="44.96757" lon="6.51938">
        <ele>1461.2</ele>
        <time>2023-05-18T16:30:09+0200</time>
      </trkpt>
      <trkpt lat="44.96757" lon="6.51947">
        <ele>1461.3</ele>
        <time>2023-05-18T16:30:10+0200</time>
      </trkpt>
      <trkpt lat="44.96756" lon="6.51956">
        <ele>1461.3</ele>
        <time>2023-05-18T16:30:11+0200</time>
      </trkpt>
      <trkpt lat="44.96756" lon="6.51965">
        <ele>1461.4</ele>
        <time>2023-05-18T16:30:12+0200</time>
      </trkpt>
      <trkpt lat="44.96755" lon="6.51974">
        <ele>1461.5</ele>
        <time>2023-05-18T16:30:13+0200</time>
      </trkpt>
      <trkpt lat="44.96755" lon="6.51983">
        <ele>1461.5</ele>
        <time>2023-05-18T16:30:14+0200</time>
      </trkpt>
      <trkpt lat="44.96755" lon="6.51992">
        <ele>1461.5</ele>
        <time>2023-05-18T16:30:15+0200</time>
      </trkpt>
      <trkpt lat="44.96755" lon="6.52001">
        <ele>1461.5</ele>
        <time>2023-05-18T16:30:16+0200</time>
      </trkpt>
      <trkpt lat="44.96755" lon="6.5201">
        <ele>1461.4</ele>
        <time>2023-05-18T16:30:17+0200</time>
      </trkpt>
      <trkpt lat="44.96755" lon="6.52019">
        <ele>1461.4</ele>
        <time>2023-05-18T16:30:18+0200</time>
      </trkpt>
      <trkpt lat="44.96755" lon="6.52029">
        <ele>1461.4</ele>
        <time>2023-05-18T16:30:19+0200</time>
      </trkpt>
      <trkpt lat="44.96755" lon="6.52037">
        <ele>1461.2</ele>
        <time>2023-05-18T16:30:20+0200</time>
      </trkpt>
      <trkpt lat="44.96754" lon="6.52047">
        <ele>1460.9</ele>
        <time>2023-05-18T16:30:21+0200</time>
      </trkpt>
      <trkpt lat="44.96753" lon="6.52056">
        <ele>1460.8</ele>
        <time>2023-05-18T16:30:22+0200</time>
      </trkpt>
      <trkpt lat="44.96752" lon="6.52064">
        <ele>1460.9</ele>
        <time>2023-05-18T16:30:23+0200</time>
      </trkpt>
      <trkpt lat="44.96749" lon="6.52073">
        <ele>1461.1</ele>
        <time>2023-05-18T16:30:24+0200</time>
      </trkpt>
      <trkpt lat="44.96748" lon="6.52082">
        <ele>1461.2</ele>
        <time>2023-05-18T16:30:25+0200</time>
      </trkpt>
      <trkpt lat="44.96746" lon="6.52091">
        <ele>1461</ele>
        <time>2023-05-18T16:30:26+0200</time>
      </trkpt>
      <trkpt lat="44.96744" lon="6.521">
        <ele>1461</ele>
        <time>2023-05-18T16:30:27+0200</time>
      </trkpt>
      <trkpt lat="44.96742" lon="6.52109">
        <ele>1460.9</ele>
        <time>2023-05-18T16:30:28+0200</time>
      </trkpt>
      <trkpt lat="44.96741" lon="6.52118">
        <ele>1460.8</ele>
        <time>2023-05-18T16:30:29+0200</time>
      </trkpt>
      <trkpt lat="44.96739" lon="6.52127">
        <ele>1460.6</ele>
        <time>2023-05-18T16:30:30+0200</time>
      </trkpt>
      <trkpt lat="44.96737" lon="6.52135">
        <ele>1460.5</ele>
        <time>2023-05-18T16:30:30+0200</time>
      </trkpt>
      <trkpt lat="44.96736" lon="6.52143">
        <ele>1460.6</ele>
        <time>2023-05-18T16:30:31+0200</time>
      </trkpt>
      <trkpt lat="44.96734" lon="6.52152">
        <ele>1460.7</ele>
        <time>2023-05-18T16:30:32+0200</time>
      </trkpt>
      <trkpt lat="44.96732" lon="6.52161">
        <ele>1460.9</ele>
        <time>2023-05-18T16:30:33+0200</time>
      </trkpt>
      <trkpt lat="44.9673" lon="6.52171">
        <ele>1461.1</ele>
        <time>2023-05-18T16:30:35+0200</time>
      </trkpt>
      <trkpt lat="44.9673" lon="6.5218">
        <ele>1461.2</ele>
        <time>2023-05-18T16:30:36+0200</time>
      </trkpt>
      <trkpt lat="44.96727" lon="6.52189">
        <ele>1461.5</ele>
        <time>2023-05-18T16:30:37+0200</time>
      </trkpt>
      <trkpt lat="44.96726" lon="6.52198">
        <ele>1461.6</ele>
        <time>2023-05-18T16:30:38+0200</time>
      </trkpt>
      <trkpt lat="44.96726" lon="6.52207">
        <ele>1461.6</ele>
        <time>2023-05-18T16:30:39+0200</time>
      </trkpt>
      <trkpt lat="44.96725" lon="6.52216">
        <ele>1461.7</ele>
        <time>2023-05-18T16:30:40+0200</time>
      </trkpt>
      <trkpt lat="44.96724" lon="6.52225">
        <ele>1461.7</ele>
        <time>2023-05-18T16:30:41+0200</time>
      </trkpt>
      <trkpt lat="44.96724" lon="6.52235">
        <ele>1461.3</ele>
        <time>2023-05-18T16:30:42+0200</time>
      </trkpt>
      <trkpt lat="44.96724" lon="6.52245">
        <ele>1461</ele>
        <time>2023-05-18T16:30:43+0200</time>
      </trkpt>
      <trkpt lat="44.96723" lon="6.52254">
        <ele>1460.9</ele>
        <time>2023-05-18T16:30:44+0200</time>
      </trkpt>
      <trkpt lat="44.96721" lon="6.52264">
        <ele>1461.1</ele>
        <time>2023-05-18T16:30:45+0200</time>
      </trkpt>
      <trkpt lat="44.96719" lon="6.52272">
        <ele>1461.2</ele>
        <time>2023-05-18T16:30:46+0200</time>
      </trkpt>
      <trkpt lat="44.96717" lon="6.52282">
        <ele>1461.1</ele>
        <time>2023-05-18T16:30:47+0200</time>
      </trkpt>
      <trkpt lat="44.96715" lon="6.52292">
        <ele>1460.7</ele>
        <time>2023-05-18T16:30:48+0200</time>
      </trkpt>
      <trkpt lat="44.96713" lon="6.52301">
        <ele>1460.3</ele>
        <time>2023-05-18T16:30:49+0200</time>
      </trkpt>
      <trkpt lat="44.96711" lon="6.52311">
        <ele>1460.2</ele>
        <time>2023-05-18T16:30:50+0200</time>
      </trkpt>
      <trkpt lat="44.9671" lon="6.52322">
        <ele>1460.1</ele>
        <time>2023-05-18T16:30:51+0200</time>
      </trkpt>
      <trkpt lat="44.96709" lon="6.52332">
        <ele>1459.9</ele>
        <time>2023-05-18T16:30:52+0200</time>
      </trkpt>
      <trkpt lat="44.9671" lon="6.52343">
        <ele>1459.9</ele>
        <time>2023-05-18T16:30:53+0200</time>
      </trkpt>
      <trkpt lat="44.96711" lon="6.52354">
        <ele>1459.7</ele>
        <time>2023-05-18T16:30:54+0200</time>
      </trkpt>
      <trkpt lat="44.96713" lon="6.52365">
        <ele>1459.2</ele>
        <time>2023-05-18T16:30:55+0200</time>
      </trkpt>
      <trkpt lat="44.96714" lon="6.52375">
        <ele>1458.6</ele>
        <time>2023-05-18T16:30:56+0200</time>
      </trkpt>
      <trkpt lat="44.96714" lon="6.52386">
        <ele>1458.1</ele>
        <time>2023-05-18T16:30:57+0200</time>
      </trkpt>
      <trkpt lat="44.96713" lon="6.52397">
        <ele>1457.9</ele>
        <time>2023-05-18T16:30:58+0200</time>
      </trkpt>
      <trkpt lat="44.96712" lon="6.52408">
        <ele>1457.9</ele>
        <time>2023-05-18T16:30:59+0200</time>
      </trkpt>
      <trkpt lat="44.96708" lon="6.52419">
        <ele>1457.9</ele>
        <time>2023-05-18T16:31:00+0200</time>
      </trkpt>
      <trkpt lat="44.96705" lon="6.52429">
        <ele>1457.3</ele>
        <time>2023-05-18T16:31:01+0200</time>
      </trkpt>
      <trkpt lat="44.96702" lon="6.5244">
        <ele>1456.8</ele>
        <time>2023-05-18T16:31:02+0200</time>
      </trkpt>
      <trkpt lat="44.96698" lon="6.52449">
        <ele>1456.4</ele>
        <time>2023-05-18T16:31:03+0200</time>
      </trkpt>
      <trkpt lat="44.96695" lon="6.5246">
        <ele>1455.9</ele>
        <time>2023-05-18T16:31:04+0200</time>
      </trkpt>
      <trkpt lat="44.96691" lon="6.52471">
        <ele>1455.2</ele>
        <time>2023-05-18T16:31:05+0200</time>
      </trkpt>
      <trkpt lat="44.96689" lon="6.52481">
        <ele>1454.7</ele>
        <time>2023-05-18T16:31:06+0200</time>
      </trkpt>
      <trkpt lat="44.96685" lon="6.52491">
        <ele>1454.2</ele>
        <time>2023-05-18T16:31:07+0200</time>
      </trkpt>
      <trkpt lat="44.96682" lon="6.52501">
        <ele>1453.8</ele>
        <time>2023-05-18T16:31:08+0200</time>
      </trkpt>
      <trkpt lat="44.96679" lon="6.52511">
        <ele>1453.5</ele>
        <time>2023-05-18T16:31:09+0200</time>
      </trkpt>
      <trkpt lat="44.96676" lon="6.5252">
        <ele>1453.4</ele>
        <time>2023-05-18T16:31:10+0200</time>
      </trkpt>
      <trkpt lat="44.96672" lon="6.52531">
        <ele>1453.4</ele>
        <time>2023-05-18T16:31:11+0200</time>
      </trkpt>
      <trkpt lat="44.9667" lon="6.52542">
        <ele>1453.7</ele>
        <time>2023-05-18T16:31:12+0200</time>
      </trkpt>
      <trkpt lat="44.96666" lon="6.52553">
        <ele>1454</ele>
        <time>2023-05-18T16:31:13+0200</time>
      </trkpt>
      <trkpt lat="44.96663" lon="6.52563">
        <ele>1453.9</ele>
        <time>2023-05-18T16:31:14+0200</time>
      </trkpt>
      <trkpt lat="44.9666" lon="6.52574">
        <ele>1453.4</ele>
        <time>2023-05-18T16:31:15+0200</time>
      </trkpt>
      <trkpt lat="44.96656" lon="6.52585">
        <ele>1453</ele>
        <time>2023-05-18T16:31:16+0200</time>
      </trkpt>
      <trkpt lat="44.96653" lon="6.52596">
        <ele>1452.8</ele>
        <time>2023-05-18T16:31:17+0200</time>
      </trkpt>
      <trkpt lat="44.9665" lon="6.52607">
        <ele>1452.5</ele>
        <time>2023-05-18T16:31:18+0200</time>
      </trkpt>
      <trkpt lat="44.96647" lon="6.52617">
        <ele>1452</ele>
        <time>2023-05-18T16:31:19+0200</time>
      </trkpt>
      <trkpt lat="44.96643" lon="6.52628">
        <ele>1451.5</ele>
        <time>2023-05-18T16:31:20+0200</time>
      </trkpt>
      <trkpt lat="44.9664" lon="6.52637">
        <ele>1451.1</ele>
        <time>2023-05-18T16:31:21+0200</time>
      </trkpt>
      <trkpt lat="44.96636" lon="6.52648">
        <ele>1450.6</ele>
        <time>2023-05-18T16:31:22+0200</time>
      </trkpt>
      <trkpt lat="44.96633" lon="6.52658">
        <ele>1450.3</ele>
        <time>2023-05-18T16:31:23+0200</time>
      </trkpt>
      <trkpt lat="44.96629" lon="6.52669">
        <ele>1449.9</ele>
        <time>2023-05-18T16:31:24+0200</time>
      </trkpt>
      <trkpt lat="44.96626" lon="6.52682">
        <ele>1449.6</ele>
        <time>2023-05-18T16:31:25+0200</time>
      </trkpt>
      <trkpt lat="44.96623" lon="6.52694">
        <ele>1449.2</ele>
        <time>2023-05-18T16:31:26+0200</time>
      </trkpt>
      <trkpt lat="44.9662" lon="6.52707">
        <ele>1448.4</ele>
        <time>2023-05-18T16:31:27+0200</time>
      </trkpt>
      <trkpt lat="44.96618" lon="6.5272">
        <ele>1447.7</ele>
        <time>2023-05-18T16:31:28+0200</time>
      </trkpt>
      <trkpt lat="44.96615" lon="6.52733">
        <ele>1447</ele>
        <time>2023-05-18T16:31:29+0200</time>
      </trkpt>
      <trkpt lat="44.96612" lon="6.52746">
        <ele>1446.3</ele>
        <time>2023-05-18T16:31:30+0200</time>
      </trkpt>
      <trkpt lat="44.96609" lon="6.52759">
        <ele>1445.8</ele>
        <time>2023-05-18T16:31:31+0200</time>
      </trkpt>
      <trkpt lat="44.96606" lon="6.52772">
        <ele>1445.6</ele>
        <time>2023-05-18T16:31:32+0200</time>
      </trkpt>
      <trkpt lat="44.96603" lon="6.52784">
        <ele>1445.1</ele>
        <time>2023-05-18T16:31:33+0200</time>
      </trkpt>
      <trkpt lat="44.966" lon="6.52796">
        <ele>1444.5</ele>
        <time>2023-05-18T16:31:34+0200</time>
      </trkpt>
      <trkpt lat="44.96595" lon="6.52808">
        <ele>1444.1</ele>
        <time>2023-05-18T16:31:35+0200</time>
      </trkpt>
      <trkpt lat="44.96591" lon="6.5282">
        <ele>1444</ele>
        <time>2023-05-18T16:31:36+0200</time>
      </trkpt>
      <trkpt lat="44.96586" lon="6.5283">
        <ele>1443.9</ele>
        <time>2023-05-18T16:31:37+0200</time>
      </trkpt>
      <trkpt lat="44.96581" lon="6.5284">
        <ele>1443.9</ele>
        <time>2023-05-18T16:31:38+0200</time>
      </trkpt>
      <trkpt lat="44.96576" lon="6.5285">
        <ele>1443.8</ele>
        <time>2023-05-18T16:31:39+0200</time>
      </trkpt>
      <trkpt lat="44.96572" lon="6.5286">
        <ele>1443.5</ele>
        <time>2023-05-18T16:31:40+0200</time>
      </trkpt>
      <trkpt lat="44.96567" lon="6.5287">
        <ele>1443.1</ele>
        <time>2023-05-18T16:31:41+0200</time>
      </trkpt>
      <trkpt lat="44.96563" lon="6.52881">
        <ele>1442.8</ele>
        <time>2023-05-18T16:31:42+0200</time>
      </trkpt>
      <trkpt lat="44.96558" lon="6.5289">
        <ele>1442.8</ele>
        <time>2023-05-18T16:31:43+0200</time>
      </trkpt>
      <trkpt lat="44.9655" lon="6.52893">
        <ele>1442.9</ele>
        <time>2023-05-18T16:31:44+0200</time>
      </trkpt>
      <trkpt lat="44.96545" lon="6.52899">
        <ele>1442.6</ele>
        <time>2023-05-18T16:31:45+0200</time>
      </trkpt>
      <trkpt lat="44.96537" lon="6.52904">
        <ele>1442.6</ele>
        <time>2023-05-18T16:31:46+0200</time>
      </trkpt>
      <trkpt lat="44.96532" lon="6.52911">
        <ele>1442.2</ele>
        <time>2023-05-18T16:31:47+0200</time>
      </trkpt>
      <trkpt lat="44.96525" lon="6.52915">
        <ele>1442.3</ele>
        <time>2023-05-18T16:31:48+0200</time>
      </trkpt>
      <trkpt lat="44.96519" lon="6.52921">
        <ele>1442</ele>
        <time>2023-05-18T16:31:49+0200</time>
      </trkpt>
      <trkpt lat="44.96516" lon="6.52932">
        <ele>1441.3</ele>
        <time>2023-05-18T16:31:50+0200</time>
      </trkpt>
      <trkpt lat="44.9651" lon="6.52938">
        <ele>1441.1</ele>
        <time>2023-05-18T16:31:51+0200</time>
      </trkpt>
      <trkpt lat="44.96504" lon="6.52944">
        <ele>1440.9</ele>
        <time>2023-05-18T16:31:52+0200</time>
      </trkpt>
      <trkpt lat="44.96497" lon="6.52948">
        <ele>1440.8</ele>
        <time>2023-05-18T16:31:53+0200</time>
      </trkpt>
      <trkpt lat="44.96492" lon="6.52956">
        <ele>1440.4</ele>
        <time>2023-05-18T16:31:54+0200</time>
      </trkpt>
      <trkpt lat="44.96485" lon="6.52963">
        <ele>1440.2</ele>
        <time>2023-05-18T16:31:55+0200</time>
      </trkpt>
      <trkpt lat="44.96478" lon="6.52967">
        <ele>1440.2</ele>
        <time>2023-05-18T16:31:56+0200</time>
      </trkpt>
      <trkpt lat="44.9647" lon="6.5297">
        <ele>1440.2</ele>
        <time>2023-05-18T16:31:57+0200</time>
      </trkpt>
      <trkpt lat="44.96464" lon="6.52974">
        <ele>1440.2</ele>
        <time>2023-05-18T16:31:58+0200</time>
      </trkpt>
      <trkpt lat="44.96457" lon="6.52978">
        <ele>1440.1</ele>
        <time>2023-05-18T16:31:59+0200</time>
      </trkpt>
      <trkpt lat="44.96449" lon="6.52982">
        <ele>1440.2</ele>
        <time>2023-05-18T16:32:00+0200</time>
      </trkpt>
      <trkpt lat="44.96443" lon="6.52986">
        <ele>1440.1</ele>
        <time>2023-05-18T16:32:01+0200</time>
      </trkpt>
      <trkpt lat="44.96436" lon="6.52992">
        <ele>1439.9</ele>
        <time>2023-05-18T16:32:02+0200</time>
      </trkpt>
      <trkpt lat="44.96429" lon="6.52997">
        <ele>1439.8</ele>
        <time>2023-05-18T16:32:03+0200</time>
      </trkpt>
      <trkpt lat="44.96423" lon="6.53001">
        <ele>1439.7</ele>
        <time>2023-05-18T16:32:04+0200</time>
      </trkpt>
      <trkpt lat="44.96417" lon="6.53007">
        <ele>1439.3</ele>
        <time>2023-05-18T16:32:05+0200</time>
      </trkpt>
      <trkpt lat="44.96411" lon="6.53012">
        <ele>1438.9</ele>
        <time>2023-05-18T16:32:06+0200</time>
      </trkpt>
      <trkpt lat="44.96405" lon="6.53019">
        <ele>1438.4</ele>
        <time>2023-05-18T16:32:07+0200</time>
      </trkpt>
      <trkpt lat="44.96399" lon="6.53025">
        <ele>1438</ele>
        <time>2023-05-18T16:32:08+0200</time>
      </trkpt>
      <trkpt lat="44.96392" lon="6.53031">
        <ele>1437.8</ele>
        <time>2023-05-18T16:32:09+0200</time>
      </trkpt>
      <trkpt lat="44.96387" lon="6.53039">
        <ele>1437.7</ele>
        <time>2023-05-18T16:32:10+0200</time>
      </trkpt>
      <trkpt lat="44.96382" lon="6.53046">
        <ele>1437.6</ele>
        <time>2023-05-18T16:32:11+0200</time>
      </trkpt>
      <trkpt lat="44.96376" lon="6.53055">
        <ele>1437.5</ele>
        <time>2023-05-18T16:32:12+0200</time>
      </trkpt>
      <trkpt lat="44.9637" lon="6.53064">
        <ele>1437.1</ele>
        <time>2023-05-18T16:32:13+0200</time>
      </trkpt>
      <trkpt lat="44.96364" lon="6.53072">
        <ele>1436.7</ele>
        <time>2023-05-18T16:32:14+0200</time>
      </trkpt>
      <trkpt lat="44.96358" lon="6.53078">
        <ele>1436.5</ele>
        <time>2023-05-18T16:32:15+0200</time>
      </trkpt>
      <trkpt lat="44.96351" lon="6.53085">
        <ele>1436.3</ele>
        <time>2023-05-18T16:32:16+0200</time>
      </trkpt>
      <trkpt lat="44.96344" lon="6.53092">
        <ele>1436.1</ele>
        <time>2023-05-18T16:32:17+0200</time>
      </trkpt>
      <trkpt lat="44.96337" lon="6.53098">
        <ele>1435.9</ele>
        <time>2023-05-18T16:32:18+0200</time>
      </trkpt>
      <trkpt lat="44.9633" lon="6.53104">
        <ele>1435.6</ele>
        <time>2023-05-18T16:32:19+0200</time>
      </trkpt>
      <trkpt lat="44.96324" lon="6.5311">
        <ele>1435.4</ele>
        <time>2023-05-18T16:32:20+0200</time>
      </trkpt>
      <trkpt lat="44.96317" lon="6.53116">
        <ele>1435.3</ele>
        <time>2023-05-18T16:32:21+0200</time>
      </trkpt>
      <trkpt lat="44.9631" lon="6.53122">
        <ele>1435.1</ele>
        <time>2023-05-18T16:32:22+0200</time>
      </trkpt>
      <trkpt lat="44.96303" lon="6.53128">
        <ele>1434.8</ele>
        <time>2023-05-18T16:32:23+0200</time>
      </trkpt>
      <trkpt lat="44.96296" lon="6.53133">
        <ele>1434.4</ele>
        <time>2023-05-18T16:32:24+0200</time>
      </trkpt>
      <trkpt lat="44.9629" lon="6.5314">
        <ele>1433.9</ele>
        <time>2023-05-18T16:32:25+0200</time>
      </trkpt>
      <trkpt lat="44.96283" lon="6.53146">
        <ele>1433.5</ele>
        <time>2023-05-18T16:32:26+0200</time>
      </trkpt>
      <trkpt lat="44.96277" lon="6.53153">
        <ele>1433</ele>
        <time>2023-05-18T16:32:27+0200</time>
      </trkpt>
      <trkpt lat="44.96271" lon="6.5316">
        <ele>1432.8</ele>
        <time>2023-05-18T16:32:28+0200</time>
      </trkpt>
      <trkpt lat="44.96264" lon="6.53166">
        <ele>1432.5</ele>
        <time>2023-05-18T16:32:29+0200</time>
      </trkpt>
      <trkpt lat="44.96257" lon="6.53173">
        <ele>1432.2</ele>
        <time>2023-05-18T16:32:30+0200</time>
      </trkpt>
      <trkpt lat="44.96249" lon="6.53178">
        <ele>1431.8</ele>
        <time>2023-05-18T16:32:31+0200</time>
      </trkpt>
      <trkpt lat="44.96241" lon="6.53184">
        <ele>1431.3</ele>
        <time>2023-05-18T16:32:32+0200</time>
      </trkpt>
      <trkpt lat="44.96233" lon="6.53187">
        <ele>1431.3</ele>
        <time>2023-05-18T16:32:33+0200</time>
      </trkpt>
      <trkpt lat="44.96226" lon="6.53194">
        <ele>1430.9</ele>
        <time>2023-05-18T16:32:34+0200</time>
      </trkpt>
      <trkpt lat="44.9622" lon="6.532">
        <ele>1430.5</ele>
        <time>2023-05-18T16:32:35+0200</time>
      </trkpt>
      <trkpt lat="44.96215" lon="6.53206">
        <ele>1430.1</ele>
        <time>2023-05-18T16:32:36+0200</time>
      </trkpt>
      <trkpt lat="44.96206" lon="6.53209">
        <ele>1430.3</ele>
        <time>2023-05-18T16:32:37+0200</time>
      </trkpt>
      <trkpt lat="44.962" lon="6.53216">
        <ele>1430.1</ele>
        <time>2023-05-18T16:32:38+0200</time>
      </trkpt>
      <trkpt lat="44.96194" lon="6.53222">
        <ele>1430.1</ele>
        <time>2023-05-18T16:32:39+0200</time>
      </trkpt>
      <trkpt lat="44.96189" lon="6.5323">
        <ele>1429.4</ele>
        <time>2023-05-18T16:32:40+0200</time>
      </trkpt>
      <trkpt lat="44.96184" lon="6.5324">
        <ele>1428.7</ele>
        <time>2023-05-18T16:32:41+0200</time>
      </trkpt>
      <trkpt lat="44.96181" lon="6.5325">
        <ele>1428</ele>
        <time>2023-05-18T16:32:42+0200</time>
      </trkpt>
      <trkpt lat="44.96176" lon="6.53259">
        <ele>1427.1</ele>
        <time>2023-05-18T16:32:43+0200</time>
      </trkpt>
      <trkpt lat="44.9617" lon="6.53269">
        <ele>1426.5</ele>
        <time>2023-05-18T16:32:44+0200</time>
      </trkpt>
      <trkpt lat="44.96166" lon="6.53278">
        <ele>1426.1</ele>
        <time>2023-05-18T16:32:45+0200</time>
      </trkpt>
      <trkpt lat="44.96161" lon="6.53287">
        <ele>1425.4</ele>
        <time>2023-05-18T16:32:46+0200</time>
      </trkpt>
      <trkpt lat="44.96157" lon="6.53297">
        <ele>1424.9</ele>
        <time>2023-05-18T16:32:47+0200</time>
      </trkpt>
      <trkpt lat="44.96152" lon="6.53306">
        <ele>1424.6</ele>
        <time>2023-05-18T16:32:48+0200</time>
      </trkpt>
      <trkpt lat="44.96147" lon="6.53315">
        <ele>1424.1</ele>
        <time>2023-05-18T16:32:49+0200</time>
      </trkpt>
      <trkpt lat="44.96142" lon="6.53327">
        <ele>1423.4</ele>
        <time>2023-05-18T16:32:50+0200</time>
      </trkpt>
      <trkpt lat="44.96138" lon="6.53337">
        <ele>1422.7</ele>
        <time>2023-05-18T16:32:51+0200</time>
      </trkpt>
      <trkpt lat="44.96133" lon="6.53347">
        <ele>1422.1</ele>
        <time>2023-05-18T16:32:52+0200</time>
      </trkpt>
      <trkpt lat="44.96127" lon="6.53356">
        <ele>1421.8</ele>
        <time>2023-05-18T16:32:53+0200</time>
      </trkpt>
      <trkpt lat="44.96122" lon="6.53366">
        <ele>1421.4</ele>
        <time>2023-05-18T16:32:54+0200</time>
      </trkpt>
      <trkpt lat="44.96119" lon="6.53378">
        <ele>1421</ele>
        <time>2023-05-18T16:32:55+0200</time>
      </trkpt>
      <trkpt lat="44.96116" lon="6.53392">
        <ele>1420.4</ele>
        <time>2023-05-18T16:32:56+0200</time>
      </trkpt>
      <trkpt lat="44.96111" lon="6.53401">
        <ele>1420.6</ele>
        <time>2023-05-18T16:32:57+0200</time>
      </trkpt>
      <trkpt lat="44.96105" lon="6.53409">
        <ele>1420.9</ele>
        <time>2023-05-18T16:32:58+0200</time>
      </trkpt>
      <trkpt lat="44.961" lon="6.53418">
        <ele>1421.1</ele>
        <time>2023-05-18T16:32:59+0200</time>
      </trkpt>
      <trkpt lat="44.96097" lon="6.53428">
        <ele>1421.1</ele>
        <time>2023-05-18T16:33:00+0200</time>
      </trkpt>
      <trkpt lat="44.96092" lon="6.53433">
        <ele>1421.5</ele>
        <time>2023-05-18T16:33:01+0200</time>
      </trkpt>
      <trkpt lat="44.96089" lon="6.53443">
        <ele>1421.5</ele>
        <time>2023-05-18T16:33:02+0200</time>
      </trkpt>
      <trkpt lat="44.96086" lon="6.5345">
        <ele>1421.5</ele>
        <time>2023-05-18T16:33:03+0200</time>
      </trkpt>
      <trkpt lat="44.96085" lon="6.53459">
        <ele>1421.2</ele>
        <time>2023-05-18T16:33:04+0200</time>
      </trkpt>
      <trkpt lat="44.96083" lon="6.53465">
        <ele>1421.3</ele>
        <time>2023-05-18T16:33:05+0200</time>
      </trkpt>
      <trkpt lat="44.96081" lon="6.53472">
        <ele>1421.3</ele>
        <time>2023-05-18T16:33:06+0200</time>
      </trkpt>
      <trkpt lat="44.9608" lon="6.53478">
        <ele>1421.1</ele>
        <time>2023-05-18T16:33:08+0200</time>
      </trkpt>
      <trkpt lat="44.96081" lon="6.53485">
        <ele>1420.5</ele>
        <time>2023-05-18T16:34:00+0200</time>
      </trkpt>
      <trkpt lat="44.96085" lon="6.53481">
        <ele>1420.2</ele>
        <time>2023-05-18T16:34:30+0200</time>
      </trkpt>
      <trkpt lat="44.9608" lon="6.53479">
        <ele>1421.1</ele>
        <time>2023-05-18T16:34:50+0200</time>
      </trkpt>
      <trkpt lat="44.96078" lon="6.53473">
        <ele>1421.7</ele>
        <time>2023-05-18T16:35:54+0200</time>
      </trkpt>
      <trkpt lat="44.96078" lon="6.53479">
        <ele>1421.3</ele>
        <time>2023-05-18T16:36:05+0200</time>
      </trkpt>
      <trkpt lat="44.96075" lon="6.5349">
        <ele>1421.1</ele>
        <time>2023-05-18T16:36:07+0200</time>
      </trkpt>
      <trkpt lat="44.96071" lon="6.53498">
        <ele>1421.4</ele>
        <time>2023-05-18T16:36:09+0200</time>
      </trkpt>
      <trkpt lat="44.96065" lon="6.53507">
        <ele>1421.6</ele>
        <time>2023-05-18T16:36:11+0200</time>
      </trkpt>
      <trkpt lat="44.96063" lon="6.53513">
        <ele>1421.5</ele>
        <time>2023-05-18T16:36:12+0200</time>
      </trkpt>
      <trkpt lat="44.96059" lon="6.53519">
        <ele>1421.4</ele>
        <time>2023-05-18T16:36:13+0200</time>
      </trkpt>
      <trkpt lat="44.96057" lon="6.53528">
        <ele>1420.9</ele>
        <time>2023-05-18T16:36:14+0200</time>
      </trkpt>
      <trkpt lat="44.96054" lon="6.53536">
        <ele>1420.7</ele>
        <time>2023-05-18T16:36:15+0200</time>
      </trkpt>
      <trkpt lat="44.9605" lon="6.53542">
        <ele>1421.1</ele>
        <time>2023-05-18T16:36:16+0200</time>
      </trkpt>
      <trkpt lat="44.96049" lon="6.53549">
        <ele>1420.8</ele>
        <time>2023-05-18T16:36:17+0200</time>
      </trkpt>
      <trkpt lat="44.96046" lon="6.53558">
        <ele>1421.1</ele>
        <time>2023-05-18T16:36:18+0200</time>
      </trkpt>
      <trkpt lat="44.96041" lon="6.53566">
        <ele>1421.5</ele>
        <time>2023-05-18T16:36:19+0200</time>
      </trkpt>
      <trkpt lat="44.96037" lon="6.53573">
        <ele>1421.9</ele>
        <time>2023-05-18T16:36:20+0200</time>
      </trkpt>
      <trkpt lat="44.96034" lon="6.5358">
        <ele>1422.1</ele>
        <time>2023-05-18T16:36:21+0200</time>
      </trkpt>
      <trkpt lat="44.9603" lon="6.53586">
        <ele>1422.3</ele>
        <time>2023-05-18T16:36:22+0200</time>
      </trkpt>
      <trkpt lat="44.96028" lon="6.53592">
        <ele>1422.4</ele>
        <time>2023-05-18T16:36:23+0200</time>
      </trkpt>
      <trkpt lat="44.96028" lon="6.53585">
        <ele>1422.9</ele>
        <time>2023-05-18T16:37:26+0200</time>
      </trkpt>
      <trkpt lat="44.96032" lon="6.53589">
        <ele>1421.9</ele>
        <time>2023-05-18T16:38:08+0200</time>
      </trkpt>
      <trkpt lat="44.96027" lon="6.53588">
        <ele>1422.7</ele>
        <time>2023-05-18T16:38:53+0200</time>
      </trkpt>
      <trkpt lat="44.96027" lon="6.53596">
        <ele>1422.2</ele>
        <time>2023-05-18T16:39:10+0200</time>
      </trkpt>
      <trkpt lat="44.96023" lon="6.53602">
        <ele>1422.3</ele>
        <time>2023-05-18T16:39:12+0200</time>
      </trkpt>
      <trkpt lat="44.96018" lon="6.53612">
        <ele>1422.4</ele>
        <time>2023-05-18T16:39:14+0200</time>
      </trkpt>
      <trkpt lat="44.96015" lon="6.53617">
        <ele>1422.3</ele>
        <time>2023-05-18T16:39:15+0200</time>
      </trkpt>
      <trkpt lat="44.96013" lon="6.53623">
        <ele>1422.1</ele>
        <time>2023-05-18T16:39:16+0200</time>
      </trkpt>
      <trkpt lat="44.9601" lon="6.53629">
        <ele>1421.9</ele>
        <time>2023-05-18T16:39:17+0200</time>
      </trkpt>
      <trkpt lat="44.96007" lon="6.53636">
        <ele>1421.6</ele>
        <time>2023-05-18T16:39:18+0200</time>
      </trkpt>
      <trkpt lat="44.96003" lon="6.53642">
        <ele>1421.6</ele>
        <time>2023-05-18T16:39:19+0200</time>
      </trkpt>
      <trkpt lat="44.95998" lon="6.53647">
        <ele>1422.1</ele>
        <time>2023-05-18T16:39:20+0200</time>
      </trkpt>
      <trkpt lat="44.95994" lon="6.53654">
        <ele>1422.4</ele>
        <time>2023-05-18T16:39:21+0200</time>
      </trkpt>
      <trkpt lat="44.95992" lon="6.53662">
        <ele>1422.4</ele>
        <time>2023-05-18T16:39:22+0200</time>
      </trkpt>
      <trkpt lat="44.95987" lon="6.53667">
        <ele>1422.9</ele>
        <time>2023-05-18T16:39:23+0200</time>
      </trkpt>
      <trkpt lat="44.95983" lon="6.53673">
        <ele>1422.8</ele>
        <time>2023-05-18T16:39:24+0200</time>
      </trkpt>
      <trkpt lat="44.9598" lon="6.53679">
        <ele>1422.6</ele>
        <time>2023-05-18T16:39:25+0200</time>
      </trkpt>
      <trkpt lat="44.95977" lon="6.53686">
        <ele>1422.2</ele>
        <time>2023-05-18T16:39:26+0200</time>
      </trkpt>
      <trkpt lat="44.95974" lon="6.53692">
        <ele>1422</ele>
        <time>2023-05-18T16:39:27+0200</time>
      </trkpt>
      <trkpt lat="44.95971" lon="6.53698">
        <ele>1421.8</ele>
        <time>2023-05-18T16:39:28+0200</time>
      </trkpt>
      <trkpt lat="44.95967" lon="6.53705">
        <ele>1421.9</ele>
        <time>2023-05-18T16:39:29+0200</time>
      </trkpt>
      <trkpt lat="44.95964" lon="6.53712">
        <ele>1421.8</ele>
        <time>2023-05-18T16:39:30+0200</time>
      </trkpt>
      <trkpt lat="44.95959" lon="6.53717">
        <ele>1422.3</ele>
        <time>2023-05-18T16:39:31+0200</time>
      </trkpt>
      <trkpt lat="44.95956" lon="6.53726">
        <ele>1422</ele>
        <time>2023-05-18T16:39:32+0200</time>
      </trkpt>
      <trkpt lat="44.95951" lon="6.5373">
        <ele>1422.5</ele>
        <time>2023-05-18T16:39:33+0200</time>
      </trkpt>
      <trkpt lat="44.95942" lon="6.53741">
        <ele>1422.7</ele>
        <time>2023-05-18T16:39:35+0200</time>
      </trkpt>
      <trkpt lat="44.95938" lon="6.53748">
        <ele>1422.2</ele>
        <time>2023-05-18T16:39:36+0200</time>
      </trkpt>
      <trkpt lat="44.95934" lon="6.53753">
        <ele>1422</ele>
        <time>2023-05-18T16:39:37+0200</time>
      </trkpt>
      <trkpt lat="44.9593" lon="6.5376">
        <ele>1421.4</ele>
        <time>2023-05-18T16:39:38+0200</time>
      </trkpt>
      <trkpt lat="44.95926" lon="6.53769">
        <ele>1420.8</ele>
        <time>2023-05-18T16:39:39+0200</time>
      </trkpt>
      <trkpt lat="44.95923" lon="6.53777">
        <ele>1420.1</ele>
        <time>2023-05-18T16:39:40+0200</time>
      </trkpt>
      <trkpt lat="44.95918" lon="6.53786">
        <ele>1419.4</ele>
        <time>2023-05-18T16:39:41+0200</time>
      </trkpt>
      <trkpt lat="44.95911" lon="6.53792">
        <ele>1419.3</ele>
        <time>2023-05-18T16:39:42+0200</time>
      </trkpt>
      <trkpt lat="44.95907" lon="6.53802">
        <ele>1418.4</ele>
        <time>2023-05-18T16:39:43+0200</time>
      </trkpt>
      <trkpt lat="44.95902" lon="6.5381">
        <ele>1418.1</ele>
        <time>2023-05-18T16:39:44+0200</time>
      </trkpt>
      <trkpt lat="44.95895" lon="6.53817">
        <ele>1418.3</ele>
        <time>2023-05-18T16:39:45+0200</time>
      </trkpt>
      <trkpt lat="44.95889" lon="6.53825">
        <ele>1418.2</ele>
        <time>2023-05-18T16:39:46+0200</time>
      </trkpt>
      <trkpt lat="44.95883" lon="6.53833">
        <ele>1418.1</ele>
        <time>2023-05-18T16:39:47+0200</time>
      </trkpt>
      <trkpt lat="44.95877" lon="6.5384">
        <ele>1418</ele>
        <time>2023-05-18T16:39:48+0200</time>
      </trkpt>
      <trkpt lat="44.95872" lon="6.53847">
        <ele>1418</ele>
        <time>2023-05-18T16:39:49+0200</time>
      </trkpt>
      <trkpt lat="44.95865" lon="6.53854">
        <ele>1418.2</ele>
        <time>2023-05-18T16:39:50+0200</time>
      </trkpt>
      <trkpt lat="44.95859" lon="6.53862">
        <ele>1418.1</ele>
        <time>2023-05-18T16:39:51+0200</time>
      </trkpt>
      <trkpt lat="44.95855" lon="6.53869">
        <ele>1417.5</ele>
        <time>2023-05-18T16:39:52+0200</time>
      </trkpt>
      <trkpt lat="44.95849" lon="6.53876">
        <ele>1417.3</ele>
        <time>2023-05-18T16:39:53+0200</time>
      </trkpt>
      <trkpt lat="44.95844" lon="6.53886">
        <ele>1416.5</ele>
        <time>2023-05-18T16:39:54+0200</time>
      </trkpt>
      <trkpt lat="44.9584" lon="6.53894">
        <ele>1416.1</ele>
        <time>2023-05-18T16:39:55+0200</time>
      </trkpt>
      <trkpt lat="44.95834" lon="6.53903">
        <ele>1415.8</ele>
        <time>2023-05-18T16:39:56+0200</time>
      </trkpt>
      <trkpt lat="44.95828" lon="6.5391">
        <ele>1415.6</ele>
        <time>2023-05-18T16:39:57+0200</time>
      </trkpt>
      <trkpt lat="44.95823" lon="6.53917">
        <ele>1415.1</ele>
        <time>2023-05-18T16:39:58+0200</time>
      </trkpt>
      <trkpt lat="44.95816" lon="6.53925">
        <ele>1414.7</ele>
        <time>2023-05-18T16:39:59+0200</time>
      </trkpt>
      <trkpt lat="44.95809" lon="6.53931">
        <ele>1414.5</ele>
        <time>2023-05-18T16:40:00+0200</time>
      </trkpt>
      <trkpt lat="44.95803" lon="6.5394">
        <ele>1414</ele>
        <time>2023-05-18T16:40:01+0200</time>
      </trkpt>
      <trkpt lat="44.95798" lon="6.5395">
        <ele>1413.7</ele>
        <time>2023-05-18T16:40:02+0200</time>
      </trkpt>
      <trkpt lat="44.95793" lon="6.53959">
        <ele>1413.8</ele>
        <time>2023-05-18T16:40:03+0200</time>
      </trkpt>
      <trkpt lat="44.95788" lon="6.53968">
        <ele>1413.9</ele>
        <time>2023-05-18T16:40:04+0200</time>
      </trkpt>
      <trkpt lat="44.95782" lon="6.53976">
        <ele>1414.1</ele>
        <time>2023-05-18T16:40:05+0200</time>
      </trkpt>
      <trkpt lat="44.95778" lon="6.53987">
        <ele>1413.8</ele>
        <time>2023-05-18T16:40:06+0200</time>
      </trkpt>
      <trkpt lat="44.95772" lon="6.53996">
        <ele>1414.1</ele>
        <time>2023-05-18T16:40:07+0200</time>
      </trkpt>
      <trkpt lat="44.95769" lon="6.54007">
        <ele>1413.8</ele>
        <time>2023-05-18T16:40:08+0200</time>
      </trkpt>
      <trkpt lat="44.95766" lon="6.54019">
        <ele>1413.7</ele>
        <time>2023-05-18T16:40:09+0200</time>
      </trkpt>
      <trkpt lat="44.95762" lon="6.5403">
        <ele>1413.6</ele>
        <time>2023-05-18T16:40:10+0200</time>
      </trkpt>
      <trkpt lat="44.95757" lon="6.54038">
        <ele>1413.9</ele>
        <time>2023-05-18T16:40:11+0200</time>
      </trkpt>
      <trkpt lat="44.95752" lon="6.54045">
        <ele>1414.3</ele>
        <time>2023-05-18T16:40:12+0200</time>
      </trkpt>
      <trkpt lat="44.95749" lon="6.54054">
        <ele>1414.3</ele>
        <time>2023-05-18T16:40:13+0200</time>
      </trkpt>
      <trkpt lat="44.95745" lon="6.54062">
        <ele>1413.9</ele>
        <time>2023-05-18T16:40:14+0200</time>
      </trkpt>
      <trkpt lat="44.95741" lon="6.54069">
        <ele>1413.5</ele>
        <time>2023-05-18T16:40:15+0200</time>
      </trkpt>
      <trkpt lat="44.95738" lon="6.54077">
        <ele>1413</ele>
        <time>2023-05-18T16:40:16+0200</time>
      </trkpt>
      <trkpt lat="44.95734" lon="6.54085">
        <ele>1412.5</ele>
        <time>2023-05-18T16:40:17+0200</time>
      </trkpt>
      <trkpt lat="44.9573" lon="6.54093">
        <ele>1412.1</ele>
        <time>2023-05-18T16:40:18+0200</time>
      </trkpt>
      <trkpt lat="44.95723" lon="6.54098">
        <ele>1412.3</ele>
        <time>2023-05-18T16:40:19+0200</time>
      </trkpt>
      <trkpt lat="44.95718" lon="6.54107">
        <ele>1412</ele>
        <time>2023-05-18T16:40:20+0200</time>
      </trkpt>
      <trkpt lat="44.95713" lon="6.54113">
        <ele>1411.9</ele>
        <time>2023-05-18T16:40:21+0200</time>
      </trkpt>
      <trkpt lat="44.95707" lon="6.54121">
        <ele>1411.9</ele>
        <time>2023-05-18T16:40:22+0200</time>
      </trkpt>
      <trkpt lat="44.95701" lon="6.54127">
        <ele>1412.2</ele>
        <time>2023-05-18T16:40:23+0200</time>
      </trkpt>
      <trkpt lat="44.95696" lon="6.54134">
        <ele>1412.2</ele>
        <time>2023-05-18T16:40:24+0200</time>
      </trkpt>
      <trkpt lat="44.95692" lon="6.54143">
        <ele>1411.9</ele>
        <time>2023-05-18T16:40:25+0200</time>
      </trkpt>
      <trkpt lat="44.95688" lon="6.5415">
        <ele>1411.7</ele>
        <time>2023-05-18T16:40:26+0200</time>
      </trkpt>
      <trkpt lat="44.95683" lon="6.54158">
        <ele>1411.4</ele>
        <time>2023-05-18T16:40:27+0200</time>
      </trkpt>
      <trkpt lat="44.95679" lon="6.54167">
        <ele>1411.1</ele>
        <time>2023-05-18T16:40:28+0200</time>
      </trkpt>
      <trkpt lat="44.95673" lon="6.54175">
        <ele>1410.7</ele>
        <time>2023-05-18T16:40:29+0200</time>
      </trkpt>
      <trkpt lat="44.95666" lon="6.54181">
        <ele>1410.5</ele>
        <time>2023-05-18T16:40:30+0200</time>
      </trkpt>
      <trkpt lat="44.9566" lon="6.54187">
        <ele>1410</ele>
        <time>2023-05-18T16:40:31+0200</time>
      </trkpt>
      <trkpt lat="44.95653" lon="6.54194">
        <ele>1409.6</ele>
        <time>2023-05-18T16:40:32+0200</time>
      </trkpt>
      <trkpt lat="44.95646" lon="6.54199">
        <ele>1409.4</ele>
        <time>2023-05-18T16:40:33+0200</time>
      </trkpt>
      <trkpt lat="44.9564" lon="6.54205">
        <ele>1409.2</ele>
        <time>2023-05-18T16:40:34+0200</time>
      </trkpt>
      <trkpt lat="44.95633" lon="6.54211">
        <ele>1409</ele>
        <time>2023-05-18T16:40:35+0200</time>
      </trkpt>
      <trkpt lat="44.95625" lon="6.54216">
        <ele>1408.9</ele>
        <time>2023-05-18T16:40:36+0200</time>
      </trkpt>
      <trkpt lat="44.95617" lon="6.54222">
        <ele>1408.8</ele>
        <time>2023-05-18T16:40:37+0200</time>
      </trkpt>
      <trkpt lat="44.9561" lon="6.54225">
        <ele>1408.7</ele>
        <time>2023-05-18T16:40:38+0200</time>
      </trkpt>
      <trkpt lat="44.95603" lon="6.5423">
        <ele>1408.2</ele>
        <time>2023-05-18T16:40:39+0200</time>
      </trkpt>
      <trkpt lat="44.95595" lon="6.54237">
        <ele>1407.4</ele>
        <time>2023-05-18T16:40:40+0200</time>
      </trkpt>
      <trkpt lat="44.95589" lon="6.54241">
        <ele>1406.9</ele>
        <time>2023-05-18T16:40:41+0200</time>
      </trkpt>
      <trkpt lat="44.95581" lon="6.54247">
        <ele>1406.3</ele>
        <time>2023-05-18T16:40:42+0200</time>
      </trkpt>
      <trkpt lat="44.95573" lon="6.54252">
        <ele>1405.8</ele>
        <time>2023-05-18T16:40:43+0200</time>
      </trkpt>
      <trkpt lat="44.95566" lon="6.54258">
        <ele>1405.2</ele>
        <time>2023-05-18T16:40:44+0200</time>
      </trkpt>
      <trkpt lat="44.95558" lon="6.54264">
        <ele>1404.6</ele>
        <time>2023-05-18T16:40:45+0200</time>
      </trkpt>
      <trkpt lat="44.9555" lon="6.54269">
        <ele>1404</ele>
        <time>2023-05-18T16:40:46+0200</time>
      </trkpt>
      <trkpt lat="44.95543" lon="6.54273">
        <ele>1403.5</ele>
        <time>2023-05-18T16:40:47+0200</time>
      </trkpt>
      <trkpt lat="44.95538" lon="6.54279">
        <ele>1402.9</ele>
        <time>2023-05-18T16:40:48+0200</time>
      </trkpt>
      <trkpt lat="44.95533" lon="6.54283">
        <ele>1402.8</ele>
        <time>2023-05-18T16:40:49+0200</time>
      </trkpt>
      <trkpt lat="44.9553" lon="6.54287">
        <ele>1402.7</ele>
        <time>2023-05-18T16:40:49+0200</time>
      </trkpt>
      <trkpt lat="44.95524" lon="6.54291">
        <ele>1402.7</ele>
        <time>2023-05-18T16:40:51+0200</time>
      </trkpt>
      <trkpt lat="44.95524" lon="6.54301">
        <ele>1402.3</ele>
        <time>2023-05-18T16:40:52+0200</time>
      </trkpt>
      <trkpt lat="44.95524" lon="6.54312">
        <ele>1401.9</ele>
        <time>2023-05-18T16:40:53+0200</time>
      </trkpt>
      <trkpt lat="44.95521" lon="6.54324">
        <ele>1401.4</ele>
        <time>2023-05-18T16:40:54+0200</time>
      </trkpt>
      <trkpt lat="44.95515" lon="6.54332">
        <ele>1401.1</ele>
        <time>2023-05-18T16:40:55+0200</time>
      </trkpt>
      <trkpt lat="44.95511" lon="6.54339">
        <ele>1400.8</ele>
        <time>2023-05-18T16:40:56+0200</time>
      </trkpt>
      <trkpt lat="44.95506" lon="6.54348">
        <ele>1400.5</ele>
        <time>2023-05-18T16:40:57+0200</time>
      </trkpt>
      <trkpt lat="44.95502" lon="6.54357">
        <ele>1400.2</ele>
        <time>2023-05-18T16:40:58+0200</time>
      </trkpt>
      <trkpt lat="44.95497" lon="6.54365">
        <ele>1400</ele>
        <time>2023-05-18T16:40:59+0200</time>
      </trkpt>
      <trkpt lat="44.95491" lon="6.5437">
        <ele>1400</ele>
        <time>2023-05-18T16:41:00+0200</time>
      </trkpt>
      <trkpt lat="44.95487" lon="6.54378">
        <ele>1400</ele>
        <time>2023-05-18T16:41:01+0200</time>
      </trkpt>
      <trkpt lat="44.95484" lon="6.54387">
        <ele>1400</ele>
        <time>2023-05-18T16:41:02+0200</time>
      </trkpt>
      <trkpt lat="44.95481" lon="6.54397">
        <ele>1399.9</ele>
        <time>2023-05-18T16:41:03+0200</time>
      </trkpt>
      <trkpt lat="44.95476" lon="6.54405">
        <ele>1399.9</ele>
        <time>2023-05-18T16:41:05+0200</time>
      </trkpt>
      <trkpt lat="44.95471" lon="6.54413">
        <ele>1400</ele>
        <time>2023-05-18T16:41:06+0200</time>
      </trkpt>
      <trkpt lat="44.95467" lon="6.54422">
        <ele>1400</ele>
        <time>2023-05-18T16:41:07+0200</time>
      </trkpt>
      <trkpt lat="44.95464" lon="6.54433">
        <ele>1399.7</ele>
        <time>2023-05-18T16:41:08+0200</time>
      </trkpt>
      <trkpt lat="44.9546" lon="6.54442">
        <ele>1399.6</ele>
        <time>2023-05-18T16:41:09+0200</time>
      </trkpt>
      <trkpt lat="44.95454" lon="6.54449">
        <ele>1399.6</ele>
        <time>2023-05-18T16:41:10+0200</time>
      </trkpt>
      <trkpt lat="44.95451" lon="6.54459">
        <ele>1399.8</ele>
        <time>2023-05-18T16:41:11+0200</time>
      </trkpt>
      <trkpt lat="44.95447" lon="6.54465">
        <ele>1399.9</ele>
        <time>2023-05-18T16:41:12+0200</time>
      </trkpt>
      <trkpt lat="44.95441" lon="6.54469">
        <ele>1400</ele>
        <time>2023-05-18T16:41:13+0200</time>
      </trkpt>
      <trkpt lat="44.95431" lon="6.54477">
        <ele>1399.8</ele>
        <time>2023-05-18T16:41:15+0200</time>
      </trkpt>
      <trkpt lat="44.95427" lon="6.54484">
        <ele>1399.6</ele>
        <time>2023-05-18T16:41:16+0200</time>
      </trkpt>
      <trkpt lat="44.95425" lon="6.54495">
        <ele>1399.2</ele>
        <time>2023-05-18T16:41:17+0200</time>
      </trkpt>
      <trkpt lat="44.95422" lon="6.54504">
        <ele>1399</ele>
        <time>2023-05-18T16:41:18+0200</time>
      </trkpt>
      <trkpt lat="44.95418" lon="6.54511">
        <ele>1399</ele>
        <time>2023-05-18T16:41:19+0200</time>
      </trkpt>
      <trkpt lat="44.95415" lon="6.54521">
        <ele>1399</ele>
        <time>2023-05-18T16:41:20+0200</time>
      </trkpt>
      <trkpt lat="44.95412" lon="6.54529">
        <ele>1398.8</ele>
        <time>2023-05-18T16:41:21+0200</time>
      </trkpt>
      <trkpt lat="44.95408" lon="6.54538">
        <ele>1398.4</ele>
        <time>2023-05-18T16:41:22+0200</time>
      </trkpt>
      <trkpt lat="44.95403" lon="6.54545">
        <ele>1398.2</ele>
        <time>2023-05-18T16:41:23+0200</time>
      </trkpt>
      <trkpt lat="44.95397" lon="6.54551">
        <ele>1398</ele>
        <time>2023-05-18T16:41:24+0200</time>
      </trkpt>
      <trkpt lat="44.95391" lon="6.54554">
        <ele>1398</ele>
        <time>2023-05-18T16:41:25+0200</time>
      </trkpt>
      <trkpt lat="44.95386" lon="6.54561">
        <ele>1397.9</ele>
        <time>2023-05-18T16:41:26+0200</time>
      </trkpt>
      <trkpt lat="44.9538" lon="6.54566">
        <ele>1397.7</ele>
        <time>2023-05-18T16:41:27+0200</time>
      </trkpt>
      <trkpt lat="44.95374" lon="6.54571">
        <ele>1397.4</ele>
        <time>2023-05-18T16:41:28+0200</time>
      </trkpt>
      <trkpt lat="44.95367" lon="6.54577">
        <ele>1397.2</ele>
        <time>2023-05-18T16:41:29+0200</time>
      </trkpt>
      <trkpt lat="44.95362" lon="6.54584">
        <ele>1397</ele>
        <time>2023-05-18T16:41:30+0200</time>
      </trkpt>
      <trkpt lat="44.95356" lon="6.54592">
        <ele>1396.9</ele>
        <time>2023-05-18T16:41:31+0200</time>
      </trkpt>
      <trkpt lat="44.95351" lon="6.54599">
        <ele>1396.8</ele>
        <time>2023-05-18T16:41:32+0200</time>
      </trkpt>
      <trkpt lat="44.95346" lon="6.54607">
        <ele>1396.9</ele>
        <time>2023-05-18T16:41:33+0200</time>
      </trkpt>
      <trkpt lat="44.95342" lon="6.54614">
        <ele>1397</ele>
        <time>2023-05-18T16:41:34+0200</time>
      </trkpt>
      <trkpt lat="44.95337" lon="6.54621">
        <ele>1397</ele>
        <time>2023-05-18T16:41:35+0200</time>
      </trkpt>
      <trkpt lat="44.95331" lon="6.54627">
        <ele>1396.9</ele>
        <time>2023-05-18T16:41:36+0200</time>
      </trkpt>
      <trkpt lat="44.95326" lon="6.54633">
        <ele>1396.7</ele>
        <time>2023-05-18T16:41:37+0200</time>
      </trkpt>
      <trkpt lat="44.9532" lon="6.54639">
        <ele>1396.5</ele>
        <time>2023-05-18T16:41:38+0200</time>
      </trkpt>
      <trkpt lat="44.95315" lon="6.54645">
        <ele>1396.3</ele>
        <time>2023-05-18T16:41:39+0200</time>
      </trkpt>
      <trkpt lat="44.95309" lon="6.54649">
        <ele>1396.1</ele>
        <time>2023-05-18T16:41:40+0200</time>
      </trkpt>
      <trkpt lat="44.95304" lon="6.54656">
        <ele>1396</ele>
        <time>2023-05-18T16:41:41+0200</time>
      </trkpt>
      <trkpt lat="44.95297" lon="6.54663">
        <ele>1396</ele>
        <time>2023-05-18T16:41:42+0200</time>
      </trkpt>
      <trkpt lat="44.95292" lon="6.54669">
        <ele>1396</ele>
        <time>2023-05-18T16:41:43+0200</time>
      </trkpt>
      <trkpt lat="44.95286" lon="6.54674">
        <ele>1395.8</ele>
        <time>2023-05-18T16:41:44+0200</time>
      </trkpt>
      <trkpt lat="44.95281" lon="6.54682">
        <ele>1395.5</ele>
        <time>2023-05-18T16:41:45+0200</time>
      </trkpt>
      <trkpt lat="44.95276" lon="6.5469">
        <ele>1395.2</ele>
        <time>2023-05-18T16:41:46+0200</time>
      </trkpt>
      <trkpt lat="44.95272" lon="6.54698">
        <ele>1395</ele>
        <time>2023-05-18T16:41:47+0200</time>
      </trkpt>
      <trkpt lat="44.95268" lon="6.54707">
        <ele>1395</ele>
        <time>2023-05-18T16:41:48+0200</time>
      </trkpt>
      <trkpt lat="44.95265" lon="6.54716">
        <ele>1395</ele>
        <time>2023-05-18T16:41:49+0200</time>
      </trkpt>
      <trkpt lat="44.95261" lon="6.54725">
        <ele>1395</ele>
        <time>2023-05-18T16:41:50+0200</time>
      </trkpt>
      <trkpt lat="44.95257" lon="6.54733">
        <ele>1395</ele>
        <time>2023-05-18T16:41:51+0200</time>
      </trkpt>
      <trkpt lat="44.95252" lon="6.54741">
        <ele>1395</ele>
        <time>2023-05-18T16:41:52+0200</time>
      </trkpt>
      <trkpt lat="44.95248" lon="6.5475">
        <ele>1395</ele>
        <time>2023-05-18T16:41:53+0200</time>
      </trkpt>
      <trkpt lat="44.95244" lon="6.54758">
        <ele>1394.9</ele>
        <time>2023-05-18T16:41:54+0200</time>
      </trkpt>
      <trkpt lat="44.9524" lon="6.54767">
        <ele>1394.8</ele>
        <time>2023-05-18T16:41:55+0200</time>
      </trkpt>
      <trkpt lat="44.95235" lon="6.54773">
        <ele>1394.6</ele>
        <time>2023-05-18T16:41:56+0200</time>
      </trkpt>
      <trkpt lat="44.95229" lon="6.54778">
        <ele>1394.2</ele>
        <time>2023-05-18T16:41:57+0200</time>
      </trkpt>
      <trkpt lat="44.95224" lon="6.54784">
        <ele>1394</ele>
        <time>2023-05-18T16:41:58+0200</time>
      </trkpt>
      <trkpt lat="44.95218" lon="6.54791">
        <ele>1393.9</ele>
        <time>2023-05-18T16:41:59+0200</time>
      </trkpt>
      <trkpt lat="44.95212" lon="6.548">
        <ele>1393.7</ele>
        <time>2023-05-18T16:42:00+0200</time>
      </trkpt>
      <trkpt lat="44.9521" lon="6.54809">
        <ele>1393.5</ele>
        <time>2023-05-18T16:42:01+0200</time>
      </trkpt>
      <trkpt lat="44.95204" lon="6.54817">
        <ele>1393.3</ele>
        <time>2023-05-18T16:42:02+0200</time>
      </trkpt>
      <trkpt lat="44.952" lon="6.54825">
        <ele>1393.2</ele>
        <time>2023-05-18T16:42:03+0200</time>
      </trkpt>
      <trkpt lat="44.95196" lon="6.54833">
        <ele>1393</ele>
        <time>2023-05-18T16:42:04+0200</time>
      </trkpt>
      <trkpt lat="44.95191" lon="6.54842">
        <ele>1393</ele>
        <time>2023-05-18T16:42:05+0200</time>
      </trkpt>
      <trkpt lat="44.95186" lon="6.5485">
        <ele>1393</ele>
        <time>2023-05-18T16:42:06+0200</time>
      </trkpt>
      <trkpt lat="44.95181" lon="6.54857">
        <ele>1393</ele>
        <time>2023-05-18T16:42:07+0200</time>
      </trkpt>
      <trkpt lat="44.95177" lon="6.54865">
        <ele>1392.9</ele>
        <time>2023-05-18T16:42:08+0200</time>
      </trkpt>
      <trkpt lat="44.95172" lon="6.54872">
        <ele>1392.6</ele>
        <time>2023-05-18T16:42:09+0200</time>
      </trkpt>
      <trkpt lat="44.95166" lon="6.54879">
        <ele>1392.4</ele>
        <time>2023-05-18T16:42:10+0200</time>
      </trkpt>
      <trkpt lat="44.95162" lon="6.54887">
        <ele>1392.1</ele>
        <time>2023-05-18T16:42:11+0200</time>
      </trkpt>
      <trkpt lat="44.95157" lon="6.54894">
        <ele>1392</ele>
        <time>2023-05-18T16:42:12+0200</time>
      </trkpt>
      <trkpt lat="44.9515" lon="6.54901">
        <ele>1392</ele>
        <time>2023-05-18T16:42:13+0200</time>
      </trkpt>
      <trkpt lat="44.95146" lon="6.54907">
        <ele>1392</ele>
        <time>2023-05-18T16:42:14+0200</time>
      </trkpt>
      <trkpt lat="44.95142" lon="6.54916">
        <ele>1392</ele>
        <time>2023-05-18T16:42:15+0200</time>
      </trkpt>
      <trkpt lat="44.95136" lon="6.54923">
        <ele>1392</ele>
        <time>2023-05-18T16:42:16+0200</time>
      </trkpt>
      <trkpt lat="44.95131" lon="6.5493">
        <ele>1391.9</ele>
        <time>2023-05-18T16:42:17+0200</time>
      </trkpt>
      <trkpt lat="44.95126" lon="6.54935">
        <ele>1391.7</ele>
        <time>2023-05-18T16:42:18+0200</time>
      </trkpt>
      <trkpt lat="44.95121" lon="6.54942">
        <ele>1391.4</ele>
        <time>2023-05-18T16:42:19+0200</time>
      </trkpt>
      <trkpt lat="44.95117" lon="6.5495">
        <ele>1391.4</ele>
        <time>2023-05-18T16:42:20+0200</time>
      </trkpt>
      <trkpt lat="44.95113" lon="6.54958">
        <ele>1391.5</ele>
        <time>2023-05-18T16:42:21+0200</time>
      </trkpt>
      <trkpt lat="44.95111" lon="6.54968">
        <ele>1391.8</ele>
        <time>2023-05-18T16:42:22+0200</time>
      </trkpt>
      <trkpt lat="44.95108" lon="6.54977">
        <ele>1391.7</ele>
        <time>2023-05-18T16:42:23+0200</time>
      </trkpt>
      <trkpt lat="44.95104" lon="6.54984">
        <ele>1391.4</ele>
        <time>2023-05-18T16:42:24+0200</time>
      </trkpt>
      <trkpt lat="44.95102" lon="6.54991">
        <ele>1391.2</ele>
        <time>2023-05-18T16:42:25+0200</time>
      </trkpt>
      <trkpt lat="44.951" lon="6.54996">
        <ele>1391.1</ele>
        <time>2023-05-18T16:42:26+0200</time>
      </trkpt>
      <trkpt lat="44.95095" lon="6.55004">
        <ele>1391</ele>
        <time>2023-05-18T16:42:28+0200</time>
      </trkpt>
      <trkpt lat="44.95092" lon="6.5501">
        <ele>1391</ele>
        <time>2023-05-18T16:42:29+0200</time>
      </trkpt>
      <trkpt lat="44.95089" lon="6.55017">
        <ele>1391</ele>
        <time>2023-05-18T16:42:30+0200</time>
      </trkpt>
      <trkpt lat="44.95086" lon="6.55024">
        <ele>1391</ele>
        <time>2023-05-18T16:42:31+0200</time>
      </trkpt>
      <trkpt lat="44.95083" lon="6.5503">
        <ele>1391</ele>
        <time>2023-05-18T16:42:32+0200</time>
      </trkpt>
      <trkpt lat="44.95078" lon="6.55037">
        <ele>1391</ele>
        <time>2023-05-18T16:42:33+0200</time>
      </trkpt>
      <trkpt lat="44.95075" lon="6.55044">
        <ele>1391</ele>
        <time>2023-05-18T16:42:34+0200</time>
      </trkpt>
      <trkpt lat="44.9507" lon="6.5505">
        <ele>1391</ele>
        <time>2023-05-18T16:42:35+0200</time>
      </trkpt>
      <trkpt lat="44.95067" lon="6.55058">
        <ele>1390.9</ele>
        <time>2023-05-18T16:42:36+0200</time>
      </trkpt>
      <trkpt lat="44.95063" lon="6.55065">
        <ele>1390.8</ele>
        <time>2023-05-18T16:42:37+0200</time>
      </trkpt>
      <trkpt lat="44.95059" lon="6.55071">
        <ele>1390.5</ele>
        <time>2023-05-18T16:42:38+0200</time>
      </trkpt>
      <trkpt lat="44.95056" lon="6.55081">
        <ele>1390.1</ele>
        <time>2023-05-18T16:42:39+0200</time>
      </trkpt>
      <trkpt lat="44.95053" lon="6.55087">
        <ele>1390</ele>
        <time>2023-05-18T16:42:40+0200</time>
      </trkpt>
      <trkpt lat="44.95051" lon="6.55095">
        <ele>1390</ele>
        <time>2023-05-18T16:42:41+0200</time>
      </trkpt>
      <trkpt lat="44.95046" lon="6.551">
        <ele>1390</ele>
        <time>2023-05-18T16:42:42+0200</time>
      </trkpt>
      <trkpt lat="44.95041" lon="6.55105">
        <ele>1390</ele>
        <time>2023-05-18T16:42:43+0200</time>
      </trkpt>
      <trkpt lat="44.95036" lon="6.55109">
        <ele>1390</ele>
        <time>2023-05-18T16:42:44+0200</time>
      </trkpt>
      <trkpt lat="44.95031" lon="6.55113">
        <ele>1390</ele>
        <time>2023-05-18T16:42:45+0200</time>
      </trkpt>
      <trkpt lat="44.95026" lon="6.55119">
        <ele>1390</ele>
        <time>2023-05-18T16:42:46+0200</time>
      </trkpt>
      <trkpt lat="44.9502" lon="6.55122">
        <ele>1390</ele>
        <time>2023-05-18T16:42:47+0200</time>
      </trkpt>
      <trkpt lat="44.95015" lon="6.55126">
        <ele>1390</ele>
        <time>2023-05-18T16:42:48+0200</time>
      </trkpt>
      <trkpt lat="44.95009" lon="6.55129">
        <ele>1390</ele>
        <time>2023-05-18T16:42:49+0200</time>
      </trkpt>
      <trkpt lat="44.95004" lon="6.55137">
        <ele>1390</ele>
        <time>2023-05-18T16:42:50+0200</time>
      </trkpt>
      <trkpt lat="44.95" lon="6.55143">
        <ele>1389.8</ele>
        <time>2023-05-18T16:42:51+0200</time>
      </trkpt>
      <trkpt lat="44.94995" lon="6.55149">
        <ele>1389.5</ele>
        <time>2023-05-18T16:42:52+0200</time>
      </trkpt>
      <trkpt lat="44.94991" lon="6.55156">
        <ele>1389.3</ele>
        <time>2023-05-18T16:42:53+0200</time>
      </trkpt>
      <trkpt lat="44.94988" lon="6.55163">
        <ele>1389.1</ele>
        <time>2023-05-18T16:42:54+0200</time>
      </trkpt>
      <trkpt lat="44.94983" lon="6.55169">
        <ele>1388.9</ele>
        <time>2023-05-18T16:42:55+0200</time>
      </trkpt>
      <trkpt lat="44.94978" lon="6.55175">
        <ele>1388.7</ele>
        <time>2023-05-18T16:42:56+0200</time>
      </trkpt>
      <trkpt lat="44.94975" lon="6.55184">
        <ele>1388.4</ele>
        <time>2023-05-18T16:42:57+0200</time>
      </trkpt>
      <trkpt lat="44.94969" lon="6.55188">
        <ele>1388.2</ele>
        <time>2023-05-18T16:42:58+0200</time>
      </trkpt>
      <trkpt lat="44.94965" lon="6.55195">
        <ele>1388</ele>
        <time>2023-05-18T16:42:58+0200</time>
      </trkpt>
      <trkpt lat="44.9496" lon="6.552">
        <ele>1388</ele>
        <time>2023-05-18T16:42:59+0200</time>
      </trkpt>
      <trkpt lat="44.94953" lon="6.55204">
        <ele>1388</ele>
        <time>2023-05-18T16:43:00+0200</time>
      </trkpt>
      <trkpt lat="44.94949" lon="6.55211">
        <ele>1388</ele>
        <time>2023-05-18T16:43:01+0200</time>
      </trkpt>
      <trkpt lat="44.94943" lon="6.55216">
        <ele>1388</ele>
        <time>2023-05-18T16:43:02+0200</time>
      </trkpt>
      <trkpt lat="44.94937" lon="6.55222">
        <ele>1388</ele>
        <time>2023-05-18T16:43:03+0200</time>
      </trkpt>
      <trkpt lat="44.94932" lon="6.55227">
        <ele>1388</ele>
        <time>2023-05-18T16:43:04+0200</time>
      </trkpt>
      <trkpt lat="44.94927" lon="6.55232">
        <ele>1388</ele>
        <time>2023-05-18T16:43:05+0200</time>
      </trkpt>
      <trkpt lat="44.94922" lon="6.55238">
        <ele>1388</ele>
        <time>2023-05-18T16:43:06+0200</time>
      </trkpt>
      <trkpt lat="44.94918" lon="6.55245">
        <ele>1388</ele>
        <time>2023-05-18T16:43:07+0200</time>
      </trkpt>
      <trkpt lat="44.94914" lon="6.55253">
        <ele>1387.9</ele>
        <time>2023-05-18T16:43:08+0200</time>
      </trkpt>
      <trkpt lat="44.94909" lon="6.55259">
        <ele>1387.7</ele>
        <time>2023-05-18T16:43:09+0200</time>
      </trkpt>
      <trkpt lat="44.94905" lon="6.55265">
        <ele>1387.5</ele>
        <time>2023-05-18T16:43:11+0200</time>
      </trkpt>
      <trkpt lat="44.94901" lon="6.55271">
        <ele>1387.2</ele>
        <time>2023-05-18T16:43:12+0200</time>
      </trkpt>
      <trkpt lat="44.94897" lon="6.55276">
        <ele>1387.1</ele>
        <time>2023-05-18T16:43:13+0200</time>
      </trkpt>
      <trkpt lat="44.94894" lon="6.55282">
        <ele>1386.9</ele>
        <time>2023-05-18T16:43:14+0200</time>
      </trkpt>
      <trkpt lat="44.94902" lon="6.55293">
        <ele>1386.7</ele>
        <time>2023-05-18T16:43:16+0200</time>
      </trkpt>
      <trkpt lat="44.94905" lon="6.553">
        <ele>1386.7</ele>
        <time>2023-05-18T16:43:17+0200</time>
      </trkpt>
      <trkpt lat="44.9491" lon="6.55304">
        <ele>1386.8</ele>
        <time>2023-05-18T16:43:19+0200</time>
      </trkpt>
      <trkpt lat="44.94914" lon="6.55309">
        <ele>1386.9</ele>
        <time>2023-05-18T16:43:21+0200</time>
      </trkpt>
      <trkpt lat="44.94917" lon="6.55314">
        <ele>1387</ele>
        <time>2023-05-18T16:43:23+0200</time>
      </trkpt>
      <trkpt lat="44.94922" lon="6.55323">
        <ele>1387.2</ele>
        <time>2023-05-18T16:43:25+0200</time>
      </trkpt>
      <trkpt lat="44.94926" lon="6.55328">
        <ele>1387.3</ele>
        <time>2023-05-18T16:43:26+0200</time>
      </trkpt>
      <trkpt lat="44.94929" lon="6.55333">
        <ele>1387.5</ele>
        <time>2023-05-18T16:43:27+0200</time>
      </trkpt>
      <trkpt lat="44.94934" lon="6.55339">
        <ele>1387.5</ele>
        <time>2023-05-18T16:43:28+0200</time>
      </trkpt>
      <trkpt lat="44.94937" lon="6.55344">
        <ele>1387.4</ele>
        <time>2023-05-18T16:43:29+0200</time>
      </trkpt>
      <trkpt lat="44.94941" lon="6.55349">
        <ele>1387.4</ele>
        <time>2023-05-18T16:43:30+0200</time>
      </trkpt>
      <trkpt lat="44.94942" lon="6.55355">
        <ele>1387.2</ele>
        <time>2023-05-18T16:43:31+0200</time>
      </trkpt>
      <trkpt lat="44.94933" lon="6.55373">
        <ele>1386.8</ele>
        <time>2023-05-18T16:43:34+0200</time>
      </trkpt>
      <trkpt lat="44.94929" lon="6.55379">
        <ele>1386.6</ele>
        <time>2023-05-18T16:43:35+0200</time>
      </trkpt>
      <trkpt lat="44.94926" lon="6.55386">
        <ele>1386.4</ele>
        <time>2023-05-18T16:43:36+0200</time>
      </trkpt>
      <trkpt lat="44.94922" lon="6.55393">
        <ele>1386.2</ele>
        <time>2023-05-18T16:43:37+0200</time>
      </trkpt>
      <trkpt lat="44.94918" lon="6.55399">
        <ele>1386</ele>
        <time>2023-05-18T16:43:38+0200</time>
      </trkpt>
      <trkpt lat="44.94914" lon="6.55405">
        <ele>1385.9</ele>
        <time>2023-05-18T16:43:39+0200</time>
      </trkpt>
      <trkpt lat="44.9491" lon="6.55411">
        <ele>1385.8</ele>
        <time>2023-05-18T16:43:40+0200</time>
      </trkpt>
      <trkpt lat="44.94906" lon="6.55418">
        <ele>1385.6</ele>
        <time>2023-05-18T16:43:41+0200</time>
      </trkpt>
      <trkpt lat="44.94902" lon="6.55425">
        <ele>1385.5</ele>
        <time>2023-05-18T16:43:42+0200</time>
      </trkpt>
      <trkpt lat="44.94898" lon="6.55432">
        <ele>1385.3</ele>
        <time>2023-05-18T16:43:43+0200</time>
      </trkpt>
      <trkpt lat="44.94895" lon="6.55438">
        <ele>1385.2</ele>
        <time>2023-05-18T16:43:44+0200</time>
      </trkpt>
      <trkpt lat="44.94891" lon="6.55446">
        <ele>1385.1</ele>
        <time>2023-05-18T16:43:45+0200</time>
      </trkpt>
      <trkpt lat="44.94888" lon="6.55453">
        <ele>1385</ele>
        <time>2023-05-18T16:43:46+0200</time>
      </trkpt>
      <trkpt lat="44.94883" lon="6.5546">
        <ele>1385</ele>
        <time>2023-05-18T16:43:47+0200</time>
      </trkpt>
      <trkpt lat="44.9488" lon="6.55468">
        <ele>1385</ele>
        <time>2023-05-18T16:43:48+0200</time>
      </trkpt>
      <trkpt lat="44.94875" lon="6.55476">
        <ele>1385</ele>
        <time>2023-05-18T16:43:49+0200</time>
      </trkpt>
      <trkpt lat="44.94871" lon="6.55483">
        <ele>1385</ele>
        <time>2023-05-18T16:43:50+0200</time>
      </trkpt>
      <trkpt lat="44.94868" lon="6.55491">
        <ele>1385</ele>
        <time>2023-05-18T16:43:51+0200</time>
      </trkpt>
      <trkpt lat="44.94863" lon="6.55498">
        <ele>1385</ele>
        <time>2023-05-18T16:43:52+0200</time>
      </trkpt>
      <trkpt lat="44.94858" lon="6.55505">
        <ele>1385</ele>
        <time>2023-05-18T16:43:53+0200</time>
      </trkpt>
      <trkpt lat="44.94855" lon="6.55513">
        <ele>1385</ele>
        <time>2023-05-18T16:43:54+0200</time>
      </trkpt>
      <trkpt lat="44.94851" lon="6.55521">
        <ele>1385</ele>
        <time>2023-05-18T16:43:55+0200</time>
      </trkpt>
      <trkpt lat="44.94847" lon="6.55528">
        <ele>1385</ele>
        <time>2023-05-18T16:43:56+0200</time>
      </trkpt>
      <trkpt lat="44.94843" lon="6.55537">
        <ele>1385</ele>
        <time>2023-05-18T16:43:57+0200</time>
      </trkpt>
      <trkpt lat="44.9484" lon="6.55543">
        <ele>1385</ele>
        <time>2023-05-18T16:43:58+0200</time>
      </trkpt>
      <trkpt lat="44.94837" lon="6.5555">
        <ele>1385</ele>
        <time>2023-05-18T16:43:59+0200</time>
      </trkpt>
      <trkpt lat="44.94832" lon="6.55557">
        <ele>1385</ele>
        <time>2023-05-18T16:44:00+0200</time>
      </trkpt>
      <trkpt lat="44.94829" lon="6.55564">
        <ele>1384.9</ele>
        <time>2023-05-18T16:44:01+0200</time>
      </trkpt>
      <trkpt lat="44.94825" lon="6.5557">
        <ele>1384.9</ele>
        <time>2023-05-18T16:44:02+0200</time>
      </trkpt>
      <trkpt lat="44.9482" lon="6.55577">
        <ele>1385.1</ele>
        <time>2023-05-18T16:44:03+0200</time>
      </trkpt>
      <trkpt lat="44.94815" lon="6.55583">
        <ele>1385.3</ele>
        <time>2023-05-18T16:44:04+0200</time>
      </trkpt>
      <trkpt lat="44.94809" lon="6.55583">
        <ele>1385.7</ele>
        <time>2023-05-18T16:44:05+0200</time>
      </trkpt>
      <trkpt lat="44.94803" lon="6.55581">
        <ele>1386</ele>
        <time>2023-05-18T16:44:07+0200</time>
      </trkpt>
      <trkpt lat="44.94798" lon="6.55578">
        <ele>1386</ele>
        <time>2023-05-18T16:44:09+0200</time>
      </trkpt>
      <trkpt lat="44.94793" lon="6.5558">
        <ele>1386</ele>
        <time>2023-05-18T16:44:10+0200</time>
      </trkpt>
      <trkpt lat="44.94785" lon="6.55589">
        <ele>1386</ele>
        <time>2023-05-18T16:44:12+0200</time>
      </trkpt>
      <trkpt lat="44.94785" lon="6.556">
        <ele>1385.8</ele>
        <time>2023-05-18T16:44:13+0200</time>
      </trkpt>
      <trkpt lat="44.94787" lon="6.55611">
        <ele>1385.7</ele>
        <time>2023-05-18T16:44:14+0200</time>
      </trkpt>
      <trkpt lat="44.94789" lon="6.55618">
        <ele>1385.4</ele>
        <time>2023-05-18T16:44:15+0200</time>
      </trkpt>
      <trkpt lat="44.94788" lon="6.55628">
        <ele>1385.1</ele>
        <time>2023-05-18T16:44:16+0200</time>
      </trkpt>
      <trkpt lat="44.94785" lon="6.55637">
        <ele>1384.8</ele>
        <time>2023-05-18T16:44:17+0200</time>
      </trkpt>
      <trkpt lat="44.94783" lon="6.55646">
        <ele>1384.8</ele>
        <time>2023-05-18T16:44:18+0200</time>
      </trkpt>
      <trkpt lat="44.94779" lon="6.55653">
        <ele>1384.9</ele>
        <time>2023-05-18T16:44:19+0200</time>
      </trkpt>
      <trkpt lat="44.94777" lon="6.55663">
        <ele>1385</ele>
        <time>2023-05-18T16:44:20+0200</time>
      </trkpt>
      <trkpt lat="44.94773" lon="6.55671">
        <ele>1384.8</ele>
        <time>2023-05-18T16:44:21+0200</time>
      </trkpt>
      <trkpt lat="44.94769" lon="6.55678">
        <ele>1384.4</ele>
        <time>2023-05-18T16:44:22+0200</time>
      </trkpt>
      <trkpt lat="44.94765" lon="6.55684">
        <ele>1384.3</ele>
        <time>2023-05-18T16:44:23+0200</time>
      </trkpt>
      <trkpt lat="44.94761" lon="6.55691">
        <ele>1384.3</ele>
        <time>2023-05-18T16:44:24+0200</time>
      </trkpt>
      <trkpt lat="44.94756" lon="6.55698">
        <ele>1384.4</ele>
        <time>2023-05-18T16:44:25+0200</time>
      </trkpt>
      <trkpt lat="44.94752" lon="6.55704">
        <ele>1384.5</ele>
        <time>2023-05-18T16:44:26+0200</time>
      </trkpt>
      <trkpt lat="44.94749" lon="6.55713">
        <ele>1384.3</ele>
        <time>2023-05-18T16:44:27+0200</time>
      </trkpt>
      <trkpt lat="44.94747" lon="6.55723">
        <ele>1384</ele>
        <time>2023-05-18T16:44:28+0200</time>
      </trkpt>
      <trkpt lat="44.94746" lon="6.55732">
        <ele>1383.7</ele>
        <time>2023-05-18T16:44:29+0200</time>
      </trkpt>
      <trkpt lat="44.94743" lon="6.5574">
        <ele>1383.5</ele>
        <time>2023-05-18T16:44:30+0200</time>
      </trkpt>
      <trkpt lat="44.94738" lon="6.55748">
        <ele>1383.5</ele>
        <time>2023-05-18T16:44:31+0200</time>
      </trkpt>
      <trkpt lat="44.94734" lon="6.55756">
        <ele>1383.5</ele>
        <time>2023-05-18T16:44:32+0200</time>
      </trkpt>
      <trkpt lat="44.9473" lon="6.55763">
        <ele>1383.6</ele>
        <time>2023-05-18T16:44:33+0200</time>
      </trkpt>
      <trkpt lat="44.94726" lon="6.55769">
        <ele>1383.8</ele>
        <time>2023-05-18T16:44:34+0200</time>
      </trkpt>
      <trkpt lat="44.94721" lon="6.55776">
        <ele>1384</ele>
        <time>2023-05-18T16:44:35+0200</time>
      </trkpt>
      <trkpt lat="44.94716" lon="6.55781">
        <ele>1383.9</ele>
        <time>2023-05-18T16:44:36+0200</time>
      </trkpt>
      <trkpt lat="44.94709" lon="6.55781">
        <ele>1383.9</ele>
        <time>2023-05-18T16:44:37+0200</time>
      </trkpt>
      <trkpt lat="44.94702" lon="6.5578">
        <ele>1384</ele>
        <time>2023-05-18T16:44:38+0200</time>
      </trkpt>
      <trkpt lat="44.94695" lon="6.55776">
        <ele>1384</ele>
        <time>2023-05-18T16:44:39+0200</time>
      </trkpt>
      <trkpt lat="44.94688" lon="6.55775">
        <ele>1384</ele>
        <time>2023-05-18T16:44:40+0200</time>
      </trkpt>
      <trkpt lat="44.94677" lon="6.55781">
        <ele>1384</ele>
        <time>2023-05-18T16:44:42+0200</time>
      </trkpt>
      <trkpt lat="44.94671" lon="6.55784">
        <ele>1384</ele>
        <time>2023-05-18T16:44:43+0200</time>
      </trkpt>
      <trkpt lat="44.94666" lon="6.55786">
        <ele>1384</ele>
        <time>2023-05-18T16:44:44+0200</time>
      </trkpt>
      <trkpt lat="44.94656" lon="6.55771">
        <ele>1384</ele>
        <time>2023-05-18T16:44:45+0200</time>
      </trkpt>
      <trkpt lat="44.94651" lon="6.55765">
        <ele>1384</ele>
        <time>2023-05-18T16:44:46+0200</time>
      </trkpt>
      <trkpt lat="44.94646" lon="6.5576">
        <ele>1384</ele>
        <time>2023-05-18T16:44:47+0200</time>
      </trkpt>
      <trkpt lat="44.94641" lon="6.55754">
        <ele>1384</ele>
        <time>2023-05-18T16:44:48+0200</time>
      </trkpt>
      <trkpt lat="44.94636" lon="6.55748">
        <ele>1384.2</ele>
        <time>2023-05-18T16:44:49+0200</time>
      </trkpt>
      <trkpt lat="44.94631" lon="6.55742">
        <ele>1384.6</ele>
        <time>2023-05-18T16:44:50+0200</time>
      </trkpt>
      <trkpt lat="44.94627" lon="6.55737">
        <ele>1384.9</ele>
        <time>2023-05-18T16:44:51+0200</time>
      </trkpt>
      <trkpt lat="44.94624" lon="6.55732">
        <ele>1385.2</ele>
        <time>2023-05-18T16:44:52+0200</time>
      </trkpt>
      <trkpt lat="44.9462" lon="6.55727">
        <ele>1385.5</ele>
        <time>2023-05-18T16:44:53+0200</time>
      </trkpt>
      <trkpt lat="44.94615" lon="6.55722">
        <ele>1385.9</ele>
        <time>2023-05-18T16:44:54+0200</time>
      </trkpt>
      <trkpt lat="44.94611" lon="6.55717">
        <ele>1386.2</ele>
        <time>2023-05-18T16:44:55+0200</time>
      </trkpt>
      <trkpt lat="44.94605" lon="6.55709">
        <ele>1386.7</ele>
        <time>2023-05-18T16:44:57+0200</time>
      </trkpt>
      <trkpt lat="44.94601" lon="6.55704">
        <ele>1387</ele>
        <time>2023-05-18T16:44:58+0200</time>
      </trkpt>
      <trkpt lat="44.94594" lon="6.55696">
        <ele>1387.5</ele>
        <time>2023-05-18T16:45:00+0200</time>
      </trkpt>
      <trkpt lat="44.94594" lon="6.55686">
        <ele>1388.2</ele>
        <time>2023-05-18T16:45:01+0200</time>
      </trkpt>
      <trkpt lat="44.9459" lon="6.55677">
        <ele>1389</ele>
        <time>2023-05-18T16:45:03+0200</time>
      </trkpt>
      <trkpt lat="44.94586" lon="6.55674">
        <ele>1389.4</ele>
        <time>2023-05-18T16:45:04+0200</time>
      </trkpt>
      <trkpt lat="44.9458" lon="6.55666">
        <ele>1390.2</ele>
        <time>2023-05-18T16:45:06+0200</time>
      </trkpt>
      <trkpt lat="44.94573" lon="6.55657">
        <ele>1390.7</ele>
        <time>2023-05-18T16:45:08+0200</time>
      </trkpt>
      <trkpt lat="44.94566" lon="6.5565">
        <ele>1391.2</ele>
        <time>2023-05-18T16:45:10+0200</time>
      </trkpt>
      <trkpt lat="44.94559" lon="6.55643">
        <ele>1391.7</ele>
        <time>2023-05-18T16:45:12+0200</time>
      </trkpt>
      <trkpt lat="44.94553" lon="6.55635">
        <ele>1392</ele>
        <time>2023-05-18T16:45:14+0200</time>
      </trkpt>
      <trkpt lat="44.94548" lon="6.55628">
        <ele>1392.1</ele>
        <time>2023-05-18T16:45:16+0200</time>
      </trkpt>
      <trkpt lat="44.94543" lon="6.5562">
        <ele>1392.3</ele>
        <time>2023-05-18T16:45:18+0200</time>
      </trkpt>
      <trkpt lat="44.94536" lon="6.55614">
        <ele>1392.6</ele>
        <time>2023-05-18T16:45:20+0200</time>
      </trkpt>
      <trkpt lat="44.9453" lon="6.55607">
        <ele>1393.1</ele>
        <time>2023-05-18T16:45:22+0200</time>
      </trkpt>
      <trkpt lat="44.94524" lon="6.55601">
        <ele>1393.4</ele>
        <time>2023-05-18T16:45:24+0200</time>
      </trkpt>
      <trkpt lat="44.94518" lon="6.55593">
        <ele>1393.9</ele>
        <time>2023-05-18T16:45:26+0200</time>
      </trkpt>
      <trkpt lat="44.94512" lon="6.55586">
        <ele>1394.4</ele>
        <time>2023-05-18T16:45:28+0200</time>
      </trkpt>
      <trkpt lat="44.94506" lon="6.55579">
        <ele>1395.1</ele>
        <time>2023-05-18T16:45:30+0200</time>
      </trkpt>
      <trkpt lat="44.94502" lon="6.55574">
        <ele>1395.5</ele>
        <time>2023-05-18T16:45:31+0200</time>
      </trkpt>
      <trkpt lat="44.94497" lon="6.55569">
        <ele>1396.1</ele>
        <time>2023-05-18T16:45:33+0200</time>
      </trkpt>
      <trkpt lat="44.9449" lon="6.55567">
        <ele>1396.6</ele>
        <time>2023-05-18T16:45:35+0200</time>
      </trkpt>
      <trkpt lat="44.94486" lon="6.55563">
        <ele>1397</ele>
        <time>2023-05-18T16:45:37+0200</time>
      </trkpt>
      <trkpt lat="44.94481" lon="6.5556">
        <ele>1397.3</ele>
        <time>2023-05-18T16:45:44+0200</time>
      </trkpt>
      <trkpt lat="44.9448" lon="6.55567">
        <ele>1396.9</ele>
        <time>2023-05-18T16:46:05+0200</time>
      </trkpt>
      <trkpt lat="44.94481" lon="6.5556">
        <ele>1397.4</ele>
        <time>2023-05-18T16:46:38+0200</time>
      </trkpt>
      <trkpt lat="44.94476" lon="6.55564">
        <ele>1397.3</ele>
        <time>2023-05-18T16:46:52+0200</time>
      </trkpt>
      <trkpt lat="44.9447" lon="6.55568">
        <ele>1397.3</ele>
        <time>2023-05-18T16:46:54+0200</time>
      </trkpt>
      <trkpt lat="44.94466" lon="6.55572">
        <ele>1397.3</ele>
        <time>2023-05-18T16:46:55+0200</time>
      </trkpt>
      <trkpt lat="44.9446" lon="6.5558">
        <ele>1397.1</ele>
        <time>2023-05-18T16:46:57+0200</time>
      </trkpt>
      <trkpt lat="44.94455" lon="6.55584">
        <ele>1397.1</ele>
        <time>2023-05-18T16:46:58+0200</time>
      </trkpt>
      <trkpt lat="44.94452" lon="6.5559">
        <ele>1396.9</ele>
        <time>2023-05-18T16:46:59+0200</time>
      </trkpt>
      <trkpt lat="44.94447" lon="6.55594">
        <ele>1396.8</ele>
        <time>2023-05-18T16:47:00+0200</time>
      </trkpt>
      <trkpt lat="44.94444" lon="6.55599">
        <ele>1396.4</ele>
        <time>2023-05-18T16:47:01+0200</time>
      </trkpt>
      <trkpt lat="44.9444" lon="6.55604">
        <ele>1396.1</ele>
        <time>2023-05-18T16:47:02+0200</time>
      </trkpt>
      <trkpt lat="44.94435" lon="6.55608">
        <ele>1396.1</ele>
        <time>2023-05-18T16:47:03+0200</time>
      </trkpt>
      <trkpt lat="44.94431" lon="6.55612">
        <ele>1395.9</ele>
        <time>2023-05-18T16:47:04+0200</time>
      </trkpt>
      <trkpt lat="44.94424" lon="6.55619">
        <ele>1396</ele>
        <time>2023-05-18T16:47:06+0200</time>
      </trkpt>
      <trkpt lat="44.94418" lon="6.55624">
        <ele>1396</ele>
        <time>2023-05-18T16:47:07+0200</time>
      </trkpt>
      <trkpt lat="44.9441" lon="6.55635">
        <ele>1395.8</ele>
        <time>2023-05-18T16:47:09+0200</time>
      </trkpt>
      <trkpt lat="44.94406" lon="6.55639">
        <ele>1395.8</ele>
        <time>2023-05-18T16:47:10+0200</time>
      </trkpt>
      <trkpt lat="44.94402" lon="6.55642">
        <ele>1396</ele>
        <time>2023-05-18T16:47:11+0200</time>
      </trkpt>
      <trkpt lat="44.94398" lon="6.55647">
        <ele>1396.2</ele>
        <time>2023-05-18T16:47:12+0200</time>
      </trkpt>
      <trkpt lat="44.94391" lon="6.55654">
        <ele>1396.4</ele>
        <time>2023-05-18T16:47:14+0200</time>
      </trkpt>
      <trkpt lat="44.94386" lon="6.55656">
        <ele>1396.6</ele>
        <time>2023-05-18T16:47:15+0200</time>
      </trkpt>
      <trkpt lat="44.94384" lon="6.55662">
        <ele>1396.4</ele>
        <time>2023-05-18T16:47:16+0200</time>
      </trkpt>
      <trkpt lat="44.94386" lon="6.5567">
        <ele>1396.1</ele>
        <time>2023-05-18T16:47:17+0200</time>
      </trkpt>
      <trkpt lat="44.94389" lon="6.55677">
        <ele>1396</ele>
        <time>2023-05-18T16:47:18+0200</time>
      </trkpt>
      <trkpt lat="44.94391" lon="6.55684">
        <ele>1395.9</ele>
        <time>2023-05-18T16:47:19+0200</time>
      </trkpt>
      <trkpt lat="44.94392" lon="6.55691">
        <ele>1395.8</ele>
        <time>2023-05-18T16:47:20+0200</time>
      </trkpt>
      <trkpt lat="44.94395" lon="6.55699">
        <ele>1395.4</ele>
        <time>2023-05-18T16:47:21+0200</time>
      </trkpt>
      <trkpt lat="44.94399" lon="6.55707">
        <ele>1395</ele>
        <time>2023-05-18T16:47:22+0200</time>
      </trkpt>
      <trkpt lat="44.94402" lon="6.55716">
        <ele>1394.7</ele>
        <time>2023-05-18T16:47:23+0200</time>
      </trkpt>
      <trkpt lat="44.94405" lon="6.55724">
        <ele>1394.3</ele>
        <time>2023-05-18T16:47:24+0200</time>
      </trkpt>
      <trkpt lat="44.94408" lon="6.55734">
        <ele>1393.8</ele>
        <time>2023-05-18T16:47:25+0200</time>
      </trkpt>
      <trkpt lat="44.9441" lon="6.55744">
        <ele>1393.3</ele>
        <time>2023-05-18T16:47:26+0200</time>
      </trkpt>
      <trkpt lat="44.94412" lon="6.55752">
        <ele>1392.9</ele>
        <time>2023-05-18T16:47:27+0200</time>
      </trkpt>
      <trkpt lat="44.94414" lon="6.55758">
        <ele>1392.7</ele>
        <time>2023-05-18T16:47:28+0200</time>
      </trkpt>
      <trkpt lat="44.94402" lon="6.55773">
        <ele>1392.2</ele>
        <time>2023-05-18T16:47:29+0200</time>
      </trkpt>
      <trkpt lat="44.94398" lon="6.55779">
        <ele>1392</ele>
        <time>2023-05-18T16:47:30+0200</time>
      </trkpt>
      <trkpt lat="44.94387" lon="6.55761">
        <ele>1392.7</ele>
        <time>2023-05-18T16:47:32+0200</time>
      </trkpt>
      <trkpt lat="44.94379" lon="6.55754">
        <ele>1393.2</ele>
        <time>2023-05-18T16:47:34+0200</time>
      </trkpt>
      <trkpt lat="44.94371" lon="6.55739">
        <ele>1394.2</ele>
        <time>2023-05-18T16:47:35+0200</time>
      </trkpt>
      <trkpt lat="44.94368" lon="6.55772">
        <ele>1393</ele>
        <time>2023-05-18T16:47:36+0200</time>
      </trkpt>
      <trkpt lat="44.94364" lon="6.5578">
        <ele>1393</ele>
        <time>2023-05-18T16:47:37+0200</time>
      </trkpt>
      <trkpt lat="44.9436" lon="6.5579">
        <ele>1393.5</ele>
        <time>2023-05-18T16:47:38+0200</time>
      </trkpt>
      <trkpt lat="44.94355" lon="6.558">
        <ele>1394.1</ele>
        <time>2023-05-18T16:47:40+0200</time>
      </trkpt>
      <trkpt lat="44.94342" lon="6.55797">
        <ele>1394.6</ele>
        <time>2023-05-18T16:47:41+0200</time>
      </trkpt>
      <trkpt lat="44.94336" lon="6.558">
        <ele>1394.9</ele>
        <time>2023-05-18T16:47:42+0200</time>
      </trkpt>
      <trkpt lat="44.9433" lon="6.558">
        <ele>1395.2</ele>
        <time>2023-05-18T16:47:43+0200</time>
      </trkpt>
      <trkpt lat="44.94324" lon="6.558">
        <ele>1395.4</ele>
        <time>2023-05-18T16:47:44+0200</time>
      </trkpt>
      <trkpt lat="44.94319" lon="6.55803">
        <ele>1395.6</ele>
        <time>2023-05-18T16:47:45+0200</time>
      </trkpt>
      <trkpt lat="44.94314" lon="6.55805">
        <ele>1395.7</ele>
        <time>2023-05-18T16:47:46+0200</time>
      </trkpt>
      <trkpt lat="44.94309" lon="6.55807">
        <ele>1395.9</ele>
        <time>2023-05-18T16:47:47+0200</time>
      </trkpt>
      <trkpt lat="44.94301" lon="6.55813">
        <ele>1396.5</ele>
        <time>2023-05-18T16:47:49+0200</time>
      </trkpt>
      <trkpt lat="44.94297" lon="6.55816">
        <ele>1397</ele>
        <time>2023-05-18T16:47:50+0200</time>
      </trkpt>
      <trkpt lat="44.94289" lon="6.55821">
        <ele>1397.8</ele>
        <time>2023-05-18T16:47:52+0200</time>
      </trkpt>
      <trkpt lat="44.94284" lon="6.55834">
        <ele>1398.3</ele>
        <time>2023-05-18T16:47:54+0200</time>
      </trkpt>
      <trkpt lat="44.94291" lon="6.55842">
        <ele>1397.7</ele>
        <time>2023-05-18T16:47:55+0200</time>
      </trkpt>
      <trkpt lat="44.94294" lon="6.55849">
        <ele>1397.6</ele>
        <time>2023-05-18T16:47:56+0200</time>
      </trkpt>
      <trkpt lat="44.94297" lon="6.55855">
        <ele>1397.5</ele>
        <time>2023-05-18T16:47:57+0200</time>
      </trkpt>
      <trkpt lat="44.94299" lon="6.55861">
        <ele>1397.5</ele>
        <time>2023-05-18T16:47:58+0200</time>
      </trkpt>
      <trkpt lat="44.94301" lon="6.55867">
        <ele>1397.5</ele>
        <time>2023-05-18T16:47:59+0200</time>
      </trkpt>
      <trkpt lat="44.94304" lon="6.55873">
        <ele>1397.6</ele>
        <time>2023-05-18T16:48:00+0200</time>
      </trkpt>
      <trkpt lat="44.94306" lon="6.55879">
        <ele>1397.6</ele>
        <time>2023-05-18T16:48:01+0200</time>
      </trkpt>
      <trkpt lat="44.94308" lon="6.55885">
        <ele>1397.7</ele>
        <time>2023-05-18T16:48:02+0200</time>
      </trkpt>
      <trkpt lat="44.94309" lon="6.55893">
        <ele>1397.6</ele>
        <time>2023-05-18T16:48:03+0200</time>
      </trkpt>
      <trkpt lat="44.94309" lon="6.559">
        <ele>1397.6</ele>
        <time>2023-05-18T16:48:04+0200</time>
      </trkpt>
      <trkpt lat="44.94307" lon="6.55906">
        <ele>1397.8</ele>
        <time>2023-05-18T16:48:05+0200</time>
      </trkpt>
      <trkpt lat="44.94305" lon="6.55913">
        <ele>1398.1</ele>
        <time>2023-05-18T16:48:06+0200</time>
      </trkpt>
      <trkpt lat="44.94304" lon="6.5592">
        <ele>1398.3</ele>
        <time>2023-05-18T16:48:07+0200</time>
      </trkpt>
      <trkpt lat="44.94303" lon="6.55931">
        <ele>1398.9</ele>
        <time>2023-05-18T16:48:09+0200</time>
      </trkpt>
      <trkpt lat="44.94303" lon="6.55938">
        <ele>1399.2</ele>
        <time>2023-05-18T16:48:10+0200</time>
      </trkpt>
      <trkpt lat="44.94303" lon="6.55949">
        <ele>1399.6</ele>
        <time>2023-05-18T16:48:12+0200</time>
      </trkpt>
      <trkpt lat="44.943" lon="6.5596">
        <ele>1400.3</ele>
        <time>2023-05-18T16:48:14+0200</time>
      </trkpt>
      <trkpt lat="44.94298" lon="6.55971">
        <ele>1401.1</ele>
        <time>2023-05-18T16:48:16+0200</time>
      </trkpt>
      <trkpt lat="44.94295" lon="6.55982">
        <ele>1401.7</ele>
        <time>2023-05-18T16:48:18+0200</time>
      </trkpt>
      <trkpt lat="44.94294" lon="6.55992">
        <ele>1402.1</ele>
        <time>2023-05-18T16:48:20+0200</time>
      </trkpt>
      <trkpt lat="44.94292" lon="6.56001">
        <ele>1402.5</ele>
        <time>2023-05-18T16:48:22+0200</time>
      </trkpt>
      <trkpt lat="44.94291" lon="6.56011">
        <ele>1402.9</ele>
        <time>2023-05-18T16:48:24+0200</time>
      </trkpt>
      <trkpt lat="44.94291" lon="6.56018">
        <ele>1403.3</ele>
        <time>2023-05-18T16:48:25+0200</time>
      </trkpt>
      <trkpt lat="44.94289" lon="6.56028">
        <ele>1403.9</ele>
        <time>2023-05-18T16:48:27+0200</time>
      </trkpt>
      <trkpt lat="44.94286" lon="6.56039">
        <ele>1404.4</ele>
        <time>2023-05-18T16:48:29+0200</time>
      </trkpt>
      <trkpt lat="44.94283" lon="6.56048">
        <ele>1405</ele>
        <time>2023-05-18T16:48:31+0200</time>
      </trkpt>
      <trkpt lat="44.94283" lon="6.56057">
        <ele>1405.3</ele>
        <time>2023-05-18T16:48:33+0200</time>
      </trkpt>
      <trkpt lat="44.94281" lon="6.56065">
        <ele>1405.2</ele>
        <time>2023-05-18T16:48:35+0200</time>
      </trkpt>
      <trkpt lat="44.9428" lon="6.56076">
        <ele>1405.1</ele>
        <time>2023-05-18T16:48:37+0200</time>
      </trkpt>
      <trkpt lat="44.94277" lon="6.56086">
        <ele>1405.1</ele>
        <time>2023-05-18T16:48:39+0200</time>
      </trkpt>
      <trkpt lat="44.94275" lon="6.56096">
        <ele>1405.4</ele>
        <time>2023-05-18T16:48:41+0200</time>
      </trkpt>
      <trkpt lat="44.94274" lon="6.56107">
        <ele>1405.6</ele>
        <time>2023-05-18T16:48:43+0200</time>
      </trkpt>
      <trkpt lat="44.94271" lon="6.56116">
        <ele>1405.9</ele>
        <time>2023-05-18T16:48:45+0200</time>
      </trkpt>
      <trkpt lat="44.94267" lon="6.56121">
        <ele>1406.6</ele>
        <time>2023-05-18T16:48:47+0200</time>
      </trkpt>
      <trkpt lat="44.94266" lon="6.5613">
        <ele>1406.7</ele>
        <time>2023-05-18T16:48:49+0200</time>
      </trkpt>
      <trkpt lat="44.94266" lon="6.56136">
        <ele>1406.6</ele>
        <time>2023-05-18T16:48:50+0200</time>
      </trkpt>
      <trkpt lat="44.94266" lon="6.56143">
        <ele>1406.6</ele>
        <time>2023-05-18T16:48:51+0200</time>
      </trkpt>
      <trkpt lat="44.94265" lon="6.5615">
        <ele>1406.4</ele>
        <time>2023-05-18T16:48:52+0200</time>
      </trkpt>
      <trkpt lat="44.94264" lon="6.56156">
        <ele>1406.3</ele>
        <time>2023-05-18T16:48:53+0200</time>
      </trkpt>
      <trkpt lat="44.94264" lon="6.56164">
        <ele>1406.1</ele>
        <time>2023-05-18T16:48:54+0200</time>
      </trkpt>
      <trkpt lat="44.94261" lon="6.5617">
        <ele>1406.4</ele>
        <time>2023-05-18T16:48:55+0200</time>
      </trkpt>
      <trkpt lat="44.94261" lon="6.56183">
        <ele>1406.5</ele>
        <time>2023-05-18T16:48:57+0200</time>
      </trkpt>
      <trkpt lat="44.94258" lon="6.56194">
        <ele>1406.9</ele>
        <time>2023-05-18T16:49:00+0200</time>
      </trkpt>
      <trkpt lat="44.94259" lon="6.56203">
        <ele>1406.4</ele>
        <time>2023-05-18T16:49:02+0200</time>
      </trkpt>
      <trkpt lat="44.94261" lon="6.5621">
        <ele>1405.9</ele>
        <time>2023-05-18T16:49:03+0200</time>
      </trkpt>
      <trkpt lat="44.94263" lon="6.56217">
        <ele>1405.4</ele>
        <time>2023-05-18T16:49:04+0200</time>
      </trkpt>
      <trkpt lat="44.94263" lon="6.56224">
        <ele>1405.1</ele>
        <time>2023-05-18T16:49:05+0200</time>
      </trkpt>
      <trkpt lat="44.94264" lon="6.56231">
        <ele>1405</ele>
        <time>2023-05-18T16:49:06+0200</time>
      </trkpt>
      <trkpt lat="44.94264" lon="6.56239">
        <ele>1405</ele>
        <time>2023-05-18T16:49:07+0200</time>
      </trkpt>
      <trkpt lat="44.94264" lon="6.56246">
        <ele>1405</ele>
        <time>2023-05-18T16:49:08+0200</time>
      </trkpt>
      <trkpt lat="44.94264" lon="6.56258">
        <ele>1404.8</ele>
        <time>2023-05-18T16:49:10+0200</time>
      </trkpt>
      <trkpt lat="44.94268" lon="6.56263">
        <ele>1404.3</ele>
        <time>2023-05-18T16:49:11+0200</time>
      </trkpt>
      <trkpt lat="44.9427" lon="6.56275">
        <ele>1403.9</ele>
        <time>2023-05-18T16:49:12+0200</time>
      </trkpt>
      <trkpt lat="44.94274" lon="6.56286">
        <ele>1403.2</ele>
        <time>2023-05-18T16:49:13+0200</time>
      </trkpt>
      <trkpt lat="44.94272" lon="6.56295">
        <ele>1403.2</ele>
        <time>2023-05-18T16:49:14+0200</time>
      </trkpt>
      <trkpt lat="44.94269" lon="6.56302">
        <ele>1403.3</ele>
        <time>2023-05-18T16:49:15+0200</time>
      </trkpt>
      <trkpt lat="44.94267" lon="6.56309">
        <ele>1403.6</ele>
        <time>2023-05-18T16:49:16+0200</time>
      </trkpt>
      <trkpt lat="44.94265" lon="6.56317">
        <ele>1403.9</ele>
        <time>2023-05-18T16:49:17+0200</time>
      </trkpt>
      <trkpt lat="44.94262" lon="6.56323">
        <ele>1404.2</ele>
        <time>2023-05-18T16:49:18+0200</time>
      </trkpt>
      <trkpt lat="44.94259" lon="6.5633">
        <ele>1404.7</ele>
        <time>2023-05-18T16:49:19+0200</time>
      </trkpt>
      <trkpt lat="44.94256" lon="6.56336">
        <ele>1405</ele>
        <time>2023-05-18T16:49:20+0200</time>
      </trkpt>
      <trkpt lat="44.94255" lon="6.56343">
        <ele>1404.6</ele>
        <time>2023-05-18T16:49:21+0200</time>
      </trkpt>
      <trkpt lat="44.94255" lon="6.5635">
        <ele>1404.2</ele>
        <time>2023-05-18T16:49:22+0200</time>
      </trkpt>
      <trkpt lat="44.94253" lon="6.56357">
        <ele>1403.9</ele>
        <time>2023-05-18T16:49:23+0200</time>
      </trkpt>
      <trkpt lat="44.94249" lon="6.56363">
        <ele>1403.9</ele>
        <time>2023-05-18T16:49:24+0200</time>
      </trkpt>
      <trkpt lat="44.94247" lon="6.5637">
        <ele>1403.7</ele>
        <time>2023-05-18T16:49:25+0200</time>
      </trkpt>
      <trkpt lat="44.94244" lon="6.56378">
        <ele>1403.5</ele>
        <time>2023-05-18T16:49:26+0200</time>
      </trkpt>
      <trkpt lat="44.94239" lon="6.56384">
        <ele>1403.6</ele>
        <time>2023-05-18T16:49:27+0200</time>
      </trkpt>
      <trkpt lat="44.94235" lon="6.56388">
        <ele>1403.8</ele>
        <time>2023-05-18T16:49:28+0200</time>
      </trkpt>
      <trkpt lat="44.9423" lon="6.5639">
        <ele>1404.1</ele>
        <time>2023-05-18T16:49:29+0200</time>
      </trkpt>
      <trkpt lat="44.94227" lon="6.56395">
        <ele>1404.3</ele>
        <time>2023-05-18T16:49:30+0200</time>
      </trkpt>
      <trkpt lat="44.94223" lon="6.56398">
        <ele>1404.6</ele>
        <time>2023-05-18T16:49:31+0200</time>
      </trkpt>
      <trkpt lat="44.94215" lon="6.56403">
        <ele>1405.4</ele>
        <time>2023-05-18T16:49:33+0200</time>
      </trkpt>
      <trkpt lat="44.94208" lon="6.56407">
        <ele>1406</ele>
        <time>2023-05-18T16:49:35+0200</time>
      </trkpt>
      <trkpt lat="44.94202" lon="6.56411">
        <ele>1406.6</ele>
        <time>2023-05-18T16:49:37+0200</time>
      </trkpt>
      <trkpt lat="44.94196" lon="6.5642">
        <ele>1406.6</ele>
        <time>2023-05-18T16:49:39+0200</time>
      </trkpt>
      <trkpt lat="44.94193" lon="6.56425">
        <ele>1406.5</ele>
        <time>2023-05-18T16:49:40+0200</time>
      </trkpt>
      <trkpt lat="44.94191" lon="6.56431">
        <ele>1406.3</ele>
        <time>2023-05-18T16:49:41+0200</time>
      </trkpt>
      <trkpt lat="44.94189" lon="6.56439">
        <ele>1405.8</ele>
        <time>2023-05-18T16:49:42+0200</time>
      </trkpt>
      <trkpt lat="44.94186" lon="6.56445">
        <ele>1405.5</ele>
        <time>2023-05-18T16:49:43+0200</time>
      </trkpt>
      <trkpt lat="44.94184" lon="6.56453">
        <ele>1405.2</ele>
        <time>2023-05-18T16:49:44+0200</time>
      </trkpt>
      <trkpt lat="44.9418" lon="6.5646">
        <ele>1404.9</ele>
        <time>2023-05-18T16:49:45+0200</time>
      </trkpt>
      <trkpt lat="44.94176" lon="6.56467">
        <ele>1404.7</ele>
        <time>2023-05-18T16:49:46+0200</time>
      </trkpt>
      <trkpt lat="44.94172" lon="6.56476">
        <ele>1404.3</ele>
        <time>2023-05-18T16:49:47+0200</time>
      </trkpt>
      <trkpt lat="44.94169" lon="6.56484">
        <ele>1403.9</ele>
        <time>2023-05-18T16:49:48+0200</time>
      </trkpt>
      <trkpt lat="44.94167" lon="6.56493">
        <ele>1403.4</ele>
        <time>2023-05-18T16:49:49+0200</time>
      </trkpt>
      <trkpt lat="44.94166" lon="6.56503">
        <ele>1402.7</ele>
        <time>2023-05-18T16:49:50+0200</time>
      </trkpt>
      <trkpt lat="44.94164" lon="6.56514">
        <ele>1401.8</ele>
        <time>2023-05-18T16:49:51+0200</time>
      </trkpt>
      <trkpt lat="44.9416" lon="6.56523">
        <ele>1401.3</ele>
        <time>2023-05-18T16:49:52+0200</time>
      </trkpt>
      <trkpt lat="44.94155" lon="6.56533">
        <ele>1400.7</ele>
        <time>2023-05-18T16:49:53+0200</time>
      </trkpt>
      <trkpt lat="44.94149" lon="6.5654">
        <ele>1400.6</ele>
        <time>2023-05-18T16:49:54+0200</time>
      </trkpt>
      <trkpt lat="44.94143" lon="6.56546">
        <ele>1400.7</ele>
        <time>2023-05-18T16:49:55+0200</time>
      </trkpt>
      <trkpt lat="44.94138" lon="6.56553">
        <ele>1400.5</ele>
        <time>2023-05-18T16:49:56+0200</time>
      </trkpt>
      <trkpt lat="44.94134" lon="6.56561">
        <ele>1400.1</ele>
        <time>2023-05-18T16:49:57+0200</time>
      </trkpt>
      <trkpt lat="44.9413" lon="6.56569">
        <ele>1399.6</ele>
        <time>2023-05-18T16:49:58+0200</time>
      </trkpt>
      <trkpt lat="44.94125" lon="6.56576">
        <ele>1399.4</ele>
        <time>2023-05-18T16:49:59+0200</time>
      </trkpt>
      <trkpt lat="44.9412" lon="6.56581">
        <ele>1399.4</ele>
        <time>2023-05-18T16:50:00+0200</time>
      </trkpt>
      <trkpt lat="44.94114" lon="6.56585">
        <ele>1399.5</ele>
        <time>2023-05-18T16:50:01+0200</time>
      </trkpt>
      <trkpt lat="44.94108" lon="6.5659">
        <ele>1399.8</ele>
        <time>2023-05-18T16:50:02+0200</time>
      </trkpt>
      <trkpt lat="44.94103" lon="6.56595">
        <ele>1400</ele>
        <time>2023-05-18T16:50:03+0200</time>
      </trkpt>
      <trkpt lat="44.94099" lon="6.56603">
        <ele>1399.7</ele>
        <time>2023-05-18T16:50:04+0200</time>
      </trkpt>
      <trkpt lat="44.94093" lon="6.56606">
        <ele>1400.4</ele>
        <time>2023-05-18T16:50:05+0200</time>
      </trkpt>
      <trkpt lat="44.94091" lon="6.56615">
        <ele>1399.3</ele>
        <time>2023-05-18T16:50:06+0200</time>
      </trkpt>
      <trkpt lat="44.94095" lon="6.56625">
        <ele>1397.5</ele>
        <time>2023-05-18T16:50:07+0200</time>
      </trkpt>
      <trkpt lat="44.94098" lon="6.56636">
        <ele>1395.8</ele>
        <time>2023-05-18T16:50:08+0200</time>
      </trkpt>
      <trkpt lat="44.94099" lon="6.56648">
        <ele>1394.4</ele>
        <time>2023-05-18T16:50:09+0200</time>
      </trkpt>
      <trkpt lat="44.94102" lon="6.56656">
        <ele>1393.2</ele>
        <time>2023-05-18T16:50:10+0200</time>
      </trkpt>
      <trkpt lat="44.94088" lon="6.56649">
        <ele>1395.4</ele>
        <time>2023-05-18T16:50:11+0200</time>
      </trkpt>
      <trkpt lat="44.94085" lon="6.56658">
        <ele>1394.8</ele>
        <time>2023-05-18T16:50:12+0200</time>
      </trkpt>
      <trkpt lat="44.9408" lon="6.56653">
        <ele>1396</ele>
        <time>2023-05-18T16:50:14+0200</time>
      </trkpt>
      <trkpt lat="44.94076" lon="6.56657">
        <ele>1396.2</ele>
        <time>2023-05-18T16:50:16+0200</time>
      </trkpt>
      <trkpt lat="44.9407" lon="6.56658">
        <ele>1397</ele>
        <time>2023-05-18T16:50:17+0200</time>
      </trkpt>
      <trkpt lat="44.94065" lon="6.56656">
        <ele>1398</ele>
        <time>2023-05-18T16:50:18+0200</time>
      </trkpt>
      <trkpt lat="44.94057" lon="6.56659">
        <ele>1398.9</ele>
        <time>2023-05-18T16:50:20+0200</time>
      </trkpt>
      <trkpt lat="44.9405" lon="6.56664">
        <ele>1399.3</ele>
        <time>2023-05-18T16:50:22+0200</time>
      </trkpt>
      <trkpt lat="44.94045" lon="6.56665">
        <ele>1400</ele>
        <time>2023-05-18T16:50:23+0200</time>
      </trkpt>
      <trkpt lat="44.94025" lon="6.56664">
        <ele>1403.8</ele>
        <time>2023-05-18T16:50:25+0200</time>
      </trkpt>
      <trkpt lat="44.94016" lon="6.56671">
        <ele>1404.4</ele>
        <time>2023-05-18T16:50:26+0200</time>
      </trkpt>
      <trkpt lat="44.94012" lon="6.56674">
        <ele>1404.5</ele>
        <time>2023-05-18T16:50:27+0200</time>
      </trkpt>
      <trkpt lat="44.94008" lon="6.56678">
        <ele>1404.7</ele>
        <time>2023-05-18T16:50:29+0200</time>
      </trkpt>
      <trkpt lat="44.94002" lon="6.56684">
        <ele>1405.1</ele>
        <time>2023-05-18T16:50:31+0200</time>
      </trkpt>
      <trkpt lat="44.93997" lon="6.56689">
        <ele>1405.3</ele>
        <time>2023-05-18T16:50:33+0200</time>
      </trkpt>
      <trkpt lat="44.93991" lon="6.56694">
        <ele>1405.4</ele>
        <time>2023-05-18T16:50:35+0200</time>
      </trkpt>
      <trkpt lat="44.93986" lon="6.56698">
        <ele>1405.3</ele>
        <time>2023-05-18T16:50:37+0200</time>
      </trkpt>
      <trkpt lat="44.93981" lon="6.56702">
        <ele>1405.3</ele>
        <time>2023-05-18T16:50:38+0200</time>
      </trkpt>
      <trkpt lat="44.93977" lon="6.56705">
        <ele>1405.4</ele>
        <time>2023-05-18T16:50:39+0200</time>
      </trkpt>
      <trkpt lat="44.93972" lon="6.56708">
        <ele>1405.7</ele>
        <time>2023-05-18T16:50:44+0200</time>
      </trkpt>
      <trkpt lat="44.93963" lon="6.5671">
        <ele>1406.3</ele>
        <time>2023-05-18T16:50:45+0200</time>
      </trkpt>
      <trkpt lat="44.93957" lon="6.56715">
        <ele>1406.1</ele>
        <time>2023-05-18T16:50:46+0200</time>
      </trkpt>
      <trkpt lat="44.93952" lon="6.5672">
        <ele>1405.7</ele>
        <time>2023-05-18T16:50:47+0200</time>
      </trkpt>
      <trkpt lat="44.93949" lon="6.56728">
        <ele>1404.4</ele>
        <time>2023-05-18T16:50:50+0200</time>
      </trkpt>
      <trkpt lat="44.93948" lon="6.56735">
        <ele>1403.3</ele>
        <time>2023-05-18T16:50:51+0200</time>
      </trkpt>
      <trkpt lat="44.93947" lon="6.56743">
        <ele>1402</ele>
        <time>2023-05-18T16:50:52+0200</time>
      </trkpt>
      <trkpt lat="44.93945" lon="6.56756">
        <ele>1400</ele>
        <time>2023-05-18T16:50:54+0200</time>
      </trkpt>
      <trkpt lat="44.93975" lon="6.56834">
        <ele>1384.6</ele>
        <time>2023-05-18T16:50:55+0200</time>
      </trkpt>
      <trkpt lat="44.93971" lon="6.56839">
        <ele>1384.5</ele>
        <time>2023-05-18T16:50:56+0200</time>
      </trkpt>
      <trkpt lat="44.93966" lon="6.56842">
        <ele>1384.8</ele>
        <time>2023-05-18T16:50:57+0200</time>
      </trkpt>
      <trkpt lat="44.9396" lon="6.56843">
        <ele>1385.5</ele>
        <time>2023-05-18T16:50:58+0200</time>
      </trkpt>
      <trkpt lat="44.93954" lon="6.56842">
        <ele>1386.2</ele>
        <time>2023-05-18T16:50:59+0200</time>
      </trkpt>
      <trkpt lat="44.93949" lon="6.56843">
        <ele>1386.7</ele>
        <time>2023-05-18T16:51:00+0200</time>
      </trkpt>
      <trkpt lat="44.93945" lon="6.56845">
        <ele>1387.2</ele>
        <time>2023-05-18T16:51:01+0200</time>
      </trkpt>
      <trkpt lat="44.93939" lon="6.56844">
        <ele>1388</ele>
        <time>2023-05-18T16:51:02+0200</time>
      </trkpt>
      <trkpt lat="44.93936" lon="6.56849">
        <ele>1388.1</ele>
        <time>2023-05-18T16:51:03+0200</time>
      </trkpt>
      <trkpt lat="44.93929" lon="6.5685">
        <ele>1389</ele>
        <time>2023-05-18T16:51:04+0200</time>
      </trkpt>
      <trkpt lat="44.93925" lon="6.56856">
        <ele>1389.2</ele>
        <time>2023-05-18T16:51:05+0200</time>
      </trkpt>
      <trkpt lat="44.9392" lon="6.56862">
        <ele>1389.4</ele>
        <time>2023-05-18T16:51:07+0200</time>
      </trkpt>
      <trkpt lat="44.93921" lon="6.56871">
        <ele>1388.7</ele>
        <time>2023-05-18T16:51:08+0200</time>
      </trkpt>
      <trkpt lat="44.93919" lon="6.56881">
        <ele>1388.2</ele>
        <time>2023-05-18T16:51:10+0200</time>
      </trkpt>
      <trkpt lat="44.93916" lon="6.56888">
        <ele>1388.2</ele>
        <time>2023-05-18T16:51:12+0200</time>
      </trkpt>
      <trkpt lat="44.93913" lon="6.56896">
        <ele>1387.6</ele>
        <time>2023-05-18T16:51:14+0200</time>
      </trkpt>
      <trkpt lat="44.93912" lon="6.56903">
        <ele>1386.8</ele>
        <time>2023-05-18T16:51:15+0200</time>
      </trkpt>
      <trkpt lat="44.9391" lon="6.56914">
        <ele>1385.7</ele>
        <time>2023-05-18T16:51:17+0200</time>
      </trkpt>
      <trkpt lat="44.93907" lon="6.56925">
        <ele>1384.4</ele>
        <time>2023-05-18T16:51:19+0200</time>
      </trkpt>
      <trkpt lat="44.93906" lon="6.56938">
        <ele>1382.1</ele>
        <time>2023-05-18T16:51:21+0200</time>
      </trkpt>
      <trkpt lat="44.93903" lon="6.56945">
        <ele>1381.4</ele>
        <time>2023-05-18T16:51:22+0200</time>
      </trkpt>
      <trkpt lat="44.93899" lon="6.56949">
        <ele>1381.4</ele>
        <time>2023-05-18T16:51:23+0200</time>
      </trkpt>
      <trkpt lat="44.93892" lon="6.56951">
        <ele>1382.1</ele>
        <time>2023-05-18T16:51:24+0200</time>
      </trkpt>
      <trkpt lat="44.93886" lon="6.56958">
        <ele>1381.8</ele>
        <time>2023-05-18T16:51:25+0200</time>
      </trkpt>
      <trkpt lat="44.93879" lon="6.56964">
        <ele>1381.6</ele>
        <time>2023-05-18T16:51:26+0200</time>
      </trkpt>
      <trkpt lat="44.93872" lon="6.56971">
        <ele>1381.5</ele>
        <time>2023-05-18T16:51:27+0200</time>
      </trkpt>
      <trkpt lat="44.93864" lon="6.56977">
        <ele>1381.6</ele>
        <time>2023-05-18T16:51:28+0200</time>
      </trkpt>
      <trkpt lat="44.93859" lon="6.56987">
        <ele>1380.9</ele>
        <time>2023-05-18T16:51:29+0200</time>
      </trkpt>
      <trkpt lat="44.93858" lon="6.56999">
        <ele>1379.1</ele>
        <time>2023-05-18T16:51:30+0200</time>
      </trkpt>
      <trkpt lat="44.93855" lon="6.57012">
        <ele>1377.3</ele>
        <time>2023-05-18T16:51:31+0200</time>
      </trkpt>
      <trkpt lat="44.9385" lon="6.57022">
        <ele>1376.2</ele>
        <time>2023-05-18T16:51:32+0200</time>
      </trkpt>
      <trkpt lat="44.93842" lon="6.57031">
        <ele>1375.9</ele>
        <time>2023-05-18T16:51:33+0200</time>
      </trkpt>
      <trkpt lat="44.93833" lon="6.57036">
        <ele>1376.6</ele>
        <time>2023-05-18T16:51:34+0200</time>
      </trkpt>
      <trkpt lat="44.93825" lon="6.5704">
        <ele>1378.2</ele>
        <time>2023-05-18T16:51:35+0200</time>
      </trkpt>
      <trkpt lat="44.9382" lon="6.57045">
        <ele>1378.7</ele>
        <time>2023-05-18T16:51:36+0200</time>
      </trkpt>
      <trkpt lat="44.93817" lon="6.57054">
        <ele>1377.4</ele>
        <time>2023-05-18T16:51:37+0200</time>
      </trkpt>
      <trkpt lat="44.93812" lon="6.57063">
        <ele>1376.8</ele>
        <time>2023-05-18T16:51:38+0200</time>
      </trkpt>
      <trkpt lat="44.93808" lon="6.57071">
        <ele>1376.2</ele>
        <time>2023-05-18T16:51:39+0200</time>
      </trkpt>
      <trkpt lat="44.93805" lon="6.57078">
        <ele>1375.5</ele>
        <time>2023-05-18T16:51:41+0200</time>
      </trkpt>
      <trkpt lat="44.93809" lon="6.57088">
        <ele>1372.7</ele>
        <time>2023-05-18T16:51:42+0200</time>
      </trkpt>
      <trkpt lat="44.93814" lon="6.57101">
        <ele>1370.3</ele>
        <time>2023-05-18T16:51:43+0200</time>
      </trkpt>
      <trkpt lat="44.93818" lon="6.57114">
        <ele>1368.4</ele>
        <time>2023-05-18T16:51:44+0200</time>
      </trkpt>
      <trkpt lat="44.93815" lon="6.57126">
        <ele>1367.8</ele>
        <time>2023-05-18T16:51:45+0200</time>
      </trkpt>
      <trkpt lat="44.93809" lon="6.57137">
        <ele>1367.1</ele>
        <time>2023-05-18T16:51:46+0200</time>
      </trkpt>
      <trkpt lat="44.93804" lon="6.57142">
        <ele>1367</ele>
        <time>2023-05-18T16:51:47+0200</time>
      </trkpt>
      <trkpt lat="44.938" lon="6.57153">
        <ele>1366.5</ele>
        <time>2023-05-18T16:51:48+0200</time>
      </trkpt>
      <trkpt lat="44.93796" lon="6.57164">
        <ele>1366</ele>
        <time>2023-05-18T16:51:49+0200</time>
      </trkpt>
      <trkpt lat="44.93792" lon="6.57174">
        <ele>1365.7</ele>
        <time>2023-05-18T16:51:50+0200</time>
      </trkpt>
      <trkpt lat="44.93788" lon="6.57185">
        <ele>1365.5</ele>
        <time>2023-05-18T16:51:51+0200</time>
      </trkpt>
      <trkpt lat="44.93785" lon="6.57197">
        <ele>1364.9</ele>
        <time>2023-05-18T16:51:52+0200</time>
      </trkpt>
      <trkpt lat="44.93784" lon="6.57208">
        <ele>1364.5</ele>
        <time>2023-05-18T16:51:53+0200</time>
      </trkpt>
      <trkpt lat="44.93782" lon="6.57219">
        <ele>1364.1</ele>
        <time>2023-05-18T16:51:54+0200</time>
      </trkpt>
      <trkpt lat="44.9378" lon="6.57229">
        <ele>1364</ele>
        <time>2023-05-18T16:51:55+0200</time>
      </trkpt>
      <trkpt lat="44.93778" lon="6.57238">
        <ele>1364</ele>
        <time>2023-05-18T16:51:56+0200</time>
      </trkpt>
      <trkpt lat="44.93776" lon="6.57246">
        <ele>1364.1</ele>
        <time>2023-05-18T16:51:57+0200</time>
      </trkpt>
      <trkpt lat="44.93775" lon="6.57253">
        <ele>1364</ele>
        <time>2023-05-18T16:51:59+0200</time>
      </trkpt>
      <trkpt lat="44.93774" lon="6.5726">
        <ele>1363.8</ele>
        <time>2023-05-18T16:52:00+0200</time>
      </trkpt>
      <trkpt lat="44.93772" lon="6.57273">
        <ele>1363.4</ele>
        <time>2023-05-18T16:52:02+0200</time>
      </trkpt>
      <trkpt lat="44.93772" lon="6.5728">
        <ele>1363.2</ele>
        <time>2023-05-18T16:52:03+0200</time>
      </trkpt>
      <trkpt lat="44.93771" lon="6.57289">
        <ele>1363.3</ele>
        <time>2023-05-18T16:52:04+0200</time>
      </trkpt>
      <trkpt lat="44.93769" lon="6.57298">
        <ele>1363.3</ele>
        <time>2023-05-18T16:52:05+0200</time>
      </trkpt>
      <trkpt lat="44.93767" lon="6.57306">
        <ele>1363.4</ele>
        <time>2023-05-18T16:52:06+0200</time>
      </trkpt>
      <trkpt lat="44.93765" lon="6.57314">
        <ele>1363.4</ele>
        <time>2023-05-18T16:52:07+0200</time>
      </trkpt>
      <trkpt lat="44.93763" lon="6.57319">
        <ele>1363.5</ele>
        <time>2023-05-18T16:52:08+0200</time>
      </trkpt>
      <trkpt lat="44.93764" lon="6.5733">
        <ele>1363.5</ele>
        <time>2023-05-18T16:52:09+0200</time>
      </trkpt>
      <trkpt lat="44.93765" lon="6.57339">
        <ele>1363.5</ele>
        <time>2023-05-18T16:52:10+0200</time>
      </trkpt>
      <trkpt lat="44.93764" lon="6.57349">
        <ele>1363.5</ele>
        <time>2023-05-18T16:52:11+0200</time>
      </trkpt>
      <trkpt lat="44.93764" lon="6.57357">
        <ele>1363.5</ele>
        <time>2023-05-18T16:52:12+0200</time>
      </trkpt>
      <trkpt lat="44.93759" lon="6.5736">
        <ele>1363.7</ele>
        <time>2023-05-18T16:52:13+0200</time>
      </trkpt>
      <trkpt lat="44.93761" lon="6.57372">
        <ele>1363.2</ele>
        <time>2023-05-18T16:52:14+0200</time>
      </trkpt>
      <trkpt lat="44.9376" lon="6.57381">
        <ele>1362.9</ele>
        <time>2023-05-18T16:52:15+0200</time>
      </trkpt>
      <trkpt lat="44.93758" lon="6.57389">
        <ele>1362.7</ele>
        <time>2023-05-18T16:52:16+0200</time>
      </trkpt>
      <trkpt lat="44.93756" lon="6.57396">
        <ele>1362.8</ele>
        <time>2023-05-18T16:52:17+0200</time>
      </trkpt>
      <trkpt lat="44.93752" lon="6.57403">
        <ele>1362.9</ele>
        <time>2023-05-18T16:52:18+0200</time>
      </trkpt>
      <trkpt lat="44.93751" lon="6.57412">
        <ele>1363</ele>
        <time>2023-05-18T16:52:19+0200</time>
      </trkpt>
      <trkpt lat="44.93753" lon="6.57422">
        <ele>1362.7</ele>
        <time>2023-05-18T16:52:20+0200</time>
      </trkpt>
      <trkpt lat="44.93759" lon="6.57429">
        <ele>1362.2</ele>
        <time>2023-05-18T16:52:21+0200</time>
      </trkpt>
      <trkpt lat="44.93763" lon="6.57438">
        <ele>1361.8</ele>
        <time>2023-05-18T16:52:22+0200</time>
      </trkpt>
      <trkpt lat="44.93765" lon="6.57446">
        <ele>1361.4</ele>
        <time>2023-05-18T16:52:23+0200</time>
      </trkpt>
      <trkpt lat="44.93763" lon="6.57454">
        <ele>1361</ele>
        <time>2023-05-18T16:52:24+0200</time>
      </trkpt>
      <trkpt lat="44.93755" lon="6.57457">
        <ele>1361</ele>
        <time>2023-05-18T16:52:25+0200</time>
      </trkpt>
      <trkpt lat="44.9375" lon="6.57462">
        <ele>1360.7</ele>
        <time>2023-05-18T16:52:26+0200</time>
      </trkpt>
      <trkpt lat="44.93744" lon="6.57464">
        <ele>1361</ele>
        <time>2023-05-18T16:52:27+0200</time>
      </trkpt>
      <trkpt lat="44.93739" lon="6.57467">
        <ele>1361.2</ele>
        <time>2023-05-18T16:52:28+0200</time>
      </trkpt>
      <trkpt lat="44.93734" lon="6.57475">
        <ele>1361</ele>
        <time>2023-05-18T16:52:29+0200</time>
      </trkpt>
      <trkpt lat="44.9373" lon="6.57483">
        <ele>1360.8</ele>
        <time>2023-05-18T16:52:30+0200</time>
      </trkpt>
      <trkpt lat="44.93724" lon="6.57487">
        <ele>1360.8</ele>
        <time>2023-05-18T16:52:31+0200</time>
      </trkpt>
      <trkpt lat="44.93719" lon="6.57492">
        <ele>1361.1</ele>
        <time>2023-05-18T16:52:32+0200</time>
      </trkpt>
      <trkpt lat="44.93714" lon="6.57497">
        <ele>1361.4</ele>
        <time>2023-05-18T16:52:33+0200</time>
      </trkpt>
      <trkpt lat="44.93709" lon="6.57501">
        <ele>1361.8</ele>
        <time>2023-05-18T16:52:34+0200</time>
      </trkpt>
      <trkpt lat="44.93707" lon="6.57513">
        <ele>1361</ele>
        <time>2023-05-18T16:52:35+0200</time>
      </trkpt>
      <trkpt lat="44.93702" lon="6.57519">
        <ele>1361.1</ele>
        <time>2023-05-18T16:52:36+0200</time>
      </trkpt>
      <trkpt lat="44.93698" lon="6.57526">
        <ele>1360.8</ele>
        <time>2023-05-18T16:52:37+0200</time>
      </trkpt>
      <trkpt lat="44.93694" lon="6.57533">
        <ele>1360.5</ele>
        <time>2023-05-18T16:52:38+0200</time>
      </trkpt>
      <trkpt lat="44.93691" lon="6.57538">
        <ele>1360.6</ele>
        <time>2023-05-18T16:52:39+0200</time>
      </trkpt>
      <trkpt lat="44.93687" lon="6.57547">
        <ele>1360.3</ele>
        <time>2023-05-18T16:52:40+0200</time>
      </trkpt>
      <trkpt lat="44.93684" lon="6.57554">
        <ele>1360.4</ele>
        <time>2023-05-18T16:52:41+0200</time>
      </trkpt>
      <trkpt lat="44.93679" lon="6.5756">
        <ele>1361.1</ele>
        <time>2023-05-18T16:52:42+0200</time>
      </trkpt>
      <trkpt lat="44.93673" lon="6.57566">
        <ele>1361.7</ele>
        <time>2023-05-18T16:52:43+0200</time>
      </trkpt>
      <trkpt lat="44.93668" lon="6.57572">
        <ele>1361.9</ele>
        <time>2023-05-18T16:52:44+0200</time>
      </trkpt>
      <trkpt lat="44.93664" lon="6.57579">
        <ele>1362.4</ele>
        <time>2023-05-18T16:52:45+0200</time>
      </trkpt>
      <trkpt lat="44.93657" lon="6.57584">
        <ele>1363.9</ele>
        <time>2023-05-18T16:52:46+0200</time>
      </trkpt>
      <trkpt lat="44.93652" lon="6.57589">
        <ele>1364.8</ele>
        <time>2023-05-18T16:52:47+0200</time>
      </trkpt>
      <trkpt lat="44.93649" lon="6.57596">
        <ele>1364.9</ele>
        <time>2023-05-18T16:52:48+0200</time>
      </trkpt>
      <trkpt lat="44.93647" lon="6.57607">
        <ele>1364.3</ele>
        <time>2023-05-18T16:52:49+0200</time>
      </trkpt>
      <trkpt lat="44.93644" lon="6.57614">
        <ele>1364.4</ele>
        <time>2023-05-18T16:52:50+0200</time>
      </trkpt>
      <trkpt lat="44.93642" lon="6.57621">
        <ele>1364.7</ele>
        <time>2023-05-18T16:52:51+0200</time>
      </trkpt>
      <trkpt lat="44.93637" lon="6.57628">
        <ele>1365.9</ele>
        <time>2023-05-18T16:52:52+0200</time>
      </trkpt>
      <trkpt lat="44.93637" lon="6.57639">
        <ele>1364.8</ele>
        <time>2023-05-18T16:52:53+0200</time>
      </trkpt>
      <trkpt lat="44.93636" lon="6.57648">
        <ele>1364.8</ele>
        <time>2023-05-18T16:52:54+0200</time>
      </trkpt>
      <trkpt lat="44.93635" lon="6.57657">
        <ele>1365.2</ele>
        <time>2023-05-18T16:52:55+0200</time>
      </trkpt>
      <trkpt lat="44.93637" lon="6.57665">
        <ele>1364.1</ele>
        <time>2023-05-18T16:52:56+0200</time>
      </trkpt>
      <trkpt lat="44.93636" lon="6.57672">
        <ele>1364</ele>
        <time>2023-05-18T16:52:57+0200</time>
      </trkpt>
      <trkpt lat="44.93638" lon="6.57687">
        <ele>1362.7</ele>
        <time>2023-05-18T16:52:59+0200</time>
      </trkpt>
      <trkpt lat="44.93639" lon="6.57693">
        <ele>1362</ele>
        <time>2023-05-18T16:53:00+0200</time>
      </trkpt>
      <trkpt lat="44.93639" lon="6.57704">
        <ele>1362.2</ele>
        <time>2023-05-18T16:53:01+0200</time>
      </trkpt>
      <trkpt lat="44.93637" lon="6.57712">
        <ele>1362.7</ele>
        <time>2023-05-18T16:53:02+0200</time>
      </trkpt>
      <trkpt lat="44.93638" lon="6.57723">
        <ele>1362.5</ele>
        <time>2023-05-18T16:53:03+0200</time>
      </trkpt>
      <trkpt lat="44.93638" lon="6.57731">
        <ele>1362</ele>
        <time>2023-05-18T16:53:04+0200</time>
      </trkpt>
      <trkpt lat="44.93641" lon="6.57742">
        <ele>1361</ele>
        <time>2023-05-18T16:53:06+0200</time>
      </trkpt>
      <trkpt lat="44.9364" lon="6.57751">
        <ele>1360.9</ele>
        <time>2023-05-18T16:53:07+0200</time>
      </trkpt>
      <trkpt lat="44.93642" lon="6.57758">
        <ele>1360.8</ele>
        <time>2023-05-18T16:53:08+0200</time>
      </trkpt>
      <trkpt lat="44.93643" lon="6.57766">
        <ele>1360.9</ele>
        <time>2023-05-18T16:53:09+0200</time>
      </trkpt>
      <trkpt lat="44.93639" lon="6.57775">
        <ele>1361.8</ele>
        <time>2023-05-18T16:53:11+0200</time>
      </trkpt>
      <trkpt lat="44.93641" lon="6.57786">
        <ele>1361.6</ele>
        <time>2023-05-18T16:53:13+0200</time>
      </trkpt>
      <trkpt lat="44.93644" lon="6.57792">
        <ele>1361.2</ele>
        <time>2023-05-18T16:53:14+0200</time>
      </trkpt>
      <trkpt lat="44.93647" lon="6.578">
        <ele>1360.6</ele>
        <time>2023-05-18T16:53:15+0200</time>
      </trkpt>
      <trkpt lat="44.93651" lon="6.5781">
        <ele>1359.8</ele>
        <time>2023-05-18T16:53:17+0200</time>
      </trkpt>
      <trkpt lat="44.93655" lon="6.57817">
        <ele>1358.9</ele>
        <time>2023-05-18T16:53:19+0200</time>
      </trkpt>
      <trkpt lat="44.93658" lon="6.57825">
        <ele>1358.3</ele>
        <time>2023-05-18T16:53:20+0200</time>
      </trkpt>
      <trkpt lat="44.93661" lon="6.57839">
        <ele>1357.8</ele>
        <time>2023-05-18T16:53:22+0200</time>
      </trkpt>
      <trkpt lat="44.93662" lon="6.57847">
        <ele>1357.7</ele>
        <time>2023-05-18T16:53:23+0200</time>
      </trkpt>
      <trkpt lat="44.93661" lon="6.57854">
        <ele>1357.8</ele>
        <time>2023-05-18T16:53:24+0200</time>
      </trkpt>
      <trkpt lat="44.93667" lon="6.57864">
        <ele>1357</ele>
        <time>2023-05-18T16:53:26+0200</time>
      </trkpt>
      <trkpt lat="44.93667" lon="6.57872">
        <ele>1357</ele>
        <time>2023-05-18T16:53:28+0200</time>
      </trkpt>
      <trkpt lat="44.93663" lon="6.57878">
        <ele>1357.5</ele>
        <time>2023-05-18T16:53:29+0200</time>
      </trkpt>
      <trkpt lat="44.93661" lon="6.57888">
        <ele>1357.6</ele>
        <time>2023-05-18T16:53:31+0200</time>
      </trkpt>
      <trkpt lat="44.93656" lon="6.57896">
        <ele>1358</ele>
        <time>2023-05-18T16:53:33+0200</time>
      </trkpt>
      <trkpt lat="44.93652" lon="6.57904">
        <ele>1358.3</ele>
        <time>2023-05-18T16:53:35+0200</time>
      </trkpt>
      <trkpt lat="44.93649" lon="6.5791">
        <ele>1358.4</ele>
        <time>2023-05-18T16:53:36+0200</time>
      </trkpt>
      <trkpt lat="44.93647" lon="6.57917">
        <ele>1358.5</ele>
        <time>2023-05-18T16:53:37+0200</time>
      </trkpt>
      <trkpt lat="44.93644" lon="6.57925">
        <ele>1358.3</ele>
        <time>2023-05-18T16:53:38+0200</time>
      </trkpt>
      <trkpt lat="44.93643" lon="6.57931">
        <ele>1358.2</ele>
        <time>2023-05-18T16:53:39+0200</time>
      </trkpt>
      <trkpt lat="44.93643" lon="6.57937">
        <ele>1357.9</ele>
        <time>2023-05-18T16:53:41+0200</time>
      </trkpt>
      <trkpt lat="44.93641" lon="6.57947">
        <ele>1357.8</ele>
        <time>2023-05-18T16:53:42+0200</time>
      </trkpt>
      <trkpt lat="44.9364" lon="6.57956">
        <ele>1357.6</ele>
        <time>2023-05-18T16:53:43+0200</time>
      </trkpt>
      <trkpt lat="44.93639" lon="6.57964">
        <ele>1357.3</ele>
        <time>2023-05-18T16:53:44+0200</time>
      </trkpt>
      <trkpt lat="44.9364" lon="6.57975">
        <ele>1356.8</ele>
        <time>2023-05-18T16:53:45+0200</time>
      </trkpt>
      <trkpt lat="44.93641" lon="6.57984">
        <ele>1356</ele>
        <time>2023-05-18T16:53:46+0200</time>
      </trkpt>
      <trkpt lat="44.93641" lon="6.57994">
        <ele>1355.4</ele>
        <time>2023-05-18T16:53:47+0200</time>
      </trkpt>
      <trkpt lat="44.93641" lon="6.58002">
        <ele>1354.9</ele>
        <time>2023-05-18T16:53:48+0200</time>
      </trkpt>
      <trkpt lat="44.9364" lon="6.58011">
        <ele>1354.6</ele>
        <time>2023-05-18T16:53:49+0200</time>
      </trkpt>
      <trkpt lat="44.93639" lon="6.58021">
        <ele>1354.2</ele>
        <time>2023-05-18T16:53:50+0200</time>
      </trkpt>
      <trkpt lat="44.93638" lon="6.58029">
        <ele>1354</ele>
        <time>2023-05-18T16:53:51+0200</time>
      </trkpt>
      <trkpt lat="44.93636" lon="6.58038">
        <ele>1353.7</ele>
        <time>2023-05-18T16:53:52+0200</time>
      </trkpt>
      <trkpt lat="44.93635" lon="6.58045">
        <ele>1353.4</ele>
        <time>2023-05-18T16:53:53+0200</time>
      </trkpt>
      <trkpt lat="44.93632" lon="6.58053">
        <ele>1353.1</ele>
        <time>2023-05-18T16:53:54+0200</time>
      </trkpt>
      <trkpt lat="44.93629" lon="6.5806">
        <ele>1353</ele>
        <time>2023-05-18T16:53:55+0200</time>
      </trkpt>
      <trkpt lat="44.93626" lon="6.58068">
        <ele>1353</ele>
        <time>2023-05-18T16:53:56+0200</time>
      </trkpt>
      <trkpt lat="44.93623" lon="6.58075">
        <ele>1353</ele>
        <time>2023-05-18T16:53:57+0200</time>
      </trkpt>
      <trkpt lat="44.9362" lon="6.58083">
        <ele>1353</ele>
        <time>2023-05-18T16:53:58+0200</time>
      </trkpt>
      <trkpt lat="44.93618" lon="6.58091">
        <ele>1353</ele>
        <time>2023-05-18T16:53:59+0200</time>
      </trkpt>
      <trkpt lat="44.93615" lon="6.58098">
        <ele>1353</ele>
        <time>2023-05-18T16:54:00+0200</time>
      </trkpt>
      <trkpt lat="44.93612" lon="6.58106">
        <ele>1353</ele>
        <time>2023-05-18T16:54:01+0200</time>
      </trkpt>
      <trkpt lat="44.93609" lon="6.58113">
        <ele>1353</ele>
        <time>2023-05-18T16:54:02+0200</time>
      </trkpt>
      <trkpt lat="44.93606" lon="6.58121">
        <ele>1353</ele>
        <time>2023-05-18T16:54:03+0200</time>
      </trkpt>
      <trkpt lat="44.93603" lon="6.58129">
        <ele>1353</ele>
        <time>2023-05-18T16:54:04+0200</time>
      </trkpt>
      <trkpt lat="44.936" lon="6.58136">
        <ele>1353</ele>
        <time>2023-05-18T16:54:05+0200</time>
      </trkpt>
      <trkpt lat="44.93596" lon="6.58143">
        <ele>1352.9</ele>
        <time>2023-05-18T16:54:06+0200</time>
      </trkpt>
      <trkpt lat="44.93592" lon="6.58151">
        <ele>1352.6</ele>
        <time>2023-05-18T16:54:07+0200</time>
      </trkpt>
      <trkpt lat="44.93589" lon="6.58159">
        <ele>1352.3</ele>
        <time>2023-05-18T16:54:08+0200</time>
      </trkpt>
      <trkpt lat="44.93589" lon="6.58167">
        <ele>1352</ele>
        <time>2023-05-18T16:54:09+0200</time>
      </trkpt>
      <trkpt lat="44.93586" lon="6.58176">
        <ele>1352</ele>
        <time>2023-05-18T16:54:10+0200</time>
      </trkpt>
      <trkpt lat="44.93585" lon="6.58183">
        <ele>1352</ele>
        <time>2023-05-18T16:54:11+0200</time>
      </trkpt>
      <trkpt lat="44.93585" lon="6.58191">
        <ele>1352</ele>
        <time>2023-05-18T16:54:12+0200</time>
      </trkpt>
      <trkpt lat="44.93582" lon="6.58199">
        <ele>1352</ele>
        <time>2023-05-18T16:54:13+0200</time>
      </trkpt>
      <trkpt lat="44.93582" lon="6.58206">
        <ele>1352</ele>
        <time>2023-05-18T16:54:14+0200</time>
      </trkpt>
      <trkpt lat="44.93582" lon="6.58216">
        <ele>1352</ele>
        <time>2023-05-18T16:54:15+0200</time>
      </trkpt>
      <trkpt lat="44.93582" lon="6.58225">
        <ele>1351.9</ele>
        <time>2023-05-18T16:54:16+0200</time>
      </trkpt>
      <trkpt lat="44.93581" lon="6.58233">
        <ele>1351.6</ele>
        <time>2023-05-18T16:54:17+0200</time>
      </trkpt>
      <trkpt lat="44.93581" lon="6.58242">
        <ele>1351.4</ele>
        <time>2023-05-18T16:54:18+0200</time>
      </trkpt>
      <trkpt lat="44.93583" lon="6.58249">
        <ele>1351</ele>
        <time>2023-05-18T16:54:19+0200</time>
      </trkpt>
      <trkpt lat="44.93584" lon="6.58258">
        <ele>1351</ele>
        <time>2023-05-18T16:54:20+0200</time>
      </trkpt>
      <trkpt lat="44.93586" lon="6.58265">
        <ele>1351.1</ele>
        <time>2023-05-18T16:54:21+0200</time>
      </trkpt>
      <trkpt lat="44.9359" lon="6.58271">
        <ele>1351.2</ele>
        <time>2023-05-18T16:54:22+0200</time>
      </trkpt>
      <trkpt lat="44.93595" lon="6.58275">
        <ele>1351.4</ele>
        <time>2023-05-18T16:54:23+0200</time>
      </trkpt>
      <trkpt lat="44.93599" lon="6.58278">
        <ele>1351.6</ele>
        <time>2023-05-18T16:54:24+0200</time>
      </trkpt>
      <trkpt lat="44.93605" lon="6.58281">
        <ele>1351.8</ele>
        <time>2023-05-18T16:54:25+0200</time>
      </trkpt>
      <trkpt lat="44.9361" lon="6.58284">
        <ele>1352</ele>
        <time>2023-05-18T16:54:26+0200</time>
      </trkpt>
      <trkpt lat="44.93615" lon="6.58288">
        <ele>1352.2</ele>
        <time>2023-05-18T16:54:27+0200</time>
      </trkpt>
      <trkpt lat="44.93622" lon="6.58294">
        <ele>1352.6</ele>
        <time>2023-05-18T16:54:29+0200</time>
      </trkpt>
      <trkpt lat="44.93626" lon="6.58297">
        <ele>1352.9</ele>
        <time>2023-05-18T16:54:30+0200</time>
      </trkpt>
      <trkpt lat="44.93634" lon="6.58303">
        <ele>1353.6</ele>
        <time>2023-05-18T16:54:32+0200</time>
      </trkpt>
      <trkpt lat="44.9364" lon="6.5831">
        <ele>1354.2</ele>
        <time>2023-05-18T16:54:34+0200</time>
      </trkpt>
      <trkpt lat="44.93633" lon="6.58328">
        <ele>1354.4</ele>
        <time>2023-05-18T16:54:36+0200</time>
      </trkpt>
      <trkpt lat="44.9363" lon="6.58334">
        <ele>1354.4</ele>
        <time>2023-05-18T16:54:37+0200</time>
      </trkpt>
      <trkpt lat="44.93624" lon="6.58344">
        <ele>1353.9</ele>
        <time>2023-05-18T16:54:39+0200</time>
      </trkpt>
      <trkpt lat="44.9362" lon="6.5835">
        <ele>1353.7</ele>
        <time>2023-05-18T16:54:40+0200</time>
      </trkpt>
      <trkpt lat="44.93617" lon="6.58356">
        <ele>1353.4</ele>
        <time>2023-05-18T16:54:41+0200</time>
      </trkpt>
      <trkpt lat="44.93613" lon="6.58362">
        <ele>1353.2</ele>
        <time>2023-05-18T16:54:42+0200</time>
      </trkpt>
      <trkpt lat="44.93611" lon="6.58369">
        <ele>1353.3</ele>
        <time>2023-05-18T16:54:43+0200</time>
      </trkpt>
      <trkpt lat="44.93606" lon="6.58376">
        <ele>1353.3</ele>
        <time>2023-05-18T16:54:44+0200</time>
      </trkpt>
      <trkpt lat="44.93602" lon="6.58382">
        <ele>1353.2</ele>
        <time>2023-05-18T16:54:45+0200</time>
      </trkpt>
      <trkpt lat="44.93598" lon="6.58388">
        <ele>1353</ele>
        <time>2023-05-18T16:54:46+0200</time>
      </trkpt>
      <trkpt lat="44.93593" lon="6.58394">
        <ele>1352.8</ele>
        <time>2023-05-18T16:54:47+0200</time>
      </trkpt>
      <trkpt lat="44.93589" lon="6.58399">
        <ele>1352.7</ele>
        <time>2023-05-18T16:54:48+0200</time>
      </trkpt>
      <trkpt lat="44.93584" lon="6.58404">
        <ele>1352.6</ele>
        <time>2023-05-18T16:54:49+0200</time>
      </trkpt>
      <trkpt lat="44.93575" lon="6.58414">
        <ele>1352.6</ele>
        <time>2023-05-18T16:54:51+0200</time>
      </trkpt>
      <trkpt lat="44.93569" lon="6.58419">
        <ele>1352.7</ele>
        <time>2023-05-18T16:54:52+0200</time>
      </trkpt>
      <trkpt lat="44.93565" lon="6.58424">
        <ele>1352.8</ele>
        <time>2023-05-18T16:54:53+0200</time>
      </trkpt>
      <trkpt lat="44.93561" lon="6.5843">
        <ele>1353.2</ele>
        <time>2023-05-18T16:54:54+0200</time>
      </trkpt>
      <trkpt lat="44.93555" lon="6.58433">
        <ele>1353.2</ele>
        <time>2023-05-18T16:54:55+0200</time>
      </trkpt>
      <trkpt lat="44.9355" lon="6.58437">
        <ele>1353.4</ele>
        <time>2023-05-18T16:54:56+0200</time>
      </trkpt>
      <trkpt lat="44.93545" lon="6.58444">
        <ele>1353.9</ele>
        <time>2023-05-18T16:54:57+0200</time>
      </trkpt>
      <trkpt lat="44.9354" lon="6.58447">
        <ele>1354.2</ele>
        <time>2023-05-18T16:54:58+0200</time>
      </trkpt>
      <trkpt lat="44.93535" lon="6.58449">
        <ele>1354.4</ele>
        <time>2023-05-18T16:54:59+0200</time>
      </trkpt>
      <trkpt lat="44.93529" lon="6.58451">
        <ele>1354.5</ele>
        <time>2023-05-18T16:55:00+0200</time>
      </trkpt>
      <trkpt lat="44.93522" lon="6.58452">
        <ele>1354.4</ele>
        <time>2023-05-18T16:55:01+0200</time>
      </trkpt>
      <trkpt lat="44.93511" lon="6.58452">
        <ele>1354.1</ele>
        <time>2023-05-18T16:55:03+0200</time>
      </trkpt>
      <trkpt lat="44.93505" lon="6.58452">
        <ele>1354</ele>
        <time>2023-05-18T16:55:04+0200</time>
      </trkpt>
      <trkpt lat="44.93499" lon="6.58452">
        <ele>1353.8</ele>
        <time>2023-05-18T16:55:05+0200</time>
      </trkpt>
      <trkpt lat="44.93493" lon="6.58452">
        <ele>1353.6</ele>
        <time>2023-05-18T16:55:06+0200</time>
      </trkpt>
      <trkpt lat="44.93488" lon="6.58452">
        <ele>1353.3</ele>
        <time>2023-05-18T16:55:07+0200</time>
      </trkpt>
      <trkpt lat="44.93482" lon="6.58451">
        <ele>1353.1</ele>
        <time>2023-05-18T16:55:08+0200</time>
      </trkpt>
      <trkpt lat="44.93475" lon="6.58451">
        <ele>1352.8</ele>
        <time>2023-05-18T16:55:09+0200</time>
      </trkpt>
      <trkpt lat="44.9347" lon="6.58449">
        <ele>1352.4</ele>
        <time>2023-05-18T16:55:10+0200</time>
      </trkpt>
      <trkpt lat="44.93463" lon="6.58451">
        <ele>1352.3</ele>
        <time>2023-05-18T16:55:11+0200</time>
      </trkpt>
      <trkpt lat="44.93457" lon="6.5845">
        <ele>1351.9</ele>
        <time>2023-05-18T16:55:12+0200</time>
      </trkpt>
      <trkpt lat="44.93452" lon="6.58451">
        <ele>1351.8</ele>
        <time>2023-05-18T16:55:13+0200</time>
      </trkpt>
      <trkpt lat="44.93447" lon="6.58452">
        <ele>1351.6</ele>
        <time>2023-05-18T16:55:14+0200</time>
      </trkpt>
      <trkpt lat="44.93438" lon="6.58453">
        <ele>1351.8</ele>
        <time>2023-05-18T16:55:16+0200</time>
      </trkpt>
      <trkpt lat="44.93433" lon="6.58456">
        <ele>1352</ele>
        <time>2023-05-18T16:55:17+0200</time>
      </trkpt>
      <trkpt lat="44.93427" lon="6.5846">
        <ele>1352</ele>
        <time>2023-05-18T16:55:18+0200</time>
      </trkpt>
      <trkpt lat="44.9342" lon="6.58466">
        <ele>1351.6</ele>
        <time>2023-05-18T16:55:19+0200</time>
      </trkpt>
      <trkpt lat="44.93415" lon="6.58472">
        <ele>1351</ele>
        <time>2023-05-18T16:55:20+0200</time>
      </trkpt>
      <trkpt lat="44.9341" lon="6.58476">
        <ele>1351.3</ele>
        <time>2023-05-18T16:55:21+0200</time>
      </trkpt>
      <trkpt lat="44.93404" lon="6.58479">
        <ele>1351.5</ele>
        <time>2023-05-18T16:55:22+0200</time>
      </trkpt>
      <trkpt lat="44.93395" lon="6.58489">
        <ele>1351.4</ele>
        <time>2023-05-18T16:55:24+0200</time>
      </trkpt>
      <trkpt lat="44.93391" lon="6.58495">
        <ele>1351.2</ele>
        <time>2023-05-18T16:55:25+0200</time>
      </trkpt>
      <trkpt lat="44.93386" lon="6.58497">
        <ele>1351.3</ele>
        <time>2023-05-18T16:55:26+0200</time>
      </trkpt>
      <trkpt lat="44.9338" lon="6.58502">
        <ele>1351.4</ele>
        <time>2023-05-18T16:55:28+0200</time>
      </trkpt>
      <trkpt lat="44.93374" lon="6.58506">
        <ele>1351.5</ele>
        <time>2023-05-18T16:55:30+0200</time>
      </trkpt>
      <trkpt lat="44.93367" lon="6.58509">
        <ele>1351.6</ele>
        <time>2023-05-18T16:55:32+0200</time>
      </trkpt>
      <trkpt lat="44.93362" lon="6.58511">
        <ele>1351.6</ele>
        <time>2023-05-18T16:55:33+0200</time>
      </trkpt>
      <trkpt lat="44.93357" lon="6.58513">
        <ele>1351.9</ele>
        <time>2023-05-18T16:55:34+0200</time>
      </trkpt>
      <trkpt lat="44.93354" lon="6.58517">
        <ele>1351.9</ele>
        <time>2023-05-18T16:55:35+0200</time>
      </trkpt>
      <trkpt lat="44.93347" lon="6.58522">
        <ele>1351.8</ele>
        <time>2023-05-18T16:55:37+0200</time>
      </trkpt>
      <trkpt lat="44.93347" lon="6.58533">
        <ele>1351.2</ele>
        <time>2023-05-18T16:55:38+0200</time>
      </trkpt>
      <trkpt lat="44.9334" lon="6.58539">
        <ele>1351.2</ele>
        <time>2023-05-18T16:55:40+0200</time>
      </trkpt>
      <trkpt lat="44.93335" lon="6.58543">
        <ele>1351.1</ele>
        <time>2023-05-18T16:55:41+0200</time>
      </trkpt>
      <trkpt lat="44.93324" lon="6.58529">
        <ele>1353.2</ele>
        <time>2023-05-18T16:55:42+0200</time>
      </trkpt>
      <trkpt lat="44.9332" lon="6.58534">
        <ele>1353.8</ele>
        <time>2023-05-18T16:55:43+0200</time>
      </trkpt>
      <trkpt lat="44.93315" lon="6.58533">
        <ele>1354.9</ele>
        <time>2023-05-18T16:55:44+0200</time>
      </trkpt>
      <trkpt lat="44.9331" lon="6.58539">
        <ele>1354.8</ele>
        <time>2023-05-18T16:55:45+0200</time>
      </trkpt>
      <trkpt lat="44.93306" lon="6.58543">
        <ele>1354.6</ele>
        <time>2023-05-18T16:55:45+0200</time>
      </trkpt>
      <trkpt lat="44.93301" lon="6.5855">
        <ele>1354.4</ele>
        <time>2023-05-18T16:55:48+0200</time>
      </trkpt>
      <trkpt lat="44.93297" lon="6.58556">
        <ele>1354.1</ele>
        <time>2023-05-18T16:55:49+0200</time>
      </trkpt>
      <trkpt lat="44.93295" lon="6.58567">
        <ele>1353.3</ele>
        <time>2023-05-18T16:55:51+0200</time>
      </trkpt>
      <trkpt lat="44.93294" lon="6.58575">
        <ele>1352.4</ele>
        <time>2023-05-18T16:55:52+0200</time>
      </trkpt>
      <trkpt lat="44.93291" lon="6.5858">
        <ele>1352.1</ele>
        <time>2023-05-18T16:55:53+0200</time>
      </trkpt>
      <trkpt lat="44.93287" lon="6.58589">
        <ele>1351.8</ele>
        <time>2023-05-18T16:55:55+0200</time>
      </trkpt>
      <trkpt lat="44.93283" lon="6.58594">
        <ele>1351.7</ele>
        <time>2023-05-18T16:55:57+0200</time>
      </trkpt>
      <trkpt lat="44.93277" lon="6.58596">
        <ele>1351.7</ele>
        <time>2023-05-18T16:55:59+0200</time>
      </trkpt>
      <trkpt lat="44.93274" lon="6.58603">
        <ele>1351.4</ele>
        <time>2023-05-18T16:56:01+0200</time>
      </trkpt>
      <trkpt lat="44.9327" lon="6.58611">
        <ele>1350.9</ele>
        <time>2023-05-18T16:56:03+0200</time>
      </trkpt>
      <trkpt lat="44.93267" lon="6.58618">
        <ele>1351.2</ele>
        <time>2023-05-18T16:56:05+0200</time>
      </trkpt>
      <trkpt lat="44.93266" lon="6.58624">
        <ele>1351.2</ele>
        <time>2023-05-18T16:56:06+0200</time>
      </trkpt>
      <trkpt lat="44.93269" lon="6.58636">
        <ele>1351.3</ele>
        <time>2023-05-18T16:56:08+0200</time>
      </trkpt>
      <trkpt lat="44.93272" lon="6.58643">
        <ele>1351.7</ele>
        <time>2023-05-18T16:56:09+0200</time>
      </trkpt>
      <trkpt lat="44.93276" lon="6.58651">
        <ele>1352.2</ele>
        <time>2023-05-18T16:56:10+0200</time>
      </trkpt>
      <trkpt lat="44.93279" lon="6.58659">
        <ele>1352.8</ele>
        <time>2023-05-18T16:56:11+0200</time>
      </trkpt>
      <trkpt lat="44.9328" lon="6.58665">
        <ele>1353.1</ele>
        <time>2023-05-18T16:56:12+0200</time>
      </trkpt>
      <trkpt lat="44.9328" lon="6.58672">
        <ele>1353.4</ele>
        <time>2023-05-18T16:56:13+0200</time>
      </trkpt>
      <trkpt lat="44.93275" lon="6.58678">
        <ele>1353.1</ele>
        <time>2023-05-18T16:56:15+0200</time>
      </trkpt>
      <trkpt lat="44.93268" lon="6.5868">
        <ele>1352.5</ele>
        <time>2023-05-18T16:56:17+0200</time>
      </trkpt>
      <trkpt lat="44.93262" lon="6.58677">
        <ele>1351.6</ele>
        <time>2023-05-18T16:56:19+0200</time>
      </trkpt>
      <trkpt lat="44.93259" lon="6.58664">
        <ele>1350.9</ele>
        <time>2023-05-18T16:56:21+0200</time>
      </trkpt>
      <trkpt lat="44.93252" lon="6.5866">
        <ele>1350.2</ele>
        <time>2023-05-18T16:56:22+0200</time>
      </trkpt>
      <trkpt lat="44.93247" lon="6.58657">
        <ele>1350.3</ele>
        <time>2023-05-18T16:56:23+0200</time>
      </trkpt>
      <trkpt lat="44.93238" lon="6.58669">
        <ele>1350.4</ele>
        <time>2023-05-18T16:56:24+0200</time>
      </trkpt>
      <trkpt lat="44.93232" lon="6.58665">
        <ele>1350.8</ele>
        <time>2023-05-18T16:56:25+0200</time>
      </trkpt>
      <trkpt lat="44.93226" lon="6.58661">
        <ele>1351.5</ele>
        <time>2023-05-18T16:56:26+0200</time>
      </trkpt>
      <trkpt lat="44.9322" lon="6.58663">
        <ele>1352</ele>
        <time>2023-05-18T16:56:27+0200</time>
      </trkpt>
      <trkpt lat="44.93214" lon="6.58663">
        <ele>1353</ele>
        <time>2023-05-18T16:56:28+0200</time>
      </trkpt>
      <trkpt lat="44.93209" lon="6.58666">
        <ele>1353.5</ele>
        <time>2023-05-18T16:56:29+0200</time>
      </trkpt>
      <trkpt lat="44.93203" lon="6.5867">
        <ele>1354</ele>
        <time>2023-05-18T16:56:30+0200</time>
      </trkpt>
      <trkpt lat="44.93194" lon="6.58675">
        <ele>1354.9</ele>
        <time>2023-05-18T16:56:32+0200</time>
      </trkpt>
      <trkpt lat="44.93189" lon="6.58678">
        <ele>1355.5</ele>
        <time>2023-05-18T16:56:33+0200</time>
      </trkpt>
      <trkpt lat="44.93185" lon="6.5868">
        <ele>1356.2</ele>
        <time>2023-05-18T16:56:34+0200</time>
      </trkpt>
      <trkpt lat="44.9318" lon="6.58683">
        <ele>1356.7</ele>
        <time>2023-05-18T16:56:35+0200</time>
      </trkpt>
      <trkpt lat="44.93172" lon="6.58688">
        <ele>1357.4</ele>
        <time>2023-05-18T16:56:37+0200</time>
      </trkpt>
      <trkpt lat="44.93164" lon="6.58693">
        <ele>1358</ele>
        <time>2023-05-18T16:56:39+0200</time>
      </trkpt>
      <trkpt lat="44.93158" lon="6.58699">
        <ele>1358.6</ele>
        <time>2023-05-18T16:56:41+0200</time>
      </trkpt>
      <trkpt lat="44.93153" lon="6.58704">
        <ele>1358.8</ele>
        <time>2023-05-18T16:56:43+0200</time>
      </trkpt>
      <trkpt lat="44.93149" lon="6.58707">
        <ele>1359.4</ele>
        <time>2023-05-18T16:56:45+0200</time>
      </trkpt>
      <trkpt lat="44.93146" lon="6.58714">
        <ele>1358.8</ele>
        <time>2023-05-18T16:56:47+0200</time>
      </trkpt>
      <trkpt lat="44.93143" lon="6.58719">
        <ele>1358.9</ele>
        <time>2023-05-18T16:56:49+0200</time>
      </trkpt>
      <trkpt lat="44.93134" lon="6.58713">
        <ele>1362.2</ele>
        <time>2023-05-18T16:56:52+0200</time>
      </trkpt>
      <trkpt lat="44.93138" lon="6.58717">
        <ele>1360.3</ele>
        <time>2023-05-18T16:57:00+0200</time>
      </trkpt>
      <trkpt lat="44.93141" lon="6.58722">
        <ele>1358.7</ele>
        <time>2023-05-18T16:57:08+0200</time>
      </trkpt>
      <trkpt lat="44.93136" lon="6.58721">
        <ele>1360.2</ele>
        <time>2023-05-18T16:57:18+0200</time>
      </trkpt>
      <trkpt lat="44.93131" lon="6.58719">
        <ele>1361.9</ele>
        <time>2023-05-18T16:57:31+0200</time>
      </trkpt>
      <trkpt lat="44.93131" lon="6.58731">
        <ele>1360.3</ele>
        <time>2023-05-18T16:57:39+0200</time>
      </trkpt>
      <trkpt lat="44.93131" lon="6.58737">
        <ele>1359.4</ele>
        <time>2023-05-18T16:57:40+0200</time>
      </trkpt>
      <trkpt lat="44.93131" lon="6.58745">
        <ele>1358.7</ele>
        <time>2023-05-18T16:57:40+0200</time>
      </trkpt>
      <trkpt lat="44.93131" lon="6.58753">
        <ele>1357.7</ele>
        <time>2023-05-18T16:57:41+0200</time>
      </trkpt>
      <trkpt lat="44.93129" lon="6.58762">
        <ele>1357.6</ele>
        <time>2023-05-18T16:57:42+0200</time>
      </trkpt>
      <trkpt lat="44.93128" lon="6.58774">
        <ele>1357</ele>
        <time>2023-05-18T16:57:43+0200</time>
      </trkpt>
      <trkpt lat="44.93138" lon="6.58785">
        <ele>1353.7</ele>
        <time>2023-05-18T16:57:44+0200</time>
      </trkpt>
      <trkpt lat="44.93138" lon="6.588">
        <ele>1352.6</ele>
        <time>2023-05-18T16:57:45+0200</time>
      </trkpt>
      <trkpt lat="44.93138" lon="6.58815">
        <ele>1351.6</ele>
        <time>2023-05-18T16:57:46+0200</time>
      </trkpt>
      <trkpt lat="44.93138" lon="6.5883">
        <ele>1350.5</ele>
        <time>2023-05-18T16:57:47+0200</time>
      </trkpt>
      <trkpt lat="44.93141" lon="6.58846">
        <ele>1348.9</ele>
        <time>2023-05-18T16:57:48+0200</time>
      </trkpt>
      <trkpt lat="44.9314" lon="6.58856">
        <ele>1348.3</ele>
        <time>2023-05-18T16:57:49+0200</time>
      </trkpt>
      <trkpt lat="44.9314" lon="6.58868">
        <ele>1347.3</ele>
        <time>2023-05-18T16:57:50+0200</time>
      </trkpt>
      <trkpt lat="44.93141" lon="6.58876">
        <ele>1346.5</ele>
        <time>2023-05-18T16:57:51+0200</time>
      </trkpt>
      <trkpt lat="44.93127" lon="6.58885">
        <ele>1348.5</ele>
        <time>2023-05-18T16:57:53+0200</time>
      </trkpt>
      <trkpt lat="44.93123" lon="6.58895">
        <ele>1348.6</ele>
        <time>2023-05-18T16:57:54+0200</time>
      </trkpt>
      <trkpt lat="44.93118" lon="6.58903">
        <ele>1348.8</ele>
        <time>2023-05-18T16:57:55+0200</time>
      </trkpt>
      <trkpt lat="44.93112" lon="6.58908">
        <ele>1349.1</ele>
        <time>2023-05-18T16:57:56+0200</time>
      </trkpt>
      <trkpt lat="44.93107" lon="6.58914">
        <ele>1349.1</ele>
        <time>2023-05-18T16:57:57+0200</time>
      </trkpt>
      <trkpt lat="44.93102" lon="6.58918">
        <ele>1349.4</ele>
        <time>2023-05-18T16:57:58+0200</time>
      </trkpt>
      <trkpt lat="44.93099" lon="6.58923">
        <ele>1349.2</ele>
        <time>2023-05-18T16:57:59+0200</time>
      </trkpt>
      <trkpt lat="44.93092" lon="6.58927">
        <ele>1349.9</ele>
        <time>2023-05-18T16:58:01+0200</time>
      </trkpt>
      <trkpt lat="44.93086" lon="6.58923">
        <ele>1351.6</ele>
        <time>2023-05-18T16:58:03+0200</time>
      </trkpt>
      <trkpt lat="44.93081" lon="6.58922">
        <ele>1352.6</ele>
        <time>2023-05-18T16:58:06+0200</time>
      </trkpt>
      <trkpt lat="44.93078" lon="6.58941">
        <ele>1350.3</ele>
        <time>2023-05-18T16:58:08+0200</time>
      </trkpt>
      <trkpt lat="44.93076" lon="6.5895">
        <ele>1349.3</ele>
        <time>2023-05-18T16:58:09+0200</time>
      </trkpt>
      <trkpt lat="44.93072" lon="6.58958">
        <ele>1348.7</ele>
        <time>2023-05-18T16:58:10+0200</time>
      </trkpt>
      <trkpt lat="44.9307" lon="6.5897">
        <ele>1347.2</ele>
        <time>2023-05-18T16:58:11+0200</time>
      </trkpt>
      <trkpt lat="44.93066" lon="6.58977">
        <ele>1346.8</ele>
        <time>2023-05-18T16:58:12+0200</time>
      </trkpt>
      <trkpt lat="44.93059" lon="6.58983">
        <ele>1346.7</ele>
        <time>2023-05-18T16:58:13+0200</time>
      </trkpt>
      <trkpt lat="44.93053" lon="6.58987">
        <ele>1346.6</ele>
        <time>2023-05-18T16:58:14+0200</time>
      </trkpt>
      <trkpt lat="44.93049" lon="6.58994">
        <ele>1345.9</ele>
        <time>2023-05-18T16:58:15+0200</time>
      </trkpt>
      <trkpt lat="44.93044" lon="6.59">
        <ele>1345.8</ele>
        <time>2023-05-18T16:58:16+0200</time>
      </trkpt>
      <trkpt lat="44.93036" lon="6.59005">
        <ele>1346.1</ele>
        <time>2023-05-18T16:58:17+0200</time>
      </trkpt>
      <trkpt lat="44.93028" lon="6.59006">
        <ele>1347</ele>
        <time>2023-05-18T16:58:18+0200</time>
      </trkpt>
      <trkpt lat="44.93021" lon="6.59005">
        <ele>1348.3</ele>
        <time>2023-05-18T16:58:19+0200</time>
      </trkpt>
      <trkpt lat="44.93014" lon="6.59004">
        <ele>1349.7</ele>
        <time>2023-05-18T16:58:20+0200</time>
      </trkpt>
      <trkpt lat="44.9301" lon="6.59013">
        <ele>1348.9</ele>
        <time>2023-05-18T16:58:21+0200</time>
      </trkpt>
      <trkpt lat="44.93004" lon="6.59019">
        <ele>1349</ele>
        <time>2023-05-18T16:58:22+0200</time>
      </trkpt>
      <trkpt lat="44.92997" lon="6.59024">
        <ele>1349.1</ele>
        <time>2023-05-18T16:58:23+0200</time>
      </trkpt>
      <trkpt lat="44.9299" lon="6.59031">
        <ele>1349.2</ele>
        <time>2023-05-18T16:58:24+0200</time>
      </trkpt>
      <trkpt lat="44.92982" lon="6.59038">
        <ele>1349.2</ele>
        <time>2023-05-18T16:58:25+0200</time>
      </trkpt>
      <trkpt lat="44.92975" lon="6.59044">
        <ele>1349.1</ele>
        <time>2023-05-18T16:58:26+0200</time>
      </trkpt>
      <trkpt lat="44.9297" lon="6.59049">
        <ele>1349.1</ele>
        <time>2023-05-18T16:58:27+0200</time>
      </trkpt>
      <trkpt lat="44.92962" lon="6.59057">
        <ele>1349.1</ele>
        <time>2023-05-18T16:58:28+0200</time>
      </trkpt>
      <trkpt lat="44.92957" lon="6.59062">
        <ele>1348.9</ele>
        <time>2023-05-18T16:58:29+0200</time>
      </trkpt>
      <trkpt lat="44.92951" lon="6.59069">
        <ele>1348.3</ele>
        <time>2023-05-18T16:58:30+0200</time>
      </trkpt>
      <trkpt lat="44.92946" lon="6.59076">
        <ele>1347.5</ele>
        <time>2023-05-18T16:58:31+0200</time>
      </trkpt>
      <trkpt lat="44.9294" lon="6.59085">
        <ele>1346.7</ele>
        <time>2023-05-18T16:58:32+0200</time>
      </trkpt>
      <trkpt lat="44.92935" lon="6.59092">
        <ele>1346.4</ele>
        <time>2023-05-18T16:58:33+0200</time>
      </trkpt>
      <trkpt lat="44.92931" lon="6.59098">
        <ele>1346</ele>
        <time>2023-05-18T16:58:34+0200</time>
      </trkpt>
      <trkpt lat="44.92926" lon="6.59105">
        <ele>1345.5</ele>
        <time>2023-05-18T16:58:35+0200</time>
      </trkpt>
      <trkpt lat="44.92925" lon="6.59113">
        <ele>1344.2</ele>
        <time>2023-05-18T16:58:36+0200</time>
      </trkpt>
      <trkpt lat="44.92922" lon="6.5912">
        <ele>1343.6</ele>
        <time>2023-05-18T16:58:37+0200</time>
      </trkpt>
      <trkpt lat="44.92916" lon="6.59129">
        <ele>1343.1</ele>
        <time>2023-05-18T16:58:38+0200</time>
      </trkpt>
      <trkpt lat="44.9291" lon="6.59134">
        <ele>1343.7</ele>
        <time>2023-05-18T16:58:39+0200</time>
      </trkpt>
      <trkpt lat="44.92905" lon="6.59138">
        <ele>1344</ele>
        <time>2023-05-18T16:58:40+0200</time>
      </trkpt>
      <trkpt lat="44.929" lon="6.59144">
        <ele>1344.3</ele>
        <time>2023-05-18T16:58:41+0200</time>
      </trkpt>
      <trkpt lat="44.92895" lon="6.5915">
        <ele>1344.3</ele>
        <time>2023-05-18T16:58:42+0200</time>
      </trkpt>
      <trkpt lat="44.92889" lon="6.59157">
        <ele>1344</ele>
        <time>2023-05-18T16:58:43+0200</time>
      </trkpt>
      <trkpt lat="44.92883" lon="6.59164">
        <ele>1344.3</ele>
        <time>2023-05-18T16:58:44+0200</time>
      </trkpt>
      <trkpt lat="44.92878" lon="6.5917">
        <ele>1344.7</ele>
        <time>2023-05-18T16:58:45+0200</time>
      </trkpt>
      <trkpt lat="44.92872" lon="6.59179">
        <ele>1345.1</ele>
        <time>2023-05-18T16:58:46+0200</time>
      </trkpt>
      <trkpt lat="44.92867" lon="6.59186">
        <ele>1345.3</ele>
        <time>2023-05-18T16:58:47+0200</time>
      </trkpt>
      <trkpt lat="44.92859" lon="6.59196">
        <ele>1345.6</ele>
        <time>2023-05-18T16:58:48+0200</time>
      </trkpt>
      <trkpt lat="44.92852" lon="6.59205">
        <ele>1346.2</ele>
        <time>2023-05-18T16:58:49+0200</time>
      </trkpt>
      <trkpt lat="44.92847" lon="6.59213">
        <ele>1346.5</ele>
        <time>2023-05-18T16:58:50+0200</time>
      </trkpt>
      <trkpt lat="44.92842" lon="6.59224">
        <ele>1346.1</ele>
        <time>2023-05-18T16:58:51+0200</time>
      </trkpt>
      <trkpt lat="44.92835" lon="6.59231">
        <ele>1346.7</ele>
        <time>2023-05-18T16:58:52+0200</time>
      </trkpt>
      <trkpt lat="44.92831" lon="6.59238">
        <ele>1346.6</ele>
        <time>2023-05-18T16:58:53+0200</time>
      </trkpt>
      <trkpt lat="44.92826" lon="6.59245">
        <ele>1346.8</ele>
        <time>2023-05-18T16:58:55+0200</time>
      </trkpt>
      <trkpt lat="44.92822" lon="6.5925">
        <ele>1346.9</ele>
        <time>2023-05-18T16:58:57+0200</time>
      </trkpt>
      <trkpt lat="44.92819" lon="6.59255">
        <ele>1347.1</ele>
        <time>2023-05-18T16:58:58+0200</time>
      </trkpt>
      <trkpt lat="44.92814" lon="6.5926">
        <ele>1347.3</ele>
        <time>2023-05-18T16:59:00+0200</time>
      </trkpt>
      <trkpt lat="44.9281" lon="6.59266">
        <ele>1347.6</ele>
        <time>2023-05-18T16:59:05+0200</time>
      </trkpt>
      <trkpt lat="44.92806" lon="6.5927">
        <ele>1347.8</ele>
        <time>2023-05-18T16:59:07+0200</time>
      </trkpt>
      <trkpt lat="44.928" lon="6.59277">
        <ele>1348.2</ele>
        <time>2023-05-18T16:59:10+0200</time>
      </trkpt>
      <trkpt lat="44.92796" lon="6.59282">
        <ele>1348.3</ele>
        <time>2023-05-18T16:59:12+0200</time>
      </trkpt>
      <trkpt lat="44.92791" lon="6.59288">
        <ele>1348.6</ele>
        <time>2023-05-18T16:59:14+0200</time>
      </trkpt>
      <trkpt lat="44.92779" lon="6.59276">
        <ele>1356</ele>
        <time>2023-05-18T16:59:15+0200</time>
      </trkpt>
      <trkpt lat="44.92776" lon="6.5928">
        <ele>1356.2</ele>
        <time>2023-05-18T16:59:16+0200</time>
      </trkpt>
      <trkpt lat="44.92771" lon="6.59282">
        <ele>1357.4</ele>
        <time>2023-05-18T16:59:17+0200</time>
      </trkpt>
      <trkpt lat="44.92768" lon="6.59288">
        <ele>1357.3</ele>
        <time>2023-05-18T16:59:18+0200</time>
      </trkpt>
      <trkpt lat="44.92767" lon="6.59297">
        <ele>1355.2</ele>
        <time>2023-05-18T16:59:19+0200</time>
      </trkpt>
      <trkpt lat="44.92765" lon="6.59302">
        <ele>1354.6</ele>
        <time>2023-05-18T16:59:20+0200</time>
      </trkpt>
      <trkpt lat="44.92759" lon="6.59317">
        <ele>1352.8</ele>
        <time>2023-05-18T16:59:22+0200</time>
      </trkpt>
      <trkpt lat="44.92755" lon="6.59325">
        <ele>1351.7</ele>
        <time>2023-05-18T16:59:23+0200</time>
      </trkpt>
      <trkpt lat="44.92752" lon="6.59335">
        <ele>1350</ele>
        <time>2023-05-18T16:59:24+0200</time>
      </trkpt>
      <trkpt lat="44.92746" lon="6.59344">
        <ele>1349.2</ele>
        <time>2023-05-18T16:59:25+0200</time>
      </trkpt>
      <trkpt lat="44.92746" lon="6.59359">
        <ele>1345.1</ele>
        <time>2023-05-18T16:59:26+0200</time>
      </trkpt>
      <trkpt lat="44.9274" lon="6.59368">
        <ele>1345.3</ele>
        <time>2023-05-18T16:59:27+0200</time>
      </trkpt>
      <trkpt lat="44.92734" lon="6.59375">
        <ele>1345.7</ele>
        <time>2023-05-18T16:59:28+0200</time>
      </trkpt>
      <trkpt lat="44.92725" lon="6.59379">
        <ele>1347.7</ele>
        <time>2023-05-18T16:59:29+0200</time>
      </trkpt>
      <trkpt lat="44.9272" lon="6.59389">
        <ele>1346.6</ele>
        <time>2023-05-18T16:59:30+0200</time>
      </trkpt>
      <trkpt lat="44.92715" lon="6.59399">
        <ele>1345.8</ele>
        <time>2023-05-18T16:59:31+0200</time>
      </trkpt>
      <trkpt lat="44.92711" lon="6.5941">
        <ele>1344.5</ele>
        <time>2023-05-18T16:59:32+0200</time>
      </trkpt>
      <trkpt lat="44.92707" lon="6.5942">
        <ele>1343.3</ele>
        <time>2023-05-18T16:59:33+0200</time>
      </trkpt>
      <trkpt lat="44.92703" lon="6.59432">
        <ele>1341.6</ele>
        <time>2023-05-18T16:59:34+0200</time>
      </trkpt>
      <trkpt lat="44.92698" lon="6.59444">
        <ele>1340.1</ele>
        <time>2023-05-18T16:59:35+0200</time>
      </trkpt>
      <trkpt lat="44.92695" lon="6.59455">
        <ele>1339</ele>
        <time>2023-05-18T16:59:36+0200</time>
      </trkpt>
      <trkpt lat="44.92696" lon="6.59468">
        <ele>1336.5</ele>
        <time>2023-05-18T16:59:37+0200</time>
      </trkpt>
      <trkpt lat="44.92691" lon="6.59478">
        <ele>1336.4</ele>
        <time>2023-05-18T16:59:38+0200</time>
      </trkpt>
      <trkpt lat="44.92685" lon="6.59489">
        <ele>1336.3</ele>
        <time>2023-05-18T16:59:39+0200</time>
      </trkpt>
      <trkpt lat="44.92681" lon="6.59496">
        <ele>1336.1</ele>
        <time>2023-05-18T16:59:40+0200</time>
      </trkpt>
      <trkpt lat="44.92674" lon="6.59507">
        <ele>1336.1</ele>
        <time>2023-05-18T16:59:41+0200</time>
      </trkpt>
      <trkpt lat="44.92669" lon="6.59518">
        <ele>1335.2</ele>
        <time>2023-05-18T16:59:42+0200</time>
      </trkpt>
      <trkpt lat="44.92664" lon="6.59528">
        <ele>1334.9</ele>
        <time>2023-05-18T16:59:43+0200</time>
      </trkpt>
      <trkpt lat="44.92658" lon="6.59539">
        <ele>1335.3</ele>
        <time>2023-05-18T16:59:44+0200</time>
      </trkpt>
      <trkpt lat="44.92651" lon="6.5955">
        <ele>1335.3</ele>
        <time>2023-05-18T16:59:45+0200</time>
      </trkpt>
      <trkpt lat="44.92645" lon="6.59562">
        <ele>1335.2</ele>
        <time>2023-05-18T16:59:45+0200</time>
      </trkpt>
      <trkpt lat="44.92639" lon="6.59573">
        <ele>1334.8</ele>
        <time>2023-05-18T16:59:46+0200</time>
      </trkpt>
      <trkpt lat="44.92634" lon="6.59583">
        <ele>1334.8</ele>
        <time>2023-05-18T16:59:47+0200</time>
      </trkpt>
      <trkpt lat="44.92629" lon="6.59594">
        <ele>1334.8</ele>
        <time>2023-05-18T16:59:48+0200</time>
      </trkpt>
      <trkpt lat="44.92624" lon="6.59606">
        <ele>1334.3</ele>
        <time>2023-05-18T16:59:49+0200</time>
      </trkpt>
      <trkpt lat="44.92619" lon="6.59617">
        <ele>1333.9</ele>
        <time>2023-05-18T16:59:50+0200</time>
      </trkpt>
      <trkpt lat="44.92614" lon="6.59628">
        <ele>1333.3</ele>
        <time>2023-05-18T16:59:51+0200</time>
      </trkpt>
      <trkpt lat="44.9261" lon="6.59638">
        <ele>1332.7</ele>
        <time>2023-05-18T16:59:52+0200</time>
      </trkpt>
      <trkpt lat="44.92605" lon="6.59649">
        <ele>1332.4</ele>
        <time>2023-05-18T16:59:53+0200</time>
      </trkpt>
      <trkpt lat="44.926" lon="6.5966">
        <ele>1331.8</ele>
        <time>2023-05-18T16:59:54+0200</time>
      </trkpt>
      <trkpt lat="44.92593" lon="6.59671">
        <ele>1332</ele>
        <time>2023-05-18T16:59:55+0200</time>
      </trkpt>
      <trkpt lat="44.92589" lon="6.59681">
        <ele>1331.8</ele>
        <time>2023-05-18T16:59:56+0200</time>
      </trkpt>
      <trkpt lat="44.92584" lon="6.59693">
        <ele>1331.3</ele>
        <time>2023-05-18T16:59:57+0200</time>
      </trkpt>
      <trkpt lat="44.9258" lon="6.59706">
        <ele>1330.4</ele>
        <time>2023-05-18T16:59:59+0200</time>
      </trkpt>
      <trkpt lat="44.92573" lon="6.59715">
        <ele>1330.8</ele>
        <time>2023-05-18T17:00:00+0200</time>
      </trkpt>
      <trkpt lat="44.92568" lon="6.59727">
        <ele>1330.1</ele>
        <time>2023-05-18T17:00:01+0200</time>
      </trkpt>
      <trkpt lat="44.92563" lon="6.5974">
        <ele>1328.5</ele>
        <time>2023-05-18T17:00:02+0200</time>
      </trkpt>
      <trkpt lat="44.92558" lon="6.59749">
        <ele>1327.7</ele>
        <time>2023-05-18T17:00:03+0200</time>
      </trkpt>
      <trkpt lat="44.92552" lon="6.59761">
        <ele>1327.1</ele>
        <time>2023-05-18T17:00:04+0200</time>
      </trkpt>
      <trkpt lat="44.92547" lon="6.5977">
        <ele>1326.5</ele>
        <time>2023-05-18T17:00:05+0200</time>
      </trkpt>
      <trkpt lat="44.92543" lon="6.59781">
        <ele>1325.5</ele>
        <time>2023-05-18T17:00:06+0200</time>
      </trkpt>
      <trkpt lat="44.92535" lon="6.5979">
        <ele>1326</ele>
        <time>2023-05-18T17:00:07+0200</time>
      </trkpt>
      <trkpt lat="44.9253" lon="6.59799">
        <ele>1325.3</ele>
        <time>2023-05-18T17:00:08+0200</time>
      </trkpt>
      <trkpt lat="44.92523" lon="6.59809">
        <ele>1325.8</ele>
        <time>2023-05-18T17:00:09+0200</time>
      </trkpt>
      <trkpt lat="44.92516" lon="6.59818">
        <ele>1326.8</ele>
        <time>2023-05-18T17:00:10+0200</time>
      </trkpt>
      <trkpt lat="44.92511" lon="6.59828">
        <ele>1326.5</ele>
        <time>2023-05-18T17:00:11+0200</time>
      </trkpt>
      <trkpt lat="44.92503" lon="6.59835">
        <ele>1327.6</ele>
        <time>2023-05-18T17:00:12+0200</time>
      </trkpt>
      <trkpt lat="44.92498" lon="6.59847">
        <ele>1327</ele>
        <time>2023-05-18T17:00:13+0200</time>
      </trkpt>
      <trkpt lat="44.92494" lon="6.59857">
        <ele>1327</ele>
        <time>2023-05-18T17:00:14+0200</time>
      </trkpt>
      <trkpt lat="44.9249" lon="6.59868">
        <ele>1326.8</ele>
        <time>2023-05-18T17:00:15+0200</time>
      </trkpt>
      <trkpt lat="44.92485" lon="6.5988">
        <ele>1326</ele>
        <time>2023-05-18T17:00:16+0200</time>
      </trkpt>
      <trkpt lat="44.92483" lon="6.59889">
        <ele>1324.7</ele>
        <time>2023-05-18T17:00:17+0200</time>
      </trkpt>
      <trkpt lat="44.92481" lon="6.59899">
        <ele>1324.4</ele>
        <time>2023-05-18T17:00:18+0200</time>
      </trkpt>
      <trkpt lat="44.92478" lon="6.59911">
        <ele>1323.6</ele>
        <time>2023-05-18T17:00:19+0200</time>
      </trkpt>
      <trkpt lat="44.92475" lon="6.59921">
        <ele>1323</ele>
        <time>2023-05-18T17:00:20+0200</time>
      </trkpt>
      <trkpt lat="44.92473" lon="6.59929">
        <ele>1322.6</ele>
        <time>2023-05-18T17:00:21+0200</time>
      </trkpt>
      <trkpt lat="44.9247" lon="6.59939">
        <ele>1322.4</ele>
        <time>2023-05-18T17:00:22+0200</time>
      </trkpt>
      <trkpt lat="44.92468" lon="6.59948">
        <ele>1322.5</ele>
        <time>2023-05-18T17:00:23+0200</time>
      </trkpt>
      <trkpt lat="44.92466" lon="6.59956">
        <ele>1322.1</ele>
        <time>2023-05-18T17:00:24+0200</time>
      </trkpt>
      <trkpt lat="44.92464" lon="6.59965">
        <ele>1321.7</ele>
        <time>2023-05-18T17:00:25+0200</time>
      </trkpt>
      <trkpt lat="44.92462" lon="6.59974">
        <ele>1321.3</ele>
        <time>2023-05-18T17:00:26+0200</time>
      </trkpt>
      <trkpt lat="44.9246" lon="6.59984">
        <ele>1321.1</ele>
        <time>2023-05-18T17:00:27+0200</time>
      </trkpt>
      <trkpt lat="44.92458" lon="6.5999">
        <ele>1321</ele>
        <time>2023-05-18T17:00:28+0200</time>
      </trkpt>
      <trkpt lat="44.92456" lon="6.59999">
        <ele>1320.7</ele>
        <time>2023-05-18T17:00:29+0200</time>
      </trkpt>
      <trkpt lat="44.92454" lon="6.60007">
        <ele>1320.4</ele>
        <time>2023-05-18T17:00:30+0200</time>
      </trkpt>
      <trkpt lat="44.92453" lon="6.60013">
        <ele>1320</ele>
        <time>2023-05-18T17:00:31+0200</time>
      </trkpt>
      <trkpt lat="44.92451" lon="6.60021">
        <ele>1319.6</ele>
        <time>2023-05-18T17:00:32+0200</time>
      </trkpt>
      <trkpt lat="44.9245" lon="6.60029">
        <ele>1319.1</ele>
        <time>2023-05-18T17:00:33+0200</time>
      </trkpt>
      <trkpt lat="44.92448" lon="6.60036">
        <ele>1318.9</ele>
        <time>2023-05-18T17:00:34+0200</time>
      </trkpt>
      <trkpt lat="44.92445" lon="6.6005">
        <ele>1318.3</ele>
        <time>2023-05-18T17:00:36+0200</time>
      </trkpt>
      <trkpt lat="44.92444" lon="6.60062">
        <ele>1317.8</ele>
        <time>2023-05-18T17:00:38+0200</time>
      </trkpt>
      <trkpt lat="44.92443" lon="6.6007">
        <ele>1317.4</ele>
        <time>2023-05-18T17:00:39+0200</time>
      </trkpt>
      <trkpt lat="44.92443" lon="6.60077">
        <ele>1316.8</ele>
        <time>2023-05-18T17:00:40+0200</time>
      </trkpt>
      <trkpt lat="44.92444" lon="6.60092">
        <ele>1315.5</ele>
        <time>2023-05-18T17:00:42+0200</time>
      </trkpt>
      <trkpt lat="44.92446" lon="6.60099">
        <ele>1314.8</ele>
        <time>2023-05-18T17:00:43+0200</time>
      </trkpt>
      <trkpt lat="44.92451" lon="6.60105">
        <ele>1314.3</ele>
        <time>2023-05-18T17:00:44+0200</time>
      </trkpt>
      <trkpt lat="44.92457" lon="6.60109">
        <ele>1314.1</ele>
        <time>2023-05-18T17:00:45+0200</time>
      </trkpt>
      <trkpt lat="44.92465" lon="6.60115">
        <ele>1313.9</ele>
        <time>2023-05-18T17:00:46+0200</time>
      </trkpt>
      <trkpt lat="44.92469" lon="6.60117">
        <ele>1314</ele>
        <time>2023-05-18T17:00:47+0200</time>
      </trkpt>
      <trkpt lat="44.92474" lon="6.6012">
        <ele>1314.3</ele>
        <time>2023-05-18T17:00:48+0200</time>
      </trkpt>
      <trkpt lat="44.92482" lon="6.60128">
        <ele>1315.1</ele>
        <time>2023-05-18T17:00:49+0200</time>
      </trkpt>
      <trkpt lat="44.92487" lon="6.60135">
        <ele>1315.7</ele>
        <time>2023-05-18T17:00:51+0200</time>
      </trkpt>
      <trkpt lat="44.92489" lon="6.60142">
        <ele>1315.9</ele>
        <time>2023-05-18T17:00:53+0200</time>
      </trkpt>
      <trkpt lat="44.92491" lon="6.60148">
        <ele>1316.1</ele>
        <time>2023-05-18T17:00:55+0200</time>
      </trkpt>
      <trkpt lat="44.92491" lon="6.60156">
        <ele>1316.2</ele>
        <time>2023-05-18T17:00:57+0200</time>
      </trkpt>
      <trkpt lat="44.92493" lon="6.60165">
        <ele>1316.5</ele>
        <time>2023-05-18T17:00:59+0200</time>
      </trkpt>
      <trkpt lat="44.92495" lon="6.60175">
        <ele>1317.2</ele>
        <time>2023-05-18T17:01:01+0200</time>
      </trkpt>
      <trkpt lat="44.92497" lon="6.60182">
        <ele>1317.9</ele>
        <time>2023-05-18T17:01:03+0200</time>
      </trkpt>
      <trkpt lat="44.92498" lon="6.6019">
        <ele>1318.4</ele>
        <time>2023-05-18T17:01:05+0200</time>
      </trkpt>
      <trkpt lat="44.92495" lon="6.60199">
        <ele>1318.7</ele>
        <time>2023-05-18T17:01:07+0200</time>
      </trkpt>
      <trkpt lat="44.92495" lon="6.60208">
        <ele>1318.9</ele>
        <time>2023-05-18T17:01:09+0200</time>
      </trkpt>
      <trkpt lat="44.92493" lon="6.60218">
        <ele>1319.1</ele>
        <time>2023-05-18T17:01:11+0200</time>
      </trkpt>
      <trkpt lat="44.92491" lon="6.60227">
        <ele>1319.2</ele>
        <time>2023-05-18T17:01:13+0200</time>
      </trkpt>
      <trkpt lat="44.92488" lon="6.60235">
        <ele>1319.1</ele>
        <time>2023-05-18T17:01:15+0200</time>
      </trkpt>
      <trkpt lat="44.92486" lon="6.60244">
        <ele>1319.2</ele>
        <time>2023-05-18T17:01:17+0200</time>
      </trkpt>
      <trkpt lat="44.92487" lon="6.60255">
        <ele>1319.8</ele>
        <time>2023-05-18T17:01:19+0200</time>
      </trkpt>
      <trkpt lat="44.9249" lon="6.60265">
        <ele>1320.4</ele>
        <time>2023-05-18T17:01:21+0200</time>
      </trkpt>
      <trkpt lat="44.92495" lon="6.60275">
        <ele>1321.4</ele>
        <time>2023-05-18T17:01:23+0200</time>
      </trkpt>
      <trkpt lat="44.92497" lon="6.60285">
        <ele>1322</ele>
        <time>2023-05-18T17:01:25+0200</time>
      </trkpt>
      <trkpt lat="44.92502" lon="6.60294">
        <ele>1322.8</ele>
        <time>2023-05-18T17:01:27+0200</time>
      </trkpt>
      <trkpt lat="44.92504" lon="6.603">
        <ele>1323.2</ele>
        <time>2023-05-18T17:01:28+0200</time>
      </trkpt>
      <trkpt lat="44.92508" lon="6.60305">
        <ele>1323.8</ele>
        <time>2023-05-18T17:01:29+0200</time>
      </trkpt>
      <trkpt lat="44.92513" lon="6.60313">
        <ele>1324.6</ele>
        <time>2023-05-18T17:01:31+0200</time>
      </trkpt>
      <trkpt lat="44.92519" lon="6.6032">
        <ele>1325.2</ele>
        <time>2023-05-18T17:01:33+0200</time>
      </trkpt>
      <trkpt lat="44.92525" lon="6.60327">
        <ele>1325.8</ele>
        <time>2023-05-18T17:01:35+0200</time>
      </trkpt>
      <trkpt lat="44.92531" lon="6.60334">
        <ele>1326.5</ele>
        <time>2023-05-18T17:01:37+0200</time>
      </trkpt>
      <trkpt lat="44.92534" lon="6.60338">
        <ele>1327.1</ele>
        <time>2023-05-18T17:01:38+0200</time>
      </trkpt>
      <trkpt lat="44.92539" lon="6.60345">
        <ele>1327.8</ele>
        <time>2023-05-18T17:01:40+0200</time>
      </trkpt>
      <trkpt lat="44.92545" lon="6.60349">
        <ele>1328.6</ele>
        <time>2023-05-18T17:01:42+0200</time>
      </trkpt>
      <trkpt lat="44.92548" lon="6.60353">
        <ele>1329.1</ele>
        <time>2023-05-18T17:01:44+0200</time>
      </trkpt>
      <trkpt lat="44.92551" lon="6.6036">
        <ele>1329.5</ele>
        <time>2023-05-18T17:01:46+0200</time>
      </trkpt>
      <trkpt lat="44.92554" lon="6.60365">
        <ele>1330.4</ele>
        <time>2023-05-18T17:01:48+0200</time>
      </trkpt>
      <trkpt lat="44.92551" lon="6.60372">
        <ele>1330.9</ele>
        <time>2023-05-18T17:01:50+0200</time>
      </trkpt>
      <trkpt lat="44.92545" lon="6.60381">
        <ele>1331</ele>
        <time>2023-05-18T17:01:52+0200</time>
      </trkpt>
      <trkpt lat="44.92542" lon="6.60388">
        <ele>1331</ele>
        <time>2023-05-18T17:01:53+0200</time>
      </trkpt>
      <trkpt lat="44.92539" lon="6.60395">
        <ele>1330.5</ele>
        <time>2023-05-18T17:01:54+0200</time>
      </trkpt>
      <trkpt lat="44.92544" lon="6.60409">
        <ele>1331.9</ele>
        <time>2023-05-18T17:01:55+0200</time>
      </trkpt>
      <trkpt lat="44.92542" lon="6.60415">
        <ele>1331.4</ele>
        <time>2023-05-18T17:01:56+0200</time>
      </trkpt>
      <trkpt lat="44.92539" lon="6.60421">
        <ele>1331</ele>
        <time>2023-05-18T17:01:57+0200</time>
      </trkpt>
      <trkpt lat="44.92536" lon="6.60426">
        <ele>1330.7</ele>
        <time>2023-05-18T17:01:58+0200</time>
      </trkpt>
      <trkpt lat="44.92533" lon="6.60434">
        <ele>1330.6</ele>
        <time>2023-05-18T17:01:59+0200</time>
      </trkpt>
      <trkpt lat="44.9253" lon="6.6044">
        <ele>1330.8</ele>
        <time>2023-05-18T17:02:00+0200</time>
      </trkpt>
      <trkpt lat="44.92527" lon="6.60447">
        <ele>1331.1</ele>
        <time>2023-05-18T17:02:01+0200</time>
      </trkpt>
      <trkpt lat="44.92524" lon="6.60454">
        <ele>1331</ele>
        <time>2023-05-18T17:02:02+0200</time>
      </trkpt>
      <trkpt lat="44.92521" lon="6.6046">
        <ele>1330.9</ele>
        <time>2023-05-18T17:02:03+0200</time>
      </trkpt>
      <trkpt lat="44.92518" lon="6.60467">
        <ele>1330.7</ele>
        <time>2023-05-18T17:02:05+0200</time>
      </trkpt>
      <trkpt lat="44.92515" lon="6.60473">
        <ele>1330.3</ele>
        <time>2023-05-18T17:02:06+0200</time>
      </trkpt>
      <trkpt lat="44.92513" lon="6.60478">
        <ele>1329.6</ele>
        <time>2023-05-18T17:02:07+0200</time>
      </trkpt>
      <trkpt lat="44.92511" lon="6.60484">
        <ele>1329.1</ele>
        <time>2023-05-18T17:02:08+0200</time>
      </trkpt>
      <trkpt lat="44.92506" lon="6.60494">
        <ele>1328.4</ele>
        <time>2023-05-18T17:02:10+0200</time>
      </trkpt>
      <trkpt lat="44.92503" lon="6.605">
        <ele>1328.2</ele>
        <time>2023-05-18T17:02:11+0200</time>
      </trkpt>
      <trkpt lat="44.92501" lon="6.60506">
        <ele>1328.9</ele>
        <time>2023-05-18T17:02:12+0200</time>
      </trkpt>
      <trkpt lat="44.92497" lon="6.60514">
        <ele>1329.5</ele>
        <time>2023-05-18T17:02:13+0200</time>
      </trkpt>
      <trkpt lat="44.92493" lon="6.60523">
        <ele>1329.7</ele>
        <time>2023-05-18T17:02:14+0200</time>
      </trkpt>
      <trkpt lat="44.92489" lon="6.60533">
        <ele>1329</ele>
        <time>2023-05-18T17:02:15+0200</time>
      </trkpt>
      <trkpt lat="44.92485" lon="6.60542">
        <ele>1328.3</ele>
        <time>2023-05-18T17:02:16+0200</time>
      </trkpt>
      <trkpt lat="44.92482" lon="6.60549">
        <ele>1327.8</ele>
        <time>2023-05-18T17:02:17+0200</time>
      </trkpt>
      <trkpt lat="44.92476" lon="6.60561">
        <ele>1328.1</ele>
        <time>2023-05-18T17:02:19+0200</time>
      </trkpt>
      <trkpt lat="44.92473" lon="6.60569">
        <ele>1328.9</ele>
        <time>2023-05-18T17:02:21+0200</time>
      </trkpt>
      <trkpt lat="44.92467" lon="6.60575">
        <ele>1328.9</ele>
        <time>2023-05-18T17:02:24+0200</time>
      </trkpt>
      <trkpt lat="44.92465" lon="6.60581">
        <ele>1329.2</ele>
        <time>2023-05-18T17:02:27+0200</time>
      </trkpt>
      <trkpt lat="44.92461" lon="6.60591">
        <ele>1328.8</ele>
        <time>2023-05-18T17:02:29+0200</time>
      </trkpt>
      <trkpt lat="44.92456" lon="6.60599">
        <ele>1328.2</ele>
        <time>2023-05-18T17:02:31+0200</time>
      </trkpt>
      <trkpt lat="44.92451" lon="6.60604">
        <ele>1327.5</ele>
        <time>2023-05-18T17:02:34+0200</time>
      </trkpt>
      <trkpt lat="44.92447" lon="6.6061">
        <ele>1327.2</ele>
        <time>2023-05-18T17:02:36+0200</time>
      </trkpt>
      <trkpt lat="44.92442" lon="6.60618">
        <ele>1327.3</ele>
        <time>2023-05-18T17:02:38+0200</time>
      </trkpt>
      <trkpt lat="44.92436" lon="6.6063">
        <ele>1327.7</ele>
        <time>2023-05-18T17:02:40+0200</time>
      </trkpt>
      <trkpt lat="44.92433" lon="6.60637">
        <ele>1327.9</ele>
        <time>2023-05-18T17:02:41+0200</time>
      </trkpt>
      <trkpt lat="44.92437" lon="6.60651">
        <ele>1329.7</ele>
        <time>2023-05-18T17:02:42+0200</time>
      </trkpt>
      <trkpt lat="44.92435" lon="6.60657">
        <ele>1329.8</ele>
        <time>2023-05-18T17:02:43+0200</time>
      </trkpt>
      <trkpt lat="44.92432" lon="6.60663">
        <ele>1329.9</ele>
        <time>2023-05-18T17:02:44+0200</time>
      </trkpt>
      <trkpt lat="44.92429" lon="6.6067">
        <ele>1330</ele>
        <time>2023-05-18T17:02:45+0200</time>
      </trkpt>
      <trkpt lat="44.92427" lon="6.60676">
        <ele>1330.2</ele>
        <time>2023-05-18T17:02:46+0200</time>
      </trkpt>
      <trkpt lat="44.92423" lon="6.60684">
        <ele>1330.5</ele>
        <time>2023-05-18T17:02:48+0200</time>
      </trkpt>
      <trkpt lat="44.9242" lon="6.60692">
        <ele>1330.9</ele>
        <time>2023-05-18T17:02:50+0200</time>
      </trkpt>
      <trkpt lat="44.92417" lon="6.607">
        <ele>1331.4</ele>
        <time>2023-05-18T17:02:52+0200</time>
      </trkpt>
      <trkpt lat="44.92412" lon="6.60707">
        <ele>1331.4</ele>
        <time>2023-05-18T17:02:54+0200</time>
      </trkpt>
      <trkpt lat="44.92409" lon="6.60717">
        <ele>1331.8</ele>
        <time>2023-05-18T17:02:56+0200</time>
      </trkpt>
      <trkpt lat="44.92406" lon="6.60726">
        <ele>1332.1</ele>
        <time>2023-05-18T17:02:58+0200</time>
      </trkpt>
      <trkpt lat="44.92402" lon="6.60734">
        <ele>1332.3</ele>
        <time>2023-05-18T17:03:00+0200</time>
      </trkpt>
      <trkpt lat="44.924" lon="6.60742">
        <ele>1332.6</ele>
        <time>2023-05-18T17:03:02+0200</time>
      </trkpt>
      <trkpt lat="44.92398" lon="6.60749">
        <ele>1332.9</ele>
        <time>2023-05-18T17:03:04+0200</time>
      </trkpt>
      <trkpt lat="44.92394" lon="6.60757">
        <ele>1332.8</ele>
        <time>2023-05-18T17:03:06+0200</time>
      </trkpt>
      <trkpt lat="44.92389" lon="6.60765">
        <ele>1332.5</ele>
        <time>2023-05-18T17:03:08+0200</time>
      </trkpt>
      <trkpt lat="44.92386" lon="6.60775">
        <ele>1332.5</ele>
        <time>2023-05-18T17:03:10+0200</time>
      </trkpt>
      <trkpt lat="44.92383" lon="6.6078">
        <ele>1332.5</ele>
        <time>2023-05-18T17:03:11+0200</time>
      </trkpt>
      <trkpt lat="44.92379" lon="6.60792">
        <ele>1332.6</ele>
        <time>2023-05-18T17:03:13+0200</time>
      </trkpt>
      <trkpt lat="44.92376" lon="6.60798">
        <ele>1332.7</ele>
        <time>2023-05-18T17:03:14+0200</time>
      </trkpt>
      <trkpt lat="44.92372" lon="6.60804">
        <ele>1332.7</ele>
        <time>2023-05-18T17:03:15+0200</time>
      </trkpt>
      <trkpt lat="44.92368" lon="6.60815">
        <ele>1332.9</ele>
        <time>2023-05-18T17:03:17+0200</time>
      </trkpt>
      <trkpt lat="44.92366" lon="6.60822">
        <ele>1333.1</ele>
        <time>2023-05-18T17:03:18+0200</time>
      </trkpt>
      <trkpt lat="44.92362" lon="6.60832">
        <ele>1333</ele>
        <time>2023-05-18T17:03:20+0200</time>
      </trkpt>
      <trkpt lat="44.9236" lon="6.60838">
        <ele>1333</ele>
        <time>2023-05-18T17:03:21+0200</time>
      </trkpt>
      <trkpt lat="44.92357" lon="6.60843">
        <ele>1332.8</ele>
        <time>2023-05-18T17:03:22+0200</time>
      </trkpt>
      <trkpt lat="44.92355" lon="6.60849">
        <ele>1332.7</ele>
        <time>2023-05-18T17:03:23+0200</time>
      </trkpt>
      <trkpt lat="44.92352" lon="6.60855">
        <ele>1332.7</ele>
        <time>2023-05-18T17:03:24+0200</time>
      </trkpt>
      <trkpt lat="44.9235" lon="6.60861">
        <ele>1332.8</ele>
        <time>2023-05-18T17:03:25+0200</time>
      </trkpt>
      <trkpt lat="44.92347" lon="6.60868">
        <ele>1332.7</ele>
        <time>2023-05-18T17:03:26+0200</time>
      </trkpt>
      <trkpt lat="44.92345" lon="6.60875">
        <ele>1332.7</ele>
        <time>2023-05-18T17:03:27+0200</time>
      </trkpt>
      <trkpt lat="44.92342" lon="6.60881">
        <ele>1332.6</ele>
        <time>2023-05-18T17:03:28+0200</time>
      </trkpt>
      <trkpt lat="44.92339" lon="6.60888">
        <ele>1332.6</ele>
        <time>2023-05-18T17:03:29+0200</time>
      </trkpt>
      <trkpt lat="44.92337" lon="6.60894">
        <ele>1332.6</ele>
        <time>2023-05-18T17:03:30+0200</time>
      </trkpt>
      <trkpt lat="44.92333" lon="6.60906">
        <ele>1332.5</ele>
        <time>2023-05-18T17:03:32+0200</time>
      </trkpt>
      <trkpt lat="44.92331" lon="6.60912">
        <ele>1332.4</ele>
        <time>2023-05-18T17:03:33+0200</time>
      </trkpt>
      <trkpt lat="44.92328" lon="6.60918">
        <ele>1332.3</ele>
        <time>2023-05-18T17:03:34+0200</time>
      </trkpt>
      <trkpt lat="44.92326" lon="6.60924">
        <ele>1332.2</ele>
        <time>2023-05-18T17:03:35+0200</time>
      </trkpt>
      <trkpt lat="44.92322" lon="6.60931">
        <ele>1331.9</ele>
        <time>2023-05-18T17:03:36+0200</time>
      </trkpt>
      <trkpt lat="44.92319" lon="6.60938">
        <ele>1331.7</ele>
        <time>2023-05-18T17:03:37+0200</time>
      </trkpt>
      <trkpt lat="44.92316" lon="6.60945">
        <ele>1331.6</ele>
        <time>2023-05-18T17:03:38+0200</time>
      </trkpt>
      <trkpt lat="44.92313" lon="6.60952">
        <ele>1331.5</ele>
        <time>2023-05-18T17:03:39+0200</time>
      </trkpt>
      <trkpt lat="44.9231" lon="6.6096">
        <ele>1331.7</ele>
        <time>2023-05-18T17:03:40+0200</time>
      </trkpt>
      <trkpt lat="44.92308" lon="6.60967">
        <ele>1331.8</ele>
        <time>2023-05-18T17:03:41+0200</time>
      </trkpt>
      <trkpt lat="44.92305" lon="6.60974">
        <ele>1331.9</ele>
        <time>2023-05-18T17:03:42+0200</time>
      </trkpt>
      <trkpt lat="44.92301" lon="6.6098">
        <ele>1331.7</ele>
        <time>2023-05-18T17:03:43+0200</time>
      </trkpt>
      <trkpt lat="44.92299" lon="6.60988">
        <ele>1331.6</ele>
        <time>2023-05-18T17:03:44+0200</time>
      </trkpt>
      <trkpt lat="44.92296" lon="6.60994">
        <ele>1331.5</ele>
        <time>2023-05-18T17:03:45+0200</time>
      </trkpt>
      <trkpt lat="44.92295" lon="6.61001">
        <ele>1331.5</ele>
        <time>2023-05-18T17:03:46+0200</time>
      </trkpt>
      <trkpt lat="44.92292" lon="6.61009">
        <ele>1331.3</ele>
        <time>2023-05-18T17:03:47+0200</time>
      </trkpt>
      <trkpt lat="44.92289" lon="6.61016">
        <ele>1331.1</ele>
        <time>2023-05-18T17:03:48+0200</time>
      </trkpt>
      <trkpt lat="44.92285" lon="6.61025">
        <ele>1331</ele>
        <time>2023-05-18T17:03:49+0200</time>
      </trkpt>
      <trkpt lat="44.92282" lon="6.61034">
        <ele>1330.8</ele>
        <time>2023-05-18T17:03:50+0200</time>
      </trkpt>
      <trkpt lat="44.9228" lon="6.61042">
        <ele>1330.7</ele>
        <time>2023-05-18T17:03:51+0200</time>
      </trkpt>
      <trkpt lat="44.92278" lon="6.6105">
        <ele>1330.9</ele>
        <time>2023-05-18T17:03:52+0200</time>
      </trkpt>
      <trkpt lat="44.92276" lon="6.61057">
        <ele>1330.9</ele>
        <time>2023-05-18T17:03:53+0200</time>
      </trkpt>
      <trkpt lat="44.92274" lon="6.61064">
        <ele>1331.1</ele>
        <time>2023-05-18T17:03:54+0200</time>
      </trkpt>
      <trkpt lat="44.9227" lon="6.6107">
        <ele>1331</ele>
        <time>2023-05-18T17:03:55+0200</time>
      </trkpt>
      <trkpt lat="44.9227" lon="6.61077">
        <ele>1331.4</ele>
        <time>2023-05-18T17:03:56+0200</time>
      </trkpt>
      <trkpt lat="44.92268" lon="6.61085">
        <ele>1331.6</ele>
        <time>2023-05-18T17:03:57+0200</time>
      </trkpt>
      <trkpt lat="44.92266" lon="6.61092">
        <ele>1331.4</ele>
        <time>2023-05-18T17:03:58+0200</time>
      </trkpt>
      <trkpt lat="44.92262" lon="6.61104">
        <ele>1331.1</ele>
        <time>2023-05-18T17:04:00+0200</time>
      </trkpt>
      <trkpt lat="44.92259" lon="6.61112">
        <ele>1331</ele>
        <time>2023-05-18T17:04:01+0200</time>
      </trkpt>
      <trkpt lat="44.92257" lon="6.61119">
        <ele>1331</ele>
        <time>2023-05-18T17:04:02+0200</time>
      </trkpt>
      <trkpt lat="44.92255" lon="6.61125">
        <ele>1331</ele>
        <time>2023-05-18T17:04:03+0200</time>
      </trkpt>
      <trkpt lat="44.92254" lon="6.61132">
        <ele>1331.2</ele>
        <time>2023-05-18T17:04:04+0200</time>
      </trkpt>
      <trkpt lat="44.92252" lon="6.61139">
        <ele>1331.2</ele>
        <time>2023-05-18T17:04:05+0200</time>
      </trkpt>
      <trkpt lat="44.9225" lon="6.61145">
        <ele>1331.3</ele>
        <time>2023-05-18T17:04:05+0200</time>
      </trkpt>
      <trkpt lat="44.92248" lon="6.61153">
        <ele>1331.2</ele>
        <time>2023-05-18T17:04:06+0200</time>
      </trkpt>
      <trkpt lat="44.9225" lon="6.61164">
        <ele>1331.9</ele>
        <time>2023-05-18T17:04:07+0200</time>
      </trkpt>
      <trkpt lat="44.92247" lon="6.61172">
        <ele>1331.7</ele>
        <time>2023-05-18T17:04:08+0200</time>
      </trkpt>
      <trkpt lat="44.92245" lon="6.61179">
        <ele>1331.6</ele>
        <time>2023-05-18T17:04:09+0200</time>
      </trkpt>
      <trkpt lat="44.92241" lon="6.6119">
        <ele>1331.5</ele>
        <time>2023-05-18T17:04:11+0200</time>
      </trkpt>
      <trkpt lat="44.92234" lon="6.612">
        <ele>1331</ele>
        <time>2023-05-18T17:04:12+0200</time>
      </trkpt>
      <trkpt lat="44.9223" lon="6.61205">
        <ele>1330.8</ele>
        <time>2023-05-18T17:04:13+0200</time>
      </trkpt>
      <trkpt lat="44.92225" lon="6.61213">
        <ele>1330.7</ele>
        <time>2023-05-18T17:04:14+0200</time>
      </trkpt>
      <trkpt lat="44.92222" lon="6.6122">
        <ele>1330.8</ele>
        <time>2023-05-18T17:04:15+0200</time>
      </trkpt>
      <trkpt lat="44.92224" lon="6.61234">
        <ele>1331.6</ele>
        <time>2023-05-18T17:04:17+0200</time>
      </trkpt>
      <trkpt lat="44.92217" lon="6.61252">
        <ele>1330.5</ele>
        <time>2023-05-18T17:04:19+0200</time>
      </trkpt>
      <trkpt lat="44.92216" lon="6.61259">
        <ele>1330.2</ele>
        <time>2023-05-18T17:04:20+0200</time>
      </trkpt>
      <trkpt lat="44.92215" lon="6.61268">
        <ele>1329.8</ele>
        <time>2023-05-18T17:04:21+0200</time>
      </trkpt>
      <trkpt lat="44.92214" lon="6.61276">
        <ele>1329.5</ele>
        <time>2023-05-18T17:04:22+0200</time>
      </trkpt>
      <trkpt lat="44.92212" lon="6.61283">
        <ele>1329.1</ele>
        <time>2023-05-18T17:04:23+0200</time>
      </trkpt>
      <trkpt lat="44.92204" lon="6.61292">
        <ele>1327.5</ele>
        <time>2023-05-18T17:04:25+0200</time>
      </trkpt>
      <trkpt lat="44.92201" lon="6.61304">
        <ele>1327</ele>
        <time>2023-05-18T17:04:27+0200</time>
      </trkpt>
      <trkpt lat="44.92198" lon="6.61315">
        <ele>1326.2</ele>
        <time>2023-05-18T17:04:29+0200</time>
      </trkpt>
      <trkpt lat="44.92197" lon="6.61322">
        <ele>1325.7</ele>
        <time>2023-05-18T17:04:30+0200</time>
      </trkpt>
      <trkpt lat="44.92196" lon="6.61329">
        <ele>1325.4</ele>
        <time>2023-05-18T17:04:31+0200</time>
      </trkpt>
      <trkpt lat="44.92193" lon="6.61335">
        <ele>1324.8</ele>
        <time>2023-05-18T17:04:32+0200</time>
      </trkpt>
      <trkpt lat="44.92191" lon="6.61343">
        <ele>1324.6</ele>
        <time>2023-05-18T17:04:33+0200</time>
      </trkpt>
      <trkpt lat="44.92191" lon="6.61352">
        <ele>1324.5</ele>
        <time>2023-05-18T17:04:34+0200</time>
      </trkpt>
      <trkpt lat="44.9219" lon="6.61361">
        <ele>1324.4</ele>
        <time>2023-05-18T17:04:36+0200</time>
      </trkpt>
      <trkpt lat="44.9219" lon="6.6137">
        <ele>1324.4</ele>
        <time>2023-05-18T17:04:38+0200</time>
      </trkpt>
      <trkpt lat="44.92191" lon="6.6138">
        <ele>1324.5</ele>
        <time>2023-05-18T17:04:40+0200</time>
      </trkpt>
      <trkpt lat="44.92192" lon="6.61386">
        <ele>1324.6</ele>
        <time>2023-05-18T17:04:41+0200</time>
      </trkpt>
      <trkpt lat="44.92192" lon="6.61397">
        <ele>1324.6</ele>
        <time>2023-05-18T17:04:43+0200</time>
      </trkpt>
      <trkpt lat="44.92192" lon="6.61408">
        <ele>1324.6</ele>
        <time>2023-05-18T17:04:45+0200</time>
      </trkpt>
      <trkpt lat="44.92191" lon="6.61422">
        <ele>1324.7</ele>
        <time>2023-05-18T17:04:47+0200</time>
      </trkpt>
      <trkpt lat="44.92192" lon="6.61435">
        <ele>1325.2</ele>
        <time>2023-05-18T17:04:49+0200</time>
      </trkpt>
      <trkpt lat="44.92191" lon="6.61442">
        <ele>1325.4</ele>
        <time>2023-05-18T17:04:50+0200</time>
      </trkpt>
      <trkpt lat="44.92191" lon="6.61448">
        <ele>1325.3</ele>
        <time>2023-05-18T17:04:51+0200</time>
      </trkpt>
      <trkpt lat="44.92189" lon="6.6146">
        <ele>1325</ele>
        <time>2023-05-18T17:04:53+0200</time>
      </trkpt>
      <trkpt lat="44.92186" lon="6.61473">
        <ele>1324.5</ele>
        <time>2023-05-18T17:04:55+0200</time>
      </trkpt>
      <trkpt lat="44.92185" lon="6.61482">
        <ele>1324.5</ele>
        <time>2023-05-18T17:04:56+0200</time>
      </trkpt>
      <trkpt lat="44.92184" lon="6.6149">
        <ele>1324.5</ele>
        <time>2023-05-18T17:04:57+0200</time>
      </trkpt>
      <trkpt lat="44.92182" lon="6.61498">
        <ele>1324.3</ele>
        <time>2023-05-18T17:04:58+0200</time>
      </trkpt>
      <trkpt lat="44.9218" lon="6.61505">
        <ele>1324</ele>
        <time>2023-05-18T17:04:59+0200</time>
      </trkpt>
      <trkpt lat="44.92177" lon="6.61513">
        <ele>1323.7</ele>
        <time>2023-05-18T17:05:00+0200</time>
      </trkpt>
      <trkpt lat="44.92173" lon="6.6152">
        <ele>1323.1</ele>
        <time>2023-05-18T17:05:01+0200</time>
      </trkpt>
      <trkpt lat="44.92168" lon="6.61526">
        <ele>1322.2</ele>
        <time>2023-05-18T17:05:02+0200</time>
      </trkpt>
      <trkpt lat="44.92163" lon="6.61532">
        <ele>1321.7</ele>
        <time>2023-05-18T17:05:03+0200</time>
      </trkpt>
      <trkpt lat="44.92157" lon="6.61535">
        <ele>1320.9</ele>
        <time>2023-05-18T17:05:04+0200</time>
      </trkpt>
      <trkpt lat="44.92152" lon="6.6154">
        <ele>1320.4</ele>
        <time>2023-05-18T17:05:05+0200</time>
      </trkpt>
      <trkpt lat="44.92146" lon="6.61546">
        <ele>1319.8</ele>
        <time>2023-05-18T17:05:06+0200</time>
      </trkpt>
      <trkpt lat="44.92142" lon="6.61553">
        <ele>1319.4</ele>
        <time>2023-05-18T17:05:07+0200</time>
      </trkpt>
      <trkpt lat="44.92136" lon="6.61557">
        <ele>1318.7</ele>
        <time>2023-05-18T17:05:08+0200</time>
      </trkpt>
      <trkpt lat="44.92131" lon="6.61563">
        <ele>1318.7</ele>
        <time>2023-05-18T17:05:09+0200</time>
      </trkpt>
      <trkpt lat="44.92127" lon="6.6157">
        <ele>1318.7</ele>
        <time>2023-05-18T17:05:10+0200</time>
      </trkpt>
      <trkpt lat="44.92122" lon="6.61577">
        <ele>1318.6</ele>
        <time>2023-05-18T17:05:11+0200</time>
      </trkpt>
      <trkpt lat="44.92118" lon="6.61583">
        <ele>1318.4</ele>
        <time>2023-05-18T17:05:12+0200</time>
      </trkpt>
      <trkpt lat="44.92113" lon="6.61589">
        <ele>1318.3</ele>
        <time>2023-05-18T17:05:13+0200</time>
      </trkpt>
      <trkpt lat="44.92109" lon="6.61597">
        <ele>1318.6</ele>
        <time>2023-05-18T17:05:14+0200</time>
      </trkpt>
      <trkpt lat="44.92104" lon="6.61604">
        <ele>1318.7</ele>
        <time>2023-05-18T17:05:15+0200</time>
      </trkpt>
      <trkpt lat="44.92099" lon="6.6161">
        <ele>1318.8</ele>
        <time>2023-05-18T17:05:16+0200</time>
      </trkpt>
      <trkpt lat="44.92094" lon="6.61617">
        <ele>1318.8</ele>
        <time>2023-05-18T17:05:17+0200</time>
      </trkpt>
      <trkpt lat="44.9209" lon="6.61624">
        <ele>1318.8</ele>
        <time>2023-05-18T17:05:18+0200</time>
      </trkpt>
      <trkpt lat="44.92085" lon="6.61631">
        <ele>1318.4</ele>
        <time>2023-05-18T17:05:19+0200</time>
      </trkpt>
      <trkpt lat="44.9208" lon="6.61638">
        <ele>1318.3</ele>
        <time>2023-05-18T17:05:20+0200</time>
      </trkpt>
      <trkpt lat="44.92075" lon="6.61643">
        <ele>1318.2</ele>
        <time>2023-05-18T17:05:21+0200</time>
      </trkpt>
      <trkpt lat="44.92071" lon="6.61653">
        <ele>1319.1</ele>
        <time>2023-05-18T17:05:22+0200</time>
      </trkpt>
      <trkpt lat="44.92067" lon="6.61661">
        <ele>1319.5</ele>
        <time>2023-05-18T17:05:23+0200</time>
      </trkpt>
      <trkpt lat="44.92063" lon="6.61669">
        <ele>1320</ele>
        <time>2023-05-18T17:05:24+0200</time>
      </trkpt>
      <trkpt lat="44.92058" lon="6.61675">
        <ele>1320.4</ele>
        <time>2023-05-18T17:05:25+0200</time>
      </trkpt>
      <trkpt lat="44.92053" lon="6.61681">
        <ele>1320.5</ele>
        <time>2023-05-18T17:05:26+0200</time>
      </trkpt>
      <trkpt lat="44.92048" lon="6.61688">
        <ele>1321</ele>
        <time>2023-05-18T17:05:27+0200</time>
      </trkpt>
      <trkpt lat="44.92043" lon="6.61693">
        <ele>1321.1</ele>
        <time>2023-05-18T17:05:28+0200</time>
      </trkpt>
      <trkpt lat="44.92038" lon="6.61699">
        <ele>1321</ele>
        <time>2023-05-18T17:05:29+0200</time>
      </trkpt>
      <trkpt lat="44.9203" lon="6.61709">
        <ele>1321.1</ele>
        <time>2023-05-18T17:05:31+0200</time>
      </trkpt>
      <trkpt lat="44.92024" lon="6.61715">
        <ele>1321.1</ele>
        <time>2023-05-18T17:05:32+0200</time>
      </trkpt>
      <trkpt lat="44.92019" lon="6.6172">
        <ele>1321.1</ele>
        <time>2023-05-18T17:05:33+0200</time>
      </trkpt>
      <trkpt lat="44.92015" lon="6.61725">
        <ele>1321.1</ele>
        <time>2023-05-18T17:05:34+0200</time>
      </trkpt>
      <trkpt lat="44.9201" lon="6.61732">
        <ele>1321.3</ele>
        <time>2023-05-18T17:05:35+0200</time>
      </trkpt>
      <trkpt lat="44.92003" lon="6.61734">
        <ele>1320.3</ele>
        <time>2023-05-18T17:05:36+0200</time>
      </trkpt>
      <trkpt lat="44.91997" lon="6.61737">
        <ele>1319.9</ele>
        <time>2023-05-18T17:05:37+0200</time>
      </trkpt>
      <trkpt lat="44.91991" lon="6.6174">
        <ele>1319.8</ele>
        <time>2023-05-18T17:05:38+0200</time>
      </trkpt>
      <trkpt lat="44.91984" lon="6.61741">
        <ele>1319.4</ele>
        <time>2023-05-18T17:05:39+0200</time>
      </trkpt>
      <trkpt lat="44.91978" lon="6.61741">
        <ele>1318.8</ele>
        <time>2023-05-18T17:05:40+0200</time>
      </trkpt>
      <trkpt lat="44.91972" lon="6.61738">
        <ele>1318.2</ele>
        <time>2023-05-18T17:05:41+0200</time>
      </trkpt>
      <trkpt lat="44.91966" lon="6.61736">
        <ele>1318</ele>
        <time>2023-05-18T17:05:42+0200</time>
      </trkpt>
      <trkpt lat="44.9196" lon="6.61735">
        <ele>1317.9</ele>
        <time>2023-05-18T17:05:43+0200</time>
      </trkpt>
      <trkpt lat="44.91954" lon="6.61734">
        <ele>1317.8</ele>
        <time>2023-05-18T17:05:44+0200</time>
      </trkpt>
      <trkpt lat="44.91948" lon="6.61734">
        <ele>1317.8</ele>
        <time>2023-05-18T17:05:45+0200</time>
      </trkpt>
      <trkpt lat="44.91941" lon="6.61734">
        <ele>1317.7</ele>
        <time>2023-05-18T17:05:46+0200</time>
      </trkpt>
      <trkpt lat="44.91934" lon="6.61735">
        <ele>1317.7</ele>
        <time>2023-05-18T17:05:47+0200</time>
      </trkpt>
      <trkpt lat="44.91928" lon="6.61735">
        <ele>1317.6</ele>
        <time>2023-05-18T17:05:48+0200</time>
      </trkpt>
      <trkpt lat="44.91922" lon="6.61735">
        <ele>1317.5</ele>
        <time>2023-05-18T17:05:49+0200</time>
      </trkpt>
      <trkpt lat="44.91917" lon="6.61736">
        <ele>1317.5</ele>
        <time>2023-05-18T17:05:50+0200</time>
      </trkpt>
      <trkpt lat="44.9191" lon="6.61737">
        <ele>1317.3</ele>
        <time>2023-05-18T17:05:51+0200</time>
      </trkpt>
      <trkpt lat="44.91904" lon="6.61737">
        <ele>1317.1</ele>
        <time>2023-05-18T17:05:52+0200</time>
      </trkpt>
      <trkpt lat="44.91899" lon="6.61738">
        <ele>1317.1</ele>
        <time>2023-05-18T17:05:53+0200</time>
      </trkpt>
      <trkpt lat="44.91893" lon="6.61741">
        <ele>1317.2</ele>
        <time>2023-05-18T17:05:54+0200</time>
      </trkpt>
      <trkpt lat="44.91887" lon="6.61742">
        <ele>1317.1</ele>
        <time>2023-05-18T17:05:55+0200</time>
      </trkpt>
      <trkpt lat="44.91882" lon="6.61743">
        <ele>1317</ele>
        <time>2023-05-18T17:05:55+0200</time>
      </trkpt>
      <trkpt lat="44.91876" lon="6.61745">
        <ele>1317</ele>
        <time>2023-05-18T17:05:56+0200</time>
      </trkpt>
      <trkpt lat="44.9187" lon="6.61747">
        <ele>1317</ele>
        <time>2023-05-18T17:05:57+0200</time>
      </trkpt>
      <trkpt lat="44.91865" lon="6.6175">
        <ele>1317.1</ele>
        <time>2023-05-18T17:05:58+0200</time>
      </trkpt>
      <trkpt lat="44.9186" lon="6.61752">
        <ele>1317.1</ele>
        <time>2023-05-18T17:05:59+0200</time>
      </trkpt>
      <trkpt lat="44.91856" lon="6.61756">
        <ele>1317.2</ele>
        <time>2023-05-18T17:06:00+0200</time>
      </trkpt>
      <trkpt lat="44.91843" lon="6.61747">
        <ele>1315.5</ele>
        <time>2023-05-18T17:06:01+0200</time>
      </trkpt>
      <trkpt lat="44.9185" lon="6.61774">
        <ele>1318.8</ele>
        <time>2023-05-18T17:06:03+0200</time>
      </trkpt>
      <trkpt lat="44.91847" lon="6.61781">
        <ele>1319.2</ele>
        <time>2023-05-18T17:06:05+0200</time>
      </trkpt>
      <trkpt lat="44.91844" lon="6.61786">
        <ele>1319.4</ele>
        <time>2023-05-18T17:06:06+0200</time>
      </trkpt>
      <trkpt lat="44.9184" lon="6.61789">
        <ele>1319.2</ele>
        <time>2023-05-18T17:06:07+0200</time>
      </trkpt>
      <trkpt lat="44.91836" lon="6.61793">
        <ele>1319.3</ele>
        <time>2023-05-18T17:06:08+0200</time>
      </trkpt>
      <trkpt lat="44.91829" lon="6.61803">
        <ele>1319.4</ele>
        <time>2023-05-18T17:06:10+0200</time>
      </trkpt>
      <trkpt lat="44.91826" lon="6.61808">
        <ele>1319.4</ele>
        <time>2023-05-18T17:06:11+0200</time>
      </trkpt>
      <trkpt lat="44.91824" lon="6.61815">
        <ele>1319.5</ele>
        <time>2023-05-18T17:06:12+0200</time>
      </trkpt>
      <trkpt lat="44.91821" lon="6.61822">
        <ele>1319.5</ele>
        <time>2023-05-18T17:06:13+0200</time>
      </trkpt>
      <trkpt lat="44.91819" lon="6.6183">
        <ele>1319.8</ele>
        <time>2023-05-18T17:06:14+0200</time>
      </trkpt>
      <trkpt lat="44.91819" lon="6.61843">
        <ele>1320.5</ele>
        <time>2023-05-18T17:06:17+0200</time>
      </trkpt>
      <trkpt lat="44.91822" lon="6.61851">
        <ele>1321.3</ele>
        <time>2023-05-18T17:06:19+0200</time>
      </trkpt>
      <trkpt lat="44.91833" lon="6.61848">
        <ele>1322.4</ele>
        <time>2023-05-18T17:06:20+0200</time>
      </trkpt>
      <trkpt lat="44.91841" lon="6.61847">
        <ele>1323.2</ele>
        <time>2023-05-18T17:06:22+0200</time>
      </trkpt>
      <trkpt lat="44.91845" lon="6.61842">
        <ele>1323.3</ele>
        <time>2023-05-18T17:06:23+0200</time>
      </trkpt>
      <trkpt lat="44.91849" lon="6.61835">
        <ele>1323.2</ele>
        <time>2023-05-18T17:06:24+0200</time>
      </trkpt>
      <trkpt lat="44.91855" lon="6.61827">
        <ele>1323.1</ele>
        <time>2023-05-18T17:06:26+0200</time>
      </trkpt>
      <trkpt lat="44.91858" lon="6.61823">
        <ele>1323</ele>
        <time>2023-05-18T17:06:27+0200</time>
      </trkpt>
      <trkpt lat="44.91867" lon="6.61819">
        <ele>1323.3</ele>
        <time>2023-05-18T17:06:29+0200</time>
      </trkpt>
      <trkpt lat="44.9187" lon="6.61815">
        <ele>1323.3</ele>
        <time>2023-05-18T17:06:30+0200</time>
      </trkpt>
      <trkpt lat="44.91875" lon="6.6181">
        <ele>1323.3</ele>
        <time>2023-05-18T17:06:32+0200</time>
      </trkpt>
      <trkpt lat="44.91881" lon="6.61807">
        <ele>1323.6</ele>
        <time>2023-05-18T17:06:34+0200</time>
      </trkpt>
      <trkpt lat="44.91889" lon="6.61804">
        <ele>1323.8</ele>
        <time>2023-05-18T17:06:36+0200</time>
      </trkpt>
      <trkpt lat="44.91895" lon="6.61803">
        <ele>1323.9</ele>
        <time>2023-05-18T17:06:38+0200</time>
      </trkpt>
      <trkpt lat="44.919" lon="6.6181">
        <ele>1324.8</ele>
        <time>2023-05-18T17:06:40+0200</time>
      </trkpt>
      <trkpt lat="44.91902" lon="6.6182">
        <ele>1325.8</ele>
        <time>2023-05-18T17:06:42+0200</time>
      </trkpt>
      <trkpt lat="44.91901" lon="6.61828">
        <ele>1326.4</ele>
        <time>2023-05-18T17:06:44+0200</time>
      </trkpt>
      <trkpt lat="44.91902" lon="6.61837">
        <ele>1327.3</ele>
        <time>2023-05-18T17:06:46+0200</time>
      </trkpt>
      <trkpt lat="44.91899" lon="6.61845">
        <ele>1327.7</ele>
        <time>2023-05-18T17:06:48+0200</time>
      </trkpt>
      <trkpt lat="44.91894" lon="6.61849">
        <ele>1327.6</ele>
        <time>2023-05-18T17:06:50+0200</time>
      </trkpt>
      <trkpt lat="44.9189" lon="6.61856">
        <ele>1327.8</ele>
        <time>2023-05-18T17:06:52+0200</time>
      </trkpt>
      <trkpt lat="44.91885" lon="6.61865">
        <ele>1328</ele>
        <time>2023-05-18T17:06:54+0200</time>
      </trkpt>
      <trkpt lat="44.91881" lon="6.61871">
        <ele>1328</ele>
        <time>2023-05-18T17:06:56+0200</time>
      </trkpt>
      <trkpt lat="44.91876" lon="6.6188">
        <ele>1328.1</ele>
        <time>2023-05-18T17:06:58+0200</time>
      </trkpt>
      <trkpt lat="44.91874" lon="6.61886">
        <ele>1328.2</ele>
        <time>2023-05-18T17:06:59+0200</time>
      </trkpt>
      <trkpt lat="44.9187" lon="6.61898">
        <ele>1328.6</ele>
        <time>2023-05-18T17:07:01+0200</time>
      </trkpt>
      <trkpt lat="44.91866" lon="6.61905">
        <ele>1328.8</ele>
        <time>2023-05-18T17:07:03+0200</time>
      </trkpt>
      <trkpt lat="44.91863" lon="6.61913">
        <ele>1329</ele>
        <time>2023-05-18T17:07:08+0200</time>
      </trkpt>
      <trkpt lat="44.91862" lon="6.61921">
        <ele>1329.5</ele>
        <time>2023-05-18T17:07:11+0200</time>
      </trkpt>
      <trkpt lat="44.91861" lon="6.61931">
        <ele>1330</ele>
        <time>2023-05-18T17:07:14+0200</time>
      </trkpt>
      <trkpt lat="44.91856" lon="6.61932">
        <ele>1329.5</ele>
        <time>2023-05-18T17:07:19+0200</time>
      </trkpt>
      <trkpt lat="44.91849" lon="6.61932">
        <ele>1328.6</ele>
        <time>2023-05-18T17:07:22+0200</time>
      </trkpt>
      <trkpt lat="44.91851" lon="6.61942">
        <ele>1329.3</ele>
        <time>2023-05-18T17:07:24+0200</time>
      </trkpt>
      <trkpt lat="44.91849" lon="6.61948">
        <ele>1329.6</ele>
        <time>2023-05-18T17:07:28+0200</time>
      </trkpt>
      <trkpt lat="44.91849" lon="6.61955">
        <ele>1330.1</ele>
        <time>2023-05-18T17:07:31+0200</time>
      </trkpt>
      <trkpt lat="44.91847" lon="6.61962">
        <ele>1330.2</ele>
        <time>2023-05-18T17:07:34+0200</time>
      </trkpt>
      <trkpt lat="44.91846" lon="6.61969">
        <ele>1330.5</ele>
        <time>2023-05-18T17:07:36+0200</time>
      </trkpt>
      <trkpt lat="44.91843" lon="6.61975">
        <ele>1330.4</ele>
        <time>2023-05-18T17:07:38+0200</time>
      </trkpt>
      <trkpt lat="44.91839" lon="6.61983">
        <ele>1330.3</ele>
        <time>2023-05-18T17:07:41+0200</time>
      </trkpt>
      <trkpt lat="44.91837" lon="6.6199">
        <ele>1330.5</ele>
        <time>2023-05-18T17:07:43+0200</time>
      </trkpt>
      <trkpt lat="44.91834" lon="6.61998">
        <ele>1330.9</ele>
        <time>2023-05-18T17:07:45+0200</time>
      </trkpt>
      <trkpt lat="44.91827" lon="6.62004">
        <ele>1330</ele>
        <time>2023-05-18T17:07:47+0200</time>
      </trkpt>
      <trkpt lat="44.91821" lon="6.6201">
        <ele>1329.3</ele>
        <time>2023-05-18T17:07:49+0200</time>
      </trkpt>
      <trkpt lat="44.9182" lon="6.62017">
        <ele>1329.5</ele>
        <time>2023-05-18T17:07:50+0200</time>
      </trkpt>
      <trkpt lat="44.91817" lon="6.62026">
        <ele>1329.6</ele>
        <time>2023-05-18T17:07:52+0200</time>
      </trkpt>
      <trkpt lat="44.91814" lon="6.62035">
        <ele>1329.7</ele>
        <time>2023-05-18T17:07:54+0200</time>
      </trkpt>
      <trkpt lat="44.91811" lon="6.62041">
        <ele>1329.6</ele>
        <time>2023-05-18T17:07:56+0200</time>
      </trkpt>
      <trkpt lat="44.91807" lon="6.6205">
        <ele>1329.7</ele>
        <time>2023-05-18T17:07:59+0200</time>
      </trkpt>
      <trkpt lat="44.91804" lon="6.62057">
        <ele>1329.8</ele>
        <time>2023-05-18T17:08:01+0200</time>
      </trkpt>
      <trkpt lat="44.91802" lon="6.62063">
        <ele>1330</ele>
        <time>2023-05-18T17:08:03+0200</time>
      </trkpt>
      <trkpt lat="44.91799" lon="6.62071">
        <ele>1330.2</ele>
        <time>2023-05-18T17:08:05+0200</time>
      </trkpt>
      <trkpt lat="44.91795" lon="6.62077">
        <ele>1330</ele>
        <time>2023-05-18T17:08:07+0200</time>
      </trkpt>
      <trkpt lat="44.91792" lon="6.62083">
        <ele>1330</ele>
        <time>2023-05-18T17:08:09+0200</time>
      </trkpt>
      <trkpt lat="44.91789" lon="6.6209">
        <ele>1330</ele>
        <time>2023-05-18T17:08:10+0200</time>
      </trkpt>
      <trkpt lat="44.91787" lon="6.62096">
        <ele>1330.3</ele>
        <time>2023-05-18T17:08:12+0200</time>
      </trkpt>
      <trkpt lat="44.91787" lon="6.62104">
        <ele>1331</ele>
        <time>2023-05-18T17:08:14+0200</time>
      </trkpt>
      <trkpt lat="44.91786" lon="6.62111">
        <ele>1331.6</ele>
        <time>2023-05-18T17:08:16+0200</time>
      </trkpt>
      <trkpt lat="44.91783" lon="6.62123">
        <ele>1332.5</ele>
        <time>2023-05-18T17:08:18+0200</time>
      </trkpt>
      <trkpt lat="44.91777" lon="6.62131">
        <ele>1332.8</ele>
        <time>2023-05-18T17:08:20+0200</time>
      </trkpt>
      <trkpt lat="44.91775" lon="6.62137">
        <ele>1333.1</ele>
        <time>2023-05-18T17:08:21+0200</time>
      </trkpt>
      <trkpt lat="44.91772" lon="6.62142">
        <ele>1333.2</ele>
        <time>2023-05-18T17:08:23+0200</time>
      </trkpt>
      <trkpt lat="44.91768" lon="6.62149">
        <ele>1333.6</ele>
        <time>2023-05-18T17:08:24+0200</time>
      </trkpt>
      <trkpt lat="44.91765" lon="6.62155">
        <ele>1333.8</ele>
        <time>2023-05-18T17:08:25+0200</time>
      </trkpt>
      <trkpt lat="44.9176" lon="6.62161">
        <ele>1333.9</ele>
        <time>2023-05-18T17:08:26+0200</time>
      </trkpt>
      <trkpt lat="44.91755" lon="6.62168">
        <ele>1334.2</ele>
        <time>2023-05-18T17:08:27+0200</time>
      </trkpt>
      <trkpt lat="44.91751" lon="6.62175">
        <ele>1334.7</ele>
        <time>2023-05-18T17:08:28+0200</time>
      </trkpt>
      <trkpt lat="44.91746" lon="6.62181">
        <ele>1334.8</ele>
        <time>2023-05-18T17:08:29+0200</time>
      </trkpt>
      <trkpt lat="44.9174" lon="6.62187">
        <ele>1334.8</ele>
        <time>2023-05-18T17:08:30+0200</time>
      </trkpt>
      <trkpt lat="44.91734" lon="6.62192">
        <ele>1334.5</ele>
        <time>2023-05-18T17:08:31+0200</time>
      </trkpt>
      <trkpt lat="44.91728" lon="6.62196">
        <ele>1334.2</ele>
        <time>2023-05-18T17:08:32+0200</time>
      </trkpt>
      <trkpt lat="44.91722" lon="6.62201">
        <ele>1334</ele>
        <time>2023-05-18T17:08:33+0200</time>
      </trkpt>
      <trkpt lat="44.91716" lon="6.62205">
        <ele>1333.6</ele>
        <time>2023-05-18T17:08:34+0200</time>
      </trkpt>
      <trkpt lat="44.91709" lon="6.6221">
        <ele>1333.2</ele>
        <time>2023-05-18T17:08:35+0200</time>
      </trkpt>
      <trkpt lat="44.91703" lon="6.62214">
        <ele>1332.7</ele>
        <time>2023-05-18T17:08:36+0200</time>
      </trkpt>
      <trkpt lat="44.91696" lon="6.62218">
        <ele>1332.2</ele>
        <time>2023-05-18T17:08:37+0200</time>
      </trkpt>
      <trkpt lat="44.91689" lon="6.62221">
        <ele>1331.8</ele>
        <time>2023-05-18T17:08:38+0200</time>
      </trkpt>
      <trkpt lat="44.91682" lon="6.62225">
        <ele>1331.9</ele>
        <time>2023-05-18T17:08:39+0200</time>
      </trkpt>
      <trkpt lat="44.91675" lon="6.62229">
        <ele>1331.6</ele>
        <time>2023-05-18T17:08:40+0200</time>
      </trkpt>
      <trkpt lat="44.91669" lon="6.62232">
        <ele>1331.4</ele>
        <time>2023-05-18T17:08:41+0200</time>
      </trkpt>
      <trkpt lat="44.91662" lon="6.62235">
        <ele>1331</ele>
        <time>2023-05-18T17:08:42+0200</time>
      </trkpt>
      <trkpt lat="44.91656" lon="6.62239">
        <ele>1330.9</ele>
        <time>2023-05-18T17:08:43+0200</time>
      </trkpt>
      <trkpt lat="44.91651" lon="6.62245">
        <ele>1331.2</ele>
        <time>2023-05-18T17:08:44+0200</time>
      </trkpt>
      <trkpt lat="44.91645" lon="6.62252">
        <ele>1331.5</ele>
        <time>2023-05-18T17:08:45+0200</time>
      </trkpt>
      <trkpt lat="44.91639" lon="6.62256">
        <ele>1331.2</ele>
        <time>2023-05-18T17:08:46+0200</time>
      </trkpt>
      <trkpt lat="44.91633" lon="6.62259">
        <ele>1331.2</ele>
        <time>2023-05-18T17:08:47+0200</time>
      </trkpt>
      <trkpt lat="44.91627" lon="6.62263">
        <ele>1331.4</ele>
        <time>2023-05-18T17:08:48+0200</time>
      </trkpt>
      <trkpt lat="44.91621" lon="6.62267">
        <ele>1331.4</ele>
        <time>2023-05-18T17:08:49+0200</time>
      </trkpt>
      <trkpt lat="44.91616" lon="6.62271">
        <ele>1331.5</ele>
        <time>2023-05-18T17:08:50+0200</time>
      </trkpt>
      <trkpt lat="44.91611" lon="6.62276">
        <ele>1331.6</ele>
        <time>2023-05-18T17:08:51+0200</time>
      </trkpt>
      <trkpt lat="44.91605" lon="6.6228">
        <ele>1331.6</ele>
        <time>2023-05-18T17:08:52+0200</time>
      </trkpt>
      <trkpt lat="44.916" lon="6.62285">
        <ele>1331.8</ele>
        <time>2023-05-18T17:08:53+0200</time>
      </trkpt>
      <trkpt lat="44.91594" lon="6.6229">
        <ele>1331.9</ele>
        <time>2023-05-18T17:08:54+0200</time>
      </trkpt>
      <trkpt lat="44.9159" lon="6.62297">
        <ele>1332.4</ele>
        <time>2023-05-18T17:08:55+0200</time>
      </trkpt>
      <trkpt lat="44.91587" lon="6.62302">
        <ele>1332.7</ele>
        <time>2023-05-18T17:08:56+0200</time>
      </trkpt>
      <trkpt lat="44.91582" lon="6.62307">
        <ele>1333.1</ele>
        <time>2023-05-18T17:08:57+0200</time>
      </trkpt>
      <trkpt lat="44.91578" lon="6.62311">
        <ele>1333.1</ele>
        <time>2023-05-18T17:08:58+0200</time>
      </trkpt>
      <trkpt lat="44.91572" lon="6.6232">
        <ele>1333.7</ele>
        <time>2023-05-18T17:09:00+0200</time>
      </trkpt>
      <trkpt lat="44.91564" lon="6.62327">
        <ele>1333.5</ele>
        <time>2023-05-18T17:09:02+0200</time>
      </trkpt>
      <trkpt lat="44.91558" lon="6.62336">
        <ele>1333.8</ele>
        <time>2023-05-18T17:09:04+0200</time>
      </trkpt>
      <trkpt lat="44.91552" lon="6.62346">
        <ele>1334.4</ele>
        <time>2023-05-18T17:09:06+0200</time>
      </trkpt>
      <trkpt lat="44.91549" lon="6.6235">
        <ele>1334.4</ele>
        <time>2023-05-18T17:09:07+0200</time>
      </trkpt>
      <trkpt lat="44.91546" lon="6.62356">
        <ele>1334.8</ele>
        <time>2023-05-18T17:09:08+0200</time>
      </trkpt>
      <trkpt lat="44.91541" lon="6.62367">
        <ele>1335.5</ele>
        <time>2023-05-18T17:09:10+0200</time>
      </trkpt>
      <trkpt lat="44.91539" lon="6.62372">
        <ele>1335.8</ele>
        <time>2023-05-18T17:09:11+0200</time>
      </trkpt>
      <trkpt lat="44.91535" lon="6.62383">
        <ele>1336.4</ele>
        <time>2023-05-18T17:09:13+0200</time>
      </trkpt>
      <trkpt lat="44.91533" lon="6.62389">
        <ele>1336.8</ele>
        <time>2023-05-18T17:09:14+0200</time>
      </trkpt>
      <trkpt lat="44.91528" lon="6.624">
        <ele>1337.5</ele>
        <time>2023-05-18T17:09:16+0200</time>
      </trkpt>
      <trkpt lat="44.91524" lon="6.62408">
        <ele>1338.2</ele>
        <time>2023-05-18T17:09:18+0200</time>
      </trkpt>
      <trkpt lat="44.91522" lon="6.62418">
        <ele>1339.3</ele>
        <time>2023-05-18T17:09:20+0200</time>
      </trkpt>
      <trkpt lat="44.91526" lon="6.62428">
        <ele>1340.6</ele>
        <time>2023-05-18T17:09:23+0200</time>
      </trkpt>
      <trkpt lat="44.91528" lon="6.62434">
        <ele>1341.3</ele>
        <time>2023-05-18T17:09:27+0200</time>
      </trkpt>
      <trkpt lat="44.91533" lon="6.62439">
        <ele>1342.1</ele>
        <time>2023-05-18T17:09:31+0200</time>
      </trkpt>
      <trkpt lat="44.91534" lon="6.62447">
        <ele>1342.9</ele>
        <time>2023-05-18T17:09:35+0200</time>
      </trkpt>
      <trkpt lat="44.91538" lon="6.62453">
        <ele>1344</ele>
        <time>2023-05-18T17:09:39+0200</time>
      </trkpt>
      <trkpt lat="44.91541" lon="6.62459">
        <ele>1345</ele>
        <time>2023-05-18T17:09:43+0200</time>
      </trkpt>
      <trkpt lat="44.91541" lon="6.62466">
        <ele>1345.7</ele>
        <time>2023-05-18T17:09:47+0200</time>
      </trkpt>
      <trkpt lat="44.91545" lon="6.62471">
        <ele>1346.6</ele>
        <time>2023-05-18T17:09:51+0200</time>
      </trkpt>
      <trkpt lat="44.91549" lon="6.62473">
        <ele>1347.3</ele>
        <time>2023-05-18T17:09:53+0200</time>
      </trkpt>
      <trkpt lat="44.91553" lon="6.62477">
        <ele>1348.2</ele>
        <time>2023-05-18T17:09:57+0200</time>
      </trkpt>
      <trkpt lat="44.91558" lon="6.62474">
        <ele>1348.5</ele>
        <time>2023-05-18T17:09:59+0200</time>
      </trkpt>
      <trkpt lat="44.91562" lon="6.62474">
        <ele>1349.1</ele>
        <time>2023-05-18T17:10:01+0200</time>
      </trkpt>
      <trkpt lat="44.91567" lon="6.62472">
        <ele>1349.6</ele>
        <time>2023-05-18T17:10:03+0200</time>
      </trkpt>
      <trkpt lat="44.91572" lon="6.62469">
        <ele>1350</ele>
        <time>2023-05-18T17:10:05+0200</time>
      </trkpt>
      <trkpt lat="44.91577" lon="6.62464">
        <ele>1350.4</ele>
        <time>2023-05-18T17:10:08+0200</time>
      </trkpt>
      <trkpt lat="44.91582" lon="6.62456">
        <ele>1350.6</ele>
        <time>2023-05-18T17:10:11+0200</time>
      </trkpt>
      <trkpt lat="44.91588" lon="6.62456">
        <ele>1351.7</ele>
        <time>2023-05-18T17:10:14+0200</time>
      </trkpt>
      <trkpt lat="44.91592" lon="6.62451">
        <ele>1352</ele>
        <time>2023-05-18T17:10:29+0200</time>
      </trkpt>
    </trkseg>
  </trk>
</gpx>